<?xml version="1.0" encoding="UTF-8"?>
<gpx version="1.1" creator="https://www.youtrack.es" xsi:schemaLocation="http://www.topografix.com/GPX/1/1 http://www.topografix.com/GPX/1/1/gpx.xsd http://www.garmin.com/xmlschemas/GpxExtensions/v3 http://www.garmin.com/xmlschemas/GpxExtensionsv3.xsd http://www.garmin.com/xmlschemas/TrackPointExtension/v1 http://www.garmin.com/xmlschemas/TrackPointExtensionv1.xsd" xmlns:gpxtpx="http://www.garmin.com/xmlschemas/TrackPointExtension/v1" xmlns:gpxx="http://www.garmin.com/xmlschemas/GpxExtensions/v3" xmlns:xsi="http://www.w3.org/2001/XMLSchema-instance">
  <metadata>
    <link href="https://www.youtrack.es">
      <text>YouTrack.es</text>
    </link>
    <time>2026-05-09T03:14:07Z</time>
  </metadata>
  <trk>
    <src>https://www.youtrack.es</src>
    <link href="https://www.youtrack.es/ruta/6356-gr11-04">
      <text>YouTrack.es</text>
    </link>
    <trkseg>
      <trkpt lat="42.864638" lon="-0.810935">
        <ele>1218.0</ele>
        <time>2013-08-16T04:52:53Z</time>
      </trkpt>
      <trkpt lat="42.864613" lon="-0.810023">
        <ele>1219.4</ele>
        <time>2013-08-16T04:53:11Z</time>
      </trkpt>
      <trkpt lat="42.864498" lon="-0.809750">
        <ele>1218.9</ele>
        <time>2013-08-16T04:53:25Z</time>
      </trkpt>
      <trkpt lat="42.864418" lon="-0.809480">
        <ele>1221.0</ele>
        <time>2013-08-16T04:53:38Z</time>
      </trkpt>
      <trkpt lat="42.864314" lon="-0.809208">
        <ele>1221.0</ele>
        <time>2013-08-16T04:53:53Z</time>
      </trkpt>
      <trkpt lat="42.864179" lon="-0.808846">
        <ele>1222.0</ele>
        <time>2013-08-16T04:54:10Z</time>
      </trkpt>
      <trkpt lat="42.864156" lon="-0.808795">
        <ele>1222.6</ele>
        <time>2013-08-16T04:54:13Z</time>
      </trkpt>
      <trkpt lat="42.864053" lon="-0.808609">
        <ele>1223.3</ele>
        <time>2013-08-16T04:54:31Z</time>
      </trkpt>
      <trkpt lat="42.864046" lon="-0.808210">
        <ele>1223.5</ele>
        <time>2013-08-16T04:54:49Z</time>
      </trkpt>
      <trkpt lat="42.864057" lon="-0.808101">
        <ele>1223.7</ele>
        <time>2013-08-16T04:54:54Z</time>
      </trkpt>
      <trkpt lat="42.864062" lon="-0.807923">
        <ele>1224.0</ele>
        <time>2013-08-16T04:55:03Z</time>
      </trkpt>
      <trkpt lat="42.864064" lon="-0.807907">
        <ele>1224.0</ele>
        <time>2013-08-16T04:55:04Z</time>
      </trkpt>
      <trkpt lat="42.864112" lon="-0.807610">
        <ele>1225.0</ele>
        <time>2013-08-16T04:55:20Z</time>
      </trkpt>
      <trkpt lat="42.864130" lon="-0.807447">
        <ele>1224.8</ele>
        <time>2013-08-16T04:55:27Z</time>
      </trkpt>
      <trkpt lat="42.864165" lon="-0.807237">
        <ele>1225.0</ele>
        <time>2013-08-16T04:55:38Z</time>
      </trkpt>
      <trkpt lat="42.864157" lon="-0.806986">
        <ele>1224.5</ele>
        <time>2013-08-16T04:55:51Z</time>
      </trkpt>
      <trkpt lat="42.864129" lon="-0.806683">
        <ele>1226.0</ele>
        <time>2013-08-16T04:56:07Z</time>
      </trkpt>
      <trkpt lat="42.864062" lon="-0.806485">
        <ele>1226.0</ele>
        <time>2013-08-16T04:56:20Z</time>
      </trkpt>
      <trkpt lat="42.864000" lon="-0.806144">
        <ele>1227.0</ele>
        <time>2013-08-16T04:56:35Z</time>
      </trkpt>
      <trkpt lat="42.863958" lon="-0.805928">
        <ele>1227.6</ele>
        <time>2013-08-16T04:56:50Z</time>
      </trkpt>
      <trkpt lat="42.863901" lon="-0.805547">
        <ele>1229.0</ele>
        <time>2013-08-16T04:57:08Z</time>
      </trkpt>
      <trkpt lat="42.863872" lon="-0.805328">
        <ele>1229.2</ele>
        <time>2013-08-16T04:57:22Z</time>
      </trkpt>
      <trkpt lat="42.863821" lon="-0.805084">
        <ele>1230.0</ele>
        <time>2013-08-16T04:57:36Z</time>
      </trkpt>
      <trkpt lat="42.863694" lon="-0.804816">
        <ele>1231.1</ele>
        <time>2013-08-16T04:57:52Z</time>
      </trkpt>
      <trkpt lat="42.863557" lon="-0.804614">
        <ele>1232.0</ele>
        <time>2013-08-16T04:58:06Z</time>
      </trkpt>
      <trkpt lat="42.863423" lon="-0.804430">
        <ele>1231.7</ele>
        <time>2013-08-16T04:58:20Z</time>
      </trkpt>
      <trkpt lat="42.863303" lon="-0.804226">
        <ele>1232.7</ele>
        <time>2013-08-16T04:58:34Z</time>
      </trkpt>
      <trkpt lat="42.863167" lon="-0.803994">
        <ele>1234.4</ele>
        <time>2013-08-16T04:58:50Z</time>
      </trkpt>
      <trkpt lat="42.863161" lon="-0.803986">
        <ele>1234.4</ele>
        <time>2013-08-16T04:58:51Z</time>
      </trkpt>
      <trkpt lat="42.863011" lon="-0.803744">
        <ele>1236.0</ele>
        <time>2013-08-16T04:59:06Z</time>
      </trkpt>
      <trkpt lat="42.862872" lon="-0.803531">
        <ele>1237.0</ele>
        <time>2013-08-16T04:59:21Z</time>
      </trkpt>
      <trkpt lat="42.862727" lon="-0.803188">
        <ele>1238.4</ele>
        <time>2013-08-16T04:59:38Z</time>
      </trkpt>
      <trkpt lat="42.862718" lon="-0.803157">
        <ele>1238.2</ele>
        <time>2013-08-16T04:59:40Z</time>
      </trkpt>
      <trkpt lat="42.862640" lon="-0.802912">
        <ele>1235.9</ele>
        <time>2013-08-16T04:59:53Z</time>
      </trkpt>
      <trkpt lat="42.862585" lon="-0.802701">
        <ele>1239.0</ele>
        <time>2013-08-16T05:00:05Z</time>
      </trkpt>
      <trkpt lat="42.862478" lon="-0.802412">
        <ele>1240.0</ele>
        <time>2013-08-16T05:00:22Z</time>
      </trkpt>
      <trkpt lat="42.862390" lon="-0.802193">
        <ele>1240.0</ele>
        <time>2013-08-16T05:00:38Z</time>
      </trkpt>
      <trkpt lat="42.862383" lon="-0.802172">
        <ele>1240.0</ele>
        <time>2013-08-16T05:00:39Z</time>
      </trkpt>
      <trkpt lat="42.862292" lon="-0.801801">
        <ele>1240.0</ele>
        <time>2013-08-16T05:00:54Z</time>
      </trkpt>
      <trkpt lat="42.862208" lon="-0.801492">
        <ele>1240.0</ele>
        <time>2013-08-16T05:01:07Z</time>
      </trkpt>
      <trkpt lat="42.862100" lon="-0.801135">
        <ele>1240.0</ele>
        <time>2013-08-16T05:01:24Z</time>
      </trkpt>
      <trkpt lat="42.862012" lon="-0.800833">
        <ele>1240.0</ele>
        <time>2013-08-16T05:01:39Z</time>
      </trkpt>
      <trkpt lat="42.861866" lon="-0.800468">
        <ele>1240.0</ele>
        <time>2013-08-16T05:01:59Z</time>
      </trkpt>
      <trkpt lat="42.861771" lon="-0.800213">
        <ele>1241.0</ele>
        <time>2013-08-16T05:02:16Z</time>
      </trkpt>
      <trkpt lat="42.861669" lon="-0.799903">
        <ele>1239.7</ele>
        <time>2013-08-16T05:02:36Z</time>
      </trkpt>
      <trkpt lat="42.861652" lon="-0.799756">
        <ele>1240.0</ele>
        <time>2013-08-16T05:02:50Z</time>
      </trkpt>
      <trkpt lat="42.861656" lon="-0.799755">
        <ele>1240.0</ele>
        <time>2013-08-16T05:03:16Z</time>
      </trkpt>
      <trkpt lat="42.861647" lon="-0.799740">
        <ele>1239.7</ele>
        <time>2013-08-16T05:03:29Z</time>
      </trkpt>
      <trkpt lat="42.861603" lon="-0.799710">
        <ele>1238.3</ele>
        <time>2013-08-16T05:03:42Z</time>
      </trkpt>
      <trkpt lat="42.861600" lon="-0.799682">
        <ele>1238.8</ele>
        <time>2013-08-16T05:04:09Z</time>
      </trkpt>
      <trkpt lat="42.861594" lon="-0.799643">
        <ele>1239.3</ele>
        <time>2013-08-16T05:04:12Z</time>
      </trkpt>
      <trkpt lat="42.861522" lon="-0.799455">
        <ele>1239.7</ele>
        <time>2013-08-16T05:04:24Z</time>
      </trkpt>
      <trkpt lat="42.861395" lon="-0.799219">
        <ele>1239.7</ele>
        <time>2013-08-16T05:04:38Z</time>
      </trkpt>
      <trkpt lat="42.861278" lon="-0.799065">
        <ele>1241.1</ele>
        <time>2013-08-16T05:04:51Z</time>
      </trkpt>
      <trkpt lat="42.861185" lon="-0.798943">
        <ele>1242.0</ele>
        <time>2013-08-16T05:05:01Z</time>
      </trkpt>
      <trkpt lat="42.861090" lon="-0.798872">
        <ele>1242.9</ele>
        <time>2013-08-16T05:05:08Z</time>
      </trkpt>
      <trkpt lat="42.860944" lon="-0.798563">
        <ele>1243.4</ele>
        <time>2013-08-16T05:05:24Z</time>
      </trkpt>
      <trkpt lat="42.860899" lon="-0.798487">
        <ele>1242.7</ele>
        <time>2013-08-16T05:05:32Z</time>
      </trkpt>
      <trkpt lat="42.860752" lon="-0.798315">
        <ele>1246.0</ele>
        <time>2013-08-16T05:05:45Z</time>
      </trkpt>
      <trkpt lat="42.860736" lon="-0.798312">
        <ele>1246.0</ele>
        <time>2013-08-16T05:05:47Z</time>
      </trkpt>
      <trkpt lat="42.860512" lon="-0.798229">
        <ele>1247.9</ele>
        <time>2013-08-16T05:06:02Z</time>
      </trkpt>
      <trkpt lat="42.860276" lon="-0.798080">
        <ele>1248.0</ele>
        <time>2013-08-16T05:06:18Z</time>
      </trkpt>
      <trkpt lat="42.860036" lon="-0.797916">
        <ele>1249.7</ele>
        <time>2013-08-16T05:06:35Z</time>
      </trkpt>
      <trkpt lat="42.859775" lon="-0.797780">
        <ele>1252.1</ele>
        <time>2013-08-16T05:06:53Z</time>
      </trkpt>
      <trkpt lat="42.859590" lon="-0.797707">
        <ele>1253.4</ele>
        <time>2013-08-16T05:07:08Z</time>
      </trkpt>
      <trkpt lat="42.859414" lon="-0.797666">
        <ele>1251.3</ele>
        <time>2013-08-16T05:07:23Z</time>
      </trkpt>
      <trkpt lat="42.859396" lon="-0.797658">
        <ele>1251.2</ele>
        <time>2013-08-16T05:07:24Z</time>
      </trkpt>
      <trkpt lat="42.859132" lon="-0.797402">
        <ele>1252.2</ele>
        <time>2013-08-16T05:07:41Z</time>
      </trkpt>
      <trkpt lat="42.858933" lon="-0.797152">
        <ele>1252.2</ele>
        <time>2013-08-16T05:07:58Z</time>
      </trkpt>
      <trkpt lat="42.858753" lon="-0.796884">
        <ele>1249.8</ele>
        <time>2013-08-16T05:08:16Z</time>
      </trkpt>
      <trkpt lat="42.858601" lon="-0.796646">
        <ele>1252.0</ele>
        <time>2013-08-16T05:08:33Z</time>
      </trkpt>
      <trkpt lat="42.858456" lon="-0.796366">
        <ele>1252.4</ele>
        <time>2013-08-16T05:08:50Z</time>
      </trkpt>
      <trkpt lat="42.858363" lon="-0.796042">
        <ele>1253.8</ele>
        <time>2013-08-16T05:09:06Z</time>
      </trkpt>
      <trkpt lat="42.858323" lon="-0.795876">
        <ele>1254.7</ele>
        <time>2013-08-16T05:09:18Z</time>
      </trkpt>
      <trkpt lat="42.858258" lon="-0.795595">
        <ele>1256.2</ele>
        <time>2013-08-16T05:09:34Z</time>
      </trkpt>
      <trkpt lat="42.858257" lon="-0.795545">
        <ele>1256.6</ele>
        <time>2013-08-16T05:09:37Z</time>
      </trkpt>
      <trkpt lat="42.858228" lon="-0.795229">
        <ele>1259.3</ele>
        <time>2013-08-16T05:09:54Z</time>
      </trkpt>
      <trkpt lat="42.858235" lon="-0.794975">
        <ele>1260.3</ele>
        <time>2013-08-16T05:10:08Z</time>
      </trkpt>
      <trkpt lat="42.858235" lon="-0.794950">
        <ele>1260.0</ele>
        <time>2013-08-16T05:10:10Z</time>
      </trkpt>
      <trkpt lat="42.858239" lon="-0.794853">
        <ele>1259.8</ele>
        <time>2013-08-16T05:10:15Z</time>
      </trkpt>
      <trkpt lat="42.858248" lon="-0.794668">
        <ele>1260.7</ele>
        <time>2013-08-16T05:10:25Z</time>
      </trkpt>
      <trkpt lat="42.858220" lon="-0.794576">
        <ele>1259.3</ele>
        <time>2013-08-16T05:10:30Z</time>
      </trkpt>
      <trkpt lat="42.858151" lon="-0.794416">
        <ele>1265.4</ele>
        <time>2013-08-16T05:10:41Z</time>
      </trkpt>
      <trkpt lat="42.858140" lon="-0.794399">
        <ele>1265.7</ele>
        <time>2013-08-16T05:10:43Z</time>
      </trkpt>
      <trkpt lat="42.858018" lon="-0.794243">
        <ele>1266.5</ele>
        <time>2013-08-16T05:10:56Z</time>
      </trkpt>
      <trkpt lat="42.857893" lon="-0.793988">
        <ele>1267.1</ele>
        <time>2013-08-16T05:11:11Z</time>
      </trkpt>
      <trkpt lat="42.857815" lon="-0.793691">
        <ele>1268.1</ele>
        <time>2013-08-16T05:11:26Z</time>
      </trkpt>
      <trkpt lat="42.857775" lon="-0.793485">
        <ele>1269.1</ele>
        <time>2013-08-16T05:11:38Z</time>
      </trkpt>
      <trkpt lat="42.857745" lon="-0.793246">
        <ele>1270.3</ele>
        <time>2013-08-16T05:11:52Z</time>
      </trkpt>
      <trkpt lat="42.857700" lon="-0.792982">
        <ele>1270.7</ele>
        <time>2013-08-16T05:12:07Z</time>
      </trkpt>
      <trkpt lat="42.857637" lon="-0.792738">
        <ele>1272.2</ele>
        <time>2013-08-16T05:12:21Z</time>
      </trkpt>
      <trkpt lat="42.857565" lon="-0.792595">
        <ele>1273.6</ele>
        <time>2013-08-16T05:12:29Z</time>
      </trkpt>
      <trkpt lat="42.857425" lon="-0.792447">
        <ele>1274.9</ele>
        <time>2013-08-16T05:12:43Z</time>
      </trkpt>
      <trkpt lat="42.857319" lon="-0.792380">
        <ele>1273.7</ele>
        <time>2013-08-16T05:12:51Z</time>
      </trkpt>
      <trkpt lat="42.857198" lon="-0.792372">
        <ele>1273.3</ele>
        <time>2013-08-16T05:13:01Z</time>
      </trkpt>
      <trkpt lat="42.857082" lon="-0.792385">
        <ele>1273.2</ele>
        <time>2013-08-16T05:13:08Z</time>
      </trkpt>
      <trkpt lat="42.856825" lon="-0.792376">
        <ele>1274.2</ele>
        <time>2013-08-16T05:13:24Z</time>
      </trkpt>
      <trkpt lat="42.856628" lon="-0.792383">
        <ele>1273.1</ele>
        <time>2013-08-16T05:13:39Z</time>
      </trkpt>
      <trkpt lat="42.856410" lon="-0.792278">
        <ele>1270.9</ele>
        <time>2013-08-16T05:13:55Z</time>
      </trkpt>
      <trkpt lat="42.856205" lon="-0.792102">
        <ele>1271.9</ele>
        <time>2013-08-16T05:14:10Z</time>
      </trkpt>
      <trkpt lat="42.856098" lon="-0.791859">
        <ele>1272.0</ele>
        <time>2013-08-16T05:14:22Z</time>
      </trkpt>
      <trkpt lat="42.856080" lon="-0.791440">
        <ele>1272.0</ele>
        <time>2013-08-16T05:14:37Z</time>
      </trkpt>
      <trkpt lat="42.856056" lon="-0.791356">
        <ele>1272.3</ele>
        <time>2013-08-16T05:14:45Z</time>
      </trkpt>
      <trkpt lat="42.855980" lon="-0.791221">
        <ele>1273.0</ele>
        <time>2013-08-16T05:14:53Z</time>
      </trkpt>
      <trkpt lat="42.855879" lon="-0.790982">
        <ele>1273.4</ele>
        <time>2013-08-16T05:15:07Z</time>
      </trkpt>
      <trkpt lat="42.855873" lon="-0.790973">
        <ele>1273.4</ele>
        <time>2013-08-16T05:15:08Z</time>
      </trkpt>
      <trkpt lat="42.855750" lon="-0.790742">
        <ele>1274.3</ele>
        <time>2013-08-16T05:15:22Z</time>
      </trkpt>
      <trkpt lat="42.855590" lon="-0.790438">
        <ele>1277.9</ele>
        <time>2013-08-16T05:15:38Z</time>
      </trkpt>
      <trkpt lat="42.855480" lon="-0.790182">
        <ele>1281.1</ele>
        <time>2013-08-16T05:15:51Z</time>
      </trkpt>
      <trkpt lat="42.855404" lon="-0.790038">
        <ele>1280.7</ele>
        <time>2013-08-16T05:16:02Z</time>
      </trkpt>
      <trkpt lat="42.855243" lon="-0.789812">
        <ele>1278.5</ele>
        <time>2013-08-16T05:16:19Z</time>
      </trkpt>
      <trkpt lat="42.855131" lon="-0.789500">
        <ele>1282.1</ele>
        <time>2013-08-16T05:16:35Z</time>
      </trkpt>
      <trkpt lat="42.855010" lon="-0.789295">
        <ele>1280.9</ele>
        <time>2013-08-16T05:16:51Z</time>
      </trkpt>
      <trkpt lat="42.854872" lon="-0.789056">
        <ele>1281.5</ele>
        <time>2013-08-16T05:17:06Z</time>
      </trkpt>
      <trkpt lat="42.854742" lon="-0.788876">
        <ele>1282.0</ele>
        <time>2013-08-16T05:17:20Z</time>
      </trkpt>
      <trkpt lat="42.854616" lon="-0.788744">
        <ele>1282.8</ele>
        <time>2013-08-16T05:17:32Z</time>
      </trkpt>
      <trkpt lat="42.854583" lon="-0.788699">
        <ele>1282.7</ele>
        <time>2013-08-16T05:17:37Z</time>
      </trkpt>
      <trkpt lat="42.854559" lon="-0.788648">
        <ele>1282.2</ele>
        <time>2013-08-16T05:17:41Z</time>
      </trkpt>
      <trkpt lat="42.854545" lon="-0.788582">
        <ele>1282.4</ele>
        <time>2013-08-16T05:17:57Z</time>
      </trkpt>
      <trkpt lat="42.854549" lon="-0.788581">
        <ele>1282.4</ele>
        <time>2013-08-16T05:18:29Z</time>
      </trkpt>
      <trkpt lat="42.854549" lon="-0.788581">
        <ele>1282.4</ele>
        <time>2013-08-16T05:18:39Z</time>
      </trkpt>
      <trkpt lat="42.854571" lon="-0.788559">
        <ele>1282.9</ele>
        <time>2013-08-16T05:18:52Z</time>
      </trkpt>
      <trkpt lat="42.854571" lon="-0.788559">
        <ele>1282.9</ele>
        <time>2013-08-16T05:19:13Z</time>
      </trkpt>
      <trkpt lat="42.854579" lon="-0.788398">
        <ele>1284.7</ele>
        <time>2013-08-16T05:19:26Z</time>
      </trkpt>
      <trkpt lat="42.854602" lon="-0.788278">
        <ele>1286.7</ele>
        <time>2013-08-16T05:19:36Z</time>
      </trkpt>
      <trkpt lat="42.854617" lon="-0.788157">
        <ele>1288.4</ele>
        <time>2013-08-16T05:19:47Z</time>
      </trkpt>
      <trkpt lat="42.854585" lon="-0.787970">
        <ele>1289.3</ele>
        <time>2013-08-16T05:20:01Z</time>
      </trkpt>
      <trkpt lat="42.854575" lon="-0.787867">
        <ele>1290.8</ele>
        <time>2013-08-16T05:20:11Z</time>
      </trkpt>
      <trkpt lat="42.854579" lon="-0.787855">
        <ele>1291.0</ele>
        <time>2013-08-16T05:20:12Z</time>
      </trkpt>
      <trkpt lat="42.854597" lon="-0.787722">
        <ele>1293.1</ele>
        <time>2013-08-16T05:20:22Z</time>
      </trkpt>
      <trkpt lat="42.854591" lon="-0.787664">
        <ele>1293.9</ele>
        <time>2013-08-16T05:20:30Z</time>
      </trkpt>
      <trkpt lat="42.854580" lon="-0.787507">
        <ele>1296.1</ele>
        <time>2013-08-16T05:20:43Z</time>
      </trkpt>
      <trkpt lat="42.854583" lon="-0.787500">
        <ele>1296.3</ele>
        <time>2013-08-16T05:20:46Z</time>
      </trkpt>
      <trkpt lat="42.854575" lon="-0.787491">
        <ele>1296.3</ele>
        <time>2013-08-16T05:20:48Z</time>
      </trkpt>
      <trkpt lat="42.854551" lon="-0.787369">
        <ele>1297.6</ele>
        <time>2013-08-16T05:20:59Z</time>
      </trkpt>
      <trkpt lat="42.854555" lon="-0.787280">
        <ele>1299.6</ele>
        <time>2013-08-16T05:21:08Z</time>
      </trkpt>
      <trkpt lat="42.854551" lon="-0.787217">
        <ele>1300.6</ele>
        <time>2013-08-16T05:21:14Z</time>
      </trkpt>
      <trkpt lat="42.854572" lon="-0.787111">
        <ele>1303.5</ele>
        <time>2013-08-16T05:21:26Z</time>
      </trkpt>
      <trkpt lat="42.854585" lon="-0.787058">
        <ele>1304.4</ele>
        <time>2013-08-16T05:21:31Z</time>
      </trkpt>
      <trkpt lat="42.854698" lon="-0.786787">
        <ele>1309.7</ele>
        <time>2013-08-16T05:22:38Z</time>
      </trkpt>
      <trkpt lat="42.854702" lon="-0.786780">
        <ele>1309.9</ele>
        <time>2013-08-16T05:22:39Z</time>
      </trkpt>
      <trkpt lat="42.854715" lon="-0.786749">
        <ele>1310.6</ele>
        <time>2013-08-16T05:22:42Z</time>
      </trkpt>
      <trkpt lat="42.854734" lon="-0.786686">
        <ele>1311.2</ele>
        <time>2013-08-16T05:22:48Z</time>
      </trkpt>
      <trkpt lat="42.854778" lon="-0.786611">
        <ele>1312.9</ele>
        <time>2013-08-16T05:22:58Z</time>
      </trkpt>
      <trkpt lat="42.854783" lon="-0.786567">
        <ele>1313.1</ele>
        <time>2013-08-16T05:23:01Z</time>
      </trkpt>
      <trkpt lat="42.854810" lon="-0.786527">
        <ele>1313.8</ele>
        <time>2013-08-16T05:23:05Z</time>
      </trkpt>
      <trkpt lat="42.854839" lon="-0.786449">
        <ele>1315.5</ele>
        <time>2013-08-16T05:23:12Z</time>
      </trkpt>
      <trkpt lat="42.854828" lon="-0.786408">
        <ele>1316.7</ele>
        <time>2013-08-16T05:23:19Z</time>
      </trkpt>
      <trkpt lat="42.854791" lon="-0.786327">
        <ele>1318.8</ele>
        <time>2013-08-16T05:23:30Z</time>
      </trkpt>
      <trkpt lat="42.854790" lon="-0.786305">
        <ele>1319.0</ele>
        <time>2013-08-16T05:23:33Z</time>
      </trkpt>
      <trkpt lat="42.854811" lon="-0.786249">
        <ele>1320.1</ele>
        <time>2013-08-16T05:23:38Z</time>
      </trkpt>
      <trkpt lat="42.854823" lon="-0.786206">
        <ele>1321.1</ele>
        <time>2013-08-16T05:23:42Z</time>
      </trkpt>
      <trkpt lat="42.854848" lon="-0.786094">
        <ele>1323.3</ele>
        <time>2013-08-16T05:23:55Z</time>
      </trkpt>
      <trkpt lat="42.854886" lon="-0.786022">
        <ele>1325.7</ele>
        <time>2013-08-16T05:24:06Z</time>
      </trkpt>
      <trkpt lat="42.854916" lon="-0.785985">
        <ele>1327.7</ele>
        <time>2013-08-16T05:24:16Z</time>
      </trkpt>
      <trkpt lat="42.854920" lon="-0.785897">
        <ele>1328.9</ele>
        <time>2013-08-16T05:24:28Z</time>
      </trkpt>
      <trkpt lat="42.854921" lon="-0.785904">
        <ele>1328.8</ele>
        <time>2013-08-16T05:24:31Z</time>
      </trkpt>
      <trkpt lat="42.854917" lon="-0.785864">
        <ele>1329.9</ele>
        <time>2013-08-16T05:24:36Z</time>
      </trkpt>
      <trkpt lat="42.854923" lon="-0.785815">
        <ele>1331.2</ele>
        <time>2013-08-16T05:24:41Z</time>
      </trkpt>
      <trkpt lat="42.854928" lon="-0.785760">
        <ele>1331.9</ele>
        <time>2013-08-16T05:24:45Z</time>
      </trkpt>
      <trkpt lat="42.854931" lon="-0.785712">
        <ele>1332.2</ele>
        <time>2013-08-16T05:24:49Z</time>
      </trkpt>
      <trkpt lat="42.854930" lon="-0.785659">
        <ele>1332.2</ele>
        <time>2013-08-16T05:24:53Z</time>
      </trkpt>
      <trkpt lat="42.854922" lon="-0.785456">
        <ele>1333.2</ele>
        <time>2013-08-16T05:25:09Z</time>
      </trkpt>
      <trkpt lat="42.854941" lon="-0.785298">
        <ele>1334.5</ele>
        <time>2013-08-16T05:25:20Z</time>
      </trkpt>
      <trkpt lat="42.854953" lon="-0.785248">
        <ele>1335.4</ele>
        <time>2013-08-16T05:25:24Z</time>
      </trkpt>
      <trkpt lat="42.854971" lon="-0.785147">
        <ele>1335.4</ele>
        <time>2013-08-16T05:25:32Z</time>
      </trkpt>
      <trkpt lat="42.854979" lon="-0.785096">
        <ele>1336.2</ele>
        <time>2013-08-16T05:25:36Z</time>
      </trkpt>
      <trkpt lat="42.854969" lon="-0.785021">
        <ele>1334.8</ele>
        <time>2013-08-16T05:25:42Z</time>
      </trkpt>
      <trkpt lat="42.854959" lon="-0.784994">
        <ele>1334.7</ele>
        <time>2013-08-16T05:25:44Z</time>
      </trkpt>
      <trkpt lat="42.854922" lon="-0.784884">
        <ele>1334.2</ele>
        <time>2013-08-16T05:25:51Z</time>
      </trkpt>
      <trkpt lat="42.854906" lon="-0.784728">
        <ele>1334.2</ele>
        <time>2013-08-16T05:26:03Z</time>
      </trkpt>
      <trkpt lat="42.854878" lon="-0.784613">
        <ele>1332.0</ele>
        <time>2013-08-16T05:26:12Z</time>
      </trkpt>
      <trkpt lat="42.854870" lon="-0.784605">
        <ele>1331.6</ele>
        <time>2013-08-16T05:26:14Z</time>
      </trkpt>
      <trkpt lat="42.854850" lon="-0.784517">
        <ele>1330.2</ele>
        <time>2013-08-16T05:26:20Z</time>
      </trkpt>
      <trkpt lat="42.854841" lon="-0.784456">
        <ele>1329.0</ele>
        <time>2013-08-16T05:26:24Z</time>
      </trkpt>
      <trkpt lat="42.854783" lon="-0.784272">
        <ele>1328.5</ele>
        <time>2013-08-16T05:26:36Z</time>
      </trkpt>
      <trkpt lat="42.854772" lon="-0.784148">
        <ele>1329.3</ele>
        <time>2013-08-16T05:26:44Z</time>
      </trkpt>
      <trkpt lat="42.854758" lon="-0.783937">
        <ele>1332.0</ele>
        <time>2013-08-16T05:26:58Z</time>
      </trkpt>
      <trkpt lat="42.854762" lon="-0.783925">
        <ele>1332.0</ele>
        <time>2013-08-16T05:26:59Z</time>
      </trkpt>
      <trkpt lat="42.854760" lon="-0.783880">
        <ele>1332.1</ele>
        <time>2013-08-16T05:27:02Z</time>
      </trkpt>
      <trkpt lat="42.854758" lon="-0.783848">
        <ele>1332.4</ele>
        <time>2013-08-16T05:27:04Z</time>
      </trkpt>
      <trkpt lat="42.854765" lon="-0.783634">
        <ele>1332.8</ele>
        <time>2013-08-16T05:27:17Z</time>
      </trkpt>
      <trkpt lat="42.854758" lon="-0.783484">
        <ele>1334.5</ele>
        <time>2013-08-16T05:27:27Z</time>
      </trkpt>
      <trkpt lat="42.854749" lon="-0.783462">
        <ele>1334.6</ele>
        <time>2013-08-16T05:27:29Z</time>
      </trkpt>
      <trkpt lat="42.854741" lon="-0.783438">
        <ele>1334.5</ele>
        <time>2013-08-16T05:27:32Z</time>
      </trkpt>
      <trkpt lat="42.854746" lon="-0.783401">
        <ele>1334.6</ele>
        <time>2013-08-16T05:27:35Z</time>
      </trkpt>
      <trkpt lat="42.854794" lon="-0.783261">
        <ele>1336.9</ele>
        <time>2013-08-16T05:27:46Z</time>
      </trkpt>
      <trkpt lat="42.854824" lon="-0.783197">
        <ele>1338.3</ele>
        <time>2013-08-16T05:27:53Z</time>
      </trkpt>
      <trkpt lat="42.854835" lon="-0.783145">
        <ele>1338.4</ele>
        <time>2013-08-16T05:27:57Z</time>
      </trkpt>
      <trkpt lat="42.854876" lon="-0.783048">
        <ele>1340.1</ele>
        <time>2013-08-16T05:28:07Z</time>
      </trkpt>
      <trkpt lat="42.854927" lon="-0.782961">
        <ele>1342.0</ele>
        <time>2013-08-16T05:28:17Z</time>
      </trkpt>
      <trkpt lat="42.854975" lon="-0.782864">
        <ele>1342.8</ele>
        <time>2013-08-16T05:28:27Z</time>
      </trkpt>
      <trkpt lat="42.854981" lon="-0.782834">
        <ele>1343.4</ele>
        <time>2013-08-16T05:28:30Z</time>
      </trkpt>
      <trkpt lat="42.854983" lon="-0.782735">
        <ele>1346.7</ele>
        <time>2013-08-16T05:28:42Z</time>
      </trkpt>
      <trkpt lat="42.854976" lon="-0.782732">
        <ele>1346.8</ele>
        <time>2013-08-16T05:28:43Z</time>
      </trkpt>
      <trkpt lat="42.854931" lon="-0.782654">
        <ele>1347.1</ele>
        <time>2013-08-16T05:28:52Z</time>
      </trkpt>
      <trkpt lat="42.854916" lon="-0.782574">
        <ele>1347.8</ele>
        <time>2013-08-16T05:28:59Z</time>
      </trkpt>
      <trkpt lat="42.854948" lon="-0.782386">
        <ele>1350.1</ele>
        <time>2013-08-16T05:29:11Z</time>
      </trkpt>
      <trkpt lat="42.854972" lon="-0.782262">
        <ele>1351.6</ele>
        <time>2013-08-16T05:29:20Z</time>
      </trkpt>
      <trkpt lat="42.854999" lon="-0.782132">
        <ele>1354.1</ele>
        <time>2013-08-16T05:29:30Z</time>
      </trkpt>
      <trkpt lat="42.855002" lon="-0.782121">
        <ele>1354.4</ele>
        <time>2013-08-16T05:29:31Z</time>
      </trkpt>
      <trkpt lat="42.855015" lon="-0.782011">
        <ele>1355.4</ele>
        <time>2013-08-16T05:29:39Z</time>
      </trkpt>
      <trkpt lat="42.855026" lon="-0.781975">
        <ele>1356.4</ele>
        <time>2013-08-16T05:29:42Z</time>
      </trkpt>
      <trkpt lat="42.855035" lon="-0.781938">
        <ele>1357.2</ele>
        <time>2013-08-16T05:29:45Z</time>
      </trkpt>
      <trkpt lat="42.855050" lon="-0.781895">
        <ele>1358.0</ele>
        <time>2013-08-16T05:29:49Z</time>
      </trkpt>
      <trkpt lat="42.855082" lon="-0.781805">
        <ele>1359.4</ele>
        <time>2013-08-16T05:29:57Z</time>
      </trkpt>
      <trkpt lat="42.855100" lon="-0.781757">
        <ele>1360.3</ele>
        <time>2013-08-16T05:30:01Z</time>
      </trkpt>
      <trkpt lat="42.855157" lon="-0.781648">
        <ele>1362.5</ele>
        <time>2013-08-16T05:30:11Z</time>
      </trkpt>
      <trkpt lat="42.855170" lon="-0.781598">
        <ele>1362.9</ele>
        <time>2013-08-16T05:30:16Z</time>
      </trkpt>
      <trkpt lat="42.855197" lon="-0.781538">
        <ele>1364.4</ele>
        <time>2013-08-16T05:30:22Z</time>
      </trkpt>
      <trkpt lat="42.855212" lon="-0.781519">
        <ele>1364.8</ele>
        <time>2013-08-16T05:30:25Z</time>
      </trkpt>
      <trkpt lat="42.855276" lon="-0.781434">
        <ele>1367.2</ele>
        <time>2013-08-16T05:30:36Z</time>
      </trkpt>
      <trkpt lat="42.855284" lon="-0.781357">
        <ele>1368.5</ele>
        <time>2013-08-16T05:30:45Z</time>
      </trkpt>
      <trkpt lat="42.855283" lon="-0.781345">
        <ele>1368.6</ele>
        <time>2013-08-16T05:30:46Z</time>
      </trkpt>
      <trkpt lat="42.855275" lon="-0.781293">
        <ele>1369.2</ele>
        <time>2013-08-16T05:30:50Z</time>
      </trkpt>
      <trkpt lat="42.855255" lon="-0.781238">
        <ele>1370.8</ele>
        <time>2013-08-16T05:30:57Z</time>
      </trkpt>
      <trkpt lat="42.855225" lon="-0.781188">
        <ele>1371.7</ele>
        <time>2013-08-16T05:31:03Z</time>
      </trkpt>
      <trkpt lat="42.855220" lon="-0.781092">
        <ele>1373.5</ele>
        <time>2013-08-16T05:31:10Z</time>
      </trkpt>
      <trkpt lat="42.855223" lon="-0.781038">
        <ele>1374.5</ele>
        <time>2013-08-16T05:31:14Z</time>
      </trkpt>
      <trkpt lat="42.855227" lon="-0.780989">
        <ele>1375.4</ele>
        <time>2013-08-16T05:31:18Z</time>
      </trkpt>
      <trkpt lat="42.855173" lon="-0.780851">
        <ele>1377.9</ele>
        <time>2013-08-16T05:31:30Z</time>
      </trkpt>
      <trkpt lat="42.855154" lon="-0.780828">
        <ele>1378.6</ele>
        <time>2013-08-16T05:31:36Z</time>
      </trkpt>
      <trkpt lat="42.855137" lon="-0.780748">
        <ele>1381.5</ele>
        <time>2013-08-16T05:31:43Z</time>
      </trkpt>
      <trkpt lat="42.855116" lon="-0.780665">
        <ele>1382.4</ele>
        <time>2013-08-16T05:31:50Z</time>
      </trkpt>
      <trkpt lat="42.855113" lon="-0.780613">
        <ele>1383.5</ele>
        <time>2013-08-16T05:31:54Z</time>
      </trkpt>
      <trkpt lat="42.855095" lon="-0.780567">
        <ele>1384.2</ele>
        <time>2013-08-16T05:31:58Z</time>
      </trkpt>
      <trkpt lat="42.855057" lon="-0.780401">
        <ele>1385.2</ele>
        <time>2013-08-16T05:32:11Z</time>
      </trkpt>
      <trkpt lat="42.855050" lon="-0.780355">
        <ele>1385.7</ele>
        <time>2013-08-16T05:32:15Z</time>
      </trkpt>
      <trkpt lat="42.855043" lon="-0.780311">
        <ele>1386.3</ele>
        <time>2013-08-16T05:32:18Z</time>
      </trkpt>
      <trkpt lat="42.855055" lon="-0.780211">
        <ele>1389.3</ele>
        <time>2013-08-16T05:32:30Z</time>
      </trkpt>
      <trkpt lat="42.855063" lon="-0.780170">
        <ele>1390.1</ele>
        <time>2013-08-16T05:32:35Z</time>
      </trkpt>
      <trkpt lat="42.855055" lon="-0.780030">
        <ele>1392.7</ele>
        <time>2013-08-16T05:32:46Z</time>
      </trkpt>
      <trkpt lat="42.855086" lon="-0.779954">
        <ele>1394.7</ele>
        <time>2013-08-16T05:32:58Z</time>
      </trkpt>
      <trkpt lat="42.855084" lon="-0.779911">
        <ele>1395.4</ele>
        <time>2013-08-16T05:33:03Z</time>
      </trkpt>
      <trkpt lat="42.855073" lon="-0.779807">
        <ele>1397.7</ele>
        <time>2013-08-16T05:33:13Z</time>
      </trkpt>
      <trkpt lat="42.855038" lon="-0.779701">
        <ele>1399.1</ele>
        <time>2013-08-16T05:33:24Z</time>
      </trkpt>
      <trkpt lat="42.855048" lon="-0.779641">
        <ele>1401.1</ele>
        <time>2013-08-16T05:33:34Z</time>
      </trkpt>
      <trkpt lat="42.855049" lon="-0.779622">
        <ele>1401.5</ele>
        <time>2013-08-16T05:33:36Z</time>
      </trkpt>
      <trkpt lat="42.855051" lon="-0.779542">
        <ele>1403.7</ele>
        <time>2013-08-16T05:33:47Z</time>
      </trkpt>
      <trkpt lat="42.855047" lon="-0.779521">
        <ele>1404.2</ele>
        <time>2013-08-16T05:33:49Z</time>
      </trkpt>
      <trkpt lat="42.855052" lon="-0.779422">
        <ele>1406.6</ele>
        <time>2013-08-16T05:34:00Z</time>
      </trkpt>
      <trkpt lat="42.855064" lon="-0.779345">
        <ele>1408.1</ele>
        <time>2013-08-16T05:34:10Z</time>
      </trkpt>
      <trkpt lat="42.855091" lon="-0.779286">
        <ele>1410.0</ele>
        <time>2013-08-16T05:34:20Z</time>
      </trkpt>
      <trkpt lat="42.855102" lon="-0.779256">
        <ele>1410.5</ele>
        <time>2013-08-16T05:34:23Z</time>
      </trkpt>
      <trkpt lat="42.855114" lon="-0.779224">
        <ele>1411.0</ele>
        <time>2013-08-16T05:34:26Z</time>
      </trkpt>
      <trkpt lat="42.855128" lon="-0.779183">
        <ele>1411.7</ele>
        <time>2013-08-16T05:34:30Z</time>
      </trkpt>
      <trkpt lat="42.855171" lon="-0.779127">
        <ele>1413.5</ele>
        <time>2013-08-16T05:34:36Z</time>
      </trkpt>
      <trkpt lat="42.855197" lon="-0.779106">
        <ele>1414.4</ele>
        <time>2013-08-16T05:34:42Z</time>
      </trkpt>
      <trkpt lat="42.855224" lon="-0.779095">
        <ele>1415.1</ele>
        <time>2013-08-16T05:34:45Z</time>
      </trkpt>
      <trkpt lat="42.855242" lon="-0.779088">
        <ele>1415.5</ele>
        <time>2013-08-16T05:34:48Z</time>
      </trkpt>
      <trkpt lat="42.855270" lon="-0.779078">
        <ele>1416.2</ele>
        <time>2013-08-16T05:34:59Z</time>
      </trkpt>
      <trkpt lat="42.855270" lon="-0.779078">
        <ele>1416.2</ele>
        <time>2013-08-16T05:35:05Z</time>
      </trkpt>
      <trkpt lat="42.855278" lon="-0.779100">
        <ele>1416.6</ele>
        <time>2013-08-16T05:35:08Z</time>
      </trkpt>
      <trkpt lat="42.855308" lon="-0.779152">
        <ele>1418.8</ele>
        <time>2013-08-16T05:35:14Z</time>
      </trkpt>
      <trkpt lat="42.855352" lon="-0.779185">
        <ele>1419.0</ele>
        <time>2013-08-16T05:35:26Z</time>
      </trkpt>
      <trkpt lat="42.855378" lon="-0.779155">
        <ele>1419.5</ele>
        <time>2013-08-16T05:41:40Z</time>
      </trkpt>
      <trkpt lat="42.855400" lon="-0.779085">
        <ele>1420.0</ele>
        <time>2013-08-16T05:41:47Z</time>
      </trkpt>
      <trkpt lat="42.855412" lon="-0.779053">
        <ele>1420.3</ele>
        <time>2013-08-16T05:41:50Z</time>
      </trkpt>
      <trkpt lat="42.855446" lon="-0.779012">
        <ele>1421.0</ele>
        <time>2013-08-16T05:41:55Z</time>
      </trkpt>
      <trkpt lat="42.855488" lon="-0.778969">
        <ele>1422.0</ele>
        <time>2013-08-16T05:42:01Z</time>
      </trkpt>
      <trkpt lat="42.855537" lon="-0.778903">
        <ele>1422.2</ele>
        <time>2013-08-16T05:42:12Z</time>
      </trkpt>
      <trkpt lat="42.855539" lon="-0.778895">
        <ele>1422.3</ele>
        <time>2013-08-16T05:42:13Z</time>
      </trkpt>
      <trkpt lat="42.855597" lon="-0.778827">
        <ele>1424.5</ele>
        <time>2013-08-16T05:42:26Z</time>
      </trkpt>
      <trkpt lat="42.855608" lon="-0.778820">
        <ele>1424.7</ele>
        <time>2013-08-16T05:42:28Z</time>
      </trkpt>
      <trkpt lat="42.855658" lon="-0.778794">
        <ele>1426.4</ele>
        <time>2013-08-16T05:42:41Z</time>
      </trkpt>
      <trkpt lat="42.855662" lon="-0.778793">
        <ele>1426.6</ele>
        <time>2013-08-16T05:42:52Z</time>
      </trkpt>
      <trkpt lat="42.855689" lon="-0.778778">
        <ele>1428.0</ele>
        <time>2013-08-16T05:42:56Z</time>
      </trkpt>
      <trkpt lat="42.855726" lon="-0.778768">
        <ele>1429.4</ele>
        <time>2013-08-16T05:43:02Z</time>
      </trkpt>
      <trkpt lat="42.855711" lon="-0.778758">
        <ele>1429.0</ele>
        <time>2013-08-16T05:43:17Z</time>
      </trkpt>
      <trkpt lat="42.855741" lon="-0.778750">
        <ele>1429.7</ele>
        <time>2013-08-16T05:43:29Z</time>
      </trkpt>
      <trkpt lat="42.855762" lon="-0.778753">
        <ele>1430.3</ele>
        <time>2013-08-16T05:43:40Z</time>
      </trkpt>
      <trkpt lat="42.855830" lon="-0.778740">
        <ele>1433.0</ele>
        <time>2013-08-16T05:43:50Z</time>
      </trkpt>
      <trkpt lat="42.855870" lon="-0.778725">
        <ele>1434.5</ele>
        <time>2013-08-16T05:43:56Z</time>
      </trkpt>
      <trkpt lat="42.855914" lon="-0.778683">
        <ele>1436.2</ele>
        <time>2013-08-16T05:44:08Z</time>
      </trkpt>
      <trkpt lat="42.855938" lon="-0.778606">
        <ele>1437.3</ele>
        <time>2013-08-16T05:44:21Z</time>
      </trkpt>
      <trkpt lat="42.855963" lon="-0.778577">
        <ele>1438.4</ele>
        <time>2013-08-16T05:44:35Z</time>
      </trkpt>
      <trkpt lat="42.856024" lon="-0.778500">
        <ele>1441.9</ele>
        <time>2013-08-16T05:50:47Z</time>
      </trkpt>
      <trkpt lat="42.856088" lon="-0.778441">
        <ele>1444.7</ele>
        <time>2013-08-16T05:50:58Z</time>
      </trkpt>
      <trkpt lat="42.856105" lon="-0.778392">
        <ele>1445.9</ele>
        <time>2013-08-16T05:51:10Z</time>
      </trkpt>
      <trkpt lat="42.856161" lon="-0.778307">
        <ele>1447.5</ele>
        <time>2013-08-16T05:51:22Z</time>
      </trkpt>
      <trkpt lat="42.856199" lon="-0.778219">
        <ele>1449.9</ele>
        <time>2013-08-16T05:51:33Z</time>
      </trkpt>
      <trkpt lat="42.856202" lon="-0.778208">
        <ele>1450.2</ele>
        <time>2013-08-16T05:51:34Z</time>
      </trkpt>
      <trkpt lat="42.856246" lon="-0.778113">
        <ele>1452.3</ele>
        <time>2013-08-16T05:51:45Z</time>
      </trkpt>
      <trkpt lat="42.856288" lon="-0.778035">
        <ele>1454.2</ele>
        <time>2013-08-16T05:51:57Z</time>
      </trkpt>
      <trkpt lat="42.856300" lon="-0.778010">
        <ele>1454.4</ele>
        <time>2013-08-16T05:52:00Z</time>
      </trkpt>
      <trkpt lat="42.856354" lon="-0.777956">
        <ele>1456.3</ele>
        <time>2013-08-16T05:52:11Z</time>
      </trkpt>
      <trkpt lat="42.856387" lon="-0.777909">
        <ele>1457.8</ele>
        <time>2013-08-16T05:52:17Z</time>
      </trkpt>
      <trkpt lat="42.856403" lon="-0.777884">
        <ele>1458.4</ele>
        <time>2013-08-16T05:52:20Z</time>
      </trkpt>
      <trkpt lat="42.856427" lon="-0.777864">
        <ele>1459.0</ele>
        <time>2013-08-16T05:52:23Z</time>
      </trkpt>
      <trkpt lat="42.856468" lon="-0.777761">
        <ele>1460.7</ele>
        <time>2013-08-16T05:52:34Z</time>
      </trkpt>
      <trkpt lat="42.856460" lon="-0.777733">
        <ele>1460.8</ele>
        <time>2013-08-16T05:52:36Z</time>
      </trkpt>
      <trkpt lat="42.856476" lon="-0.777628">
        <ele>1461.8</ele>
        <time>2013-08-16T05:52:47Z</time>
      </trkpt>
      <trkpt lat="42.856484" lon="-0.777603">
        <ele>1461.9</ele>
        <time>2013-08-16T05:52:49Z</time>
      </trkpt>
      <trkpt lat="42.856530" lon="-0.777469">
        <ele>1463.7</ele>
        <time>2013-08-16T05:53:00Z</time>
      </trkpt>
      <trkpt lat="42.856596" lon="-0.777322">
        <ele>1465.4</ele>
        <time>2013-08-16T05:53:12Z</time>
      </trkpt>
      <trkpt lat="42.856628" lon="-0.777168">
        <ele>1467.1</ele>
        <time>2013-08-16T05:53:25Z</time>
      </trkpt>
      <trkpt lat="42.856656" lon="-0.777125">
        <ele>1467.6</ele>
        <time>2013-08-16T05:53:30Z</time>
      </trkpt>
      <trkpt lat="42.856700" lon="-0.777032">
        <ele>1469.3</ele>
        <time>2013-08-16T05:53:39Z</time>
      </trkpt>
      <trkpt lat="42.856756" lon="-0.776909">
        <ele>1471.1</ele>
        <time>2013-08-16T05:53:52Z</time>
      </trkpt>
      <trkpt lat="42.856777" lon="-0.776869">
        <ele>1471.8</ele>
        <time>2013-08-16T05:54:04Z</time>
      </trkpt>
      <trkpt lat="42.856789" lon="-0.776817">
        <ele>1471.8</ele>
        <time>2013-08-16T05:54:18Z</time>
      </trkpt>
      <trkpt lat="42.856853" lon="-0.776717">
        <ele>1474.9</ele>
        <time>2013-08-16T05:54:31Z</time>
      </trkpt>
      <trkpt lat="42.856888" lon="-0.776638">
        <ele>1476.9</ele>
        <time>2013-08-16T05:54:43Z</time>
      </trkpt>
      <trkpt lat="42.856911" lon="-0.776576">
        <ele>1477.3</ele>
        <time>2013-08-16T05:54:55Z</time>
      </trkpt>
      <trkpt lat="42.856937" lon="-0.776548">
        <ele>1479.2</ele>
        <time>2013-08-16T05:55:06Z</time>
      </trkpt>
      <trkpt lat="42.856949" lon="-0.776514">
        <ele>1479.8</ele>
        <time>2013-08-16T05:55:17Z</time>
      </trkpt>
      <trkpt lat="42.857000" lon="-0.776391">
        <ele>1483.8</ele>
        <time>2013-08-16T05:55:28Z</time>
      </trkpt>
      <trkpt lat="42.857046" lon="-0.776304">
        <ele>1487.1</ele>
        <time>2013-08-16T05:55:36Z</time>
      </trkpt>
      <trkpt lat="42.857112" lon="-0.776105">
        <ele>1488.1</ele>
        <time>2013-08-16T05:55:49Z</time>
      </trkpt>
      <trkpt lat="42.857171" lon="-0.775895">
        <ele>1491.2</ele>
        <time>2013-08-16T05:56:02Z</time>
      </trkpt>
      <trkpt lat="42.857195" lon="-0.775816">
        <ele>1491.7</ele>
        <time>2013-08-16T05:56:08Z</time>
      </trkpt>
      <trkpt lat="42.857257" lon="-0.775661">
        <ele>1494.8</ele>
        <time>2013-08-16T05:56:20Z</time>
      </trkpt>
      <trkpt lat="42.857280" lon="-0.775574">
        <ele>1494.7</ele>
        <time>2013-08-16T05:56:28Z</time>
      </trkpt>
      <trkpt lat="42.857301" lon="-0.775405">
        <ele>1492.4</ele>
        <time>2013-08-16T05:56:38Z</time>
      </trkpt>
      <trkpt lat="42.857306" lon="-0.775338">
        <ele>1491.6</ele>
        <time>2013-08-16T05:56:42Z</time>
      </trkpt>
      <trkpt lat="42.857316" lon="-0.775279">
        <ele>1491.6</ele>
        <time>2013-08-16T05:56:48Z</time>
      </trkpt>
      <trkpt lat="42.857327" lon="-0.775223">
        <ele>1492.9</ele>
        <time>2013-08-16T05:56:52Z</time>
      </trkpt>
      <trkpt lat="42.857317" lon="-0.775037">
        <ele>1492.3</ele>
        <time>2013-08-16T05:57:03Z</time>
      </trkpt>
      <trkpt lat="42.857347" lon="-0.774880">
        <ele>1495.1</ele>
        <time>2013-08-16T05:57:14Z</time>
      </trkpt>
      <trkpt lat="42.857379" lon="-0.774776">
        <ele>1496.5</ele>
        <time>2013-08-16T05:57:26Z</time>
      </trkpt>
      <trkpt lat="42.857403" lon="-0.774609">
        <ele>1497.3</ele>
        <time>2013-08-16T05:57:38Z</time>
      </trkpt>
      <trkpt lat="42.857419" lon="-0.774574">
        <ele>1498.5</ele>
        <time>2013-08-16T05:57:42Z</time>
      </trkpt>
      <trkpt lat="42.857444" lon="-0.774484">
        <ele>1500.5</ele>
        <time>2013-08-16T05:57:48Z</time>
      </trkpt>
      <trkpt lat="42.857481" lon="-0.774362">
        <ele>1501.5</ele>
        <time>2013-08-16T05:57:54Z</time>
      </trkpt>
      <trkpt lat="42.857542" lon="-0.774286">
        <ele>1503.5</ele>
        <time>2013-08-16T05:58:01Z</time>
      </trkpt>
      <trkpt lat="42.857599" lon="-0.774159">
        <ele>1503.0</ele>
        <time>2013-08-16T05:58:12Z</time>
      </trkpt>
      <trkpt lat="42.857592" lon="-0.774013">
        <ele>1502.2</ele>
        <time>2013-08-16T05:58:23Z</time>
      </trkpt>
      <trkpt lat="42.857595" lon="-0.773929">
        <ele>1501.9</ele>
        <time>2013-08-16T05:58:29Z</time>
      </trkpt>
      <trkpt lat="42.857653" lon="-0.773858">
        <ele>1501.9</ele>
        <time>2013-08-16T05:58:38Z</time>
      </trkpt>
      <trkpt lat="42.857681" lon="-0.773832">
        <ele>1503.5</ele>
        <time>2013-08-16T05:58:41Z</time>
      </trkpt>
      <trkpt lat="42.857766" lon="-0.773702">
        <ele>1505.2</ele>
        <time>2013-08-16T05:58:50Z</time>
      </trkpt>
      <trkpt lat="42.857804" lon="-0.773626">
        <ele>1505.2</ele>
        <time>2013-08-16T05:58:56Z</time>
      </trkpt>
      <trkpt lat="42.857823" lon="-0.773553">
        <ele>1505.4</ele>
        <time>2013-08-16T05:59:01Z</time>
      </trkpt>
      <trkpt lat="42.857863" lon="-0.773431">
        <ele>1506.2</ele>
        <time>2013-08-16T05:59:09Z</time>
      </trkpt>
      <trkpt lat="42.857886" lon="-0.773283">
        <ele>1505.1</ele>
        <time>2013-08-16T05:59:15Z</time>
      </trkpt>
      <trkpt lat="42.857971" lon="-0.773056">
        <ele>1503.9</ele>
        <time>2013-08-16T05:59:28Z</time>
      </trkpt>
      <trkpt lat="42.857985" lon="-0.773035">
        <ele>1503.6</ele>
        <time>2013-08-16T05:59:31Z</time>
      </trkpt>
      <trkpt lat="42.858020" lon="-0.772949">
        <ele>1501.8</ele>
        <time>2013-08-16T05:59:42Z</time>
      </trkpt>
      <trkpt lat="42.858005" lon="-0.772864">
        <ele>1500.2</ele>
        <time>2013-08-16T05:59:54Z</time>
      </trkpt>
      <trkpt lat="42.858005" lon="-0.772864">
        <ele>1500.2</ele>
        <time>2013-08-16T06:00:09Z</time>
      </trkpt>
      <trkpt lat="42.858032" lon="-0.772779">
        <ele>1498.2</ele>
        <time>2013-08-16T06:00:15Z</time>
      </trkpt>
      <trkpt lat="42.858019" lon="-0.772683">
        <ele>1498.6</ele>
        <time>2013-08-16T06:00:20Z</time>
      </trkpt>
      <trkpt lat="42.858033" lon="-0.772580">
        <ele>1498.6</ele>
        <time>2013-08-16T06:00:25Z</time>
      </trkpt>
      <trkpt lat="42.858037" lon="-0.772505">
        <ele>1497.6</ele>
        <time>2013-08-16T06:00:30Z</time>
      </trkpt>
      <trkpt lat="42.858036" lon="-0.772414">
        <ele>1498.0</ele>
        <time>2013-08-16T06:00:38Z</time>
      </trkpt>
      <trkpt lat="42.857979" lon="-0.772256">
        <ele>1494.8</ele>
        <time>2013-08-16T06:00:50Z</time>
      </trkpt>
      <trkpt lat="42.857937" lon="-0.772168">
        <ele>1492.1</ele>
        <time>2013-08-16T06:01:01Z</time>
      </trkpt>
      <trkpt lat="42.857899" lon="-0.772066">
        <ele>1489.6</ele>
        <time>2013-08-16T06:01:09Z</time>
      </trkpt>
      <trkpt lat="42.857883" lon="-0.771939">
        <ele>1488.4</ele>
        <time>2013-08-16T06:01:19Z</time>
      </trkpt>
      <trkpt lat="42.857857" lon="-0.771749">
        <ele>1486.5</ele>
        <time>2013-08-16T06:01:31Z</time>
      </trkpt>
      <trkpt lat="42.857880" lon="-0.771439">
        <ele>1485.0</ele>
        <time>2013-08-16T06:01:46Z</time>
      </trkpt>
      <trkpt lat="42.857902" lon="-0.771351">
        <ele>1485.8</ele>
        <time>2013-08-16T06:01:52Z</time>
      </trkpt>
      <trkpt lat="42.857919" lon="-0.771215">
        <ele>1483.4</ele>
        <time>2013-08-16T06:01:59Z</time>
      </trkpt>
      <trkpt lat="42.857924" lon="-0.771183">
        <ele>1483.2</ele>
        <time>2013-08-16T06:02:02Z</time>
      </trkpt>
      <trkpt lat="42.857920" lon="-0.771154">
        <ele>1483.0</ele>
        <time>2013-08-16T06:02:06Z</time>
      </trkpt>
      <trkpt lat="42.857874" lon="-0.771032">
        <ele>1481.6</ele>
        <time>2013-08-16T06:02:16Z</time>
      </trkpt>
      <trkpt lat="42.857871" lon="-0.771000">
        <ele>1481.0</ele>
        <time>2013-08-16T06:02:18Z</time>
      </trkpt>
      <trkpt lat="42.857858" lon="-0.770815">
        <ele>1479.3</ele>
        <time>2013-08-16T06:02:29Z</time>
      </trkpt>
      <trkpt lat="42.857866" lon="-0.770597">
        <ele>1477.8</ele>
        <time>2013-08-16T06:02:41Z</time>
      </trkpt>
      <trkpt lat="42.857856" lon="-0.770561">
        <ele>1477.4</ele>
        <time>2013-08-16T06:02:44Z</time>
      </trkpt>
      <trkpt lat="42.857832" lon="-0.770449">
        <ele>1477.5</ele>
        <time>2013-08-16T06:02:51Z</time>
      </trkpt>
      <trkpt lat="42.857829" lon="-0.770298">
        <ele>1480.0</ele>
        <time>2013-08-16T06:03:01Z</time>
      </trkpt>
      <trkpt lat="42.857824" lon="-0.770221">
        <ele>1481.0</ele>
        <time>2013-08-16T06:03:06Z</time>
      </trkpt>
      <trkpt lat="42.857817" lon="-0.770120">
        <ele>1481.7</ele>
        <time>2013-08-16T06:03:12Z</time>
      </trkpt>
      <trkpt lat="42.857765" lon="-0.769935">
        <ele>1483.0</ele>
        <time>2013-08-16T06:03:24Z</time>
      </trkpt>
      <trkpt lat="42.857676" lon="-0.769759">
        <ele>1481.0</ele>
        <time>2013-08-16T06:03:36Z</time>
      </trkpt>
      <trkpt lat="42.857563" lon="-0.769555">
        <ele>1480.1</ele>
        <time>2013-08-16T06:03:50Z</time>
      </trkpt>
      <trkpt lat="42.857509" lon="-0.769345">
        <ele>1480.1</ele>
        <time>2013-08-16T06:04:04Z</time>
      </trkpt>
      <trkpt lat="42.857467" lon="-0.769126">
        <ele>1477.8</ele>
        <time>2013-08-16T06:04:17Z</time>
      </trkpt>
      <trkpt lat="42.857451" lon="-0.769041">
        <ele>1476.8</ele>
        <time>2013-08-16T06:04:26Z</time>
      </trkpt>
      <trkpt lat="42.857405" lon="-0.768901">
        <ele>1475.9</ele>
        <time>2013-08-16T06:04:34Z</time>
      </trkpt>
      <trkpt lat="42.857377" lon="-0.768839">
        <ele>1475.3</ele>
        <time>2013-08-16T06:04:40Z</time>
      </trkpt>
      <trkpt lat="42.857373" lon="-0.768801">
        <ele>1475.3</ele>
        <time>2013-08-16T06:04:51Z</time>
      </trkpt>
      <trkpt lat="42.857388" lon="-0.768818">
        <ele>1475.6</ele>
        <time>2013-08-16T06:05:07Z</time>
      </trkpt>
      <trkpt lat="42.857388" lon="-0.768819">
        <ele>1475.6</ele>
        <time>2013-08-16T06:05:39Z</time>
      </trkpt>
      <trkpt lat="42.857376" lon="-0.768795">
        <ele>1475.3</ele>
        <time>2013-08-16T06:05:43Z</time>
      </trkpt>
      <trkpt lat="42.857385" lon="-0.768593">
        <ele>1474.0</ele>
        <time>2013-08-16T06:05:53Z</time>
      </trkpt>
      <trkpt lat="42.857428" lon="-0.768408">
        <ele>1473.6</ele>
        <time>2013-08-16T06:06:04Z</time>
      </trkpt>
      <trkpt lat="42.857427" lon="-0.768344">
        <ele>1473.2</ele>
        <time>2013-08-16T06:06:08Z</time>
      </trkpt>
      <trkpt lat="42.857474" lon="-0.768216">
        <ele>1473.5</ele>
        <time>2013-08-16T06:06:17Z</time>
      </trkpt>
      <trkpt lat="42.857503" lon="-0.768048">
        <ele>1473.7</ele>
        <time>2013-08-16T06:06:28Z</time>
      </trkpt>
      <trkpt lat="42.857517" lon="-0.767991">
        <ele>1473.6</ele>
        <time>2013-08-16T06:06:34Z</time>
      </trkpt>
      <trkpt lat="42.857523" lon="-0.767794">
        <ele>1474.4</ele>
        <time>2013-08-16T06:06:49Z</time>
      </trkpt>
      <trkpt lat="42.857520" lon="-0.767744">
        <ele>1475.0</ele>
        <time>2013-08-16T06:06:52Z</time>
      </trkpt>
      <trkpt lat="42.857498" lon="-0.767509">
        <ele>1476.6</ele>
        <time>2013-08-16T06:07:06Z</time>
      </trkpt>
      <trkpt lat="42.857535" lon="-0.767362">
        <ele>1477.2</ele>
        <time>2013-08-16T06:07:16Z</time>
      </trkpt>
      <trkpt lat="42.857573" lon="-0.767290">
        <ele>1478.0</ele>
        <time>2013-08-16T06:07:22Z</time>
      </trkpt>
      <trkpt lat="42.857583" lon="-0.767231">
        <ele>1478.3</ele>
        <time>2013-08-16T06:07:27Z</time>
      </trkpt>
      <trkpt lat="42.857603" lon="-0.767157">
        <ele>1479.0</ele>
        <time>2013-08-16T06:07:32Z</time>
      </trkpt>
      <trkpt lat="42.857712" lon="-0.766977">
        <ele>1482.9</ele>
        <time>2013-08-16T06:09:58Z</time>
      </trkpt>
      <trkpt lat="42.857722" lon="-0.766961">
        <ele>1483.4</ele>
        <time>2013-08-16T06:10:04Z</time>
      </trkpt>
      <trkpt lat="42.857733" lon="-0.766857">
        <ele>1483.9</ele>
        <time>2013-08-16T06:10:14Z</time>
      </trkpt>
      <trkpt lat="42.857732" lon="-0.766815">
        <ele>1484.6</ele>
        <time>2013-08-16T06:10:24Z</time>
      </trkpt>
      <trkpt lat="42.857729" lon="-0.766744">
        <ele>1485.2</ele>
        <time>2013-08-16T06:10:29Z</time>
      </trkpt>
      <trkpt lat="42.857727" lon="-0.766715">
        <ele>1485.1</ele>
        <time>2013-08-16T06:10:32Z</time>
      </trkpt>
      <trkpt lat="42.857714" lon="-0.766640">
        <ele>1483.5</ele>
        <time>2013-08-16T06:10:43Z</time>
      </trkpt>
      <trkpt lat="42.857712" lon="-0.766568">
        <ele>1484.8</ele>
        <time>2013-08-16T06:10:53Z</time>
      </trkpt>
      <trkpt lat="42.857716" lon="-0.766535">
        <ele>1484.7</ele>
        <time>2013-08-16T06:10:56Z</time>
      </trkpt>
      <trkpt lat="42.857710" lon="-0.766475">
        <ele>1483.5</ele>
        <time>2013-08-16T06:11:02Z</time>
      </trkpt>
      <trkpt lat="42.857716" lon="-0.766420">
        <ele>1483.2</ele>
        <time>2013-08-16T06:11:05Z</time>
      </trkpt>
      <trkpt lat="42.857719" lon="-0.766254">
        <ele>1489.6</ele>
        <time>2013-08-16T06:11:16Z</time>
      </trkpt>
      <trkpt lat="42.857730" lon="-0.766215">
        <ele>1491.6</ele>
        <time>2013-08-16T06:11:19Z</time>
      </trkpt>
      <trkpt lat="42.857745" lon="-0.766149">
        <ele>1494.4</ele>
        <time>2013-08-16T06:11:24Z</time>
      </trkpt>
      <trkpt lat="42.857753" lon="-0.766112">
        <ele>1494.9</ele>
        <time>2013-08-16T06:11:27Z</time>
      </trkpt>
      <trkpt lat="42.857774" lon="-0.766017">
        <ele>1497.9</ele>
        <time>2013-08-16T06:11:38Z</time>
      </trkpt>
      <trkpt lat="42.857781" lon="-0.765919">
        <ele>1499.8</ele>
        <time>2013-08-16T06:11:45Z</time>
      </trkpt>
      <trkpt lat="42.857765" lon="-0.765832">
        <ele>1503.5</ele>
        <time>2013-08-16T06:11:53Z</time>
      </trkpt>
      <trkpt lat="42.857772" lon="-0.765721">
        <ele>1507.2</ele>
        <time>2013-08-16T06:12:05Z</time>
      </trkpt>
      <trkpt lat="42.857806" lon="-0.765610">
        <ele>1507.9</ele>
        <time>2013-08-16T06:12:17Z</time>
      </trkpt>
      <trkpt lat="42.857844" lon="-0.765522">
        <ele>1509.3</ele>
        <time>2013-08-16T06:12:30Z</time>
      </trkpt>
      <trkpt lat="42.857821" lon="-0.765430">
        <ele>1511.0</ele>
        <time>2013-08-16T06:12:40Z</time>
      </trkpt>
      <trkpt lat="42.857821" lon="-0.765423">
        <ele>1511.2</ele>
        <time>2013-08-16T06:12:41Z</time>
      </trkpt>
      <trkpt lat="42.857812" lon="-0.765350">
        <ele>1512.1</ele>
        <time>2013-08-16T06:12:47Z</time>
      </trkpt>
      <trkpt lat="42.857820" lon="-0.765310">
        <ele>1512.4</ele>
        <time>2013-08-16T06:12:50Z</time>
      </trkpt>
      <trkpt lat="42.857835" lon="-0.765271">
        <ele>1512.5</ele>
        <time>2013-08-16T06:12:53Z</time>
      </trkpt>
      <trkpt lat="42.857822" lon="-0.765162">
        <ele>1513.6</ele>
        <time>2013-08-16T06:13:04Z</time>
      </trkpt>
      <trkpt lat="42.857832" lon="-0.765119">
        <ele>1514.1</ele>
        <time>2013-08-16T06:13:09Z</time>
      </trkpt>
      <trkpt lat="42.857820" lon="-0.765050">
        <ele>1513.6</ele>
        <time>2013-08-16T06:13:20Z</time>
      </trkpt>
      <trkpt lat="42.857827" lon="-0.765028">
        <ele>1514.3</ele>
        <time>2013-08-16T06:13:31Z</time>
      </trkpt>
      <trkpt lat="42.857828" lon="-0.765014">
        <ele>1514.6</ele>
        <time>2013-08-16T06:13:41Z</time>
      </trkpt>
      <trkpt lat="42.857844" lon="-0.764849">
        <ele>1520.2</ele>
        <time>2013-08-16T06:13:51Z</time>
      </trkpt>
      <trkpt lat="42.857847" lon="-0.764800">
        <ele>1521.1</ele>
        <time>2013-08-16T06:13:54Z</time>
      </trkpt>
      <trkpt lat="42.857890" lon="-0.764669">
        <ele>1524.6</ele>
        <time>2013-08-16T06:14:07Z</time>
      </trkpt>
      <trkpt lat="42.857900" lon="-0.764598">
        <ele>1525.8</ele>
        <time>2013-08-16T06:14:17Z</time>
      </trkpt>
      <trkpt lat="42.857893" lon="-0.764494">
        <ele>1526.1</ele>
        <time>2013-08-16T06:14:26Z</time>
      </trkpt>
      <trkpt lat="42.857893" lon="-0.764468">
        <ele>1526.4</ele>
        <time>2013-08-16T06:14:29Z</time>
      </trkpt>
      <trkpt lat="42.857891" lon="-0.764374">
        <ele>1527.7</ele>
        <time>2013-08-16T06:14:36Z</time>
      </trkpt>
      <trkpt lat="42.857866" lon="-0.764213">
        <ele>1528.6</ele>
        <time>2013-08-16T06:14:48Z</time>
      </trkpt>
      <trkpt lat="42.857866" lon="-0.764158">
        <ele>1529.6</ele>
        <time>2013-08-16T06:14:59Z</time>
      </trkpt>
      <trkpt lat="42.857869" lon="-0.764143">
        <ele>1530.2</ele>
        <time>2013-08-16T06:15:10Z</time>
      </trkpt>
      <trkpt lat="42.857870" lon="-0.764114">
        <ele>1531.0</ele>
        <time>2013-08-16T06:15:20Z</time>
      </trkpt>
      <trkpt lat="42.857883" lon="-0.763981">
        <ele>1534.5</ele>
        <time>2013-08-16T06:15:31Z</time>
      </trkpt>
      <trkpt lat="42.857896" lon="-0.763791">
        <ele>1537.6</ele>
        <time>2013-08-16T06:15:42Z</time>
      </trkpt>
      <trkpt lat="42.857915" lon="-0.763722">
        <ele>1537.8</ele>
        <time>2013-08-16T06:15:47Z</time>
      </trkpt>
      <trkpt lat="42.857957" lon="-0.763656">
        <ele>1539.6</ele>
        <time>2013-08-16T06:15:53Z</time>
      </trkpt>
      <trkpt lat="42.858027" lon="-0.763476">
        <ele>1540.1</ele>
        <time>2013-08-16T06:16:05Z</time>
      </trkpt>
      <trkpt lat="42.858031" lon="-0.763468">
        <ele>1540.2</ele>
        <time>2013-08-16T06:16:06Z</time>
      </trkpt>
      <trkpt lat="42.858068" lon="-0.763395">
        <ele>1541.3</ele>
        <time>2013-08-16T06:16:12Z</time>
      </trkpt>
      <trkpt lat="42.858073" lon="-0.763367">
        <ele>1541.1</ele>
        <time>2013-08-16T06:16:14Z</time>
      </trkpt>
      <trkpt lat="42.858109" lon="-0.763268">
        <ele>1542.0</ele>
        <time>2013-08-16T06:16:23Z</time>
      </trkpt>
      <trkpt lat="42.858119" lon="-0.763200">
        <ele>1544.6</ele>
        <time>2013-08-16T06:16:28Z</time>
      </trkpt>
      <trkpt lat="42.858146" lon="-0.763172">
        <ele>1546.2</ele>
        <time>2013-08-16T06:16:31Z</time>
      </trkpt>
      <trkpt lat="42.858169" lon="-0.763098">
        <ele>1548.0</ele>
        <time>2013-08-16T06:16:37Z</time>
      </trkpt>
      <trkpt lat="42.858217" lon="-0.762999">
        <ele>1548.8</ele>
        <time>2013-08-16T06:16:44Z</time>
      </trkpt>
      <trkpt lat="42.858243" lon="-0.762944">
        <ele>1549.2</ele>
        <time>2013-08-16T06:16:49Z</time>
      </trkpt>
      <trkpt lat="42.858275" lon="-0.762851">
        <ele>1550.7</ele>
        <time>2013-08-16T06:16:57Z</time>
      </trkpt>
      <trkpt lat="42.858336" lon="-0.762751">
        <ele>1552.5</ele>
        <time>2013-08-16T06:17:06Z</time>
      </trkpt>
      <trkpt lat="42.858361" lon="-0.762701">
        <ele>1553.9</ele>
        <time>2013-08-16T06:17:10Z</time>
      </trkpt>
      <trkpt lat="42.858356" lon="-0.762614">
        <ele>1554.4</ele>
        <time>2013-08-16T06:17:22Z</time>
      </trkpt>
      <trkpt lat="42.858375" lon="-0.762509">
        <ele>1554.2</ele>
        <time>2013-08-16T06:17:28Z</time>
      </trkpt>
      <trkpt lat="42.858387" lon="-0.762367">
        <ele>1556.1</ele>
        <time>2013-08-16T06:17:37Z</time>
      </trkpt>
      <trkpt lat="42.858380" lon="-0.762299">
        <ele>1557.1</ele>
        <time>2013-08-16T06:17:42Z</time>
      </trkpt>
      <trkpt lat="42.858401" lon="-0.762235">
        <ele>1558.6</ele>
        <time>2013-08-16T06:17:47Z</time>
      </trkpt>
      <trkpt lat="42.858427" lon="-0.762171">
        <ele>1560.2</ele>
        <time>2013-08-16T06:17:54Z</time>
      </trkpt>
      <trkpt lat="42.858438" lon="-0.762122">
        <ele>1561.3</ele>
        <time>2013-08-16T06:17:58Z</time>
      </trkpt>
      <trkpt lat="42.858443" lon="-0.762087">
        <ele>1561.9</ele>
        <time>2013-08-16T06:18:02Z</time>
      </trkpt>
      <trkpt lat="42.858439" lon="-0.761938">
        <ele>1561.9</ele>
        <time>2013-08-16T06:18:13Z</time>
      </trkpt>
      <trkpt lat="42.858465" lon="-0.761866">
        <ele>1563.9</ele>
        <time>2013-08-16T06:18:21Z</time>
      </trkpt>
      <trkpt lat="42.858454" lon="-0.761742">
        <ele>1561.1</ele>
        <time>2013-08-16T06:18:30Z</time>
      </trkpt>
      <trkpt lat="42.858461" lon="-0.761715">
        <ele>1561.7</ele>
        <time>2013-08-16T06:18:34Z</time>
      </trkpt>
      <trkpt lat="42.858473" lon="-0.761597">
        <ele>1561.0</ele>
        <time>2013-08-16T06:18:43Z</time>
      </trkpt>
      <trkpt lat="42.858475" lon="-0.761554">
        <ele>1561.3</ele>
        <time>2013-08-16T06:18:46Z</time>
      </trkpt>
      <trkpt lat="42.858454" lon="-0.761344">
        <ele>1557.8</ele>
        <time>2013-08-16T06:18:58Z</time>
      </trkpt>
      <trkpt lat="42.858440" lon="-0.761256">
        <ele>1557.7</ele>
        <time>2013-08-16T06:19:10Z</time>
      </trkpt>
      <trkpt lat="42.858440" lon="-0.761256">
        <ele>1557.7</ele>
        <time>2013-08-16T06:19:21Z</time>
      </trkpt>
      <trkpt lat="42.858426" lon="-0.761152">
        <ele>1556.8</ele>
        <time>2013-08-16T06:19:31Z</time>
      </trkpt>
      <trkpt lat="42.858395" lon="-0.761071">
        <ele>1556.3</ele>
        <time>2013-08-16T06:19:37Z</time>
      </trkpt>
      <trkpt lat="42.858377" lon="-0.761016">
        <ele>1556.4</ele>
        <time>2013-08-16T06:19:41Z</time>
      </trkpt>
      <trkpt lat="42.858322" lon="-0.760902">
        <ele>1555.9</ele>
        <time>2013-08-16T06:19:50Z</time>
      </trkpt>
      <trkpt lat="42.858297" lon="-0.760791">
        <ele>1555.2</ele>
        <time>2013-08-16T06:19:56Z</time>
      </trkpt>
      <trkpt lat="42.858298" lon="-0.760732">
        <ele>1555.8</ele>
        <time>2013-08-16T06:20:01Z</time>
      </trkpt>
      <trkpt lat="42.858297" lon="-0.760671">
        <ele>1555.6</ele>
        <time>2013-08-16T06:20:06Z</time>
      </trkpt>
      <trkpt lat="42.858308" lon="-0.760573">
        <ele>1556.2</ele>
        <time>2013-08-16T06:20:16Z</time>
      </trkpt>
      <trkpt lat="42.858309" lon="-0.760520">
        <ele>1557.3</ele>
        <time>2013-08-16T06:20:22Z</time>
      </trkpt>
      <trkpt lat="42.858314" lon="-0.760424">
        <ele>1559.7</ele>
        <time>2013-08-16T06:20:32Z</time>
      </trkpt>
      <trkpt lat="42.858319" lon="-0.760392">
        <ele>1560.7</ele>
        <time>2013-08-16T06:20:40Z</time>
      </trkpt>
      <trkpt lat="42.858329" lon="-0.760273">
        <ele>1563.0</ele>
        <time>2013-08-16T06:20:50Z</time>
      </trkpt>
      <trkpt lat="42.858328" lon="-0.760258">
        <ele>1563.2</ele>
        <time>2013-08-16T06:20:52Z</time>
      </trkpt>
      <trkpt lat="42.858336" lon="-0.760187">
        <ele>1564.6</ele>
        <time>2013-08-16T06:21:00Z</time>
      </trkpt>
      <trkpt lat="42.858337" lon="-0.760061">
        <ele>1567.3</ele>
        <time>2013-08-16T06:21:11Z</time>
      </trkpt>
      <trkpt lat="42.858335" lon="-0.760054">
        <ele>1567.4</ele>
        <time>2013-08-16T06:21:12Z</time>
      </trkpt>
      <trkpt lat="42.858331" lon="-0.759983">
        <ele>1569.2</ele>
        <time>2013-08-16T06:21:22Z</time>
      </trkpt>
      <trkpt lat="42.858330" lon="-0.759970">
        <ele>1569.5</ele>
        <time>2013-08-16T06:21:40Z</time>
      </trkpt>
      <trkpt lat="42.858325" lon="-0.759935">
        <ele>1570.3</ele>
        <time>2013-08-16T06:21:43Z</time>
      </trkpt>
      <trkpt lat="42.858306" lon="-0.759925">
        <ele>1570.7</ele>
        <time>2013-08-16T06:21:47Z</time>
      </trkpt>
      <trkpt lat="42.858268" lon="-0.759842">
        <ele>1573.8</ele>
        <time>2013-08-16T06:21:56Z</time>
      </trkpt>
      <trkpt lat="42.858201" lon="-0.759841">
        <ele>1575.9</ele>
        <time>2013-08-16T06:22:07Z</time>
      </trkpt>
      <trkpt lat="42.858192" lon="-0.759842">
        <ele>1576.3</ele>
        <time>2013-08-16T06:22:09Z</time>
      </trkpt>
      <trkpt lat="42.858172" lon="-0.759761">
        <ele>1577.5</ele>
        <time>2013-08-16T06:22:16Z</time>
      </trkpt>
      <trkpt lat="42.858155" lon="-0.759728">
        <ele>1578.7</ele>
        <time>2013-08-16T06:22:20Z</time>
      </trkpt>
      <trkpt lat="42.858150" lon="-0.759693">
        <ele>1579.4</ele>
        <time>2013-08-16T06:22:23Z</time>
      </trkpt>
      <trkpt lat="42.858128" lon="-0.759544">
        <ele>1581.1</ele>
        <time>2013-08-16T06:22:35Z</time>
      </trkpt>
      <trkpt lat="42.858121" lon="-0.759432">
        <ele>1582.6</ele>
        <time>2013-08-16T06:22:43Z</time>
      </trkpt>
      <trkpt lat="42.858110" lon="-0.759382">
        <ele>1583.3</ele>
        <time>2013-08-16T06:22:47Z</time>
      </trkpt>
      <trkpt lat="42.858105" lon="-0.759338">
        <ele>1584.1</ele>
        <time>2013-08-16T06:22:50Z</time>
      </trkpt>
      <trkpt lat="42.858100" lon="-0.759220">
        <ele>1585.7</ele>
        <time>2013-08-16T06:23:00Z</time>
      </trkpt>
      <trkpt lat="42.858088" lon="-0.759125">
        <ele>1586.8</ele>
        <time>2013-08-16T06:23:09Z</time>
      </trkpt>
      <trkpt lat="42.858091" lon="-0.759092">
        <ele>1587.5</ele>
        <time>2013-08-16T06:23:12Z</time>
      </trkpt>
      <trkpt lat="42.858083" lon="-0.759046">
        <ele>1587.7</ele>
        <time>2013-08-16T06:23:16Z</time>
      </trkpt>
      <trkpt lat="42.858087" lon="-0.758991">
        <ele>1588.7</ele>
        <time>2013-08-16T06:23:20Z</time>
      </trkpt>
      <trkpt lat="42.858071" lon="-0.758903">
        <ele>1590.1</ele>
        <time>2013-08-16T06:23:27Z</time>
      </trkpt>
      <trkpt lat="42.858091" lon="-0.758764">
        <ele>1591.4</ele>
        <time>2013-08-16T06:23:36Z</time>
      </trkpt>
      <trkpt lat="42.858114" lon="-0.758639">
        <ele>1593.9</ele>
        <time>2013-08-16T06:23:47Z</time>
      </trkpt>
      <trkpt lat="42.858112" lon="-0.758583">
        <ele>1594.8</ele>
        <time>2013-08-16T06:23:52Z</time>
      </trkpt>
      <trkpt lat="42.858155" lon="-0.758456">
        <ele>1599.1</ele>
        <time>2013-08-16T06:24:03Z</time>
      </trkpt>
      <trkpt lat="42.858207" lon="-0.758397">
        <ele>1601.5</ele>
        <time>2013-08-16T06:24:09Z</time>
      </trkpt>
      <trkpt lat="42.858222" lon="-0.758376">
        <ele>1601.8</ele>
        <time>2013-08-16T06:24:11Z</time>
      </trkpt>
      <trkpt lat="42.858232" lon="-0.758365">
        <ele>1602.0</ele>
        <time>2013-08-16T06:24:12Z</time>
      </trkpt>
      <trkpt lat="42.858240" lon="-0.758340">
        <ele>1602.4</ele>
        <time>2013-08-16T06:24:14Z</time>
      </trkpt>
      <trkpt lat="42.858271" lon="-0.758264">
        <ele>1603.5</ele>
        <time>2013-08-16T06:24:21Z</time>
      </trkpt>
      <trkpt lat="42.858285" lon="-0.758232">
        <ele>1604.3</ele>
        <time>2013-08-16T06:24:25Z</time>
      </trkpt>
      <trkpt lat="42.858287" lon="-0.758192">
        <ele>1605.5</ele>
        <time>2013-08-16T06:24:29Z</time>
      </trkpt>
      <trkpt lat="42.858295" lon="-0.758156">
        <ele>1606.0</ele>
        <time>2013-08-16T06:24:32Z</time>
      </trkpt>
      <trkpt lat="42.858297" lon="-0.758117">
        <ele>1606.6</ele>
        <time>2013-08-16T06:24:36Z</time>
      </trkpt>
      <trkpt lat="42.858316" lon="-0.757993">
        <ele>1609.1</ele>
        <time>2013-08-16T06:24:47Z</time>
      </trkpt>
      <trkpt lat="42.858318" lon="-0.757968">
        <ele>1609.5</ele>
        <time>2013-08-16T06:24:50Z</time>
      </trkpt>
      <trkpt lat="42.858340" lon="-0.757849">
        <ele>1611.4</ele>
        <time>2013-08-16T06:25:00Z</time>
      </trkpt>
      <trkpt lat="42.858359" lon="-0.757767">
        <ele>1612.0</ele>
        <time>2013-08-16T06:25:07Z</time>
      </trkpt>
      <trkpt lat="42.858365" lon="-0.757727">
        <ele>1612.4</ele>
        <time>2013-08-16T06:25:11Z</time>
      </trkpt>
      <trkpt lat="42.858369" lon="-0.757690">
        <ele>1613.2</ele>
        <time>2013-08-16T06:25:14Z</time>
      </trkpt>
      <trkpt lat="42.858378" lon="-0.757623">
        <ele>1615.7</ele>
        <time>2013-08-16T06:25:20Z</time>
      </trkpt>
      <trkpt lat="42.858397" lon="-0.757547">
        <ele>1617.4</ele>
        <time>2013-08-16T06:25:30Z</time>
      </trkpt>
      <trkpt lat="42.858408" lon="-0.757512">
        <ele>1618.0</ele>
        <time>2013-08-16T06:25:34Z</time>
      </trkpt>
      <trkpt lat="42.858422" lon="-0.757477">
        <ele>1618.9</ele>
        <time>2013-08-16T06:25:37Z</time>
      </trkpt>
      <trkpt lat="42.858428" lon="-0.757434">
        <ele>1619.8</ele>
        <time>2013-08-16T06:25:41Z</time>
      </trkpt>
      <trkpt lat="42.858433" lon="-0.757311">
        <ele>1623.1</ele>
        <time>2013-08-16T06:25:52Z</time>
      </trkpt>
      <trkpt lat="42.858449" lon="-0.757274">
        <ele>1623.8</ele>
        <time>2013-08-16T06:25:56Z</time>
      </trkpt>
      <trkpt lat="42.858451" lon="-0.757238">
        <ele>1624.7</ele>
        <time>2013-08-16T06:26:00Z</time>
      </trkpt>
      <trkpt lat="42.858451" lon="-0.757204">
        <ele>1625.7</ele>
        <time>2013-08-16T06:26:03Z</time>
      </trkpt>
      <trkpt lat="42.858468" lon="-0.757180">
        <ele>1626.6</ele>
        <time>2013-08-16T06:26:07Z</time>
      </trkpt>
      <trkpt lat="42.858468" lon="-0.757152">
        <ele>1627.6</ele>
        <time>2013-08-16T06:26:09Z</time>
      </trkpt>
      <trkpt lat="42.858476" lon="-0.757082">
        <ele>1629.7</ele>
        <time>2013-08-16T06:26:17Z</time>
      </trkpt>
      <trkpt lat="42.858476" lon="-0.757028">
        <ele>1631.3</ele>
        <time>2013-08-16T06:26:21Z</time>
      </trkpt>
      <trkpt lat="42.858440" lon="-0.756895">
        <ele>1633.0</ele>
        <time>2013-08-16T06:26:33Z</time>
      </trkpt>
      <trkpt lat="42.858436" lon="-0.756791">
        <ele>1635.6</ele>
        <time>2013-08-16T06:26:41Z</time>
      </trkpt>
      <trkpt lat="42.858431" lon="-0.756761">
        <ele>1636.1</ele>
        <time>2013-08-16T06:26:44Z</time>
      </trkpt>
      <trkpt lat="42.858401" lon="-0.756626">
        <ele>1637.1</ele>
        <time>2013-08-16T06:26:56Z</time>
      </trkpt>
      <trkpt lat="42.858397" lon="-0.756558">
        <ele>1637.6</ele>
        <time>2013-08-16T06:27:02Z</time>
      </trkpt>
      <trkpt lat="42.858371" lon="-0.756394">
        <ele>1636.4</ele>
        <time>2013-08-16T06:27:14Z</time>
      </trkpt>
      <trkpt lat="42.858378" lon="-0.756278">
        <ele>1638.0</ele>
        <time>2013-08-16T06:27:23Z</time>
      </trkpt>
      <trkpt lat="42.858384" lon="-0.756192">
        <ele>1638.4</ele>
        <time>2013-08-16T06:27:33Z</time>
      </trkpt>
      <trkpt lat="42.858389" lon="-0.756077">
        <ele>1638.6</ele>
        <time>2013-08-16T06:27:43Z</time>
      </trkpt>
      <trkpt lat="42.858407" lon="-0.755980">
        <ele>1640.6</ele>
        <time>2013-08-16T06:27:53Z</time>
      </trkpt>
      <trkpt lat="42.858401" lon="-0.755890">
        <ele>1642.9</ele>
        <time>2013-08-16T06:28:03Z</time>
      </trkpt>
      <trkpt lat="42.858405" lon="-0.755818">
        <ele>1644.8</ele>
        <time>2013-08-16T06:28:11Z</time>
      </trkpt>
      <trkpt lat="42.858401" lon="-0.755759">
        <ele>1646.7</ele>
        <time>2013-08-16T06:28:18Z</time>
      </trkpt>
      <trkpt lat="42.858415" lon="-0.755704">
        <ele>1647.9</ele>
        <time>2013-08-16T06:28:29Z</time>
      </trkpt>
      <trkpt lat="42.858443" lon="-0.755619">
        <ele>1650.7</ele>
        <time>2013-08-16T06:28:40Z</time>
      </trkpt>
      <trkpt lat="42.858451" lon="-0.755592">
        <ele>1651.2</ele>
        <time>2013-08-16T06:28:43Z</time>
      </trkpt>
      <trkpt lat="42.858485" lon="-0.755512">
        <ele>1653.8</ele>
        <time>2013-08-16T06:28:54Z</time>
      </trkpt>
      <trkpt lat="42.858512" lon="-0.755439">
        <ele>1656.4</ele>
        <time>2013-08-16T06:29:03Z</time>
      </trkpt>
      <trkpt lat="42.858531" lon="-0.755360">
        <ele>1657.8</ele>
        <time>2013-08-16T06:29:13Z</time>
      </trkpt>
      <trkpt lat="42.858549" lon="-0.755321">
        <ele>1659.2</ele>
        <time>2013-08-16T06:29:24Z</time>
      </trkpt>
      <trkpt lat="42.858553" lon="-0.755295">
        <ele>1660.0</ele>
        <time>2013-08-16T06:29:39Z</time>
      </trkpt>
      <trkpt lat="42.858587" lon="-0.755197">
        <ele>1660.7</ele>
        <time>2013-08-16T06:29:50Z</time>
      </trkpt>
      <trkpt lat="42.858583" lon="-0.755105">
        <ele>1661.1</ele>
        <time>2013-08-16T06:29:56Z</time>
      </trkpt>
      <trkpt lat="42.858602" lon="-0.754943">
        <ele>1662.4</ele>
        <time>2013-08-16T06:30:07Z</time>
      </trkpt>
      <trkpt lat="42.858637" lon="-0.754820">
        <ele>1664.8</ele>
        <time>2013-08-16T06:30:18Z</time>
      </trkpt>
      <trkpt lat="42.858660" lon="-0.754706">
        <ele>1666.9</ele>
        <time>2013-08-16T06:30:29Z</time>
      </trkpt>
      <trkpt lat="42.858660" lon="-0.754694">
        <ele>1667.0</ele>
        <time>2013-08-16T06:30:30Z</time>
      </trkpt>
      <trkpt lat="42.858654" lon="-0.754640">
        <ele>1667.4</ele>
        <time>2013-08-16T06:30:34Z</time>
      </trkpt>
      <trkpt lat="42.858642" lon="-0.754609">
        <ele>1667.3</ele>
        <time>2013-08-16T06:30:37Z</time>
      </trkpt>
      <trkpt lat="42.858630" lon="-0.754586">
        <ele>1667.0</ele>
        <time>2013-08-16T06:30:39Z</time>
      </trkpt>
      <trkpt lat="42.858611" lon="-0.754519">
        <ele>1667.1</ele>
        <time>2013-08-16T06:30:44Z</time>
      </trkpt>
      <trkpt lat="42.858581" lon="-0.754442">
        <ele>1669.3</ele>
        <time>2013-08-16T06:30:53Z</time>
      </trkpt>
      <trkpt lat="42.858582" lon="-0.754384">
        <ele>1669.6</ele>
        <time>2013-08-16T06:31:06Z</time>
      </trkpt>
      <trkpt lat="42.858556" lon="-0.754319">
        <ele>1671.3</ele>
        <time>2013-08-16T06:31:16Z</time>
      </trkpt>
      <trkpt lat="42.858532" lon="-0.754250">
        <ele>1672.8</ele>
        <time>2013-08-16T06:31:25Z</time>
      </trkpt>
      <trkpt lat="42.858559" lon="-0.754168">
        <ele>1674.4</ele>
        <time>2013-08-16T06:31:36Z</time>
      </trkpt>
      <trkpt lat="42.858574" lon="-0.754126">
        <ele>1675.1</ele>
        <time>2013-08-16T06:31:40Z</time>
      </trkpt>
      <trkpt lat="42.858588" lon="-0.754094">
        <ele>1675.8</ele>
        <time>2013-08-16T06:31:43Z</time>
      </trkpt>
      <trkpt lat="42.858623" lon="-0.754030">
        <ele>1677.0</ele>
        <time>2013-08-16T06:31:50Z</time>
      </trkpt>
      <trkpt lat="42.858642" lon="-0.753988">
        <ele>1677.7</ele>
        <time>2013-08-16T06:32:03Z</time>
      </trkpt>
      <trkpt lat="42.858645" lon="-0.753977">
        <ele>1678.0</ele>
        <time>2013-08-16T06:32:08Z</time>
      </trkpt>
      <trkpt lat="42.858663" lon="-0.753947">
        <ele>1678.5</ele>
        <time>2013-08-16T06:32:11Z</time>
      </trkpt>
      <trkpt lat="42.858679" lon="-0.753902">
        <ele>1679.4</ele>
        <time>2013-08-16T06:32:15Z</time>
      </trkpt>
      <trkpt lat="42.858707" lon="-0.753839">
        <ele>1680.2</ele>
        <time>2013-08-16T06:32:21Z</time>
      </trkpt>
      <trkpt lat="42.858741" lon="-0.753730">
        <ele>1681.8</ele>
        <time>2013-08-16T06:32:30Z</time>
      </trkpt>
      <trkpt lat="42.858754" lon="-0.753697">
        <ele>1682.5</ele>
        <time>2013-08-16T06:32:34Z</time>
      </trkpt>
      <trkpt lat="42.858763" lon="-0.753677">
        <ele>1682.7</ele>
        <time>2013-08-16T06:32:36Z</time>
      </trkpt>
      <trkpt lat="42.858775" lon="-0.753635">
        <ele>1683.0</ele>
        <time>2013-08-16T06:32:40Z</time>
      </trkpt>
      <trkpt lat="42.858803" lon="-0.753517">
        <ele>1686.2</ele>
        <time>2013-08-16T06:32:51Z</time>
      </trkpt>
      <trkpt lat="42.858823" lon="-0.753437">
        <ele>1687.5</ele>
        <time>2013-08-16T06:33:00Z</time>
      </trkpt>
      <trkpt lat="42.858873" lon="-0.753361">
        <ele>1688.8</ele>
        <time>2013-08-16T06:33:07Z</time>
      </trkpt>
      <trkpt lat="42.858883" lon="-0.753340">
        <ele>1688.9</ele>
        <time>2013-08-16T06:33:09Z</time>
      </trkpt>
      <trkpt lat="42.858892" lon="-0.753300">
        <ele>1689.2</ele>
        <time>2013-08-16T06:33:12Z</time>
      </trkpt>
      <trkpt lat="42.858923" lon="-0.753239">
        <ele>1689.4</ele>
        <time>2013-08-16T06:33:17Z</time>
      </trkpt>
      <trkpt lat="42.858964" lon="-0.753202">
        <ele>1690.0</ele>
        <time>2013-08-16T06:33:23Z</time>
      </trkpt>
      <trkpt lat="42.858979" lon="-0.753153">
        <ele>1690.5</ele>
        <time>2013-08-16T06:33:27Z</time>
      </trkpt>
      <trkpt lat="42.859034" lon="-0.752979">
        <ele>1692.5</ele>
        <time>2013-08-16T06:33:38Z</time>
      </trkpt>
      <trkpt lat="42.859041" lon="-0.752951">
        <ele>1693.0</ele>
        <time>2013-08-16T06:33:40Z</time>
      </trkpt>
      <trkpt lat="42.859067" lon="-0.752862">
        <ele>1693.9</ele>
        <time>2013-08-16T06:33:47Z</time>
      </trkpt>
      <trkpt lat="42.859084" lon="-0.752795">
        <ele>1694.5</ele>
        <time>2013-08-16T06:33:52Z</time>
      </trkpt>
      <trkpt lat="42.859115" lon="-0.752718">
        <ele>1694.9</ele>
        <time>2013-08-16T06:34:03Z</time>
      </trkpt>
      <trkpt lat="42.859121" lon="-0.752631">
        <ele>1696.0</ele>
        <time>2013-08-16T06:34:09Z</time>
      </trkpt>
      <trkpt lat="42.859170" lon="-0.752525">
        <ele>1697.2</ele>
        <time>2013-08-16T06:34:18Z</time>
      </trkpt>
      <trkpt lat="42.859188" lon="-0.752460">
        <ele>1697.7</ele>
        <time>2013-08-16T06:34:32Z</time>
      </trkpt>
      <trkpt lat="42.859190" lon="-0.752460">
        <ele>1697.7</ele>
        <time>2013-08-16T06:35:04Z</time>
      </trkpt>
      <trkpt lat="42.859187" lon="-0.752457">
        <ele>1697.6</ele>
        <time>2013-08-16T06:35:29Z</time>
      </trkpt>
      <trkpt lat="42.859189" lon="-0.752454">
        <ele>1697.7</ele>
        <time>2013-08-16T06:35:55Z</time>
      </trkpt>
      <trkpt lat="42.859189" lon="-0.752454">
        <ele>1697.7</ele>
        <time>2013-08-16T06:36:16Z</time>
      </trkpt>
      <trkpt lat="42.859192" lon="-0.752425">
        <ele>1698.3</ele>
        <time>2013-08-16T06:36:49Z</time>
      </trkpt>
      <trkpt lat="42.859179" lon="-0.752322">
        <ele>1699.1</ele>
        <time>2013-08-16T06:37:00Z</time>
      </trkpt>
      <trkpt lat="42.859183" lon="-0.752209">
        <ele>1700.4</ele>
        <time>2013-08-16T06:37:10Z</time>
      </trkpt>
      <trkpt lat="42.859185" lon="-0.752188">
        <ele>1700.7</ele>
        <time>2013-08-16T06:37:12Z</time>
      </trkpt>
      <trkpt lat="42.859182" lon="-0.752148">
        <ele>1701.3</ele>
        <time>2013-08-16T06:37:15Z</time>
      </trkpt>
      <trkpt lat="42.859193" lon="-0.752059">
        <ele>1701.6</ele>
        <time>2013-08-16T06:37:24Z</time>
      </trkpt>
      <trkpt lat="42.859200" lon="-0.752033">
        <ele>1701.9</ele>
        <time>2013-08-16T06:37:26Z</time>
      </trkpt>
      <trkpt lat="42.859201" lon="-0.751993">
        <ele>1703.0</ele>
        <time>2013-08-16T06:37:29Z</time>
      </trkpt>
      <trkpt lat="42.859213" lon="-0.751871">
        <ele>1705.3</ele>
        <time>2013-08-16T06:37:39Z</time>
      </trkpt>
      <trkpt lat="42.859197" lon="-0.751780">
        <ele>1707.7</ele>
        <time>2013-08-16T06:37:48Z</time>
      </trkpt>
      <trkpt lat="42.859193" lon="-0.751733">
        <ele>1708.6</ele>
        <time>2013-08-16T06:37:52Z</time>
      </trkpt>
      <trkpt lat="42.859200" lon="-0.751613">
        <ele>1710.4</ele>
        <time>2013-08-16T06:38:03Z</time>
      </trkpt>
      <trkpt lat="42.859209" lon="-0.751517">
        <ele>1712.6</ele>
        <time>2013-08-16T06:38:13Z</time>
      </trkpt>
      <trkpt lat="42.859214" lon="-0.751440">
        <ele>1714.8</ele>
        <time>2013-08-16T06:38:21Z</time>
      </trkpt>
      <trkpt lat="42.859221" lon="-0.751340">
        <ele>1716.5</ele>
        <time>2013-08-16T06:38:32Z</time>
      </trkpt>
      <trkpt lat="42.859234" lon="-0.751221">
        <ele>1718.5</ele>
        <time>2013-08-16T06:38:43Z</time>
      </trkpt>
      <trkpt lat="42.859237" lon="-0.751207">
        <ele>1718.8</ele>
        <time>2013-08-16T06:38:44Z</time>
      </trkpt>
      <trkpt lat="42.859248" lon="-0.751153">
        <ele>1719.5</ele>
        <time>2013-08-16T06:38:48Z</time>
      </trkpt>
      <trkpt lat="42.859250" lon="-0.751093">
        <ele>1719.7</ele>
        <time>2013-08-16T06:38:52Z</time>
      </trkpt>
      <trkpt lat="42.859258" lon="-0.751000">
        <ele>1720.0</ele>
        <time>2013-08-16T06:38:59Z</time>
      </trkpt>
      <trkpt lat="42.859262" lon="-0.750951">
        <ele>1720.6</ele>
        <time>2013-08-16T06:39:03Z</time>
      </trkpt>
      <trkpt lat="42.859273" lon="-0.750895">
        <ele>1721.1</ele>
        <time>2013-08-16T06:39:07Z</time>
      </trkpt>
      <trkpt lat="42.859275" lon="-0.750864">
        <ele>1721.0</ele>
        <time>2013-08-16T06:39:09Z</time>
      </trkpt>
      <trkpt lat="42.859287" lon="-0.750809">
        <ele>1721.5</ele>
        <time>2013-08-16T06:39:13Z</time>
      </trkpt>
      <trkpt lat="42.859288" lon="-0.750768">
        <ele>1722.5</ele>
        <time>2013-08-16T06:39:17Z</time>
      </trkpt>
      <trkpt lat="42.859307" lon="-0.750710">
        <ele>1724.5</ele>
        <time>2013-08-16T06:39:23Z</time>
      </trkpt>
      <trkpt lat="42.859302" lon="-0.750676">
        <ele>1725.0</ele>
        <time>2013-08-16T06:39:26Z</time>
      </trkpt>
      <trkpt lat="42.859300" lon="-0.750603">
        <ele>1725.0</ele>
        <time>2013-08-16T06:39:31Z</time>
      </trkpt>
      <trkpt lat="42.859270" lon="-0.750434">
        <ele>1727.6</ele>
        <time>2013-08-16T06:39:44Z</time>
      </trkpt>
      <trkpt lat="42.859268" lon="-0.750379">
        <ele>1728.5</ele>
        <time>2013-08-16T06:39:48Z</time>
      </trkpt>
      <trkpt lat="42.859260" lon="-0.750325">
        <ele>1729.0</ele>
        <time>2013-08-16T06:39:52Z</time>
      </trkpt>
      <trkpt lat="42.859252" lon="-0.750250">
        <ele>1729.9</ele>
        <time>2013-08-16T06:39:57Z</time>
      </trkpt>
      <trkpt lat="42.859227" lon="-0.750198">
        <ele>1731.0</ele>
        <time>2013-08-16T06:40:01Z</time>
      </trkpt>
      <trkpt lat="42.859207" lon="-0.750167">
        <ele>1731.9</ele>
        <time>2013-08-16T06:40:05Z</time>
      </trkpt>
      <trkpt lat="42.859197" lon="-0.750140">
        <ele>1732.2</ele>
        <time>2013-08-16T06:40:09Z</time>
      </trkpt>
      <trkpt lat="42.859151" lon="-0.750093">
        <ele>1734.2</ele>
        <time>2013-08-16T06:40:20Z</time>
      </trkpt>
      <trkpt lat="42.859143" lon="-0.750065">
        <ele>1734.7</ele>
        <time>2013-08-16T06:40:23Z</time>
      </trkpt>
      <trkpt lat="42.859116" lon="-0.749987">
        <ele>1736.7</ele>
        <time>2013-08-16T06:40:31Z</time>
      </trkpt>
      <trkpt lat="42.859091" lon="-0.749933">
        <ele>1737.5</ele>
        <time>2013-08-16T06:40:42Z</time>
      </trkpt>
      <trkpt lat="42.859056" lon="-0.749847">
        <ele>1738.2</ele>
        <time>2013-08-16T06:40:51Z</time>
      </trkpt>
      <trkpt lat="42.859030" lon="-0.749759">
        <ele>1739.5</ele>
        <time>2013-08-16T06:41:00Z</time>
      </trkpt>
      <trkpt lat="42.859014" lon="-0.749620">
        <ele>1742.4</ele>
        <time>2013-08-16T06:41:11Z</time>
      </trkpt>
      <trkpt lat="42.859010" lon="-0.749586">
        <ele>1743.0</ele>
        <time>2013-08-16T06:41:14Z</time>
      </trkpt>
      <trkpt lat="42.858990" lon="-0.749551">
        <ele>1743.5</ele>
        <time>2013-08-16T06:41:17Z</time>
      </trkpt>
      <trkpt lat="42.858962" lon="-0.749471">
        <ele>1745.0</ele>
        <time>2013-08-16T06:41:26Z</time>
      </trkpt>
      <trkpt lat="42.858940" lon="-0.749412">
        <ele>1746.0</ele>
        <time>2013-08-16T06:41:34Z</time>
      </trkpt>
      <trkpt lat="42.858935" lon="-0.749393">
        <ele>1746.5</ele>
        <time>2013-08-16T06:41:37Z</time>
      </trkpt>
      <trkpt lat="42.858918" lon="-0.749301">
        <ele>1748.7</ele>
        <time>2013-08-16T06:41:47Z</time>
      </trkpt>
      <trkpt lat="42.858917" lon="-0.749287">
        <ele>1748.9</ele>
        <time>2013-08-16T06:41:49Z</time>
      </trkpt>
      <trkpt lat="42.858904" lon="-0.749218">
        <ele>1751.5</ele>
        <time>2013-08-16T06:41:59Z</time>
      </trkpt>
      <trkpt lat="42.858910" lon="-0.749188">
        <ele>1751.7</ele>
        <time>2013-08-16T06:42:02Z</time>
      </trkpt>
      <trkpt lat="42.858898" lon="-0.749146">
        <ele>1753.2</ele>
        <time>2013-08-16T06:42:07Z</time>
      </trkpt>
      <trkpt lat="42.858879" lon="-0.749070">
        <ele>1755.7</ele>
        <time>2013-08-16T06:42:18Z</time>
      </trkpt>
      <trkpt lat="42.858835" lon="-0.749006">
        <ele>1758.0</ele>
        <time>2013-08-16T06:42:27Z</time>
      </trkpt>
      <trkpt lat="42.858819" lon="-0.748949">
        <ele>1758.5</ele>
        <time>2013-08-16T06:42:34Z</time>
      </trkpt>
      <trkpt lat="42.858821" lon="-0.748846">
        <ele>1761.5</ele>
        <time>2013-08-16T06:42:45Z</time>
      </trkpt>
      <trkpt lat="42.858817" lon="-0.748784">
        <ele>1763.2</ele>
        <time>2013-08-16T06:42:51Z</time>
      </trkpt>
      <trkpt lat="42.858819" lon="-0.748752">
        <ele>1763.7</ele>
        <time>2013-08-16T06:42:54Z</time>
      </trkpt>
      <trkpt lat="42.858819" lon="-0.748651">
        <ele>1765.3</ele>
        <time>2013-08-16T06:43:04Z</time>
      </trkpt>
      <trkpt lat="42.858796" lon="-0.748655">
        <ele>1766.0</ele>
        <time>2013-08-16T06:43:07Z</time>
      </trkpt>
      <trkpt lat="42.858764" lon="-0.748649">
        <ele>1767.1</ele>
        <time>2013-08-16T06:43:12Z</time>
      </trkpt>
      <trkpt lat="42.858750" lon="-0.748631">
        <ele>1767.4</ele>
        <time>2013-08-16T06:43:14Z</time>
      </trkpt>
      <trkpt lat="42.858731" lon="-0.748564">
        <ele>1768.0</ele>
        <time>2013-08-16T06:43:19Z</time>
      </trkpt>
      <trkpt lat="42.858672" lon="-0.748430">
        <ele>1770.1</ele>
        <time>2013-08-16T06:43:31Z</time>
      </trkpt>
      <trkpt lat="42.858681" lon="-0.748310">
        <ele>1772.3</ele>
        <time>2013-08-16T06:43:42Z</time>
      </trkpt>
      <trkpt lat="42.858681" lon="-0.748279">
        <ele>1773.2</ele>
        <time>2013-08-16T06:43:45Z</time>
      </trkpt>
      <trkpt lat="42.858689" lon="-0.748139">
        <ele>1775.0</ele>
        <time>2013-08-16T06:43:55Z</time>
      </trkpt>
      <trkpt lat="42.858702" lon="-0.748103">
        <ele>1775.0</ele>
        <time>2013-08-16T06:43:58Z</time>
      </trkpt>
      <trkpt lat="42.858654" lon="-0.747927">
        <ele>1776.3</ele>
        <time>2013-08-16T06:44:10Z</time>
      </trkpt>
      <trkpt lat="42.858652" lon="-0.747896">
        <ele>1776.4</ele>
        <time>2013-08-16T06:44:12Z</time>
      </trkpt>
      <trkpt lat="42.858656" lon="-0.747733">
        <ele>1778.1</ele>
        <time>2013-08-16T06:44:23Z</time>
      </trkpt>
      <trkpt lat="42.858654" lon="-0.747659">
        <ele>1778.7</ele>
        <time>2013-08-16T06:44:29Z</time>
      </trkpt>
      <trkpt lat="42.858652" lon="-0.747645">
        <ele>1778.8</ele>
        <time>2013-08-16T06:44:45Z</time>
      </trkpt>
      <trkpt lat="42.858652" lon="-0.747645">
        <ele>1778.8</ele>
        <time>2013-08-16T06:44:58Z</time>
      </trkpt>
      <trkpt lat="42.858674" lon="-0.747613">
        <ele>1779.5</ele>
        <time>2013-08-16T06:45:16Z</time>
      </trkpt>
      <trkpt lat="42.858722" lon="-0.747599">
        <ele>1781.2</ele>
        <time>2013-08-16T06:45:20Z</time>
      </trkpt>
      <trkpt lat="42.858730" lon="-0.747560">
        <ele>1781.7</ele>
        <time>2013-08-16T06:45:25Z</time>
      </trkpt>
      <trkpt lat="42.858728" lon="-0.747535">
        <ele>1781.9</ele>
        <time>2013-08-16T06:45:27Z</time>
      </trkpt>
      <trkpt lat="42.858729" lon="-0.747495">
        <ele>1782.0</ele>
        <time>2013-08-16T06:45:31Z</time>
      </trkpt>
      <trkpt lat="42.858744" lon="-0.747450">
        <ele>1782.1</ele>
        <time>2013-08-16T06:45:35Z</time>
      </trkpt>
      <trkpt lat="42.858734" lon="-0.747417">
        <ele>1782.5</ele>
        <time>2013-08-16T06:45:38Z</time>
      </trkpt>
      <trkpt lat="42.858740" lon="-0.747356">
        <ele>1783.0</ele>
        <time>2013-08-16T06:45:42Z</time>
      </trkpt>
      <trkpt lat="42.858740" lon="-0.747285">
        <ele>1783.7</ele>
        <time>2013-08-16T06:45:46Z</time>
      </trkpt>
      <trkpt lat="42.858700" lon="-0.747137">
        <ele>1783.0</ele>
        <time>2013-08-16T06:45:57Z</time>
      </trkpt>
      <trkpt lat="42.858693" lon="-0.747081">
        <ele>1782.0</ele>
        <time>2013-08-16T06:46:02Z</time>
      </trkpt>
      <trkpt lat="42.858689" lon="-0.747060">
        <ele>1781.8</ele>
        <time>2013-08-16T06:46:03Z</time>
      </trkpt>
      <trkpt lat="42.858686" lon="-0.747022">
        <ele>1781.6</ele>
        <time>2013-08-16T06:46:05Z</time>
      </trkpt>
      <trkpt lat="42.858684" lon="-0.746940">
        <ele>1781.3</ele>
        <time>2013-08-16T06:46:11Z</time>
      </trkpt>
      <trkpt lat="42.858683" lon="-0.746888">
        <ele>1781.9</ele>
        <time>2013-08-16T06:46:15Z</time>
      </trkpt>
      <trkpt lat="42.858690" lon="-0.746867">
        <ele>1782.0</ele>
        <time>2013-08-16T06:46:17Z</time>
      </trkpt>
      <trkpt lat="42.858678" lon="-0.746714">
        <ele>1781.9</ele>
        <time>2013-08-16T06:46:28Z</time>
      </trkpt>
      <trkpt lat="42.858670" lon="-0.746698">
        <ele>1781.8</ele>
        <time>2013-08-16T06:46:29Z</time>
      </trkpt>
      <trkpt lat="42.858626" lon="-0.746669">
        <ele>1782.1</ele>
        <time>2013-08-16T06:46:35Z</time>
      </trkpt>
      <trkpt lat="42.858607" lon="-0.746640">
        <ele>1783.1</ele>
        <time>2013-08-16T06:46:39Z</time>
      </trkpt>
      <trkpt lat="42.858587" lon="-0.746610">
        <ele>1783.9</ele>
        <time>2013-08-16T06:46:42Z</time>
      </trkpt>
      <trkpt lat="42.858551" lon="-0.746522">
        <ele>1785.3</ele>
        <time>2013-08-16T06:46:50Z</time>
      </trkpt>
      <trkpt lat="42.858509" lon="-0.746425">
        <ele>1787.0</ele>
        <time>2013-08-16T06:46:59Z</time>
      </trkpt>
      <trkpt lat="42.858490" lon="-0.746391">
        <ele>1787.5</ele>
        <time>2013-08-16T06:47:02Z</time>
      </trkpt>
      <trkpt lat="42.858455" lon="-0.746317">
        <ele>1788.0</ele>
        <time>2013-08-16T06:47:08Z</time>
      </trkpt>
      <trkpt lat="42.858428" lon="-0.746175">
        <ele>1790.6</ele>
        <time>2013-08-16T06:47:18Z</time>
      </trkpt>
      <trkpt lat="42.858415" lon="-0.746138">
        <ele>1790.9</ele>
        <time>2013-08-16T06:47:21Z</time>
      </trkpt>
      <trkpt lat="42.858397" lon="-0.746054">
        <ele>1792.1</ele>
        <time>2013-08-16T06:47:29Z</time>
      </trkpt>
      <trkpt lat="42.858416" lon="-0.745977">
        <ele>1793.3</ele>
        <time>2013-08-16T06:47:36Z</time>
      </trkpt>
      <trkpt lat="42.858412" lon="-0.745942">
        <ele>1793.9</ele>
        <time>2013-08-16T06:47:39Z</time>
      </trkpt>
      <trkpt lat="42.858401" lon="-0.745891">
        <ele>1794.7</ele>
        <time>2013-08-16T06:47:43Z</time>
      </trkpt>
      <trkpt lat="42.858392" lon="-0.745848">
        <ele>1795.4</ele>
        <time>2013-08-16T06:47:47Z</time>
      </trkpt>
      <trkpt lat="42.858393" lon="-0.745806">
        <ele>1795.9</ele>
        <time>2013-08-16T06:47:50Z</time>
      </trkpt>
      <trkpt lat="42.858378" lon="-0.745631">
        <ele>1796.0</ele>
        <time>2013-08-16T06:48:01Z</time>
      </trkpt>
      <trkpt lat="42.858416" lon="-0.745540">
        <ele>1796.9</ele>
        <time>2013-08-16T06:48:09Z</time>
      </trkpt>
      <trkpt lat="42.858417" lon="-0.745456">
        <ele>1797.7</ele>
        <time>2013-08-16T06:48:15Z</time>
      </trkpt>
      <trkpt lat="42.858427" lon="-0.745357">
        <ele>1797.0</ele>
        <time>2013-08-16T06:48:22Z</time>
      </trkpt>
      <trkpt lat="42.858427" lon="-0.745276">
        <ele>1797.7</ele>
        <time>2013-08-16T06:48:27Z</time>
      </trkpt>
      <trkpt lat="42.858449" lon="-0.745248">
        <ele>1798.7</ele>
        <time>2013-08-16T06:48:30Z</time>
      </trkpt>
      <trkpt lat="42.858496" lon="-0.745208">
        <ele>1799.9</ele>
        <time>2013-08-16T06:48:35Z</time>
      </trkpt>
      <trkpt lat="42.858510" lon="-0.745189">
        <ele>1800.0</ele>
        <time>2013-08-16T06:48:37Z</time>
      </trkpt>
      <trkpt lat="42.858498" lon="-0.745139">
        <ele>1800.4</ele>
        <time>2013-08-16T06:48:42Z</time>
      </trkpt>
      <trkpt lat="42.858493" lon="-0.745089">
        <ele>1800.9</ele>
        <time>2013-08-16T06:48:46Z</time>
      </trkpt>
      <trkpt lat="42.858501" lon="-0.745055">
        <ele>1801.5</ele>
        <time>2013-08-16T06:48:49Z</time>
      </trkpt>
      <trkpt lat="42.858509" lon="-0.745028">
        <ele>1801.9</ele>
        <time>2013-08-16T06:48:51Z</time>
      </trkpt>
      <trkpt lat="42.858529" lon="-0.744833">
        <ele>1803.3</ele>
        <time>2013-08-16T06:49:03Z</time>
      </trkpt>
      <trkpt lat="42.858550" lon="-0.744698">
        <ele>1804.4</ele>
        <time>2013-08-16T06:49:13Z</time>
      </trkpt>
      <trkpt lat="42.858565" lon="-0.744652">
        <ele>1805.6</ele>
        <time>2013-08-16T06:49:16Z</time>
      </trkpt>
      <trkpt lat="42.858579" lon="-0.744595">
        <ele>1806.2</ele>
        <time>2013-08-16T06:49:19Z</time>
      </trkpt>
      <trkpt lat="42.858579" lon="-0.744564">
        <ele>1806.7</ele>
        <time>2013-08-16T06:49:21Z</time>
      </trkpt>
      <trkpt lat="42.858638" lon="-0.744423">
        <ele>1808.6</ele>
        <time>2013-08-16T06:49:33Z</time>
      </trkpt>
      <trkpt lat="42.858647" lon="-0.744388">
        <ele>1809.1</ele>
        <time>2013-08-16T06:49:36Z</time>
      </trkpt>
      <trkpt lat="42.858671" lon="-0.744319">
        <ele>1810.5</ele>
        <time>2013-08-16T06:49:42Z</time>
      </trkpt>
      <trkpt lat="42.858694" lon="-0.744292">
        <ele>1811.5</ele>
        <time>2013-08-16T06:49:45Z</time>
      </trkpt>
      <trkpt lat="42.858726" lon="-0.744269">
        <ele>1812.0</ele>
        <time>2013-08-16T06:49:48Z</time>
      </trkpt>
      <trkpt lat="42.858753" lon="-0.744224">
        <ele>1813.5</ele>
        <time>2013-08-16T06:49:52Z</time>
      </trkpt>
      <trkpt lat="42.858775" lon="-0.744213">
        <ele>1814.1</ele>
        <time>2013-08-16T06:49:55Z</time>
      </trkpt>
      <trkpt lat="42.858782" lon="-0.744208">
        <ele>1814.3</ele>
        <time>2013-08-16T06:49:57Z</time>
      </trkpt>
      <trkpt lat="42.858806" lon="-0.744150">
        <ele>1815.0</ele>
        <time>2013-08-16T06:50:03Z</time>
      </trkpt>
      <trkpt lat="42.858809" lon="-0.744096">
        <ele>1815.2</ele>
        <time>2013-08-16T06:50:10Z</time>
      </trkpt>
      <trkpt lat="42.858815" lon="-0.744059">
        <ele>1815.9</ele>
        <time>2013-08-16T06:50:13Z</time>
      </trkpt>
      <trkpt lat="42.858829" lon="-0.743995">
        <ele>1817.7</ele>
        <time>2013-08-16T06:50:19Z</time>
      </trkpt>
      <trkpt lat="42.858839" lon="-0.743966">
        <ele>1818.0</ele>
        <time>2013-08-16T06:50:22Z</time>
      </trkpt>
      <trkpt lat="42.858851" lon="-0.743932">
        <ele>1818.0</ele>
        <time>2013-08-16T06:50:25Z</time>
      </trkpt>
      <trkpt lat="42.858860" lon="-0.743882">
        <ele>1818.0</ele>
        <time>2013-08-16T06:50:29Z</time>
      </trkpt>
      <trkpt lat="42.858864" lon="-0.743856">
        <ele>1818.0</ele>
        <time>2013-08-16T06:50:31Z</time>
      </trkpt>
      <trkpt lat="42.858871" lon="-0.743798">
        <ele>1817.9</ele>
        <time>2013-08-16T06:50:36Z</time>
      </trkpt>
      <trkpt lat="42.858890" lon="-0.743722">
        <ele>1818.9</ele>
        <time>2013-08-16T06:50:56Z</time>
      </trkpt>
      <trkpt lat="42.858896" lon="-0.743712">
        <ele>1819.0</ele>
        <time>2013-08-16T06:50:57Z</time>
      </trkpt>
      <trkpt lat="42.858925" lon="-0.743594">
        <ele>1820.7</ele>
        <time>2013-08-16T06:51:08Z</time>
      </trkpt>
      <trkpt lat="42.858941" lon="-0.743552">
        <ele>1821.8</ele>
        <time>2013-08-16T06:51:12Z</time>
      </trkpt>
      <trkpt lat="42.858960" lon="-0.743441">
        <ele>1824.4</ele>
        <time>2013-08-16T06:51:23Z</time>
      </trkpt>
      <trkpt lat="42.858955" lon="-0.743391">
        <ele>1825.7</ele>
        <time>2013-08-16T06:51:30Z</time>
      </trkpt>
      <trkpt lat="42.858974" lon="-0.743287">
        <ele>1828.8</ele>
        <time>2013-08-16T06:51:43Z</time>
      </trkpt>
      <trkpt lat="42.858959" lon="-0.743217">
        <ele>1830.8</ele>
        <time>2013-08-16T06:51:54Z</time>
      </trkpt>
      <trkpt lat="42.858955" lon="-0.743168">
        <ele>1832.4</ele>
        <time>2013-08-16T06:52:04Z</time>
      </trkpt>
      <trkpt lat="42.858961" lon="-0.743093">
        <ele>1834.9</ele>
        <time>2013-08-16T06:52:14Z</time>
      </trkpt>
      <trkpt lat="42.858971" lon="-0.743033">
        <ele>1836.3</ele>
        <time>2013-08-16T06:52:24Z</time>
      </trkpt>
      <trkpt lat="42.858994" lon="-0.742989">
        <ele>1839.5</ele>
        <time>2013-08-16T06:52:33Z</time>
      </trkpt>
      <trkpt lat="42.858995" lon="-0.742924">
        <ele>1841.3</ele>
        <time>2013-08-16T06:52:44Z</time>
      </trkpt>
      <trkpt lat="42.859004" lon="-0.742829">
        <ele>1844.4</ele>
        <time>2013-08-16T06:52:55Z</time>
      </trkpt>
      <trkpt lat="42.859000" lon="-0.742772">
        <ele>1845.7</ele>
        <time>2013-08-16T06:53:06Z</time>
      </trkpt>
      <trkpt lat="42.859014" lon="-0.742726">
        <ele>1847.2</ele>
        <time>2013-08-16T06:53:13Z</time>
      </trkpt>
      <trkpt lat="42.859039" lon="-0.742677">
        <ele>1849.4</ele>
        <time>2013-08-16T06:53:24Z</time>
      </trkpt>
      <trkpt lat="42.859041" lon="-0.742600">
        <ele>1852.1</ele>
        <time>2013-08-16T06:53:35Z</time>
      </trkpt>
      <trkpt lat="42.859048" lon="-0.742601">
        <ele>1852.2</ele>
        <time>2013-08-16T06:53:53Z</time>
      </trkpt>
      <trkpt lat="42.859041" lon="-0.742566">
        <ele>1853.8</ele>
        <time>2013-08-16T06:54:05Z</time>
      </trkpt>
      <trkpt lat="42.859045" lon="-0.742478">
        <ele>1856.2</ele>
        <time>2013-08-16T06:54:15Z</time>
      </trkpt>
      <trkpt lat="42.859056" lon="-0.742412">
        <ele>1859.3</ele>
        <time>2013-08-16T06:54:26Z</time>
      </trkpt>
      <trkpt lat="42.859064" lon="-0.742394">
        <ele>1859.6</ele>
        <time>2013-08-16T06:54:28Z</time>
      </trkpt>
      <trkpt lat="42.859069" lon="-0.742389">
        <ele>1859.7</ele>
        <time>2013-08-16T06:54:32Z</time>
      </trkpt>
      <trkpt lat="42.859126" lon="-0.742325">
        <ele>1861.6</ele>
        <time>2013-08-16T06:54:43Z</time>
      </trkpt>
      <trkpt lat="42.859150" lon="-0.742306">
        <ele>1862.2</ele>
        <time>2013-08-16T06:54:46Z</time>
      </trkpt>
      <trkpt lat="42.859170" lon="-0.742292">
        <ele>1862.8</ele>
        <time>2013-08-16T06:54:49Z</time>
      </trkpt>
      <trkpt lat="42.859193" lon="-0.742286">
        <ele>1863.2</ele>
        <time>2013-08-16T06:54:52Z</time>
      </trkpt>
      <trkpt lat="42.859213" lon="-0.742232">
        <ele>1864.1</ele>
        <time>2013-08-16T06:54:59Z</time>
      </trkpt>
      <trkpt lat="42.859223" lon="-0.742214">
        <ele>1864.7</ele>
        <time>2013-08-16T06:55:02Z</time>
      </trkpt>
      <trkpt lat="42.859221" lon="-0.742119">
        <ele>1867.0</ele>
        <time>2013-08-16T06:55:13Z</time>
      </trkpt>
      <trkpt lat="42.859207" lon="-0.742075">
        <ele>1868.5</ele>
        <time>2013-08-16T06:55:17Z</time>
      </trkpt>
      <trkpt lat="42.859205" lon="-0.742045">
        <ele>1869.0</ele>
        <time>2013-08-16T06:55:20Z</time>
      </trkpt>
      <trkpt lat="42.859188" lon="-0.741973">
        <ele>1868.5</ele>
        <time>2013-08-16T06:55:25Z</time>
      </trkpt>
      <trkpt lat="42.859178" lon="-0.741934">
        <ele>1868.9</ele>
        <time>2013-08-16T06:55:28Z</time>
      </trkpt>
      <trkpt lat="42.859174" lon="-0.741793">
        <ele>1872.2</ele>
        <time>2013-08-16T06:55:39Z</time>
      </trkpt>
      <trkpt lat="42.859192" lon="-0.741678">
        <ele>1874.2</ele>
        <time>2013-08-16T06:55:52Z</time>
      </trkpt>
      <trkpt lat="42.859183" lon="-0.741604">
        <ele>1876.4</ele>
        <time>2013-08-16T06:56:03Z</time>
      </trkpt>
      <trkpt lat="42.859191" lon="-0.741527">
        <ele>1878.4</ele>
        <time>2013-08-16T06:56:13Z</time>
      </trkpt>
      <trkpt lat="42.859217" lon="-0.741421">
        <ele>1881.4</ele>
        <time>2013-08-16T06:56:25Z</time>
      </trkpt>
      <trkpt lat="42.859241" lon="-0.741351">
        <ele>1883.1</ele>
        <time>2013-08-16T06:56:35Z</time>
      </trkpt>
      <trkpt lat="42.859240" lon="-0.741264">
        <ele>1885.2</ele>
        <time>2013-08-16T06:56:45Z</time>
      </trkpt>
      <trkpt lat="42.859251" lon="-0.741164">
        <ele>1886.5</ele>
        <time>2013-08-16T06:56:54Z</time>
      </trkpt>
      <trkpt lat="42.859244" lon="-0.741065">
        <ele>1887.8</ele>
        <time>2013-08-16T06:57:04Z</time>
      </trkpt>
      <trkpt lat="42.859250" lon="-0.740980">
        <ele>1889.7</ele>
        <time>2013-08-16T06:57:16Z</time>
      </trkpt>
      <trkpt lat="42.859251" lon="-0.740970">
        <ele>1889.9</ele>
        <time>2013-08-16T06:57:17Z</time>
      </trkpt>
      <trkpt lat="42.859244" lon="-0.740847">
        <ele>1891.6</ele>
        <time>2013-08-16T06:57:29Z</time>
      </trkpt>
      <trkpt lat="42.859253" lon="-0.740756">
        <ele>1893.7</ele>
        <time>2013-08-16T06:57:40Z</time>
      </trkpt>
      <trkpt lat="42.859284" lon="-0.740742">
        <ele>1896.1</ele>
        <time>2013-08-16T06:57:50Z</time>
      </trkpt>
      <trkpt lat="42.859318" lon="-0.740734">
        <ele>1898.2</ele>
        <time>2013-08-16T06:58:00Z</time>
      </trkpt>
      <trkpt lat="42.859355" lon="-0.740741">
        <ele>1899.5</ele>
        <time>2013-08-16T06:58:03Z</time>
      </trkpt>
      <trkpt lat="42.859372" lon="-0.740726">
        <ele>1899.9</ele>
        <time>2013-08-16T06:58:05Z</time>
      </trkpt>
      <trkpt lat="42.859370" lon="-0.740614">
        <ele>1902.3</ele>
        <time>2013-08-16T06:58:17Z</time>
      </trkpt>
      <trkpt lat="42.859379" lon="-0.740587">
        <ele>1902.9</ele>
        <time>2013-08-16T06:58:20Z</time>
      </trkpt>
      <trkpt lat="42.859446" lon="-0.740544">
        <ele>1904.9</ele>
        <time>2013-08-16T06:58:31Z</time>
      </trkpt>
      <trkpt lat="42.859464" lon="-0.740449">
        <ele>1906.1</ele>
        <time>2013-08-16T06:58:42Z</time>
      </trkpt>
      <trkpt lat="42.859481" lon="-0.740373">
        <ele>1907.1</ele>
        <time>2013-08-16T06:58:48Z</time>
      </trkpt>
      <trkpt lat="42.859507" lon="-0.740347">
        <ele>1908.1</ele>
        <time>2013-08-16T06:58:56Z</time>
      </trkpt>
      <trkpt lat="42.859559" lon="-0.740323">
        <ele>1910.2</ele>
        <time>2013-08-16T06:59:03Z</time>
      </trkpt>
      <trkpt lat="42.859584" lon="-0.740292">
        <ele>1910.8</ele>
        <time>2013-08-16T06:59:06Z</time>
      </trkpt>
      <trkpt lat="42.859602" lon="-0.740257">
        <ele>1911.5</ele>
        <time>2013-08-16T06:59:10Z</time>
      </trkpt>
      <trkpt lat="42.859634" lon="-0.740190">
        <ele>1913.1</ele>
        <time>2013-08-16T06:59:16Z</time>
      </trkpt>
      <trkpt lat="42.859670" lon="-0.740158">
        <ele>1913.4</ele>
        <time>2013-08-16T06:59:21Z</time>
      </trkpt>
      <trkpt lat="42.859735" lon="-0.739969">
        <ele>1914.3</ele>
        <time>2013-08-16T06:59:34Z</time>
      </trkpt>
      <trkpt lat="42.859784" lon="-0.739840">
        <ele>1915.5</ele>
        <time>2013-08-16T06:59:43Z</time>
      </trkpt>
      <trkpt lat="42.859850" lon="-0.739740">
        <ele>1916.9</ele>
        <time>2013-08-16T06:59:52Z</time>
      </trkpt>
      <trkpt lat="42.859929" lon="-0.739599">
        <ele>1918.0</ele>
        <time>2013-08-16T07:00:04Z</time>
      </trkpt>
      <trkpt lat="42.859947" lon="-0.739477">
        <ele>1918.2</ele>
        <time>2013-08-16T07:00:12Z</time>
      </trkpt>
      <trkpt lat="42.860005" lon="-0.739357">
        <ele>1918.0</ele>
        <time>2013-08-16T07:00:21Z</time>
      </trkpt>
      <trkpt lat="42.860060" lon="-0.739253">
        <ele>1919.2</ele>
        <time>2013-08-16T07:00:28Z</time>
      </trkpt>
      <trkpt lat="42.860092" lon="-0.739132">
        <ele>1921.3</ele>
        <time>2013-08-16T07:00:39Z</time>
      </trkpt>
      <trkpt lat="42.860143" lon="-0.739042">
        <ele>1924.4</ele>
        <time>2013-08-16T07:00:51Z</time>
      </trkpt>
      <trkpt lat="42.860160" lon="-0.739026">
        <ele>1925.0</ele>
        <time>2013-08-16T07:00:54Z</time>
      </trkpt>
      <trkpt lat="42.860185" lon="-0.738988">
        <ele>1926.3</ele>
        <time>2013-08-16T07:00:58Z</time>
      </trkpt>
      <trkpt lat="42.860203" lon="-0.738934">
        <ele>1927.0</ele>
        <time>2013-08-16T07:01:03Z</time>
      </trkpt>
      <trkpt lat="42.860230" lon="-0.738664">
        <ele>1927.0</ele>
        <time>2013-08-16T07:01:17Z</time>
      </trkpt>
      <trkpt lat="42.860238" lon="-0.738476">
        <ele>1928.2</ele>
        <time>2013-08-16T07:01:29Z</time>
      </trkpt>
      <trkpt lat="42.860257" lon="-0.738418">
        <ele>1929.8</ele>
        <time>2013-08-16T07:01:34Z</time>
      </trkpt>
      <trkpt lat="42.860300" lon="-0.738269">
        <ele>1932.8</ele>
        <time>2013-08-16T07:01:46Z</time>
      </trkpt>
      <trkpt lat="42.860307" lon="-0.738225">
        <ele>1933.5</ele>
        <time>2013-08-16T07:01:50Z</time>
      </trkpt>
      <trkpt lat="42.860313" lon="-0.738165">
        <ele>1934.7</ele>
        <time>2013-08-16T07:01:55Z</time>
      </trkpt>
      <trkpt lat="42.860306" lon="-0.738061">
        <ele>1936.4</ele>
        <time>2013-08-16T07:02:03Z</time>
      </trkpt>
      <trkpt lat="42.860308" lon="-0.738028">
        <ele>1937.1</ele>
        <time>2013-08-16T07:02:06Z</time>
      </trkpt>
      <trkpt lat="42.860327" lon="-0.737997">
        <ele>1938.1</ele>
        <time>2013-08-16T07:02:10Z</time>
      </trkpt>
      <trkpt lat="42.860347" lon="-0.737940">
        <ele>1939.5</ele>
        <time>2013-08-16T07:02:17Z</time>
      </trkpt>
      <trkpt lat="42.860343" lon="-0.737927">
        <ele>1939.7</ele>
        <time>2013-08-16T07:02:20Z</time>
      </trkpt>
      <trkpt lat="42.860324" lon="-0.737910">
        <ele>1940.0</ele>
        <time>2013-08-16T07:02:22Z</time>
      </trkpt>
      <trkpt lat="42.860337" lon="-0.737800">
        <ele>1941.5</ele>
        <time>2013-08-16T07:02:31Z</time>
      </trkpt>
      <trkpt lat="42.860341" lon="-0.737789">
        <ele>1941.7</ele>
        <time>2013-08-16T07:02:32Z</time>
      </trkpt>
      <trkpt lat="42.860344" lon="-0.737618">
        <ele>1943.5</ele>
        <time>2013-08-16T07:02:43Z</time>
      </trkpt>
      <trkpt lat="42.860372" lon="-0.737501">
        <ele>1945.3</ele>
        <time>2013-08-16T07:02:53Z</time>
      </trkpt>
      <trkpt lat="42.860387" lon="-0.737389">
        <ele>1946.8</ele>
        <time>2013-08-16T07:03:02Z</time>
      </trkpt>
      <trkpt lat="42.860394" lon="-0.737354">
        <ele>1947.2</ele>
        <time>2013-08-16T07:03:05Z</time>
      </trkpt>
      <trkpt lat="42.860416" lon="-0.737250">
        <ele>1948.9</ele>
        <time>2013-08-16T07:03:14Z</time>
      </trkpt>
      <trkpt lat="42.860413" lon="-0.737056">
        <ele>1950.2</ele>
        <time>2013-08-16T07:03:26Z</time>
      </trkpt>
      <trkpt lat="42.860467" lon="-0.736888">
        <ele>1951.8</ele>
        <time>2013-08-16T07:03:37Z</time>
      </trkpt>
      <trkpt lat="42.860462" lon="-0.736870">
        <ele>1951.6</ele>
        <time>2013-08-16T07:03:39Z</time>
      </trkpt>
      <trkpt lat="42.860441" lon="-0.736815">
        <ele>1952.0</ele>
        <time>2013-08-16T07:03:43Z</time>
      </trkpt>
      <trkpt lat="42.860423" lon="-0.736760">
        <ele>1952.7</ele>
        <time>2013-08-16T07:03:48Z</time>
      </trkpt>
      <trkpt lat="42.860456" lon="-0.736696">
        <ele>1955.2</ele>
        <time>2013-08-16T07:03:58Z</time>
      </trkpt>
      <trkpt lat="42.860458" lon="-0.736612">
        <ele>1957.2</ele>
        <time>2013-08-16T07:04:06Z</time>
      </trkpt>
      <trkpt lat="42.860443" lon="-0.736576">
        <ele>1958.1</ele>
        <time>2013-08-16T07:04:20Z</time>
      </trkpt>
      <trkpt lat="42.860443" lon="-0.736576">
        <ele>1958.1</ele>
        <time>2013-08-16T07:04:44Z</time>
      </trkpt>
      <trkpt lat="42.860436" lon="-0.736533">
        <ele>1959.1</ele>
        <time>2013-08-16T07:05:02Z</time>
      </trkpt>
      <trkpt lat="42.860444" lon="-0.736480">
        <ele>1960.3</ele>
        <time>2013-08-16T07:05:06Z</time>
      </trkpt>
      <trkpt lat="42.860475" lon="-0.736389">
        <ele>1962.1</ele>
        <time>2013-08-16T07:05:13Z</time>
      </trkpt>
      <trkpt lat="42.860452" lon="-0.736289">
        <ele>1963.1</ele>
        <time>2013-08-16T07:05:26Z</time>
      </trkpt>
      <trkpt lat="42.860412" lon="-0.736209">
        <ele>1964.0</ele>
        <time>2013-08-16T07:31:59Z</time>
      </trkpt>
      <trkpt lat="42.860412" lon="-0.736106">
        <ele>1962.6</ele>
        <time>2013-08-16T07:32:12Z</time>
      </trkpt>
      <trkpt lat="42.860412" lon="-0.736106">
        <ele>1962.6</ele>
        <time>2013-08-16T07:32:41Z</time>
      </trkpt>
      <trkpt lat="42.860413" lon="-0.736105">
        <ele>1962.5</ele>
        <time>2013-08-16T07:33:11Z</time>
      </trkpt>
      <trkpt lat="42.860413" lon="-0.736105">
        <ele>1962.5</ele>
        <time>2013-08-16T07:33:17Z</time>
      </trkpt>
      <trkpt lat="42.860437" lon="-0.736025">
        <ele>1960.5</ele>
        <time>2013-08-16T07:33:28Z</time>
      </trkpt>
      <trkpt lat="42.860442" lon="-0.735959">
        <ele>1959.7</ele>
        <time>2013-08-16T07:33:44Z</time>
      </trkpt>
      <trkpt lat="42.860487" lon="-0.735903">
        <ele>1957.0</ele>
        <time>2013-08-16T07:33:52Z</time>
      </trkpt>
      <trkpt lat="42.860549" lon="-0.735782">
        <ele>1953.7</ele>
        <time>2013-08-16T07:34:04Z</time>
      </trkpt>
      <trkpt lat="42.860623" lon="-0.735657">
        <ele>1950.7</ele>
        <time>2013-08-16T07:34:17Z</time>
      </trkpt>
      <trkpt lat="42.860664" lon="-0.735583">
        <ele>1949.3</ele>
        <time>2013-08-16T07:34:29Z</time>
      </trkpt>
      <trkpt lat="42.860705" lon="-0.735510">
        <ele>1947.8</ele>
        <time>2013-08-16T07:34:42Z</time>
      </trkpt>
      <trkpt lat="42.860705" lon="-0.735510">
        <ele>1947.8</ele>
        <time>2013-08-16T07:34:50Z</time>
      </trkpt>
      <trkpt lat="42.860688" lon="-0.735486">
        <ele>1946.9</ele>
        <time>2013-08-16T07:34:54Z</time>
      </trkpt>
      <trkpt lat="42.860691" lon="-0.735289">
        <ele>1942.1</ele>
        <time>2013-08-16T07:35:07Z</time>
      </trkpt>
      <trkpt lat="42.860702" lon="-0.735239">
        <ele>1940.7</ele>
        <time>2013-08-16T07:35:11Z</time>
      </trkpt>
      <trkpt lat="42.860697" lon="-0.735165">
        <ele>1938.9</ele>
        <time>2013-08-16T07:35:17Z</time>
      </trkpt>
      <trkpt lat="42.860669" lon="-0.735113">
        <ele>1937.9</ele>
        <time>2013-08-16T07:35:21Z</time>
      </trkpt>
      <trkpt lat="42.860673" lon="-0.735082">
        <ele>1937.0</ele>
        <time>2013-08-16T07:35:24Z</time>
      </trkpt>
      <trkpt lat="42.860732" lon="-0.735027">
        <ele>1934.7</ele>
        <time>2013-08-16T07:35:37Z</time>
      </trkpt>
      <trkpt lat="42.860732" lon="-0.735027">
        <ele>1934.7</ele>
        <time>2013-08-16T07:36:00Z</time>
      </trkpt>
      <trkpt lat="42.860732" lon="-0.735024">
        <ele>1934.6</ele>
        <time>2013-08-16T07:36:24Z</time>
      </trkpt>
      <trkpt lat="42.860736" lon="-0.735027">
        <ele>1934.6</ele>
        <time>2013-08-16T07:36:58Z</time>
      </trkpt>
      <trkpt lat="42.860737" lon="-0.735024">
        <ele>1934.5</ele>
        <time>2013-08-16T07:37:37Z</time>
      </trkpt>
      <trkpt lat="42.860737" lon="-0.735024">
        <ele>1934.5</ele>
        <time>2013-08-16T07:38:08Z</time>
      </trkpt>
      <trkpt lat="42.860738" lon="-0.735027">
        <ele>1934.6</ele>
        <time>2013-08-16T07:38:35Z</time>
      </trkpt>
      <trkpt lat="42.860740" lon="-0.735025">
        <ele>1934.5</ele>
        <time>2013-08-16T07:38:56Z</time>
      </trkpt>
      <trkpt lat="42.860740" lon="-0.735025">
        <ele>1934.5</ele>
        <time>2013-08-16T07:39:18Z</time>
      </trkpt>
      <trkpt lat="42.860782" lon="-0.734945">
        <ele>1932.7</ele>
        <time>2013-08-16T07:39:26Z</time>
      </trkpt>
      <trkpt lat="42.860862" lon="-0.734798">
        <ele>1929.0</ele>
        <time>2013-08-16T07:39:40Z</time>
      </trkpt>
      <trkpt lat="42.860866" lon="-0.734777">
        <ele>1928.3</ele>
        <time>2013-08-16T07:39:47Z</time>
      </trkpt>
      <trkpt lat="42.860862" lon="-0.734766">
        <ele>1927.9</ele>
        <time>2013-08-16T07:39:55Z</time>
      </trkpt>
      <trkpt lat="42.860861" lon="-0.734723">
        <ele>1926.5</ele>
        <time>2013-08-16T07:40:00Z</time>
      </trkpt>
      <trkpt lat="42.860839" lon="-0.734670">
        <ele>1924.1</ele>
        <time>2013-08-16T07:40:07Z</time>
      </trkpt>
      <trkpt lat="42.860844" lon="-0.734641">
        <ele>1922.9</ele>
        <time>2013-08-16T07:40:10Z</time>
      </trkpt>
      <trkpt lat="42.860868" lon="-0.734606">
        <ele>1921.8</ele>
        <time>2013-08-16T07:40:16Z</time>
      </trkpt>
      <trkpt lat="42.860874" lon="-0.734547">
        <ele>1919.8</ele>
        <time>2013-08-16T07:40:23Z</time>
      </trkpt>
      <trkpt lat="42.860929" lon="-0.734518">
        <ele>1917.5</ele>
        <time>2013-08-16T07:40:33Z</time>
      </trkpt>
      <trkpt lat="42.860960" lon="-0.734476">
        <ele>1915.4</ele>
        <time>2013-08-16T07:40:43Z</time>
      </trkpt>
      <trkpt lat="42.861027" lon="-0.734392">
        <ele>1912.4</ele>
        <time>2013-08-16T07:40:55Z</time>
      </trkpt>
      <trkpt lat="42.861086" lon="-0.734368">
        <ele>1911.6</ele>
        <time>2013-08-16T07:41:03Z</time>
      </trkpt>
      <trkpt lat="42.861081" lon="-0.734297">
        <ele>1908.3</ele>
        <time>2013-08-16T07:41:13Z</time>
      </trkpt>
      <trkpt lat="42.861076" lon="-0.734279">
        <ele>1907.4</ele>
        <time>2013-08-16T07:41:16Z</time>
      </trkpt>
      <trkpt lat="42.861081" lon="-0.734252">
        <ele>1906.1</ele>
        <time>2013-08-16T07:41:29Z</time>
      </trkpt>
      <trkpt lat="42.861081" lon="-0.734252">
        <ele>1906.1</ele>
        <time>2013-08-16T07:41:30Z</time>
      </trkpt>
      <trkpt lat="42.861091" lon="-0.734212">
        <ele>1904.1</ele>
        <time>2013-08-16T07:41:36Z</time>
      </trkpt>
      <trkpt lat="42.861116" lon="-0.734170">
        <ele>1902.8</ele>
        <time>2013-08-16T07:41:48Z</time>
      </trkpt>
      <trkpt lat="42.861140" lon="-0.734104">
        <ele>1899.6</ele>
        <time>2013-08-16T07:41:58Z</time>
      </trkpt>
      <trkpt lat="42.861125" lon="-0.734057">
        <ele>1897.7</ele>
        <time>2013-08-16T07:42:06Z</time>
      </trkpt>
      <trkpt lat="42.861135" lon="-0.734045">
        <ele>1897.0</ele>
        <time>2013-08-16T07:42:12Z</time>
      </trkpt>
      <trkpt lat="42.861161" lon="-0.734028">
        <ele>1896.2</ele>
        <time>2013-08-16T07:42:15Z</time>
      </trkpt>
      <trkpt lat="42.861140" lon="-0.733955">
        <ele>1892.9</ele>
        <time>2013-08-16T07:42:27Z</time>
      </trkpt>
      <trkpt lat="42.861162" lon="-0.733935">
        <ele>1892.3</ele>
        <time>2013-08-16T07:42:33Z</time>
      </trkpt>
      <trkpt lat="42.861172" lon="-0.733927">
        <ele>1891.8</ele>
        <time>2013-08-16T07:42:40Z</time>
      </trkpt>
      <trkpt lat="42.861201" lon="-0.733868">
        <ele>1889.5</ele>
        <time>2013-08-16T07:42:51Z</time>
      </trkpt>
      <trkpt lat="42.861254" lon="-0.733821">
        <ele>1887.2</ele>
        <time>2013-08-16T07:43:04Z</time>
      </trkpt>
      <trkpt lat="42.861286" lon="-0.733752">
        <ele>1884.1</ele>
        <time>2013-08-16T07:43:11Z</time>
      </trkpt>
      <trkpt lat="42.861319" lon="-0.733653">
        <ele>1882.1</ele>
        <time>2013-08-16T07:43:22Z</time>
      </trkpt>
      <trkpt lat="42.861328" lon="-0.733633">
        <ele>1881.4</ele>
        <time>2013-08-16T07:43:24Z</time>
      </trkpt>
      <trkpt lat="42.861348" lon="-0.733611">
        <ele>1881.2</ele>
        <time>2013-08-16T07:43:26Z</time>
      </trkpt>
      <trkpt lat="42.861385" lon="-0.733581">
        <ele>1880.1</ele>
        <time>2013-08-16T07:43:31Z</time>
      </trkpt>
      <trkpt lat="42.861400" lon="-0.733557">
        <ele>1879.2</ele>
        <time>2013-08-16T07:43:33Z</time>
      </trkpt>
      <trkpt lat="42.861451" lon="-0.733510">
        <ele>1878.6</ele>
        <time>2013-08-16T07:43:39Z</time>
      </trkpt>
      <trkpt lat="42.861474" lon="-0.733486">
        <ele>1878.0</ele>
        <time>2013-08-16T07:43:50Z</time>
      </trkpt>
      <trkpt lat="42.861458" lon="-0.733450">
        <ele>1876.0</ele>
        <time>2013-08-16T07:43:55Z</time>
      </trkpt>
      <trkpt lat="42.861412" lon="-0.733396">
        <ele>1873.7</ele>
        <time>2013-08-16T07:44:06Z</time>
      </trkpt>
      <trkpt lat="42.861442" lon="-0.733365">
        <ele>1872.9</ele>
        <time>2013-08-16T07:44:12Z</time>
      </trkpt>
      <trkpt lat="42.861462" lon="-0.733282">
        <ele>1869.2</ele>
        <time>2013-08-16T07:44:24Z</time>
      </trkpt>
      <trkpt lat="42.861468" lon="-0.733185">
        <ele>1865.8</ele>
        <time>2013-08-16T07:44:35Z</time>
      </trkpt>
      <trkpt lat="42.861455" lon="-0.733177">
        <ele>1865.3</ele>
        <time>2013-08-16T07:44:37Z</time>
      </trkpt>
      <trkpt lat="42.861369" lon="-0.733203">
        <ele>1864.7</ele>
        <time>2013-08-16T07:44:47Z</time>
      </trkpt>
      <trkpt lat="42.861317" lon="-0.733196">
        <ele>1863.4</ele>
        <time>2013-08-16T07:44:52Z</time>
      </trkpt>
      <trkpt lat="42.861299" lon="-0.733190">
        <ele>1862.9</ele>
        <time>2013-08-16T07:44:54Z</time>
      </trkpt>
      <trkpt lat="42.861250" lon="-0.733180">
        <ele>1862.5</ele>
        <time>2013-08-16T07:45:00Z</time>
      </trkpt>
      <trkpt lat="42.861144" lon="-0.733157">
        <ele>1860.5</ele>
        <time>2013-08-16T07:45:14Z</time>
      </trkpt>
      <trkpt lat="42.861100" lon="-0.733098">
        <ele>1860.3</ele>
        <time>2013-08-16T07:45:21Z</time>
      </trkpt>
      <trkpt lat="42.861080" lon="-0.733053">
        <ele>1858.9</ele>
        <time>2013-08-16T07:45:25Z</time>
      </trkpt>
      <trkpt lat="42.860992" lon="-0.732922">
        <ele>1856.5</ele>
        <time>2013-08-16T07:45:37Z</time>
      </trkpt>
      <trkpt lat="42.860961" lon="-0.732897">
        <ele>1856.5</ele>
        <time>2013-08-16T07:45:51Z</time>
      </trkpt>
      <trkpt lat="42.860961" lon="-0.732897">
        <ele>1856.5</ele>
        <time>2013-08-16T07:46:10Z</time>
      </trkpt>
      <trkpt lat="42.860961" lon="-0.732895">
        <ele>1856.4</ele>
        <time>2013-08-16T07:46:25Z</time>
      </trkpt>
      <trkpt lat="42.860961" lon="-0.732895">
        <ele>1856.4</ele>
        <time>2013-08-16T07:46:54Z</time>
      </trkpt>
      <trkpt lat="42.860953" lon="-0.732876">
        <ele>1855.9</ele>
        <time>2013-08-16T07:47:17Z</time>
      </trkpt>
      <trkpt lat="42.860894" lon="-0.732800">
        <ele>1854.2</ele>
        <time>2013-08-16T07:47:25Z</time>
      </trkpt>
      <trkpt lat="42.860852" lon="-0.732718">
        <ele>1852.4</ele>
        <time>2013-08-16T07:47:31Z</time>
      </trkpt>
      <trkpt lat="42.860746" lon="-0.732464">
        <ele>1849.9</ele>
        <time>2013-08-16T07:47:45Z</time>
      </trkpt>
      <trkpt lat="42.860691" lon="-0.732440">
        <ele>1849.2</ele>
        <time>2013-08-16T07:47:52Z</time>
      </trkpt>
      <trkpt lat="42.860651" lon="-0.732432">
        <ele>1850.5</ele>
        <time>2013-08-16T07:47:57Z</time>
      </trkpt>
      <trkpt lat="42.860636" lon="-0.732329">
        <ele>1848.4</ele>
        <time>2013-08-16T07:48:10Z</time>
      </trkpt>
      <trkpt lat="42.860633" lon="-0.732260">
        <ele>1846.3</ele>
        <time>2013-08-16T07:48:22Z</time>
      </trkpt>
      <trkpt lat="42.860623" lon="-0.732243">
        <ele>1846.2</ele>
        <time>2013-08-16T07:48:38Z</time>
      </trkpt>
      <trkpt lat="42.860569" lon="-0.732078">
        <ele>1844.2</ele>
        <time>2013-08-16T07:48:52Z</time>
      </trkpt>
      <trkpt lat="42.860543" lon="-0.732043">
        <ele>1843.8</ele>
        <time>2013-08-16T07:49:05Z</time>
      </trkpt>
      <trkpt lat="42.860526" lon="-0.731972">
        <ele>1842.4</ele>
        <time>2013-08-16T07:49:15Z</time>
      </trkpt>
      <trkpt lat="42.860531" lon="-0.731938">
        <ele>1841.6</ele>
        <time>2013-08-16T07:49:17Z</time>
      </trkpt>
      <trkpt lat="42.860515" lon="-0.731862">
        <ele>1841.0</ele>
        <time>2013-08-16T07:49:24Z</time>
      </trkpt>
      <trkpt lat="42.860529" lon="-0.731838">
        <ele>1839.9</ele>
        <time>2013-08-16T07:49:26Z</time>
      </trkpt>
      <trkpt lat="42.860563" lon="-0.731841">
        <ele>1838.7</ele>
        <time>2013-08-16T07:49:30Z</time>
      </trkpt>
      <trkpt lat="42.860718" lon="-0.731944">
        <ele>1835.6</ele>
        <time>2013-08-16T07:49:44Z</time>
      </trkpt>
      <trkpt lat="42.860766" lon="-0.731875">
        <ele>1833.1</ele>
        <time>2013-08-16T07:49:53Z</time>
      </trkpt>
      <trkpt lat="42.860759" lon="-0.731736">
        <ele>1830.1</ele>
        <time>2013-08-16T07:50:02Z</time>
      </trkpt>
      <trkpt lat="42.860779" lon="-0.731652">
        <ele>1827.9</ele>
        <time>2013-08-16T07:50:06Z</time>
      </trkpt>
      <trkpt lat="42.860767" lon="-0.731446">
        <ele>1824.7</ele>
        <time>2013-08-16T07:50:22Z</time>
      </trkpt>
      <trkpt lat="42.860765" lon="-0.731402">
        <ele>1824.0</ele>
        <time>2013-08-16T07:50:25Z</time>
      </trkpt>
      <trkpt lat="42.860779" lon="-0.731360">
        <ele>1823.0</ele>
        <time>2013-08-16T07:50:28Z</time>
      </trkpt>
      <trkpt lat="42.860788" lon="-0.731274">
        <ele>1820.4</ele>
        <time>2013-08-16T07:50:34Z</time>
      </trkpt>
      <trkpt lat="42.860793" lon="-0.731247">
        <ele>1820.0</ele>
        <time>2013-08-16T07:50:36Z</time>
      </trkpt>
      <trkpt lat="42.860815" lon="-0.731170">
        <ele>1818.8</ele>
        <time>2013-08-16T07:50:41Z</time>
      </trkpt>
      <trkpt lat="42.860819" lon="-0.731121">
        <ele>1817.9</ele>
        <time>2013-08-16T07:50:44Z</time>
      </trkpt>
      <trkpt lat="42.860856" lon="-0.730922">
        <ele>1814.0</ele>
        <time>2013-08-16T07:50:55Z</time>
      </trkpt>
      <trkpt lat="42.860811" lon="-0.730850">
        <ele>1813.7</ele>
        <time>2013-08-16T07:51:02Z</time>
      </trkpt>
      <trkpt lat="42.860782" lon="-0.730747">
        <ele>1811.7</ele>
        <time>2013-08-16T07:51:08Z</time>
      </trkpt>
      <trkpt lat="42.860729" lon="-0.730570">
        <ele>1810.0</ele>
        <time>2013-08-16T07:51:20Z</time>
      </trkpt>
      <trkpt lat="42.860733" lon="-0.730558">
        <ele>1809.6</ele>
        <time>2013-08-16T07:51:21Z</time>
      </trkpt>
      <trkpt lat="42.860750" lon="-0.730532">
        <ele>1809.0</ele>
        <time>2013-08-16T07:51:33Z</time>
      </trkpt>
      <trkpt lat="42.860750" lon="-0.730532">
        <ele>1809.0</ele>
        <time>2013-08-16T07:51:45Z</time>
      </trkpt>
      <trkpt lat="42.860764" lon="-0.730383">
        <ele>1806.9</ele>
        <time>2013-08-16T07:51:59Z</time>
      </trkpt>
      <trkpt lat="42.860765" lon="-0.730380">
        <ele>1806.9</ele>
        <time>2013-08-16T07:52:28Z</time>
      </trkpt>
      <trkpt lat="42.860766" lon="-0.730331">
        <ele>1805.4</ele>
        <time>2013-08-16T07:52:34Z</time>
      </trkpt>
      <trkpt lat="42.860742" lon="-0.730258">
        <ele>1802.8</ele>
        <time>2013-08-16T07:52:41Z</time>
      </trkpt>
      <trkpt lat="42.860744" lon="-0.730142">
        <ele>1801.0</ele>
        <time>2013-08-16T07:52:49Z</time>
      </trkpt>
      <trkpt lat="42.860766" lon="-0.730035">
        <ele>1799.7</ele>
        <time>2013-08-16T07:52:55Z</time>
      </trkpt>
      <trkpt lat="42.860790" lon="-0.729882">
        <ele>1796.0</ele>
        <time>2013-08-16T07:53:04Z</time>
      </trkpt>
      <trkpt lat="42.860792" lon="-0.729832">
        <ele>1795.1</ele>
        <time>2013-08-16T07:53:08Z</time>
      </trkpt>
      <trkpt lat="42.860803" lon="-0.729749">
        <ele>1793.0</ele>
        <time>2013-08-16T07:53:14Z</time>
      </trkpt>
      <trkpt lat="42.860813" lon="-0.729662">
        <ele>1791.9</ele>
        <time>2013-08-16T07:53:18Z</time>
      </trkpt>
      <trkpt lat="42.860811" lon="-0.729597">
        <ele>1791.6</ele>
        <time>2013-08-16T07:53:22Z</time>
      </trkpt>
      <trkpt lat="42.860858" lon="-0.729534">
        <ele>1790.7</ele>
        <time>2013-08-16T07:53:26Z</time>
      </trkpt>
      <trkpt lat="42.860933" lon="-0.729467">
        <ele>1790.1</ele>
        <time>2013-08-16T07:53:33Z</time>
      </trkpt>
      <trkpt lat="42.861022" lon="-0.729371">
        <ele>1790.6</ele>
        <time>2013-08-16T07:53:42Z</time>
      </trkpt>
      <trkpt lat="42.861042" lon="-0.729333">
        <ele>1790.7</ele>
        <time>2013-08-16T07:53:45Z</time>
      </trkpt>
      <trkpt lat="42.861104" lon="-0.729227">
        <ele>1790.4</ele>
        <time>2013-08-16T07:53:54Z</time>
      </trkpt>
      <trkpt lat="42.861133" lon="-0.729137">
        <ele>1789.7</ele>
        <time>2013-08-16T07:53:59Z</time>
      </trkpt>
      <trkpt lat="42.861162" lon="-0.729066">
        <ele>1789.5</ele>
        <time>2013-08-16T07:54:03Z</time>
      </trkpt>
      <trkpt lat="42.861192" lon="-0.728816">
        <ele>1785.9</ele>
        <time>2013-08-16T07:54:18Z</time>
      </trkpt>
      <trkpt lat="42.861214" lon="-0.728777">
        <ele>1784.3</ele>
        <time>2013-08-16T07:54:23Z</time>
      </trkpt>
      <trkpt lat="42.861254" lon="-0.728776">
        <ele>1783.4</ele>
        <time>2013-08-16T07:54:27Z</time>
      </trkpt>
      <trkpt lat="42.861266" lon="-0.728740">
        <ele>1782.5</ele>
        <time>2013-08-16T07:54:31Z</time>
      </trkpt>
      <trkpt lat="42.861262" lon="-0.728643">
        <ele>1780.8</ele>
        <time>2013-08-16T07:54:37Z</time>
      </trkpt>
      <trkpt lat="42.861245" lon="-0.728533">
        <ele>1780.6</ele>
        <time>2013-08-16T07:54:46Z</time>
      </trkpt>
      <trkpt lat="42.861251" lon="-0.728380">
        <ele>1776.7</ele>
        <time>2013-08-16T07:54:57Z</time>
      </trkpt>
      <trkpt lat="42.861237" lon="-0.728235">
        <ele>1774.1</ele>
        <time>2013-08-16T07:55:08Z</time>
      </trkpt>
      <trkpt lat="42.861233" lon="-0.728197">
        <ele>1773.5</ele>
        <time>2013-08-16T07:55:11Z</time>
      </trkpt>
      <trkpt lat="42.861248" lon="-0.728082">
        <ele>1769.7</ele>
        <time>2013-08-16T07:55:18Z</time>
      </trkpt>
      <trkpt lat="42.861237" lon="-0.728010">
        <ele>1769.0</ele>
        <time>2013-08-16T07:55:22Z</time>
      </trkpt>
      <trkpt lat="42.861232" lon="-0.727850">
        <ele>1766.3</ele>
        <time>2013-08-16T07:55:35Z</time>
      </trkpt>
      <trkpt lat="42.861228" lon="-0.727834">
        <ele>1766.1</ele>
        <time>2013-08-16T07:55:56Z</time>
      </trkpt>
      <trkpt lat="42.861164" lon="-0.727686">
        <ele>1764.6</ele>
        <time>2013-08-16T07:56:08Z</time>
      </trkpt>
      <trkpt lat="42.861158" lon="-0.727663">
        <ele>1764.5</ele>
        <time>2013-08-16T07:56:10Z</time>
      </trkpt>
      <trkpt lat="42.861099" lon="-0.727514">
        <ele>1762.1</ele>
        <time>2013-08-16T07:56:23Z</time>
      </trkpt>
      <trkpt lat="42.861055" lon="-0.727381">
        <ele>1760.4</ele>
        <time>2013-08-16T07:56:34Z</time>
      </trkpt>
      <trkpt lat="42.861025" lon="-0.727238">
        <ele>1758.1</ele>
        <time>2013-08-16T07:56:44Z</time>
      </trkpt>
      <trkpt lat="42.861010" lon="-0.727147">
        <ele>1756.8</ele>
        <time>2013-08-16T07:56:51Z</time>
      </trkpt>
      <trkpt lat="42.861014" lon="-0.727099">
        <ele>1756.0</ele>
        <time>2013-08-16T07:56:56Z</time>
      </trkpt>
      <trkpt lat="42.861023" lon="-0.726993">
        <ele>1755.2</ele>
        <time>2013-08-16T07:57:05Z</time>
      </trkpt>
      <trkpt lat="42.861009" lon="-0.726795">
        <ele>1752.4</ele>
        <time>2013-08-16T07:57:20Z</time>
      </trkpt>
      <trkpt lat="42.861008" lon="-0.726785">
        <ele>1752.4</ele>
        <time>2013-08-16T07:57:21Z</time>
      </trkpt>
      <trkpt lat="42.861005" lon="-0.726694">
        <ele>1751.2</ele>
        <time>2013-08-16T07:57:27Z</time>
      </trkpt>
      <trkpt lat="42.861014" lon="-0.726656">
        <ele>1750.4</ele>
        <time>2013-08-16T07:57:30Z</time>
      </trkpt>
      <trkpt lat="42.861020" lon="-0.726575">
        <ele>1749.1</ele>
        <time>2013-08-16T07:57:35Z</time>
      </trkpt>
      <trkpt lat="42.861021" lon="-0.726543">
        <ele>1748.4</ele>
        <time>2013-08-16T07:57:37Z</time>
      </trkpt>
      <trkpt lat="42.861007" lon="-0.726355">
        <ele>1745.7</ele>
        <time>2013-08-16T07:57:50Z</time>
      </trkpt>
      <trkpt lat="42.860982" lon="-0.726263">
        <ele>1744.2</ele>
        <time>2013-08-16T07:57:56Z</time>
      </trkpt>
      <trkpt lat="42.860998" lon="-0.726228">
        <ele>1742.3</ele>
        <time>2013-08-16T07:58:00Z</time>
      </trkpt>
      <trkpt lat="42.861021" lon="-0.726270">
        <ele>1742.5</ele>
        <time>2013-08-16T07:58:04Z</time>
      </trkpt>
      <trkpt lat="42.861139" lon="-0.726443">
        <ele>1739.3</ele>
        <time>2013-08-16T07:58:18Z</time>
      </trkpt>
      <trkpt lat="42.861177" lon="-0.726557">
        <ele>1738.6</ele>
        <time>2013-08-16T07:58:25Z</time>
      </trkpt>
      <trkpt lat="42.861230" lon="-0.726634">
        <ele>1736.6</ele>
        <time>2013-08-16T07:58:33Z</time>
      </trkpt>
      <trkpt lat="42.861237" lon="-0.726630">
        <ele>1736.2</ele>
        <time>2013-08-16T07:58:36Z</time>
      </trkpt>
      <trkpt lat="42.861241" lon="-0.726490">
        <ele>1735.3</ele>
        <time>2013-08-16T07:58:46Z</time>
      </trkpt>
      <trkpt lat="42.861232" lon="-0.726468">
        <ele>1734.9</ele>
        <time>2013-08-16T07:58:48Z</time>
      </trkpt>
      <trkpt lat="42.861233" lon="-0.726447">
        <ele>1734.4</ele>
        <time>2013-08-16T07:58:50Z</time>
      </trkpt>
      <trkpt lat="42.861244" lon="-0.726402">
        <ele>1733.5</ele>
        <time>2013-08-16T07:58:53Z</time>
      </trkpt>
      <trkpt lat="42.861247" lon="-0.726311">
        <ele>1732.2</ele>
        <time>2013-08-16T07:59:00Z</time>
      </trkpt>
      <trkpt lat="42.861238" lon="-0.726287">
        <ele>1731.6</ele>
        <time>2013-08-16T07:59:02Z</time>
      </trkpt>
      <trkpt lat="42.861204" lon="-0.726196">
        <ele>1729.4</ele>
        <time>2013-08-16T07:59:14Z</time>
      </trkpt>
      <trkpt lat="42.861180" lon="-0.726035">
        <ele>1726.2</ele>
        <time>2013-08-16T07:59:26Z</time>
      </trkpt>
      <trkpt lat="42.861166" lon="-0.725988">
        <ele>1725.8</ele>
        <time>2013-08-16T07:59:29Z</time>
      </trkpt>
      <trkpt lat="42.861158" lon="-0.725836">
        <ele>1723.0</ele>
        <time>2013-08-16T07:59:39Z</time>
      </trkpt>
      <trkpt lat="42.861291" lon="-0.725669">
        <ele>1722.2</ele>
        <time>2013-08-16T07:59:53Z</time>
      </trkpt>
      <trkpt lat="42.861387" lon="-0.725455">
        <ele>1721.2</ele>
        <time>2013-08-16T08:00:08Z</time>
      </trkpt>
      <trkpt lat="42.861401" lon="-0.725413">
        <ele>1720.5</ele>
        <time>2013-08-16T08:00:13Z</time>
      </trkpt>
      <trkpt lat="42.861455" lon="-0.725211">
        <ele>1717.0</ele>
        <time>2013-08-16T08:00:26Z</time>
      </trkpt>
      <trkpt lat="42.861468" lon="-0.725131">
        <ele>1714.8</ele>
        <time>2013-08-16T08:00:33Z</time>
      </trkpt>
      <trkpt lat="42.861492" lon="-0.725083">
        <ele>1714.0</ele>
        <time>2013-08-16T08:00:40Z</time>
      </trkpt>
      <trkpt lat="42.861520" lon="-0.725026">
        <ele>1712.8</ele>
        <time>2013-08-16T08:00:45Z</time>
      </trkpt>
      <trkpt lat="42.861519" lon="-0.725018">
        <ele>1712.6</ele>
        <time>2013-08-16T08:00:46Z</time>
      </trkpt>
      <trkpt lat="42.861521" lon="-0.724951">
        <ele>1711.1</ele>
        <time>2013-08-16T08:00:53Z</time>
      </trkpt>
      <trkpt lat="42.861542" lon="-0.724878">
        <ele>1708.7</ele>
        <time>2013-08-16T08:00:58Z</time>
      </trkpt>
      <trkpt lat="42.861587" lon="-0.724730">
        <ele>1706.1</ele>
        <time>2013-08-16T08:01:10Z</time>
      </trkpt>
      <trkpt lat="42.861601" lon="-0.724682">
        <ele>1705.0</ele>
        <time>2013-08-16T08:01:14Z</time>
      </trkpt>
      <trkpt lat="42.861603" lon="-0.724670">
        <ele>1704.6</ele>
        <time>2013-08-16T08:01:15Z</time>
      </trkpt>
      <trkpt lat="42.861612" lon="-0.724628">
        <ele>1703.7</ele>
        <time>2013-08-16T08:01:20Z</time>
      </trkpt>
      <trkpt lat="42.861626" lon="-0.724532">
        <ele>1701.5</ele>
        <time>2013-08-16T08:01:29Z</time>
      </trkpt>
      <trkpt lat="42.861656" lon="-0.724445">
        <ele>1700.0</ele>
        <time>2013-08-16T08:01:36Z</time>
      </trkpt>
      <trkpt lat="42.861665" lon="-0.724298">
        <ele>1695.9</ele>
        <time>2013-08-16T08:01:48Z</time>
      </trkpt>
      <trkpt lat="42.861664" lon="-0.724287">
        <ele>1695.5</ele>
        <time>2013-08-16T08:01:49Z</time>
      </trkpt>
      <trkpt lat="42.861674" lon="-0.724187">
        <ele>1693.1</ele>
        <time>2013-08-16T08:01:58Z</time>
      </trkpt>
      <trkpt lat="42.861695" lon="-0.724152">
        <ele>1693.4</ele>
        <time>2013-08-16T08:02:02Z</time>
      </trkpt>
      <trkpt lat="42.861696" lon="-0.723991">
        <ele>1688.5</ele>
        <time>2013-08-16T08:02:15Z</time>
      </trkpt>
      <trkpt lat="42.861691" lon="-0.723867">
        <ele>1684.5</ele>
        <time>2013-08-16T08:02:25Z</time>
      </trkpt>
      <trkpt lat="42.861686" lon="-0.723842">
        <ele>1683.6</ele>
        <time>2013-08-16T08:02:27Z</time>
      </trkpt>
      <trkpt lat="42.861694" lon="-0.723749">
        <ele>1681.3</ele>
        <time>2013-08-16T08:02:34Z</time>
      </trkpt>
      <trkpt lat="42.861716" lon="-0.723696">
        <ele>1681.2</ele>
        <time>2013-08-16T08:02:38Z</time>
      </trkpt>
      <trkpt lat="42.861732" lon="-0.723614">
        <ele>1680.1</ele>
        <time>2013-08-16T08:02:44Z</time>
      </trkpt>
      <trkpt lat="42.861759" lon="-0.723558">
        <ele>1679.6</ele>
        <time>2013-08-16T08:02:48Z</time>
      </trkpt>
      <trkpt lat="42.861787" lon="-0.723389">
        <ele>1675.4</ele>
        <time>2013-08-16T08:03:00Z</time>
      </trkpt>
      <trkpt lat="42.861803" lon="-0.723352">
        <ele>1674.6</ele>
        <time>2013-08-16T08:03:11Z</time>
      </trkpt>
      <trkpt lat="42.861803" lon="-0.723352">
        <ele>1674.6</ele>
        <time>2013-08-16T08:03:43Z</time>
      </trkpt>
      <trkpt lat="42.861803" lon="-0.723352">
        <ele>1674.6</ele>
        <time>2013-08-16T08:03:44Z</time>
      </trkpt>
      <trkpt lat="42.861818" lon="-0.723230">
        <ele>1672.1</ele>
        <time>2013-08-16T08:03:57Z</time>
      </trkpt>
      <trkpt lat="42.861818" lon="-0.723230">
        <ele>1672.1</ele>
        <time>2013-08-16T08:04:24Z</time>
      </trkpt>
      <trkpt lat="42.861816" lon="-0.723233">
        <ele>1672.2</ele>
        <time>2013-08-16T08:04:45Z</time>
      </trkpt>
      <trkpt lat="42.861826" lon="-0.723152">
        <ele>1670.9</ele>
        <time>2013-08-16T08:05:04Z</time>
      </trkpt>
      <trkpt lat="42.861854" lon="-0.723058">
        <ele>1669.3</ele>
        <time>2013-08-16T08:05:12Z</time>
      </trkpt>
      <trkpt lat="42.861907" lon="-0.722900">
        <ele>1665.5</ele>
        <time>2013-08-16T08:05:23Z</time>
      </trkpt>
      <trkpt lat="42.861955" lon="-0.722814">
        <ele>1664.8</ele>
        <time>2013-08-16T08:05:29Z</time>
      </trkpt>
      <trkpt lat="42.861961" lon="-0.722783">
        <ele>1663.9</ele>
        <time>2013-08-16T08:05:31Z</time>
      </trkpt>
      <trkpt lat="42.862014" lon="-0.722647">
        <ele>1661.1</ele>
        <time>2013-08-16T08:05:42Z</time>
      </trkpt>
      <trkpt lat="42.862035" lon="-0.722606">
        <ele>1660.0</ele>
        <time>2013-08-16T08:05:45Z</time>
      </trkpt>
      <trkpt lat="42.862068" lon="-0.722583">
        <ele>1661.2</ele>
        <time>2013-08-16T08:05:49Z</time>
      </trkpt>
      <trkpt lat="42.862103" lon="-0.722488">
        <ele>1659.3</ele>
        <time>2013-08-16T08:05:59Z</time>
      </trkpt>
      <trkpt lat="42.862145" lon="-0.722344">
        <ele>1656.8</ele>
        <time>2013-08-16T08:06:07Z</time>
      </trkpt>
      <trkpt lat="42.862171" lon="-0.722154">
        <ele>1653.1</ele>
        <time>2013-08-16T08:06:18Z</time>
      </trkpt>
      <trkpt lat="42.862213" lon="-0.721963">
        <ele>1651.1</ele>
        <time>2013-08-16T08:06:28Z</time>
      </trkpt>
      <trkpt lat="42.862190" lon="-0.721716">
        <ele>1649.4</ele>
        <time>2013-08-16T08:06:42Z</time>
      </trkpt>
      <trkpt lat="42.862194" lon="-0.721417">
        <ele>1647.6</ele>
        <time>2013-08-16T08:06:57Z</time>
      </trkpt>
      <trkpt lat="42.862123" lon="-0.721252">
        <ele>1645.9</ele>
        <time>2013-08-16T08:07:10Z</time>
      </trkpt>
      <trkpt lat="42.862036" lon="-0.720981">
        <ele>1644.0</ele>
        <time>2013-08-16T08:07:24Z</time>
      </trkpt>
      <trkpt lat="42.862027" lon="-0.720960">
        <ele>1644.0</ele>
        <time>2013-08-16T08:07:25Z</time>
      </trkpt>
      <trkpt lat="42.862013" lon="-0.720911">
        <ele>1644.0</ele>
        <time>2013-08-16T08:07:28Z</time>
      </trkpt>
      <trkpt lat="42.861955" lon="-0.720770">
        <ele>1642.0</ele>
        <time>2013-08-16T08:07:39Z</time>
      </trkpt>
      <trkpt lat="42.862002" lon="-0.720540">
        <ele>1642.0</ele>
        <time>2013-08-16T08:07:51Z</time>
      </trkpt>
      <trkpt lat="42.862002" lon="-0.720237">
        <ele>1642.0</ele>
        <time>2013-08-16T08:08:06Z</time>
      </trkpt>
      <trkpt lat="42.861907" lon="-0.720153">
        <ele>1641.0</ele>
        <time>2013-08-16T08:08:16Z</time>
      </trkpt>
      <trkpt lat="42.861896" lon="-0.720129">
        <ele>1641.0</ele>
        <time>2013-08-16T08:08:29Z</time>
      </trkpt>
      <trkpt lat="42.861892" lon="-0.720119">
        <ele>1640.9</ele>
        <time>2013-08-16T08:08:53Z</time>
      </trkpt>
      <trkpt lat="42.861871" lon="-0.720047">
        <ele>1640.0</ele>
        <time>2013-08-16T08:08:57Z</time>
      </trkpt>
      <trkpt lat="42.861837" lon="-0.719976">
        <ele>1641.0</ele>
        <time>2013-08-16T08:09:02Z</time>
      </trkpt>
      <trkpt lat="42.861830" lon="-0.719887">
        <ele>1641.3</ele>
        <time>2013-08-16T08:09:08Z</time>
      </trkpt>
      <trkpt lat="42.861804" lon="-0.719773">
        <ele>1641.1</ele>
        <time>2013-08-16T08:09:15Z</time>
      </trkpt>
      <trkpt lat="42.861833" lon="-0.719709">
        <ele>1641.1</ele>
        <time>2013-08-16T08:09:20Z</time>
      </trkpt>
      <trkpt lat="42.861884" lon="-0.719496">
        <ele>1640.9</ele>
        <time>2013-08-16T08:09:34Z</time>
      </trkpt>
      <trkpt lat="42.861883" lon="-0.719460">
        <ele>1641.0</ele>
        <time>2013-08-16T08:09:36Z</time>
      </trkpt>
      <trkpt lat="42.861891" lon="-0.719431">
        <ele>1640.8</ele>
        <time>2013-08-16T08:09:38Z</time>
      </trkpt>
      <trkpt lat="42.861917" lon="-0.719375">
        <ele>1640.0</ele>
        <time>2013-08-16T08:09:43Z</time>
      </trkpt>
      <trkpt lat="42.861921" lon="-0.719318">
        <ele>1639.1</ele>
        <time>2013-08-16T08:09:48Z</time>
      </trkpt>
      <trkpt lat="42.861808" lon="-0.719272">
        <ele>1636.4</ele>
        <time>2013-08-16T08:10:02Z</time>
      </trkpt>
      <trkpt lat="42.861762" lon="-0.719255">
        <ele>1635.1</ele>
        <time>2013-08-16T08:10:07Z</time>
      </trkpt>
      <trkpt lat="42.861791" lon="-0.719102">
        <ele>1631.6</ele>
        <time>2013-08-16T08:10:18Z</time>
      </trkpt>
      <trkpt lat="42.861846" lon="-0.719045">
        <ele>1630.7</ele>
        <time>2013-08-16T08:10:23Z</time>
      </trkpt>
      <trkpt lat="42.861892" lon="-0.719019">
        <ele>1629.9</ele>
        <time>2013-08-16T08:10:26Z</time>
      </trkpt>
      <trkpt lat="42.861934" lon="-0.718909">
        <ele>1628.5</ele>
        <time>2013-08-16T08:10:34Z</time>
      </trkpt>
      <trkpt lat="42.862065" lon="-0.718706">
        <ele>1626.4</ele>
        <time>2013-08-16T08:10:48Z</time>
      </trkpt>
      <trkpt lat="42.862093" lon="-0.718600">
        <ele>1626.0</ele>
        <time>2013-08-16T08:11:00Z</time>
      </trkpt>
      <trkpt lat="42.862093" lon="-0.718600">
        <ele>1626.0</ele>
        <time>2013-08-16T08:11:31Z</time>
      </trkpt>
      <trkpt lat="42.862103" lon="-0.718545">
        <ele>1625.9</ele>
        <time>2013-08-16T08:11:55Z</time>
      </trkpt>
      <trkpt lat="42.862154" lon="-0.718453">
        <ele>1625.0</ele>
        <time>2013-08-16T08:12:01Z</time>
      </trkpt>
      <trkpt lat="42.862218" lon="-0.718244">
        <ele>1623.0</ele>
        <time>2013-08-16T08:12:17Z</time>
      </trkpt>
      <trkpt lat="42.862278" lon="-0.718115">
        <ele>1622.0</ele>
        <time>2013-08-16T08:12:28Z</time>
      </trkpt>
      <trkpt lat="42.862322" lon="-0.717946">
        <ele>1620.6</ele>
        <time>2013-08-16T08:12:38Z</time>
      </trkpt>
      <trkpt lat="42.862366" lon="-0.717760">
        <ele>1618.5</ele>
        <time>2013-08-16T08:12:51Z</time>
      </trkpt>
      <trkpt lat="42.862365" lon="-0.717757">
        <ele>1618.5</ele>
        <time>2013-08-16T08:13:32Z</time>
      </trkpt>
      <trkpt lat="42.862365" lon="-0.717757">
        <ele>1618.5</ele>
        <time>2013-08-16T08:14:08Z</time>
      </trkpt>
      <trkpt lat="42.862363" lon="-0.717755">
        <ele>1618.5</ele>
        <time>2013-08-16T08:14:18Z</time>
      </trkpt>
      <trkpt lat="42.862385" lon="-0.717772">
        <ele>1618.1</ele>
        <time>2013-08-16T08:14:22Z</time>
      </trkpt>
      <trkpt lat="42.862402" lon="-0.717780">
        <ele>1617.5</ele>
        <time>2013-08-16T08:14:24Z</time>
      </trkpt>
      <trkpt lat="42.862432" lon="-0.717747">
        <ele>1616.0</ele>
        <time>2013-08-16T08:14:28Z</time>
      </trkpt>
      <trkpt lat="42.862451" lon="-0.717732">
        <ele>1615.6</ele>
        <time>2013-08-16T08:14:30Z</time>
      </trkpt>
      <trkpt lat="42.862539" lon="-0.717692">
        <ele>1613.2</ele>
        <time>2013-08-16T08:14:42Z</time>
      </trkpt>
      <trkpt lat="42.862591" lon="-0.717663">
        <ele>1610.9</ele>
        <time>2013-08-16T08:14:51Z</time>
      </trkpt>
      <trkpt lat="42.862596" lon="-0.717661">
        <ele>1610.7</ele>
        <time>2013-08-16T08:14:53Z</time>
      </trkpt>
      <trkpt lat="42.862655" lon="-0.717565">
        <ele>1607.9</ele>
        <time>2013-08-16T08:15:03Z</time>
      </trkpt>
      <trkpt lat="42.862694" lon="-0.717564">
        <ele>1605.4</ele>
        <time>2013-08-16T08:15:11Z</time>
      </trkpt>
      <trkpt lat="42.862736" lon="-0.717526">
        <ele>1603.3</ele>
        <time>2013-08-16T08:15:19Z</time>
      </trkpt>
      <trkpt lat="42.862775" lon="-0.717497">
        <ele>1601.5</ele>
        <time>2013-08-16T08:15:24Z</time>
      </trkpt>
      <trkpt lat="42.862804" lon="-0.717466">
        <ele>1599.7</ele>
        <time>2013-08-16T08:15:28Z</time>
      </trkpt>
      <trkpt lat="42.862829" lon="-0.717448">
        <ele>1598.3</ele>
        <time>2013-08-16T08:15:32Z</time>
      </trkpt>
      <trkpt lat="42.862835" lon="-0.717441">
        <ele>1597.9</ele>
        <time>2013-08-16T08:15:33Z</time>
      </trkpt>
      <trkpt lat="42.862844" lon="-0.717414">
        <ele>1597.5</ele>
        <time>2013-08-16T08:15:35Z</time>
      </trkpt>
      <trkpt lat="42.862876" lon="-0.717387">
        <ele>1596.0</ele>
        <time>2013-08-16T08:15:39Z</time>
      </trkpt>
      <trkpt lat="42.862948" lon="-0.717312">
        <ele>1593.4</ele>
        <time>2013-08-16T08:15:52Z</time>
      </trkpt>
      <trkpt lat="42.862948" lon="-0.717312">
        <ele>1593.4</ele>
        <time>2013-08-16T08:16:00Z</time>
      </trkpt>
      <trkpt lat="42.862994" lon="-0.717284">
        <ele>1591.9</ele>
        <time>2013-08-16T08:16:11Z</time>
      </trkpt>
      <trkpt lat="42.863128" lon="-0.717162">
        <ele>1588.0</ele>
        <time>2013-08-16T08:16:25Z</time>
      </trkpt>
      <trkpt lat="42.863160" lon="-0.717113">
        <ele>1586.5</ele>
        <time>2013-08-16T08:16:30Z</time>
      </trkpt>
      <trkpt lat="42.863200" lon="-0.717057">
        <ele>1584.7</ele>
        <time>2013-08-16T08:16:35Z</time>
      </trkpt>
      <trkpt lat="42.863238" lon="-0.717034">
        <ele>1583.1</ele>
        <time>2013-08-16T08:16:40Z</time>
      </trkpt>
      <trkpt lat="42.863282" lon="-0.717038">
        <ele>1582.2</ele>
        <time>2013-08-16T08:16:44Z</time>
      </trkpt>
      <trkpt lat="42.863396" lon="-0.717000">
        <ele>1578.5</ele>
        <time>2013-08-16T08:16:57Z</time>
      </trkpt>
      <trkpt lat="42.863417" lon="-0.717002">
        <ele>1577.9</ele>
        <time>2013-08-16T08:16:59Z</time>
      </trkpt>
      <trkpt lat="42.863472" lon="-0.716992">
        <ele>1575.7</ele>
        <time>2013-08-16T08:17:05Z</time>
      </trkpt>
      <trkpt lat="42.863527" lon="-0.716989">
        <ele>1574.5</ele>
        <time>2013-08-16T08:17:10Z</time>
      </trkpt>
      <trkpt lat="42.863547" lon="-0.716959">
        <ele>1573.5</ele>
        <time>2013-08-16T08:17:13Z</time>
      </trkpt>
      <trkpt lat="42.863608" lon="-0.716919">
        <ele>1571.5</ele>
        <time>2013-08-16T08:17:20Z</time>
      </trkpt>
      <trkpt lat="42.863642" lon="-0.716900">
        <ele>1570.3</ele>
        <time>2013-08-16T08:17:24Z</time>
      </trkpt>
      <trkpt lat="42.863732" lon="-0.716818">
        <ele>1566.6</ele>
        <time>2013-08-16T08:17:36Z</time>
      </trkpt>
      <trkpt lat="42.863756" lon="-0.716803">
        <ele>1565.6</ele>
        <time>2013-08-16T08:17:59Z</time>
      </trkpt>
      <trkpt lat="42.863863" lon="-0.716758">
        <ele>1562.8</ele>
        <time>2013-08-16T08:18:11Z</time>
      </trkpt>
      <trkpt lat="42.863868" lon="-0.716738">
        <ele>1562.1</ele>
        <time>2013-08-16T08:18:14Z</time>
      </trkpt>
      <trkpt lat="42.863871" lon="-0.716689">
        <ele>1560.4</ele>
        <time>2013-08-16T08:18:22Z</time>
      </trkpt>
      <trkpt lat="42.863858" lon="-0.716634">
        <ele>1559.4</ele>
        <time>2013-08-16T08:18:27Z</time>
      </trkpt>
      <trkpt lat="42.863845" lon="-0.716573">
        <ele>1558.0</ele>
        <time>2013-08-16T08:18:33Z</time>
      </trkpt>
      <trkpt lat="42.863777" lon="-0.716479">
        <ele>1554.9</ele>
        <time>2013-08-16T08:18:45Z</time>
      </trkpt>
      <trkpt lat="42.863743" lon="-0.716469">
        <ele>1554.5</ele>
        <time>2013-08-16T08:18:48Z</time>
      </trkpt>
      <trkpt lat="42.863686" lon="-0.716378">
        <ele>1551.0</ele>
        <time>2013-08-16T08:18:58Z</time>
      </trkpt>
      <trkpt lat="42.863685" lon="-0.716364">
        <ele>1550.4</ele>
        <time>2013-08-16T08:18:59Z</time>
      </trkpt>
      <trkpt lat="42.863721" lon="-0.716285">
        <ele>1548.9</ele>
        <time>2013-08-16T08:19:04Z</time>
      </trkpt>
      <trkpt lat="42.863735" lon="-0.716260">
        <ele>1548.5</ele>
        <time>2013-08-16T08:19:06Z</time>
      </trkpt>
      <trkpt lat="42.863798" lon="-0.716131">
        <ele>1546.0</ele>
        <time>2013-08-16T08:19:19Z</time>
      </trkpt>
      <trkpt lat="42.863798" lon="-0.716131">
        <ele>1546.0</ele>
        <time>2013-08-16T08:19:43Z</time>
      </trkpt>
      <trkpt lat="42.863799" lon="-0.716122">
        <ele>1546.0</ele>
        <time>2013-08-16T08:19:46Z</time>
      </trkpt>
      <trkpt lat="42.863787" lon="-0.716059">
        <ele>1547.1</ele>
        <time>2013-08-16T08:19:51Z</time>
      </trkpt>
      <trkpt lat="42.863802" lon="-0.716006">
        <ele>1547.6</ele>
        <time>2013-08-16T08:19:55Z</time>
      </trkpt>
      <trkpt lat="42.863817" lon="-0.715870">
        <ele>1547.4</ele>
        <time>2013-08-16T08:20:04Z</time>
      </trkpt>
      <trkpt lat="42.863748" lon="-0.715725">
        <ele>1546.1</ele>
        <time>2013-08-16T08:20:13Z</time>
      </trkpt>
      <trkpt lat="42.863686" lon="-0.715642">
        <ele>1545.4</ele>
        <time>2013-08-16T08:20:21Z</time>
      </trkpt>
      <trkpt lat="42.863654" lon="-0.715589">
        <ele>1545.3</ele>
        <time>2013-08-16T08:20:25Z</time>
      </trkpt>
      <trkpt lat="42.863669" lon="-0.715546">
        <ele>1545.2</ele>
        <time>2013-08-16T08:20:28Z</time>
      </trkpt>
      <trkpt lat="42.863688" lon="-0.715413">
        <ele>1545.7</ele>
        <time>2013-08-16T08:20:36Z</time>
      </trkpt>
      <trkpt lat="42.863563" lon="-0.715234">
        <ele>1544.9</ele>
        <time>2013-08-16T08:20:50Z</time>
      </trkpt>
      <trkpt lat="42.863505" lon="-0.715185">
        <ele>1545.6</ele>
        <time>2013-08-16T08:20:56Z</time>
      </trkpt>
      <trkpt lat="42.863565" lon="-0.715066">
        <ele>1545.0</ele>
        <time>2013-08-16T08:21:06Z</time>
      </trkpt>
      <trkpt lat="42.863654" lon="-0.714894">
        <ele>1545.1</ele>
        <time>2013-08-16T08:21:18Z</time>
      </trkpt>
      <trkpt lat="42.863676" lon="-0.714869">
        <ele>1545.5</ele>
        <time>2013-08-16T08:21:32Z</time>
      </trkpt>
      <trkpt lat="42.863697" lon="-0.714782">
        <ele>1547.0</ele>
        <time>2013-08-16T08:21:46Z</time>
      </trkpt>
      <trkpt lat="42.863634" lon="-0.714610">
        <ele>1547.0</ele>
        <time>2013-08-16T08:21:58Z</time>
      </trkpt>
      <trkpt lat="42.863572" lon="-0.714537">
        <ele>1546.1</ele>
        <time>2013-08-16T08:22:07Z</time>
      </trkpt>
      <trkpt lat="42.863530" lon="-0.714401">
        <ele>1544.3</ele>
        <time>2013-08-16T08:22:14Z</time>
      </trkpt>
      <trkpt lat="42.863514" lon="-0.714336">
        <ele>1545.2</ele>
        <time>2013-08-16T08:22:17Z</time>
      </trkpt>
      <trkpt lat="42.863441" lon="-0.714080">
        <ele>1544.0</ele>
        <time>2013-08-16T08:22:33Z</time>
      </trkpt>
      <trkpt lat="42.863405" lon="-0.713980">
        <ele>1544.6</ele>
        <time>2013-08-16T08:22:39Z</time>
      </trkpt>
      <trkpt lat="42.863342" lon="-0.713845">
        <ele>1544.1</ele>
        <time>2013-08-16T08:22:50Z</time>
      </trkpt>
      <trkpt lat="42.863326" lon="-0.713800">
        <ele>1544.4</ele>
        <time>2013-08-16T08:22:54Z</time>
      </trkpt>
      <trkpt lat="42.863314" lon="-0.713723">
        <ele>1545.0</ele>
        <time>2013-08-16T08:22:59Z</time>
      </trkpt>
      <trkpt lat="42.863318" lon="-0.713605">
        <ele>1546.0</ele>
        <time>2013-08-16T08:23:06Z</time>
      </trkpt>
      <trkpt lat="42.863304" lon="-0.713545">
        <ele>1546.6</ele>
        <time>2013-08-16T08:23:09Z</time>
      </trkpt>
      <trkpt lat="42.863276" lon="-0.713322">
        <ele>1547.6</ele>
        <time>2013-08-16T08:23:22Z</time>
      </trkpt>
      <trkpt lat="42.863286" lon="-0.713232">
        <ele>1548.5</ele>
        <time>2013-08-16T08:23:28Z</time>
      </trkpt>
      <trkpt lat="42.863227" lon="-0.712999">
        <ele>1549.3</ele>
        <time>2013-08-16T08:23:41Z</time>
      </trkpt>
      <trkpt lat="42.863167" lon="-0.712724">
        <ele>1549.5</ele>
        <time>2013-08-16T08:23:56Z</time>
      </trkpt>
      <trkpt lat="42.863135" lon="-0.712529">
        <ele>1550.0</ele>
        <time>2013-08-16T08:24:06Z</time>
      </trkpt>
      <trkpt lat="42.863100" lon="-0.712462">
        <ele>1549.8</ele>
        <time>2013-08-16T08:24:11Z</time>
      </trkpt>
      <trkpt lat="42.863100" lon="-0.712365">
        <ele>1549.8</ele>
        <time>2013-08-16T08:24:16Z</time>
      </trkpt>
      <trkpt lat="42.863052" lon="-0.712165">
        <ele>1549.5</ele>
        <time>2013-08-16T08:24:28Z</time>
      </trkpt>
      <trkpt lat="42.863004" lon="-0.712002">
        <ele>1549.1</ele>
        <time>2013-08-16T08:24:38Z</time>
      </trkpt>
      <trkpt lat="42.862987" lon="-0.711934">
        <ele>1549.1</ele>
        <time>2013-08-16T08:24:42Z</time>
      </trkpt>
      <trkpt lat="42.862936" lon="-0.711692">
        <ele>1550.1</ele>
        <time>2013-08-16T08:24:56Z</time>
      </trkpt>
      <trkpt lat="42.862887" lon="-0.711583">
        <ele>1550.5</ele>
        <time>2013-08-16T08:25:03Z</time>
      </trkpt>
      <trkpt lat="42.862761" lon="-0.711428">
        <ele>1550.2</ele>
        <time>2013-08-16T08:25:17Z</time>
      </trkpt>
      <trkpt lat="42.862678" lon="-0.711283">
        <ele>1547.6</ele>
        <time>2013-08-16T08:25:28Z</time>
      </trkpt>
      <trkpt lat="42.862585" lon="-0.711045">
        <ele>1544.4</ele>
        <time>2013-08-16T08:25:43Z</time>
      </trkpt>
      <trkpt lat="42.862569" lon="-0.710943">
        <ele>1544.0</ele>
        <time>2013-08-16T08:25:49Z</time>
      </trkpt>
      <trkpt lat="42.862557" lon="-0.710865">
        <ele>1544.3</ele>
        <time>2013-08-16T08:25:54Z</time>
      </trkpt>
      <trkpt lat="42.862570" lon="-0.710663">
        <ele>1544.7</ele>
        <time>2013-08-16T08:26:06Z</time>
      </trkpt>
      <trkpt lat="42.862573" lon="-0.710498">
        <ele>1544.0</ele>
        <time>2013-08-16T08:26:17Z</time>
      </trkpt>
      <trkpt lat="42.862590" lon="-0.710299">
        <ele>1544.2</ele>
        <time>2013-08-16T08:26:27Z</time>
      </trkpt>
      <trkpt lat="42.862516" lon="-0.709981">
        <ele>1542.7</ele>
        <time>2013-08-16T08:30:12Z</time>
      </trkpt>
      <trkpt lat="42.862463" lon="-0.709787">
        <ele>1540.6</ele>
        <time>2013-08-16T08:30:25Z</time>
      </trkpt>
      <trkpt lat="42.862376" lon="-0.709650">
        <ele>1538.5</ele>
        <time>2013-08-16T08:30:35Z</time>
      </trkpt>
      <trkpt lat="42.862342" lon="-0.709611">
        <ele>1537.9</ele>
        <time>2013-08-16T08:30:39Z</time>
      </trkpt>
      <trkpt lat="42.862331" lon="-0.709606">
        <ele>1537.8</ele>
        <time>2013-08-16T08:30:55Z</time>
      </trkpt>
      <trkpt lat="42.862331" lon="-0.709606">
        <ele>1537.8</ele>
        <time>2013-08-16T08:31:00Z</time>
      </trkpt>
      <trkpt lat="42.862230" lon="-0.709497">
        <ele>1536.9</ele>
        <time>2013-08-16T08:31:12Z</time>
      </trkpt>
      <trkpt lat="42.862109" lon="-0.709280">
        <ele>1533.4</ele>
        <time>2013-08-16T08:31:26Z</time>
      </trkpt>
      <trkpt lat="42.862026" lon="-0.709196">
        <ele>1530.9</ele>
        <time>2013-08-16T08:31:36Z</time>
      </trkpt>
      <trkpt lat="42.861930" lon="-0.709103">
        <ele>1530.2</ele>
        <time>2013-08-16T08:31:44Z</time>
      </trkpt>
      <trkpt lat="42.861899" lon="-0.709051">
        <ele>1529.8</ele>
        <time>2013-08-16T08:31:47Z</time>
      </trkpt>
      <trkpt lat="42.861743" lon="-0.708913">
        <ele>1527.6</ele>
        <time>2013-08-16T08:32:02Z</time>
      </trkpt>
      <trkpt lat="42.861574" lon="-0.708782">
        <ele>1524.9</ele>
        <time>2013-08-16T08:32:16Z</time>
      </trkpt>
      <trkpt lat="42.861542" lon="-0.708736">
        <ele>1524.8</ele>
        <time>2013-08-16T08:32:21Z</time>
      </trkpt>
      <trkpt lat="42.861495" lon="-0.708644">
        <ele>1523.4</ele>
        <time>2013-08-16T08:32:29Z</time>
      </trkpt>
      <trkpt lat="42.861405" lon="-0.708508">
        <ele>1521.2</ele>
        <time>2013-08-16T08:32:42Z</time>
      </trkpt>
      <trkpt lat="42.861259" lon="-0.708373">
        <ele>1519.8</ele>
        <time>2013-08-16T08:32:57Z</time>
      </trkpt>
      <trkpt lat="42.861100" lon="-0.708210">
        <ele>1514.8</ele>
        <time>2013-08-16T08:33:11Z</time>
      </trkpt>
      <trkpt lat="42.861020" lon="-0.708101">
        <ele>1513.3</ele>
        <time>2013-08-16T08:33:22Z</time>
      </trkpt>
      <trkpt lat="42.860894" lon="-0.707966">
        <ele>1510.2</ele>
        <time>2013-08-16T08:33:34Z</time>
      </trkpt>
      <trkpt lat="42.860755" lon="-0.707793">
        <ele>1507.2</ele>
        <time>2013-08-16T08:33:47Z</time>
      </trkpt>
      <trkpt lat="42.860637" lon="-0.707604">
        <ele>1504.6</ele>
        <time>2013-08-16T08:34:03Z</time>
      </trkpt>
      <trkpt lat="42.860592" lon="-0.707492">
        <ele>1504.0</ele>
        <time>2013-08-16T08:34:12Z</time>
      </trkpt>
      <trkpt lat="42.860527" lon="-0.707397">
        <ele>1502.6</ele>
        <time>2013-08-16T08:34:24Z</time>
      </trkpt>
      <trkpt lat="42.860527" lon="-0.707397">
        <ele>1502.6</ele>
        <time>2013-08-16T08:34:36Z</time>
      </trkpt>
      <trkpt lat="42.860494" lon="-0.707359">
        <ele>1501.9</ele>
        <time>2013-08-16T08:34:40Z</time>
      </trkpt>
      <trkpt lat="42.860463" lon="-0.707315">
        <ele>1501.2</ele>
        <time>2013-08-16T08:34:56Z</time>
      </trkpt>
      <trkpt lat="42.860463" lon="-0.707315">
        <ele>1501.2</ele>
        <time>2013-08-16T08:35:07Z</time>
      </trkpt>
      <trkpt lat="42.860417" lon="-0.707243">
        <ele>1500.0</ele>
        <time>2013-08-16T08:35:15Z</time>
      </trkpt>
      <trkpt lat="42.860377" lon="-0.707226">
        <ele>1499.3</ele>
        <time>2013-08-16T08:35:19Z</time>
      </trkpt>
      <trkpt lat="42.860321" lon="-0.707165">
        <ele>1497.1</ele>
        <time>2013-08-16T08:35:27Z</time>
      </trkpt>
      <trkpt lat="42.860263" lon="-0.707140">
        <ele>1495.0</ele>
        <time>2013-08-16T08:35:32Z</time>
      </trkpt>
      <trkpt lat="42.860230" lon="-0.707112">
        <ele>1493.7</ele>
        <time>2013-08-16T08:35:35Z</time>
      </trkpt>
      <trkpt lat="42.860176" lon="-0.707076">
        <ele>1492.2</ele>
        <time>2013-08-16T08:35:40Z</time>
      </trkpt>
      <trkpt lat="42.860141" lon="-0.707043">
        <ele>1491.5</ele>
        <time>2013-08-16T08:35:45Z</time>
      </trkpt>
      <trkpt lat="42.859987" lon="-0.707000">
        <ele>1488.1</ele>
        <time>2013-08-16T08:35:58Z</time>
      </trkpt>
      <trkpt lat="42.859955" lon="-0.706986">
        <ele>1487.4</ele>
        <time>2013-08-16T08:36:02Z</time>
      </trkpt>
      <trkpt lat="42.859877" lon="-0.706934">
        <ele>1485.6</ele>
        <time>2013-08-16T08:36:08Z</time>
      </trkpt>
      <trkpt lat="42.859731" lon="-0.706848">
        <ele>1481.2</ele>
        <time>2013-08-16T08:36:21Z</time>
      </trkpt>
      <trkpt lat="42.859689" lon="-0.706821">
        <ele>1480.2</ele>
        <time>2013-08-16T08:36:25Z</time>
      </trkpt>
      <trkpt lat="42.859673" lon="-0.706810">
        <ele>1479.7</ele>
        <time>2013-08-16T08:36:27Z</time>
      </trkpt>
      <trkpt lat="42.859525" lon="-0.706717">
        <ele>1475.7</ele>
        <time>2013-08-16T08:36:40Z</time>
      </trkpt>
      <trkpt lat="42.859467" lon="-0.706693">
        <ele>1473.9</ele>
        <time>2013-08-16T08:36:44Z</time>
      </trkpt>
      <trkpt lat="42.859317" lon="-0.706665">
        <ele>1469.7</ele>
        <time>2013-08-16T08:36:56Z</time>
      </trkpt>
      <trkpt lat="42.859304" lon="-0.706665">
        <ele>1469.7</ele>
        <time>2013-08-16T08:36:57Z</time>
      </trkpt>
      <trkpt lat="42.859249" lon="-0.706635">
        <ele>1468.1</ele>
        <time>2013-08-16T08:37:02Z</time>
      </trkpt>
      <trkpt lat="42.859105" lon="-0.706527">
        <ele>1465.9</ele>
        <time>2013-08-16T08:37:15Z</time>
      </trkpt>
      <trkpt lat="42.858994" lon="-0.706395">
        <ele>1462.5</ele>
        <time>2013-08-16T08:37:25Z</time>
      </trkpt>
      <trkpt lat="42.858912" lon="-0.706352">
        <ele>1462.2</ele>
        <time>2013-08-16T08:37:33Z</time>
      </trkpt>
      <trkpt lat="42.858827" lon="-0.706256">
        <ele>1460.8</ele>
        <time>2013-08-16T08:37:44Z</time>
      </trkpt>
      <trkpt lat="42.858773" lon="-0.706161">
        <ele>1458.3</ele>
        <time>2013-08-16T08:37:51Z</time>
      </trkpt>
      <trkpt lat="42.858680" lon="-0.706031">
        <ele>1455.1</ele>
        <time>2013-08-16T08:38:03Z</time>
      </trkpt>
      <trkpt lat="42.858661" lon="-0.705989">
        <ele>1454.1</ele>
        <time>2013-08-16T08:38:05Z</time>
      </trkpt>
      <trkpt lat="42.858613" lon="-0.705924">
        <ele>1452.6</ele>
        <time>2013-08-16T08:38:09Z</time>
      </trkpt>
      <trkpt lat="42.858599" lon="-0.705913">
        <ele>1452.2</ele>
        <time>2013-08-16T08:38:10Z</time>
      </trkpt>
      <trkpt lat="42.858418" lon="-0.705778">
        <ele>1449.1</ele>
        <time>2013-08-16T08:38:26Z</time>
      </trkpt>
      <trkpt lat="42.858365" lon="-0.705705">
        <ele>1448.0</ele>
        <time>2013-08-16T08:38:39Z</time>
      </trkpt>
      <trkpt lat="42.858349" lon="-0.705662">
        <ele>1447.2</ele>
        <time>2013-08-16T08:39:07Z</time>
      </trkpt>
      <trkpt lat="42.858303" lon="-0.705582">
        <ele>1444.4</ele>
        <time>2013-08-16T08:39:15Z</time>
      </trkpt>
      <trkpt lat="42.858287" lon="-0.705495">
        <ele>1442.5</ele>
        <time>2013-08-16T08:39:23Z</time>
      </trkpt>
      <trkpt lat="42.858285" lon="-0.705484">
        <ele>1442.2</ele>
        <time>2013-08-16T08:39:24Z</time>
      </trkpt>
      <trkpt lat="42.858270" lon="-0.705438">
        <ele>1440.4</ele>
        <time>2013-08-16T08:39:29Z</time>
      </trkpt>
      <trkpt lat="42.858268" lon="-0.705427">
        <ele>1440.0</ele>
        <time>2013-08-16T08:39:41Z</time>
      </trkpt>
      <trkpt lat="42.858284" lon="-0.705326">
        <ele>1437.7</ele>
        <time>2013-08-16T08:40:09Z</time>
      </trkpt>
      <trkpt lat="42.858290" lon="-0.705311">
        <ele>1437.6</ele>
        <time>2013-08-16T08:40:10Z</time>
      </trkpt>
      <trkpt lat="42.858344" lon="-0.705152">
        <ele>1433.1</ele>
        <time>2013-08-16T08:40:21Z</time>
      </trkpt>
      <trkpt lat="42.858358" lon="-0.705042">
        <ele>1430.6</ele>
        <time>2013-08-16T08:40:28Z</time>
      </trkpt>
      <trkpt lat="42.858351" lon="-0.704998">
        <ele>1429.1</ele>
        <time>2013-08-16T08:40:31Z</time>
      </trkpt>
      <trkpt lat="42.858357" lon="-0.704854">
        <ele>1426.4</ele>
        <time>2013-08-16T08:40:44Z</time>
      </trkpt>
      <trkpt lat="42.858357" lon="-0.704854">
        <ele>1426.4</ele>
        <time>2013-08-16T08:41:07Z</time>
      </trkpt>
      <trkpt lat="42.858357" lon="-0.704854">
        <ele>1426.4</ele>
        <time>2013-08-16T08:41:08Z</time>
      </trkpt>
      <trkpt lat="42.858361" lon="-0.704821">
        <ele>1425.6</ele>
        <time>2013-08-16T08:41:10Z</time>
      </trkpt>
      <trkpt lat="42.858376" lon="-0.704688">
        <ele>1422.7</ele>
        <time>2013-08-16T08:41:18Z</time>
      </trkpt>
      <trkpt lat="42.858328" lon="-0.704459">
        <ele>1417.8</ele>
        <time>2013-08-16T08:44:01Z</time>
      </trkpt>
      <trkpt lat="42.858288" lon="-0.704421">
        <ele>1416.9</ele>
        <time>2013-08-16T08:44:05Z</time>
      </trkpt>
      <trkpt lat="42.858138" lon="-0.704344">
        <ele>1414.6</ele>
        <time>2013-08-16T08:44:18Z</time>
      </trkpt>
      <trkpt lat="42.858028" lon="-0.704254">
        <ele>1412.7</ele>
        <time>2013-08-16T08:44:29Z</time>
      </trkpt>
      <trkpt lat="42.857909" lon="-0.704107">
        <ele>1409.1</ele>
        <time>2013-08-16T08:44:40Z</time>
      </trkpt>
      <trkpt lat="42.857828" lon="-0.703971">
        <ele>1406.8</ele>
        <time>2013-08-16T08:44:52Z</time>
      </trkpt>
      <trkpt lat="42.857775" lon="-0.703908">
        <ele>1404.7</ele>
        <time>2013-08-16T08:44:57Z</time>
      </trkpt>
      <trkpt lat="42.857734" lon="-0.703851">
        <ele>1403.8</ele>
        <time>2013-08-16T08:45:01Z</time>
      </trkpt>
      <trkpt lat="42.857698" lon="-0.703639">
        <ele>1401.5</ele>
        <time>2013-08-16T08:45:16Z</time>
      </trkpt>
      <trkpt lat="42.857675" lon="-0.703388">
        <ele>1398.2</ele>
        <time>2013-08-16T08:45:28Z</time>
      </trkpt>
      <trkpt lat="42.857679" lon="-0.703181">
        <ele>1396.9</ele>
        <time>2013-08-16T08:45:41Z</time>
      </trkpt>
      <trkpt lat="42.857734" lon="-0.703013">
        <ele>1395.4</ele>
        <time>2013-08-16T08:45:53Z</time>
      </trkpt>
      <trkpt lat="42.857741" lon="-0.702976">
        <ele>1395.0</ele>
        <time>2013-08-16T08:46:01Z</time>
      </trkpt>
      <trkpt lat="42.857732" lon="-0.702943">
        <ele>1394.3</ele>
        <time>2013-08-16T08:46:08Z</time>
      </trkpt>
      <trkpt lat="42.857632" lon="-0.702811">
        <ele>1389.9</ele>
        <time>2013-08-16T08:46:21Z</time>
      </trkpt>
      <trkpt lat="42.857588" lon="-0.702801">
        <ele>1389.7</ele>
        <time>2013-08-16T08:46:33Z</time>
      </trkpt>
      <trkpt lat="42.857587" lon="-0.702803">
        <ele>1389.7</ele>
        <time>2013-08-16T08:47:18Z</time>
      </trkpt>
      <trkpt lat="42.857566" lon="-0.702802">
        <ele>1389.2</ele>
        <time>2013-08-16T08:47:25Z</time>
      </trkpt>
      <trkpt lat="42.857535" lon="-0.702804">
        <ele>1388.6</ele>
        <time>2013-08-16T08:47:29Z</time>
      </trkpt>
      <trkpt lat="42.857477" lon="-0.702821">
        <ele>1387.5</ele>
        <time>2013-08-16T08:47:35Z</time>
      </trkpt>
      <trkpt lat="42.857457" lon="-0.702827">
        <ele>1387.1</ele>
        <time>2013-08-16T08:47:37Z</time>
      </trkpt>
      <trkpt lat="42.857420" lon="-0.702844">
        <ele>1386.6</ele>
        <time>2013-08-16T08:47:41Z</time>
      </trkpt>
      <trkpt lat="42.857402" lon="-0.702850">
        <ele>1386.2</ele>
        <time>2013-08-16T08:47:43Z</time>
      </trkpt>
      <trkpt lat="42.857383" lon="-0.702855">
        <ele>1385.9</ele>
        <time>2013-08-16T08:47:46Z</time>
      </trkpt>
      <trkpt lat="42.857359" lon="-0.702870">
        <ele>1385.6</ele>
        <time>2013-08-16T08:47:49Z</time>
      </trkpt>
      <trkpt lat="42.857342" lon="-0.702883">
        <ele>1385.4</ele>
        <time>2013-08-16T08:47:51Z</time>
      </trkpt>
      <trkpt lat="42.857284" lon="-0.702921">
        <ele>1384.7</ele>
        <time>2013-08-16T08:47:58Z</time>
      </trkpt>
      <trkpt lat="42.857263" lon="-0.702938">
        <ele>1384.3</ele>
        <time>2013-08-16T08:48:01Z</time>
      </trkpt>
      <trkpt lat="42.857144" lon="-0.703009">
        <ele>1381.9</ele>
        <time>2013-08-16T08:48:13Z</time>
      </trkpt>
      <trkpt lat="42.857133" lon="-0.703011">
        <ele>1381.5</ele>
        <time>2013-08-16T08:48:14Z</time>
      </trkpt>
      <trkpt lat="42.857096" lon="-0.702994">
        <ele>1380.0</ele>
        <time>2013-08-16T08:48:18Z</time>
      </trkpt>
      <trkpt lat="42.857116" lon="-0.702817">
        <ele>1377.7</ele>
        <time>2013-08-16T08:48:30Z</time>
      </trkpt>
      <trkpt lat="42.857120" lon="-0.702797">
        <ele>1377.6</ele>
        <time>2013-08-16T08:48:32Z</time>
      </trkpt>
      <trkpt lat="42.857135" lon="-0.702750">
        <ele>1377.1</ele>
        <time>2013-08-16T08:48:36Z</time>
      </trkpt>
      <trkpt lat="42.857153" lon="-0.702694">
        <ele>1376.4</ele>
        <time>2013-08-16T08:48:41Z</time>
      </trkpt>
      <trkpt lat="42.857163" lon="-0.702634">
        <ele>1375.4</ele>
        <time>2013-08-16T08:48:45Z</time>
      </trkpt>
      <trkpt lat="42.857056" lon="-0.702738">
        <ele>1374.6</ele>
        <time>2013-08-16T08:48:57Z</time>
      </trkpt>
      <trkpt lat="42.856904" lon="-0.702894">
        <ele>1372.2</ele>
        <time>2013-08-16T08:49:02Z</time>
      </trkpt>
      <trkpt lat="42.856873" lon="-0.702682">
        <ele>1367.6</ele>
        <time>2013-08-16T08:49:05Z</time>
      </trkpt>
      <trkpt lat="42.857028" lon="-0.702313">
        <ele>1364.2</ele>
        <time>2013-08-16T08:49:19Z</time>
      </trkpt>
      <trkpt lat="42.857096" lon="-0.702092">
        <ele>1361.2</ele>
        <time>2013-08-16T08:49:34Z</time>
      </trkpt>
      <trkpt lat="42.857182" lon="-0.701845">
        <ele>1359.3</ele>
        <time>2013-08-16T08:49:49Z</time>
      </trkpt>
      <trkpt lat="42.857190" lon="-0.701795">
        <ele>1358.6</ele>
        <time>2013-08-16T08:49:54Z</time>
      </trkpt>
      <trkpt lat="42.857129" lon="-0.701768">
        <ele>1357.7</ele>
        <time>2013-08-16T08:50:03Z</time>
      </trkpt>
      <trkpt lat="42.857033" lon="-0.701848">
        <ele>1356.2</ele>
        <time>2013-08-16T08:50:11Z</time>
      </trkpt>
      <trkpt lat="42.856876" lon="-0.701968">
        <ele>1353.8</ele>
        <time>2013-08-16T08:50:17Z</time>
      </trkpt>
      <trkpt lat="42.856720" lon="-0.701971">
        <ele>1348.8</ele>
        <time>2013-08-16T08:50:27Z</time>
      </trkpt>
      <trkpt lat="42.856752" lon="-0.701779">
        <ele>1347.3</ele>
        <time>2013-08-16T08:50:29Z</time>
      </trkpt>
      <trkpt lat="42.856772" lon="-0.701641">
        <ele>1345.2</ele>
        <time>2013-08-16T08:50:34Z</time>
      </trkpt>
      <trkpt lat="42.856794" lon="-0.701504">
        <ele>1343.0</ele>
        <time>2013-08-16T08:50:38Z</time>
      </trkpt>
      <trkpt lat="42.856804" lon="-0.701410">
        <ele>1342.0</ele>
        <time>2013-08-16T08:50:53Z</time>
      </trkpt>
      <trkpt lat="42.856814" lon="-0.701356">
        <ele>1341.2</ele>
        <time>2013-08-16T08:51:02Z</time>
      </trkpt>
      <trkpt lat="42.856822" lon="-0.701291">
        <ele>1339.9</ele>
        <time>2013-08-16T08:51:09Z</time>
      </trkpt>
      <trkpt lat="42.856836" lon="-0.701224">
        <ele>1339.5</ele>
        <time>2013-08-16T08:51:22Z</time>
      </trkpt>
      <trkpt lat="42.856833" lon="-0.701128">
        <ele>1336.9</ele>
        <time>2013-08-16T08:51:27Z</time>
      </trkpt>
      <trkpt lat="42.856812" lon="-0.701095">
        <ele>1335.6</ele>
        <time>2013-08-16T08:51:31Z</time>
      </trkpt>
      <trkpt lat="42.856819" lon="-0.701065">
        <ele>1335.1</ele>
        <time>2013-08-16T08:51:34Z</time>
      </trkpt>
      <trkpt lat="42.856848" lon="-0.700990">
        <ele>1334.1</ele>
        <time>2013-08-16T08:51:41Z</time>
      </trkpt>
      <trkpt lat="42.856877" lon="-0.700809">
        <ele>1330.9</ele>
        <time>2013-08-16T08:51:51Z</time>
      </trkpt>
      <trkpt lat="42.856888" lon="-0.700549">
        <ele>1327.5</ele>
        <time>2013-08-16T08:52:04Z</time>
      </trkpt>
      <trkpt lat="42.856846" lon="-0.700472">
        <ele>1326.3</ele>
        <time>2013-08-16T08:52:12Z</time>
      </trkpt>
      <trkpt lat="42.856773" lon="-0.700516">
        <ele>1324.9</ele>
        <time>2013-08-16T08:52:18Z</time>
      </trkpt>
      <trkpt lat="42.856607" lon="-0.700601">
        <ele>1320.6</ele>
        <time>2013-08-16T08:52:32Z</time>
      </trkpt>
      <trkpt lat="42.856571" lon="-0.700644">
        <ele>1319.7</ele>
        <time>2013-08-16T08:52:38Z</time>
      </trkpt>
      <trkpt lat="42.856522" lon="-0.700688">
        <ele>1318.8</ele>
        <time>2013-08-16T08:52:42Z</time>
      </trkpt>
      <trkpt lat="42.856502" lon="-0.700699">
        <ele>1318.4</ele>
        <time>2013-08-16T08:52:44Z</time>
      </trkpt>
      <trkpt lat="42.856387" lon="-0.700802">
        <ele>1316.5</ele>
        <time>2013-08-16T08:52:55Z</time>
      </trkpt>
      <trkpt lat="42.856363" lon="-0.700818">
        <ele>1316.1</ele>
        <time>2013-08-16T08:52:57Z</time>
      </trkpt>
      <trkpt lat="42.856360" lon="-0.700658">
        <ele>1313.3</ele>
        <time>2013-08-16T08:53:07Z</time>
      </trkpt>
      <trkpt lat="42.856377" lon="-0.700579">
        <ele>1312.4</ele>
        <time>2013-08-16T08:53:15Z</time>
      </trkpt>
      <trkpt lat="42.856393" lon="-0.700398">
        <ele>1310.1</ele>
        <time>2013-08-16T08:53:26Z</time>
      </trkpt>
      <trkpt lat="42.856383" lon="-0.700133">
        <ele>1307.7</ele>
        <time>2013-08-16T08:53:42Z</time>
      </trkpt>
      <trkpt lat="42.856378" lon="-0.699951">
        <ele>1305.0</ele>
        <time>2013-08-16T08:53:55Z</time>
      </trkpt>
      <trkpt lat="42.856384" lon="-0.699827">
        <ele>1303.6</ele>
        <time>2013-08-16T08:54:02Z</time>
      </trkpt>
      <trkpt lat="42.856341" lon="-0.699756">
        <ele>1301.1</ele>
        <time>2013-08-16T08:54:14Z</time>
      </trkpt>
      <trkpt lat="42.856307" lon="-0.699813">
        <ele>1299.7</ele>
        <time>2013-08-16T08:54:28Z</time>
      </trkpt>
      <trkpt lat="42.856273" lon="-0.699878">
        <ele>1298.3</ele>
        <time>2013-08-16T08:54:52Z</time>
      </trkpt>
      <trkpt lat="42.856255" lon="-0.699911">
        <ele>1297.6</ele>
        <time>2013-08-16T08:54:54Z</time>
      </trkpt>
      <trkpt lat="42.856148" lon="-0.700072">
        <ele>1294.7</ele>
        <time>2013-08-16T08:55:08Z</time>
      </trkpt>
      <trkpt lat="42.856095" lon="-0.700029">
        <ele>1292.6</ele>
        <time>2013-08-16T08:55:16Z</time>
      </trkpt>
      <trkpt lat="42.856086" lon="-0.699999">
        <ele>1291.8</ele>
        <time>2013-08-16T08:55:19Z</time>
      </trkpt>
      <trkpt lat="42.856072" lon="-0.699953">
        <ele>1290.5</ele>
        <time>2013-08-16T08:55:23Z</time>
      </trkpt>
      <trkpt lat="42.856059" lon="-0.699895">
        <ele>1289.5</ele>
        <time>2013-08-16T08:55:28Z</time>
      </trkpt>
      <trkpt lat="42.855991" lon="-0.699748">
        <ele>1285.7</ele>
        <time>2013-08-16T08:55:42Z</time>
      </trkpt>
      <trkpt lat="42.855968" lon="-0.699719">
        <ele>1284.6</ele>
        <time>2013-08-16T08:55:51Z</time>
      </trkpt>
      <trkpt lat="42.855899" lon="-0.699544">
        <ele>1280.4</ele>
        <time>2013-08-16T08:56:06Z</time>
      </trkpt>
      <trkpt lat="42.855879" lon="-0.699425">
        <ele>1278.1</ele>
        <time>2013-08-16T08:56:14Z</time>
      </trkpt>
      <trkpt lat="42.855868" lon="-0.699367">
        <ele>1276.9</ele>
        <time>2013-08-16T08:56:18Z</time>
      </trkpt>
      <trkpt lat="42.855820" lon="-0.699236">
        <ele>1274.4</ele>
        <time>2013-08-16T08:56:28Z</time>
      </trkpt>
      <trkpt lat="42.855731" lon="-0.699117">
        <ele>1270.8</ele>
        <time>2013-08-16T08:56:42Z</time>
      </trkpt>
      <trkpt lat="42.855740" lon="-0.699043">
        <ele>1269.8</ele>
        <time>2013-08-16T08:56:47Z</time>
      </trkpt>
      <trkpt lat="42.855732" lon="-0.698914">
        <ele>1266.1</ele>
        <time>2013-08-16T08:57:00Z</time>
      </trkpt>
      <trkpt lat="42.855737" lon="-0.698855">
        <ele>1264.5</ele>
        <time>2013-08-16T08:57:05Z</time>
      </trkpt>
      <trkpt lat="42.855742" lon="-0.698810">
        <ele>1263.3</ele>
        <time>2013-08-16T08:57:09Z</time>
      </trkpt>
      <trkpt lat="42.855762" lon="-0.698632">
        <ele>1259.6</ele>
        <time>2013-08-16T08:57:22Z</time>
      </trkpt>
      <trkpt lat="42.855753" lon="-0.698578">
        <ele>1257.9</ele>
        <time>2013-08-16T08:57:27Z</time>
      </trkpt>
      <trkpt lat="42.855745" lon="-0.698455">
        <ele>1255.1</ele>
        <time>2013-08-16T08:57:40Z</time>
      </trkpt>
      <trkpt lat="42.855736" lon="-0.698367">
        <ele>1252.9</ele>
        <time>2013-08-16T08:57:46Z</time>
      </trkpt>
      <trkpt lat="42.855729" lon="-0.698301">
        <ele>1251.5</ele>
        <time>2013-08-16T08:57:50Z</time>
      </trkpt>
      <trkpt lat="42.855724" lon="-0.698196">
        <ele>1249.8</ele>
        <time>2013-08-16T08:57:56Z</time>
      </trkpt>
      <trkpt lat="42.855692" lon="-0.698084">
        <ele>1246.5</ele>
        <time>2013-08-16T08:58:03Z</time>
      </trkpt>
      <trkpt lat="42.855578" lon="-0.697862">
        <ele>1242.9</ele>
        <time>2013-08-16T08:58:18Z</time>
      </trkpt>
      <trkpt lat="42.855522" lon="-0.697543">
        <ele>1240.0</ele>
        <time>2013-08-16T08:58:34Z</time>
      </trkpt>
      <trkpt lat="42.855452" lon="-0.697474">
        <ele>1238.0</ele>
        <time>2013-08-16T08:58:47Z</time>
      </trkpt>
      <trkpt lat="42.855382" lon="-0.697457">
        <ele>1235.9</ele>
        <time>2013-08-16T08:58:59Z</time>
      </trkpt>
      <trkpt lat="42.855309" lon="-0.697333">
        <ele>1232.7</ele>
        <time>2013-08-16T08:59:12Z</time>
      </trkpt>
      <trkpt lat="42.855265" lon="-0.697329">
        <ele>1230.7</ele>
        <time>2013-08-16T08:59:17Z</time>
      </trkpt>
      <trkpt lat="42.855251" lon="-0.697289">
        <ele>1229.8</ele>
        <time>2013-08-16T08:59:23Z</time>
      </trkpt>
      <trkpt lat="42.855250" lon="-0.697292">
        <ele>1229.8</ele>
        <time>2013-08-16T08:59:24Z</time>
      </trkpt>
      <trkpt lat="42.855224" lon="-0.697208">
        <ele>1229.0</ele>
        <time>2013-08-16T09:55:50Z</time>
      </trkpt>
      <trkpt lat="42.855188" lon="-0.697067">
        <ele>1239.0</ele>
        <time>2013-08-16T08:59:37Z</time>
      </trkpt>
      <trkpt lat="42.855189" lon="-0.697068">
        <ele>1239.0</ele>
        <time>2013-08-16T08:59:49Z</time>
      </trkpt>
      <trkpt lat="42.855159" lon="-0.696927">
        <ele>1238.3</ele>
        <time>2013-08-16T09:00:01Z</time>
      </trkpt>
      <trkpt lat="42.855150" lon="-0.696923">
        <ele>1238.3</ele>
        <time>2013-08-16T09:00:05Z</time>
      </trkpt>
      <trkpt lat="42.855063" lon="-0.696898">
        <ele>1239.3</ele>
        <time>2013-08-16T09:00:16Z</time>
      </trkpt>
      <trkpt lat="42.855044" lon="-0.696908">
        <ele>1239.8</ele>
        <time>2013-08-16T09:00:30Z</time>
      </trkpt>
      <trkpt lat="42.855044" lon="-0.696908">
        <ele>1240.2</ele>
        <time>2013-08-16T09:00:54Z</time>
      </trkpt>
      <trkpt lat="42.855054" lon="-0.696891">
        <ele>1240.2</ele>
        <time>2013-08-16T09:01:23Z</time>
      </trkpt>
      <trkpt lat="42.855065" lon="-0.696876">
        <ele>1240.2</ele>
        <time>2013-08-16T09:01:38Z</time>
      </trkpt>
      <trkpt lat="42.855079" lon="-0.696825">
        <ele>1240.2</ele>
        <time>2013-08-16T09:01:54Z</time>
      </trkpt>
      <trkpt lat="42.855063" lon="-0.696685">
        <ele>1240.2</ele>
        <time>2013-08-16T09:02:03Z</time>
      </trkpt>
      <trkpt lat="42.855059" lon="-0.696618">
        <ele>1240.2</ele>
        <time>2013-08-16T09:02:18Z</time>
      </trkpt>
      <trkpt lat="42.855059" lon="-0.696618">
        <ele>1240.2</ele>
        <time>2013-08-16T09:02:33Z</time>
      </trkpt>
      <trkpt lat="42.855034" lon="-0.696408">
        <ele>1239.8</ele>
        <time>2013-08-16T09:02:46Z</time>
      </trkpt>
      <trkpt lat="42.855027" lon="-0.696260">
        <ele>1239.8</ele>
        <time>2013-08-16T09:02:54Z</time>
      </trkpt>
      <trkpt lat="42.855020" lon="-0.696073">
        <ele>1239.8</ele>
        <time>2013-08-16T09:03:07Z</time>
      </trkpt>
      <trkpt lat="42.855002" lon="-0.695801">
        <ele>1239.8</ele>
        <time>2013-08-16T09:03:21Z</time>
      </trkpt>
      <trkpt lat="42.854994" lon="-0.695585">
        <ele>1240.2</ele>
        <time>2013-08-16T09:03:33Z</time>
      </trkpt>
      <trkpt lat="42.854979" lon="-0.695357">
        <ele>1241.2</ele>
        <time>2013-08-16T09:03:47Z</time>
      </trkpt>
      <trkpt lat="42.854970" lon="-0.695299">
        <ele>1241.2</ele>
        <time>2013-08-16T09:03:51Z</time>
      </trkpt>
      <trkpt lat="42.854959" lon="-0.695089">
        <ele>1242.6</ele>
        <time>2013-08-16T09:04:05Z</time>
      </trkpt>
      <trkpt lat="42.854966" lon="-0.694918">
        <ele>1243.6</ele>
        <time>2013-08-16T09:04:16Z</time>
      </trkpt>
      <trkpt lat="42.854972" lon="-0.694635">
        <ele>1245.0</ele>
        <time>2013-08-16T09:04:32Z</time>
      </trkpt>
      <trkpt lat="42.855003" lon="-0.694401">
        <ele>1246.0</ele>
        <time>2013-08-16T09:04:45Z</time>
      </trkpt>
      <trkpt lat="42.855031" lon="-0.694163">
        <ele>1246.5</ele>
        <time>2013-08-16T09:04:58Z</time>
      </trkpt>
      <trkpt lat="42.855047" lon="-0.693909">
        <ele>1246.5</ele>
        <time>2013-08-16T09:05:12Z</time>
      </trkpt>
      <trkpt lat="42.855047" lon="-0.693899">
        <ele>1247.4</ele>
        <time>2013-08-16T09:05:13Z</time>
      </trkpt>
      <trkpt lat="42.855099" lon="-0.693590">
        <ele>1247.4</ele>
        <time>2013-08-16T09:05:31Z</time>
      </trkpt>
      <trkpt lat="42.855149" lon="-0.693327">
        <ele>1248.4</ele>
        <time>2013-08-16T09:05:45Z</time>
      </trkpt>
      <trkpt lat="42.855172" lon="-0.693046">
        <ele>1249.4</ele>
        <time>2013-08-16T09:06:01Z</time>
      </trkpt>
      <trkpt lat="42.855182" lon="-0.693001">
        <ele>1249.4</ele>
        <time>2013-08-16T09:06:04Z</time>
      </trkpt>
      <trkpt lat="42.855211" lon="-0.692923">
        <ele>1249.4</ele>
        <time>2013-08-16T09:06:08Z</time>
      </trkpt>
      <trkpt lat="42.855216" lon="-0.692632">
        <ele>1249.8</ele>
        <time>2013-08-16T09:06:24Z</time>
      </trkpt>
      <trkpt lat="42.855164" lon="-0.692331">
        <ele>1250.8</ele>
        <time>2013-08-16T09:06:39Z</time>
      </trkpt>
      <trkpt lat="42.855129" lon="-0.692088">
        <ele>1251.3</ele>
        <time>2013-08-16T09:06:54Z</time>
      </trkpt>
      <trkpt lat="42.855087" lon="-0.691880">
        <ele>1252.2</ele>
        <time>2013-08-16T09:07:06Z</time>
      </trkpt>
      <trkpt lat="42.855104" lon="-0.691658">
        <ele>1253.7</ele>
        <time>2013-08-16T09:07:19Z</time>
      </trkpt>
      <trkpt lat="42.855111" lon="-0.691526">
        <ele>1254.7</ele>
        <time>2013-08-16T09:07:27Z</time>
      </trkpt>
      <trkpt lat="42.855105" lon="-0.691244">
        <ele>1255.6</ele>
        <time>2013-08-16T09:07:41Z</time>
      </trkpt>
      <trkpt lat="42.855130" lon="-0.690925">
        <ele>1257.1</ele>
        <time>2013-08-16T09:07:58Z</time>
      </trkpt>
      <trkpt lat="42.855105" lon="-0.690731">
        <ele>1258.0</ele>
        <time>2013-08-16T09:08:09Z</time>
      </trkpt>
      <trkpt lat="42.855115" lon="-0.690341">
        <ele>1259.5</ele>
        <time>2013-08-16T09:08:27Z</time>
      </trkpt>
      <trkpt lat="42.855124" lon="-0.690136">
        <ele>1259.9</ele>
        <time>2013-08-16T09:08:40Z</time>
      </trkpt>
      <trkpt lat="42.855150" lon="-0.689816">
        <ele>1260.4</ele>
        <time>2013-08-16T09:08:56Z</time>
      </trkpt>
      <trkpt lat="42.855145" lon="-0.689763">
        <ele>1260.4</ele>
        <time>2013-08-16T09:09:00Z</time>
      </trkpt>
      <trkpt lat="42.855148" lon="-0.689448">
        <ele>1261.9</ele>
        <time>2013-08-16T09:09:16Z</time>
      </trkpt>
      <trkpt lat="42.855142" lon="-0.689175">
        <ele>1263.3</ele>
        <time>2013-08-16T09:09:30Z</time>
      </trkpt>
      <trkpt lat="42.855141" lon="-0.689093">
        <ele>1262.8</ele>
        <time>2013-08-16T09:09:34Z</time>
      </trkpt>
      <trkpt lat="42.855084" lon="-0.688766">
        <ele>1263.8</ele>
        <time>2013-08-16T09:09:51Z</time>
      </trkpt>
      <trkpt lat="42.855089" lon="-0.688643">
        <ele>1264.3</ele>
        <time>2013-08-16T09:09:58Z</time>
      </trkpt>
      <trkpt lat="42.855076" lon="-0.688566">
        <ele>1264.8</ele>
        <time>2013-08-16T09:10:02Z</time>
      </trkpt>
      <trkpt lat="42.855044" lon="-0.688323">
        <ele>1265.7</ele>
        <time>2013-08-16T09:10:17Z</time>
      </trkpt>
      <trkpt lat="42.855009" lon="-0.687990">
        <ele>1266.2</ele>
        <time>2013-08-16T09:10:32Z</time>
      </trkpt>
      <trkpt lat="42.854978" lon="-0.687739">
        <ele>1267.2</ele>
        <time>2013-08-16T09:10:47Z</time>
      </trkpt>
      <trkpt lat="42.855112" lon="-0.687395">
        <ele>1267.6</ele>
        <time>2013-08-16T09:11:04Z</time>
      </trkpt>
      <trkpt lat="42.855129" lon="-0.687360">
        <ele>1267.6</ele>
        <time>2013-08-16T09:11:06Z</time>
      </trkpt>
      <trkpt lat="42.855126" lon="-0.687301">
        <ele>1267.6</ele>
        <time>2013-08-16T09:11:11Z</time>
      </trkpt>
      <trkpt lat="42.855062" lon="-0.687225">
        <ele>1267.6</ele>
        <time>2013-08-16T09:11:17Z</time>
      </trkpt>
      <trkpt lat="42.855011" lon="-0.687163">
        <ele>1267.6</ele>
        <time>2013-08-16T09:11:22Z</time>
      </trkpt>
      <trkpt lat="42.854907" lon="-0.686951">
        <ele>1269.6</ele>
        <time>2013-08-16T09:11:37Z</time>
      </trkpt>
      <trkpt lat="42.854903" lon="-0.686835">
        <ele>1270.0</ele>
        <time>2013-08-16T09:11:43Z</time>
      </trkpt>
      <trkpt lat="42.854893" lon="-0.686757">
        <ele>1270.0</ele>
        <time>2013-08-16T09:11:48Z</time>
      </trkpt>
      <trkpt lat="42.854888" lon="-0.686621">
        <ele>1271.0</ele>
        <time>2013-08-16T09:11:56Z</time>
      </trkpt>
      <trkpt lat="42.854882" lon="-0.686589">
        <ele>1271.0</ele>
        <time>2013-08-16T09:11:58Z</time>
      </trkpt>
      <trkpt lat="42.854885" lon="-0.686482">
        <ele>1271.5</ele>
        <time>2013-08-16T09:12:03Z</time>
      </trkpt>
      <trkpt lat="42.854860" lon="-0.686212">
        <ele>1272.4</ele>
        <time>2013-08-16T09:12:18Z</time>
      </trkpt>
      <trkpt lat="42.854836" lon="-0.685968">
        <ele>1273.4</ele>
        <time>2013-08-16T09:12:33Z</time>
      </trkpt>
      <trkpt lat="42.854815" lon="-0.685690">
        <ele>1273.4</ele>
        <time>2013-08-16T09:12:48Z</time>
      </trkpt>
      <trkpt lat="42.854815" lon="-0.685588">
        <ele>1273.9</ele>
        <time>2013-08-16T09:12:54Z</time>
      </trkpt>
      <trkpt lat="42.854810" lon="-0.685367">
        <ele>1275.3</ele>
        <time>2013-08-16T09:13:10Z</time>
      </trkpt>
      <trkpt lat="42.854758" lon="-0.685072">
        <ele>1277.7</ele>
        <time>2013-08-16T09:21:49Z</time>
      </trkpt>
      <trkpt lat="42.854754" lon="-0.685045">
        <ele>1277.7</ele>
        <time>2013-08-16T09:21:51Z</time>
      </trkpt>
      <trkpt lat="42.854782" lon="-0.684945">
        <ele>1277.7</ele>
        <time>2013-08-16T09:22:06Z</time>
      </trkpt>
      <trkpt lat="42.854782" lon="-0.684945">
        <ele>1277.2</ele>
        <time>2013-08-16T09:22:24Z</time>
      </trkpt>
      <trkpt lat="42.854766" lon="-0.684819">
        <ele>1277.2</ele>
        <time>2013-08-16T09:22:33Z</time>
      </trkpt>
      <trkpt lat="42.854739" lon="-0.684764">
        <ele>1276.8</ele>
        <time>2013-08-16T09:22:37Z</time>
      </trkpt>
      <trkpt lat="42.854627" lon="-0.684618">
        <ele>1275.3</ele>
        <time>2013-08-16T09:22:49Z</time>
      </trkpt>
      <trkpt lat="42.854537" lon="-0.684339">
        <ele>1274.4</ele>
        <time>2013-08-16T09:23:04Z</time>
      </trkpt>
      <trkpt lat="42.854634" lon="-0.684108">
        <ele>1272.9</ele>
        <time>2013-08-16T09:23:17Z</time>
      </trkpt>
      <trkpt lat="42.854622" lon="-0.684074">
        <ele>1272.4</ele>
        <time>2013-08-16T09:23:21Z</time>
      </trkpt>
      <trkpt lat="42.854517" lon="-0.683985">
        <ele>1272.4</ele>
        <time>2013-08-16T09:23:30Z</time>
      </trkpt>
      <trkpt lat="42.854503" lon="-0.683904">
        <ele>1272.4</ele>
        <time>2013-08-16T09:23:34Z</time>
      </trkpt>
      <trkpt lat="42.854470" lon="-0.683614">
        <ele>1272.4</ele>
        <time>2013-08-16T09:23:48Z</time>
      </trkpt>
      <trkpt lat="42.854420" lon="-0.683292">
        <ele>1272.4</ele>
        <time>2013-08-16T09:24:04Z</time>
      </trkpt>
      <trkpt lat="42.854356" lon="-0.683099">
        <ele>1271.5</ele>
        <time>2013-08-16T09:24:19Z</time>
      </trkpt>
      <trkpt lat="42.854339" lon="-0.682888">
        <ele>1271.5</ele>
        <time>2013-08-16T09:24:30Z</time>
      </trkpt>
      <trkpt lat="42.854239" lon="-0.682679">
        <ele>1271.5</ele>
        <time>2013-08-16T09:24:42Z</time>
      </trkpt>
      <trkpt lat="42.854163" lon="-0.682353">
        <ele>1271.0</ele>
        <time>2013-08-16T09:24:58Z</time>
      </trkpt>
      <trkpt lat="42.854109" lon="-0.682163">
        <ele>1270.5</ele>
        <time>2013-08-16T09:25:09Z</time>
      </trkpt>
      <trkpt lat="42.853990" lon="-0.681819">
        <ele>1270.5</ele>
        <time>2013-08-16T09:25:27Z</time>
      </trkpt>
      <trkpt lat="42.853958" lon="-0.681611">
        <ele>1270.5</ele>
        <time>2013-08-16T09:25:41Z</time>
      </trkpt>
      <trkpt lat="42.853957" lon="-0.681588">
        <ele>1270.5</ele>
        <time>2013-08-16T09:25:42Z</time>
      </trkpt>
      <trkpt lat="42.853967" lon="-0.681343">
        <ele>1270.5</ele>
        <time>2013-08-16T09:25:53Z</time>
      </trkpt>
      <trkpt lat="42.853965" lon="-0.681314">
        <ele>1270.5</ele>
        <time>2013-08-16T09:25:55Z</time>
      </trkpt>
      <trkpt lat="42.853879" lon="-0.681087">
        <ele>1270.0</ele>
        <time>2013-08-16T09:26:09Z</time>
      </trkpt>
      <trkpt lat="42.853820" lon="-0.680881">
        <ele>1270.0</ele>
        <time>2013-08-16T09:26:22Z</time>
      </trkpt>
      <trkpt lat="42.853747" lon="-0.680619">
        <ele>1271.0</ele>
        <time>2013-08-16T09:26:37Z</time>
      </trkpt>
      <trkpt lat="42.853652" lon="-0.680302">
        <ele>1271.5</ele>
        <time>2013-08-16T09:26:54Z</time>
      </trkpt>
      <trkpt lat="42.853527" lon="-0.680006">
        <ele>1272.0</ele>
        <time>2013-08-16T09:27:11Z</time>
      </trkpt>
      <trkpt lat="42.853483" lon="-0.679814">
        <ele>1272.0</ele>
        <time>2013-08-16T09:27:21Z</time>
      </trkpt>
      <trkpt lat="42.853393" lon="-0.679602">
        <ele>1272.4</ele>
        <time>2013-08-16T09:27:36Z</time>
      </trkpt>
      <trkpt lat="42.853383" lon="-0.679463">
        <ele>1273.4</ele>
        <time>2013-08-16T09:27:46Z</time>
      </trkpt>
      <trkpt lat="42.853338" lon="-0.679381">
        <ele>1273.4</ele>
        <time>2013-08-16T09:27:51Z</time>
      </trkpt>
      <trkpt lat="42.853327" lon="-0.679325">
        <ele>1273.4</ele>
        <time>2013-08-16T09:27:54Z</time>
      </trkpt>
      <trkpt lat="42.853325" lon="-0.679161">
        <ele>1273.4</ele>
        <time>2013-08-16T09:28:04Z</time>
      </trkpt>
      <trkpt lat="42.853354" lon="-0.679065">
        <ele>1273.4</ele>
        <time>2013-08-16T09:28:11Z</time>
      </trkpt>
      <trkpt lat="42.853380" lon="-0.678991">
        <ele>1273.4</ele>
        <time>2013-08-16T09:28:16Z</time>
      </trkpt>
      <trkpt lat="42.853404" lon="-0.678767">
        <ele>1272.0</ele>
        <time>2013-08-16T09:28:29Z</time>
      </trkpt>
      <trkpt lat="42.853406" lon="-0.678734">
        <ele>1272.0</ele>
        <time>2013-08-16T09:28:31Z</time>
      </trkpt>
      <trkpt lat="42.853457" lon="-0.678625">
        <ele>1271.0</ele>
        <time>2013-08-16T09:28:39Z</time>
      </trkpt>
      <trkpt lat="42.853482" lon="-0.678560">
        <ele>1271.0</ele>
        <time>2013-08-16T09:28:44Z</time>
      </trkpt>
      <trkpt lat="42.853507" lon="-0.678465">
        <ele>1271.0</ele>
        <time>2013-08-16T09:28:56Z</time>
      </trkpt>
      <trkpt lat="42.853507" lon="-0.678465">
        <ele>1270.5</ele>
        <time>2013-08-16T09:29:20Z</time>
      </trkpt>
      <trkpt lat="42.853503" lon="-0.678462">
        <ele>1270.5</ele>
        <time>2013-08-16T09:29:23Z</time>
      </trkpt>
      <trkpt lat="42.853485" lon="-0.678443">
        <ele>1270.5</ele>
        <time>2013-08-16T09:29:25Z</time>
      </trkpt>
      <trkpt lat="42.853404" lon="-0.678357">
        <ele>1270.5</ele>
        <time>2013-08-16T09:29:38Z</time>
      </trkpt>
      <trkpt lat="42.853349" lon="-0.678309">
        <ele>1271.5</ele>
        <time>2013-08-16T09:29:44Z</time>
      </trkpt>
      <trkpt lat="42.853229" lon="-0.678244">
        <ele>1270.0</ele>
        <time>2013-08-16T09:29:55Z</time>
      </trkpt>
      <trkpt lat="42.853187" lon="-0.678178">
        <ele>1270.0</ele>
        <time>2013-08-16T09:30:01Z</time>
      </trkpt>
      <trkpt lat="42.853080" lon="-0.677998">
        <ele>1271.0</ele>
        <time>2013-08-16T09:30:14Z</time>
      </trkpt>
      <trkpt lat="42.853031" lon="-0.677839">
        <ele>1271.0</ele>
        <time>2013-08-16T09:30:26Z</time>
      </trkpt>
      <trkpt lat="42.853036" lon="-0.677601">
        <ele>1270.0</ele>
        <time>2013-08-16T09:30:39Z</time>
      </trkpt>
      <trkpt lat="42.853036" lon="-0.677343">
        <ele>1267.0</ele>
        <time>2017-08-10T12:28:05Z</time>
      </trkpt>
      <trkpt lat="42.853035" lon="-0.677342">
        <ele>1267.0</ele>
        <time>2017-08-10T12:28:19Z</time>
      </trkpt>
      <trkpt lat="42.852965" lon="-0.677033">
        <ele>1265.2</ele>
        <time>2017-08-10T12:28:34Z</time>
      </trkpt>
      <trkpt lat="42.852876" lon="-0.676641">
        <ele>1266.7</ele>
        <time>2017-08-10T12:28:51Z</time>
      </trkpt>
      <trkpt lat="42.852859" lon="-0.676522">
        <ele>1266.7</ele>
        <time>2017-08-10T12:28:57Z</time>
      </trkpt>
      <trkpt lat="42.852834" lon="-0.676403">
        <ele>1267.2</ele>
        <time>2017-08-10T12:29:05Z</time>
      </trkpt>
      <trkpt lat="42.852828" lon="-0.676363">
        <ele>1267.2</ele>
        <time>2017-08-10T12:29:08Z</time>
      </trkpt>
      <trkpt lat="42.852840" lon="-0.676053">
        <ele>1267.6</ele>
        <time>2017-08-10T12:29:24Z</time>
      </trkpt>
      <trkpt lat="42.852803" lon="-0.675961">
        <ele>1269.1</ele>
        <time>2017-08-10T12:29:29Z</time>
      </trkpt>
      <trkpt lat="42.852645" lon="-0.675780">
        <ele>1269.1</ele>
        <time>2017-08-10T12:29:41Z</time>
      </trkpt>
      <trkpt lat="42.852627" lon="-0.675678">
        <ele>1269.1</ele>
        <time>2017-08-10T12:29:47Z</time>
      </trkpt>
      <trkpt lat="42.852577" lon="-0.675493">
        <ele>1269.1</ele>
        <time>2017-08-10T12:29:58Z</time>
      </trkpt>
      <trkpt lat="42.852518" lon="-0.675148">
        <ele>1269.1</ele>
        <time>2017-08-10T12:30:14Z</time>
      </trkpt>
      <trkpt lat="42.852482" lon="-0.674962">
        <ele>1268.6</ele>
        <time>2017-08-10T12:30:23Z</time>
      </trkpt>
      <trkpt lat="42.852453" lon="-0.674883">
        <ele>1267.2</ele>
        <time>2017-08-10T12:30:30Z</time>
      </trkpt>
      <trkpt lat="42.852372" lon="-0.674736">
        <ele>1267.2</ele>
        <time>2017-08-10T12:30:41Z</time>
      </trkpt>
      <trkpt lat="42.852342" lon="-0.674664">
        <ele>1267.2</ele>
        <time>2017-08-10T12:30:45Z</time>
      </trkpt>
      <trkpt lat="42.852261" lon="-0.674337">
        <ele>1268.1</ele>
        <time>2017-08-10T12:31:00Z</time>
      </trkpt>
      <trkpt lat="42.852234" lon="-0.674036">
        <ele>1269.1</ele>
        <time>2017-08-10T12:31:14Z</time>
      </trkpt>
      <trkpt lat="42.852184" lon="-0.673891">
        <ele>1270.0</ele>
        <time>2017-08-10T12:31:24Z</time>
      </trkpt>
      <trkpt lat="42.852176" lon="-0.673879">
        <ele>1270.5</ele>
        <time>2017-08-10T12:31:25Z</time>
      </trkpt>
      <trkpt lat="42.852051" lon="-0.673583">
        <ele>1272.4</ele>
        <time>2017-08-10T12:31:39Z</time>
      </trkpt>
      <trkpt lat="42.851983" lon="-0.673364">
        <ele>1273.4</ele>
        <time>2017-08-10T12:31:53Z</time>
      </trkpt>
      <trkpt lat="42.851845" lon="-0.673187">
        <ele>1273.4</ele>
        <time>2017-08-10T12:32:05Z</time>
      </trkpt>
      <trkpt lat="42.851823" lon="-0.673128">
        <ele>1274.4</ele>
        <time>2017-08-10T12:32:08Z</time>
      </trkpt>
      <trkpt lat="42.851809" lon="-0.673068">
        <ele>1274.4</ele>
        <time>2017-08-10T12:32:13Z</time>
      </trkpt>
      <trkpt lat="42.851761" lon="-0.672915">
        <ele>1274.8</ele>
        <time>2017-08-10T12:32:24Z</time>
      </trkpt>
      <trkpt lat="42.851746" lon="-0.672827">
        <ele>1275.3</ele>
        <time>2017-08-10T12:32:28Z</time>
      </trkpt>
      <trkpt lat="42.851724" lon="-0.672683">
        <ele>1276.3</ele>
        <time>2017-08-10T12:32:36Z</time>
      </trkpt>
      <trkpt lat="42.851688" lon="-0.672639">
        <ele>1276.8</ele>
        <time>2017-08-10T12:32:40Z</time>
      </trkpt>
      <trkpt lat="42.851658" lon="-0.672578">
        <ele>1276.8</ele>
        <time>2017-08-10T12:32:44Z</time>
      </trkpt>
      <trkpt lat="42.851595" lon="-0.672521">
        <ele>1276.8</ele>
        <time>2017-08-10T12:32:51Z</time>
      </trkpt>
      <trkpt lat="42.851583" lon="-0.672509">
        <ele>1277.2</ele>
        <time>2017-08-10T12:32:53Z</time>
      </trkpt>
      <trkpt lat="42.851490" lon="-0.672466">
        <ele>1278.7</ele>
        <time>2017-08-10T12:33:03Z</time>
      </trkpt>
      <trkpt lat="42.851438" lon="-0.672341">
        <ele>1278.7</ele>
        <time>2017-08-10T12:33:10Z</time>
      </trkpt>
      <trkpt lat="42.851423" lon="-0.672280">
        <ele>1278.7</ele>
        <time>2017-08-10T12:33:14Z</time>
      </trkpt>
      <trkpt lat="42.851395" lon="-0.672222">
        <ele>1279.2</ele>
        <time>2017-08-10T12:33:18Z</time>
      </trkpt>
      <trkpt lat="42.851308" lon="-0.672024">
        <ele>1280.1</ele>
        <time>2017-08-10T12:33:28Z</time>
      </trkpt>
      <trkpt lat="42.851274" lon="-0.671782">
        <ele>1280.6</ele>
        <time>2017-08-10T12:33:42Z</time>
      </trkpt>
      <trkpt lat="42.851215" lon="-0.671563">
        <ele>1280.6</ele>
        <time>2017-08-10T12:33:54Z</time>
      </trkpt>
      <trkpt lat="42.851187" lon="-0.671308">
        <ele>1280.6</ele>
        <time>2017-08-10T12:34:06Z</time>
      </trkpt>
      <trkpt lat="42.851147" lon="-0.670976">
        <ele>1281.1</ele>
        <time>2017-08-10T12:34:20Z</time>
      </trkpt>
      <trkpt lat="42.851035" lon="-0.670618">
        <ele>1282.5</ele>
        <time>2017-08-10T12:34:36Z</time>
      </trkpt>
      <trkpt lat="42.850950" lon="-0.670318">
        <ele>1284.0</ele>
        <time>2017-08-10T12:34:51Z</time>
      </trkpt>
      <trkpt lat="42.850910" lon="-0.670249">
        <ele>1284.0</ele>
        <time>2017-08-10T12:34:56Z</time>
      </trkpt>
      <trkpt lat="42.850821" lon="-0.670011">
        <ele>1285.4</ele>
        <time>2017-08-10T12:35:11Z</time>
      </trkpt>
      <trkpt lat="42.850737" lon="-0.669756">
        <ele>1286.9</ele>
        <time>2017-08-10T12:35:23Z</time>
      </trkpt>
      <trkpt lat="42.850643" lon="-0.669448">
        <ele>1289.3</ele>
        <time>2017-08-10T12:35:40Z</time>
      </trkpt>
      <trkpt lat="42.850587" lon="-0.669215">
        <ele>1291.2</ele>
        <time>2017-08-10T12:35:52Z</time>
      </trkpt>
      <trkpt lat="42.850527" lon="-0.669134">
        <ele>1291.7</ele>
        <time>2017-08-10T12:35:58Z</time>
      </trkpt>
      <trkpt lat="42.850436" lon="-0.668997">
        <ele>1292.6</ele>
        <time>2017-08-10T12:36:05Z</time>
      </trkpt>
      <trkpt lat="42.850354" lon="-0.668914">
        <ele>1293.1</ele>
        <time>2017-08-10T12:36:14Z</time>
      </trkpt>
      <trkpt lat="42.850228" lon="-0.668784">
        <ele>1294.1</ele>
        <time>2017-08-10T12:36:29Z</time>
      </trkpt>
      <trkpt lat="42.850159" lon="-0.668680">
        <ele>1295.5</ele>
        <time>2017-08-10T12:36:37Z</time>
      </trkpt>
      <trkpt lat="42.850124" lon="-0.668591">
        <ele>1295.5</ele>
        <time>2017-08-10T12:36:43Z</time>
      </trkpt>
      <trkpt lat="42.850008" lon="-0.668418">
        <ele>1295.5</ele>
        <time>2017-08-10T12:36:56Z</time>
      </trkpt>
      <trkpt lat="42.849947" lon="-0.668319">
        <ele>1295.5</ele>
        <time>2017-08-10T12:37:03Z</time>
      </trkpt>
      <trkpt lat="42.849894" lon="-0.668266">
        <ele>1295.5</ele>
        <time>2017-08-10T12:37:07Z</time>
      </trkpt>
      <trkpt lat="42.849859" lon="-0.668082">
        <ele>1295.0</ele>
        <time>2017-08-10T12:37:16Z</time>
      </trkpt>
      <trkpt lat="42.849789" lon="-0.667874">
        <ele>1294.6</ele>
        <time>2017-08-10T12:37:27Z</time>
      </trkpt>
      <trkpt lat="42.849760" lon="-0.667751">
        <ele>1294.6</ele>
        <time>2017-08-10T12:37:34Z</time>
      </trkpt>
      <trkpt lat="42.849691" lon="-0.667607">
        <ele>1294.1</ele>
        <time>2017-08-10T12:37:45Z</time>
      </trkpt>
      <trkpt lat="42.849545" lon="-0.667344">
        <ele>1294.1</ele>
        <time>2017-08-10T12:37:59Z</time>
      </trkpt>
      <trkpt lat="42.849435" lon="-0.667052">
        <ele>1293.6</ele>
        <time>2017-08-10T12:38:12Z</time>
      </trkpt>
      <trkpt lat="42.849377" lon="-0.666891">
        <ele>1293.6</ele>
        <time>2017-08-10T12:38:22Z</time>
      </trkpt>
      <trkpt lat="42.849346" lon="-0.666831">
        <ele>1293.1</ele>
        <time>2017-08-10T12:38:27Z</time>
      </trkpt>
      <trkpt lat="42.849262" lon="-0.666673">
        <ele>1292.6</ele>
        <time>2017-08-10T12:38:38Z</time>
      </trkpt>
      <trkpt lat="42.849214" lon="-0.666402">
        <ele>1292.2</ele>
        <time>2017-08-10T12:38:51Z</time>
      </trkpt>
      <trkpt lat="42.849202" lon="-0.666220">
        <ele>1292.2</ele>
        <time>2017-08-10T12:39:01Z</time>
      </trkpt>
      <trkpt lat="42.849168" lon="-0.666169">
        <ele>1292.2</ele>
        <time>2017-08-10T12:39:06Z</time>
      </trkpt>
      <trkpt lat="42.849147" lon="-0.666103">
        <ele>1292.2</ele>
        <time>2017-08-10T12:39:10Z</time>
      </trkpt>
      <trkpt lat="42.849110" lon="-0.666029">
        <ele>1292.2</ele>
        <time>2017-08-10T12:39:14Z</time>
      </trkpt>
      <trkpt lat="42.849088" lon="-0.665915">
        <ele>1292.2</ele>
        <time>2017-08-10T12:39:22Z</time>
      </trkpt>
      <trkpt lat="42.849002" lon="-0.665813">
        <ele>1292.2</ele>
        <time>2017-08-10T12:39:28Z</time>
      </trkpt>
      <trkpt lat="42.848985" lon="-0.665797">
        <ele>1292.2</ele>
        <time>2017-08-10T12:39:31Z</time>
      </trkpt>
      <trkpt lat="42.848904" lon="-0.665765">
        <ele>1290.7</ele>
        <time>2017-08-10T12:39:44Z</time>
      </trkpt>
      <trkpt lat="42.848846" lon="-0.665654">
        <ele>1289.3</ele>
        <time>2017-08-10T12:39:53Z</time>
      </trkpt>
      <trkpt lat="42.848840" lon="-0.665615">
        <ele>1289.3</ele>
        <time>2017-08-10T12:39:56Z</time>
      </trkpt>
      <trkpt lat="42.848844" lon="-0.665561">
        <ele>1288.8</ele>
        <time>2017-08-10T12:39:59Z</time>
      </trkpt>
      <trkpt lat="42.848833" lon="-0.665470">
        <ele>1288.3</ele>
        <time>2017-08-10T12:40:05Z</time>
      </trkpt>
      <trkpt lat="42.848745" lon="-0.665293">
        <ele>1288.3</ele>
        <time>2017-08-10T12:40:16Z</time>
      </trkpt>
      <trkpt lat="42.848724" lon="-0.665193">
        <ele>1288.3</ele>
        <time>2017-08-10T12:40:21Z</time>
      </trkpt>
      <trkpt lat="42.848699" lon="-0.665113">
        <ele>1288.3</ele>
        <time>2017-08-10T12:40:26Z</time>
      </trkpt>
      <trkpt lat="42.848645" lon="-0.665051">
        <ele>1288.3</ele>
        <time>2017-08-10T12:40:31Z</time>
      </trkpt>
      <trkpt lat="42.848592" lon="-0.664874">
        <ele>1287.3</ele>
        <time>2017-08-10T12:40:42Z</time>
      </trkpt>
      <trkpt lat="42.848551" lon="-0.664793">
        <ele>1286.9</ele>
        <time>2017-08-10T12:40:47Z</time>
      </trkpt>
      <trkpt lat="42.848541" lon="-0.664726">
        <ele>1286.4</ele>
        <time>2017-08-10T12:40:52Z</time>
      </trkpt>
      <trkpt lat="42.848507" lon="-0.664510">
        <ele>1285.4</ele>
        <time>2017-08-10T12:41:05Z</time>
      </trkpt>
      <trkpt lat="42.848456" lon="-0.664389">
        <ele>1284.5</ele>
        <time>2017-08-10T12:41:12Z</time>
      </trkpt>
      <trkpt lat="42.848376" lon="-0.664310">
        <ele>1284.5</ele>
        <time>2017-08-10T12:41:19Z</time>
      </trkpt>
      <trkpt lat="42.848326" lon="-0.664236">
        <ele>1284.5</ele>
        <time>2017-08-10T12:41:26Z</time>
      </trkpt>
      <trkpt lat="42.848289" lon="-0.664110">
        <ele>1284.5</ele>
        <time>2017-08-10T12:41:34Z</time>
      </trkpt>
      <trkpt lat="42.848277" lon="-0.664074">
        <ele>1284.5</ele>
        <time>2017-08-10T12:41:37Z</time>
      </trkpt>
      <trkpt lat="42.848273" lon="-0.664044">
        <ele>1284.5</ele>
        <time>2017-08-10T12:41:40Z</time>
      </trkpt>
      <trkpt lat="42.848223" lon="-0.663929">
        <ele>1284.5</ele>
        <time>2017-08-10T12:41:48Z</time>
      </trkpt>
      <trkpt lat="42.848205" lon="-0.663895">
        <ele>1284.5</ele>
        <time>2017-08-10T12:41:52Z</time>
      </trkpt>
      <trkpt lat="42.848109" lon="-0.663689">
        <ele>1283.5</ele>
        <time>2017-08-10T12:42:04Z</time>
      </trkpt>
      <trkpt lat="42.848105" lon="-0.663634">
        <ele>1283.5</ele>
        <time>2017-08-10T12:42:08Z</time>
      </trkpt>
      <trkpt lat="42.848087" lon="-0.663522">
        <ele>1283.5</ele>
        <time>2017-08-10T12:42:15Z</time>
      </trkpt>
      <trkpt lat="42.848071" lon="-0.663447">
        <ele>1283.5</ele>
        <time>2017-08-10T12:42:20Z</time>
      </trkpt>
      <trkpt lat="42.847996" lon="-0.663371">
        <ele>1283.5</ele>
        <time>2017-08-10T12:42:28Z</time>
      </trkpt>
      <trkpt lat="42.847966" lon="-0.663304">
        <ele>1283.5</ele>
        <time>2017-08-10T12:42:31Z</time>
      </trkpt>
      <trkpt lat="42.847897" lon="-0.663231">
        <ele>1284.0</ele>
        <time>2017-08-10T12:42:36Z</time>
      </trkpt>
      <trkpt lat="42.847873" lon="-0.663168">
        <ele>1284.0</ele>
        <time>2017-08-10T12:42:41Z</time>
      </trkpt>
      <trkpt lat="42.847772" lon="-0.663029">
        <ele>1284.0</ele>
        <time>2017-08-10T12:42:51Z</time>
      </trkpt>
      <trkpt lat="42.847628" lon="-0.662882">
        <ele>1284.5</ele>
        <time>2017-08-10T12:43:04Z</time>
      </trkpt>
      <trkpt lat="42.847563" lon="-0.662805">
        <ele>1284.5</ele>
        <time>2017-08-10T12:43:09Z</time>
      </trkpt>
      <trkpt lat="42.847531" lon="-0.662772">
        <ele>1284.5</ele>
        <time>2017-08-10T12:43:12Z</time>
      </trkpt>
      <trkpt lat="42.847413" lon="-0.662614">
        <ele>1284.5</ele>
        <time>2017-08-10T12:43:24Z</time>
      </trkpt>
      <trkpt lat="42.847279" lon="-0.662454">
        <ele>1284.5</ele>
        <time>2017-08-10T12:43:36Z</time>
      </trkpt>
      <trkpt lat="42.847142" lon="-0.662245">
        <ele>1284.9</ele>
        <time>2017-08-10T12:43:50Z</time>
      </trkpt>
      <trkpt lat="42.847015" lon="-0.662015">
        <ele>1285.4</ele>
        <time>2017-08-10T12:44:05Z</time>
      </trkpt>
      <trkpt lat="42.846973" lon="-0.661973">
        <ele>1285.4</ele>
        <time>2017-08-10T12:44:09Z</time>
      </trkpt>
      <trkpt lat="42.846837" lon="-0.661799">
        <ele>1286.4</ele>
        <time>2017-08-10T12:44:20Z</time>
      </trkpt>
      <trkpt lat="42.846734" lon="-0.661646">
        <ele>1286.9</ele>
        <time>2017-08-10T12:44:34Z</time>
      </trkpt>
      <trkpt lat="42.846733" lon="-0.661524">
        <ele>1287.3</ele>
        <time>2017-08-10T12:44:41Z</time>
      </trkpt>
      <trkpt lat="42.846713" lon="-0.661434">
        <ele>1287.8</ele>
        <time>2017-08-10T12:44:46Z</time>
      </trkpt>
      <trkpt lat="42.846631" lon="-0.661185">
        <ele>1287.8</ele>
        <time>2017-08-10T12:44:58Z</time>
      </trkpt>
      <trkpt lat="42.846568" lon="-0.660944">
        <ele>1288.3</ele>
        <time>2017-08-10T12:45:11Z</time>
      </trkpt>
      <trkpt lat="42.846524" lon="-0.660866">
        <ele>1288.8</ele>
        <time>2017-08-10T12:45:16Z</time>
      </trkpt>
      <trkpt lat="42.846490" lon="-0.660733">
        <ele>1288.8</ele>
        <time>2017-08-10T12:45:23Z</time>
      </trkpt>
      <trkpt lat="42.846473" lon="-0.660640">
        <ele>1289.3</ele>
        <time>2017-08-10T12:45:27Z</time>
      </trkpt>
      <trkpt lat="42.846426" lon="-0.660534">
        <ele>1289.3</ele>
        <time>2017-08-10T12:45:32Z</time>
      </trkpt>
      <trkpt lat="42.846391" lon="-0.660462">
        <ele>1289.3</ele>
        <time>2017-08-10T12:45:35Z</time>
      </trkpt>
      <trkpt lat="42.846286" lon="-0.660297">
        <ele>1290.2</ele>
        <time>2017-08-10T12:45:44Z</time>
      </trkpt>
      <trkpt lat="42.846175" lon="-0.660041">
        <ele>1290.7</ele>
        <time>2017-08-10T12:45:57Z</time>
      </trkpt>
      <trkpt lat="42.846114" lon="-0.659941">
        <ele>1291.2</ele>
        <time>2017-08-10T12:46:04Z</time>
      </trkpt>
      <trkpt lat="42.846079" lon="-0.659813">
        <ele>1291.7</ele>
        <time>2017-08-10T12:46:14Z</time>
      </trkpt>
      <trkpt lat="42.845985" lon="-0.659605">
        <ele>1292.2</ele>
        <time>2017-08-10T12:46:25Z</time>
      </trkpt>
      <trkpt lat="42.845838" lon="-0.659341">
        <ele>1293.1</ele>
        <time>2017-08-10T12:46:41Z</time>
      </trkpt>
      <trkpt lat="42.845816" lon="-0.659304">
        <ele>1293.1</ele>
        <time>2017-08-10T12:46:43Z</time>
      </trkpt>
      <trkpt lat="42.845738" lon="-0.659124">
        <ele>1294.6</ele>
        <time>2017-08-10T12:46:53Z</time>
      </trkpt>
      <trkpt lat="42.845735" lon="-0.659069">
        <ele>1294.6</ele>
        <time>2017-08-10T12:46:57Z</time>
      </trkpt>
      <trkpt lat="42.845706" lon="-0.658803">
        <ele>1296.0</ele>
        <time>2017-08-10T12:47:13Z</time>
      </trkpt>
      <trkpt lat="42.845697" lon="-0.658752">
        <ele>1296.0</ele>
        <time>2017-08-10T12:47:16Z</time>
      </trkpt>
      <trkpt lat="42.845686" lon="-0.658696">
        <ele>1296.0</ele>
        <time>2017-08-10T12:47:19Z</time>
      </trkpt>
      <trkpt lat="42.845670" lon="-0.658607">
        <ele>1296.0</ele>
        <time>2017-08-10T12:47:24Z</time>
      </trkpt>
      <trkpt lat="42.845641" lon="-0.658389">
        <ele>1296.5</ele>
        <time>2017-08-10T12:47:35Z</time>
      </trkpt>
      <trkpt lat="42.845606" lon="-0.658114">
        <ele>1297.0</ele>
        <time>2017-08-10T12:47:46Z</time>
      </trkpt>
      <trkpt lat="42.845508" lon="-0.657826">
        <ele>1297.0</ele>
        <time>2017-08-10T12:48:00Z</time>
      </trkpt>
      <trkpt lat="42.845408" lon="-0.657513">
        <ele>1297.9</ele>
        <time>2017-08-10T12:48:13Z</time>
      </trkpt>
      <trkpt lat="42.845396" lon="-0.657465">
        <ele>1297.9</ele>
        <time>2017-08-10T12:48:15Z</time>
      </trkpt>
      <trkpt lat="42.845409" lon="-0.657162">
        <ele>1298.4</ele>
        <time>2017-08-10T12:48:29Z</time>
      </trkpt>
      <trkpt lat="42.845437" lon="-0.656974">
        <ele>1298.9</ele>
        <time>2017-08-10T12:48:37Z</time>
      </trkpt>
      <trkpt lat="42.845465" lon="-0.656777">
        <ele>1300.3</ele>
        <time>2017-08-10T12:48:47Z</time>
      </trkpt>
      <trkpt lat="42.845420" lon="-0.656581">
        <ele>1301.3</ele>
        <time>2017-08-10T12:48:58Z</time>
      </trkpt>
      <trkpt lat="42.845338" lon="-0.656262">
        <ele>1301.8</ele>
        <time>2017-08-10T12:49:10Z</time>
      </trkpt>
      <trkpt lat="42.845256" lon="-0.656027">
        <ele>1303.7</ele>
        <time>2017-08-10T12:49:23Z</time>
      </trkpt>
      <trkpt lat="42.845251" lon="-0.655940">
        <ele>1304.7</ele>
        <time>2017-08-10T12:49:28Z</time>
      </trkpt>
      <trkpt lat="42.845246" lon="-0.655902">
        <ele>1304.7</ele>
        <time>2017-08-10T12:49:30Z</time>
      </trkpt>
      <trkpt lat="42.845222" lon="-0.655806">
        <ele>1304.7</ele>
        <time>2017-08-10T12:49:37Z</time>
      </trkpt>
      <trkpt lat="42.845141" lon="-0.655626">
        <ele>1304.2</ele>
        <time>2017-08-10T12:49:48Z</time>
      </trkpt>
      <trkpt lat="42.845056" lon="-0.655457">
        <ele>1304.2</ele>
        <time>2017-08-10T12:49:59Z</time>
      </trkpt>
      <trkpt lat="42.844926" lon="-0.655256">
        <ele>1304.2</ele>
        <time>2017-08-10T12:50:11Z</time>
      </trkpt>
      <trkpt lat="42.844866" lon="-0.655082">
        <ele>1304.2</ele>
        <time>2017-08-10T12:50:24Z</time>
      </trkpt>
      <trkpt lat="42.844858" lon="-0.655070">
        <ele>1304.2</ele>
        <time>2017-08-10T12:50:25Z</time>
      </trkpt>
      <trkpt lat="42.844742" lon="-0.654910">
        <ele>1304.2</ele>
        <time>2017-08-10T12:50:38Z</time>
      </trkpt>
      <trkpt lat="42.844730" lon="-0.654860">
        <ele>1304.2</ele>
        <time>2017-08-10T12:50:44Z</time>
      </trkpt>
      <trkpt lat="42.844711" lon="-0.654822">
        <ele>1304.2</ele>
        <time>2017-08-10T12:50:47Z</time>
      </trkpt>
      <trkpt lat="42.844645" lon="-0.654704">
        <ele>1303.2</ele>
        <time>2017-08-10T12:50:54Z</time>
      </trkpt>
      <trkpt lat="42.844616" lon="-0.654647">
        <ele>1303.2</ele>
        <time>2017-08-10T12:50:59Z</time>
      </trkpt>
      <trkpt lat="42.844601" lon="-0.654632">
        <ele>1303.2</ele>
        <time>2017-08-10T12:51:00Z</time>
      </trkpt>
      <trkpt lat="42.844460" lon="-0.654451">
        <ele>1305.6</ele>
        <time>2017-08-10T12:51:12Z</time>
      </trkpt>
      <trkpt lat="42.844351" lon="-0.654238">
        <ele>1309.0</ele>
        <time>2017-08-10T12:51:26Z</time>
      </trkpt>
      <trkpt lat="42.844309" lon="-0.654060">
        <ele>1309.0</ele>
        <time>2017-08-10T12:51:36Z</time>
      </trkpt>
      <trkpt lat="42.844285" lon="-0.654035">
        <ele>1309.0</ele>
        <time>2017-08-10T12:51:38Z</time>
      </trkpt>
      <trkpt lat="42.844257" lon="-0.653977">
        <ele>1309.0</ele>
        <time>2017-08-10T12:51:42Z</time>
      </trkpt>
      <trkpt lat="42.844218" lon="-0.653905">
        <ele>1309.4</ele>
        <time>2017-08-10T12:51:46Z</time>
      </trkpt>
      <trkpt lat="42.844170" lon="-0.653821">
        <ele>1309.4</ele>
        <time>2017-08-10T12:51:51Z</time>
      </trkpt>
      <trkpt lat="42.844143" lon="-0.653756">
        <ele>1309.9</ele>
        <time>2017-08-10T12:51:55Z</time>
      </trkpt>
      <trkpt lat="42.844103" lon="-0.653614">
        <ele>1309.9</ele>
        <time>2017-08-10T12:52:03Z</time>
      </trkpt>
      <trkpt lat="42.843951" lon="-0.653369">
        <ele>1311.9</ele>
        <time>2017-08-10T12:52:16Z</time>
      </trkpt>
      <trkpt lat="42.843913" lon="-0.653313">
        <ele>1315.2</ele>
        <time>2017-08-10T12:52:20Z</time>
      </trkpt>
      <trkpt lat="42.843873" lon="-0.653240">
        <ele>1318.6</ele>
        <time>2017-08-10T12:52:26Z</time>
      </trkpt>
      <trkpt lat="42.843760" lon="-0.653020">
        <ele>1321.9</ele>
        <time>2017-08-10T12:52:41Z</time>
      </trkpt>
      <trkpt lat="42.843707" lon="-0.652986">
        <ele>1322.4</ele>
        <time>2017-08-10T12:52:45Z</time>
      </trkpt>
      <trkpt lat="42.843632" lon="-0.652798">
        <ele>1322.4</ele>
        <time>2017-08-10T12:52:54Z</time>
      </trkpt>
      <trkpt lat="42.843557" lon="-0.652483">
        <ele>1322.4</ele>
        <time>2017-08-10T12:53:08Z</time>
      </trkpt>
      <trkpt lat="42.843515" lon="-0.652405">
        <ele>1324.8</ele>
        <time>2017-08-10T12:53:14Z</time>
      </trkpt>
      <trkpt lat="42.843501" lon="-0.652373">
        <ele>1325.3</ele>
        <time>2017-08-10T12:53:16Z</time>
      </trkpt>
      <trkpt lat="42.843414" lon="-0.652241">
        <ele>1327.2</ele>
        <time>2017-08-10T12:53:25Z</time>
      </trkpt>
      <trkpt lat="42.843371" lon="-0.652167">
        <ele>1327.2</ele>
        <time>2017-08-10T12:53:29Z</time>
      </trkpt>
      <trkpt lat="42.843177" lon="-0.652050">
        <ele>1327.2</ele>
        <time>2017-08-10T12:53:43Z</time>
      </trkpt>
      <trkpt lat="42.843030" lon="-0.651912">
        <ele>1325.8</ele>
        <time>2017-08-10T12:53:56Z</time>
      </trkpt>
      <trkpt lat="42.842905" lon="-0.651807">
        <ele>1325.8</ele>
        <time>2017-08-10T12:54:08Z</time>
      </trkpt>
      <trkpt lat="42.842734" lon="-0.651759">
        <ele>1326.3</ele>
        <time>2017-08-10T12:54:31Z</time>
      </trkpt>
      <trkpt lat="42.842647" lon="-0.651748">
        <ele>1328.7</ele>
        <time>2017-08-10T12:55:22Z</time>
      </trkpt>
      <trkpt lat="42.842624" lon="-0.651691">
        <ele>1330.6</ele>
        <time>2017-08-10T12:56:09Z</time>
      </trkpt>
      <trkpt lat="42.842623" lon="-0.651588">
        <ele>1332.0</ele>
        <time>2017-08-10T12:56:14Z</time>
      </trkpt>
      <trkpt lat="42.842662" lon="-0.651279">
        <ele>1334.0</ele>
        <time>2017-08-10T12:56:28Z</time>
      </trkpt>
      <trkpt lat="42.842663" lon="-0.651066">
        <ele>1335.4</ele>
        <time>2017-08-10T12:56:41Z</time>
      </trkpt>
      <trkpt lat="42.842639" lon="-0.650935">
        <ele>1337.3</ele>
        <time>2017-08-10T12:56:51Z</time>
      </trkpt>
      <trkpt lat="42.842638" lon="-0.650922">
        <ele>1337.8</ele>
        <time>2017-08-10T12:56:52Z</time>
      </trkpt>
      <trkpt lat="42.842625" lon="-0.650883">
        <ele>1341.2</ele>
        <time>2017-08-10T12:56:55Z</time>
      </trkpt>
      <trkpt lat="42.842592" lon="-0.650763">
        <ele>1344.5</ele>
        <time>2017-08-10T12:57:04Z</time>
      </trkpt>
      <trkpt lat="42.842583" lon="-0.650714">
        <ele>1345.0</ele>
        <time>2017-08-10T12:57:07Z</time>
      </trkpt>
      <trkpt lat="42.842540" lon="-0.650426">
        <ele>1346.5</ele>
        <time>2017-08-10T12:57:19Z</time>
      </trkpt>
      <trkpt lat="42.842468" lon="-0.650173">
        <ele>1348.4</ele>
        <time>2017-08-10T12:57:32Z</time>
      </trkpt>
      <trkpt lat="42.842431" lon="-0.650091">
        <ele>1351.8</ele>
        <time>2017-08-10T12:57:36Z</time>
      </trkpt>
      <trkpt lat="42.842401" lon="-0.649856">
        <ele>1354.6</ele>
        <time>2017-08-10T12:57:45Z</time>
      </trkpt>
      <trkpt lat="42.842398" lon="-0.649686">
        <ele>1358.0</ele>
        <time>2017-08-10T12:57:57Z</time>
      </trkpt>
      <trkpt lat="42.842390" lon="-0.649616">
        <ele>1359.0</ele>
        <time>2017-08-10T12:58:01Z</time>
      </trkpt>
      <trkpt lat="42.842365" lon="-0.649513">
        <ele>1360.4</ele>
        <time>2017-08-10T12:58:07Z</time>
      </trkpt>
      <trkpt lat="42.842333" lon="-0.649449">
        <ele>1360.4</ele>
        <time>2017-08-10T12:58:11Z</time>
      </trkpt>
      <trkpt lat="42.842305" lon="-0.649365">
        <ele>1360.4</ele>
        <time>2017-08-10T12:58:15Z</time>
      </trkpt>
      <trkpt lat="42.842231" lon="-0.649097">
        <ele>1361.8</ele>
        <time>2017-08-10T12:58:27Z</time>
      </trkpt>
      <trkpt lat="42.842223" lon="-0.649056">
        <ele>1362.8</ele>
        <time>2017-08-10T12:58:29Z</time>
      </trkpt>
      <trkpt lat="42.842221" lon="-0.648968">
        <ele>1366.2</ele>
        <time>2017-08-10T12:58:33Z</time>
      </trkpt>
      <trkpt lat="42.842190" lon="-0.648680">
        <ele>1370.0</ele>
        <time>2017-08-10T12:58:47Z</time>
      </trkpt>
      <trkpt lat="42.842153" lon="-0.648596">
        <ele>1371.5</ele>
        <time>2017-08-10T12:58:53Z</time>
      </trkpt>
      <trkpt lat="42.842146" lon="-0.648568">
        <ele>1371.9</ele>
        <time>2017-08-10T12:58:55Z</time>
      </trkpt>
      <trkpt lat="42.842121" lon="-0.648475">
        <ele>1373.4</ele>
        <time>2017-08-10T12:59:03Z</time>
      </trkpt>
      <trkpt lat="42.842043" lon="-0.648292">
        <ele>1374.8</ele>
        <time>2017-08-10T12:59:13Z</time>
      </trkpt>
      <trkpt lat="42.842000" lon="-0.648117">
        <ele>1375.8</ele>
        <time>2017-08-10T12:59:24Z</time>
      </trkpt>
      <trkpt lat="42.841886" lon="-0.647827">
        <ele>1377.2</ele>
        <time>2017-08-10T12:59:39Z</time>
      </trkpt>
      <trkpt lat="42.841797" lon="-0.647566">
        <ele>1380.1</ele>
        <time>2017-08-10T12:59:56Z</time>
      </trkpt>
      <trkpt lat="42.841729" lon="-0.647325">
        <ele>1382.0</ele>
        <time>2017-08-10T13:00:08Z</time>
      </trkpt>
      <trkpt lat="42.841635" lon="-0.647185">
        <ele>1382.0</ele>
        <time>2017-08-10T13:01:00Z</time>
      </trkpt>
      <trkpt lat="42.841563" lon="-0.647093">
        <ele>1383.0</ele>
        <time>2017-08-10T13:01:11Z</time>
      </trkpt>
      <trkpt lat="42.841530" lon="-0.647023">
        <ele>1384.0</ele>
        <time>2017-08-10T13:01:16Z</time>
      </trkpt>
      <trkpt lat="42.841378" lon="-0.646837">
        <ele>1384.4</ele>
        <time>2017-08-10T13:01:31Z</time>
      </trkpt>
      <trkpt lat="42.841323" lon="-0.646714">
        <ele>1384.4</ele>
        <time>2017-08-10T13:01:38Z</time>
      </trkpt>
      <trkpt lat="42.841291" lon="-0.646652">
        <ele>1384.4</ele>
        <time>2017-08-10T13:01:43Z</time>
      </trkpt>
      <trkpt lat="42.841272" lon="-0.646644">
        <ele>1384.4</ele>
        <time>2017-08-10T13:01:45Z</time>
      </trkpt>
      <trkpt lat="42.841270" lon="-0.646599">
        <ele>1384.4</ele>
        <time>2017-08-10T13:01:48Z</time>
      </trkpt>
      <trkpt lat="42.841245" lon="-0.646563">
        <ele>1384.4</ele>
        <time>2017-08-10T13:01:52Z</time>
      </trkpt>
      <trkpt lat="42.841230" lon="-0.646485">
        <ele>1384.4</ele>
        <time>2017-08-10T13:01:56Z</time>
      </trkpt>
      <trkpt lat="42.841201" lon="-0.646404">
        <ele>1384.4</ele>
        <time>2017-08-10T13:02:02Z</time>
      </trkpt>
      <trkpt lat="42.841201" lon="-0.646404">
        <ele>1384.9</ele>
        <time>2017-08-10T13:02:05Z</time>
      </trkpt>
      <trkpt lat="42.841206" lon="-0.646355">
        <ele>1384.9</ele>
        <time>2017-08-10T13:02:18Z</time>
      </trkpt>
      <trkpt lat="42.841117" lon="-0.646187">
        <ele>1385.4</ele>
        <time>2017-08-10T13:02:29Z</time>
      </trkpt>
      <trkpt lat="42.841012" lon="-0.645990">
        <ele>1386.4</ele>
        <time>2017-08-10T13:02:40Z</time>
      </trkpt>
      <trkpt lat="42.840933" lon="-0.645808">
        <ele>1386.4</ele>
        <time>2017-08-10T13:02:52Z</time>
      </trkpt>
      <trkpt lat="42.840841" lon="-0.645634">
        <ele>1386.4</ele>
        <time>2017-08-10T13:03:02Z</time>
      </trkpt>
      <trkpt lat="42.840809" lon="-0.645550">
        <ele>1387.3</ele>
        <time>2017-08-10T13:03:08Z</time>
      </trkpt>
      <trkpt lat="42.840791" lon="-0.645507">
        <ele>1387.3</ele>
        <time>2017-08-10T13:03:10Z</time>
      </trkpt>
      <trkpt lat="42.840735" lon="-0.645446">
        <ele>1387.3</ele>
        <time>2017-08-10T13:03:15Z</time>
      </trkpt>
      <trkpt lat="42.840722" lon="-0.645422">
        <ele>1387.3</ele>
        <time>2017-08-10T13:03:17Z</time>
      </trkpt>
      <trkpt lat="42.840605" lon="-0.645264">
        <ele>1387.3</ele>
        <time>2017-08-10T13:03:29Z</time>
      </trkpt>
      <trkpt lat="42.840595" lon="-0.645213">
        <ele>1387.3</ele>
        <time>2017-08-10T13:03:32Z</time>
      </trkpt>
      <trkpt lat="42.840515" lon="-0.645110">
        <ele>1387.3</ele>
        <time>2017-08-10T13:03:40Z</time>
      </trkpt>
      <trkpt lat="42.840496" lon="-0.645085">
        <ele>1387.3</ele>
        <time>2017-08-10T13:03:43Z</time>
      </trkpt>
      <trkpt lat="42.840408" lon="-0.644980">
        <ele>1387.3</ele>
        <time>2017-08-10T13:03:51Z</time>
      </trkpt>
      <trkpt lat="42.840335" lon="-0.644812">
        <ele>1387.3</ele>
        <time>2017-08-10T13:04:01Z</time>
      </trkpt>
      <trkpt lat="42.840243" lon="-0.644622">
        <ele>1387.8</ele>
        <time>2017-08-10T13:04:12Z</time>
      </trkpt>
      <trkpt lat="42.840240" lon="-0.644600">
        <ele>1387.8</ele>
        <time>2017-08-10T13:04:13Z</time>
      </trkpt>
      <trkpt lat="42.840190" lon="-0.644405">
        <ele>1387.8</ele>
        <time>2017-08-10T13:04:25Z</time>
      </trkpt>
      <trkpt lat="42.840173" lon="-0.644390">
        <ele>1387.8</ele>
        <time>2017-08-10T13:04:27Z</time>
      </trkpt>
      <trkpt lat="42.840118" lon="-0.644287">
        <ele>1387.8</ele>
        <time>2017-08-10T13:04:34Z</time>
      </trkpt>
      <trkpt lat="42.839992" lon="-0.644165">
        <ele>1388.3</ele>
        <time>2017-08-10T13:04:43Z</time>
      </trkpt>
      <trkpt lat="42.839955" lon="-0.644092">
        <ele>1388.3</ele>
        <time>2017-08-10T13:04:47Z</time>
      </trkpt>
      <trkpt lat="42.839885" lon="-0.643911">
        <ele>1389.2</ele>
        <time>2017-08-10T13:04:59Z</time>
      </trkpt>
      <trkpt lat="42.839864" lon="-0.643848">
        <ele>1389.2</ele>
        <time>2017-08-10T13:05:03Z</time>
      </trkpt>
      <trkpt lat="42.839823" lon="-0.643759">
        <ele>1389.2</ele>
        <time>2017-08-10T13:05:09Z</time>
      </trkpt>
      <trkpt lat="42.839809" lon="-0.643737">
        <ele>1389.2</ele>
        <time>2017-08-10T13:05:12Z</time>
      </trkpt>
      <trkpt lat="42.839687" lon="-0.643552">
        <ele>1389.2</ele>
        <time>2017-08-10T13:05:24Z</time>
      </trkpt>
      <trkpt lat="42.839705" lon="-0.643388">
        <ele>1389.2</ele>
        <time>2017-08-10T13:05:34Z</time>
      </trkpt>
      <trkpt lat="42.839685" lon="-0.643357">
        <ele>1389.2</ele>
        <time>2017-08-10T13:05:36Z</time>
      </trkpt>
      <trkpt lat="42.839672" lon="-0.643318">
        <ele>1389.2</ele>
        <time>2017-08-10T13:05:39Z</time>
      </trkpt>
      <trkpt lat="42.839593" lon="-0.643219">
        <ele>1389.7</ele>
        <time>2017-08-10T13:05:46Z</time>
      </trkpt>
      <trkpt lat="42.839559" lon="-0.643165">
        <ele>1389.7</ele>
        <time>2017-08-10T13:05:49Z</time>
      </trkpt>
      <trkpt lat="42.839526" lon="-0.643102">
        <ele>1390.2</ele>
        <time>2017-08-10T13:05:55Z</time>
      </trkpt>
      <trkpt lat="42.839468" lon="-0.643040">
        <ele>1390.2</ele>
        <time>2017-08-10T13:06:00Z</time>
      </trkpt>
      <trkpt lat="42.839468" lon="-0.642998">
        <ele>1390.2</ele>
        <time>2017-08-10T13:06:04Z</time>
      </trkpt>
      <trkpt lat="42.839455" lon="-0.642934">
        <ele>1390.2</ele>
        <time>2017-08-10T13:06:09Z</time>
      </trkpt>
      <trkpt lat="42.839428" lon="-0.642891">
        <ele>1390.2</ele>
        <time>2017-08-10T13:06:13Z</time>
      </trkpt>
      <trkpt lat="42.839343" lon="-0.642903">
        <ele>1391.7</ele>
        <time>2017-08-10T13:06:22Z</time>
      </trkpt>
      <trkpt lat="42.839282" lon="-0.642953">
        <ele>1392.6</ele>
        <time>2017-08-10T13:06:32Z</time>
      </trkpt>
      <trkpt lat="42.839231" lon="-0.642964">
        <ele>1393.1</ele>
        <time>2017-08-10T13:06:37Z</time>
      </trkpt>
      <trkpt lat="42.839225" lon="-0.642956">
        <ele>1393.1</ele>
        <time>2017-08-10T13:06:38Z</time>
      </trkpt>
      <trkpt lat="42.839137" lon="-0.642822">
        <ele>1394.1</ele>
        <time>2017-08-10T13:06:49Z</time>
      </trkpt>
      <trkpt lat="42.839117" lon="-0.642803">
        <ele>1394.5</ele>
        <time>2017-08-10T13:06:51Z</time>
      </trkpt>
      <trkpt lat="42.839061" lon="-0.642713">
        <ele>1395.0</ele>
        <time>2017-08-10T13:07:00Z</time>
      </trkpt>
      <trkpt lat="42.838961" lon="-0.642527">
        <ele>1395.5</ele>
        <time>2017-08-10T13:07:12Z</time>
      </trkpt>
      <trkpt lat="42.838865" lon="-0.642387">
        <ele>1397.4</ele>
        <time>2017-08-10T13:07:22Z</time>
      </trkpt>
      <trkpt lat="42.838849" lon="-0.642336">
        <ele>1397.4</ele>
        <time>2017-08-10T13:07:25Z</time>
      </trkpt>
      <trkpt lat="42.838823" lon="-0.642259">
        <ele>1397.4</ele>
        <time>2017-08-10T13:07:29Z</time>
      </trkpt>
      <trkpt lat="42.838759" lon="-0.642159">
        <ele>1397.4</ele>
        <time>2017-08-10T13:07:36Z</time>
      </trkpt>
      <trkpt lat="42.838730" lon="-0.642067">
        <ele>1397.4</ele>
        <time>2017-08-10T13:07:42Z</time>
      </trkpt>
      <trkpt lat="42.838681" lon="-0.641951">
        <ele>1397.9</ele>
        <time>2017-08-10T13:07:51Z</time>
      </trkpt>
      <trkpt lat="42.838645" lon="-0.641903">
        <ele>1397.9</ele>
        <time>2017-08-10T13:07:55Z</time>
      </trkpt>
      <trkpt lat="42.838631" lon="-0.641829">
        <ele>1397.4</ele>
        <time>2017-08-10T13:07:59Z</time>
      </trkpt>
      <trkpt lat="42.838601" lon="-0.641636">
        <ele>1397.4</ele>
        <time>2017-08-10T13:08:10Z</time>
      </trkpt>
      <trkpt lat="42.838587" lon="-0.641590">
        <ele>1397.4</ele>
        <time>2017-08-10T13:08:13Z</time>
      </trkpt>
      <trkpt lat="42.838559" lon="-0.641493">
        <ele>1397.4</ele>
        <time>2017-08-10T13:08:18Z</time>
      </trkpt>
      <trkpt lat="42.838551" lon="-0.641477">
        <ele>1397.4</ele>
        <time>2017-08-10T13:08:19Z</time>
      </trkpt>
      <trkpt lat="42.838488" lon="-0.641298">
        <ele>1396.4</ele>
        <time>2017-08-10T13:08:32Z</time>
      </trkpt>
      <trkpt lat="42.838492" lon="-0.641201">
        <ele>1396.0</ele>
        <time>2017-08-10T13:08:39Z</time>
      </trkpt>
      <trkpt lat="42.838438" lon="-0.641138">
        <ele>1395.0</ele>
        <time>2017-08-10T13:08:47Z</time>
      </trkpt>
      <trkpt lat="42.838333" lon="-0.641116">
        <ele>1393.6</ele>
        <time>2017-08-10T13:08:57Z</time>
      </trkpt>
      <trkpt lat="42.838252" lon="-0.641030">
        <ele>1392.6</ele>
        <time>2017-08-10T13:09:05Z</time>
      </trkpt>
      <trkpt lat="42.838184" lon="-0.640974">
        <ele>1391.2</ele>
        <time>2017-08-10T13:09:11Z</time>
      </trkpt>
      <trkpt lat="42.838095" lon="-0.640768">
        <ele>1391.2</ele>
        <time>2017-08-10T13:09:25Z</time>
      </trkpt>
      <trkpt lat="42.837996" lon="-0.640726">
        <ele>1391.2</ele>
        <time>2017-08-10T13:09:31Z</time>
      </trkpt>
      <trkpt lat="42.837842" lon="-0.640641">
        <ele>1392.1</ele>
        <time>2017-08-10T13:09:43Z</time>
      </trkpt>
      <trkpt lat="42.837624" lon="-0.640553">
        <ele>1392.1</ele>
        <time>2017-08-10T13:09:56Z</time>
      </trkpt>
      <trkpt lat="42.837617" lon="-0.640552">
        <ele>1393.1</ele>
        <time>2017-08-10T13:09:57Z</time>
      </trkpt>
      <trkpt lat="42.837425" lon="-0.640501">
        <ele>1394.5</ele>
        <time>2017-08-10T13:10:09Z</time>
      </trkpt>
      <trkpt lat="42.837353" lon="-0.640520">
        <ele>1396.0</ele>
        <time>2017-08-10T13:10:14Z</time>
      </trkpt>
      <trkpt lat="42.837323" lon="-0.640514">
        <ele>1396.4</ele>
        <time>2017-08-10T13:10:17Z</time>
      </trkpt>
      <trkpt lat="42.837219" lon="-0.640493">
        <ele>1398.4</ele>
        <time>2017-08-10T13:10:29Z</time>
      </trkpt>
      <trkpt lat="42.837026" lon="-0.640428">
        <ele>1399.3</ele>
        <time>2017-08-10T13:10:42Z</time>
      </trkpt>
      <trkpt lat="42.836923" lon="-0.640377">
        <ele>1400.3</ele>
        <time>2017-08-10T13:10:51Z</time>
      </trkpt>
      <trkpt lat="42.836802" lon="-0.640279">
        <ele>1401.3</ele>
        <time>2017-08-10T13:11:02Z</time>
      </trkpt>
      <trkpt lat="42.836726" lon="-0.640024">
        <ele>1402.2</ele>
        <time>2017-08-10T13:11:13Z</time>
      </trkpt>
      <trkpt lat="42.836711" lon="-0.639897">
        <ele>1402.7</ele>
        <time>2017-08-10T13:11:22Z</time>
      </trkpt>
      <trkpt lat="42.836655" lon="-0.639803">
        <ele>1403.2</ele>
        <time>2017-08-10T13:11:27Z</time>
      </trkpt>
      <trkpt lat="42.836520" lon="-0.639518">
        <ele>1405.1</ele>
        <time>2017-08-10T13:11:41Z</time>
      </trkpt>
      <trkpt lat="42.836497" lon="-0.639491">
        <ele>1404.6</ele>
        <time>2017-08-10T13:11:43Z</time>
      </trkpt>
      <trkpt lat="42.836410" lon="-0.639351">
        <ele>1406.6</ele>
        <time>2017-08-10T13:11:53Z</time>
      </trkpt>
      <trkpt lat="42.836329" lon="-0.639188">
        <ele>1408.9</ele>
        <time>2017-08-10T13:12:06Z</time>
      </trkpt>
      <trkpt lat="42.836168" lon="-0.639017">
        <ele>1410.4</ele>
        <time>2017-08-10T13:12:18Z</time>
      </trkpt>
      <trkpt lat="42.836157" lon="-0.639002">
        <ele>1410.4</ele>
        <time>2017-08-10T13:12:19Z</time>
      </trkpt>
      <trkpt lat="42.836094" lon="-0.638752">
        <ele>1411.3</ele>
        <time>2017-08-10T13:12:33Z</time>
      </trkpt>
      <trkpt lat="42.836016" lon="-0.638571">
        <ele>1412.3</ele>
        <time>2017-08-10T13:12:42Z</time>
      </trkpt>
      <trkpt lat="42.835964" lon="-0.638475">
        <ele>1413.8</ele>
        <time>2017-08-10T13:12:47Z</time>
      </trkpt>
      <trkpt lat="42.835921" lon="-0.638425">
        <ele>1413.8</ele>
        <time>2017-08-10T13:12:51Z</time>
      </trkpt>
      <trkpt lat="42.835891" lon="-0.638379">
        <ele>1413.8</ele>
        <time>2017-08-10T13:12:57Z</time>
      </trkpt>
      <trkpt lat="42.835829" lon="-0.638308">
        <ele>1412.8</ele>
        <time>2017-08-10T13:13:03Z</time>
      </trkpt>
      <trkpt lat="42.835796" lon="-0.638248">
        <ele>1412.8</ele>
        <time>2017-08-10T13:13:08Z</time>
      </trkpt>
      <trkpt lat="42.835775" lon="-0.638239">
        <ele>1412.8</ele>
        <time>2017-08-10T13:13:10Z</time>
      </trkpt>
      <trkpt lat="42.835767" lon="-0.638237">
        <ele>1412.8</ele>
        <time>2017-08-10T13:13:11Z</time>
      </trkpt>
      <trkpt lat="42.835665" lon="-0.638082">
        <ele>1412.8</ele>
        <time>2017-08-10T13:13:22Z</time>
      </trkpt>
      <trkpt lat="42.835629" lon="-0.638038">
        <ele>1412.8</ele>
        <time>2017-08-10T13:13:27Z</time>
      </trkpt>
      <trkpt lat="42.835542" lon="-0.637942">
        <ele>1413.8</ele>
        <time>2017-08-10T13:13:36Z</time>
      </trkpt>
      <trkpt lat="42.835496" lon="-0.637799">
        <ele>1413.8</ele>
        <time>2017-08-10T13:13:44Z</time>
      </trkpt>
      <trkpt lat="42.835481" lon="-0.637741">
        <ele>1413.8</ele>
        <time>2017-08-10T13:13:47Z</time>
      </trkpt>
      <trkpt lat="42.835443" lon="-0.637533">
        <ele>1414.2</ele>
        <time>2017-08-10T13:15:26Z</time>
      </trkpt>
      <trkpt lat="42.835426" lon="-0.637443">
        <ele>1413.8</ele>
        <time>2017-08-10T13:15:37Z</time>
      </trkpt>
      <trkpt lat="42.835379" lon="-0.637346">
        <ele>1413.3</ele>
        <time>2017-08-10T13:15:44Z</time>
      </trkpt>
      <trkpt lat="42.835357" lon="-0.637324">
        <ele>1413.3</ele>
        <time>2017-08-10T13:15:46Z</time>
      </trkpt>
      <trkpt lat="42.835334" lon="-0.637268">
        <ele>1412.8</ele>
        <time>2017-08-10T13:15:50Z</time>
      </trkpt>
      <trkpt lat="42.835299" lon="-0.637229">
        <ele>1412.8</ele>
        <time>2017-08-10T13:15:53Z</time>
      </trkpt>
      <trkpt lat="42.835263" lon="-0.637142">
        <ele>1412.8</ele>
        <time>2017-08-10T13:15:59Z</time>
      </trkpt>
      <trkpt lat="42.835151" lon="-0.636998">
        <ele>1411.3</ele>
        <time>2017-08-10T13:16:11Z</time>
      </trkpt>
      <trkpt lat="42.835055" lon="-0.637042">
        <ele>1412.3</ele>
        <time>2017-08-10T13:16:19Z</time>
      </trkpt>
      <trkpt lat="42.834941" lon="-0.637008">
        <ele>1416.2</ele>
        <time>2017-08-10T13:16:26Z</time>
      </trkpt>
      <trkpt lat="42.834909" lon="-0.636966">
        <ele>1416.2</ele>
        <time>2017-08-10T13:16:30Z</time>
      </trkpt>
      <trkpt lat="42.834830" lon="-0.636794">
        <ele>1418.1</ele>
        <time>2017-08-10T13:16:42Z</time>
      </trkpt>
      <trkpt lat="42.834805" lon="-0.636726">
        <ele>1419.5</ele>
        <time>2017-08-10T13:16:48Z</time>
      </trkpt>
      <trkpt lat="42.834797" lon="-0.636698">
        <ele>1420.0</ele>
        <time>2017-08-10T13:16:50Z</time>
      </trkpt>
      <trkpt lat="42.834786" lon="-0.636679">
        <ele>1420.0</ele>
        <time>2017-08-10T13:16:52Z</time>
      </trkpt>
      <trkpt lat="42.834735" lon="-0.636460">
        <ele>1421.0</ele>
        <time>2017-08-10T13:17:04Z</time>
      </trkpt>
      <trkpt lat="42.834739" lon="-0.636455">
        <ele>1421.0</ele>
        <time>2017-08-10T13:17:05Z</time>
      </trkpt>
      <trkpt lat="42.834692" lon="-0.636335">
        <ele>1421.4</ele>
        <time>2017-08-10T13:17:13Z</time>
      </trkpt>
      <trkpt lat="42.834681" lon="-0.636309">
        <ele>1421.4</ele>
        <time>2017-08-10T13:17:15Z</time>
      </trkpt>
      <trkpt lat="42.834640" lon="-0.636149">
        <ele>1421.9</ele>
        <time>2017-08-10T13:17:25Z</time>
      </trkpt>
      <trkpt lat="42.834635" lon="-0.636141">
        <ele>1421.9</ele>
        <time>2017-08-10T13:17:26Z</time>
      </trkpt>
      <trkpt lat="42.834503" lon="-0.636042">
        <ele>1422.9</ele>
        <time>2017-08-10T13:17:39Z</time>
      </trkpt>
      <trkpt lat="42.834451" lon="-0.636012">
        <ele>1423.4</ele>
        <time>2017-08-10T13:17:46Z</time>
      </trkpt>
      <trkpt lat="42.834351" lon="-0.635895">
        <ele>1423.4</ele>
        <time>2017-08-10T13:17:55Z</time>
      </trkpt>
      <trkpt lat="42.834340" lon="-0.635869">
        <ele>1423.4</ele>
        <time>2017-08-10T13:17:57Z</time>
      </trkpt>
      <trkpt lat="42.834282" lon="-0.635806">
        <ele>1423.4</ele>
        <time>2017-08-10T13:18:04Z</time>
      </trkpt>
      <trkpt lat="42.834253" lon="-0.635795">
        <ele>1423.4</ele>
        <time>2017-08-10T13:18:09Z</time>
      </trkpt>
      <trkpt lat="42.834222" lon="-0.635713">
        <ele>1423.4</ele>
        <time>2017-08-10T13:18:17Z</time>
      </trkpt>
      <trkpt lat="42.834204" lon="-0.635679">
        <ele>1423.4</ele>
        <time>2017-08-10T13:18:20Z</time>
      </trkpt>
      <trkpt lat="42.834171" lon="-0.635639">
        <ele>1423.4</ele>
        <time>2017-08-10T13:18:25Z</time>
      </trkpt>
      <trkpt lat="42.834165" lon="-0.635609">
        <ele>1423.8</ele>
        <time>2017-08-10T13:18:28Z</time>
      </trkpt>
      <trkpt lat="42.834149" lon="-0.635568">
        <ele>1424.3</ele>
        <time>2017-08-10T13:18:34Z</time>
      </trkpt>
      <trkpt lat="42.834100" lon="-0.635484">
        <ele>1426.2</ele>
        <time>2017-08-10T13:18:46Z</time>
      </trkpt>
      <trkpt lat="42.834051" lon="-0.635440">
        <ele>1426.7</ele>
        <time>2017-08-10T13:18:53Z</time>
      </trkpt>
      <trkpt lat="42.834026" lon="-0.635375">
        <ele>1427.2</ele>
        <time>2017-08-10T13:18:56Z</time>
      </trkpt>
      <trkpt lat="42.833923" lon="-0.635272">
        <ele>1427.7</ele>
        <time>2017-08-10T13:19:03Z</time>
      </trkpt>
      <trkpt lat="42.833784" lon="-0.635144">
        <ele>1429.1</ele>
        <time>2017-08-10T13:19:16Z</time>
      </trkpt>
      <trkpt lat="42.833686" lon="-0.635047">
        <ele>1429.6</ele>
        <time>2017-08-10T13:19:23Z</time>
      </trkpt>
      <trkpt lat="42.833632" lon="-0.634973">
        <ele>1430.6</ele>
        <time>2017-08-10T13:19:28Z</time>
      </trkpt>
      <trkpt lat="42.833537" lon="-0.634819">
        <ele>1432.0</ele>
        <time>2017-08-10T13:19:41Z</time>
      </trkpt>
      <trkpt lat="42.833518" lon="-0.634762">
        <ele>1432.5</ele>
        <time>2017-08-10T13:19:47Z</time>
      </trkpt>
      <trkpt lat="42.833438" lon="-0.634551">
        <ele>1434.4</ele>
        <time>2017-08-10T13:20:01Z</time>
      </trkpt>
      <trkpt lat="42.833391" lon="-0.634479">
        <ele>1435.4</ele>
        <time>2017-08-10T13:20:05Z</time>
      </trkpt>
      <trkpt lat="42.833357" lon="-0.634427">
        <ele>1435.9</ele>
        <time>2017-08-10T13:20:09Z</time>
      </trkpt>
      <trkpt lat="42.833334" lon="-0.634285">
        <ele>1437.3</ele>
        <time>2017-08-10T13:20:20Z</time>
      </trkpt>
      <trkpt lat="42.833295" lon="-0.634004">
        <ele>1438.3</ele>
        <time>2017-08-10T13:20:34Z</time>
      </trkpt>
      <trkpt lat="42.833298" lon="-0.633908">
        <ele>1438.3</ele>
        <time>2017-08-10T13:20:39Z</time>
      </trkpt>
      <trkpt lat="42.833348" lon="-0.633859">
        <ele>1439.7</ele>
        <time>2017-08-10T13:20:45Z</time>
      </trkpt>
      <trkpt lat="42.833415" lon="-0.633684">
        <ele>1443.6</ele>
        <time>2017-08-10T13:20:53Z</time>
      </trkpt>
      <trkpt lat="42.833480" lon="-0.633553">
        <ele>1444.5</ele>
        <time>2017-08-10T13:21:01Z</time>
      </trkpt>
      <trkpt lat="42.833519" lon="-0.633434">
        <ele>1446.9</ele>
        <time>2017-08-10T13:21:12Z</time>
      </trkpt>
      <trkpt lat="42.833468" lon="-0.633381">
        <ele>1447.9</ele>
        <time>2017-08-10T13:21:16Z</time>
      </trkpt>
      <trkpt lat="42.833442" lon="-0.633393">
        <ele>1447.9</ele>
        <time>2017-08-10T13:21:18Z</time>
      </trkpt>
      <trkpt lat="42.833354" lon="-0.633405">
        <ele>1449.8</ele>
        <time>2017-08-10T13:21:25Z</time>
      </trkpt>
      <trkpt lat="42.833348" lon="-0.633348">
        <ele>1449.8</ele>
        <time>2017-08-10T13:21:28Z</time>
      </trkpt>
      <trkpt lat="42.833370" lon="-0.633288">
        <ele>1450.3</ele>
        <time>2017-08-10T13:21:36Z</time>
      </trkpt>
      <trkpt lat="42.833370" lon="-0.633288">
        <ele>1450.8</ele>
        <time>2017-08-10T13:21:50Z</time>
      </trkpt>
      <trkpt lat="42.833343" lon="-0.633230">
        <ele>1450.8</ele>
        <time>2017-08-10T13:21:58Z</time>
      </trkpt>
      <trkpt lat="42.833319" lon="-0.633225">
        <ele>1450.8</ele>
        <time>2017-08-10T13:22:00Z</time>
      </trkpt>
      <trkpt lat="42.833257" lon="-0.633240">
        <ele>1450.3</ele>
        <time>2017-08-10T13:22:04Z</time>
      </trkpt>
      <trkpt lat="42.833205" lon="-0.633248">
        <ele>1451.7</ele>
        <time>2017-08-10T13:22:09Z</time>
      </trkpt>
      <trkpt lat="42.833175" lon="-0.633252">
        <ele>1455.6</ele>
        <time>2017-08-10T13:22:13Z</time>
      </trkpt>
      <trkpt lat="42.833096" lon="-0.633202">
        <ele>1458.9</ele>
        <time>2017-08-10T13:22:23Z</time>
      </trkpt>
      <trkpt lat="42.833121" lon="-0.633039">
        <ele>1461.3</ele>
        <time>2017-08-10T13:22:34Z</time>
      </trkpt>
      <trkpt lat="42.833144" lon="-0.633000">
        <ele>1461.8</ele>
        <time>2017-08-10T13:22:37Z</time>
      </trkpt>
      <trkpt lat="42.833145" lon="-0.632990">
        <ele>1461.8</ele>
        <time>2017-08-10T13:22:38Z</time>
      </trkpt>
      <trkpt lat="42.833126" lon="-0.632874">
        <ele>1464.2</ele>
        <time>2017-08-10T13:22:50Z</time>
      </trkpt>
      <trkpt lat="42.833224" lon="-0.632738">
        <ele>1464.7</ele>
        <time>2017-08-10T13:22:58Z</time>
      </trkpt>
      <trkpt lat="42.833260" lon="-0.632711">
        <ele>1464.7</ele>
        <time>2017-08-10T13:23:02Z</time>
      </trkpt>
      <trkpt lat="42.833284" lon="-0.632609">
        <ele>1467.1</ele>
        <time>2017-08-10T13:23:11Z</time>
      </trkpt>
      <trkpt lat="42.833252" lon="-0.632567">
        <ele>1470.9</ele>
        <time>2017-08-10T13:23:16Z</time>
      </trkpt>
      <trkpt lat="42.833263" lon="-0.632525">
        <ele>1471.9</ele>
        <time>2017-08-10T13:23:19Z</time>
      </trkpt>
      <trkpt lat="42.833285" lon="-0.632494">
        <ele>1472.4</ele>
        <time>2017-08-10T13:23:22Z</time>
      </trkpt>
      <trkpt lat="42.833290" lon="-0.632419">
        <ele>1474.8</ele>
        <time>2017-08-10T13:23:34Z</time>
      </trkpt>
      <trkpt lat="42.833258" lon="-0.632366">
        <ele>1476.2</ele>
        <time>2017-08-10T13:23:41Z</time>
      </trkpt>
      <trkpt lat="42.833273" lon="-0.632327">
        <ele>1476.7</ele>
        <time>2017-08-10T13:23:46Z</time>
      </trkpt>
      <trkpt lat="42.833264" lon="-0.632288">
        <ele>1477.7</ele>
        <time>2017-08-10T13:23:51Z</time>
      </trkpt>
      <trkpt lat="42.833182" lon="-0.632238">
        <ele>1480.1</ele>
        <time>2017-08-10T13:24:03Z</time>
      </trkpt>
      <trkpt lat="42.833148" lon="-0.632208">
        <ele>1481.1</ele>
        <time>2017-08-10T13:24:09Z</time>
      </trkpt>
      <trkpt lat="42.833157" lon="-0.632150">
        <ele>1482.0</ele>
        <time>2017-08-10T13:24:13Z</time>
      </trkpt>
      <trkpt lat="42.833077" lon="-0.632094">
        <ele>1482.5</ele>
        <time>2017-08-10T13:24:23Z</time>
      </trkpt>
      <trkpt lat="42.833055" lon="-0.632056">
        <ele>1482.5</ele>
        <time>2017-08-10T13:24:27Z</time>
      </trkpt>
      <trkpt lat="42.833008" lon="-0.632012">
        <ele>1486.3</ele>
        <time>2017-08-10T13:24:34Z</time>
      </trkpt>
      <trkpt lat="42.832979" lon="-0.631945">
        <ele>1489.7</ele>
        <time>2017-08-10T13:24:40Z</time>
      </trkpt>
      <trkpt lat="42.832960" lon="-0.631953">
        <ele>1490.7</ele>
        <time>2017-08-10T13:24:42Z</time>
      </trkpt>
      <trkpt lat="42.832932" lon="-0.631969">
        <ele>1491.1</ele>
        <time>2017-08-10T13:24:46Z</time>
      </trkpt>
      <trkpt lat="42.832907" lon="-0.631834">
        <ele>1493.1</ele>
        <time>2017-08-10T13:24:56Z</time>
      </trkpt>
      <trkpt lat="42.832879" lon="-0.631822">
        <ele>1493.6</ele>
        <time>2017-08-10T13:24:59Z</time>
      </trkpt>
      <trkpt lat="42.832864" lon="-0.631827">
        <ele>1494.0</ele>
        <time>2017-08-10T13:25:01Z</time>
      </trkpt>
      <trkpt lat="42.832811" lon="-0.631746">
        <ele>1495.5</ele>
        <time>2017-08-10T13:25:10Z</time>
      </trkpt>
      <trkpt lat="42.832759" lon="-0.631791">
        <ele>1495.5</ele>
        <time>2017-08-10T13:25:19Z</time>
      </trkpt>
      <trkpt lat="42.832727" lon="-0.631846">
        <ele>1498.8</ele>
        <time>2017-08-10T13:25:24Z</time>
      </trkpt>
      <trkpt lat="42.832683" lon="-0.631886">
        <ele>1501.7</ele>
        <time>2017-08-10T13:25:29Z</time>
      </trkpt>
      <trkpt lat="42.832663" lon="-0.631852">
        <ele>1502.2</ele>
        <time>2017-08-10T13:25:31Z</time>
      </trkpt>
      <trkpt lat="42.832639" lon="-0.631727">
        <ele>1504.1</ele>
        <time>2017-08-10T13:25:38Z</time>
      </trkpt>
      <trkpt lat="42.832619" lon="-0.631701">
        <ele>1504.6</ele>
        <time>2017-08-10T13:25:41Z</time>
      </trkpt>
      <trkpt lat="42.832605" lon="-0.631693">
        <ele>1505.1</ele>
        <time>2017-08-10T13:25:43Z</time>
      </trkpt>
      <trkpt lat="42.832506" lon="-0.631746">
        <ele>1507.5</ele>
        <time>2017-08-10T13:25:56Z</time>
      </trkpt>
      <trkpt lat="42.832503" lon="-0.631727">
        <ele>1508.0</ele>
        <time>2017-08-10T13:25:58Z</time>
      </trkpt>
      <trkpt lat="42.832492" lon="-0.631694">
        <ele>1508.4</ele>
        <time>2017-08-10T13:26:01Z</time>
      </trkpt>
      <trkpt lat="42.832451" lon="-0.631657">
        <ele>1508.4</ele>
        <time>2017-08-10T13:26:04Z</time>
      </trkpt>
      <trkpt lat="42.832370" lon="-0.631708">
        <ele>1509.4</ele>
        <time>2017-08-10T13:26:13Z</time>
      </trkpt>
      <trkpt lat="42.832348" lon="-0.631720">
        <ele>1510.4</ele>
        <time>2017-08-10T13:26:15Z</time>
      </trkpt>
      <trkpt lat="42.832113" lon="-0.631833">
        <ele>1511.8</ele>
        <time>2017-08-10T13:26:30Z</time>
      </trkpt>
      <trkpt lat="42.831944" lon="-0.631820">
        <ele>1514.2</ele>
        <time>2017-08-10T13:26:43Z</time>
      </trkpt>
      <trkpt lat="42.831875" lon="-0.631804">
        <ele>1514.7</ele>
        <time>2017-08-10T13:26:48Z</time>
      </trkpt>
      <trkpt lat="42.831706" lon="-0.631779">
        <ele>1518.0</ele>
        <time>2017-08-10T13:26:57Z</time>
      </trkpt>
      <trkpt lat="42.831703" lon="-0.631779">
        <ele>1517.6</ele>
        <time>2017-08-10T13:27:26Z</time>
      </trkpt>
      <trkpt lat="42.831710" lon="-0.631725">
        <ele>1523.6</ele>
        <time>2017-08-10T13:27:58Z</time>
      </trkpt>
      <trkpt lat="42.831677" lon="-0.631559">
        <ele>1527.2</ele>
        <time>2017-08-10T13:28:07Z</time>
      </trkpt>
      <trkpt lat="42.831671" lon="-0.631535">
        <ele>1527.7</ele>
        <time>2017-08-10T13:28:09Z</time>
      </trkpt>
      <trkpt lat="42.831660" lon="-0.631425">
        <ele>1529.8</ele>
        <time>2017-08-10T13:28:19Z</time>
      </trkpt>
      <trkpt lat="42.831676" lon="-0.631415">
        <ele>1529.5</ele>
        <time>2017-08-10T13:28:21Z</time>
      </trkpt>
      <trkpt lat="42.831672" lon="-0.631363">
        <ele>1530.6</ele>
        <time>2017-08-10T13:28:27Z</time>
      </trkpt>
      <trkpt lat="42.831611" lon="-0.631277">
        <ele>1533.7</ele>
        <time>2017-08-10T13:28:38Z</time>
      </trkpt>
      <trkpt lat="42.831597" lon="-0.631274">
        <ele>1534.0</ele>
        <time>2017-08-10T13:28:41Z</time>
      </trkpt>
      <trkpt lat="42.831549" lon="-0.631209">
        <ele>1536.5</ele>
        <time>2017-08-10T13:28:53Z</time>
      </trkpt>
      <trkpt lat="42.831529" lon="-0.631174">
        <ele>1537.7</ele>
        <time>2017-08-10T13:29:02Z</time>
      </trkpt>
      <trkpt lat="42.831532" lon="-0.631168">
        <ele>1537.8</ele>
        <time>2017-08-10T13:29:03Z</time>
      </trkpt>
      <trkpt lat="42.831511" lon="-0.631103">
        <ele>1540.0</ele>
        <time>2017-08-10T13:29:15Z</time>
      </trkpt>
      <trkpt lat="42.831514" lon="-0.631043">
        <ele>1541.5</ele>
        <time>2017-08-10T13:29:26Z</time>
      </trkpt>
      <trkpt lat="42.831531" lon="-0.630948">
        <ele>1544.0</ele>
        <time>2017-08-10T13:29:35Z</time>
      </trkpt>
      <trkpt lat="42.831552" lon="-0.630925">
        <ele>1544.3</ele>
        <time>2017-08-10T13:29:40Z</time>
      </trkpt>
      <trkpt lat="42.831578" lon="-0.630919">
        <ele>1544.0</ele>
        <time>2017-08-10T13:29:44Z</time>
      </trkpt>
      <trkpt lat="42.831650" lon="-0.630890">
        <ele>1544.6</ele>
        <time>2017-08-10T13:29:55Z</time>
      </trkpt>
      <trkpt lat="42.831685" lon="-0.630843">
        <ele>1546.3</ele>
        <time>2017-08-10T13:30:00Z</time>
      </trkpt>
      <trkpt lat="42.831697" lon="-0.630824">
        <ele>1547.0</ele>
        <time>2017-08-10T13:30:02Z</time>
      </trkpt>
      <trkpt lat="42.831708" lon="-0.630802">
        <ele>1547.7</ele>
        <time>2017-08-10T13:30:06Z</time>
      </trkpt>
      <trkpt lat="42.831721" lon="-0.630723">
        <ele>1550.3</ele>
        <time>2017-08-10T13:30:17Z</time>
      </trkpt>
      <trkpt lat="42.831726" lon="-0.630710">
        <ele>1550.7</ele>
        <time>2017-08-10T13:30:26Z</time>
      </trkpt>
      <trkpt lat="42.831736" lon="-0.630657">
        <ele>1552.5</ele>
        <time>2017-08-10T13:30:36Z</time>
      </trkpt>
      <trkpt lat="42.831725" lon="-0.630622">
        <ele>1553.7</ele>
        <time>2017-08-10T13:47:12Z</time>
      </trkpt>
      <trkpt lat="42.831691" lon="-0.630645">
        <ele>1552.6</ele>
        <time>2017-08-10T13:47:25Z</time>
      </trkpt>
      <trkpt lat="42.831664" lon="-0.630634">
        <ele>1552.9</ele>
        <time>2017-08-10T13:47:28Z</time>
      </trkpt>
      <trkpt lat="42.831655" lon="-0.630615">
        <ele>1553.5</ele>
        <time>2017-08-10T13:47:38Z</time>
      </trkpt>
      <trkpt lat="42.831669" lon="-0.630592">
        <ele>1554.4</ele>
        <time>2017-08-10T13:47:51Z</time>
      </trkpt>
      <trkpt lat="42.831686" lon="-0.630555">
        <ele>1555.8</ele>
        <time>2017-08-10T13:47:55Z</time>
      </trkpt>
      <trkpt lat="42.831667" lon="-0.630513">
        <ele>1557.3</ele>
        <time>2017-08-10T13:48:07Z</time>
      </trkpt>
      <trkpt lat="42.831622" lon="-0.630509">
        <ele>1557.3</ele>
        <time>2017-08-10T13:48:18Z</time>
      </trkpt>
      <trkpt lat="42.831551" lon="-0.630516">
        <ele>1557.6</ele>
        <time>2017-08-10T13:48:27Z</time>
      </trkpt>
      <trkpt lat="42.831529" lon="-0.630533">
        <ele>1557.3</ele>
        <time>2017-08-10T13:48:32Z</time>
      </trkpt>
      <trkpt lat="42.831458" lon="-0.630510">
        <ele>1559.4</ele>
        <time>2017-08-10T13:48:44Z</time>
      </trkpt>
      <trkpt lat="42.831499" lon="-0.630414">
        <ele>1562.2</ele>
        <time>2017-08-10T13:48:54Z</time>
      </trkpt>
      <trkpt lat="42.831522" lon="-0.630369">
        <ele>1563.6</ele>
        <time>2017-08-10T13:48:57Z</time>
      </trkpt>
      <trkpt lat="42.831520" lon="-0.630351">
        <ele>1564.3</ele>
        <time>2017-08-10T13:49:01Z</time>
      </trkpt>
      <trkpt lat="42.831469" lon="-0.630338">
        <ele>1565.7</ele>
        <time>2017-08-10T13:49:06Z</time>
      </trkpt>
      <trkpt lat="42.831447" lon="-0.630349">
        <ele>1565.8</ele>
        <time>2017-08-10T13:49:09Z</time>
      </trkpt>
      <trkpt lat="42.831436" lon="-0.630340">
        <ele>1566.3</ele>
        <time>2017-08-10T13:49:12Z</time>
      </trkpt>
      <trkpt lat="42.831440" lon="-0.630313">
        <ele>1567.2</ele>
        <time>2017-08-10T13:49:15Z</time>
      </trkpt>
      <trkpt lat="42.831484" lon="-0.630254">
        <ele>1568.5</ele>
        <time>2017-08-10T13:49:28Z</time>
      </trkpt>
      <trkpt lat="42.831523" lon="-0.630178">
        <ele>1570.6</ele>
        <time>2017-08-10T13:49:36Z</time>
      </trkpt>
      <trkpt lat="42.831555" lon="-0.630146">
        <ele>1571.4</ele>
        <time>2017-08-10T13:49:40Z</time>
      </trkpt>
      <trkpt lat="42.831635" lon="-0.630028">
        <ele>1575.8</ele>
        <time>2017-08-10T13:49:52Z</time>
      </trkpt>
      <trkpt lat="42.831636" lon="-0.630029">
        <ele>1575.8</ele>
        <time>2017-08-10T13:49:58Z</time>
      </trkpt>
      <trkpt lat="42.831568" lon="-0.629991">
        <ele>1577.6</ele>
        <time>2017-08-10T13:50:09Z</time>
      </trkpt>
      <trkpt lat="42.831502" lon="-0.629908">
        <ele>1581.3</ele>
        <time>2017-08-10T13:50:21Z</time>
      </trkpt>
      <trkpt lat="42.831490" lon="-0.629879">
        <ele>1582.5</ele>
        <time>2017-08-10T13:50:24Z</time>
      </trkpt>
      <trkpt lat="42.831456" lon="-0.629829">
        <ele>1584.5</ele>
        <time>2017-08-10T13:50:36Z</time>
      </trkpt>
      <trkpt lat="42.831413" lon="-0.629785">
        <ele>1586.3</ele>
        <time>2017-08-10T13:50:49Z</time>
      </trkpt>
      <trkpt lat="42.831403" lon="-0.629767">
        <ele>1587.0</ele>
        <time>2017-08-10T13:50:51Z</time>
      </trkpt>
      <trkpt lat="42.831372" lon="-0.629739">
        <ele>1588.0</ele>
        <time>2017-08-10T13:50:56Z</time>
      </trkpt>
      <trkpt lat="42.831311" lon="-0.629762">
        <ele>1587.6</ele>
        <time>2017-08-10T13:51:07Z</time>
      </trkpt>
      <trkpt lat="42.831286" lon="-0.629801">
        <ele>1586.8</ele>
        <time>2017-08-10T13:51:13Z</time>
      </trkpt>
      <trkpt lat="42.831239" lon="-0.629868">
        <ele>1585.6</ele>
        <time>2017-08-10T13:51:19Z</time>
      </trkpt>
      <trkpt lat="42.831237" lon="-0.629909">
        <ele>1584.5</ele>
        <time>2017-08-10T13:51:21Z</time>
      </trkpt>
      <trkpt lat="42.831212" lon="-0.629990">
        <ele>1582.5</ele>
        <time>2017-08-10T13:51:26Z</time>
      </trkpt>
      <trkpt lat="42.831151" lon="-0.630002">
        <ele>1583.2</ele>
        <time>2017-08-10T13:51:31Z</time>
      </trkpt>
      <trkpt lat="42.831159" lon="-0.629922">
        <ele>1585.4</ele>
        <time>2017-08-10T13:51:35Z</time>
      </trkpt>
      <trkpt lat="42.831150" lon="-0.629835">
        <ele>1587.9</ele>
        <time>2017-08-10T13:51:40Z</time>
      </trkpt>
      <trkpt lat="42.831146" lon="-0.629771">
        <ele>1589.7</ele>
        <time>2017-08-10T13:51:44Z</time>
      </trkpt>
      <trkpt lat="42.831147" lon="-0.629753">
        <ele>1590.2</ele>
        <time>2017-08-10T13:51:45Z</time>
      </trkpt>
      <trkpt lat="42.831146" lon="-0.629676">
        <ele>1592.5</ele>
        <time>2017-08-10T13:51:51Z</time>
      </trkpt>
      <trkpt lat="42.831127" lon="-0.629619">
        <ele>1594.6</ele>
        <time>2017-08-10T13:51:56Z</time>
      </trkpt>
      <trkpt lat="42.831107" lon="-0.629589">
        <ele>1596.1</ele>
        <time>2017-08-10T13:52:01Z</time>
      </trkpt>
      <trkpt lat="42.831061" lon="-0.629544">
        <ele>1598.6</ele>
        <time>2017-08-10T13:52:06Z</time>
      </trkpt>
      <trkpt lat="42.831044" lon="-0.629491">
        <ele>1600.9</ele>
        <time>2017-08-10T13:52:11Z</time>
      </trkpt>
      <trkpt lat="42.831031" lon="-0.629464">
        <ele>1602.1</ele>
        <time>2017-08-10T13:52:14Z</time>
      </trkpt>
      <trkpt lat="42.831043" lon="-0.629412">
        <ele>1603.9</ele>
        <time>2017-08-10T13:52:19Z</time>
      </trkpt>
      <trkpt lat="42.831046" lon="-0.629408">
        <ele>1604.0</ele>
        <time>2017-08-10T13:52:22Z</time>
      </trkpt>
      <trkpt lat="42.831042" lon="-0.629408">
        <ele>1604.1</ele>
        <time>2017-08-10T13:52:35Z</time>
      </trkpt>
      <trkpt lat="42.831059" lon="-0.629321">
        <ele>1607.6</ele>
        <time>2017-08-10T13:52:46Z</time>
      </trkpt>
      <trkpt lat="42.831067" lon="-0.629192">
        <ele>1613.1</ele>
        <time>2017-08-10T13:52:58Z</time>
      </trkpt>
      <trkpt lat="42.830992" lon="-0.629192">
        <ele>1613.8</ele>
        <time>2017-08-10T13:53:08Z</time>
      </trkpt>
      <trkpt lat="42.830940" lon="-0.629077">
        <ele>1618.0</ele>
        <time>2017-08-10T13:53:18Z</time>
      </trkpt>
      <trkpt lat="42.830952" lon="-0.629036">
        <ele>1618.7</ele>
        <time>2017-08-10T13:53:21Z</time>
      </trkpt>
      <trkpt lat="42.830942" lon="-0.629017">
        <ele>1618.9</ele>
        <time>2017-08-10T13:53:23Z</time>
      </trkpt>
      <trkpt lat="42.830931" lon="-0.629010">
        <ele>1619.0</ele>
        <time>2017-08-10T13:53:25Z</time>
      </trkpt>
      <trkpt lat="42.830927" lon="-0.629005">
        <ele>1619.1</ele>
        <time>2017-08-10T13:53:26Z</time>
      </trkpt>
      <trkpt lat="42.830928" lon="-0.628995">
        <ele>1619.2</ele>
        <time>2017-08-10T13:53:30Z</time>
      </trkpt>
      <trkpt lat="42.830933" lon="-0.628991">
        <ele>1619.2</ele>
        <time>2017-08-10T13:53:34Z</time>
      </trkpt>
      <trkpt lat="42.830932" lon="-0.628951">
        <ele>1619.5</ele>
        <time>2017-08-10T13:53:38Z</time>
      </trkpt>
      <trkpt lat="42.830937" lon="-0.628923">
        <ele>1619.5</ele>
        <time>2017-08-10T13:53:42Z</time>
      </trkpt>
      <trkpt lat="42.830940" lon="-0.628910">
        <ele>1619.6</ele>
        <time>2017-08-10T13:53:45Z</time>
      </trkpt>
      <trkpt lat="42.830947" lon="-0.628898">
        <ele>1619.6</ele>
        <time>2017-08-10T13:53:48Z</time>
      </trkpt>
      <trkpt lat="42.830954" lon="-0.628862">
        <ele>1619.6</ele>
        <time>2017-08-10T13:53:51Z</time>
      </trkpt>
      <trkpt lat="42.830947" lon="-0.628841">
        <ele>1619.5</ele>
        <time>2017-08-10T13:53:53Z</time>
      </trkpt>
      <trkpt lat="42.830940" lon="-0.628820">
        <ele>1619.3</ele>
        <time>2017-08-10T13:53:55Z</time>
      </trkpt>
      <trkpt lat="42.830934" lon="-0.628803">
        <ele>1619.2</ele>
        <time>2017-08-10T13:53:57Z</time>
      </trkpt>
      <trkpt lat="42.830926" lon="-0.628771">
        <ele>1619.1</ele>
        <time>2017-08-10T13:53:59Z</time>
      </trkpt>
      <trkpt lat="42.830919" lon="-0.628716">
        <ele>1619.1</ele>
        <time>2017-08-10T13:54:02Z</time>
      </trkpt>
      <trkpt lat="42.830919" lon="-0.628702">
        <ele>1619.1</ele>
        <time>2017-08-10T13:54:03Z</time>
      </trkpt>
      <trkpt lat="42.830920" lon="-0.628677">
        <ele>1619.1</ele>
        <time>2017-08-10T13:54:05Z</time>
      </trkpt>
      <trkpt lat="42.830915" lon="-0.628659">
        <ele>1619.1</ele>
        <time>2017-08-10T13:54:07Z</time>
      </trkpt>
      <trkpt lat="42.830846" lon="-0.628594">
        <ele>1619.6</ele>
        <time>2013-06-21T12:48:47Z</time>
      </trkpt>
      <trkpt lat="42.830771" lon="-0.628407">
        <ele>1618.7</ele>
        <time>2013-06-21T12:51:51Z</time>
      </trkpt>
      <trkpt lat="42.830741" lon="-0.628380">
        <ele>1619.2</ele>
        <time>2013-06-21T12:51:54Z</time>
      </trkpt>
      <trkpt lat="42.830734" lon="-0.628287">
        <ele>1618.3</ele>
        <time>2013-06-21T12:52:07Z</time>
      </trkpt>
      <trkpt lat="42.830719" lon="-0.628222">
        <ele>1617.9</ele>
        <time>2013-06-21T12:52:17Z</time>
      </trkpt>
      <trkpt lat="42.830679" lon="-0.628122">
        <ele>1613.7</ele>
        <time>2013-06-21T12:52:27Z</time>
      </trkpt>
      <trkpt lat="42.830654" lon="-0.628090">
        <ele>1613.2</ele>
        <time>2013-06-21T12:52:30Z</time>
      </trkpt>
      <trkpt lat="42.830610" lon="-0.628041">
        <ele>1613.1</ele>
        <time>2013-06-21T12:52:42Z</time>
      </trkpt>
      <trkpt lat="42.830591" lon="-0.628033">
        <ele>1613.5</ele>
        <time>2013-06-21T12:53:08Z</time>
      </trkpt>
      <trkpt lat="42.830502" lon="-0.627933">
        <ele>1616.1</ele>
        <time>2013-06-21T12:53:20Z</time>
      </trkpt>
      <trkpt lat="42.830501" lon="-0.627901">
        <ele>1615.5</ele>
        <time>2013-06-21T12:57:03Z</time>
      </trkpt>
      <trkpt lat="42.830468" lon="-0.627843">
        <ele>1615.9</ele>
        <time>2013-06-21T12:57:24Z</time>
      </trkpt>
      <trkpt lat="42.830407" lon="-0.627801">
        <ele>1616.8</ele>
        <time>2013-06-21T12:57:35Z</time>
      </trkpt>
      <trkpt lat="42.830343" lon="-0.627716">
        <ele>1616.8</ele>
        <time>2013-06-21T12:57:48Z</time>
      </trkpt>
      <trkpt lat="42.830331" lon="-0.627664">
        <ele>1615.6</ele>
        <time>2013-06-21T12:57:54Z</time>
      </trkpt>
      <trkpt lat="42.830269" lon="-0.627528">
        <ele>1613.3</ele>
        <time>2013-06-21T12:58:08Z</time>
      </trkpt>
      <trkpt lat="42.830241" lon="-0.627447">
        <ele>1610.9</ele>
        <time>2013-06-21T12:58:19Z</time>
      </trkpt>
      <trkpt lat="42.830213" lon="-0.627397">
        <ele>1609.9</ele>
        <time>2013-06-21T12:58:34Z</time>
      </trkpt>
      <trkpt lat="42.830209" lon="-0.627400">
        <ele>1610.2</ele>
        <time>2013-06-21T12:59:07Z</time>
      </trkpt>
      <trkpt lat="42.830200" lon="-0.627397">
        <ele>1610.3</ele>
        <time>2013-06-21T12:59:26Z</time>
      </trkpt>
      <trkpt lat="42.830180" lon="-0.627368">
        <ele>1609.8</ele>
        <time>2013-06-21T12:59:43Z</time>
      </trkpt>
      <trkpt lat="42.830152" lon="-0.627342">
        <ele>1609.9</ele>
        <time>2013-06-21T12:59:47Z</time>
      </trkpt>
      <trkpt lat="42.830070" lon="-0.627318">
        <ele>1610.8</ele>
        <time>2013-06-21T13:00:01Z</time>
      </trkpt>
      <trkpt lat="42.830021" lon="-0.627292">
        <ele>1610.2</ele>
        <time>2013-06-21T13:00:24Z</time>
      </trkpt>
      <trkpt lat="42.830007" lon="-0.627290">
        <ele>1610.5</ele>
        <time>2013-06-21T13:00:25Z</time>
      </trkpt>
      <trkpt lat="42.829888" lon="-0.627351">
        <ele>1613.7</ele>
        <time>2013-06-21T13:00:39Z</time>
      </trkpt>
      <trkpt lat="42.829798" lon="-0.627406">
        <ele>1613.3</ele>
        <time>2013-06-21T13:00:57Z</time>
      </trkpt>
      <trkpt lat="42.829798" lon="-0.627406">
        <ele>1613.3</ele>
        <time>2013-06-21T13:01:03Z</time>
      </trkpt>
      <trkpt lat="42.829695" lon="-0.627433">
        <ele>1613.8</ele>
        <time>2013-06-21T13:01:10Z</time>
      </trkpt>
      <trkpt lat="42.829541" lon="-0.627456">
        <ele>1616.2</ele>
        <time>2013-06-21T13:01:24Z</time>
      </trkpt>
      <trkpt lat="42.829535" lon="-0.627457">
        <ele>1616.5</ele>
        <time>2013-06-21T13:01:25Z</time>
      </trkpt>
      <trkpt lat="42.829462" lon="-0.627395">
        <ele>1613.3</ele>
        <time>2013-06-21T13:01:36Z</time>
      </trkpt>
      <trkpt lat="42.829435" lon="-0.627314">
        <ele>1610.4</ele>
        <time>2013-06-21T13:01:51Z</time>
      </trkpt>
      <trkpt lat="42.829367" lon="-0.627262">
        <ele>1611.2</ele>
        <time>2013-06-21T13:01:55Z</time>
      </trkpt>
      <trkpt lat="42.829222" lon="-0.627216">
        <ele>1612.0</ele>
        <time>2013-06-21T13:02:05Z</time>
      </trkpt>
      <trkpt lat="42.829130" lon="-0.627227">
        <ele>1613.9</ele>
        <time>2013-06-21T13:02:17Z</time>
      </trkpt>
      <trkpt lat="42.829130" lon="-0.627227">
        <ele>1613.9</ele>
        <time>2013-06-21T13:02:49Z</time>
      </trkpt>
      <trkpt lat="42.829117" lon="-0.627214">
        <ele>1613.4</ele>
        <time>2013-06-21T13:03:04Z</time>
      </trkpt>
      <trkpt lat="42.828993" lon="-0.627169">
        <ele>1611.6</ele>
        <time>2013-06-21T13:03:17Z</time>
      </trkpt>
      <trkpt lat="42.828993" lon="-0.627169">
        <ele>1611.6</ele>
        <time>2013-06-21T13:03:24Z</time>
      </trkpt>
      <trkpt lat="42.828933" lon="-0.627078">
        <ele>1608.8</ele>
        <time>2013-06-21T13:03:32Z</time>
      </trkpt>
      <trkpt lat="42.828879" lon="-0.627063">
        <ele>1608.0</ele>
        <time>2013-06-21T13:03:36Z</time>
      </trkpt>
      <trkpt lat="42.828788" lon="-0.627055">
        <ele>1608.1</ele>
        <time>2013-06-21T13:03:41Z</time>
      </trkpt>
      <trkpt lat="42.828739" lon="-0.626991">
        <ele>1606.4</ele>
        <time>2013-06-21T13:03:55Z</time>
      </trkpt>
      <trkpt lat="42.828658" lon="-0.626932">
        <ele>1605.4</ele>
        <time>2013-06-21T13:04:02Z</time>
      </trkpt>
      <trkpt lat="42.828611" lon="-0.626919">
        <ele>1605.2</ele>
        <time>2013-06-21T13:04:05Z</time>
      </trkpt>
      <trkpt lat="42.828511" lon="-0.626907">
        <ele>1606.6</ele>
        <time>2013-06-21T13:04:11Z</time>
      </trkpt>
      <trkpt lat="42.828451" lon="-0.626899">
        <ele>1607.7</ele>
        <time>2013-06-21T13:04:15Z</time>
      </trkpt>
      <trkpt lat="42.828375" lon="-0.626893">
        <ele>1609.2</ele>
        <time>2013-06-21T13:04:20Z</time>
      </trkpt>
      <trkpt lat="42.828310" lon="-0.626918">
        <ele>1611.6</ele>
        <time>2013-06-21T13:04:24Z</time>
      </trkpt>
      <trkpt lat="42.828180" lon="-0.626854">
        <ele>1613.7</ele>
        <time>2013-06-21T13:04:39Z</time>
      </trkpt>
      <trkpt lat="42.828089" lon="-0.626770">
        <ele>1613.6</ele>
        <time>2013-06-21T13:04:51Z</time>
      </trkpt>
      <trkpt lat="42.828008" lon="-0.626744">
        <ele>1613.6</ele>
        <time>2013-06-21T13:05:00Z</time>
      </trkpt>
      <trkpt lat="42.827988" lon="-0.626724">
        <ele>1612.8</ele>
        <time>2013-06-21T13:05:03Z</time>
      </trkpt>
      <trkpt lat="42.827927" lon="-0.626699">
        <ele>1612.5</ele>
        <time>2013-06-21T13:05:11Z</time>
      </trkpt>
      <trkpt lat="42.827901" lon="-0.626702">
        <ele>1612.6</ele>
        <time>2013-06-21T13:05:13Z</time>
      </trkpt>
      <trkpt lat="42.827811" lon="-0.626597">
        <ele>1610.5</ele>
        <time>2013-06-21T13:05:22Z</time>
      </trkpt>
      <trkpt lat="42.827720" lon="-0.626523">
        <ele>1609.3</ele>
        <time>2013-06-21T13:05:30Z</time>
      </trkpt>
      <trkpt lat="42.827558" lon="-0.626500">
        <ele>1609.8</ele>
        <time>2013-06-21T13:05:43Z</time>
      </trkpt>
      <trkpt lat="42.827458" lon="-0.626454">
        <ele>1610.1</ele>
        <time>2013-06-21T13:05:51Z</time>
      </trkpt>
      <trkpt lat="42.827222" lon="-0.626539">
        <ele>1610.8</ele>
        <time>2013-06-21T13:06:07Z</time>
      </trkpt>
      <trkpt lat="42.827154" lon="-0.626572">
        <ele>1611.6</ele>
        <time>2013-06-21T13:06:13Z</time>
      </trkpt>
      <trkpt lat="42.827017" lon="-0.626631">
        <ele>1616.0</ele>
        <time>2013-06-21T13:06:26Z</time>
      </trkpt>
      <trkpt lat="42.826924" lon="-0.626492">
        <ele>1613.6</ele>
        <time>2013-06-21T13:06:40Z</time>
      </trkpt>
      <trkpt lat="42.826833" lon="-0.626457">
        <ele>1613.6</ele>
        <time>2013-06-21T13:06:47Z</time>
      </trkpt>
      <trkpt lat="42.826728" lon="-0.626343">
        <ele>1612.4</ele>
        <time>2013-06-21T13:06:59Z</time>
      </trkpt>
      <trkpt lat="42.826617" lon="-0.626298">
        <ele>1613.5</ele>
        <time>2013-06-21T13:07:09Z</time>
      </trkpt>
      <trkpt lat="42.826533" lon="-0.626172">
        <ele>1611.9</ele>
        <time>2013-06-21T13:07:21Z</time>
      </trkpt>
      <trkpt lat="42.826462" lon="-0.626091">
        <ele>1611.3</ele>
        <time>2013-06-21T13:07:29Z</time>
      </trkpt>
      <trkpt lat="42.826363" lon="-0.625967">
        <ele>1610.1</ele>
        <time>2013-06-21T13:07:39Z</time>
      </trkpt>
      <trkpt lat="42.826307" lon="-0.625948">
        <ele>1609.3</ele>
        <time>2013-06-21T13:07:54Z</time>
      </trkpt>
      <trkpt lat="42.826308" lon="-0.625945">
        <ele>1609.3</ele>
        <time>2013-06-21T13:08:29Z</time>
      </trkpt>
      <trkpt lat="42.826157" lon="-0.625995">
        <ele>1611.1</ele>
        <time>2013-06-21T13:08:42Z</time>
      </trkpt>
      <trkpt lat="42.826158" lon="-0.625999">
        <ele>1611.3</ele>
        <time>2013-06-21T13:08:45Z</time>
      </trkpt>
      <trkpt lat="42.826045" lon="-0.625984">
        <ele>1611.1</ele>
        <time>2013-06-21T13:08:55Z</time>
      </trkpt>
      <trkpt lat="42.825919" lon="-0.625951">
        <ele>1611.0</ele>
        <time>2013-06-21T13:09:08Z</time>
      </trkpt>
      <trkpt lat="42.825900" lon="-0.625943">
        <ele>1611.1</ele>
        <time>2013-06-21T13:09:10Z</time>
      </trkpt>
      <trkpt lat="42.825808" lon="-0.625887">
        <ele>1610.2</ele>
        <time>2013-06-21T13:09:24Z</time>
      </trkpt>
      <trkpt lat="42.825795" lon="-0.625885">
        <ele>1610.3</ele>
        <time>2013-06-21T13:09:25Z</time>
      </trkpt>
      <trkpt lat="42.825763" lon="-0.625895">
        <ele>1610.9</ele>
        <time>2013-06-21T13:09:27Z</time>
      </trkpt>
      <trkpt lat="42.825696" lon="-0.625900">
        <ele>1610.8</ele>
        <time>2013-06-21T13:09:32Z</time>
      </trkpt>
      <trkpt lat="42.825584" lon="-0.625896">
        <ele>1610.5</ele>
        <time>2013-06-21T13:09:41Z</time>
      </trkpt>
      <trkpt lat="42.825515" lon="-0.625833">
        <ele>1609.1</ele>
        <time>2013-06-21T13:09:48Z</time>
      </trkpt>
      <trkpt lat="42.825490" lon="-0.625835">
        <ele>1609.2</ele>
        <time>2013-06-21T13:09:50Z</time>
      </trkpt>
      <trkpt lat="42.825366" lon="-0.625788">
        <ele>1609.6</ele>
        <time>2013-06-21T13:10:02Z</time>
      </trkpt>
      <trkpt lat="42.825335" lon="-0.625774">
        <ele>1609.3</ele>
        <time>2013-06-21T13:10:06Z</time>
      </trkpt>
      <trkpt lat="42.825298" lon="-0.625721">
        <ele>1608.5</ele>
        <time>2013-06-21T13:10:21Z</time>
      </trkpt>
      <trkpt lat="42.825298" lon="-0.625721">
        <ele>1608.5</ele>
        <time>2013-06-21T13:10:24Z</time>
      </trkpt>
      <trkpt lat="42.825141" lon="-0.625669">
        <ele>1607.8</ele>
        <time>2013-06-21T13:10:38Z</time>
      </trkpt>
      <trkpt lat="42.825046" lon="-0.625656">
        <ele>1608.0</ele>
        <time>2013-06-21T13:10:44Z</time>
      </trkpt>
      <trkpt lat="42.824934" lon="-0.625618">
        <ele>1608.9</ele>
        <time>2013-06-21T13:10:53Z</time>
      </trkpt>
      <trkpt lat="42.824922" lon="-0.625605">
        <ele>1608.6</ele>
        <time>2013-06-21T13:10:55Z</time>
      </trkpt>
      <trkpt lat="42.824864" lon="-0.625577">
        <ele>1608.1</ele>
        <time>2013-06-21T13:11:00Z</time>
      </trkpt>
      <trkpt lat="42.824816" lon="-0.625544">
        <ele>1607.8</ele>
        <time>2013-06-21T13:11:04Z</time>
      </trkpt>
      <trkpt lat="42.824674" lon="-0.625634">
        <ele>1611.8</ele>
        <time>2013-06-21T13:11:14Z</time>
      </trkpt>
      <trkpt lat="42.824642" lon="-0.625644">
        <ele>1612.1</ele>
        <time>2013-06-21T13:11:16Z</time>
      </trkpt>
      <trkpt lat="42.824513" lon="-0.625678">
        <ele>1613.1</ele>
        <time>2013-06-21T13:11:28Z</time>
      </trkpt>
      <trkpt lat="42.824488" lon="-0.625645">
        <ele>1613.1</ele>
        <time>2013-06-21T13:11:32Z</time>
      </trkpt>
      <trkpt lat="42.824452" lon="-0.625655">
        <ele>1613.5</ele>
        <time>2013-06-21T13:11:39Z</time>
      </trkpt>
      <trkpt lat="42.824425" lon="-0.625652">
        <ele>1613.2</ele>
        <time>2013-06-21T13:11:44Z</time>
      </trkpt>
      <trkpt lat="42.824350" lon="-0.625631">
        <ele>1612.0</ele>
        <time>2013-06-21T13:14:10Z</time>
      </trkpt>
      <trkpt lat="42.824350" lon="-0.625629">
        <ele>1612.0</ele>
        <time>2013-06-21T13:14:40Z</time>
      </trkpt>
      <trkpt lat="42.824348" lon="-0.625626">
        <ele>1612.0</ele>
        <time>2013-06-21T13:15:18Z</time>
      </trkpt>
      <trkpt lat="42.824348" lon="-0.625626">
        <ele>1612.0</ele>
        <time>2013-06-21T13:15:39Z</time>
      </trkpt>
      <trkpt lat="42.824344" lon="-0.625631">
        <ele>1612.0</ele>
        <time>2013-06-21T13:16:03Z</time>
      </trkpt>
      <trkpt lat="42.824344" lon="-0.625631">
        <ele>1612.0</ele>
        <time>2013-06-21T13:16:31Z</time>
      </trkpt>
      <trkpt lat="42.824136" lon="-0.625721">
        <ele>1615.4</ele>
        <time>2013-06-21T13:16:46Z</time>
      </trkpt>
      <trkpt lat="42.824072" lon="-0.625716">
        <ele>1615.7</ele>
        <time>2013-06-21T13:16:54Z</time>
      </trkpt>
      <trkpt lat="42.823980" lon="-0.625609">
        <ele>1613.8</ele>
        <time>2013-06-21T13:17:07Z</time>
      </trkpt>
      <trkpt lat="42.823901" lon="-0.625611">
        <ele>1614.1</ele>
        <time>2013-06-21T13:17:15Z</time>
      </trkpt>
      <trkpt lat="42.823878" lon="-0.625605">
        <ele>1614.5</ele>
        <time>2013-06-21T13:17:17Z</time>
      </trkpt>
      <trkpt lat="42.823858" lon="-0.625609">
        <ele>1614.8</ele>
        <time>2013-06-21T13:17:19Z</time>
      </trkpt>
      <trkpt lat="42.823842" lon="-0.625587">
        <ele>1614.9</ele>
        <time>2013-06-21T13:17:21Z</time>
      </trkpt>
      <trkpt lat="42.823822" lon="-0.625536">
        <ele>1614.7</ele>
        <time>2013-06-21T13:17:25Z</time>
      </trkpt>
      <trkpt lat="42.823751" lon="-0.625492">
        <ele>1614.6</ele>
        <time>2013-06-21T13:17:31Z</time>
      </trkpt>
      <trkpt lat="42.823733" lon="-0.625460">
        <ele>1614.3</ele>
        <time>2013-06-21T13:17:44Z</time>
      </trkpt>
      <trkpt lat="42.823733" lon="-0.625460">
        <ele>1614.3</ele>
        <time>2013-06-21T13:18:08Z</time>
      </trkpt>
      <trkpt lat="42.823653" lon="-0.625411">
        <ele>1614.2</ele>
        <time>2013-06-21T13:18:15Z</time>
      </trkpt>
      <trkpt lat="42.823573" lon="-0.625386">
        <ele>1613.8</ele>
        <time>2013-06-21T13:18:21Z</time>
      </trkpt>
      <trkpt lat="42.823434" lon="-0.625387">
        <ele>1614.7</ele>
        <time>2013-06-21T13:18:31Z</time>
      </trkpt>
      <trkpt lat="42.823371" lon="-0.625383">
        <ele>1615.5</ele>
        <time>2013-06-21T13:18:35Z</time>
      </trkpt>
      <trkpt lat="42.823347" lon="-0.625352">
        <ele>1615.3</ele>
        <time>2013-06-21T13:18:38Z</time>
      </trkpt>
      <trkpt lat="42.823335" lon="-0.625322">
        <ele>1615.1</ele>
        <time>2013-06-21T13:18:41Z</time>
      </trkpt>
      <trkpt lat="42.823206" lon="-0.625151">
        <ele>1613.8</ele>
        <time>2013-06-21T13:18:56Z</time>
      </trkpt>
      <trkpt lat="42.823138" lon="-0.625082">
        <ele>1615.1</ele>
        <time>2013-06-21T13:19:04Z</time>
      </trkpt>
      <trkpt lat="42.823109" lon="-0.625032">
        <ele>1615.0</ele>
        <time>2013-06-21T13:19:08Z</time>
      </trkpt>
      <trkpt lat="42.823025" lon="-0.625003">
        <ele>1614.9</ele>
        <time>2013-06-21T13:19:14Z</time>
      </trkpt>
      <trkpt lat="42.822821" lon="-0.625023">
        <ele>1615.1</ele>
        <time>2013-06-21T13:19:29Z</time>
      </trkpt>
      <trkpt lat="42.822668" lon="-0.624949">
        <ele>1614.4</ele>
        <time>2013-06-21T13:19:45Z</time>
      </trkpt>
      <trkpt lat="42.822582" lon="-0.624899">
        <ele>1615.2</ele>
        <time>2013-06-21T13:19:56Z</time>
      </trkpt>
      <trkpt lat="42.822577" lon="-0.624863">
        <ele>1615.4</ele>
        <time>2013-06-21T13:19:59Z</time>
      </trkpt>
      <trkpt lat="42.822399" lon="-0.624756">
        <ele>1615.3</ele>
        <time>2013-06-21T13:20:16Z</time>
      </trkpt>
      <trkpt lat="42.822387" lon="-0.624754">
        <ele>1615.3</ele>
        <time>2013-06-21T13:20:17Z</time>
      </trkpt>
      <trkpt lat="42.822240" lon="-0.624765">
        <ele>1615.3</ele>
        <time>2013-06-21T13:20:27Z</time>
      </trkpt>
      <trkpt lat="42.822006" lon="-0.624811">
        <ele>1615.8</ele>
        <time>2013-06-21T13:20:45Z</time>
      </trkpt>
      <trkpt lat="42.821831" lon="-0.624762">
        <ele>1614.7</ele>
        <time>2013-06-21T13:21:00Z</time>
      </trkpt>
      <trkpt lat="42.821769" lon="-0.624760">
        <ele>1614.8</ele>
        <time>2013-06-21T13:21:05Z</time>
      </trkpt>
      <trkpt lat="42.821740" lon="-0.624732">
        <ele>1614.9</ele>
        <time>2013-06-21T13:21:09Z</time>
      </trkpt>
      <trkpt lat="42.821723" lon="-0.624711">
        <ele>1614.9</ele>
        <time>2013-06-21T13:21:11Z</time>
      </trkpt>
      <trkpt lat="42.821669" lon="-0.624750">
        <ele>1615.3</ele>
        <time>2013-06-21T13:21:16Z</time>
      </trkpt>
      <trkpt lat="42.821582" lon="-0.624675">
        <ele>1614.7</ele>
        <time>2013-06-21T13:21:24Z</time>
      </trkpt>
      <trkpt lat="42.821378" lon="-0.624611">
        <ele>1613.8</ele>
        <time>2013-06-21T13:21:40Z</time>
      </trkpt>
      <trkpt lat="42.821257" lon="-0.624550">
        <ele>1613.4</ele>
        <time>2013-06-21T13:21:53Z</time>
      </trkpt>
      <trkpt lat="42.821056" lon="-0.624539">
        <ele>1614.0</ele>
        <time>2013-06-21T13:22:07Z</time>
      </trkpt>
      <trkpt lat="42.820947" lon="-0.624521">
        <ele>1614.0</ele>
        <time>2013-06-21T13:22:19Z</time>
      </trkpt>
      <trkpt lat="42.820925" lon="-0.624529">
        <ele>1614.1</ele>
        <time>2013-06-21T13:22:21Z</time>
      </trkpt>
      <trkpt lat="42.820820" lon="-0.624533">
        <ele>1614.3</ele>
        <time>2013-06-21T13:22:30Z</time>
      </trkpt>
      <trkpt lat="42.820745" lon="-0.624554">
        <ele>1614.9</ele>
        <time>2013-06-21T13:22:42Z</time>
      </trkpt>
      <trkpt lat="42.820716" lon="-0.624472">
        <ele>1614.9</ele>
        <time>2013-06-21T13:22:53Z</time>
      </trkpt>
      <trkpt lat="42.820732" lon="-0.624430">
        <ele>1614.7</ele>
        <time>2013-06-21T13:23:07Z</time>
      </trkpt>
      <trkpt lat="42.820725" lon="-0.624418">
        <ele>1614.7</ele>
        <time>2013-06-21T13:23:10Z</time>
      </trkpt>
      <trkpt lat="42.820713" lon="-0.624391">
        <ele>1614.8</ele>
        <time>2013-06-21T13:23:12Z</time>
      </trkpt>
      <trkpt lat="42.820594" lon="-0.624177">
        <ele>1614.9</ele>
        <time>2013-06-21T13:23:29Z</time>
      </trkpt>
      <trkpt lat="42.820424" lon="-0.624021">
        <ele>1614.1</ele>
        <time>2013-06-21T13:23:45Z</time>
      </trkpt>
      <trkpt lat="42.820413" lon="-0.624020">
        <ele>1614.1</ele>
        <time>2013-06-21T13:23:46Z</time>
      </trkpt>
      <trkpt lat="42.820293" lon="-0.623959">
        <ele>1614.0</ele>
        <time>2013-06-21T13:23:56Z</time>
      </trkpt>
      <trkpt lat="42.820215" lon="-0.623941">
        <ele>1614.1</ele>
        <time>2013-06-21T13:24:05Z</time>
      </trkpt>
      <trkpt lat="42.820190" lon="-0.623934">
        <ele>1614.1</ele>
        <time>2013-06-21T13:24:08Z</time>
      </trkpt>
      <trkpt lat="42.820030" lon="-0.623863">
        <ele>1613.4</ele>
        <time>2013-06-21T13:24:23Z</time>
      </trkpt>
      <trkpt lat="42.820019" lon="-0.623863">
        <ele>1613.4</ele>
        <time>2013-06-21T13:24:24Z</time>
      </trkpt>
      <trkpt lat="42.819893" lon="-0.623858">
        <ele>1613.7</ele>
        <time>2013-06-21T13:24:34Z</time>
      </trkpt>
      <trkpt lat="42.819887" lon="-0.623793">
        <ele>1613.5</ele>
        <time>2013-06-21T13:24:38Z</time>
      </trkpt>
      <trkpt lat="42.819844" lon="-0.623749">
        <ele>1613.6</ele>
        <time>2013-06-21T13:24:43Z</time>
      </trkpt>
      <trkpt lat="42.819824" lon="-0.623746">
        <ele>1613.8</ele>
        <time>2013-06-21T13:24:45Z</time>
      </trkpt>
      <trkpt lat="42.819809" lon="-0.623690">
        <ele>1614.2</ele>
        <time>2013-06-21T13:24:50Z</time>
      </trkpt>
      <trkpt lat="42.819743" lon="-0.623651">
        <ele>1615.0</ele>
        <time>2013-06-21T13:24:59Z</time>
      </trkpt>
      <trkpt lat="42.819574" lon="-0.623573">
        <ele>1615.8</ele>
        <time>2013-06-21T13:25:15Z</time>
      </trkpt>
      <trkpt lat="42.819441" lon="-0.623425">
        <ele>1616.3</ele>
        <time>2013-06-21T13:25:30Z</time>
      </trkpt>
      <trkpt lat="42.819297" lon="-0.623342">
        <ele>1616.8</ele>
        <time>2013-06-21T13:25:42Z</time>
      </trkpt>
      <trkpt lat="42.819112" lon="-0.623294">
        <ele>1617.5</ele>
        <time>2013-06-21T13:25:58Z</time>
      </trkpt>
      <trkpt lat="42.818874" lon="-0.623245">
        <ele>1618.1</ele>
        <time>2013-06-21T13:26:17Z</time>
      </trkpt>
      <trkpt lat="42.818711" lon="-0.623196">
        <ele>1618.6</ele>
        <time>2013-06-21T13:26:31Z</time>
      </trkpt>
      <trkpt lat="42.818490" lon="-0.623150">
        <ele>1619.4</ele>
        <time>2013-06-21T13:26:48Z</time>
      </trkpt>
      <trkpt lat="42.818314" lon="-0.623095">
        <ele>1620.0</ele>
        <time>2013-06-21T13:27:04Z</time>
      </trkpt>
      <trkpt lat="42.818194" lon="-0.623064">
        <ele>1620.4</ele>
        <time>2013-06-21T13:27:14Z</time>
      </trkpt>
      <trkpt lat="42.818139" lon="-0.623039">
        <ele>1620.4</ele>
        <time>2013-06-21T13:27:20Z</time>
      </trkpt>
      <trkpt lat="42.818103" lon="-0.623037">
        <ele>1620.5</ele>
        <time>2013-06-21T13:27:23Z</time>
      </trkpt>
      <trkpt lat="42.817882" lon="-0.623046">
        <ele>1621.2</ele>
        <time>2013-06-21T13:27:39Z</time>
      </trkpt>
      <trkpt lat="42.817854" lon="-0.623070">
        <ele>1621.3</ele>
        <time>2013-06-21T13:27:43Z</time>
      </trkpt>
      <trkpt lat="42.817816" lon="-0.623113">
        <ele>1621.5</ele>
        <time>2013-06-21T13:27:49Z</time>
      </trkpt>
      <trkpt lat="42.817747" lon="-0.623091">
        <ele>1621.5</ele>
        <time>2013-06-21T13:28:01Z</time>
      </trkpt>
      <trkpt lat="42.817742" lon="-0.623097">
        <ele>1621.5</ele>
        <time>2013-06-21T13:28:02Z</time>
      </trkpt>
      <trkpt lat="42.817681" lon="-0.623074">
        <ele>1621.4</ele>
        <time>2013-06-21T13:28:09Z</time>
      </trkpt>
      <trkpt lat="42.817658" lon="-0.623051">
        <ele>1621.2</ele>
        <time>2013-06-21T13:28:12Z</time>
      </trkpt>
      <trkpt lat="42.817531" lon="-0.623101">
        <ele>1620.8</ele>
        <time>2013-06-21T13:28:25Z</time>
      </trkpt>
      <trkpt lat="42.817506" lon="-0.623103">
        <ele>1620.8</ele>
        <time>2013-06-21T13:28:27Z</time>
      </trkpt>
      <trkpt lat="42.817447" lon="-0.623141">
        <ele>1621.2</ele>
        <time>2013-06-21T13:28:33Z</time>
      </trkpt>
      <trkpt lat="42.817369" lon="-0.623142">
        <ele>1621.0</ele>
        <time>2013-06-21T13:28:43Z</time>
      </trkpt>
      <trkpt lat="42.817353" lon="-0.623111">
        <ele>1620.9</ele>
        <time>2013-06-21T13:28:46Z</time>
      </trkpt>
      <trkpt lat="42.817218" lon="-0.623031">
        <ele>1620.6</ele>
        <time>2013-06-21T13:29:00Z</time>
      </trkpt>
      <trkpt lat="42.817167" lon="-0.623033">
        <ele>1621.0</ele>
        <time>2013-06-21T13:29:04Z</time>
      </trkpt>
      <trkpt lat="42.817067" lon="-0.622928">
        <ele>1620.1</ele>
        <time>2013-06-21T13:29:16Z</time>
      </trkpt>
      <trkpt lat="42.817004" lon="-0.622979">
        <ele>1620.3</ele>
        <time>2013-06-21T13:29:21Z</time>
      </trkpt>
      <trkpt lat="42.816942" lon="-0.623026">
        <ele>1620.6</ele>
        <time>2013-06-21T13:29:26Z</time>
      </trkpt>
      <trkpt lat="42.816810" lon="-0.623061">
        <ele>1621.2</ele>
        <time>2013-06-21T13:29:38Z</time>
      </trkpt>
      <trkpt lat="42.816703" lon="-0.623077">
        <ele>1621.4</ele>
        <time>2013-06-21T13:29:50Z</time>
      </trkpt>
      <trkpt lat="42.816648" lon="-0.623143">
        <ele>1621.6</ele>
        <time>2013-06-21T13:29:54Z</time>
      </trkpt>
      <trkpt lat="42.816615" lon="-0.623194">
        <ele>1622.1</ele>
        <time>2013-06-21T13:30:00Z</time>
      </trkpt>
      <trkpt lat="42.816582" lon="-0.623139">
        <ele>1622.2</ele>
        <time>2013-06-21T13:30:09Z</time>
      </trkpt>
      <trkpt lat="42.816554" lon="-0.623092">
        <ele>1622.2</ele>
        <time>2013-06-21T13:30:13Z</time>
      </trkpt>
      <trkpt lat="42.816535" lon="-0.623078">
        <ele>1622.1</ele>
        <time>2013-06-21T13:30:15Z</time>
      </trkpt>
      <trkpt lat="42.816490" lon="-0.622910">
        <ele>1621.6</ele>
        <time>2013-06-21T13:30:27Z</time>
      </trkpt>
      <trkpt lat="42.816453" lon="-0.622878">
        <ele>1621.5</ele>
        <time>2013-06-21T13:30:31Z</time>
      </trkpt>
      <trkpt lat="42.816222" lon="-0.622868">
        <ele>1621.4</ele>
        <time>2013-06-21T13:30:48Z</time>
      </trkpt>
      <trkpt lat="42.816028" lon="-0.622904">
        <ele>1621.7</ele>
        <time>2013-06-21T13:31:02Z</time>
      </trkpt>
      <trkpt lat="42.815941" lon="-0.622877">
        <ele>1621.5</ele>
        <time>2013-06-21T13:31:10Z</time>
      </trkpt>
      <trkpt lat="42.815706" lon="-0.622849">
        <ele>1621.0</ele>
        <time>2013-06-21T13:31:29Z</time>
      </trkpt>
      <trkpt lat="42.815604" lon="-0.622842">
        <ele>1620.7</ele>
        <time>2013-06-21T13:31:43Z</time>
      </trkpt>
      <trkpt lat="42.815519" lon="-0.622844">
        <ele>1620.3</ele>
        <time>2013-06-21T13:31:51Z</time>
      </trkpt>
      <trkpt lat="42.815437" lon="-0.622873">
        <ele>1620.5</ele>
        <time>2013-06-21T13:31:59Z</time>
      </trkpt>
      <trkpt lat="42.815411" lon="-0.622848">
        <ele>1620.6</ele>
        <time>2013-06-21T13:32:02Z</time>
      </trkpt>
      <trkpt lat="42.815347" lon="-0.622830">
        <ele>1620.8</ele>
        <time>2013-06-21T13:32:07Z</time>
      </trkpt>
      <trkpt lat="42.815156" lon="-0.622784">
        <ele>1621.1</ele>
        <time>2013-06-21T13:32:22Z</time>
      </trkpt>
      <trkpt lat="42.814977" lon="-0.622760">
        <ele>1621.3</ele>
        <time>2013-06-21T13:32:37Z</time>
      </trkpt>
      <trkpt lat="42.814983" lon="-0.622726">
        <ele>1621.5</ele>
        <time>2013-06-21T13:32:42Z</time>
      </trkpt>
      <trkpt lat="42.814978" lon="-0.622703">
        <ele>1621.8</ele>
        <time>2013-06-21T13:32:49Z</time>
      </trkpt>
      <trkpt lat="42.814902" lon="-0.622701">
        <ele>1621.9</ele>
        <time>2013-06-21T13:32:53Z</time>
      </trkpt>
      <trkpt lat="42.814741" lon="-0.622693">
        <ele>1622.2</ele>
        <time>2013-06-21T13:33:06Z</time>
      </trkpt>
      <trkpt lat="42.814686" lon="-0.622682">
        <ele>1622.3</ele>
        <time>2013-06-21T13:33:10Z</time>
      </trkpt>
      <trkpt lat="42.814407" lon="-0.622678">
        <ele>1622.7</ele>
        <time>2013-06-21T13:33:26Z</time>
      </trkpt>
      <trkpt lat="42.814224" lon="-0.622688">
        <ele>1622.9</ele>
        <time>2013-06-21T13:33:42Z</time>
      </trkpt>
      <trkpt lat="42.814193" lon="-0.622675">
        <ele>1622.9</ele>
        <time>2013-06-21T13:33:47Z</time>
      </trkpt>
      <trkpt lat="42.814071" lon="-0.622723">
        <ele>1624.0</ele>
        <time>2013-06-21T13:34:03Z</time>
      </trkpt>
      <trkpt lat="42.814067" lon="-0.622725">
        <ele>1624.0</ele>
        <time>2013-06-21T13:34:05Z</time>
      </trkpt>
      <trkpt lat="42.814036" lon="-0.622702">
        <ele>1624.5</ele>
        <time>2013-06-21T13:34:10Z</time>
      </trkpt>
      <trkpt lat="42.813933" lon="-0.622714">
        <ele>1625.2</ele>
        <time>2013-06-21T13:34:19Z</time>
      </trkpt>
      <trkpt lat="42.813849" lon="-0.622698">
        <ele>1624.8</ele>
        <time>2013-06-21T13:34:27Z</time>
      </trkpt>
      <trkpt lat="42.813825" lon="-0.622699">
        <ele>1624.8</ele>
        <time>2013-06-21T13:34:34Z</time>
      </trkpt>
      <trkpt lat="42.813687" lon="-0.622630">
        <ele>1624.8</ele>
        <time>2013-06-21T13:34:49Z</time>
      </trkpt>
      <trkpt lat="42.813577" lon="-0.622488">
        <ele>1624.3</ele>
        <time>2013-06-21T13:35:05Z</time>
      </trkpt>
      <trkpt lat="42.813556" lon="-0.622438">
        <ele>1624.0</ele>
        <time>2013-06-21T13:35:09Z</time>
      </trkpt>
      <trkpt lat="42.813511" lon="-0.622350">
        <ele>1623.3</ele>
        <time>2013-06-21T13:35:19Z</time>
      </trkpt>
      <trkpt lat="42.813468" lon="-0.622244">
        <ele>1622.8</ele>
        <time>2013-06-21T13:35:26Z</time>
      </trkpt>
      <trkpt lat="42.813335" lon="-0.622033">
        <ele>1622.7</ele>
        <time>2013-06-21T13:35:42Z</time>
      </trkpt>
      <trkpt lat="42.813186" lon="-0.621811">
        <ele>1622.9</ele>
        <time>2013-06-21T13:36:00Z</time>
      </trkpt>
      <trkpt lat="42.813038" lon="-0.621575">
        <ele>1622.2</ele>
        <time>2013-06-21T13:36:20Z</time>
      </trkpt>
      <trkpt lat="42.813035" lon="-0.621557">
        <ele>1622.3</ele>
        <time>2013-06-21T13:36:25Z</time>
      </trkpt>
      <trkpt lat="42.812996" lon="-0.621535">
        <ele>1622.0</ele>
        <time>2013-06-21T13:36:40Z</time>
      </trkpt>
      <trkpt lat="42.812994" lon="-0.621530">
        <ele>1622.0</ele>
        <time>2013-06-21T13:37:01Z</time>
      </trkpt>
      <trkpt lat="42.812995" lon="-0.621532">
        <ele>1622.0</ele>
        <time>2013-06-21T13:37:05Z</time>
      </trkpt>
      <trkpt lat="42.812878" lon="-0.621369">
        <ele>1620.8</ele>
        <time>2013-06-21T13:37:20Z</time>
      </trkpt>
      <trkpt lat="42.812872" lon="-0.621358">
        <ele>1620.8</ele>
        <time>2013-06-21T13:37:21Z</time>
      </trkpt>
      <trkpt lat="42.812848" lon="-0.621300">
        <ele>1620.7</ele>
        <time>2013-06-21T13:37:25Z</time>
      </trkpt>
      <trkpt lat="42.812727" lon="-0.621085">
        <ele>1620.5</ele>
        <time>2013-06-21T13:37:41Z</time>
      </trkpt>
      <trkpt lat="42.812639" lon="-0.620952">
        <ele>1620.6</ele>
        <time>2013-06-21T13:37:52Z</time>
      </trkpt>
      <trkpt lat="42.812005" lon="-0.619629">
        <ele>1628.8</ele>
        <time>2013-06-21T14:22:08Z</time>
      </trkpt>
      <trkpt lat="42.811722" lon="-0.618972">
        <ele>1634.7</ele>
        <time>2013-06-21T14:29:27Z</time>
      </trkpt>
      <trkpt lat="42.811590" lon="-0.618475">
        <ele>1642.5</ele>
        <time>2013-06-21T14:29:37Z</time>
      </trkpt>
      <trkpt lat="42.811715" lon="-0.618072">
        <ele>1645.8</ele>
        <time>2013-06-21T14:29:47Z</time>
      </trkpt>
      <trkpt lat="42.811728" lon="-0.617489">
        <ele>1648.5</ele>
        <time>2013-06-21T14:30:07Z</time>
      </trkpt>
      <trkpt lat="42.811841" lon="-0.616271">
        <ele>1656.6</ele>
        <time>2013-06-21T14:30:24Z</time>
      </trkpt>
      <trkpt lat="42.811797" lon="-0.615309">
        <ele>1659.4</ele>
        <time>2013-06-21T14:30:39Z</time>
      </trkpt>
      <trkpt lat="42.811718" lon="-0.615175">
        <ele>1659.6</ele>
        <time>2013-06-21T14:30:51Z</time>
      </trkpt>
      <trkpt lat="42.811648" lon="-0.615030">
        <ele>1659.6</ele>
        <time>2013-06-21T14:31:08Z</time>
      </trkpt>
      <trkpt lat="42.811533" lon="-0.614743">
        <ele>1660.5</ele>
        <time>2013-06-21T14:31:23Z</time>
      </trkpt>
      <trkpt lat="42.811425" lon="-0.614505">
        <ele>1661.5</ele>
        <time>2013-06-21T14:31:37Z</time>
      </trkpt>
      <trkpt lat="42.811317" lon="-0.614327">
        <ele>1662.2</ele>
        <time>2013-06-21T14:31:53Z</time>
      </trkpt>
      <trkpt lat="42.811209" lon="-0.614190">
        <ele>1662.9</ele>
        <time>2013-06-21T14:32:11Z</time>
      </trkpt>
      <trkpt lat="42.811072" lon="-0.613972">
        <ele>1663.8</ele>
        <time>2013-06-21T14:32:24Z</time>
      </trkpt>
      <trkpt lat="42.810961" lon="-0.613786">
        <ele>1664.5</ele>
        <time>2013-06-21T14:32:37Z</time>
      </trkpt>
      <trkpt lat="42.810860" lon="-0.613624">
        <ele>1665.0</ele>
        <time>2013-06-21T14:32:40Z</time>
      </trkpt>
      <trkpt lat="42.810710" lon="-0.613423">
        <ele>1664.8</ele>
        <time>2013-06-21T14:33:14Z</time>
      </trkpt>
      <trkpt lat="42.810556" lon="-0.613148">
        <ele>1664.3</ele>
        <time>2013-06-21T14:33:18Z</time>
      </trkpt>
      <trkpt lat="42.810434" lon="-0.613008">
        <ele>1663.8</ele>
        <time>2013-06-21T14:33:21Z</time>
      </trkpt>
      <trkpt lat="42.810334" lon="-0.612915">
        <ele>1663.5</ele>
        <time>2013-06-21T14:33:24Z</time>
      </trkpt>
      <trkpt lat="42.810318" lon="-0.612910">
        <ele>1663.5</ele>
        <time>2013-06-21T14:33:34Z</time>
      </trkpt>
      <trkpt lat="42.810198" lon="-0.612864">
        <ele>1662.6</ele>
        <time>2013-06-21T14:33:43Z</time>
      </trkpt>
      <trkpt lat="42.810188" lon="-0.612808">
        <ele>1662.7</ele>
        <time>2013-06-21T14:33:45Z</time>
      </trkpt>
      <trkpt lat="42.810202" lon="-0.612767">
        <ele>1662.9</ele>
        <time>2013-06-21T14:33:56Z</time>
      </trkpt>
      <trkpt lat="42.810191" lon="-0.612725">
        <ele>1663.0</ele>
        <time>2013-06-21T14:34:03Z</time>
      </trkpt>
      <trkpt lat="42.810074" lon="-0.612754">
        <ele>1662.7</ele>
        <time>2013-06-21T14:34:14Z</time>
      </trkpt>
      <trkpt lat="42.809979" lon="-0.612697">
        <ele>1663.2</ele>
        <time>2013-06-21T14:34:29Z</time>
      </trkpt>
      <trkpt lat="42.809960" lon="-0.612683">
        <ele>1663.3</ele>
        <time>2013-06-21T14:34:42Z</time>
      </trkpt>
      <trkpt lat="42.809857" lon="-0.612602">
        <ele>1664.3</ele>
        <time>2013-06-21T14:34:55Z</time>
      </trkpt>
      <trkpt lat="42.809827" lon="-0.612532">
        <ele>1664.8</ele>
        <time>2013-06-21T14:35:06Z</time>
      </trkpt>
      <trkpt lat="42.809767" lon="-0.612402">
        <ele>1666.0</ele>
        <time>2013-06-21T14:35:18Z</time>
      </trkpt>
      <trkpt lat="42.809672" lon="-0.612236">
        <ele>1668.0</ele>
        <time>2013-06-21T14:35:24Z</time>
      </trkpt>
      <trkpt lat="42.809585" lon="-0.612118">
        <ele>1669.7</ele>
        <time>2013-06-21T14:35:26Z</time>
      </trkpt>
      <trkpt lat="42.809498" lon="-0.611975">
        <ele>1672.4</ele>
        <time>2013-06-21T14:35:30Z</time>
      </trkpt>
      <trkpt lat="42.809471" lon="-0.611921">
        <ele>1673.0</ele>
        <time>2013-06-21T14:35:43Z</time>
      </trkpt>
      <trkpt lat="42.809393" lon="-0.611848">
        <ele>1673.6</ele>
        <time>2013-06-21T14:35:48Z</time>
      </trkpt>
      <trkpt lat="42.809332" lon="-0.611821">
        <ele>1674.6</ele>
        <time>2013-06-21T14:35:53Z</time>
      </trkpt>
      <trkpt lat="42.809322" lon="-0.611818">
        <ele>1674.8</ele>
        <time>2013-06-21T14:36:00Z</time>
      </trkpt>
      <trkpt lat="42.809294" lon="-0.611799">
        <ele>1675.2</ele>
        <time>2013-06-21T14:36:13Z</time>
      </trkpt>
      <trkpt lat="42.809183" lon="-0.611701">
        <ele>1676.3</ele>
        <time>2013-06-21T14:36:30Z</time>
      </trkpt>
      <trkpt lat="42.809138" lon="-0.611648">
        <ele>1676.5</ele>
        <time>2013-06-21T14:36:44Z</time>
      </trkpt>
      <trkpt lat="42.809113" lon="-0.611591">
        <ele>1676.7</ele>
        <time>2013-06-21T14:37:00Z</time>
      </trkpt>
      <trkpt lat="42.809068" lon="-0.611534">
        <ele>1677.8</ele>
        <time>2013-06-21T14:37:06Z</time>
      </trkpt>
      <trkpt lat="42.809038" lon="-0.611411">
        <ele>1679.9</ele>
        <time>2013-06-21T14:37:12Z</time>
      </trkpt>
      <trkpt lat="42.808963" lon="-0.611236">
        <ele>1684.0</ele>
        <time>2013-06-21T14:37:14Z</time>
      </trkpt>
      <trkpt lat="42.808947" lon="-0.611215">
        <ele>1684.6</ele>
        <time>2013-06-21T14:37:28Z</time>
      </trkpt>
      <trkpt lat="42.808867" lon="-0.611030">
        <ele>1688.2</ele>
        <time>2013-06-21T14:37:41Z</time>
      </trkpt>
      <trkpt lat="42.808840" lon="-0.610954">
        <ele>1688.4</ele>
        <time>2013-06-21T14:37:45Z</time>
      </trkpt>
      <trkpt lat="42.808810" lon="-0.610872">
        <ele>1688.7</ele>
        <time>2013-06-21T14:37:53Z</time>
      </trkpt>
      <trkpt lat="42.808793" lon="-0.610856">
        <ele>1688.7</ele>
        <time>2013-06-21T14:37:55Z</time>
      </trkpt>
      <trkpt lat="42.808718" lon="-0.610734">
        <ele>1689.4</ele>
        <time>2013-06-21T14:38:01Z</time>
      </trkpt>
      <trkpt lat="42.808662" lon="-0.610674">
        <ele>1690.2</ele>
        <time>2013-06-21T14:38:11Z</time>
      </trkpt>
      <trkpt lat="42.808641" lon="-0.610632">
        <ele>1690.3</ele>
        <time>2013-06-21T14:38:22Z</time>
      </trkpt>
      <trkpt lat="42.808594" lon="-0.610546">
        <ele>1690.8</ele>
        <time>2013-06-21T14:38:33Z</time>
      </trkpt>
      <trkpt lat="42.808584" lon="-0.610526">
        <ele>1690.9</ele>
        <time>2013-06-21T14:38:38Z</time>
      </trkpt>
      <trkpt lat="42.808550" lon="-0.610465">
        <ele>1691.5</ele>
        <time>2013-06-21T14:38:45Z</time>
      </trkpt>
      <trkpt lat="42.808489" lon="-0.610436">
        <ele>1693.4</ele>
        <time>2013-06-21T14:38:57Z</time>
      </trkpt>
      <trkpt lat="42.808435" lon="-0.610410">
        <ele>1695.1</ele>
        <time>2013-06-21T14:39:10Z</time>
      </trkpt>
      <trkpt lat="42.808359" lon="-0.610391">
        <ele>1694.1</ele>
        <time>2013-06-21T14:39:13Z</time>
      </trkpt>
      <trkpt lat="42.808314" lon="-0.610400">
        <ele>1692.7</ele>
        <time>2013-06-21T14:39:24Z</time>
      </trkpt>
      <trkpt lat="42.808253" lon="-0.610463">
        <ele>1691.0</ele>
        <time>2013-06-21T14:39:34Z</time>
      </trkpt>
      <trkpt lat="42.808214" lon="-0.610535">
        <ele>1690.7</ele>
        <time>2013-06-21T14:39:42Z</time>
      </trkpt>
      <trkpt lat="42.808116" lon="-0.610647">
        <ele>1689.6</ele>
        <time>2013-06-21T14:39:47Z</time>
      </trkpt>
      <trkpt lat="42.808091" lon="-0.610677">
        <ele>1689.5</ele>
        <time>2013-06-21T14:39:58Z</time>
      </trkpt>
      <trkpt lat="42.807995" lon="-0.610776">
        <ele>1688.6</ele>
        <time>2013-06-21T14:40:07Z</time>
      </trkpt>
      <trkpt lat="42.807893" lon="-0.610807">
        <ele>1688.2</ele>
        <time>2013-06-21T14:40:20Z</time>
      </trkpt>
      <trkpt lat="42.807831" lon="-0.610848">
        <ele>1689.3</ele>
        <time>2013-06-21T14:40:21Z</time>
      </trkpt>
      <trkpt lat="42.807783" lon="-0.610890">
        <ele>1690.0</ele>
        <time>2013-06-21T14:40:25Z</time>
      </trkpt>
      <trkpt lat="42.807667" lon="-0.610935">
        <ele>1690.1</ele>
        <time>2013-06-21T14:40:28Z</time>
      </trkpt>
      <trkpt lat="42.807584" lon="-0.610941">
        <ele>1689.9</ele>
        <time>2013-06-21T14:40:38Z</time>
      </trkpt>
      <trkpt lat="42.807489" lon="-0.610859">
        <ele>1689.4</ele>
        <time>2013-06-21T14:40:42Z</time>
      </trkpt>
      <trkpt lat="42.807480" lon="-0.610851">
        <ele>1689.5</ele>
        <time>2013-06-21T14:40:44Z</time>
      </trkpt>
      <trkpt lat="42.807457" lon="-0.610807">
        <ele>1689.0</ele>
        <time>2013-06-21T14:40:52Z</time>
      </trkpt>
      <trkpt lat="42.807441" lon="-0.610762">
        <ele>1688.2</ele>
        <time>2013-06-21T14:40:58Z</time>
      </trkpt>
      <trkpt lat="42.807307" lon="-0.610733">
        <ele>1689.6</ele>
        <time>2013-06-21T14:41:09Z</time>
      </trkpt>
      <trkpt lat="42.807263" lon="-0.610733">
        <ele>1689.5</ele>
        <time>2013-06-21T14:41:13Z</time>
      </trkpt>
      <trkpt lat="42.807245" lon="-0.610721">
        <ele>1688.7</ele>
        <time>2013-06-21T14:41:26Z</time>
      </trkpt>
      <trkpt lat="42.807217" lon="-0.610676">
        <ele>1687.3</ele>
        <time>2013-06-21T14:41:32Z</time>
      </trkpt>
      <trkpt lat="42.807140" lon="-0.610650">
        <ele>1687.9</ele>
        <time>2013-06-21T14:41:34Z</time>
      </trkpt>
      <trkpt lat="42.807052" lon="-0.610594">
        <ele>1688.5</ele>
        <time>2013-06-21T14:41:48Z</time>
      </trkpt>
      <trkpt lat="42.807039" lon="-0.610564">
        <ele>1688.1</ele>
        <time>2013-06-21T14:41:49Z</time>
      </trkpt>
      <trkpt lat="42.806933" lon="-0.610490">
        <ele>1689.6</ele>
        <time>2013-06-21T14:41:55Z</time>
      </trkpt>
      <trkpt lat="42.806896" lon="-0.610427">
        <ele>1689.9</ele>
        <time>2013-06-21T14:42:04Z</time>
      </trkpt>
      <trkpt lat="42.806888" lon="-0.610402">
        <ele>1689.6</ele>
        <time>2013-06-21T14:42:18Z</time>
      </trkpt>
      <trkpt lat="42.806835" lon="-0.610359">
        <ele>1691.4</ele>
        <time>2013-06-21T14:42:28Z</time>
      </trkpt>
      <trkpt lat="42.806828" lon="-0.610354">
        <ele>1691.6</ele>
        <time>2013-06-21T14:42:39Z</time>
      </trkpt>
      <trkpt lat="42.806794" lon="-0.610306">
        <ele>1692.1</ele>
        <time>2013-06-21T14:42:51Z</time>
      </trkpt>
      <trkpt lat="42.806752" lon="-0.610237">
        <ele>1693.5</ele>
        <time>2013-06-21T14:43:03Z</time>
      </trkpt>
      <trkpt lat="42.806714" lon="-0.610134">
        <ele>1695.5</ele>
        <time>2013-06-21T14:43:15Z</time>
      </trkpt>
      <trkpt lat="42.806684" lon="-0.610087">
        <ele>1697.0</ele>
        <time>2013-06-21T14:43:17Z</time>
      </trkpt>
      <trkpt lat="42.806650" lon="-0.609983">
        <ele>1699.0</ele>
        <time>2013-06-21T14:43:26Z</time>
      </trkpt>
      <trkpt lat="42.806574" lon="-0.609922">
        <ele>1700.9</ele>
        <time>2013-06-21T14:43:39Z</time>
      </trkpt>
      <trkpt lat="42.806555" lon="-0.609853">
        <ele>1702.0</ele>
        <time>2013-06-21T14:43:52Z</time>
      </trkpt>
      <trkpt lat="42.806515" lon="-0.609718">
        <ele>1702.9</ele>
        <time>2013-06-21T14:44:04Z</time>
      </trkpt>
      <trkpt lat="42.806507" lon="-0.609699">
        <ele>1703.0</ele>
        <time>2013-06-21T14:44:15Z</time>
      </trkpt>
      <trkpt lat="42.806457" lon="-0.609600">
        <ele>1702.3</ele>
        <time>2013-06-21T14:44:27Z</time>
      </trkpt>
      <trkpt lat="42.806416" lon="-0.609559">
        <ele>1702.9</ele>
        <time>2013-06-21T14:44:28Z</time>
      </trkpt>
      <trkpt lat="42.806385" lon="-0.609536">
        <ele>1703.4</ele>
        <time>2013-06-21T14:44:41Z</time>
      </trkpt>
      <trkpt lat="42.806329" lon="-0.609504">
        <ele>1704.7</ele>
        <time>2013-06-21T14:44:55Z</time>
      </trkpt>
      <trkpt lat="42.806228" lon="-0.609471">
        <ele>1708.7</ele>
        <time>2013-06-21T14:45:05Z</time>
      </trkpt>
      <trkpt lat="42.806121" lon="-0.609442">
        <ele>1711.3</ele>
        <time>2013-06-21T14:47:53Z</time>
      </trkpt>
      <trkpt lat="42.806115" lon="-0.609434">
        <ele>1711.5</ele>
        <time>2013-06-21T14:48:07Z</time>
      </trkpt>
      <trkpt lat="42.806085" lon="-0.609397">
        <ele>1712.1</ele>
        <time>2013-06-21T14:48:17Z</time>
      </trkpt>
      <trkpt lat="42.806075" lon="-0.609388">
        <ele>1712.4</ele>
        <time>2013-06-21T14:48:27Z</time>
      </trkpt>
      <trkpt lat="42.806010" lon="-0.609298">
        <ele>1713.9</ele>
        <time>2013-06-21T14:48:43Z</time>
      </trkpt>
      <trkpt lat="42.805925" lon="-0.609194">
        <ele>1716.5</ele>
        <time>2013-06-21T14:48:59Z</time>
      </trkpt>
      <trkpt lat="42.805900" lon="-0.609087">
        <ele>1718.7</ele>
        <time>2013-06-21T14:49:15Z</time>
      </trkpt>
      <trkpt lat="42.805885" lon="-0.608986">
        <ele>1720.2</ele>
        <time>2013-06-21T14:49:27Z</time>
      </trkpt>
      <trkpt lat="42.805852" lon="-0.608835">
        <ele>1721.0</ele>
        <time>2013-06-21T14:49:40Z</time>
      </trkpt>
      <trkpt lat="42.805766" lon="-0.608629">
        <ele>1722.2</ele>
        <time>2013-06-21T14:49:54Z</time>
      </trkpt>
      <trkpt lat="42.805694" lon="-0.608416">
        <ele>1723.3</ele>
        <time>2013-06-21T14:50:09Z</time>
      </trkpt>
      <trkpt lat="42.805661" lon="-0.608219">
        <ele>1726.5</ele>
        <time>2013-06-21T14:50:19Z</time>
      </trkpt>
      <trkpt lat="42.805656" lon="-0.608140">
        <ele>1728.2</ele>
        <time>2013-06-21T14:50:33Z</time>
      </trkpt>
      <trkpt lat="42.805610" lon="-0.608057">
        <ele>1730.6</ele>
        <time>2013-06-21T14:50:46Z</time>
      </trkpt>
      <trkpt lat="42.805595" lon="-0.608015">
        <ele>1732.5</ele>
        <time>2013-06-21T14:51:01Z</time>
      </trkpt>
      <trkpt lat="42.805585" lon="-0.607983">
        <ele>1733.9</ele>
        <time>2013-06-21T14:51:16Z</time>
      </trkpt>
      <trkpt lat="42.805508" lon="-0.607970">
        <ele>1734.8</ele>
        <time>2013-06-21T14:51:27Z</time>
      </trkpt>
      <trkpt lat="42.805378" lon="-0.607971">
        <ele>1737.5</ele>
        <time>2013-06-21T14:51:30Z</time>
      </trkpt>
      <trkpt lat="42.805270" lon="-0.607944">
        <ele>1738.7</ele>
        <time>2013-06-21T14:51:45Z</time>
      </trkpt>
      <trkpt lat="42.805183" lon="-0.607891">
        <ele>1740.0</ele>
        <time>2013-06-21T14:51:58Z</time>
      </trkpt>
      <trkpt lat="42.805151" lon="-0.607891">
        <ele>1739.8</ele>
        <time>2013-06-21T14:52:10Z</time>
      </trkpt>
      <trkpt lat="42.805092" lon="-0.607872">
        <ele>1739.5</ele>
        <time>2013-06-21T14:52:12Z</time>
      </trkpt>
      <trkpt lat="42.805063" lon="-0.607846">
        <ele>1739.6</ele>
        <time>2013-06-21T14:52:17Z</time>
      </trkpt>
      <trkpt lat="42.804934" lon="-0.607754">
        <ele>1739.8</ele>
        <time>2013-06-21T14:52:32Z</time>
      </trkpt>
      <trkpt lat="42.804805" lon="-0.607710">
        <ele>1740.9</ele>
        <time>2013-06-21T14:52:34Z</time>
      </trkpt>
      <trkpt lat="42.804752" lon="-0.607669">
        <ele>1741.4</ele>
        <time>2013-06-21T14:52:46Z</time>
      </trkpt>
      <trkpt lat="42.804737" lon="-0.607658">
        <ele>1741.5</ele>
        <time>2013-06-21T14:52:59Z</time>
      </trkpt>
      <trkpt lat="42.804707" lon="-0.607601">
        <ele>1742.4</ele>
        <time>2013-06-21T14:53:15Z</time>
      </trkpt>
      <trkpt lat="42.804643" lon="-0.607419">
        <ele>1743.4</ele>
        <time>2013-06-21T14:53:17Z</time>
      </trkpt>
      <trkpt lat="42.804632" lon="-0.607400">
        <ele>1743.5</ele>
        <time>2013-06-21T14:53:30Z</time>
      </trkpt>
      <trkpt lat="42.804516" lon="-0.607318">
        <ele>1744.4</ele>
        <time>2013-06-21T14:53:36Z</time>
      </trkpt>
      <trkpt lat="42.804410" lon="-0.607247">
        <ele>1746.3</ele>
        <time>2013-06-21T14:53:45Z</time>
      </trkpt>
      <trkpt lat="42.804268" lon="-0.607179">
        <ele>1747.9</ele>
        <time>2013-06-21T14:53:59Z</time>
      </trkpt>
      <trkpt lat="42.804249" lon="-0.607166">
        <ele>1748.0</ele>
        <time>2013-06-21T14:54:06Z</time>
      </trkpt>
      <trkpt lat="42.804217" lon="-0.607123">
        <ele>1748.6</ele>
        <time>2013-06-21T14:54:10Z</time>
      </trkpt>
      <trkpt lat="42.804208" lon="-0.607055">
        <ele>1749.8</ele>
        <time>2013-06-21T14:54:28Z</time>
      </trkpt>
      <trkpt lat="42.804178" lon="-0.606945">
        <ele>1749.8</ele>
        <time>2013-06-21T14:54:40Z</time>
      </trkpt>
      <trkpt lat="42.804183" lon="-0.606781">
        <ele>1748.9</ele>
        <time>2013-06-21T14:54:46Z</time>
      </trkpt>
      <trkpt lat="42.804196" lon="-0.606690">
        <ele>1748.9</ele>
        <time>2013-06-21T14:54:52Z</time>
      </trkpt>
      <trkpt lat="42.804210" lon="-0.606630">
        <ele>1749.1</ele>
        <time>2013-06-21T14:54:57Z</time>
      </trkpt>
      <trkpt lat="42.804216" lon="-0.606369">
        <ele>1749.2</ele>
        <time>2013-06-21T14:54:59Z</time>
      </trkpt>
      <trkpt lat="42.804264" lon="-0.606219">
        <ele>1750.6</ele>
        <time>2013-06-21T14:55:06Z</time>
      </trkpt>
      <trkpt lat="42.804304" lon="-0.606148">
        <ele>1752.1</ele>
        <time>2013-06-21T14:55:09Z</time>
      </trkpt>
      <trkpt lat="42.804310" lon="-0.606062">
        <ele>1751.5</ele>
        <time>2013-06-21T14:55:11Z</time>
      </trkpt>
      <trkpt lat="42.804340" lon="-0.605988">
        <ele>1751.9</ele>
        <time>2013-06-21T14:55:23Z</time>
      </trkpt>
      <trkpt lat="42.804340" lon="-0.605950">
        <ele>1751.2</ele>
        <time>2013-06-21T14:55:26Z</time>
      </trkpt>
      <trkpt lat="42.804325" lon="-0.605867">
        <ele>1750.0</ele>
        <time>2013-06-21T14:55:28Z</time>
      </trkpt>
      <trkpt lat="42.804331" lon="-0.605822">
        <ele>1750.2</ele>
        <time>2013-06-21T14:55:40Z</time>
      </trkpt>
      <trkpt lat="42.804316" lon="-0.605804">
        <ele>1750.1</ele>
        <time>2013-06-21T14:55:45Z</time>
      </trkpt>
      <trkpt lat="42.804296" lon="-0.605667">
        <ele>1751.2</ele>
        <time>2013-06-21T14:55:51Z</time>
      </trkpt>
      <trkpt lat="42.804278" lon="-0.605628">
        <ele>1751.6</ele>
        <time>2013-06-21T14:56:06Z</time>
      </trkpt>
      <trkpt lat="42.804264" lon="-0.605604">
        <ele>1751.9</ele>
        <time>2013-06-21T14:56:19Z</time>
      </trkpt>
      <trkpt lat="42.804203" lon="-0.605495">
        <ele>1752.9</ele>
        <time>2013-06-21T14:56:34Z</time>
      </trkpt>
      <trkpt lat="42.804174" lon="-0.605450">
        <ele>1753.4</ele>
        <time>2013-06-21T14:56:48Z</time>
      </trkpt>
      <trkpt lat="42.804163" lon="-0.605369">
        <ele>1755.8</ele>
        <time>2013-06-21T14:56:59Z</time>
      </trkpt>
      <trkpt lat="42.804097" lon="-0.605243">
        <ele>1758.2</ele>
        <time>2013-06-21T14:57:06Z</time>
      </trkpt>
      <trkpt lat="42.804035" lon="-0.605146">
        <ele>1760.3</ele>
        <time>2013-06-21T14:57:12Z</time>
      </trkpt>
      <trkpt lat="42.803963" lon="-0.605045">
        <ele>1761.8</ele>
        <time>2013-06-21T14:57:18Z</time>
      </trkpt>
      <trkpt lat="42.803897" lon="-0.604897">
        <ele>1764.7</ele>
        <time>2013-06-21T14:57:31Z</time>
      </trkpt>
      <trkpt lat="42.803847" lon="-0.604801">
        <ele>1767.8</ele>
        <time>2013-06-21T14:57:46Z</time>
      </trkpt>
      <trkpt lat="42.803819" lon="-0.604721">
        <ele>1769.4</ele>
        <time>2013-06-21T14:57:49Z</time>
      </trkpt>
      <trkpt lat="42.803771" lon="-0.604680">
        <ele>1768.5</ele>
        <time>2013-06-21T14:58:03Z</time>
      </trkpt>
      <trkpt lat="42.803729" lon="-0.604631">
        <ele>1769.0</ele>
        <time>2013-06-21T14:58:43Z</time>
      </trkpt>
      <trkpt lat="42.803684" lon="-0.604518">
        <ele>1769.5</ele>
        <time>2013-06-21T14:58:58Z</time>
      </trkpt>
      <trkpt lat="42.803586" lon="-0.604391">
        <ele>1772.0</ele>
        <time>2013-06-21T14:59:03Z</time>
      </trkpt>
      <trkpt lat="42.803567" lon="-0.604374">
        <ele>1772.2</ele>
        <time>2013-06-21T14:59:18Z</time>
      </trkpt>
      <trkpt lat="42.803436" lon="-0.604292">
        <ele>1774.8</ele>
        <time>2013-06-21T14:59:34Z</time>
      </trkpt>
      <trkpt lat="42.803304" lon="-0.604230">
        <ele>1776.0</ele>
        <time>2013-06-21T14:59:48Z</time>
      </trkpt>
      <trkpt lat="42.803140" lon="-0.604167">
        <ele>1783.7</ele>
        <time>2013-06-21T15:00:03Z</time>
      </trkpt>
      <trkpt lat="42.803096" lon="-0.604185">
        <ele>1783.0</ele>
        <time>2013-06-21T15:00:18Z</time>
      </trkpt>
      <trkpt lat="42.802967" lon="-0.604168">
        <ele>1791.8</ele>
        <time>2013-06-21T15:00:30Z</time>
      </trkpt>
      <trkpt lat="42.802957" lon="-0.604165">
        <ele>1793.5</ele>
        <time>2013-06-21T15:00:44Z</time>
      </trkpt>
      <trkpt lat="42.802948" lon="-0.604161">
        <ele>1795.4</ele>
        <time>2013-06-21T15:00:59Z</time>
      </trkpt>
      <trkpt lat="42.802804" lon="-0.604121">
        <ele>1801.5</ele>
        <time>2013-06-21T15:01:14Z</time>
      </trkpt>
      <trkpt lat="42.802678" lon="-0.604073">
        <ele>1794.9</ele>
        <time>2013-06-21T15:01:28Z</time>
      </trkpt>
      <trkpt lat="42.802576" lon="-0.604017">
        <ele>1793.2</ele>
        <time>2013-06-21T15:01:39Z</time>
      </trkpt>
      <trkpt lat="42.802502" lon="-0.603947">
        <ele>1795.0</ele>
        <time>2013-06-21T15:01:50Z</time>
      </trkpt>
      <trkpt lat="42.802440" lon="-0.603917">
        <ele>1795.3</ele>
        <time>2013-06-21T15:02:02Z</time>
      </trkpt>
      <trkpt lat="42.802407" lon="-0.603907">
        <ele>1795.6</ele>
        <time>2013-06-21T15:02:15Z</time>
      </trkpt>
      <trkpt lat="42.802407" lon="-0.603908">
        <ele>1795.5</ele>
        <time>2013-06-21T15:02:31Z</time>
      </trkpt>
      <trkpt lat="42.802325" lon="-0.603798">
        <ele>1800.6</ele>
        <time>2013-06-21T15:02:45Z</time>
      </trkpt>
      <trkpt lat="42.802249" lon="-0.603718">
        <ele>1803.7</ele>
        <time>2013-06-21T15:02:57Z</time>
      </trkpt>
      <trkpt lat="42.802248" lon="-0.603715">
        <ele>1803.8</ele>
        <time>2013-06-21T15:03:14Z</time>
      </trkpt>
      <trkpt lat="42.802248" lon="-0.603715">
        <ele>1803.8</ele>
        <time>2013-06-21T15:03:28Z</time>
      </trkpt>
      <trkpt lat="42.802143" lon="-0.603662">
        <ele>1805.7</ele>
        <time>2013-06-21T15:03:41Z</time>
      </trkpt>
      <trkpt lat="42.802010" lon="-0.603593">
        <ele>1810.3</ele>
        <time>2013-06-21T15:04:10Z</time>
      </trkpt>
      <trkpt lat="42.802008" lon="-0.603588">
        <ele>1810.5</ele>
        <time>2013-06-21T15:04:39Z</time>
      </trkpt>
      <trkpt lat="42.802008" lon="-0.603588">
        <ele>1810.5</ele>
        <time>2013-06-21T15:04:42Z</time>
      </trkpt>
      <trkpt lat="42.801993" lon="-0.603583">
        <ele>1811.1</ele>
        <time>2013-06-21T15:04:47Z</time>
      </trkpt>
      <trkpt lat="42.801993" lon="-0.603583">
        <ele>1811.1</ele>
        <time>2013-06-21T15:05:01Z</time>
      </trkpt>
      <trkpt lat="42.801988" lon="-0.603589">
        <ele>1810.9</ele>
        <time>2013-06-21T15:05:11Z</time>
      </trkpt>
      <trkpt lat="42.801951" lon="-0.603577">
        <ele>1812.1</ele>
        <time>2013-06-21T15:05:23Z</time>
      </trkpt>
      <trkpt lat="42.801907" lon="-0.603560">
        <ele>1814.0</ele>
        <time>2013-06-21T15:05:35Z</time>
      </trkpt>
      <trkpt lat="42.801833" lon="-0.603562">
        <ele>1816.3</ele>
        <time>2013-06-21T15:05:47Z</time>
      </trkpt>
      <trkpt lat="42.801757" lon="-0.603568">
        <ele>1818.8</ele>
        <time>2013-06-21T15:05:59Z</time>
      </trkpt>
      <trkpt lat="42.801703" lon="-0.603573">
        <ele>1819.4</ele>
        <time>2013-06-21T15:06:16Z</time>
      </trkpt>
      <trkpt lat="42.801605" lon="-0.603576">
        <ele>1823.1</ele>
        <time>2013-06-21T15:06:32Z</time>
      </trkpt>
      <trkpt lat="42.801567" lon="-0.603578">
        <ele>1823.9</ele>
        <time>2013-06-21T15:06:45Z</time>
      </trkpt>
      <trkpt lat="42.801479" lon="-0.603597">
        <ele>1825.8</ele>
        <time>2013-06-21T15:07:07Z</time>
      </trkpt>
      <trkpt lat="42.801414" lon="-0.603617">
        <ele>1826.3</ele>
        <time>2013-06-21T15:07:31Z</time>
      </trkpt>
      <trkpt lat="42.801333" lon="-0.603641">
        <ele>1827.5</ele>
        <time>2013-06-21T15:07:44Z</time>
      </trkpt>
      <trkpt lat="42.801333" lon="-0.603641">
        <ele>1827.5</ele>
        <time>2013-06-21T15:07:57Z</time>
      </trkpt>
      <trkpt lat="42.801296" lon="-0.603662">
        <ele>1827.0</ele>
        <time>2013-06-21T15:08:08Z</time>
      </trkpt>
      <trkpt lat="42.801296" lon="-0.603662">
        <ele>1827.0</ele>
        <time>2013-06-21T15:08:20Z</time>
      </trkpt>
      <trkpt lat="42.801259" lon="-0.603686">
        <ele>1830.0</ele>
        <time>2013-06-21T15:08:28Z</time>
      </trkpt>
      <trkpt lat="42.801208" lon="-0.603717">
        <ele>1829.0</ele>
        <time>2013-06-21T15:08:40Z</time>
      </trkpt>
      <trkpt lat="42.801173" lon="-0.603732">
        <ele>1830.2</ele>
        <time>2013-06-21T15:08:59Z</time>
      </trkpt>
      <trkpt lat="42.801140" lon="-0.603724">
        <ele>1833.6</ele>
        <time>2013-06-21T15:09:15Z</time>
      </trkpt>
      <trkpt lat="42.801139" lon="-0.603720">
        <ele>1834.1</ele>
        <time>2013-06-21T15:09:33Z</time>
      </trkpt>
      <trkpt lat="42.801114" lon="-0.603728">
        <ele>1835.5</ele>
        <time>2013-06-21T15:09:46Z</time>
      </trkpt>
      <trkpt lat="42.801072" lon="-0.603735">
        <ele>1836.8</ele>
        <time>2013-06-21T15:10:01Z</time>
      </trkpt>
      <trkpt lat="42.801033" lon="-0.603737">
        <ele>1836.6</ele>
        <time>2013-06-21T15:10:15Z</time>
      </trkpt>
      <trkpt lat="42.800992" lon="-0.603744">
        <ele>1837.9</ele>
        <time>2013-06-21T15:10:26Z</time>
      </trkpt>
      <trkpt lat="42.800939" lon="-0.603749">
        <ele>1840.7</ele>
        <time>2013-06-21T15:10:38Z</time>
      </trkpt>
      <trkpt lat="42.800851" lon="-0.603756">
        <ele>1845.0</ele>
        <time>2013-06-21T15:10:55Z</time>
      </trkpt>
      <trkpt lat="42.800822" lon="-0.603772">
        <ele>1845.5</ele>
        <time>2013-06-21T15:12:13Z</time>
      </trkpt>
      <trkpt lat="42.800784" lon="-0.603791">
        <ele>1846.1</ele>
        <time>2013-06-21T15:12:28Z</time>
      </trkpt>
      <trkpt lat="42.800730" lon="-0.603819">
        <ele>1846.8</ele>
        <time>2013-06-21T15:12:41Z</time>
      </trkpt>
      <trkpt lat="42.800673" lon="-0.603871">
        <ele>1846.7</ele>
        <time>2013-06-21T15:12:53Z</time>
      </trkpt>
      <trkpt lat="42.800597" lon="-0.603882">
        <ele>1848.9</ele>
        <time>2013-06-21T15:13:05Z</time>
      </trkpt>
      <trkpt lat="42.800409" lon="-0.603940">
        <ele>1851.7</ele>
        <time>2013-06-21T15:13:20Z</time>
      </trkpt>
      <trkpt lat="42.800304" lon="-0.604003">
        <ele>1854.3</ele>
        <time>2013-06-21T15:13:37Z</time>
      </trkpt>
      <trkpt lat="42.800298" lon="-0.604013">
        <ele>1854.3</ele>
        <time>2013-06-21T15:13:48Z</time>
      </trkpt>
      <trkpt lat="42.800232" lon="-0.604056">
        <ele>1855.9</ele>
        <time>2013-06-21T15:13:59Z</time>
      </trkpt>
      <trkpt lat="42.800139" lon="-0.604127">
        <ele>1858.7</ele>
        <time>2013-06-21T15:14:12Z</time>
      </trkpt>
      <trkpt lat="42.800048" lon="-0.604179">
        <ele>1862.3</ele>
        <time>2013-06-21T15:14:26Z</time>
      </trkpt>
      <trkpt lat="42.800034" lon="-0.604197">
        <ele>1862.5</ele>
        <time>2013-06-21T15:14:40Z</time>
      </trkpt>
      <trkpt lat="42.799962" lon="-0.604285">
        <ele>1865.0</ele>
        <time>2013-06-21T15:14:57Z</time>
      </trkpt>
      <trkpt lat="42.799878" lon="-0.604369">
        <ele>1870.2</ele>
        <time>2013-06-21T15:15:10Z</time>
      </trkpt>
      <trkpt lat="42.799828" lon="-0.604450">
        <ele>1871.2</ele>
        <time>2013-06-21T15:15:23Z</time>
      </trkpt>
      <trkpt lat="42.799824" lon="-0.604456">
        <ele>1871.3</ele>
        <time>2013-06-21T15:15:37Z</time>
      </trkpt>
      <trkpt lat="42.799804" lon="-0.604488">
        <ele>1871.7</ele>
        <time>2013-06-21T15:15:49Z</time>
      </trkpt>
      <trkpt lat="42.799771" lon="-0.604547">
        <ele>1872.7</ele>
        <time>2013-06-21T15:16:03Z</time>
      </trkpt>
      <trkpt lat="42.799741" lon="-0.604662">
        <ele>1874.1</ele>
        <time>2013-06-21T15:16:18Z</time>
      </trkpt>
      <trkpt lat="42.799714" lon="-0.604693">
        <ele>1875.7</ele>
        <time>2013-06-21T15:16:33Z</time>
      </trkpt>
      <trkpt lat="42.799712" lon="-0.604700">
        <ele>1875.8</ele>
        <time>2013-06-21T15:16:48Z</time>
      </trkpt>
      <trkpt lat="42.799628" lon="-0.604822">
        <ele>1879.4</ele>
        <time>2013-06-21T15:17:05Z</time>
      </trkpt>
      <trkpt lat="42.799525" lon="-0.604953">
        <ele>1884.0</ele>
        <time>2013-06-21T15:17:17Z</time>
      </trkpt>
      <trkpt lat="42.799451" lon="-0.605075">
        <ele>1882.4</ele>
        <time>2013-06-21T15:17:28Z</time>
      </trkpt>
      <trkpt lat="42.799390" lon="-0.605174">
        <ele>1882.6</ele>
        <time>2013-06-21T15:17:47Z</time>
      </trkpt>
      <trkpt lat="42.799336" lon="-0.605283">
        <ele>1884.9</ele>
        <time>2013-06-21T15:18:13Z</time>
      </trkpt>
      <trkpt lat="42.799278" lon="-0.605384">
        <ele>1886.7</ele>
        <time>2013-06-21T15:18:28Z</time>
      </trkpt>
      <trkpt lat="42.799245" lon="-0.605342">
        <ele>1888.2</ele>
        <time>2013-06-21T15:18:43Z</time>
      </trkpt>
      <trkpt lat="42.799211" lon="-0.605315">
        <ele>1888.8</ele>
        <time>2013-06-21T15:18:59Z</time>
      </trkpt>
      <trkpt lat="42.799211" lon="-0.605315">
        <ele>1888.8</ele>
        <time>2013-06-21T15:19:11Z</time>
      </trkpt>
      <trkpt lat="42.799213" lon="-0.605318">
        <ele>1888.8</ele>
        <time>2013-06-21T15:19:25Z</time>
      </trkpt>
      <trkpt lat="42.799125" lon="-0.605219">
        <ele>1889.8</ele>
        <time>2013-06-21T15:19:41Z</time>
      </trkpt>
      <trkpt lat="42.799056" lon="-0.605134">
        <ele>1893.2</ele>
        <time>2013-06-21T15:19:56Z</time>
      </trkpt>
      <trkpt lat="42.798963" lon="-0.605107">
        <ele>1897.5</ele>
        <time>2013-06-21T15:20:12Z</time>
      </trkpt>
      <trkpt lat="42.798898" lon="-0.605089">
        <ele>1898.7</ele>
        <time>2013-06-21T15:20:29Z</time>
      </trkpt>
      <trkpt lat="42.798887" lon="-0.605010">
        <ele>1901.8</ele>
        <time>2013-06-21T15:20:42Z</time>
      </trkpt>
      <trkpt lat="42.798901" lon="-0.604921">
        <ele>1903.5</ele>
        <time>2013-06-21T15:20:50Z</time>
      </trkpt>
      <trkpt lat="42.798910" lon="-0.604861">
        <ele>1903.7</ele>
        <time>2013-06-21T15:20:55Z</time>
      </trkpt>
      <trkpt lat="42.798919" lon="-0.604727">
        <ele>1903.3</ele>
        <time>2013-06-21T15:21:10Z</time>
      </trkpt>
      <trkpt lat="42.798971" lon="-0.604552">
        <ele>1902.7</ele>
        <time>2013-06-21T15:21:12Z</time>
      </trkpt>
      <trkpt lat="42.798996" lon="-0.604433">
        <ele>1904.9</ele>
        <time>2013-06-21T15:21:17Z</time>
      </trkpt>
      <trkpt lat="42.799034" lon="-0.604352">
        <ele>1906.9</ele>
        <time>2013-06-21T15:21:21Z</time>
      </trkpt>
      <trkpt lat="42.799054" lon="-0.604289">
        <ele>1909.3</ele>
        <time>2013-06-21T15:21:23Z</time>
      </trkpt>
      <trkpt lat="42.799071" lon="-0.604103">
        <ele>1905.2</ele>
        <time>2013-06-21T15:21:30Z</time>
      </trkpt>
      <trkpt lat="42.799076" lon="-0.604073">
        <ele>1905.1</ele>
        <time>2013-06-21T15:21:45Z</time>
      </trkpt>
      <trkpt lat="42.799082" lon="-0.604025">
        <ele>1904.7</ele>
        <time>2013-06-21T15:21:54Z</time>
      </trkpt>
      <trkpt lat="42.799122" lon="-0.603989">
        <ele>1906.7</ele>
        <time>2013-06-21T15:24:27Z</time>
      </trkpt>
      <trkpt lat="42.799141" lon="-0.603970">
        <ele>1907.3</ele>
        <time>2013-06-21T15:24:31Z</time>
      </trkpt>
      <trkpt lat="42.799161" lon="-0.603900">
        <ele>1907.9</ele>
        <time>2013-06-21T15:24:34Z</time>
      </trkpt>
      <trkpt lat="42.799124" lon="-0.603668">
        <ele>1903.8</ele>
        <time>2013-06-21T15:24:39Z</time>
      </trkpt>
      <trkpt lat="42.799098" lon="-0.603557">
        <ele>1901.7</ele>
        <time>2013-06-21T15:24:44Z</time>
      </trkpt>
      <trkpt lat="42.799082" lon="-0.603436">
        <ele>1900.0</ele>
        <time>2013-06-21T15:24:58Z</time>
      </trkpt>
      <trkpt lat="42.799084" lon="-0.603374">
        <ele>1899.6</ele>
        <time>2013-06-21T15:25:01Z</time>
      </trkpt>
      <trkpt lat="42.799103" lon="-0.603320">
        <ele>1900.0</ele>
        <time>2013-06-21T15:25:03Z</time>
      </trkpt>
      <trkpt lat="42.799113" lon="-0.603243">
        <ele>1899.1</ele>
        <time>2013-06-21T15:25:05Z</time>
      </trkpt>
      <trkpt lat="42.799151" lon="-0.603170">
        <ele>1900.4</ele>
        <time>2013-06-21T15:25:08Z</time>
      </trkpt>
      <trkpt lat="42.799158" lon="-0.602937">
        <ele>1897.7</ele>
        <time>2013-06-21T15:25:24Z</time>
      </trkpt>
      <trkpt lat="42.799177" lon="-0.602891">
        <ele>1898.2</ele>
        <time>2013-06-21T15:25:25Z</time>
      </trkpt>
      <trkpt lat="42.799176" lon="-0.602854">
        <ele>1897.7</ele>
        <time>2013-06-21T15:25:34Z</time>
      </trkpt>
      <trkpt lat="42.799186" lon="-0.602821">
        <ele>1897.7</ele>
        <time>2013-06-21T15:25:38Z</time>
      </trkpt>
      <trkpt lat="42.799198" lon="-0.602774">
        <ele>1897.4</ele>
        <time>2013-06-21T15:25:46Z</time>
      </trkpt>
      <trkpt lat="42.799262" lon="-0.602540">
        <ele>1895.3</ele>
        <time>2013-06-21T15:25:48Z</time>
      </trkpt>
      <trkpt lat="42.799268" lon="-0.602525">
        <ele>1895.1</ele>
        <time>2013-06-21T15:25:54Z</time>
      </trkpt>
      <trkpt lat="42.799328" lon="-0.602418">
        <ele>1892.3</ele>
        <time>2013-06-21T15:26:09Z</time>
      </trkpt>
      <trkpt lat="42.799336" lon="-0.602357">
        <ele>1891.1</ele>
        <time>2013-06-21T15:26:18Z</time>
      </trkpt>
      <trkpt lat="42.799356" lon="-0.602264">
        <ele>1889.5</ele>
        <time>2013-06-21T15:26:20Z</time>
      </trkpt>
      <trkpt lat="42.799344" lon="-0.602226">
        <ele>1888.9</ele>
        <time>2013-06-21T15:26:22Z</time>
      </trkpt>
      <trkpt lat="42.799301" lon="-0.602191">
        <ele>1888.6</ele>
        <time>2013-06-21T15:26:36Z</time>
      </trkpt>
      <trkpt lat="42.799168" lon="-0.602219">
        <ele>1889.2</ele>
        <time>2013-06-21T15:26:50Z</time>
      </trkpt>
      <trkpt lat="42.799130" lon="-0.602199">
        <ele>1887.4</ele>
        <time>2013-06-21T15:26:52Z</time>
      </trkpt>
      <trkpt lat="42.799149" lon="-0.602172">
        <ele>1886.4</ele>
        <time>2013-06-21T15:27:03Z</time>
      </trkpt>
      <trkpt lat="42.799167" lon="-0.602153">
        <ele>1885.6</ele>
        <time>2013-06-21T15:27:17Z</time>
      </trkpt>
      <trkpt lat="42.799228" lon="-0.602040">
        <ele>1883.8</ele>
        <time>2013-06-21T15:27:19Z</time>
      </trkpt>
      <trkpt lat="42.799293" lon="-0.601941">
        <ele>1881.0</ele>
        <time>2013-06-21T15:27:35Z</time>
      </trkpt>
      <trkpt lat="42.799293" lon="-0.601932">
        <ele>1880.9</ele>
        <time>2013-06-21T15:27:39Z</time>
      </trkpt>
      <trkpt lat="42.799368" lon="-0.601916">
        <ele>1880.2</ele>
        <time>2013-06-21T15:27:48Z</time>
      </trkpt>
      <trkpt lat="42.799456" lon="-0.601801">
        <ele>1879.0</ele>
        <time>2013-06-21T15:27:51Z</time>
      </trkpt>
      <trkpt lat="42.799448" lon="-0.601770">
        <ele>1878.7</ele>
        <time>2013-06-21T15:27:58Z</time>
      </trkpt>
      <trkpt lat="42.799521" lon="-0.601519">
        <ele>1877.1</ele>
        <time>2013-06-21T15:28:03Z</time>
      </trkpt>
      <trkpt lat="42.799549" lon="-0.601469">
        <ele>1876.9</ele>
        <time>2013-06-21T15:28:19Z</time>
      </trkpt>
      <trkpt lat="42.799574" lon="-0.601340">
        <ele>1875.5</ele>
        <time>2013-06-21T15:29:08Z</time>
      </trkpt>
      <trkpt lat="42.799598" lon="-0.601310">
        <ele>1874.7</ele>
        <time>2013-06-21T16:23:02Z</time>
      </trkpt>
      <trkpt lat="42.799619" lon="-0.601262">
        <ele>1873.7</ele>
        <time>2013-06-21T16:24:49Z</time>
      </trkpt>
      <trkpt lat="42.799647" lon="-0.601194">
        <ele>1873.0</ele>
        <time>2013-06-21T16:25:00Z</time>
      </trkpt>
      <trkpt lat="42.799777" lon="-0.601036">
        <ele>1871.4</ele>
        <time>2013-06-21T16:25:17Z</time>
      </trkpt>
      <trkpt lat="42.799831" lon="-0.600751">
        <ele>1863.7</ele>
        <time>2013-06-21T16:25:37Z</time>
      </trkpt>
      <trkpt lat="42.799315" lon="-0.600372">
        <ele>1857.5</ele>
        <time>2013-06-21T16:25:54Z</time>
      </trkpt>
      <trkpt lat="42.799069" lon="-0.600569">
        <ele>1849.3</ele>
        <time>2013-06-21T16:26:12Z</time>
      </trkpt>
      <trkpt lat="42.798887" lon="-0.600715">
        <ele>1846.3</ele>
        <time>2013-06-21T16:26:29Z</time>
      </trkpt>
      <trkpt lat="42.798629" lon="-0.600817">
        <ele>1847.0</ele>
        <time>2013-06-21T16:26:44Z</time>
      </trkpt>
      <trkpt lat="42.798378" lon="-0.600997">
        <ele>1851.9</ele>
        <time>2013-06-21T16:27:00Z</time>
      </trkpt>
      <trkpt lat="42.798340" lon="-0.600586">
        <ele>1859.4</ele>
        <time>2013-06-21T16:27:14Z</time>
      </trkpt>
      <trkpt lat="42.798359" lon="-0.600037">
        <ele>1864.5</ele>
        <time>2013-06-21T16:27:28Z</time>
      </trkpt>
      <trkpt lat="42.798252" lon="-0.599960">
        <ele>1868.4</ele>
        <time>2013-06-21T16:27:35Z</time>
      </trkpt>
      <trkpt lat="42.798271" lon="-0.599728">
        <ele>1870.2</ele>
        <time>2013-06-21T16:27:39Z</time>
      </trkpt>
      <trkpt lat="42.797975" lon="-0.599608">
        <ele>1871.6</ele>
        <time>2013-06-21T16:27:55Z</time>
      </trkpt>
      <trkpt lat="42.797730" lon="-0.599162">
        <ele>1870.2</ele>
        <time>2013-06-21T16:28:11Z</time>
      </trkpt>
      <trkpt lat="42.797510" lon="-0.599137">
        <ele>1865.7</ele>
        <time>2013-06-21T16:28:24Z</time>
      </trkpt>
      <trkpt lat="42.797284" lon="-0.598794">
        <ele>1870.5</ele>
        <time>2013-06-21T16:28:39Z</time>
      </trkpt>
      <trkpt lat="42.797105" lon="-0.598525">
        <ele>1867.0</ele>
        <time>2013-06-21T16:29:01Z</time>
      </trkpt>
      <trkpt lat="42.797118" lon="-0.598242">
        <ele>1864.1</ele>
        <time>2013-06-21T16:29:16Z</time>
      </trkpt>
      <trkpt lat="42.797005" lon="-0.597907">
        <ele>1868.0</ele>
        <time>2013-06-21T16:29:36Z</time>
      </trkpt>
      <trkpt lat="42.796784" lon="-0.597761">
        <ele>1870.0</ele>
        <time>2013-06-21T16:29:53Z</time>
      </trkpt>
      <trkpt lat="42.796546" lon="-0.597607">
        <ele>1860.6</ele>
        <time>2013-06-21T16:30:10Z</time>
      </trkpt>
      <trkpt lat="42.796386" lon="-0.597585">
        <ele>1860.3</ele>
        <time>2013-06-21T16:30:26Z</time>
      </trkpt>
      <trkpt lat="42.795854" lon="-0.597643">
        <ele>1853.0</ele>
        <time>2013-06-21T16:30:44Z</time>
      </trkpt>
      <trkpt lat="42.795838" lon="-0.597642">
        <ele>1852.0</ele>
        <time>2013-06-21T16:30:58Z</time>
      </trkpt>
      <trkpt lat="42.795838" lon="-0.597643">
        <ele>1852.0</ele>
        <time>2013-06-21T16:31:17Z</time>
      </trkpt>
      <trkpt lat="42.795833" lon="-0.597641">
        <ele>1851.6</ele>
        <time>2013-06-21T16:31:35Z</time>
      </trkpt>
      <trkpt lat="42.795833" lon="-0.597641">
        <ele>1851.6</ele>
        <time>2013-06-21T16:31:53Z</time>
      </trkpt>
      <trkpt lat="42.795829" lon="-0.597643">
        <ele>1851.4</ele>
        <time>2013-06-21T16:32:10Z</time>
      </trkpt>
      <trkpt lat="42.795817" lon="-0.597644">
        <ele>1850.7</ele>
        <time>2013-06-21T16:32:27Z</time>
      </trkpt>
      <trkpt lat="42.795807" lon="-0.597646">
        <ele>1850.2</ele>
        <time>2013-06-21T16:32:41Z</time>
      </trkpt>
      <trkpt lat="42.795809" lon="-0.597644">
        <ele>1850.2</ele>
        <time>2013-06-21T16:32:56Z</time>
      </trkpt>
      <trkpt lat="42.795759" lon="-0.597647">
        <ele>1847.9</ele>
        <time>2013-06-21T16:33:03Z</time>
      </trkpt>
      <trkpt lat="42.795670" lon="-0.597644">
        <ele>1844.7</ele>
        <time>2013-06-21T16:33:19Z</time>
      </trkpt>
      <trkpt lat="42.795501" lon="-0.597635">
        <ele>1840.2</ele>
        <time>2013-06-21T16:33:30Z</time>
      </trkpt>
      <trkpt lat="42.795430" lon="-0.597621">
        <ele>1836.8</ele>
        <time>2013-06-21T16:33:43Z</time>
      </trkpt>
      <trkpt lat="42.795234" lon="-0.597528">
        <ele>1835.6</ele>
        <time>2013-06-21T16:34:07Z</time>
      </trkpt>
      <trkpt lat="42.795201" lon="-0.597506">
        <ele>1836.1</ele>
        <time>2013-06-21T16:34:18Z</time>
      </trkpt>
      <trkpt lat="42.795109" lon="-0.597422">
        <ele>1837.7</ele>
        <time>2013-06-21T16:34:34Z</time>
      </trkpt>
      <trkpt lat="42.795059" lon="-0.597372">
        <ele>1837.7</ele>
        <time>2013-06-21T16:34:54Z</time>
      </trkpt>
      <trkpt lat="42.795059" lon="-0.597372">
        <ele>1837.7</ele>
        <time>2013-06-21T16:35:12Z</time>
      </trkpt>
      <trkpt lat="42.795064" lon="-0.597367">
        <ele>1837.4</ele>
        <time>2013-06-21T16:35:37Z</time>
      </trkpt>
      <trkpt lat="42.795064" lon="-0.597367">
        <ele>1837.4</ele>
        <time>2013-06-21T16:36:00Z</time>
      </trkpt>
      <trkpt lat="42.795062" lon="-0.597360">
        <ele>1837.3</ele>
        <time>2013-06-21T16:36:20Z</time>
      </trkpt>
      <trkpt lat="42.795062" lon="-0.597360">
        <ele>1837.3</ele>
        <time>2013-06-21T16:36:43Z</time>
      </trkpt>
      <trkpt lat="42.795062" lon="-0.597360">
        <ele>1837.3</ele>
        <time>2013-06-21T16:36:57Z</time>
      </trkpt>
      <trkpt lat="42.794996" lon="-0.597310">
        <ele>1838.1</ele>
        <time>2013-06-21T16:37:19Z</time>
      </trkpt>
      <trkpt lat="42.794844" lon="-0.597151">
        <ele>1837.9</ele>
        <time>2013-06-21T16:37:45Z</time>
      </trkpt>
      <trkpt lat="42.794844" lon="-0.597151">
        <ele>1837.9</ele>
        <time>2013-06-21T16:37:50Z</time>
      </trkpt>
      <trkpt lat="42.794844" lon="-0.597151">
        <ele>1837.9</ele>
        <time>2013-06-21T16:37:55Z</time>
      </trkpt>
      <trkpt lat="42.794835" lon="-0.597143">
        <ele>1837.8</ele>
        <time>2013-06-21T16:38:09Z</time>
      </trkpt>
      <trkpt lat="42.794835" lon="-0.597143">
        <ele>1837.8</ele>
        <time>2013-06-21T16:38:22Z</time>
      </trkpt>
      <trkpt lat="42.794822" lon="-0.597126">
        <ele>1837.6</ele>
        <time>2017-08-15T13:16:00Z</time>
      </trkpt>
      <trkpt lat="42.794763" lon="-0.597030">
        <ele>1836.3</ele>
        <time>2017-08-15T13:16:13Z</time>
      </trkpt>
      <trkpt lat="42.794730" lon="-0.596990">
        <ele>1835.6</ele>
        <time>2017-08-15T13:16:18Z</time>
      </trkpt>
      <trkpt lat="42.794643" lon="-0.596838">
        <ele>1831.7</ele>
        <time>2017-08-15T13:16:31Z</time>
      </trkpt>
      <trkpt lat="42.794540" lon="-0.596663">
        <ele>1832.2</ele>
        <time>2017-08-15T13:16:43Z</time>
      </trkpt>
      <trkpt lat="42.794522" lon="-0.596525">
        <ele>1831.1</ele>
        <time>2017-08-15T13:16:51Z</time>
      </trkpt>
      <trkpt lat="42.794508" lon="-0.596391">
        <ele>1829.0</ele>
        <time>2017-08-15T13:16:59Z</time>
      </trkpt>
      <trkpt lat="42.794508" lon="-0.596391">
        <ele>1829.0</ele>
        <time>2017-08-15T13:17:08Z</time>
      </trkpt>
      <trkpt lat="42.794506" lon="-0.596382">
        <ele>1828.9</ele>
        <time>2017-08-15T13:17:13Z</time>
      </trkpt>
      <trkpt lat="42.794506" lon="-0.596382">
        <ele>1828.9</ele>
        <time>2017-08-15T13:17:25Z</time>
      </trkpt>
      <trkpt lat="42.794507" lon="-0.596381">
        <ele>1828.9</ele>
        <time>2017-08-15T13:17:26Z</time>
      </trkpt>
      <trkpt lat="42.794504" lon="-0.596359">
        <ele>1828.7</ele>
        <time>2017-08-15T13:17:32Z</time>
      </trkpt>
      <trkpt lat="42.794506" lon="-0.596335">
        <ele>1828.2</ele>
        <time>2017-08-15T13:17:40Z</time>
      </trkpt>
      <trkpt lat="42.794506" lon="-0.596335">
        <ele>1828.2</ele>
        <time>2017-08-15T13:17:43Z</time>
      </trkpt>
      <trkpt lat="42.794517" lon="-0.596311">
        <ele>1827.4</ele>
        <time>2017-08-15T13:17:48Z</time>
      </trkpt>
      <trkpt lat="42.794526" lon="-0.596181">
        <ele>1826.2</ele>
        <time>2017-08-15T13:17:56Z</time>
      </trkpt>
      <trkpt lat="42.794528" lon="-0.596084">
        <ele>1824.5</ele>
        <time>2017-08-15T13:18:07Z</time>
      </trkpt>
      <trkpt lat="42.794526" lon="-0.596083">
        <ele>1824.6</ele>
        <time>2017-08-15T13:18:11Z</time>
      </trkpt>
      <trkpt lat="42.794526" lon="-0.596080">
        <ele>1824.6</ele>
        <time>2017-08-15T13:18:17Z</time>
      </trkpt>
      <trkpt lat="42.794529" lon="-0.596041">
        <ele>1823.9</ele>
        <time>2017-08-15T13:18:26Z</time>
      </trkpt>
      <trkpt lat="42.794544" lon="-0.595961">
        <ele>1822.1</ele>
        <time>2017-08-15T13:18:37Z</time>
      </trkpt>
      <trkpt lat="42.794590" lon="-0.595819">
        <ele>1819.8</ele>
        <time>2017-08-15T13:18:44Z</time>
      </trkpt>
      <trkpt lat="42.794627" lon="-0.595748">
        <ele>1814.0</ele>
        <time>2017-08-15T13:18:47Z</time>
      </trkpt>
      <trkpt lat="42.794689" lon="-0.595674">
        <ele>1808.4</ele>
        <time>2017-08-15T13:18:51Z</time>
      </trkpt>
      <trkpt lat="42.794632" lon="-0.595621">
        <ele>1808.4</ele>
        <time>2017-08-15T13:18:57Z</time>
      </trkpt>
      <trkpt lat="42.794595" lon="-0.595566">
        <ele>1809.3</ele>
        <time>2017-08-15T13:19:08Z</time>
      </trkpt>
      <trkpt lat="42.794520" lon="-0.595385">
        <ele>1810.8</ele>
        <time>2017-08-15T13:19:12Z</time>
      </trkpt>
      <trkpt lat="42.794411" lon="-0.595227">
        <ele>1812.7</ele>
        <time>2017-08-15T13:19:23Z</time>
      </trkpt>
      <trkpt lat="42.794346" lon="-0.595153">
        <ele>1813.7</ele>
        <time>2017-08-15T13:19:30Z</time>
      </trkpt>
      <trkpt lat="42.794281" lon="-0.595062">
        <ele>1815.1</ele>
        <time>2017-08-15T13:19:33Z</time>
      </trkpt>
      <trkpt lat="42.794225" lon="-0.594918">
        <ele>1816.1</ele>
        <time>2017-08-15T13:19:37Z</time>
      </trkpt>
      <trkpt lat="42.794179" lon="-0.594869">
        <ele>1817.0</ele>
        <time>2017-08-15T13:19:42Z</time>
      </trkpt>
      <trkpt lat="42.794072" lon="-0.594734">
        <ele>1818.5</ele>
        <time>2017-08-15T13:19:50Z</time>
      </trkpt>
      <trkpt lat="42.794068" lon="-0.594722">
        <ele>1818.9</ele>
        <time>2017-08-15T13:19:53Z</time>
      </trkpt>
      <trkpt lat="42.794017" lon="-0.594652">
        <ele>1819.4</ele>
        <time>2017-08-15T13:19:59Z</time>
      </trkpt>
      <trkpt lat="42.793919" lon="-0.594578">
        <ele>1820.4</ele>
        <time>2017-08-15T13:20:02Z</time>
      </trkpt>
      <trkpt lat="42.793889" lon="-0.594566">
        <ele>1820.4</ele>
        <time>2017-08-15T13:20:05Z</time>
      </trkpt>
      <trkpt lat="42.793853" lon="-0.594503">
        <ele>1820.9</ele>
        <time>2017-08-15T13:20:16Z</time>
      </trkpt>
      <trkpt lat="42.793758" lon="-0.594441">
        <ele>1822.3</ele>
        <time>2017-08-15T13:20:19Z</time>
      </trkpt>
      <trkpt lat="42.793662" lon="-0.594305">
        <ele>1823.3</ele>
        <time>2017-08-15T13:20:30Z</time>
      </trkpt>
      <trkpt lat="42.793624" lon="-0.594276">
        <ele>1823.8</ele>
        <time>2017-08-15T13:20:32Z</time>
      </trkpt>
      <trkpt lat="42.793574" lon="-0.594237">
        <ele>1824.2</ele>
        <time>2017-08-15T13:20:35Z</time>
      </trkpt>
      <trkpt lat="42.793505" lon="-0.594085">
        <ele>1824.7</ele>
        <time>2017-08-15T13:20:42Z</time>
      </trkpt>
      <trkpt lat="42.793444" lon="-0.593941">
        <ele>1825.7</ele>
        <time>2017-08-15T13:20:50Z</time>
      </trkpt>
      <trkpt lat="42.793407" lon="-0.593871">
        <ele>1826.6</ele>
        <time>2017-08-15T13:20:52Z</time>
      </trkpt>
      <trkpt lat="42.793388" lon="-0.593858">
        <ele>1827.1</ele>
        <time>2017-08-15T13:21:03Z</time>
      </trkpt>
      <trkpt lat="42.793373" lon="-0.593822">
        <ele>1827.6</ele>
        <time>2017-08-15T13:21:06Z</time>
      </trkpt>
      <trkpt lat="42.793347" lon="-0.593764">
        <ele>1829.1</ele>
        <time>2017-08-15T13:21:13Z</time>
      </trkpt>
      <trkpt lat="42.793320" lon="-0.593638">
        <ele>1830.5</ele>
        <time>2017-08-15T13:21:25Z</time>
      </trkpt>
      <trkpt lat="42.793320" lon="-0.593593">
        <ele>1831.4</ele>
        <time>2017-08-15T13:21:29Z</time>
      </trkpt>
      <trkpt lat="42.793324" lon="-0.593474">
        <ele>1833.8</ele>
        <time>2017-08-15T13:21:41Z</time>
      </trkpt>
      <trkpt lat="42.793323" lon="-0.593396">
        <ele>1834.8</ele>
        <time>2017-08-15T13:21:42Z</time>
      </trkpt>
      <trkpt lat="42.793328" lon="-0.593358">
        <ele>1835.3</ele>
        <time>2017-08-15T13:21:46Z</time>
      </trkpt>
      <trkpt lat="42.793334" lon="-0.593319">
        <ele>1835.8</ele>
        <time>2017-08-15T13:22:01Z</time>
      </trkpt>
      <trkpt lat="42.793317" lon="-0.593273">
        <ele>1836.7</ele>
        <time>2017-08-15T13:22:05Z</time>
      </trkpt>
      <trkpt lat="42.793290" lon="-0.593223">
        <ele>1838.2</ele>
        <time>2017-08-15T13:22:10Z</time>
      </trkpt>
      <trkpt lat="42.793281" lon="-0.593223">
        <ele>1839.1</ele>
        <time>2017-08-15T13:22:16Z</time>
      </trkpt>
      <trkpt lat="42.793291" lon="-0.593157">
        <ele>1840.1</ele>
        <time>2017-08-15T13:22:25Z</time>
      </trkpt>
      <trkpt lat="42.793287" lon="-0.593122">
        <ele>1840.6</ele>
        <time>2017-08-15T13:22:32Z</time>
      </trkpt>
      <trkpt lat="42.793273" lon="-0.593088">
        <ele>1841.1</ele>
        <time>2017-08-15T13:22:48Z</time>
      </trkpt>
      <trkpt lat="42.793204" lon="-0.592999">
        <ele>1842.5</ele>
        <time>2017-08-15T13:23:01Z</time>
      </trkpt>
      <trkpt lat="42.793192" lon="-0.592977">
        <ele>1843.5</ele>
        <time>2017-08-15T13:23:09Z</time>
      </trkpt>
      <trkpt lat="42.793132" lon="-0.592902">
        <ele>1844.9</ele>
        <time>2017-08-15T13:23:23Z</time>
      </trkpt>
      <trkpt lat="42.793124" lon="-0.592877">
        <ele>1845.4</ele>
        <time>2017-08-15T13:23:28Z</time>
      </trkpt>
      <trkpt lat="42.793108" lon="-0.592843">
        <ele>1845.9</ele>
        <time>2017-08-15T13:23:42Z</time>
      </trkpt>
      <trkpt lat="42.793059" lon="-0.592780">
        <ele>1847.3</ele>
        <time>2017-08-15T13:23:43Z</time>
      </trkpt>
      <trkpt lat="42.793029" lon="-0.592713">
        <ele>1848.3</ele>
        <time>2017-08-15T13:23:47Z</time>
      </trkpt>
      <trkpt lat="42.793023" lon="-0.592688">
        <ele>1848.3</ele>
        <time>2017-08-15T13:24:00Z</time>
      </trkpt>
      <trkpt lat="42.792998" lon="-0.592553">
        <ele>1850.2</ele>
        <time>2017-08-15T13:24:03Z</time>
      </trkpt>
      <trkpt lat="42.792994" lon="-0.592516">
        <ele>1850.7</ele>
        <time>2017-08-15T13:24:16Z</time>
      </trkpt>
      <trkpt lat="42.792991" lon="-0.592437">
        <ele>1851.6</ele>
        <time>2017-08-15T13:24:25Z</time>
      </trkpt>
      <trkpt lat="42.792991" lon="-0.592322">
        <ele>1853.6</ele>
        <time>2017-08-15T13:24:29Z</time>
      </trkpt>
      <trkpt lat="42.792988" lon="-0.592279">
        <ele>1854.5</ele>
        <time>2017-08-15T13:24:39Z</time>
      </trkpt>
      <trkpt lat="42.792980" lon="-0.592090">
        <ele>1856.0</ele>
        <time>2017-08-15T13:24:52Z</time>
      </trkpt>
      <trkpt lat="42.792979" lon="-0.592080">
        <ele>1856.0</ele>
        <time>2017-08-15T13:25:03Z</time>
      </trkpt>
      <trkpt lat="42.792989" lon="-0.592017">
        <ele>1856.4</ele>
        <time>2017-08-15T13:25:11Z</time>
      </trkpt>
      <trkpt lat="42.793054" lon="-0.591788">
        <ele>1857.4</ele>
        <time>2017-08-15T13:25:23Z</time>
      </trkpt>
      <trkpt lat="42.793059" lon="-0.591739">
        <ele>1857.9</ele>
        <time>2017-08-15T13:25:31Z</time>
      </trkpt>
      <trkpt lat="42.793063" lon="-0.591674">
        <ele>1859.3</ele>
        <time>2017-08-15T13:25:34Z</time>
      </trkpt>
      <trkpt lat="42.793079" lon="-0.591591">
        <ele>1859.8</ele>
        <time>2017-08-15T13:25:40Z</time>
      </trkpt>
      <trkpt lat="42.793081" lon="-0.591447">
        <ele>1859.8</ele>
        <time>2017-08-15T13:25:47Z</time>
      </trkpt>
      <trkpt lat="42.793059" lon="-0.591350">
        <ele>1858.4</ele>
        <time>2017-08-15T13:25:59Z</time>
      </trkpt>
      <trkpt lat="42.793057" lon="-0.591107">
        <ele>1856.9</ele>
        <time>2017-08-15T13:26:08Z</time>
      </trkpt>
      <trkpt lat="42.793020" lon="-0.590938">
        <ele>1856.9</ele>
        <time>2017-08-15T13:26:13Z</time>
      </trkpt>
      <trkpt lat="42.792989" lon="-0.590825">
        <ele>1856.9</ele>
        <time>2017-08-15T13:26:22Z</time>
      </trkpt>
      <trkpt lat="42.793046" lon="-0.590592">
        <ele>1857.4</ele>
        <time>2017-08-15T13:26:30Z</time>
      </trkpt>
      <trkpt lat="42.793074" lon="-0.590518">
        <ele>1857.4</ele>
        <time>2017-08-15T13:26:32Z</time>
      </trkpt>
      <trkpt lat="42.793069" lon="-0.590277">
        <ele>1857.4</ele>
        <time>2017-08-15T13:26:36Z</time>
      </trkpt>
      <trkpt lat="42.793070" lon="-0.590264">
        <ele>1857.4</ele>
        <time>2017-08-15T13:26:46Z</time>
      </trkpt>
      <trkpt lat="42.793056" lon="-0.590190">
        <ele>1857.4</ele>
        <time>2017-08-15T13:26:50Z</time>
      </trkpt>
      <trkpt lat="42.793003" lon="-0.589952">
        <ele>1858.4</ele>
        <time>2017-08-15T13:26:54Z</time>
      </trkpt>
      <trkpt lat="42.792997" lon="-0.589908">
        <ele>1858.4</ele>
        <time>2017-08-15T13:26:59Z</time>
      </trkpt>
      <trkpt lat="42.792990" lon="-0.589732">
        <ele>1859.8</ele>
        <time>2017-08-15T13:27:04Z</time>
      </trkpt>
      <trkpt lat="42.792991" lon="-0.589612">
        <ele>1860.3</ele>
        <time>2017-08-15T13:27:13Z</time>
      </trkpt>
      <trkpt lat="42.792995" lon="-0.589548">
        <ele>1860.8</ele>
        <time>2017-08-15T13:27:24Z</time>
      </trkpt>
      <trkpt lat="42.792945" lon="-0.589398">
        <ele>1861.7</ele>
        <time>2017-08-15T13:27:32Z</time>
      </trkpt>
      <trkpt lat="42.792854" lon="-0.589213">
        <ele>1862.2</ele>
        <time>2017-08-15T13:27:50Z</time>
      </trkpt>
      <trkpt lat="42.792820" lon="-0.589040">
        <ele>1863.2</ele>
        <time>2017-08-15T13:28:04Z</time>
      </trkpt>
      <trkpt lat="42.792768" lon="-0.588960">
        <ele>1864.1</ele>
        <time>2017-08-15T13:28:17Z</time>
      </trkpt>
      <trkpt lat="42.792733" lon="-0.588796">
        <ele>1866.1</ele>
        <time>2017-08-15T13:28:28Z</time>
      </trkpt>
      <trkpt lat="42.792749" lon="-0.588716">
        <ele>1868.0</ele>
        <time>2017-08-15T13:28:40Z</time>
      </trkpt>
      <trkpt lat="42.792737" lon="-0.588689">
        <ele>1868.9</ele>
        <time>2017-08-15T13:28:52Z</time>
      </trkpt>
      <trkpt lat="42.792718" lon="-0.588620">
        <ele>1869.9</ele>
        <time>2017-08-15T13:28:53Z</time>
      </trkpt>
      <trkpt lat="42.792717" lon="-0.588531">
        <ele>1871.3</ele>
        <time>2017-08-15T13:29:02Z</time>
      </trkpt>
      <trkpt lat="42.792689" lon="-0.588338">
        <ele>1873.3</ele>
        <time>2017-08-15T13:29:06Z</time>
      </trkpt>
      <trkpt lat="42.792659" lon="-0.588196">
        <ele>1873.8</ele>
        <time>2017-08-15T13:29:16Z</time>
      </trkpt>
      <trkpt lat="42.792655" lon="-0.588118">
        <ele>1874.2</ele>
        <time>2017-08-15T13:29:19Z</time>
      </trkpt>
      <trkpt lat="42.792663" lon="-0.587979">
        <ele>1874.2</ele>
        <time>2017-08-15T13:29:28Z</time>
      </trkpt>
      <trkpt lat="42.792665" lon="-0.587820">
        <ele>1874.7</ele>
        <time>2017-08-15T13:29:37Z</time>
      </trkpt>
      <trkpt lat="42.792672" lon="-0.587782">
        <ele>1874.7</ele>
        <time>2017-08-15T13:29:48Z</time>
      </trkpt>
      <trkpt lat="42.792668" lon="-0.587720">
        <ele>1874.7</ele>
        <time>2017-08-15T13:29:52Z</time>
      </trkpt>
      <trkpt lat="42.792594" lon="-0.587618">
        <ele>1875.7</ele>
        <time>2017-08-15T13:29:58Z</time>
      </trkpt>
      <trkpt lat="42.792568" lon="-0.587559">
        <ele>1876.6</ele>
        <time>2017-08-15T13:30:10Z</time>
      </trkpt>
      <trkpt lat="42.792568" lon="-0.587504">
        <ele>1877.1</ele>
        <time>2017-08-15T13:30:17Z</time>
      </trkpt>
      <trkpt lat="42.792540" lon="-0.587455">
        <ele>1878.6</ele>
        <time>2017-08-15T13:30:20Z</time>
      </trkpt>
      <trkpt lat="42.792518" lon="-0.587411">
        <ele>1879.0</ele>
        <time>2017-08-15T13:30:24Z</time>
      </trkpt>
      <trkpt lat="42.792470" lon="-0.587306">
        <ele>1880.5</ele>
        <time>2017-08-15T13:30:35Z</time>
      </trkpt>
      <trkpt lat="42.792429" lon="-0.587265">
        <ele>1882.4</ele>
        <time>2017-08-15T13:30:36Z</time>
      </trkpt>
      <trkpt lat="42.792394" lon="-0.587253">
        <ele>1883.4</ele>
        <time>2017-08-15T13:30:47Z</time>
      </trkpt>
      <trkpt lat="42.792274" lon="-0.587073">
        <ele>1885.8</ele>
        <time>2017-08-15T13:30:48Z</time>
      </trkpt>
      <trkpt lat="42.792134" lon="-0.586925">
        <ele>1886.7</ele>
        <time>2017-08-15T13:30:58Z</time>
      </trkpt>
      <trkpt lat="42.792041" lon="-0.586846">
        <ele>1886.7</ele>
        <time>2017-08-15T13:31:10Z</time>
      </trkpt>
      <trkpt lat="42.792041" lon="-0.586846">
        <ele>1886.7</ele>
        <time>2017-08-15T13:31:20Z</time>
      </trkpt>
      <trkpt lat="42.791860" lon="-0.586717">
        <ele>1886.7</ele>
        <time>2017-08-15T13:31:28Z</time>
      </trkpt>
      <trkpt lat="42.791750" lon="-0.586612">
        <ele>1885.8</ele>
        <time>2017-08-15T13:31:40Z</time>
      </trkpt>
      <trkpt lat="42.791746" lon="-0.586602">
        <ele>1885.8</ele>
        <time>2017-08-15T13:31:46Z</time>
      </trkpt>
      <trkpt lat="42.791666" lon="-0.586509">
        <ele>1887.2</ele>
        <time>2017-08-15T13:31:59Z</time>
      </trkpt>
      <trkpt lat="42.791631" lon="-0.586501">
        <ele>1887.7</ele>
        <time>2017-08-15T13:32:06Z</time>
      </trkpt>
      <trkpt lat="42.791546" lon="-0.586468">
        <ele>1890.1</ele>
        <time>2017-08-15T13:32:16Z</time>
      </trkpt>
      <trkpt lat="42.791517" lon="-0.586450">
        <ele>1890.6</ele>
        <time>2017-08-15T13:32:20Z</time>
      </trkpt>
      <trkpt lat="42.791450" lon="-0.586376">
        <ele>1892.0</ele>
        <time>2017-08-15T13:32:22Z</time>
      </trkpt>
      <trkpt lat="42.791364" lon="-0.586355">
        <ele>1893.4</ele>
        <time>2017-08-15T13:32:26Z</time>
      </trkpt>
      <trkpt lat="42.791266" lon="-0.586383">
        <ele>1895.4</ele>
        <time>2017-08-15T13:32:33Z</time>
      </trkpt>
      <trkpt lat="42.791237" lon="-0.586392">
        <ele>1895.9</ele>
        <time>2017-08-15T13:32:36Z</time>
      </trkpt>
      <trkpt lat="42.791200" lon="-0.586414">
        <ele>1896.8</ele>
        <time>2017-08-15T13:32:40Z</time>
      </trkpt>
      <trkpt lat="42.791151" lon="-0.586435">
        <ele>1899.2</ele>
        <time>2017-08-15T13:32:50Z</time>
      </trkpt>
      <trkpt lat="42.791135" lon="-0.586464">
        <ele>1900.7</ele>
        <time>2017-08-15T13:33:02Z</time>
      </trkpt>
      <trkpt lat="42.791155" lon="-0.586485">
        <ele>1900.7</ele>
        <time>2017-08-15T13:33:12Z</time>
      </trkpt>
      <trkpt lat="42.791178" lon="-0.586505">
        <ele>1902.1</ele>
        <time>2017-08-15T13:33:20Z</time>
      </trkpt>
      <trkpt lat="42.791178" lon="-0.586543">
        <ele>1903.6</ele>
        <time>2017-08-15T13:33:26Z</time>
      </trkpt>
      <trkpt lat="42.791168" lon="-0.586542">
        <ele>1904.0</ele>
        <time>2017-08-15T13:33:38Z</time>
      </trkpt>
      <trkpt lat="42.791103" lon="-0.586572">
        <ele>1905.9</ele>
        <time>2017-08-15T13:33:42Z</time>
      </trkpt>
      <trkpt lat="42.791105" lon="-0.586581">
        <ele>1905.9</ele>
        <time>2017-08-15T13:33:53Z</time>
      </trkpt>
      <trkpt lat="42.791140" lon="-0.586648">
        <ele>1907.9</ele>
        <time>2017-08-15T13:34:04Z</time>
      </trkpt>
      <trkpt lat="42.791140" lon="-0.586648">
        <ele>1909.8</ele>
        <time>2017-08-15T13:34:07Z</time>
      </trkpt>
      <trkpt lat="42.791087" lon="-0.586673">
        <ele>1911.7</ele>
        <time>2017-08-15T13:34:11Z</time>
      </trkpt>
      <trkpt lat="42.791045" lon="-0.586693">
        <ele>1912.7</ele>
        <time>2017-08-15T13:34:17Z</time>
      </trkpt>
      <trkpt lat="42.791002" lon="-0.586650">
        <ele>1915.1</ele>
        <time>2017-08-15T13:34:28Z</time>
      </trkpt>
      <trkpt lat="42.790961" lon="-0.586616">
        <ele>1916.0</ele>
        <time>2017-08-15T13:34:35Z</time>
      </trkpt>
      <trkpt lat="42.790869" lon="-0.586634">
        <ele>1918.4</ele>
        <time>2017-08-15T13:34:44Z</time>
      </trkpt>
      <trkpt lat="42.790833" lon="-0.586647">
        <ele>1919.9</ele>
        <time>2017-08-15T13:34:51Z</time>
      </trkpt>
      <trkpt lat="42.790755" lon="-0.586662">
        <ele>1921.8</ele>
        <time>2017-08-15T13:34:58Z</time>
      </trkpt>
      <trkpt lat="42.790741" lon="-0.586620">
        <ele>1922.3</ele>
        <time>2017-08-15T13:35:02Z</time>
      </trkpt>
      <trkpt lat="42.790734" lon="-0.586595">
        <ele>1922.8</ele>
        <time>2017-08-15T13:35:11Z</time>
      </trkpt>
      <trkpt lat="42.790696" lon="-0.586572">
        <ele>1923.2</ele>
        <time>2017-08-15T13:35:14Z</time>
      </trkpt>
      <trkpt lat="42.790645" lon="-0.586593">
        <ele>1924.7</ele>
        <time>2017-08-15T13:35:20Z</time>
      </trkpt>
      <trkpt lat="42.790616" lon="-0.586571">
        <ele>1924.7</ele>
        <time>2017-08-15T13:35:32Z</time>
      </trkpt>
      <trkpt lat="42.790578" lon="-0.586583">
        <ele>1925.2</ele>
        <time>2017-08-15T13:35:40Z</time>
      </trkpt>
      <trkpt lat="42.790502" lon="-0.586549">
        <ele>1927.1</ele>
        <time>2017-08-15T13:35:55Z</time>
      </trkpt>
      <trkpt lat="42.790459" lon="-0.586591">
        <ele>1929.0</ele>
        <time>2017-08-15T13:36:09Z</time>
      </trkpt>
      <trkpt lat="42.790483" lon="-0.586644">
        <ele>1931.4</ele>
        <time>2017-08-15T13:36:32Z</time>
      </trkpt>
      <trkpt lat="42.790440" lon="-0.586689">
        <ele>1932.4</ele>
        <time>2017-08-15T13:36:59Z</time>
      </trkpt>
      <trkpt lat="42.790464" lon="-0.586730">
        <ele>1933.3</ele>
        <time>2017-08-15T13:37:05Z</time>
      </trkpt>
      <trkpt lat="42.790520" lon="-0.586775">
        <ele>1935.3</ele>
        <time>2017-08-15T13:37:08Z</time>
      </trkpt>
      <trkpt lat="42.790520" lon="-0.586775">
        <ele>1936.2</ele>
        <time>2017-08-15T13:37:20Z</time>
      </trkpt>
      <trkpt lat="42.790472" lon="-0.586831">
        <ele>1938.2</ele>
        <time>2017-08-15T13:37:31Z</time>
      </trkpt>
      <trkpt lat="42.790528" lon="-0.586910">
        <ele>1940.1</ele>
        <time>2017-08-15T13:37:40Z</time>
      </trkpt>
      <trkpt lat="42.790521" lon="-0.586942">
        <ele>1940.1</ele>
        <time>2017-08-15T13:37:45Z</time>
      </trkpt>
      <trkpt lat="42.790534" lon="-0.586981">
        <ele>1941.0</ele>
        <time>2017-08-15T13:37:52Z</time>
      </trkpt>
      <trkpt lat="42.790582" lon="-0.587014">
        <ele>1941.5</ele>
        <time>2017-08-15T13:37:56Z</time>
      </trkpt>
      <trkpt lat="42.790597" lon="-0.587101">
        <ele>1943.9</ele>
        <time>2017-08-15T13:37:59Z</time>
      </trkpt>
      <trkpt lat="42.790643" lon="-0.587136">
        <ele>1944.9</ele>
        <time>2017-08-15T13:38:12Z</time>
      </trkpt>
      <trkpt lat="42.790701" lon="-0.587177">
        <ele>1946.8</ele>
        <time>2017-08-15T13:38:15Z</time>
      </trkpt>
      <trkpt lat="42.790766" lon="-0.587198">
        <ele>1947.8</ele>
        <time>2017-08-15T13:38:24Z</time>
      </trkpt>
      <trkpt lat="42.790840" lon="-0.587252">
        <ele>1948.7</ele>
        <time>2017-08-15T13:38:31Z</time>
      </trkpt>
      <trkpt lat="42.790875" lon="-0.587275">
        <ele>1949.7</ele>
        <time>2017-08-15T13:38:41Z</time>
      </trkpt>
      <trkpt lat="42.790906" lon="-0.587326">
        <ele>1951.1</ele>
        <time>2017-08-15T13:38:52Z</time>
      </trkpt>
      <trkpt lat="42.790928" lon="-0.587341">
        <ele>1951.6</ele>
        <time>2017-08-15T13:39:02Z</time>
      </trkpt>
      <trkpt lat="42.790941" lon="-0.587402">
        <ele>1953.1</ele>
        <time>2017-08-15T13:39:03Z</time>
      </trkpt>
      <trkpt lat="42.790943" lon="-0.587474">
        <ele>1954.5</ele>
        <time>2017-08-15T13:39:13Z</time>
      </trkpt>
      <trkpt lat="42.790912" lon="-0.587537">
        <ele>1956.4</ele>
        <time>2017-08-15T13:39:21Z</time>
      </trkpt>
      <trkpt lat="42.790888" lon="-0.587560">
        <ele>1957.4</ele>
        <time>2017-08-15T13:39:34Z</time>
      </trkpt>
      <trkpt lat="42.790864" lon="-0.587573">
        <ele>1957.4</ele>
        <time>2017-08-15T13:39:44Z</time>
      </trkpt>
      <trkpt lat="42.790857" lon="-0.587577">
        <ele>1957.9</ele>
        <time>2017-08-15T13:39:45Z</time>
      </trkpt>
      <trkpt lat="42.790851" lon="-0.587588">
        <ele>1957.9</ele>
        <time>2017-08-15T13:39:58Z</time>
      </trkpt>
      <trkpt lat="42.790842" lon="-0.587604">
        <ele>1957.9</ele>
        <time>2017-08-15T13:40:07Z</time>
      </trkpt>
      <trkpt lat="42.790808" lon="-0.587619">
        <ele>1957.9</ele>
        <time>2017-08-15T13:40:19Z</time>
      </trkpt>
      <trkpt lat="42.790730" lon="-0.587619">
        <ele>1959.3</ele>
        <time>2017-08-15T13:40:22Z</time>
      </trkpt>
      <trkpt lat="42.790724" lon="-0.587507">
        <ele>1961.7</ele>
        <time>2017-08-15T13:40:35Z</time>
      </trkpt>
      <trkpt lat="42.790660" lon="-0.587496">
        <ele>1963.2</ele>
        <time>2017-08-15T13:40:40Z</time>
      </trkpt>
      <trkpt lat="42.790629" lon="-0.587521">
        <ele>1963.6</ele>
        <time>2017-08-15T13:40:51Z</time>
      </trkpt>
      <trkpt lat="42.790565" lon="-0.587497">
        <ele>1964.6</ele>
        <time>2017-08-15T13:41:06Z</time>
      </trkpt>
      <trkpt lat="42.790529" lon="-0.587502">
        <ele>1965.6</ele>
        <time>2017-08-15T13:41:09Z</time>
      </trkpt>
      <trkpt lat="42.790514" lon="-0.587527">
        <ele>1966.0</ele>
        <time>2017-08-15T13:41:15Z</time>
      </trkpt>
      <trkpt lat="42.790513" lon="-0.587633">
        <ele>1968.9</ele>
        <time>2017-08-15T13:41:29Z</time>
      </trkpt>
      <trkpt lat="42.790513" lon="-0.587669">
        <ele>1969.4</ele>
        <time>2017-08-15T13:41:41Z</time>
      </trkpt>
      <trkpt lat="42.790464" lon="-0.587691">
        <ele>1970.8</ele>
        <time>2017-08-15T13:41:52Z</time>
      </trkpt>
      <trkpt lat="42.790456" lon="-0.587745">
        <ele>1972.3</ele>
        <time>2017-08-15T13:41:56Z</time>
      </trkpt>
      <trkpt lat="42.790445" lon="-0.587860">
        <ele>1973.7</ele>
        <time>2017-08-15T13:41:59Z</time>
      </trkpt>
      <trkpt lat="42.790400" lon="-0.587906">
        <ele>1975.7</ele>
        <time>2017-08-15T13:42:14Z</time>
      </trkpt>
      <trkpt lat="42.790354" lon="-0.587920">
        <ele>1977.6</ele>
        <time>2017-08-15T13:42:22Z</time>
      </trkpt>
      <trkpt lat="42.790350" lon="-0.587928">
        <ele>1977.6</ele>
        <time>2017-08-15T13:42:26Z</time>
      </trkpt>
      <trkpt lat="42.790311" lon="-0.588017">
        <ele>1979.5</ele>
        <time>2017-08-15T13:42:32Z</time>
      </trkpt>
      <trkpt lat="42.790270" lon="-0.588071">
        <ele>1980.4</ele>
        <time>2017-08-15T13:42:41Z</time>
      </trkpt>
      <trkpt lat="42.790199" lon="-0.588172">
        <ele>1982.9</ele>
        <time>2017-08-15T13:42:52Z</time>
      </trkpt>
      <trkpt lat="42.790189" lon="-0.588185">
        <ele>1984.8</ele>
        <time>2017-08-15T13:42:59Z</time>
      </trkpt>
      <trkpt lat="42.790182" lon="-0.588192">
        <ele>1984.8</ele>
        <time>2017-08-15T13:43:04Z</time>
      </trkpt>
      <trkpt lat="42.790110" lon="-0.588256">
        <ele>1987.7</ele>
        <time>2017-08-15T13:43:06Z</time>
      </trkpt>
      <trkpt lat="42.790071" lon="-0.588306">
        <ele>1990.1</ele>
        <time>2017-08-15T13:43:23Z</time>
      </trkpt>
      <trkpt lat="42.789997" lon="-0.588380">
        <ele>1992.5</ele>
        <time>2017-08-15T13:43:34Z</time>
      </trkpt>
      <trkpt lat="42.789976" lon="-0.588390">
        <ele>1992.9</ele>
        <time>2017-08-15T13:43:48Z</time>
      </trkpt>
      <trkpt lat="42.789921" lon="-0.588459">
        <ele>1995.3</ele>
        <time>2017-08-15T13:44:00Z</time>
      </trkpt>
      <trkpt lat="42.789902" lon="-0.588491">
        <ele>1996.8</ele>
        <time>2017-08-15T13:44:06Z</time>
      </trkpt>
      <trkpt lat="42.789817" lon="-0.588545">
        <ele>1997.8</ele>
        <time>2017-08-15T13:44:21Z</time>
      </trkpt>
      <trkpt lat="42.789759" lon="-0.588679">
        <ele>1998.2</ele>
        <time>2017-08-15T13:44:32Z</time>
      </trkpt>
      <trkpt lat="42.789744" lon="-0.588714">
        <ele>1997.3</ele>
        <time>2017-08-15T13:44:51Z</time>
      </trkpt>
      <trkpt lat="42.789744" lon="-0.588767">
        <ele>1996.8</ele>
        <time>2017-08-15T13:45:07Z</time>
      </trkpt>
      <trkpt lat="42.789646" lon="-0.588919">
        <ele>1995.3</ele>
        <time>2017-08-15T13:45:26Z</time>
      </trkpt>
      <trkpt lat="42.789635" lon="-0.588932">
        <ele>1994.9</ele>
        <time>2017-08-15T13:45:41Z</time>
      </trkpt>
      <trkpt lat="42.789563" lon="-0.588947">
        <ele>1995.8</ele>
        <time>2017-08-15T13:45:56Z</time>
      </trkpt>
      <trkpt lat="42.789513" lon="-0.588962">
        <ele>1996.8</ele>
        <time>2017-08-15T13:45:57Z</time>
      </trkpt>
      <trkpt lat="42.789490" lon="-0.588986">
        <ele>1996.8</ele>
        <time>2017-08-15T13:46:14Z</time>
      </trkpt>
      <trkpt lat="42.789394" lon="-0.589104">
        <ele>1996.8</ele>
        <time>2017-08-15T13:46:31Z</time>
      </trkpt>
      <trkpt lat="42.789352" lon="-0.589177">
        <ele>1996.8</ele>
        <time>2017-08-15T13:46:48Z</time>
      </trkpt>
      <trkpt lat="42.789312" lon="-0.589196">
        <ele>1996.8</ele>
        <time>2017-08-15T13:47:03Z</time>
      </trkpt>
      <trkpt lat="42.789243" lon="-0.589226">
        <ele>1996.8</ele>
        <time>2017-08-15T13:47:19Z</time>
      </trkpt>
      <trkpt lat="42.789139" lon="-0.589280">
        <ele>1997.3</ele>
        <time>2017-08-15T13:47:32Z</time>
      </trkpt>
      <trkpt lat="42.789048" lon="-0.589410">
        <ele>1995.8</ele>
        <time>2017-08-15T13:47:44Z</time>
      </trkpt>
      <trkpt lat="42.788982" lon="-0.589477">
        <ele>1995.8</ele>
        <time>2017-08-15T13:48:00Z</time>
      </trkpt>
      <trkpt lat="42.788933" lon="-0.589538">
        <ele>1995.8</ele>
        <time>2017-08-15T13:48:16Z</time>
      </trkpt>
      <trkpt lat="42.788929" lon="-0.589590">
        <ele>1995.8</ele>
        <time>2017-08-15T13:48:33Z</time>
      </trkpt>
      <trkpt lat="42.788920" lon="-0.589648">
        <ele>1995.8</ele>
        <time>2017-08-15T13:48:47Z</time>
      </trkpt>
      <trkpt lat="42.788920" lon="-0.589648">
        <ele>1995.8</ele>
        <time>2017-08-15T13:49:03Z</time>
      </trkpt>
      <trkpt lat="42.788818" lon="-0.589851">
        <ele>1995.8</ele>
        <time>2017-08-15T13:49:09Z</time>
      </trkpt>
      <trkpt lat="42.788760" lon="-0.589880">
        <ele>1995.8</ele>
        <time>2017-08-15T13:49:27Z</time>
      </trkpt>
      <trkpt lat="42.788757" lon="-0.589891">
        <ele>1995.8</ele>
        <time>2017-08-15T13:49:43Z</time>
      </trkpt>
      <trkpt lat="42.788656" lon="-0.590085">
        <ele>1996.3</ele>
        <time>2017-08-15T13:49:58Z</time>
      </trkpt>
      <trkpt lat="42.788573" lon="-0.590196">
        <ele>1996.3</ele>
        <time>2017-08-15T13:50:14Z</time>
      </trkpt>
      <trkpt lat="42.788421" lon="-0.590420">
        <ele>1996.3</ele>
        <time>2017-08-15T13:50:21Z</time>
      </trkpt>
      <trkpt lat="42.788267" lon="-0.590576">
        <ele>1997.3</ele>
        <time>2017-08-15T13:50:34Z</time>
      </trkpt>
      <trkpt lat="42.788252" lon="-0.590580">
        <ele>1997.3</ele>
        <time>2017-08-15T13:50:41Z</time>
      </trkpt>
      <trkpt lat="42.788146" lon="-0.590680">
        <ele>1997.3</ele>
        <time>2017-08-15T13:50:50Z</time>
      </trkpt>
      <trkpt lat="42.788104" lon="-0.590725">
        <ele>1997.3</ele>
        <time>2017-08-15T13:50:55Z</time>
      </trkpt>
      <trkpt lat="42.788104" lon="-0.590725">
        <ele>1997.3</ele>
        <time>2017-08-15T13:50:58Z</time>
      </trkpt>
      <trkpt lat="42.787916" lon="-0.590924">
        <ele>1997.3</ele>
        <time>2017-08-15T13:51:01Z</time>
      </trkpt>
      <trkpt lat="42.787741" lon="-0.591198">
        <ele>1997.8</ele>
        <time>2017-08-15T13:51:05Z</time>
      </trkpt>
      <trkpt lat="42.787585" lon="-0.591420">
        <ele>1997.8</ele>
        <time>2017-08-15T13:51:07Z</time>
      </trkpt>
      <trkpt lat="42.787440" lon="-0.591610">
        <ele>1999.2</ele>
        <time>2017-08-15T13:51:14Z</time>
      </trkpt>
      <trkpt lat="42.787388" lon="-0.591659">
        <ele>1999.2</ele>
        <time>2017-08-15T13:51:25Z</time>
      </trkpt>
      <trkpt lat="42.787280" lon="-0.591828">
        <ele>1999.7</ele>
        <time>2017-08-15T13:51:35Z</time>
      </trkpt>
      <trkpt lat="42.787166" lon="-0.591976">
        <ele>2000.2</ele>
        <time>2017-08-15T13:51:36Z</time>
      </trkpt>
      <trkpt lat="42.787146" lon="-0.592007">
        <ele>2000.2</ele>
        <time>2017-08-15T13:51:40Z</time>
      </trkpt>
      <trkpt lat="42.787009" lon="-0.592149">
        <ele>2000.6</ele>
        <time>2017-08-15T13:51:50Z</time>
      </trkpt>
      <trkpt lat="42.786824" lon="-0.592337">
        <ele>2001.6</ele>
        <time>2017-08-15T13:51:53Z</time>
      </trkpt>
      <trkpt lat="42.786682" lon="-0.592507">
        <ele>2002.1</ele>
        <time>2017-08-15T13:51:55Z</time>
      </trkpt>
      <trkpt lat="42.786514" lon="-0.592720">
        <ele>2002.6</ele>
        <time>2017-08-15T13:52:00Z</time>
      </trkpt>
      <trkpt lat="42.786469" lon="-0.592756">
        <ele>2003.0</ele>
        <time>2017-08-15T13:52:04Z</time>
      </trkpt>
      <trkpt lat="42.786235" lon="-0.592961">
        <ele>2004.0</ele>
        <time>2017-08-15T13:52:08Z</time>
      </trkpt>
      <trkpt lat="42.786061" lon="-0.593185">
        <ele>2004.5</ele>
        <time>2017-08-15T13:52:13Z</time>
      </trkpt>
      <trkpt lat="42.785901" lon="-0.593357">
        <ele>2005.4</ele>
        <time>2017-08-15T13:52:20Z</time>
      </trkpt>
      <trkpt lat="42.785728" lon="-0.593546">
        <ele>2006.9</ele>
        <time>2017-08-15T13:52:23Z</time>
      </trkpt>
      <trkpt lat="42.785658" lon="-0.593600">
        <ele>2007.4</ele>
        <time>2017-08-15T13:52:34Z</time>
      </trkpt>
      <trkpt lat="42.785528" lon="-0.593746">
        <ele>2007.8</ele>
        <time>2017-08-15T13:52:42Z</time>
      </trkpt>
      <trkpt lat="42.785471" lon="-0.593829">
        <ele>2008.8</ele>
        <time>2017-08-15T13:52:46Z</time>
      </trkpt>
      <trkpt lat="42.785390" lon="-0.593902">
        <ele>2010.2</ele>
        <time>2017-08-15T13:52:55Z</time>
      </trkpt>
      <trkpt lat="42.785344" lon="-0.593934">
        <ele>2010.7</ele>
        <time>2017-08-15T13:53:03Z</time>
      </trkpt>
      <trkpt lat="42.785325" lon="-0.593957">
        <ele>2011.2</ele>
        <time>2017-08-15T13:53:19Z</time>
      </trkpt>
      <trkpt lat="42.785303" lon="-0.593978">
        <ele>2012.2</ele>
        <time>2017-08-15T13:53:30Z</time>
      </trkpt>
      <trkpt lat="42.785291" lon="-0.594025">
        <ele>2012.7</ele>
        <time>2017-08-15T13:53:43Z</time>
      </trkpt>
      <trkpt lat="42.785276" lon="-0.594036">
        <ele>2013.1</ele>
        <time>2017-08-15T13:53:53Z</time>
      </trkpt>
      <trkpt lat="42.785216" lon="-0.594049">
        <ele>2014.1</ele>
        <time>2017-08-15T13:54:01Z</time>
      </trkpt>
      <trkpt lat="42.785154" lon="-0.594117">
        <ele>2016.0</ele>
        <time>2017-08-15T13:54:04Z</time>
      </trkpt>
      <trkpt lat="42.785126" lon="-0.594192">
        <ele>2018.4</ele>
        <time>2017-08-15T13:54:13Z</time>
      </trkpt>
      <trkpt lat="42.785123" lon="-0.594198">
        <ele>2018.4</ele>
        <time>2017-08-15T13:54:22Z</time>
      </trkpt>
      <trkpt lat="42.785083" lon="-0.594213">
        <ele>2019.4</ele>
        <time>2017-08-15T13:54:25Z</time>
      </trkpt>
      <trkpt lat="42.784999" lon="-0.594233">
        <ele>2021.3</ele>
        <time>2017-08-15T13:54:37Z</time>
      </trkpt>
      <trkpt lat="42.784974" lon="-0.594247">
        <ele>2021.8</ele>
        <time>2017-08-15T13:54:42Z</time>
      </trkpt>
      <trkpt lat="42.784958" lon="-0.594262">
        <ele>2022.3</ele>
        <time>2017-08-15T13:54:54Z</time>
      </trkpt>
      <trkpt lat="42.784915" lon="-0.594288">
        <ele>2022.8</ele>
        <time>2017-08-15T13:55:03Z</time>
      </trkpt>
      <trkpt lat="42.784884" lon="-0.594313">
        <ele>2023.7</ele>
        <time>2017-08-15T13:55:14Z</time>
      </trkpt>
      <trkpt lat="42.784848" lon="-0.594338">
        <ele>2024.7</ele>
        <time>2017-08-15T13:55:17Z</time>
      </trkpt>
      <trkpt lat="42.784821" lon="-0.594401">
        <ele>2025.2</ele>
        <time>2017-08-15T13:55:23Z</time>
      </trkpt>
      <trkpt lat="42.784748" lon="-0.594427">
        <ele>2025.6</ele>
        <time>2017-08-15T13:55:26Z</time>
      </trkpt>
      <trkpt lat="42.784720" lon="-0.594454">
        <ele>2026.1</ele>
        <time>2017-08-15T13:55:36Z</time>
      </trkpt>
      <trkpt lat="42.784597" lon="-0.594514">
        <ele>2027.6</ele>
        <time>2017-08-15T13:55:42Z</time>
      </trkpt>
      <trkpt lat="42.784499" lon="-0.594552">
        <ele>2028.5</ele>
        <time>2017-08-15T13:55:46Z</time>
      </trkpt>
      <trkpt lat="42.784454" lon="-0.594590">
        <ele>2028.5</ele>
        <time>2017-08-15T13:55:50Z</time>
      </trkpt>
      <trkpt lat="42.784373" lon="-0.594687">
        <ele>2028.5</ele>
        <time>2017-08-15T13:55:53Z</time>
      </trkpt>
      <trkpt lat="42.784307" lon="-0.594789">
        <ele>2028.5</ele>
        <time>2017-08-15T13:56:05Z</time>
      </trkpt>
      <trkpt lat="42.784214" lon="-0.594974">
        <ele>2028.5</ele>
        <time>2017-08-15T13:56:10Z</time>
      </trkpt>
      <trkpt lat="42.784119" lon="-0.595056">
        <ele>2029.5</ele>
        <time>2017-08-15T13:56:18Z</time>
      </trkpt>
      <trkpt lat="42.784010" lon="-0.595196">
        <ele>2031.4</ele>
        <time>2017-08-15T13:56:31Z</time>
      </trkpt>
      <trkpt lat="42.783962" lon="-0.595275">
        <ele>2032.4</ele>
        <time>2017-08-15T13:56:32Z</time>
      </trkpt>
      <trkpt lat="42.783943" lon="-0.595299">
        <ele>2032.8</ele>
        <time>2017-08-15T13:56:40Z</time>
      </trkpt>
      <trkpt lat="42.783929" lon="-0.595337">
        <ele>2032.8</ele>
        <time>2017-08-15T13:56:50Z</time>
      </trkpt>
      <trkpt lat="42.783868" lon="-0.595430">
        <ele>2033.3</ele>
        <time>2017-08-15T13:56:58Z</time>
      </trkpt>
      <trkpt lat="42.783770" lon="-0.595515">
        <ele>2033.3</ele>
        <time>2017-08-15T13:57:05Z</time>
      </trkpt>
      <trkpt lat="42.783743" lon="-0.595552">
        <ele>2033.8</ele>
        <time>2017-08-15T13:57:08Z</time>
      </trkpt>
      <trkpt lat="42.783624" lon="-0.595684">
        <ele>2033.8</ele>
        <time>2017-08-15T13:57:15Z</time>
      </trkpt>
      <trkpt lat="42.783594" lon="-0.595774">
        <ele>2034.8</ele>
        <time>2017-08-15T13:57:20Z</time>
      </trkpt>
      <trkpt lat="42.783447" lon="-0.595895">
        <ele>2035.2</ele>
        <time>2017-08-15T13:57:32Z</time>
      </trkpt>
      <trkpt lat="42.783388" lon="-0.595915">
        <ele>2035.7</ele>
        <time>2017-08-15T13:57:45Z</time>
      </trkpt>
      <trkpt lat="42.783239" lon="-0.596001">
        <ele>2036.2</ele>
        <time>2017-08-15T13:57:57Z</time>
      </trkpt>
      <trkpt lat="42.783213" lon="-0.596021">
        <ele>2036.7</ele>
        <time>2017-08-15T13:58:09Z</time>
      </trkpt>
      <trkpt lat="42.783153" lon="-0.596069">
        <ele>2037.2</ele>
        <time>2017-08-15T13:58:17Z</time>
      </trkpt>
      <trkpt lat="42.783118" lon="-0.596089">
        <ele>2037.7</ele>
        <time>2017-08-15T13:58:23Z</time>
      </trkpt>
      <trkpt lat="42.783061" lon="-0.596232">
        <ele>2039.6</ele>
        <time>2017-08-15T13:58:24Z</time>
      </trkpt>
      <trkpt lat="42.783034" lon="-0.596281">
        <ele>2040.5</ele>
        <time>2017-08-15T13:58:37Z</time>
      </trkpt>
      <trkpt lat="42.782999" lon="-0.596311">
        <ele>2041.5</ele>
        <time>2017-08-15T13:58:49Z</time>
      </trkpt>
      <trkpt lat="42.782972" lon="-0.596343">
        <ele>2042.0</ele>
        <time>2017-08-15T13:59:12Z</time>
      </trkpt>
      <trkpt lat="42.782964" lon="-0.596381">
        <ele>2042.9</ele>
        <time>2017-08-15T13:59:34Z</time>
      </trkpt>
      <trkpt lat="42.782869" lon="-0.596456">
        <ele>2044.9</ele>
        <time>2017-08-15T13:59:55Z</time>
      </trkpt>
      <trkpt lat="42.782851" lon="-0.596511">
        <ele>2045.3</ele>
        <time>2017-08-15T14:00:11Z</time>
      </trkpt>
      <trkpt lat="42.782842" lon="-0.596579">
        <ele>2047.3</ele>
        <time>2017-08-15T14:00:32Z</time>
      </trkpt>
      <trkpt lat="42.782793" lon="-0.596722">
        <ele>2049.7</ele>
        <time>2017-08-15T14:00:34Z</time>
      </trkpt>
      <trkpt lat="42.782792" lon="-0.596734">
        <ele>2050.1</ele>
        <time>2017-08-15T14:00:46Z</time>
      </trkpt>
      <trkpt lat="42.782780" lon="-0.596828">
        <ele>2051.1</ele>
        <time>2017-08-15T14:00:51Z</time>
      </trkpt>
      <trkpt lat="42.782729" lon="-0.596884">
        <ele>2053.0</ele>
        <time>2017-08-15T14:00:55Z</time>
      </trkpt>
      <trkpt lat="42.782681" lon="-0.596942">
        <ele>2054.5</ele>
        <time>2017-08-15T14:01:04Z</time>
      </trkpt>
      <trkpt lat="42.782637" lon="-0.596982">
        <ele>2055.0</ele>
        <time>2017-08-15T14:01:09Z</time>
      </trkpt>
      <trkpt lat="42.782625" lon="-0.596997">
        <ele>2055.4</ele>
        <time>2017-08-15T14:01:20Z</time>
      </trkpt>
      <trkpt lat="42.782555" lon="-0.597024">
        <ele>2056.9</ele>
        <time>2017-08-15T14:01:23Z</time>
      </trkpt>
      <trkpt lat="42.782528" lon="-0.597074">
        <ele>2057.4</ele>
        <time>2017-08-15T14:01:36Z</time>
      </trkpt>
      <trkpt lat="42.782462" lon="-0.597154">
        <ele>2059.3</ele>
        <time>2017-08-15T14:01:44Z</time>
      </trkpt>
      <trkpt lat="42.782430" lon="-0.597236">
        <ele>2062.2</ele>
        <time>2017-08-15T14:01:50Z</time>
      </trkpt>
      <trkpt lat="42.782371" lon="-0.597287">
        <ele>2064.1</ele>
        <time>2017-08-15T14:01:59Z</time>
      </trkpt>
      <trkpt lat="42.782328" lon="-0.597409">
        <ele>2066.0</ele>
        <time>2017-08-15T14:02:06Z</time>
      </trkpt>
      <trkpt lat="42.782294" lon="-0.597462">
        <ele>2067.4</ele>
        <time>2017-08-15T14:02:09Z</time>
      </trkpt>
      <trkpt lat="42.782255" lon="-0.597512">
        <ele>2071.8</ele>
        <time>2017-08-15T14:02:11Z</time>
      </trkpt>
      <trkpt lat="42.782247" lon="-0.597515">
        <ele>2072.7</ele>
        <time>2017-08-15T14:02:14Z</time>
      </trkpt>
      <trkpt lat="42.782138" lon="-0.597619">
        <ele>2071.8</ele>
        <time>2017-08-15T14:02:17Z</time>
      </trkpt>
      <trkpt lat="42.782108" lon="-0.597654">
        <ele>2071.8</ele>
        <time>2017-08-15T14:02:21Z</time>
      </trkpt>
      <trkpt lat="42.782108" lon="-0.597654">
        <ele>2073.2</ele>
        <time>2017-08-15T14:02:28Z</time>
      </trkpt>
      <trkpt lat="42.782102" lon="-0.597650">
        <ele>2073.2</ele>
        <time>2017-08-15T14:02:32Z</time>
      </trkpt>
      <trkpt lat="42.782104" lon="-0.597652">
        <ele>2073.2</ele>
        <time>2017-08-15T14:02:36Z</time>
      </trkpt>
      <trkpt lat="42.782108" lon="-0.597655">
        <ele>2073.2</ele>
        <time>2017-08-15T14:02:43Z</time>
      </trkpt>
      <trkpt lat="42.782108" lon="-0.597655">
        <ele>2071.8</ele>
        <time>2017-08-15T14:02:45Z</time>
      </trkpt>
      <trkpt lat="42.782097" lon="-0.597659">
        <ele>2071.8</ele>
        <time>2017-08-15T14:02:49Z</time>
      </trkpt>
      <trkpt lat="42.782007" lon="-0.597808">
        <ele>2071.8</ele>
        <time>2017-08-15T14:02:56Z</time>
      </trkpt>
      <trkpt lat="42.782010" lon="-0.597891">
        <ele>2072.7</ele>
        <time>2017-08-15T14:03:02Z</time>
      </trkpt>
      <trkpt lat="42.781992" lon="-0.597916">
        <ele>2073.2</ele>
        <time>2017-08-15T14:03:08Z</time>
      </trkpt>
      <trkpt lat="42.781986" lon="-0.598020">
        <ele>2074.2</ele>
        <time>2017-08-15T14:03:15Z</time>
      </trkpt>
      <trkpt lat="42.781977" lon="-0.598084">
        <ele>2075.6</ele>
        <time>2017-08-15T14:03:23Z</time>
      </trkpt>
      <trkpt lat="42.781944" lon="-0.598213">
        <ele>2077.1</ele>
        <time>2017-08-15T14:05:04Z</time>
      </trkpt>
      <trkpt lat="42.781924" lon="-0.598246">
        <ele>2078.0</ele>
        <time>2017-08-15T14:05:18Z</time>
      </trkpt>
      <trkpt lat="42.781884" lon="-0.598390">
        <ele>2080.4</ele>
        <time>2017-08-15T14:05:25Z</time>
      </trkpt>
      <trkpt lat="42.781864" lon="-0.598490">
        <ele>2081.9</ele>
        <time>2017-08-15T14:05:44Z</time>
      </trkpt>
      <trkpt lat="42.781860" lon="-0.598555">
        <ele>2082.8</ele>
        <time>2017-08-15T14:05:45Z</time>
      </trkpt>
      <trkpt lat="42.781854" lon="-0.598628">
        <ele>2084.8</ele>
        <time>2017-08-15T14:05:50Z</time>
      </trkpt>
      <trkpt lat="42.781883" lon="-0.598674">
        <ele>2086.7</ele>
        <time>2017-08-15T14:05:59Z</time>
      </trkpt>
      <trkpt lat="42.781877" lon="-0.598696">
        <ele>2089.1</ele>
        <time>2017-08-15T14:06:05Z</time>
      </trkpt>
      <trkpt lat="42.781875" lon="-0.598722">
        <ele>2090.5</ele>
        <time>2017-08-15T14:06:12Z</time>
      </trkpt>
      <trkpt lat="42.781868" lon="-0.598750">
        <ele>2091.5</ele>
        <time>2017-08-15T14:09:00Z</time>
      </trkpt>
      <trkpt lat="42.781877" lon="-0.598788">
        <ele>2092.4</ele>
        <time>2017-08-15T14:09:13Z</time>
      </trkpt>
      <trkpt lat="42.781896" lon="-0.598823">
        <ele>2092.4</ele>
        <time>2017-08-15T14:09:19Z</time>
      </trkpt>
      <trkpt lat="42.781907" lon="-0.598869">
        <ele>2092.4</ele>
        <time>2017-08-15T14:09:21Z</time>
      </trkpt>
      <trkpt lat="42.781917" lon="-0.598908">
        <ele>2092.9</ele>
        <time>2017-08-15T14:09:33Z</time>
      </trkpt>
      <trkpt lat="42.781924" lon="-0.598966">
        <ele>2093.9</ele>
        <time>2017-08-15T14:09:35Z</time>
      </trkpt>
      <trkpt lat="42.781939" lon="-0.599052">
        <ele>2093.9</ele>
        <time>2017-08-15T14:09:41Z</time>
      </trkpt>
      <trkpt lat="42.781940" lon="-0.599080">
        <ele>2094.9</ele>
        <time>2017-08-15T14:09:46Z</time>
      </trkpt>
      <trkpt lat="42.781921" lon="-0.599126">
        <ele>2095.3</ele>
        <time>2017-08-15T14:09:49Z</time>
      </trkpt>
      <trkpt lat="42.781901" lon="-0.599214">
        <ele>2096.8</ele>
        <time>2017-08-15T14:09:50Z</time>
      </trkpt>
      <trkpt lat="42.781903" lon="-0.599300">
        <ele>2097.7</ele>
        <time>2017-08-15T14:09:55Z</time>
      </trkpt>
      <trkpt lat="42.781899" lon="-0.599398">
        <ele>2098.2</ele>
        <time>2017-08-15T14:10:03Z</time>
      </trkpt>
      <trkpt lat="42.781867" lon="-0.599507">
        <ele>2098.7</ele>
        <time>2017-08-15T14:10:08Z</time>
      </trkpt>
      <trkpt lat="42.781844" lon="-0.599637">
        <ele>2099.2</ele>
        <time>2017-08-15T14:10:21Z</time>
      </trkpt>
      <trkpt lat="42.781873" lon="-0.599735">
        <ele>2100.6</ele>
        <time>2017-08-15T14:10:29Z</time>
      </trkpt>
      <trkpt lat="42.781873" lon="-0.599747">
        <ele>2101.6</ele>
        <time>2017-08-15T14:10:42Z</time>
      </trkpt>
      <trkpt lat="42.781891" lon="-0.599854">
        <ele>2101.6</ele>
        <time>2017-08-15T14:10:43Z</time>
      </trkpt>
      <trkpt lat="42.781948" lon="-0.600162">
        <ele>2100.6</ele>
        <time>2017-08-15T14:10:50Z</time>
      </trkpt>
      <trkpt lat="42.781952" lon="-0.600176">
        <ele>2100.6</ele>
        <time>2017-08-15T14:11:02Z</time>
      </trkpt>
      <trkpt lat="42.781961" lon="-0.600242">
        <ele>2103.5</ele>
        <time>2017-08-15T14:11:21Z</time>
      </trkpt>
      <trkpt lat="42.782035" lon="-0.600359">
        <ele>2100.1</ele>
        <time>2017-08-15T14:11:22Z</time>
      </trkpt>
      <trkpt lat="42.782099" lon="-0.600468">
        <ele>2097.2</ele>
        <time>2017-08-15T14:11:32Z</time>
      </trkpt>
      <trkpt lat="42.782134" lon="-0.600525">
        <ele>2097.7</ele>
        <time>2017-08-15T14:11:39Z</time>
      </trkpt>
      <trkpt lat="42.782149" lon="-0.600561">
        <ele>2099.7</ele>
        <time>2017-08-15T14:11:52Z</time>
      </trkpt>
      <trkpt lat="42.782295" lon="-0.600716">
        <ele>2101.1</ele>
        <time>2017-08-15T14:12:07Z</time>
      </trkpt>
      <trkpt lat="42.782365" lon="-0.600810">
        <ele>2101.6</ele>
        <time>2017-08-15T14:12:16Z</time>
      </trkpt>
      <trkpt lat="42.782387" lon="-0.600835">
        <ele>2101.6</ele>
        <time>2017-08-15T14:12:38Z</time>
      </trkpt>
      <trkpt lat="42.782494" lon="-0.600996">
        <ele>2101.6</ele>
        <time>2017-08-15T14:12:42Z</time>
      </trkpt>
      <trkpt lat="42.782505" lon="-0.601028">
        <ele>2102.1</ele>
        <time>2017-08-15T14:12:44Z</time>
      </trkpt>
      <trkpt lat="42.782523" lon="-0.601143">
        <ele>2102.1</ele>
        <time>2017-08-15T14:12:50Z</time>
      </trkpt>
      <trkpt lat="42.782553" lon="-0.601208">
        <ele>2100.1</ele>
        <time>2017-08-15T14:12:53Z</time>
      </trkpt>
      <trkpt lat="42.782555" lon="-0.601255">
        <ele>2099.2</ele>
        <time>2017-08-15T14:13:03Z</time>
      </trkpt>
      <trkpt lat="42.782557" lon="-0.601270">
        <ele>2099.2</ele>
        <time>2017-08-15T14:13:16Z</time>
      </trkpt>
      <trkpt lat="42.782569" lon="-0.601355">
        <ele>2099.2</ele>
        <time>2017-08-15T14:13:31Z</time>
      </trkpt>
      <trkpt lat="42.782550" lon="-0.601498">
        <ele>2098.2</ele>
        <time>2017-08-15T14:13:39Z</time>
      </trkpt>
      <trkpt lat="42.782524" lon="-0.601583">
        <ele>2093.4</ele>
        <time>2017-08-15T14:13:47Z</time>
      </trkpt>
      <trkpt lat="42.782495" lon="-0.601744">
        <ele>2090.5</ele>
        <time>2017-08-15T14:13:53Z</time>
      </trkpt>
      <trkpt lat="42.782530" lon="-0.601849">
        <ele>2090.5</ele>
        <time>2017-08-15T14:14:01Z</time>
      </trkpt>
      <trkpt lat="42.782579" lon="-0.602078">
        <ele>2090.0</ele>
        <time>2017-08-15T14:14:05Z</time>
      </trkpt>
      <trkpt lat="42.782584" lon="-0.602104">
        <ele>2090.0</ele>
        <time>2017-08-15T14:14:16Z</time>
      </trkpt>
      <trkpt lat="42.782617" lon="-0.602216">
        <ele>2090.0</ele>
        <time>2017-08-15T14:14:28Z</time>
      </trkpt>
      <trkpt lat="42.782599" lon="-0.602361">
        <ele>2091.0</ele>
        <time>2017-08-15T14:14:42Z</time>
      </trkpt>
      <trkpt lat="42.782600" lon="-0.602354">
        <ele>2091.5</ele>
        <time>2017-08-15T14:14:47Z</time>
      </trkpt>
      <trkpt lat="42.782597" lon="-0.602366">
        <ele>2091.5</ele>
        <time>2017-08-15T14:14:59Z</time>
      </trkpt>
      <trkpt lat="42.782595" lon="-0.602527">
        <ele>2090.0</ele>
        <time>2017-08-15T14:15:08Z</time>
      </trkpt>
      <trkpt lat="42.782555" lon="-0.602645">
        <ele>2089.1</ele>
        <time>2017-08-15T14:15:13Z</time>
      </trkpt>
      <trkpt lat="42.782548" lon="-0.602873">
        <ele>2088.6</ele>
        <time>2017-08-15T14:15:20Z</time>
      </trkpt>
      <trkpt lat="42.782570" lon="-0.603130">
        <ele>2088.6</ele>
        <time>2017-08-15T14:15:31Z</time>
      </trkpt>
      <trkpt lat="42.782605" lon="-0.603290">
        <ele>2088.6</ele>
        <time>2017-08-15T14:15:47Z</time>
      </trkpt>
      <trkpt lat="42.782618" lon="-0.603522">
        <ele>2080.4</ele>
        <time>2017-08-15T14:15:48Z</time>
      </trkpt>
      <trkpt lat="42.782590" lon="-0.603553">
        <ele>2079.5</ele>
        <time>2017-08-15T14:16:01Z</time>
      </trkpt>
      <trkpt lat="42.782582" lon="-0.603602">
        <ele>2079.0</ele>
        <time>2017-08-15T14:16:08Z</time>
      </trkpt>
      <trkpt lat="42.782585" lon="-0.603702">
        <ele>2080.4</ele>
        <time>2017-08-15T14:16:27Z</time>
      </trkpt>
      <trkpt lat="42.782596" lon="-0.603741">
        <ele>2080.4</ele>
        <time>2017-08-15T14:16:36Z</time>
      </trkpt>
      <trkpt lat="42.782626" lon="-0.603937">
        <ele>2080.4</ele>
        <time>2017-08-15T14:16:50Z</time>
      </trkpt>
      <trkpt lat="42.782676" lon="-0.604164">
        <ele>2080.4</ele>
        <time>2017-08-15T14:17:02Z</time>
      </trkpt>
      <trkpt lat="42.782742" lon="-0.604379">
        <ele>2079.5</ele>
        <time>2017-08-15T14:17:06Z</time>
      </trkpt>
      <trkpt lat="42.782725" lon="-0.604537">
        <ele>2078.5</ele>
        <time>2017-08-15T14:17:08Z</time>
      </trkpt>
      <trkpt lat="42.782746" lon="-0.604681">
        <ele>2077.1</ele>
        <time>2017-08-15T14:17:18Z</time>
      </trkpt>
      <trkpt lat="42.782783" lon="-0.604765">
        <ele>2073.7</ele>
        <time>2017-08-15T14:17:23Z</time>
      </trkpt>
      <trkpt lat="42.782860" lon="-0.604868">
        <ele>2070.8</ele>
        <time>2017-08-15T14:17:28Z</time>
      </trkpt>
      <trkpt lat="42.782904" lon="-0.604924">
        <ele>2070.8</ele>
        <time>2017-08-15T14:17:49Z</time>
      </trkpt>
      <trkpt lat="42.782909" lon="-0.605110">
        <ele>2070.8</ele>
        <time>2017-08-15T14:17:58Z</time>
      </trkpt>
      <trkpt lat="42.782926" lon="-0.605171">
        <ele>2069.9</ele>
        <time>2017-08-15T14:18:04Z</time>
      </trkpt>
      <trkpt lat="42.782951" lon="-0.605238">
        <ele>2069.4</ele>
        <time>2017-08-15T14:18:07Z</time>
      </trkpt>
      <trkpt lat="42.782983" lon="-0.605288">
        <ele>2069.4</ele>
        <time>2017-08-15T14:18:12Z</time>
      </trkpt>
      <trkpt lat="42.783060" lon="-0.605377">
        <ele>2069.4</ele>
        <time>2017-08-15T14:18:19Z</time>
      </trkpt>
      <trkpt lat="42.783124" lon="-0.605458">
        <ele>2069.4</ele>
        <time>2017-08-15T14:18:33Z</time>
      </trkpt>
      <trkpt lat="42.783158" lon="-0.605530">
        <ele>2070.8</ele>
        <time>2017-08-15T14:18:35Z</time>
      </trkpt>
      <trkpt lat="42.783215" lon="-0.605637">
        <ele>2073.7</ele>
        <time>2017-08-15T14:18:51Z</time>
      </trkpt>
      <trkpt lat="42.783264" lon="-0.605858">
        <ele>2069.9</ele>
        <time>2017-08-15T14:19:01Z</time>
      </trkpt>
      <trkpt lat="42.783287" lon="-0.606118">
        <ele>2070.8</ele>
        <time>2017-08-15T14:19:07Z</time>
      </trkpt>
      <trkpt lat="42.783287" lon="-0.606133">
        <ele>2070.3</ele>
        <time>2017-08-15T14:19:12Z</time>
      </trkpt>
      <trkpt lat="42.783248" lon="-0.606408">
        <ele>2067.9</ele>
        <time>2017-08-15T14:19:17Z</time>
      </trkpt>
      <trkpt lat="42.783252" lon="-0.606543">
        <ele>2064.6</ele>
        <time>2017-08-15T14:19:22Z</time>
      </trkpt>
      <trkpt lat="42.783309" lon="-0.606872">
        <ele>2062.6</ele>
        <time>2017-08-15T14:19:34Z</time>
      </trkpt>
      <trkpt lat="42.783287" lon="-0.607030">
        <ele>2061.2</ele>
        <time>2017-08-15T14:19:37Z</time>
      </trkpt>
      <trkpt lat="42.783301" lon="-0.607138">
        <ele>2060.2</ele>
        <time>2017-08-15T14:19:50Z</time>
      </trkpt>
      <trkpt lat="42.783309" lon="-0.607267">
        <ele>2057.4</ele>
        <time>2017-08-15T14:19:54Z</time>
      </trkpt>
      <trkpt lat="42.783314" lon="-0.607318">
        <ele>2054.0</ele>
        <time>2017-08-15T14:20:00Z</time>
      </trkpt>
      <trkpt lat="42.783309" lon="-0.607346">
        <ele>2052.6</ele>
        <time>2017-08-15T14:20:14Z</time>
      </trkpt>
      <trkpt lat="42.783314" lon="-0.607484">
        <ele>2051.6</ele>
        <time>2017-08-15T14:20:16Z</time>
      </trkpt>
      <trkpt lat="42.783321" lon="-0.607519">
        <ele>2051.6</ele>
        <time>2017-08-15T14:20:19Z</time>
      </trkpt>
      <trkpt lat="42.783324" lon="-0.607569">
        <ele>2051.1</ele>
        <time>2017-08-15T14:20:22Z</time>
      </trkpt>
      <trkpt lat="42.783341" lon="-0.607629">
        <ele>2049.2</ele>
        <time>2017-08-15T14:20:41Z</time>
      </trkpt>
      <trkpt lat="42.783333" lon="-0.607697">
        <ele>2047.3</ele>
        <time>2017-08-15T14:20:50Z</time>
      </trkpt>
      <trkpt lat="42.783355" lon="-0.607796">
        <ele>2044.4</ele>
        <time>2017-08-15T14:21:04Z</time>
      </trkpt>
      <trkpt lat="42.783374" lon="-0.607845">
        <ele>2042.0</ele>
        <time>2017-08-15T14:21:16Z</time>
      </trkpt>
      <trkpt lat="42.783378" lon="-0.607909">
        <ele>2039.6</ele>
        <time>2017-08-15T14:21:20Z</time>
      </trkpt>
      <trkpt lat="42.783416" lon="-0.607997">
        <ele>2040.1</ele>
        <time>2017-08-15T14:21:28Z</time>
      </trkpt>
      <trkpt lat="42.783436" lon="-0.608259">
        <ele>2038.1</ele>
        <time>2017-08-15T14:21:38Z</time>
      </trkpt>
      <trkpt lat="42.783450" lon="-0.608290">
        <ele>2037.7</ele>
        <time>2017-08-15T14:21:44Z</time>
      </trkpt>
      <trkpt lat="42.783475" lon="-0.608584">
        <ele>2034.8</ele>
        <time>2017-08-15T14:21:49Z</time>
      </trkpt>
      <trkpt lat="42.783481" lon="-0.608747">
        <ele>2033.3</ele>
        <time>2017-08-15T14:22:03Z</time>
      </trkpt>
      <trkpt lat="42.783497" lon="-0.608842">
        <ele>2029.0</ele>
        <time>2017-08-15T14:22:16Z</time>
      </trkpt>
      <trkpt lat="42.783492" lon="-0.608932">
        <ele>2027.6</ele>
        <time>2017-08-15T14:22:32Z</time>
      </trkpt>
      <trkpt lat="42.783473" lon="-0.609021">
        <ele>2027.6</ele>
        <time>2017-08-15T14:22:33Z</time>
      </trkpt>
      <trkpt lat="42.783507" lon="-0.609121">
        <ele>2027.1</ele>
        <time>2017-08-15T14:22:46Z</time>
      </trkpt>
      <trkpt lat="42.783596" lon="-0.609310">
        <ele>2026.1</ele>
        <time>2017-08-15T14:22:57Z</time>
      </trkpt>
      <trkpt lat="42.783612" lon="-0.609361">
        <ele>2025.2</ele>
        <time>2017-08-15T14:23:01Z</time>
      </trkpt>
      <trkpt lat="42.783650" lon="-0.609580">
        <ele>2022.3</ele>
        <time>2017-08-15T14:23:06Z</time>
      </trkpt>
      <trkpt lat="42.783654" lon="-0.609644">
        <ele>2018.9</ele>
        <time>2017-08-15T14:23:13Z</time>
      </trkpt>
      <trkpt lat="42.783659" lon="-0.609715">
        <ele>2015.5</ele>
        <time>2017-08-15T14:23:20Z</time>
      </trkpt>
      <trkpt lat="42.783673" lon="-0.609747">
        <ele>2016.0</ele>
        <time>2017-08-15T14:23:29Z</time>
      </trkpt>
      <trkpt lat="42.783665" lon="-0.609759">
        <ele>2016.0</ele>
        <time>2017-08-15T14:23:36Z</time>
      </trkpt>
      <trkpt lat="42.783685" lon="-0.609795">
        <ele>2016.0</ele>
        <time>2017-08-15T14:23:46Z</time>
      </trkpt>
      <trkpt lat="42.783711" lon="-0.609817">
        <ele>2016.0</ele>
        <time>2017-08-15T14:23:51Z</time>
      </trkpt>
      <trkpt lat="42.783849" lon="-0.610062">
        <ele>2015.5</ele>
        <time>2017-08-15T14:24:01Z</time>
      </trkpt>
      <trkpt lat="42.783940" lon="-0.610173">
        <ele>2015.1</ele>
        <time>2017-08-15T14:24:19Z</time>
      </trkpt>
      <trkpt lat="42.784080" lon="-0.610350">
        <ele>2016.5</ele>
        <time>2017-08-15T14:24:33Z</time>
      </trkpt>
      <trkpt lat="42.784126" lon="-0.610544">
        <ele>2015.1</ele>
        <time>2017-08-15T14:24:44Z</time>
      </trkpt>
      <trkpt lat="42.784160" lon="-0.610601">
        <ele>2014.6</ele>
        <time>2017-08-15T14:24:51Z</time>
      </trkpt>
      <trkpt lat="42.784201" lon="-0.610735">
        <ele>2013.1</ele>
        <time>2017-08-15T14:24:56Z</time>
      </trkpt>
      <trkpt lat="42.784249" lon="-0.610911">
        <ele>2010.2</ele>
        <time>2017-08-15T14:25:07Z</time>
      </trkpt>
      <trkpt lat="42.784277" lon="-0.611024">
        <ele>2006.4</ele>
        <time>2017-08-15T14:25:12Z</time>
      </trkpt>
      <trkpt lat="42.784298" lon="-0.611092">
        <ele>2005.4</ele>
        <time>2017-08-15T14:25:23Z</time>
      </trkpt>
      <trkpt lat="42.784400" lon="-0.611348">
        <ele>2005.0</ele>
        <time>2017-08-15T14:25:32Z</time>
      </trkpt>
      <trkpt lat="42.784497" lon="-0.611511">
        <ele>2004.5</ele>
        <time>2017-08-15T14:25:38Z</time>
      </trkpt>
      <trkpt lat="42.784506" lon="-0.611525">
        <ele>2003.5</ele>
        <time>2017-08-15T14:25:51Z</time>
      </trkpt>
      <trkpt lat="42.784506" lon="-0.611525">
        <ele>2003.5</ele>
        <time>2017-08-15T14:26:02Z</time>
      </trkpt>
      <trkpt lat="42.784562" lon="-0.611645">
        <ele>2002.6</ele>
        <time>2017-08-15T14:26:03Z</time>
      </trkpt>
      <trkpt lat="42.784693" lon="-0.611762">
        <ele>1999.2</ele>
        <time>2017-08-15T14:26:18Z</time>
      </trkpt>
      <trkpt lat="42.784712" lon="-0.611805">
        <ele>1996.3</ele>
        <time>2017-08-15T14:26:23Z</time>
      </trkpt>
      <trkpt lat="42.784756" lon="-0.611871">
        <ele>1995.8</ele>
        <time>2017-08-15T14:26:29Z</time>
      </trkpt>
      <trkpt lat="42.784823" lon="-0.611954">
        <ele>1995.8</ele>
        <time>2017-08-15T14:26:33Z</time>
      </trkpt>
      <trkpt lat="42.784850" lon="-0.612015">
        <ele>1995.8</ele>
        <time>2017-08-15T14:26:36Z</time>
      </trkpt>
      <trkpt lat="42.784831" lon="-0.612127">
        <ele>1994.9</ele>
        <time>2017-08-15T14:26:50Z</time>
      </trkpt>
      <trkpt lat="42.784808" lon="-0.612212">
        <ele>1993.9</ele>
        <time>2017-08-15T14:27:02Z</time>
      </trkpt>
      <trkpt lat="42.784734" lon="-0.612348">
        <ele>1992.5</ele>
        <time>2017-08-15T14:27:08Z</time>
      </trkpt>
      <trkpt lat="42.784737" lon="-0.612401">
        <ele>1991.5</ele>
        <time>2017-08-15T14:27:20Z</time>
      </trkpt>
      <trkpt lat="42.784775" lon="-0.612575">
        <ele>1991.5</ele>
        <time>2017-08-15T14:27:43Z</time>
      </trkpt>
      <trkpt lat="42.784826" lon="-0.612894">
        <ele>1990.6</ele>
        <time>2017-08-15T14:27:46Z</time>
      </trkpt>
      <trkpt lat="42.784870" lon="-0.613184">
        <ele>1990.1</ele>
        <time>2017-08-15T14:27:53Z</time>
      </trkpt>
      <trkpt lat="42.784914" lon="-0.613406">
        <ele>1989.6</ele>
        <time>2017-08-15T14:28:07Z</time>
      </trkpt>
      <trkpt lat="42.784944" lon="-0.613490">
        <ele>1989.6</ele>
        <time>2017-08-15T14:28:21Z</time>
      </trkpt>
      <trkpt lat="42.784940" lon="-0.613565">
        <ele>1989.6</ele>
        <time>2017-08-15T14:28:49Z</time>
      </trkpt>
      <trkpt lat="42.785036" lon="-0.613757">
        <ele>1985.7</ele>
        <time>2017-08-15T14:29:08Z</time>
      </trkpt>
      <trkpt lat="42.785055" lon="-0.613835">
        <ele>1982.4</ele>
        <time>2017-08-15T14:29:14Z</time>
      </trkpt>
      <trkpt lat="42.785093" lon="-0.614000">
        <ele>1980.9</ele>
        <time>2017-08-15T14:29:20Z</time>
      </trkpt>
      <trkpt lat="42.785057" lon="-0.614098">
        <ele>1980.0</ele>
        <time>2017-08-15T14:29:32Z</time>
      </trkpt>
      <trkpt lat="42.785010" lon="-0.614157">
        <ele>1979.5</ele>
        <time>2017-08-15T14:29:40Z</time>
      </trkpt>
      <trkpt lat="42.784903" lon="-0.614361">
        <ele>1978.1</ele>
        <time>2017-08-15T14:29:48Z</time>
      </trkpt>
      <trkpt lat="42.784865" lon="-0.614491">
        <ele>1977.6</ele>
        <time>2017-08-15T14:30:01Z</time>
      </trkpt>
      <trkpt lat="42.784859" lon="-0.614511">
        <ele>1977.6</ele>
        <time>2017-08-15T14:30:13Z</time>
      </trkpt>
      <trkpt lat="42.784855" lon="-0.614538">
        <ele>1977.6</ele>
        <time>2017-08-15T14:30:20Z</time>
      </trkpt>
      <trkpt lat="42.784808" lon="-0.614582">
        <ele>1977.6</ele>
        <time>2017-08-15T14:30:22Z</time>
      </trkpt>
      <trkpt lat="42.784787" lon="-0.614652">
        <ele>1978.5</ele>
        <time>2017-08-15T14:30:26Z</time>
      </trkpt>
      <trkpt lat="42.784776" lon="-0.614698">
        <ele>1978.5</ele>
        <time>2017-08-15T14:30:31Z</time>
      </trkpt>
      <trkpt lat="42.784774" lon="-0.614744">
        <ele>1979.5</ele>
        <time>2017-08-15T14:30:35Z</time>
      </trkpt>
      <trkpt lat="42.784789" lon="-0.614973">
        <ele>1981.9</ele>
        <time>2017-08-15T14:30:46Z</time>
      </trkpt>
      <trkpt lat="42.784795" lon="-0.615147">
        <ele>1978.1</ele>
        <time>2017-08-15T14:30:57Z</time>
      </trkpt>
      <trkpt lat="42.784749" lon="-0.615200">
        <ele>1975.2</ele>
        <time>2017-08-15T14:31:09Z</time>
      </trkpt>
      <trkpt lat="42.784749" lon="-0.615231">
        <ele>1976.6</ele>
        <time>2017-08-15T14:31:20Z</time>
      </trkpt>
      <trkpt lat="42.784724" lon="-0.615252">
        <ele>1977.1</ele>
        <time>2017-08-15T14:31:22Z</time>
      </trkpt>
      <trkpt lat="42.784707" lon="-0.615273">
        <ele>1977.1</ele>
        <time>2017-08-15T14:31:29Z</time>
      </trkpt>
      <trkpt lat="42.784707" lon="-0.615329">
        <ele>1974.7</ele>
        <time>2017-08-15T14:31:40Z</time>
      </trkpt>
      <trkpt lat="42.784706" lon="-0.615339">
        <ele>1973.2</ele>
        <time>2017-08-15T14:31:51Z</time>
      </trkpt>
      <trkpt lat="42.784700" lon="-0.615348">
        <ele>1973.2</ele>
        <time>2017-08-15T14:31:52Z</time>
      </trkpt>
      <trkpt lat="42.784700" lon="-0.615348">
        <ele>1973.2</ele>
        <time>2017-08-15T14:32:05Z</time>
      </trkpt>
      <trkpt lat="42.784695" lon="-0.615355">
        <ele>1972.8</ele>
        <time>2017-08-15T14:32:14Z</time>
      </trkpt>
      <trkpt lat="42.784683" lon="-0.615379">
        <ele>1972.8</ele>
        <time>2017-08-15T14:32:28Z</time>
      </trkpt>
      <trkpt lat="42.784633" lon="-0.615432">
        <ele>1972.8</ele>
        <time>2017-08-15T14:36:52Z</time>
      </trkpt>
      <trkpt lat="42.784478" lon="-0.615511">
        <ele>1972.8</ele>
        <time>2017-08-15T14:36:54Z</time>
      </trkpt>
      <trkpt lat="42.784405" lon="-0.615582">
        <ele>1972.3</ele>
        <time>2017-08-15T14:37:01Z</time>
      </trkpt>
      <trkpt lat="42.784333" lon="-0.615610">
        <ele>1972.3</ele>
        <time>2017-08-15T14:37:11Z</time>
      </trkpt>
      <trkpt lat="42.784219" lon="-0.615687">
        <ele>1972.3</ele>
        <time>2017-08-15T14:37:14Z</time>
      </trkpt>
      <trkpt lat="42.784120" lon="-0.615832">
        <ele>1971.3</ele>
        <time>2017-08-15T14:37:18Z</time>
      </trkpt>
      <trkpt lat="42.784070" lon="-0.615893">
        <ele>1971.3</ele>
        <time>2017-08-15T14:37:28Z</time>
      </trkpt>
      <trkpt lat="42.784052" lon="-0.615912">
        <ele>1971.3</ele>
        <time>2017-08-15T14:37:29Z</time>
      </trkpt>
      <trkpt lat="42.783999" lon="-0.615932">
        <ele>1970.8</ele>
        <time>2017-08-15T14:37:34Z</time>
      </trkpt>
      <trkpt lat="42.783943" lon="-0.616005">
        <ele>1969.9</ele>
        <time>2017-08-15T14:37:44Z</time>
      </trkpt>
      <trkpt lat="42.783917" lon="-0.616045">
        <ele>1969.9</ele>
        <time>2017-08-15T14:37:47Z</time>
      </trkpt>
      <trkpt lat="42.783846" lon="-0.616107">
        <ele>1969.4</ele>
        <time>2017-08-15T14:37:57Z</time>
      </trkpt>
      <trkpt lat="42.783789" lon="-0.616144">
        <ele>1968.0</ele>
        <time>2017-08-15T14:38:00Z</time>
      </trkpt>
      <trkpt lat="42.783686" lon="-0.616170">
        <ele>1966.5</ele>
        <time>2017-08-15T14:38:04Z</time>
      </trkpt>
      <trkpt lat="42.783618" lon="-0.616244">
        <ele>1965.6</ele>
        <time>2017-08-15T14:38:09Z</time>
      </trkpt>
      <trkpt lat="42.783599" lon="-0.616254">
        <ele>1965.6</ele>
        <time>2017-08-15T14:38:20Z</time>
      </trkpt>
      <trkpt lat="42.783508" lon="-0.616294">
        <ele>1965.6</ele>
        <time>2017-08-15T14:38:32Z</time>
      </trkpt>
      <trkpt lat="42.783424" lon="-0.616448">
        <ele>1963.6</ele>
        <time>2017-08-15T14:38:37Z</time>
      </trkpt>
      <trkpt lat="42.783341" lon="-0.616549">
        <ele>1962.7</ele>
        <time>2017-08-15T14:38:49Z</time>
      </trkpt>
      <trkpt lat="42.783342" lon="-0.616547">
        <ele>1962.7</ele>
        <time>2017-08-15T14:38:52Z</time>
      </trkpt>
      <trkpt lat="42.783268" lon="-0.616727">
        <ele>1961.7</ele>
        <time>2017-08-15T14:39:04Z</time>
      </trkpt>
      <trkpt lat="42.783203" lon="-0.616841">
        <ele>1961.7</ele>
        <time>2017-08-15T14:39:08Z</time>
      </trkpt>
      <trkpt lat="42.783212" lon="-0.616882">
        <ele>1961.7</ele>
        <time>2017-08-15T14:39:15Z</time>
      </trkpt>
      <trkpt lat="42.783213" lon="-0.616929">
        <ele>1961.7</ele>
        <time>2017-08-15T14:39:19Z</time>
      </trkpt>
      <trkpt lat="42.783218" lon="-0.616956">
        <ele>1961.7</ele>
        <time>2017-08-15T14:39:21Z</time>
      </trkpt>
      <trkpt lat="42.783239" lon="-0.617022">
        <ele>1961.7</ele>
        <time>2017-08-15T14:39:30Z</time>
      </trkpt>
      <trkpt lat="42.783137" lon="-0.617067">
        <ele>1960.8</ele>
        <time>2017-08-15T14:39:35Z</time>
      </trkpt>
      <trkpt lat="42.783110" lon="-0.617045">
        <ele>1960.3</ele>
        <time>2017-08-15T14:39:39Z</time>
      </trkpt>
      <trkpt lat="42.783082" lon="-0.617068">
        <ele>1959.3</ele>
        <time>2017-08-15T14:39:50Z</time>
      </trkpt>
      <trkpt lat="42.783055" lon="-0.617243">
        <ele>1957.4</ele>
        <time>2017-08-15T14:39:52Z</time>
      </trkpt>
      <trkpt lat="42.783052" lon="-0.617245">
        <ele>1957.4</ele>
        <time>2017-08-15T14:39:59Z</time>
      </trkpt>
      <trkpt lat="42.783000" lon="-0.617274">
        <ele>1956.9</ele>
        <time>2017-08-15T14:40:05Z</time>
      </trkpt>
      <trkpt lat="42.782931" lon="-0.617335">
        <ele>1955.0</ele>
        <time>2017-08-15T14:40:14Z</time>
      </trkpt>
      <trkpt lat="42.782904" lon="-0.617339">
        <ele>1954.0</ele>
        <time>2017-08-15T14:40:28Z</time>
      </trkpt>
      <trkpt lat="42.782820" lon="-0.617375">
        <ele>1951.1</ele>
        <time>2017-08-15T14:40:30Z</time>
      </trkpt>
      <trkpt lat="42.782793" lon="-0.617392">
        <ele>1948.2</ele>
        <time>2017-08-15T14:40:42Z</time>
      </trkpt>
      <trkpt lat="42.782753" lon="-0.617417">
        <ele>1945.8</ele>
        <time>2017-08-15T14:40:48Z</time>
      </trkpt>
      <trkpt lat="42.782705" lon="-0.617420">
        <ele>1945.8</ele>
        <time>2017-08-15T14:40:53Z</time>
      </trkpt>
      <trkpt lat="42.782558" lon="-0.617385">
        <ele>1945.8</ele>
        <time>2017-08-15T14:40:56Z</time>
      </trkpt>
      <trkpt lat="42.782418" lon="-0.617458">
        <ele>1944.4</ele>
        <time>2017-08-15T14:41:06Z</time>
      </trkpt>
      <trkpt lat="42.782391" lon="-0.617516">
        <ele>1943.9</ele>
        <time>2017-08-15T14:41:08Z</time>
      </trkpt>
      <trkpt lat="42.782298" lon="-0.617689">
        <ele>1942.0</ele>
        <time>2017-08-15T14:41:12Z</time>
      </trkpt>
      <trkpt lat="42.782284" lon="-0.617742">
        <ele>1942.0</ele>
        <time>2017-08-15T14:41:23Z</time>
      </trkpt>
      <trkpt lat="42.782256" lon="-0.617913">
        <ele>1941.5</ele>
        <time>2017-08-15T14:41:30Z</time>
      </trkpt>
      <trkpt lat="42.782233" lon="-0.617946">
        <ele>1940.6</ele>
        <time>2017-08-15T14:41:32Z</time>
      </trkpt>
      <trkpt lat="42.782175" lon="-0.617983">
        <ele>1939.6</ele>
        <time>2017-08-15T14:41:40Z</time>
      </trkpt>
      <trkpt lat="42.782135" lon="-0.618023">
        <ele>1939.1</ele>
        <time>2017-08-15T14:41:42Z</time>
      </trkpt>
      <trkpt lat="42.782119" lon="-0.618056">
        <ele>1938.2</ele>
        <time>2017-08-15T14:41:50Z</time>
      </trkpt>
      <trkpt lat="42.782032" lon="-0.618098">
        <ele>1937.2</ele>
        <time>2017-08-15T14:41:52Z</time>
      </trkpt>
      <trkpt lat="42.781974" lon="-0.618155">
        <ele>1936.2</ele>
        <time>2017-08-15T14:41:54Z</time>
      </trkpt>
      <trkpt lat="42.781933" lon="-0.618184">
        <ele>1935.8</ele>
        <time>2017-08-15T14:41:59Z</time>
      </trkpt>
      <trkpt lat="42.781836" lon="-0.618225">
        <ele>1933.8</ele>
        <time>2017-08-15T14:42:09Z</time>
      </trkpt>
      <trkpt lat="42.781836" lon="-0.618225">
        <ele>1933.3</ele>
        <time>2017-08-15T14:42:21Z</time>
      </trkpt>
      <trkpt lat="42.781865" lon="-0.618104">
        <ele>1931.9</ele>
        <time>2017-08-15T14:42:31Z</time>
      </trkpt>
      <trkpt lat="42.781912" lon="-0.618003">
        <ele>1930.5</ele>
        <time>2017-08-15T14:42:38Z</time>
      </trkpt>
      <trkpt lat="42.781945" lon="-0.617822">
        <ele>1928.5</ele>
        <time>2017-08-15T14:42:41Z</time>
      </trkpt>
      <trkpt lat="42.781929" lon="-0.617539">
        <ele>1926.1</ele>
        <time>2017-08-15T14:42:52Z</time>
      </trkpt>
      <trkpt lat="42.781925" lon="-0.617502">
        <ele>1925.2</ele>
        <time>2017-08-15T14:42:59Z</time>
      </trkpt>
      <trkpt lat="42.781890" lon="-0.617306">
        <ele>1924.2</ele>
        <time>2017-08-15T14:43:01Z</time>
      </trkpt>
      <trkpt lat="42.781876" lon="-0.617226">
        <ele>1924.2</ele>
        <time>2017-08-15T14:43:13Z</time>
      </trkpt>
      <trkpt lat="42.781866" lon="-0.617133">
        <ele>1924.2</ele>
        <time>2017-08-15T14:43:26Z</time>
      </trkpt>
      <trkpt lat="42.781857" lon="-0.617086">
        <ele>1923.7</ele>
        <time>2017-08-15T14:43:28Z</time>
      </trkpt>
      <trkpt lat="42.781835" lon="-0.616967">
        <ele>1921.3</ele>
        <time>2017-08-15T14:43:30Z</time>
      </trkpt>
      <trkpt lat="42.781813" lon="-0.616978">
        <ele>1921.3</ele>
        <time>2017-08-15T14:43:37Z</time>
      </trkpt>
      <trkpt lat="42.781781" lon="-0.616964">
        <ele>1920.8</ele>
        <time>2017-08-15T14:43:40Z</time>
      </trkpt>
      <trkpt lat="42.781771" lon="-0.616885">
        <ele>1918.4</ele>
        <time>2017-08-15T14:43:48Z</time>
      </trkpt>
      <trkpt lat="42.781739" lon="-0.616914">
        <ele>1917.5</ele>
        <time>2017-08-15T14:43:55Z</time>
      </trkpt>
      <trkpt lat="42.781729" lon="-0.616931">
        <ele>1917.0</ele>
        <time>2017-08-15T14:44:06Z</time>
      </trkpt>
      <trkpt lat="42.781672" lon="-0.616980">
        <ele>1915.1</ele>
        <time>2017-08-15T14:44:07Z</time>
      </trkpt>
      <trkpt lat="42.781653" lon="-0.616991">
        <ele>1914.6</ele>
        <time>2017-08-15T14:44:18Z</time>
      </trkpt>
      <trkpt lat="42.781561" lon="-0.617036">
        <ele>1913.2</ele>
        <time>2017-08-15T14:44:20Z</time>
      </trkpt>
      <trkpt lat="42.781543" lon="-0.617021">
        <ele>1912.7</ele>
        <time>2017-08-15T14:44:25Z</time>
      </trkpt>
      <trkpt lat="42.781541" lon="-0.616998">
        <ele>1912.2</ele>
        <time>2017-08-15T14:44:28Z</time>
      </trkpt>
      <trkpt lat="42.781569" lon="-0.616958">
        <ele>1911.7</ele>
        <time>2017-08-15T14:44:39Z</time>
      </trkpt>
      <trkpt lat="42.781639" lon="-0.616844">
        <ele>1909.3</ele>
        <time>2017-08-15T14:44:43Z</time>
      </trkpt>
      <trkpt lat="42.781674" lon="-0.616710">
        <ele>1906.9</ele>
        <time>2017-08-15T14:44:56Z</time>
      </trkpt>
      <trkpt lat="42.781645" lon="-0.616647">
        <ele>1905.5</ele>
        <time>2017-08-15T14:45:02Z</time>
      </trkpt>
      <trkpt lat="42.781560" lon="-0.616653">
        <ele>1904.5</ele>
        <time>2017-08-15T14:45:07Z</time>
      </trkpt>
      <trkpt lat="42.781541" lon="-0.616682">
        <ele>1904.0</ele>
        <time>2017-08-15T14:45:09Z</time>
      </trkpt>
      <trkpt lat="42.781492" lon="-0.616799">
        <ele>1902.1</ele>
        <time>2017-08-15T14:45:12Z</time>
      </trkpt>
      <trkpt lat="42.781447" lon="-0.616836">
        <ele>1898.3</ele>
        <time>2017-08-15T14:45:14Z</time>
      </trkpt>
      <trkpt lat="42.781444" lon="-0.616856">
        <ele>1897.8</ele>
        <time>2017-08-15T14:45:23Z</time>
      </trkpt>
      <trkpt lat="42.781372" lon="-0.616940">
        <ele>1895.9</ele>
        <time>2017-08-15T14:45:29Z</time>
      </trkpt>
      <trkpt lat="42.781319" lon="-0.617105">
        <ele>1893.9</ele>
        <time>2017-08-15T14:45:33Z</time>
      </trkpt>
      <trkpt lat="42.781297" lon="-0.617125">
        <ele>1893.4</ele>
        <time>2017-08-15T14:45:45Z</time>
      </trkpt>
      <trkpt lat="42.781289" lon="-0.617150">
        <ele>1892.5</ele>
        <time>2017-08-15T14:45:52Z</time>
      </trkpt>
      <trkpt lat="42.781233" lon="-0.617179">
        <ele>1889.6</ele>
        <time>2017-08-15T14:45:59Z</time>
      </trkpt>
      <trkpt lat="42.781233" lon="-0.617151">
        <ele>1887.2</ele>
        <time>2017-08-15T14:46:07Z</time>
      </trkpt>
      <trkpt lat="42.781202" lon="-0.617072">
        <ele>1885.8</ele>
        <time>2017-08-15T14:46:13Z</time>
      </trkpt>
      <trkpt lat="42.781143" lon="-0.617164">
        <ele>1885.8</ele>
        <time>2017-08-15T14:46:18Z</time>
      </trkpt>
      <trkpt lat="42.781065" lon="-0.617278">
        <ele>1885.3</ele>
        <time>2017-08-15T14:46:21Z</time>
      </trkpt>
      <trkpt lat="42.781058" lon="-0.617288">
        <ele>1885.3</ele>
        <time>2017-08-15T14:46:33Z</time>
      </trkpt>
      <trkpt lat="42.780963" lon="-0.617387">
        <ele>1882.9</ele>
        <time>2017-08-15T14:46:49Z</time>
      </trkpt>
      <trkpt lat="42.780951" lon="-0.617415">
        <ele>1882.4</ele>
        <time>2017-08-15T14:46:58Z</time>
      </trkpt>
      <trkpt lat="42.780909" lon="-0.617428">
        <ele>1881.0</ele>
        <time>2017-08-15T14:47:01Z</time>
      </trkpt>
      <trkpt lat="42.780868" lon="-0.617426">
        <ele>1880.5</ele>
        <time>2017-08-15T14:47:04Z</time>
      </trkpt>
      <trkpt lat="42.780791" lon="-0.617587">
        <ele>1876.6</ele>
        <time>2017-08-15T14:47:07Z</time>
      </trkpt>
      <trkpt lat="42.780746" lon="-0.617642">
        <ele>1873.8</ele>
        <time>2017-08-15T14:47:13Z</time>
      </trkpt>
      <trkpt lat="42.780640" lon="-0.617823">
        <ele>1872.8</ele>
        <time>2017-08-15T14:47:18Z</time>
      </trkpt>
      <trkpt lat="42.780636" lon="-0.617882">
        <ele>1872.8</ele>
        <time>2017-08-15T14:47:26Z</time>
      </trkpt>
      <trkpt lat="42.780636" lon="-0.617974">
        <ele>1871.8</ele>
        <time>2017-08-15T14:47:33Z</time>
      </trkpt>
      <trkpt lat="42.780648" lon="-0.618016">
        <ele>1872.3</ele>
        <time>2017-08-15T14:47:39Z</time>
      </trkpt>
      <trkpt lat="42.780631" lon="-0.618057">
        <ele>1871.8</ele>
        <time>2017-08-15T14:47:43Z</time>
      </trkpt>
      <trkpt lat="42.780610" lon="-0.618082">
        <ele>1871.8</ele>
        <time>2017-08-15T14:47:45Z</time>
      </trkpt>
      <trkpt lat="42.780553" lon="-0.618208">
        <ele>1871.8</ele>
        <time>2017-08-15T14:47:53Z</time>
      </trkpt>
      <trkpt lat="42.780521" lon="-0.618291">
        <ele>1871.8</ele>
        <time>2017-08-15T14:48:03Z</time>
      </trkpt>
      <trkpt lat="42.780485" lon="-0.618339">
        <ele>1871.8</ele>
        <time>2017-08-15T14:48:08Z</time>
      </trkpt>
      <trkpt lat="42.780442" lon="-0.618517">
        <ele>1870.9</ele>
        <time>2017-08-15T14:48:17Z</time>
      </trkpt>
      <trkpt lat="42.780449" lon="-0.618622">
        <ele>1870.9</ele>
        <time>2017-08-15T14:48:22Z</time>
      </trkpt>
      <trkpt lat="42.780490" lon="-0.618715">
        <ele>1870.9</ele>
        <time>2017-08-15T14:48:30Z</time>
      </trkpt>
      <trkpt lat="42.780497" lon="-0.618840">
        <ele>1870.9</ele>
        <time>2017-08-15T14:48:46Z</time>
      </trkpt>
      <trkpt lat="42.780484" lon="-0.618929">
        <ele>1870.9</ele>
        <time>2017-08-15T14:48:59Z</time>
      </trkpt>
      <trkpt lat="42.780462" lon="-0.618984">
        <ele>1870.9</ele>
        <time>2017-08-15T14:49:04Z</time>
      </trkpt>
      <trkpt lat="42.780456" lon="-0.619031">
        <ele>1870.9</ele>
        <time>2017-08-15T14:49:13Z</time>
      </trkpt>
      <trkpt lat="42.780422" lon="-0.619143">
        <ele>1869.4</ele>
        <time>2017-08-15T14:49:21Z</time>
      </trkpt>
      <trkpt lat="42.780385" lon="-0.619187">
        <ele>1867.5</ele>
        <time>2017-08-15T14:49:27Z</time>
      </trkpt>
      <trkpt lat="42.780315" lon="-0.619284">
        <ele>1863.7</ele>
        <time>2017-08-15T14:49:29Z</time>
      </trkpt>
      <trkpt lat="42.780291" lon="-0.619304">
        <ele>1861.2</ele>
        <time>2017-08-15T14:49:31Z</time>
      </trkpt>
      <trkpt lat="42.780268" lon="-0.619332">
        <ele>1858.8</ele>
        <time>2017-08-15T14:49:40Z</time>
      </trkpt>
      <trkpt lat="42.780234" lon="-0.619360">
        <ele>1858.4</ele>
        <time>2017-08-15T14:49:51Z</time>
      </trkpt>
      <trkpt lat="42.780180" lon="-0.619431">
        <ele>1858.4</ele>
        <time>2017-08-15T14:49:55Z</time>
      </trkpt>
      <trkpt lat="42.780195" lon="-0.619502">
        <ele>1858.4</ele>
        <time>2017-08-15T14:49:58Z</time>
      </trkpt>
      <trkpt lat="42.780145" lon="-0.619601">
        <ele>1857.9</ele>
        <time>2017-08-15T14:50:00Z</time>
      </trkpt>
      <trkpt lat="42.780101" lon="-0.619709">
        <ele>1856.9</ele>
        <time>2017-08-15T14:50:06Z</time>
      </trkpt>
      <trkpt lat="42.780077" lon="-0.619789">
        <ele>1853.6</ele>
        <time>2017-08-15T14:50:17Z</time>
      </trkpt>
      <trkpt lat="42.780027" lon="-0.619803">
        <ele>1850.7</ele>
        <time>2017-08-15T14:50:30Z</time>
      </trkpt>
      <trkpt lat="42.780005" lon="-0.619818">
        <ele>1851.2</ele>
        <time>2017-08-15T14:50:32Z</time>
      </trkpt>
      <trkpt lat="42.779943" lon="-0.619820">
        <ele>1850.2</ele>
        <time>2017-08-15T14:50:39Z</time>
      </trkpt>
      <trkpt lat="42.779847" lon="-0.619886">
        <ele>1848.3</ele>
        <time>2017-08-15T14:50:46Z</time>
      </trkpt>
      <trkpt lat="42.779801" lon="-0.619898">
        <ele>1848.3</ele>
        <time>2017-08-15T14:50:47Z</time>
      </trkpt>
      <trkpt lat="42.779697" lon="-0.619850">
        <ele>1845.9</ele>
        <time>2017-08-15T14:50:51Z</time>
      </trkpt>
      <trkpt lat="42.779629" lon="-0.619828">
        <ele>1841.5</ele>
        <time>2017-08-15T14:50:53Z</time>
      </trkpt>
      <trkpt lat="42.779546" lon="-0.619803">
        <ele>1839.6</ele>
        <time>2017-08-15T14:50:57Z</time>
      </trkpt>
      <trkpt lat="42.779366" lon="-0.619868">
        <ele>1838.2</ele>
        <time>2017-08-15T14:51:03Z</time>
      </trkpt>
      <trkpt lat="42.779198" lon="-0.619947">
        <ele>1837.2</ele>
        <time>2017-08-15T14:51:09Z</time>
      </trkpt>
      <trkpt lat="42.779143" lon="-0.619980">
        <ele>1837.2</ele>
        <time>2017-08-15T14:51:18Z</time>
      </trkpt>
      <trkpt lat="42.779026" lon="-0.620007">
        <ele>1837.2</ele>
        <time>2017-08-15T14:51:22Z</time>
      </trkpt>
      <trkpt lat="42.778938" lon="-0.620010">
        <ele>1837.2</ele>
        <time>2017-08-15T14:51:30Z</time>
      </trkpt>
      <trkpt lat="42.778874" lon="-0.620015">
        <ele>1837.2</ele>
        <time>2017-08-15T14:51:34Z</time>
      </trkpt>
      <trkpt lat="42.778859" lon="-0.620040">
        <ele>1837.2</ele>
        <time>2017-08-15T14:51:47Z</time>
      </trkpt>
      <trkpt lat="42.778855" lon="-0.620075">
        <ele>1837.2</ele>
        <time>2017-08-15T14:51:56Z</time>
      </trkpt>
      <trkpt lat="42.778769" lon="-0.620120">
        <ele>1837.2</ele>
        <time>2017-08-15T14:52:07Z</time>
      </trkpt>
      <trkpt lat="42.778638" lon="-0.620177">
        <ele>1837.2</ele>
        <time>2017-08-15T14:52:17Z</time>
      </trkpt>
      <trkpt lat="42.778611" lon="-0.620201">
        <ele>1837.2</ele>
        <time>2017-08-15T14:52:26Z</time>
      </trkpt>
      <trkpt lat="42.778582" lon="-0.620204">
        <ele>1837.2</ele>
        <time>2017-08-15T14:52:29Z</time>
      </trkpt>
      <trkpt lat="42.778564" lon="-0.620192">
        <ele>1837.2</ele>
        <time>2017-08-15T14:52:35Z</time>
      </trkpt>
      <trkpt lat="42.778494" lon="-0.620209">
        <ele>1838.2</ele>
        <time>2017-08-15T14:52:38Z</time>
      </trkpt>
      <trkpt lat="42.778392" lon="-0.620283">
        <ele>1838.2</ele>
        <time>2017-08-15T14:52:43Z</time>
      </trkpt>
      <trkpt lat="42.778252" lon="-0.620409">
        <ele>1837.2</ele>
        <time>2017-08-15T14:52:54Z</time>
      </trkpt>
      <trkpt lat="42.778234" lon="-0.620428">
        <ele>1836.7</ele>
        <time>2017-08-15T14:52:57Z</time>
      </trkpt>
      <trkpt lat="42.778167" lon="-0.620504">
        <ele>1835.8</ele>
        <time>2017-08-15T14:52:59Z</time>
      </trkpt>
      <trkpt lat="42.778109" lon="-0.620612">
        <ele>1831.9</ele>
        <time>2017-08-15T14:53:03Z</time>
      </trkpt>
      <trkpt lat="42.778104" lon="-0.620629">
        <ele>1831.0</ele>
        <time>2017-08-15T14:53:08Z</time>
      </trkpt>
      <trkpt lat="42.778071" lon="-0.620683">
        <ele>1829.1</ele>
        <time>2017-08-15T14:53:11Z</time>
      </trkpt>
      <trkpt lat="42.778056" lon="-0.620713">
        <ele>1828.1</ele>
        <time>2017-08-15T14:53:20Z</time>
      </trkpt>
      <trkpt lat="42.778044" lon="-0.620769">
        <ele>1827.6</ele>
        <time>2017-08-15T14:53:25Z</time>
      </trkpt>
      <trkpt lat="42.778002" lon="-0.620833">
        <ele>1827.6</ele>
        <time>2017-08-15T14:53:27Z</time>
      </trkpt>
      <trkpt lat="42.777998" lon="-0.620923">
        <ele>1826.2</ele>
        <time>2017-08-15T14:53:33Z</time>
      </trkpt>
      <trkpt lat="42.777963" lon="-0.621040">
        <ele>1822.8</ele>
        <time>2017-08-15T14:53:41Z</time>
      </trkpt>
      <trkpt lat="42.777956" lon="-0.621103">
        <ele>1819.4</ele>
        <time>2017-08-15T14:53:46Z</time>
      </trkpt>
      <trkpt lat="42.777879" lon="-0.621222">
        <ele>1817.5</ele>
        <time>2017-08-15T14:53:49Z</time>
      </trkpt>
      <trkpt lat="42.777842" lon="-0.621262">
        <ele>1817.5</ele>
        <time>2017-08-15T14:53:53Z</time>
      </trkpt>
      <trkpt lat="42.777793" lon="-0.621305">
        <ele>1816.6</ele>
        <time>2017-08-15T14:54:00Z</time>
      </trkpt>
      <trkpt lat="42.777793" lon="-0.621305">
        <ele>1816.1</ele>
        <time>2017-08-15T14:54:01Z</time>
      </trkpt>
      <trkpt lat="42.777753" lon="-0.621278">
        <ele>1814.6</ele>
        <time>2017-08-15T14:54:06Z</time>
      </trkpt>
      <trkpt lat="42.777712" lon="-0.621317">
        <ele>1812.7</ele>
        <time>2017-08-15T14:54:18Z</time>
      </trkpt>
      <trkpt lat="42.777748" lon="-0.621372">
        <ele>1810.8</ele>
        <time>2017-08-15T14:54:23Z</time>
      </trkpt>
      <trkpt lat="42.777776" lon="-0.621403">
        <ele>1810.3</ele>
        <time>2017-08-15T14:54:25Z</time>
      </trkpt>
      <trkpt lat="42.777769" lon="-0.621483">
        <ele>1808.9</ele>
        <time>2017-08-15T14:54:34Z</time>
      </trkpt>
      <trkpt lat="42.777809" lon="-0.621483">
        <ele>1808.9</ele>
        <time>2017-08-15T14:54:46Z</time>
      </trkpt>
      <trkpt lat="42.777860" lon="-0.621472">
        <ele>1807.4</ele>
        <time>2017-08-15T14:54:47Z</time>
      </trkpt>
      <trkpt lat="42.777936" lon="-0.621516">
        <ele>1806.0</ele>
        <time>2017-08-15T14:54:53Z</time>
      </trkpt>
      <trkpt lat="42.777921" lon="-0.621547">
        <ele>1805.0</ele>
        <time>2017-08-15T14:55:02Z</time>
      </trkpt>
      <trkpt lat="42.777915" lon="-0.621576">
        <ele>1805.0</ele>
        <time>2017-08-15T14:55:13Z</time>
      </trkpt>
      <trkpt lat="42.777914" lon="-0.621625">
        <ele>1804.5</ele>
        <time>2017-08-15T14:55:24Z</time>
      </trkpt>
      <trkpt lat="42.777873" lon="-0.621680">
        <ele>1803.6</ele>
        <time>2017-08-15T14:55:26Z</time>
      </trkpt>
      <trkpt lat="42.777841" lon="-0.621715">
        <ele>1803.1</ele>
        <time>2017-08-15T14:55:34Z</time>
      </trkpt>
      <trkpt lat="42.777769" lon="-0.621801">
        <ele>1799.2</ele>
        <time>2017-08-15T14:55:40Z</time>
      </trkpt>
      <trkpt lat="42.777708" lon="-0.621815">
        <ele>1794.4</ele>
        <time>2017-08-15T14:55:48Z</time>
      </trkpt>
      <trkpt lat="42.777689" lon="-0.621826">
        <ele>1792.5</ele>
        <time>2017-08-15T14:55:55Z</time>
      </trkpt>
      <trkpt lat="42.777642" lon="-0.621873">
        <ele>1792.5</ele>
        <time>2017-08-15T14:55:59Z</time>
      </trkpt>
      <trkpt lat="42.777573" lon="-0.621963">
        <ele>1791.6</ele>
        <time>2017-08-15T14:56:02Z</time>
      </trkpt>
      <trkpt lat="42.777513" lon="-0.622013">
        <ele>1791.1</ele>
        <time>2017-08-15T14:56:03Z</time>
      </trkpt>
      <trkpt lat="42.777490" lon="-0.622055">
        <ele>1788.7</ele>
        <time>2017-08-15T14:56:07Z</time>
      </trkpt>
      <trkpt lat="42.777449" lon="-0.622103">
        <ele>1784.3</ele>
        <time>2017-08-15T14:56:12Z</time>
      </trkpt>
      <trkpt lat="42.777373" lon="-0.622231">
        <ele>1780.5</ele>
        <time>2017-08-15T14:56:22Z</time>
      </trkpt>
      <trkpt lat="42.777359" lon="-0.622241">
        <ele>1781.0</ele>
        <time>2017-08-15T14:56:30Z</time>
      </trkpt>
      <trkpt lat="42.777313" lon="-0.622292">
        <ele>1780.5</ele>
        <time>2017-08-15T14:56:32Z</time>
      </trkpt>
      <trkpt lat="42.777156" lon="-0.622405">
        <ele>1779.5</ele>
        <time>2017-08-15T14:56:42Z</time>
      </trkpt>
      <trkpt lat="42.777095" lon="-0.622462">
        <ele>1774.2</ele>
        <time>2017-08-15T14:56:47Z</time>
      </trkpt>
      <trkpt lat="42.777074" lon="-0.622491">
        <ele>1772.8</ele>
        <time>2017-08-15T14:56:52Z</time>
      </trkpt>
      <trkpt lat="42.777004" lon="-0.622587">
        <ele>1769.9</ele>
        <time>2017-08-15T14:56:59Z</time>
      </trkpt>
      <trkpt lat="42.776912" lon="-0.622828">
        <ele>1767.0</ele>
        <time>2017-08-15T14:57:01Z</time>
      </trkpt>
      <trkpt lat="42.776903" lon="-0.622846">
        <ele>1766.1</ele>
        <time>2017-08-15T14:57:18Z</time>
      </trkpt>
      <trkpt lat="42.776843" lon="-0.622945">
        <ele>1761.3</ele>
        <time>2017-08-15T14:57:27Z</time>
      </trkpt>
      <trkpt lat="42.776746" lon="-0.623024">
        <ele>1760.3</ele>
        <time>2017-08-15T14:57:37Z</time>
      </trkpt>
      <trkpt lat="42.776590" lon="-0.623128">
        <ele>1758.9</ele>
        <time>2017-08-15T14:57:46Z</time>
      </trkpt>
      <trkpt lat="42.776456" lon="-0.623249">
        <ele>1756.9</ele>
        <time>2017-08-15T14:57:55Z</time>
      </trkpt>
      <trkpt lat="42.776440" lon="-0.623246">
        <ele>1756.0</ele>
        <time>2017-08-15T14:57:56Z</time>
      </trkpt>
      <trkpt lat="42.776402" lon="-0.623242">
        <ele>1752.6</ele>
        <time>2017-08-15T14:58:00Z</time>
      </trkpt>
      <trkpt lat="42.776402" lon="-0.623242">
        <ele>1751.2</ele>
        <time>2017-08-15T14:58:04Z</time>
      </trkpt>
      <trkpt lat="42.776318" lon="-0.623280">
        <ele>1751.2</ele>
        <time>2017-08-15T14:58:11Z</time>
      </trkpt>
      <trkpt lat="42.776251" lon="-0.623269">
        <ele>1750.7</ele>
        <time>2017-08-15T14:58:23Z</time>
      </trkpt>
      <trkpt lat="42.776209" lon="-0.623286">
        <ele>1745.9</ele>
        <time>2017-08-15T14:58:30Z</time>
      </trkpt>
      <trkpt lat="42.776174" lon="-0.623298">
        <ele>1743.0</ele>
        <time>2017-08-15T14:58:43Z</time>
      </trkpt>
      <trkpt lat="42.776163" lon="-0.623298">
        <ele>1742.5</ele>
        <time>2017-08-15T14:58:55Z</time>
      </trkpt>
      <trkpt lat="42.776124" lon="-0.623300">
        <ele>1741.1</ele>
        <time>2017-08-15T14:59:05Z</time>
      </trkpt>
      <trkpt lat="42.776075" lon="-0.623332">
        <ele>1741.1</ele>
        <time>2017-08-15T14:59:18Z</time>
      </trkpt>
      <trkpt lat="42.775984" lon="-0.623327">
        <ele>1739.6</ele>
        <time>2017-08-15T14:59:22Z</time>
      </trkpt>
      <trkpt lat="42.775895" lon="-0.623386">
        <ele>1736.3</ele>
        <time>2017-08-15T14:59:28Z</time>
      </trkpt>
      <trkpt lat="42.775874" lon="-0.623396">
        <ele>1734.8</ele>
        <time>2017-08-15T14:59:31Z</time>
      </trkpt>
      <trkpt lat="42.775774" lon="-0.623491">
        <ele>1732.4</ele>
        <time>2017-08-15T14:59:38Z</time>
      </trkpt>
      <trkpt lat="42.775777" lon="-0.623499">
        <ele>1732.4</ele>
        <time>2017-08-15T14:59:51Z</time>
      </trkpt>
      <trkpt lat="42.775727" lon="-0.623549">
        <ele>1731.9</ele>
        <time>2017-08-15T15:00:00Z</time>
      </trkpt>
      <trkpt lat="42.775616" lon="-0.623594">
        <ele>1726.7</ele>
        <time>2017-08-15T15:00:15Z</time>
      </trkpt>
      <trkpt lat="42.775589" lon="-0.623607">
        <ele>1725.7</ele>
        <time>2017-08-15T15:00:17Z</time>
      </trkpt>
      <trkpt lat="42.775376" lon="-0.623779">
        <ele>1724.3</ele>
        <time>2017-08-15T15:00:22Z</time>
      </trkpt>
      <trkpt lat="42.775304" lon="-0.623915">
        <ele>1723.8</ele>
        <time>2017-08-15T15:00:37Z</time>
      </trkpt>
      <trkpt lat="42.775218" lon="-0.624077">
        <ele>1723.8</ele>
        <time>2017-08-15T15:00:45Z</time>
      </trkpt>
      <trkpt lat="42.775099" lon="-0.624127">
        <ele>1722.8</ele>
        <time>2017-08-15T15:00:47Z</time>
      </trkpt>
      <trkpt lat="42.774993" lon="-0.624186">
        <ele>1719.5</ele>
        <time>2017-08-15T15:00:54Z</time>
      </trkpt>
      <trkpt lat="42.774979" lon="-0.624190">
        <ele>1718.5</ele>
        <time>2017-08-15T15:01:03Z</time>
      </trkpt>
      <trkpt lat="42.774939" lon="-0.624222">
        <ele>1714.7</ele>
        <time>2017-08-15T15:01:16Z</time>
      </trkpt>
      <trkpt lat="42.774899" lon="-0.624226">
        <ele>1713.2</ele>
        <time>2017-08-15T15:01:29Z</time>
      </trkpt>
      <trkpt lat="42.774851" lon="-0.624224">
        <ele>1713.2</ele>
        <time>2017-08-15T15:01:37Z</time>
      </trkpt>
      <trkpt lat="42.774697" lon="-0.624243">
        <ele>1711.3</ele>
        <time>2017-08-15T15:01:47Z</time>
      </trkpt>
      <trkpt lat="42.774586" lon="-0.624291">
        <ele>1709.8</ele>
        <time>2017-08-15T15:01:59Z</time>
      </trkpt>
      <trkpt lat="42.774484" lon="-0.624387">
        <ele>1708.4</ele>
        <time>2017-08-15T15:02:11Z</time>
      </trkpt>
      <trkpt lat="42.774362" lon="-0.624525">
        <ele>1707.9</ele>
        <time>2017-08-15T15:02:14Z</time>
      </trkpt>
      <trkpt lat="42.774281" lon="-0.624589">
        <ele>1706.0</ele>
        <time>2017-08-15T15:02:26Z</time>
      </trkpt>
      <trkpt lat="42.774170" lon="-0.624686">
        <ele>1703.1</ele>
        <time>2017-08-15T15:02:30Z</time>
      </trkpt>
      <trkpt lat="42.774123" lon="-0.624694">
        <ele>1702.6</ele>
        <time>2017-08-15T15:02:44Z</time>
      </trkpt>
      <trkpt lat="42.774060" lon="-0.624727">
        <ele>1700.7</ele>
        <time>2017-08-15T15:02:46Z</time>
      </trkpt>
      <trkpt lat="42.774033" lon="-0.624741">
        <ele>1700.2</ele>
        <time>2017-08-15T15:02:50Z</time>
      </trkpt>
      <trkpt lat="42.773958" lon="-0.624767">
        <ele>1699.3</ele>
        <time>2017-08-15T15:02:56Z</time>
      </trkpt>
      <trkpt lat="42.773802" lon="-0.624826">
        <ele>1697.3</ele>
        <time>2017-08-15T15:03:04Z</time>
      </trkpt>
      <trkpt lat="42.773693" lon="-0.624911">
        <ele>1697.3</ele>
        <time>2017-08-15T15:03:15Z</time>
      </trkpt>
      <trkpt lat="42.773531" lon="-0.624989">
        <ele>1696.9</ele>
        <time>2017-08-15T15:03:25Z</time>
      </trkpt>
      <trkpt lat="42.773531" lon="-0.624989">
        <ele>1696.9</ele>
        <time>2017-08-15T15:03:31Z</time>
      </trkpt>
      <trkpt lat="42.773485" lon="-0.624994">
        <ele>1696.9</ele>
        <time>2017-08-15T15:03:44Z</time>
      </trkpt>
      <trkpt lat="42.773298" lon="-0.625052">
        <ele>1696.4</ele>
        <time>2017-08-15T15:03:47Z</time>
      </trkpt>
      <trkpt lat="42.773189" lon="-0.625137">
        <ele>1696.4</ele>
        <time>2017-08-15T15:03:57Z</time>
      </trkpt>
      <trkpt lat="42.773166" lon="-0.625144">
        <ele>1696.4</ele>
        <time>2017-08-15T15:04:07Z</time>
      </trkpt>
      <trkpt lat="42.773078" lon="-0.625209">
        <ele>1697.3</ele>
        <time>2017-08-15T15:04:12Z</time>
      </trkpt>
      <trkpt lat="42.772970" lon="-0.625261">
        <ele>1697.8</ele>
        <time>2017-08-15T15:04:27Z</time>
      </trkpt>
      <trkpt lat="42.772824" lon="-0.625344">
        <ele>1699.8</ele>
        <time>2017-08-15T15:04:30Z</time>
      </trkpt>
      <trkpt lat="42.772685" lon="-0.625407">
        <ele>1702.6</ele>
        <time>2017-08-15T15:04:32Z</time>
      </trkpt>
      <trkpt lat="42.772600" lon="-0.625440">
        <ele>1703.6</ele>
        <time>2017-08-15T15:04:40Z</time>
      </trkpt>
      <trkpt lat="42.772498" lon="-0.625447">
        <ele>1705.0</ele>
        <time>2017-08-15T15:04:57Z</time>
      </trkpt>
      <trkpt lat="42.772412" lon="-0.625465">
        <ele>1706.0</ele>
        <time>2017-08-15T15:05:12Z</time>
      </trkpt>
      <trkpt lat="42.772412" lon="-0.625465">
        <ele>1706.5</ele>
        <time>2017-08-15T15:05:16Z</time>
      </trkpt>
      <trkpt lat="42.772383" lon="-0.625488">
        <ele>1706.5</ele>
        <time>2017-08-15T15:05:29Z</time>
      </trkpt>
      <trkpt lat="42.772219" lon="-0.625548">
        <ele>1707.0</ele>
        <time>2017-08-15T15:05:33Z</time>
      </trkpt>
      <trkpt lat="42.772163" lon="-0.625546">
        <ele>1707.4</ele>
        <time>2017-08-15T15:05:47Z</time>
      </trkpt>
      <trkpt lat="42.772066" lon="-0.625673">
        <ele>1707.9</ele>
        <time>2017-08-15T15:05:56Z</time>
      </trkpt>
      <trkpt lat="42.772061" lon="-0.625705">
        <ele>1707.9</ele>
        <time>2017-08-15T15:06:01Z</time>
      </trkpt>
      <trkpt lat="42.772031" lon="-0.625746">
        <ele>1708.4</ele>
        <time>2017-08-15T15:06:15Z</time>
      </trkpt>
      <trkpt lat="42.771970" lon="-0.625765">
        <ele>1708.9</ele>
        <time>2017-08-15T15:10:32Z</time>
      </trkpt>
      <trkpt lat="42.771894" lon="-0.625837">
        <ele>1709.8</ele>
        <time>2017-08-15T15:10:45Z</time>
      </trkpt>
      <trkpt lat="42.771776" lon="-0.625938">
        <ele>1710.8</ele>
        <time>2017-08-15T15:10:52Z</time>
      </trkpt>
      <trkpt lat="42.771715" lon="-0.626074">
        <ele>1711.8</ele>
        <time>2017-08-15T15:10:54Z</time>
      </trkpt>
      <trkpt lat="42.771688" lon="-0.626148">
        <ele>1712.7</ele>
        <time>2017-08-15T15:10:56Z</time>
      </trkpt>
      <trkpt lat="42.771566" lon="-0.626275">
        <ele>1714.2</ele>
        <time>2017-08-15T15:11:01Z</time>
      </trkpt>
      <trkpt lat="42.771544" lon="-0.626296">
        <ele>1714.7</ele>
        <time>2017-08-15T15:11:03Z</time>
      </trkpt>
      <trkpt lat="42.771420" lon="-0.626408">
        <ele>1714.7</ele>
        <time>2017-08-15T15:11:06Z</time>
      </trkpt>
      <trkpt lat="42.771344" lon="-0.626531">
        <ele>1714.2</ele>
        <time>2017-08-15T15:11:16Z</time>
      </trkpt>
      <trkpt lat="42.771304" lon="-0.626563">
        <ele>1714.2</ele>
        <time>2017-08-15T15:11:19Z</time>
      </trkpt>
      <trkpt lat="42.771198" lon="-0.626824">
        <ele>1712.7</ele>
        <time>2017-08-15T15:11:27Z</time>
      </trkpt>
      <trkpt lat="42.771187" lon="-0.626883">
        <ele>1712.7</ele>
        <time>2017-08-15T15:11:31Z</time>
      </trkpt>
      <trkpt lat="42.771187" lon="-0.626910">
        <ele>1712.2</ele>
        <time>2017-08-15T15:11:32Z</time>
      </trkpt>
      <trkpt lat="42.771158" lon="-0.627009">
        <ele>1711.8</ele>
        <time>2017-08-15T15:11:38Z</time>
      </trkpt>
      <trkpt lat="42.771113" lon="-0.627323">
        <ele>1710.8</ele>
        <time>2017-08-15T15:11:45Z</time>
      </trkpt>
      <trkpt lat="42.771062" lon="-0.627601">
        <ele>1709.4</ele>
        <time>2017-08-15T15:11:50Z</time>
      </trkpt>
      <trkpt lat="42.771032" lon="-0.627667">
        <ele>1709.4</ele>
        <time>2017-08-15T15:12:00Z</time>
      </trkpt>
      <trkpt lat="42.770947" lon="-0.627893">
        <ele>1709.4</ele>
        <time>2017-08-15T15:12:05Z</time>
      </trkpt>
      <trkpt lat="42.770937" lon="-0.627961">
        <ele>1709.4</ele>
        <time>2017-08-15T15:12:10Z</time>
      </trkpt>
      <trkpt lat="42.770957" lon="-0.628223">
        <ele>1710.3</ele>
        <time>2017-08-15T15:12:27Z</time>
      </trkpt>
      <trkpt lat="42.770938" lon="-0.628383">
        <ele>1710.8</ele>
        <time>2017-08-15T15:12:39Z</time>
      </trkpt>
      <trkpt lat="42.770977" lon="-0.628459">
        <ele>1710.8</ele>
        <time>2017-08-15T15:12:46Z</time>
      </trkpt>
      <trkpt lat="42.771045" lon="-0.628670">
        <ele>1710.8</ele>
        <time>2017-08-15T15:12:50Z</time>
      </trkpt>
      <trkpt lat="42.771000" lon="-0.628731">
        <ele>1709.4</ele>
        <time>2017-08-15T15:13:04Z</time>
      </trkpt>
      <trkpt lat="42.770905" lon="-0.628848">
        <ele>1707.9</ele>
        <time>2017-08-15T15:13:18Z</time>
      </trkpt>
      <trkpt lat="42.770854" lon="-0.628920">
        <ele>1706.0</ele>
        <time>2017-08-15T15:13:29Z</time>
      </trkpt>
      <trkpt lat="42.770836" lon="-0.628930">
        <ele>1705.5</ele>
        <time>2017-08-15T15:13:33Z</time>
      </trkpt>
      <trkpt lat="42.770840" lon="-0.628949">
        <ele>1704.1</ele>
        <time>2017-08-15T15:13:45Z</time>
      </trkpt>
      <trkpt lat="42.770859" lon="-0.629032">
        <ele>1699.8</ele>
        <time>2017-08-15T15:13:55Z</time>
      </trkpt>
      <trkpt lat="42.770861" lon="-0.629048">
        <ele>1698.8</ele>
        <time>2017-08-15T15:14:02Z</time>
      </trkpt>
      <trkpt lat="42.770866" lon="-0.629099">
        <ele>1699.3</ele>
        <time>2017-08-15T15:14:09Z</time>
      </trkpt>
      <trkpt lat="42.770816" lon="-0.629217">
        <ele>1699.3</ele>
        <time>2017-08-15T15:14:17Z</time>
      </trkpt>
      <trkpt lat="42.770774" lon="-0.629210">
        <ele>1699.3</ele>
        <time>2017-08-15T15:14:21Z</time>
      </trkpt>
      <trkpt lat="42.770709" lon="-0.629296">
        <ele>1694.5</ele>
        <time>2017-08-15T15:14:37Z</time>
      </trkpt>
      <trkpt lat="42.770675" lon="-0.629342">
        <ele>1690.6</ele>
        <time>2017-08-15T15:14:44Z</time>
      </trkpt>
      <trkpt lat="42.770670" lon="-0.629356">
        <ele>1691.1</ele>
        <time>2017-08-15T15:14:48Z</time>
      </trkpt>
      <trkpt lat="42.770650" lon="-0.629434">
        <ele>1690.1</ele>
        <time>2017-08-15T15:14:59Z</time>
      </trkpt>
      <trkpt lat="42.770680" lon="-0.629524">
        <ele>1690.1</ele>
        <time>2017-08-15T15:15:10Z</time>
      </trkpt>
      <trkpt lat="42.770632" lon="-0.629582">
        <ele>1688.7</ele>
        <time>2017-08-15T15:15:12Z</time>
      </trkpt>
      <trkpt lat="42.770588" lon="-0.629668">
        <ele>1685.3</ele>
        <time>2017-08-15T15:15:26Z</time>
      </trkpt>
      <trkpt lat="42.770592" lon="-0.629729">
        <ele>1681.0</ele>
        <time>2017-08-15T15:15:30Z</time>
      </trkpt>
      <trkpt lat="42.770538" lon="-0.629795">
        <ele>1680.0</ele>
        <time>2017-08-15T15:15:35Z</time>
      </trkpt>
      <trkpt lat="42.770396" lon="-0.630009">
        <ele>1679.6</ele>
        <time>2017-08-15T15:15:41Z</time>
      </trkpt>
      <trkpt lat="42.770317" lon="-0.630174">
        <ele>1677.6</ele>
        <time>2017-08-15T15:15:47Z</time>
      </trkpt>
      <trkpt lat="42.770250" lon="-0.630254">
        <ele>1674.3</ele>
        <time>2017-08-15T15:15:51Z</time>
      </trkpt>
      <trkpt lat="42.770220" lon="-0.630285">
        <ele>1670.9</ele>
        <time>2017-08-15T15:16:03Z</time>
      </trkpt>
      <trkpt lat="42.770113" lon="-0.630463">
        <ele>1669.9</ele>
        <time>2017-08-15T15:16:04Z</time>
      </trkpt>
      <trkpt lat="42.770066" lon="-0.630764">
        <ele>1669.0</ele>
        <time>2017-08-15T15:16:09Z</time>
      </trkpt>
      <trkpt lat="42.769984" lon="-0.630904">
        <ele>1665.1</ele>
        <time>2017-08-15T15:16:11Z</time>
      </trkpt>
      <trkpt lat="42.769955" lon="-0.630949">
        <ele>1661.8</ele>
        <time>2017-08-15T15:16:17Z</time>
      </trkpt>
      <trkpt lat="42.769833" lon="-0.631139">
        <ele>1660.3</ele>
        <time>2017-08-15T15:16:24Z</time>
      </trkpt>
      <trkpt lat="42.769798" lon="-0.631264">
        <ele>1658.9</ele>
        <time>2017-08-15T15:16:30Z</time>
      </trkpt>
      <trkpt lat="42.769815" lon="-0.631332">
        <ele>1656.0</ele>
        <time>2017-08-15T15:16:37Z</time>
      </trkpt>
      <trkpt lat="42.769771" lon="-0.631400">
        <ele>1654.6</ele>
        <time>2017-08-15T15:16:43Z</time>
      </trkpt>
      <trkpt lat="42.769712" lon="-0.631444">
        <ele>1654.6</ele>
        <time>2017-08-15T15:16:51Z</time>
      </trkpt>
      <trkpt lat="42.769681" lon="-0.631467">
        <ele>1654.6</ele>
        <time>2017-08-15T15:17:04Z</time>
      </trkpt>
      <trkpt lat="42.769588" lon="-0.631578">
        <ele>1653.1</ele>
        <time>2017-08-15T15:17:16Z</time>
      </trkpt>
      <trkpt lat="42.769553" lon="-0.631528">
        <ele>1649.8</ele>
        <time>2017-08-15T15:17:22Z</time>
      </trkpt>
      <trkpt lat="42.769526" lon="-0.631490">
        <ele>1645.4</ele>
        <time>2017-08-15T15:17:35Z</time>
      </trkpt>
      <trkpt lat="42.769426" lon="-0.631528">
        <ele>1643.0</ele>
        <time>2017-08-15T15:17:42Z</time>
      </trkpt>
      <trkpt lat="42.769426" lon="-0.631759">
        <ele>1642.6</ele>
        <time>2017-08-15T15:17:47Z</time>
      </trkpt>
      <trkpt lat="42.769422" lon="-0.631794">
        <ele>1642.6</ele>
        <time>2017-08-15T15:17:57Z</time>
      </trkpt>
      <trkpt lat="42.769390" lon="-0.631955">
        <ele>1640.2</ele>
        <time>2017-08-15T15:18:02Z</time>
      </trkpt>
      <trkpt lat="42.769378" lon="-0.632000">
        <ele>1638.7</ele>
        <time>2017-08-15T15:18:13Z</time>
      </trkpt>
      <trkpt lat="42.769351" lon="-0.632073">
        <ele>1634.9</ele>
        <time>2017-08-15T15:18:18Z</time>
      </trkpt>
      <trkpt lat="42.769341" lon="-0.632159">
        <ele>1631.0</ele>
        <time>2017-08-15T15:18:24Z</time>
      </trkpt>
      <trkpt lat="42.769322" lon="-0.632257">
        <ele>1631.5</ele>
        <time>2017-08-15T15:18:33Z</time>
      </trkpt>
      <trkpt lat="42.769309" lon="-0.632343">
        <ele>1631.5</ele>
        <time>2017-08-15T15:18:42Z</time>
      </trkpt>
      <trkpt lat="42.769246" lon="-0.632485">
        <ele>1631.0</ele>
        <time>2017-08-15T15:18:49Z</time>
      </trkpt>
      <trkpt lat="42.769237" lon="-0.632497">
        <ele>1630.1</ele>
        <time>2017-08-15T15:18:54Z</time>
      </trkpt>
      <trkpt lat="42.769191" lon="-0.632570">
        <ele>1629.6</ele>
        <time>2017-08-15T15:18:59Z</time>
      </trkpt>
      <trkpt lat="42.769180" lon="-0.632595">
        <ele>1629.6</ele>
        <time>2017-08-15T15:19:12Z</time>
      </trkpt>
      <trkpt lat="42.769113" lon="-0.632668">
        <ele>1629.6</ele>
        <time>2017-08-15T15:19:28Z</time>
      </trkpt>
      <trkpt lat="42.769026" lon="-0.632746">
        <ele>1629.6</ele>
        <time>2017-08-15T15:19:29Z</time>
      </trkpt>
      <trkpt lat="42.768977" lon="-0.632807">
        <ele>1629.1</ele>
        <time>2017-08-15T15:19:46Z</time>
      </trkpt>
      <trkpt lat="42.768912" lon="-0.632826">
        <ele>1628.6</ele>
        <time>2017-08-15T15:19:59Z</time>
      </trkpt>
      <trkpt lat="42.768889" lon="-0.632892">
        <ele>1628.1</ele>
        <time>2017-08-15T15:20:12Z</time>
      </trkpt>
      <trkpt lat="42.768840" lon="-0.632980">
        <ele>1627.7</ele>
        <time>2017-08-15T15:20:29Z</time>
      </trkpt>
      <trkpt lat="42.768732" lon="-0.633087">
        <ele>1627.2</ele>
        <time>2017-08-15T15:20:30Z</time>
      </trkpt>
      <trkpt lat="42.768655" lon="-0.633162">
        <ele>1626.2</ele>
        <time>2017-08-15T15:20:37Z</time>
      </trkpt>
      <trkpt lat="42.768617" lon="-0.633216">
        <ele>1625.2</ele>
        <time>2017-08-15T15:20:46Z</time>
      </trkpt>
      <trkpt lat="42.768529" lon="-0.633297">
        <ele>1622.8</ele>
        <time>2017-08-15T15:21:01Z</time>
      </trkpt>
      <trkpt lat="42.768479" lon="-0.633360">
        <ele>1620.4</ele>
        <time>2017-08-15T15:21:16Z</time>
      </trkpt>
      <trkpt lat="42.768428" lon="-0.633414">
        <ele>1619.5</ele>
        <time>2017-08-15T15:21:34Z</time>
      </trkpt>
      <trkpt lat="42.768390" lon="-0.633520">
        <ele>1618.0</ele>
        <time>2017-08-15T15:21:44Z</time>
      </trkpt>
      <trkpt lat="42.768380" lon="-0.633581">
        <ele>1616.6</ele>
        <time>2017-08-15T15:21:47Z</time>
      </trkpt>
      <trkpt lat="42.768314" lon="-0.633695">
        <ele>1613.7</ele>
        <time>2017-08-15T15:21:52Z</time>
      </trkpt>
      <trkpt lat="42.768296" lon="-0.633758">
        <ele>1610.3</ele>
        <time>2017-08-15T15:22:05Z</time>
      </trkpt>
      <trkpt lat="42.768276" lon="-0.633826">
        <ele>1606.5</ele>
        <time>2017-08-15T15:22:24Z</time>
      </trkpt>
      <trkpt lat="42.768193" lon="-0.633925">
        <ele>1606.5</ele>
        <time>2017-08-15T15:22:44Z</time>
      </trkpt>
      <trkpt lat="42.768102" lon="-0.634019">
        <ele>1605.5</ele>
        <time>2017-08-15T15:22:56Z</time>
      </trkpt>
      <trkpt lat="42.768038" lon="-0.634106">
        <ele>1602.2</ele>
        <time>2017-08-15T15:23:09Z</time>
      </trkpt>
      <trkpt lat="42.767985" lon="-0.634157">
        <ele>1599.3</ele>
        <time>2017-08-15T15:23:18Z</time>
      </trkpt>
      <trkpt lat="42.767926" lon="-0.634185">
        <ele>1599.3</ele>
        <time>2017-08-15T15:23:23Z</time>
      </trkpt>
      <trkpt lat="42.767810" lon="-0.634223">
        <ele>1598.8</ele>
        <time>2017-08-15T15:23:25Z</time>
      </trkpt>
      <trkpt lat="42.767781" lon="-0.634240">
        <ele>1598.8</ele>
        <time>2017-08-15T15:23:30Z</time>
      </trkpt>
      <trkpt lat="42.767774" lon="-0.634238">
        <ele>1598.8</ele>
        <time>2017-08-15T15:23:35Z</time>
      </trkpt>
      <trkpt lat="42.767622" lon="-0.634060">
        <ele>1597.8</ele>
        <time>2017-08-15T15:23:37Z</time>
      </trkpt>
      <trkpt lat="42.767445" lon="-0.634023">
        <ele>1596.9</ele>
        <time>2017-08-15T15:23:44Z</time>
      </trkpt>
      <trkpt lat="42.767258" lon="-0.634046">
        <ele>1595.4</ele>
        <time>2017-08-15T15:23:53Z</time>
      </trkpt>
      <trkpt lat="42.767038" lon="-0.634023">
        <ele>1593.5</ele>
        <time>2017-08-15T15:23:58Z</time>
      </trkpt>
      <trkpt lat="42.767029" lon="-0.634019">
        <ele>1593.5</ele>
        <time>2017-08-15T15:24:11Z</time>
      </trkpt>
      <trkpt lat="42.766928" lon="-0.634057">
        <ele>1592.6</ele>
        <time>2017-08-15T15:24:16Z</time>
      </trkpt>
      <trkpt lat="42.766793" lon="-0.634087">
        <ele>1591.6</ele>
        <time>2017-08-15T15:24:17Z</time>
      </trkpt>
      <trkpt lat="42.766600" lon="-0.634124">
        <ele>1588.7</ele>
        <time>2017-08-15T15:24:19Z</time>
      </trkpt>
      <trkpt lat="42.766421" lon="-0.634159">
        <ele>1585.3</ele>
        <time>2017-08-15T15:24:26Z</time>
      </trkpt>
      <trkpt lat="42.766185" lon="-0.634228">
        <ele>1582.9</ele>
        <time>2017-08-15T15:24:33Z</time>
      </trkpt>
      <trkpt lat="42.766036" lon="-0.634338">
        <ele>1579.6</ele>
        <time>2017-08-15T15:24:40Z</time>
      </trkpt>
      <trkpt lat="42.766001" lon="-0.634362">
        <ele>1577.2</ele>
        <time>2017-08-15T15:24:45Z</time>
      </trkpt>
      <trkpt lat="42.765938" lon="-0.634417">
        <ele>1573.3</ele>
        <time>2017-08-15T15:24:50Z</time>
      </trkpt>
      <trkpt lat="42.765751" lon="-0.634511">
        <ele>1572.4</ele>
        <time>2017-08-15T15:24:52Z</time>
      </trkpt>
      <trkpt lat="42.765510" lon="-0.634616">
        <ele>1571.9</ele>
        <time>2017-08-15T15:25:06Z</time>
      </trkpt>
      <trkpt lat="42.765247" lon="-0.634761">
        <ele>1570.9</ele>
        <time>2017-08-15T15:25:09Z</time>
      </trkpt>
      <trkpt lat="42.765097" lon="-0.634824">
        <ele>1569.0</ele>
        <time>2017-08-15T15:25:23Z</time>
      </trkpt>
      <trkpt lat="42.764949" lon="-0.634874">
        <ele>1566.6</ele>
      </trkpt>
      <trkpt lat="42.764828" lon="-0.634939">
        <ele>1563.2</ele>
      </trkpt>
      <trkpt lat="42.764775" lon="-0.634943">
        <ele>1558.9</ele>
      </trkpt>
      <trkpt lat="42.764760" lon="-0.634939">
        <ele>1557.5</ele>
      </trkpt>
      <trkpt lat="42.764701" lon="-0.634905">
        <ele>1557.5</ele>
      </trkpt>
      <trkpt lat="42.764624" lon="-0.634841">
        <ele>1557.5</ele>
      </trkpt>
      <trkpt lat="42.764595" lon="-0.634826">
        <ele>1557.5</ele>
      </trkpt>
      <trkpt lat="42.764544" lon="-0.634736">
        <ele>1557.5</ele>
      </trkpt>
      <trkpt lat="42.764456" lon="-0.634723">
        <ele>1555.6</ele>
      </trkpt>
      <trkpt lat="42.764420" lon="-0.634707">
        <ele>1554.6</ele>
      </trkpt>
      <trkpt lat="42.764360" lon="-0.634637">
        <ele>1550.7</ele>
      </trkpt>
      <trkpt lat="42.764303" lon="-0.634609">
        <ele>1546.4</ele>
      </trkpt>
      <trkpt lat="42.764295" lon="-0.634606">
        <ele>1545.9</ele>
      </trkpt>
      <trkpt lat="42.764267" lon="-0.634614">
        <ele>1545.9</ele>
      </trkpt>
      <trkpt lat="42.764206" lon="-0.634580">
        <ele>1545.5</ele>
      </trkpt>
      <trkpt lat="42.764151" lon="-0.634541">
        <ele>1545.5</ele>
      </trkpt>
      <trkpt lat="42.764066" lon="-0.634538">
        <ele>1543.1</ele>
      </trkpt>
      <trkpt lat="42.764018" lon="-0.634504">
        <ele>1540.7</ele>
      </trkpt>
      <trkpt lat="42.763976" lon="-0.634444">
        <ele>1536.8</ele>
      </trkpt>
      <trkpt lat="42.763953" lon="-0.634426">
        <ele>1535.4</ele>
      </trkpt>
      <trkpt lat="42.763884" lon="-0.634233">
        <ele>1534.9</ele>
      </trkpt>
      <trkpt lat="42.763862" lon="-0.634197">
        <ele>1534.4</ele>
      </trkpt>
      <trkpt lat="42.763839" lon="-0.634078">
        <ele>1533.4</ele>
      </trkpt>
      <trkpt lat="42.763840" lon="-0.634078">
        <ele>1533.2</ele>
        <time>2015-06-04T05:50:13Z</time>
      </trkpt>
      <trkpt lat="42.764143" lon="-0.633981">
        <ele>1536.6</ele>
        <time>2015-06-04T05:52:12Z</time>
      </trkpt>
      <trkpt lat="42.764223" lon="-0.633901">
        <ele>1509.9</ele>
        <time>2015-06-04T05:52:17Z</time>
      </trkpt>
      <trkpt lat="42.764276" lon="-0.633813">
        <ele>1509.9</ele>
        <time>2015-06-04T05:52:25Z</time>
      </trkpt>
      <trkpt lat="42.764359" lon="-0.633688">
        <ele>1511.3</ele>
        <time>2015-06-04T05:52:36Z</time>
      </trkpt>
      <trkpt lat="42.764449" lon="-0.633450">
        <ele>1512.8</ele>
        <time>2015-06-04T05:52:51Z</time>
      </trkpt>
      <trkpt lat="42.764545" lon="-0.633254">
        <ele>1511.8</ele>
        <time>2015-06-04T05:53:05Z</time>
      </trkpt>
      <trkpt lat="42.764694" lon="-0.633119">
        <ele>1509.4</ele>
        <time>2015-06-04T05:53:19Z</time>
      </trkpt>
      <trkpt lat="42.764833" lon="-0.632962">
        <ele>1509.4</ele>
        <time>2015-06-04T05:53:35Z</time>
      </trkpt>
      <trkpt lat="42.765016" lon="-0.632809">
        <ele>1509.4</ele>
        <time>2015-06-04T05:53:50Z</time>
      </trkpt>
      <trkpt lat="42.765212" lon="-0.632685">
        <ele>1509.4</ele>
        <time>2015-06-04T05:54:06Z</time>
      </trkpt>
      <trkpt lat="42.765371" lon="-0.632611">
        <ele>1509.4</ele>
        <time>2015-06-04T05:54:20Z</time>
      </trkpt>
      <trkpt lat="42.765526" lon="-0.632487">
        <ele>1509.4</ele>
        <time>2015-06-04T05:54:34Z</time>
      </trkpt>
      <trkpt lat="42.765699" lon="-0.632392">
        <ele>1508.9</ele>
        <time>2015-06-04T05:54:48Z</time>
      </trkpt>
      <trkpt lat="42.765869" lon="-0.632289">
        <ele>1507.5</ele>
        <time>2015-06-04T05:55:02Z</time>
      </trkpt>
      <trkpt lat="42.765972" lon="-0.632138">
        <ele>1506.0</ele>
        <time>2015-06-04T05:55:15Z</time>
      </trkpt>
      <trkpt lat="42.766072" lon="-0.631979">
        <ele>1505.6</ele>
        <time>2015-06-04T05:55:28Z</time>
      </trkpt>
      <trkpt lat="42.766213" lon="-0.631845">
        <ele>1504.6</ele>
        <time>2015-06-04T05:55:41Z</time>
      </trkpt>
      <trkpt lat="42.766337" lon="-0.631741">
        <ele>1503.6</ele>
        <time>2015-06-04T05:55:54Z</time>
      </trkpt>
      <trkpt lat="42.766439" lon="-0.631634">
        <ele>1501.7</ele>
        <time>2015-06-04T05:56:05Z</time>
      </trkpt>
      <trkpt lat="42.766544" lon="-0.631496">
        <ele>1500.8</ele>
        <time>2015-06-04T05:56:17Z</time>
      </trkpt>
      <trkpt lat="42.766650" lon="-0.631320">
        <ele>1499.8</ele>
        <time>2015-06-04T05:56:31Z</time>
      </trkpt>
      <trkpt lat="42.766753" lon="-0.631173">
        <ele>1499.8</ele>
        <time>2015-06-04T05:56:44Z</time>
      </trkpt>
      <trkpt lat="42.766816" lon="-0.630942">
        <ele>1498.8</ele>
        <time>2015-06-04T05:56:59Z</time>
      </trkpt>
      <trkpt lat="42.766901" lon="-0.630728">
        <ele>1498.8</ele>
        <time>2015-06-04T05:57:13Z</time>
      </trkpt>
      <trkpt lat="42.766902" lon="-0.630698">
        <ele>1498.8</ele>
        <time>2015-06-04T05:57:15Z</time>
      </trkpt>
      <trkpt lat="42.766858" lon="-0.630638">
        <ele>1498.8</ele>
        <time>2015-06-04T05:57:21Z</time>
      </trkpt>
      <trkpt lat="42.766813" lon="-0.630630">
        <ele>1498.8</ele>
        <time>2015-06-04T05:57:25Z</time>
      </trkpt>
      <trkpt lat="42.766652" lon="-0.630575">
        <ele>1498.8</ele>
        <time>2015-06-04T05:57:38Z</time>
      </trkpt>
      <trkpt lat="42.766659" lon="-0.630411">
        <ele>1498.8</ele>
        <time>2015-06-04T05:57:47Z</time>
      </trkpt>
      <trkpt lat="42.766686" lon="-0.630219">
        <ele>1498.8</ele>
        <time>2015-06-04T05:58:00Z</time>
      </trkpt>
      <trkpt lat="42.766728" lon="-0.629990">
        <ele>1498.8</ele>
        <time>2015-06-04T05:58:13Z</time>
      </trkpt>
      <trkpt lat="42.766808" lon="-0.629752">
        <ele>1498.8</ele>
        <time>2015-06-04T05:58:28Z</time>
      </trkpt>
      <trkpt lat="42.766829" lon="-0.629526">
        <ele>1498.8</ele>
        <time>2015-06-04T05:58:41Z</time>
      </trkpt>
      <trkpt lat="42.766833" lon="-0.629324">
        <ele>1498.8</ele>
        <time>2015-06-04T05:58:54Z</time>
      </trkpt>
      <trkpt lat="42.766822" lon="-0.629063">
        <ele>1498.8</ele>
        <time>2015-06-04T05:59:09Z</time>
      </trkpt>
      <trkpt lat="42.766746" lon="-0.628845">
        <ele>1498.8</ele>
        <time>2015-06-04T05:59:24Z</time>
      </trkpt>
      <trkpt lat="42.766724" lon="-0.628817">
        <ele>1498.8</ele>
        <time>2015-06-04T05:59:26Z</time>
      </trkpt>
      <trkpt lat="42.766681" lon="-0.628731">
        <ele>1498.8</ele>
        <time>2015-06-04T05:59:32Z</time>
      </trkpt>
      <trkpt lat="42.766663" lon="-0.628705">
        <ele>1498.8</ele>
        <time>2015-06-04T05:59:35Z</time>
      </trkpt>
      <trkpt lat="42.766600" lon="-0.628471">
        <ele>1498.8</ele>
        <time>2015-06-04T05:59:49Z</time>
      </trkpt>
      <trkpt lat="42.766712" lon="-0.628253">
        <ele>1499.3</ele>
        <time>2015-06-04T06:00:03Z</time>
      </trkpt>
      <trkpt lat="42.766707" lon="-0.628124">
        <ele>1499.3</ele>
        <time>2015-06-04T06:00:12Z</time>
      </trkpt>
      <trkpt lat="42.766611" lon="-0.627932">
        <ele>1499.3</ele>
        <time>2015-06-04T06:00:26Z</time>
      </trkpt>
      <trkpt lat="42.766491" lon="-0.627863">
        <ele>1499.8</ele>
        <time>2015-06-04T06:00:37Z</time>
      </trkpt>
      <trkpt lat="42.766303" lon="-0.627859">
        <ele>1499.8</ele>
        <time>2015-06-04T06:00:52Z</time>
      </trkpt>
      <trkpt lat="42.766197" lon="-0.627826">
        <ele>1499.8</ele>
        <time>2015-06-04T06:01:00Z</time>
      </trkpt>
      <trkpt lat="42.766162" lon="-0.627745">
        <ele>1499.8</ele>
        <time>2015-06-04T06:01:06Z</time>
      </trkpt>
      <trkpt lat="42.766110" lon="-0.627498">
        <ele>1499.8</ele>
        <time>2015-06-04T06:01:21Z</time>
      </trkpt>
      <trkpt lat="42.766111" lon="-0.627278">
        <ele>1499.8</ele>
        <time>2015-06-04T06:01:34Z</time>
      </trkpt>
      <trkpt lat="42.766136" lon="-0.627191">
        <ele>1499.8</ele>
        <time>2015-06-04T06:01:39Z</time>
      </trkpt>
      <trkpt lat="42.766185" lon="-0.627084">
        <ele>1500.3</ele>
        <time>2015-06-04T06:01:47Z</time>
      </trkpt>
      <trkpt lat="42.766233" lon="-0.626850">
        <ele>1500.3</ele>
        <time>2015-06-04T06:02:01Z</time>
      </trkpt>
      <trkpt lat="42.766283" lon="-0.626670">
        <ele>1501.7</ele>
        <time>2015-06-04T06:02:14Z</time>
      </trkpt>
      <trkpt lat="42.766261" lon="-0.626457">
        <ele>1503.2</ele>
        <time>2015-06-04T06:02:26Z</time>
      </trkpt>
      <trkpt lat="42.766162" lon="-0.626287">
        <ele>1505.1</ele>
        <time>2015-06-04T06:02:40Z</time>
      </trkpt>
      <trkpt lat="42.766072" lon="-0.626060">
        <ele>1506.5</ele>
        <time>2015-06-04T06:02:54Z</time>
      </trkpt>
      <trkpt lat="42.765980" lon="-0.625823">
        <ele>1507.5</ele>
        <time>2015-06-04T06:03:10Z</time>
      </trkpt>
      <trkpt lat="42.765944" lon="-0.625751">
        <ele>1507.5</ele>
        <time>2015-06-04T06:03:15Z</time>
      </trkpt>
      <trkpt lat="42.765924" lon="-0.625716">
        <ele>1506.5</ele>
        <time>2015-06-04T06:03:19Z</time>
      </trkpt>
      <trkpt lat="42.765889" lon="-0.625615">
        <ele>1506.5</ele>
        <time>2015-06-04T06:03:27Z</time>
      </trkpt>
      <trkpt lat="42.765825" lon="-0.625391">
        <ele>1506.5</ele>
        <time>2015-06-04T06:03:41Z</time>
      </trkpt>
      <trkpt lat="42.765808" lon="-0.625350">
        <ele>1507.0</ele>
        <time>2015-06-04T06:03:44Z</time>
      </trkpt>
      <trkpt lat="42.765748" lon="-0.625156">
        <ele>1508.0</ele>
        <time>2015-06-04T06:03:56Z</time>
      </trkpt>
      <trkpt lat="42.765719" lon="-0.624968">
        <ele>1509.9</ele>
        <time>2015-06-04T06:04:09Z</time>
      </trkpt>
      <trkpt lat="42.765677" lon="-0.624870">
        <ele>1511.3</ele>
        <time>2015-06-04T06:04:15Z</time>
      </trkpt>
      <trkpt lat="42.765670" lon="-0.624853">
        <ele>1511.3</ele>
        <time>2015-06-04T06:04:16Z</time>
      </trkpt>
      <trkpt lat="42.765595" lon="-0.624627">
        <ele>1511.3</ele>
        <time>2015-06-04T06:04:29Z</time>
      </trkpt>
      <trkpt lat="42.765566" lon="-0.624540">
        <ele>1511.3</ele>
        <time>2015-06-04T06:04:34Z</time>
      </trkpt>
      <trkpt lat="42.765559" lon="-0.624484">
        <ele>1510.8</ele>
        <time>2015-06-04T06:04:38Z</time>
      </trkpt>
      <trkpt lat="42.765573" lon="-0.624435">
        <ele>1510.4</ele>
        <time>2015-06-04T06:04:42Z</time>
      </trkpt>
      <trkpt lat="42.765610" lon="-0.624412">
        <ele>1509.9</ele>
        <time>2015-06-04T06:04:45Z</time>
      </trkpt>
      <trkpt lat="42.765745" lon="-0.623975">
        <ele>1522.9</ele>
        <time>2015-06-04T06:22:47Z</time>
      </trkpt>
      <trkpt lat="42.765774" lon="-0.623952">
        <ele>1522.9</ele>
        <time>2015-06-04T06:22:51Z</time>
      </trkpt>
      <trkpt lat="42.765860" lon="-0.623870">
        <ele>1523.8</ele>
        <time>2015-06-04T06:23:03Z</time>
      </trkpt>
      <trkpt lat="42.765880" lon="-0.623808">
        <ele>1523.8</ele>
        <time>2015-06-04T06:23:16Z</time>
      </trkpt>
      <trkpt lat="42.765878" lon="-0.623772">
        <ele>1524.3</ele>
        <time>2015-06-04T06:23:32Z</time>
      </trkpt>
      <trkpt lat="42.765744" lon="-0.623660">
        <ele>1525.3</ele>
        <time>2015-06-04T06:23:46Z</time>
      </trkpt>
      <trkpt lat="42.765680" lon="-0.623645">
        <ele>1527.7</ele>
        <time>2015-06-04T06:23:51Z</time>
      </trkpt>
      <trkpt lat="42.765660" lon="-0.623655">
        <ele>1529.6</ele>
        <time>2015-06-04T06:23:53Z</time>
      </trkpt>
      <trkpt lat="42.765585" lon="-0.623713">
        <ele>1533.4</ele>
        <time>2015-06-04T06:24:03Z</time>
      </trkpt>
      <trkpt lat="42.765515" lon="-0.623674">
        <ele>1534.4</ele>
        <time>2015-06-04T06:24:09Z</time>
      </trkpt>
      <trkpt lat="42.765487" lon="-0.623608">
        <ele>1535.8</ele>
        <time>2015-06-04T06:24:15Z</time>
      </trkpt>
      <trkpt lat="42.765405" lon="-0.623442">
        <ele>1538.7</ele>
        <time>2015-06-04T06:24:31Z</time>
      </trkpt>
      <trkpt lat="42.765269" lon="-0.623310">
        <ele>1541.1</ele>
        <time>2015-06-04T06:24:46Z</time>
      </trkpt>
      <trkpt lat="42.765242" lon="-0.623283">
        <ele>1541.6</ele>
        <time>2015-06-04T06:24:49Z</time>
      </trkpt>
      <trkpt lat="42.765094" lon="-0.623200">
        <ele>1544.0</ele>
        <time>2015-06-04T06:25:05Z</time>
      </trkpt>
      <trkpt lat="42.765013" lon="-0.623093">
        <ele>1545.0</ele>
        <time>2015-06-04T06:25:14Z</time>
      </trkpt>
      <trkpt lat="42.764959" lon="-0.623039">
        <ele>1545.9</ele>
        <time>2015-06-04T06:25:21Z</time>
      </trkpt>
      <trkpt lat="42.764937" lon="-0.623039">
        <ele>1545.9</ele>
        <time>2015-06-04T06:25:23Z</time>
      </trkpt>
      <trkpt lat="42.764892" lon="-0.623032">
        <ele>1546.4</ele>
        <time>2015-06-04T06:25:35Z</time>
      </trkpt>
      <trkpt lat="42.764762" lon="-0.623002">
        <ele>1547.4</ele>
        <time>2015-06-04T06:25:47Z</time>
      </trkpt>
      <trkpt lat="42.764636" lon="-0.622995">
        <ele>1549.8</ele>
        <time>2015-06-04T06:25:59Z</time>
      </trkpt>
      <trkpt lat="42.764479" lon="-0.622941">
        <ele>1552.7</ele>
        <time>2015-06-04T06:26:13Z</time>
      </trkpt>
      <trkpt lat="42.764397" lon="-0.622893">
        <ele>1554.6</ele>
        <time>2015-06-04T06:26:22Z</time>
      </trkpt>
      <trkpt lat="42.764288" lon="-0.622815">
        <ele>1556.0</ele>
        <time>2015-06-04T06:26:34Z</time>
      </trkpt>
      <trkpt lat="42.764189" lon="-0.622790">
        <ele>1557.5</ele>
        <time>2015-06-04T06:26:45Z</time>
      </trkpt>
      <trkpt lat="42.764159" lon="-0.622797">
        <ele>1560.8</ele>
        <time>2015-06-04T06:26:49Z</time>
      </trkpt>
      <trkpt lat="42.764047" lon="-0.622846">
        <ele>1564.7</ele>
        <time>2015-06-04T06:27:00Z</time>
      </trkpt>
      <trkpt lat="42.763875" lon="-0.622879">
        <ele>1567.1</ele>
        <time>2015-06-04T06:27:15Z</time>
      </trkpt>
      <trkpt lat="42.763857" lon="-0.622865">
        <ele>1568.1</ele>
        <time>2015-06-04T06:27:17Z</time>
      </trkpt>
      <trkpt lat="42.763805" lon="-0.622860">
        <ele>1571.9</ele>
        <time>2015-06-04T06:27:23Z</time>
      </trkpt>
      <trkpt lat="42.763733" lon="-0.622801">
        <ele>1572.8</ele>
        <time>2015-06-04T06:27:31Z</time>
      </trkpt>
      <trkpt lat="42.763630" lon="-0.622693">
        <ele>1574.3</ele>
        <time>2015-06-04T06:27:44Z</time>
      </trkpt>
      <trkpt lat="42.763612" lon="-0.622681">
        <ele>1574.8</ele>
        <time>2015-06-04T06:27:46Z</time>
      </trkpt>
      <trkpt lat="42.763551" lon="-0.622633">
        <ele>1575.3</ele>
        <time>2015-06-04T06:27:54Z</time>
      </trkpt>
      <trkpt lat="42.763534" lon="-0.622620">
        <ele>1575.7</ele>
        <time>2015-06-04T06:27:56Z</time>
      </trkpt>
      <trkpt lat="42.763492" lon="-0.622582">
        <ele>1575.7</ele>
        <time>2015-06-04T06:28:00Z</time>
      </trkpt>
      <trkpt lat="42.763359" lon="-0.622545">
        <ele>1577.2</ele>
        <time>2015-06-04T06:28:13Z</time>
      </trkpt>
      <trkpt lat="42.763340" lon="-0.622540">
        <ele>1577.2</ele>
        <time>2015-06-04T06:28:15Z</time>
      </trkpt>
      <trkpt lat="42.763299" lon="-0.622544">
        <ele>1577.7</ele>
        <time>2015-06-04T06:28:19Z</time>
      </trkpt>
      <trkpt lat="42.763148" lon="-0.622510">
        <ele>1577.7</ele>
        <time>2015-06-04T06:28:33Z</time>
      </trkpt>
      <trkpt lat="42.763154" lon="-0.622545">
        <ele>1577.7</ele>
        <time>2015-06-04T06:28:38Z</time>
      </trkpt>
      <trkpt lat="42.763152" lon="-0.622570">
        <ele>1577.7</ele>
        <time>2015-06-04T06:28:40Z</time>
      </trkpt>
      <trkpt lat="42.763152" lon="-0.622570">
        <ele>1577.7</ele>
        <time>2015-06-04T06:28:46Z</time>
      </trkpt>
      <trkpt lat="42.763153" lon="-0.622567">
        <ele>1577.7</ele>
        <time>2015-06-04T06:29:24Z</time>
      </trkpt>
      <trkpt lat="42.763182" lon="-0.622498">
        <ele>1577.7</ele>
        <time>2015-06-04T06:29:36Z</time>
      </trkpt>
      <trkpt lat="42.763188" lon="-0.622514">
        <ele>1577.7</ele>
        <time>2015-06-04T06:29:48Z</time>
      </trkpt>
      <trkpt lat="42.763189" lon="-0.622517">
        <ele>1578.1</ele>
        <time>2015-06-04T06:30:12Z</time>
      </trkpt>
      <trkpt lat="42.763189" lon="-0.622517">
        <ele>1579.1</ele>
        <time>2015-06-04T06:30:31Z</time>
      </trkpt>
      <trkpt lat="42.763243" lon="-0.622482">
        <ele>1580.1</ele>
        <time>2015-06-04T06:30:43Z</time>
      </trkpt>
      <trkpt lat="42.763262" lon="-0.622441">
        <ele>1580.1</ele>
        <time>2015-06-04T06:30:47Z</time>
      </trkpt>
      <trkpt lat="42.763295" lon="-0.622346">
        <ele>1582.0</ele>
        <time>2015-06-04T06:30:52Z</time>
      </trkpt>
      <trkpt lat="42.763296" lon="-0.622297">
        <ele>1582.0</ele>
        <time>2015-06-04T06:30:54Z</time>
      </trkpt>
      <trkpt lat="42.763339" lon="-0.622189">
        <ele>1582.0</ele>
        <time>2015-06-04T06:31:00Z</time>
      </trkpt>
      <trkpt lat="42.763339" lon="-0.622189">
        <ele>1582.0</ele>
        <time>2015-06-04T06:31:09Z</time>
      </trkpt>
      <trkpt lat="42.763332" lon="-0.622149">
        <ele>1582.9</ele>
        <time>2015-06-04T06:31:21Z</time>
      </trkpt>
      <trkpt lat="42.763302" lon="-0.622095">
        <ele>1586.8</ele>
        <time>2015-06-04T06:31:26Z</time>
      </trkpt>
      <trkpt lat="42.763294" lon="-0.622052">
        <ele>1588.2</ele>
        <time>2015-06-04T06:31:29Z</time>
      </trkpt>
      <trkpt lat="42.763240" lon="-0.621939">
        <ele>1591.1</ele>
        <time>2015-06-04T06:31:40Z</time>
      </trkpt>
      <trkpt lat="42.763227" lon="-0.621860">
        <ele>1592.6</ele>
        <time>2015-06-04T06:31:46Z</time>
      </trkpt>
      <trkpt lat="42.763209" lon="-0.621799">
        <ele>1593.5</ele>
        <time>2015-06-04T06:31:51Z</time>
      </trkpt>
      <trkpt lat="42.763207" lon="-0.621756">
        <ele>1594.5</ele>
        <time>2015-06-04T06:31:54Z</time>
      </trkpt>
      <trkpt lat="42.763189" lon="-0.621647">
        <ele>1596.4</ele>
        <time>2015-06-04T06:32:02Z</time>
      </trkpt>
      <trkpt lat="42.763199" lon="-0.621506">
        <ele>1597.8</ele>
        <time>2015-06-04T06:32:13Z</time>
      </trkpt>
      <trkpt lat="42.763171" lon="-0.621471">
        <ele>1598.3</ele>
        <time>2015-06-04T06:32:17Z</time>
      </trkpt>
      <trkpt lat="42.763168" lon="-0.621443">
        <ele>1598.8</ele>
        <time>2015-06-04T06:32:20Z</time>
      </trkpt>
      <trkpt lat="42.763107" lon="-0.621360">
        <ele>1599.8</ele>
        <time>2015-06-04T06:32:31Z</time>
      </trkpt>
      <trkpt lat="42.763065" lon="-0.621252">
        <ele>1602.7</ele>
        <time>2015-06-04T06:32:43Z</time>
      </trkpt>
      <trkpt lat="42.763070" lon="-0.621183">
        <ele>1603.1</ele>
        <time>2015-06-04T06:32:48Z</time>
      </trkpt>
      <trkpt lat="42.763131" lon="-0.621129">
        <ele>1604.1</ele>
        <time>2015-06-04T06:32:55Z</time>
      </trkpt>
      <trkpt lat="42.763289" lon="-0.621011">
        <ele>1607.0</ele>
        <time>2015-06-04T06:33:09Z</time>
      </trkpt>
      <trkpt lat="42.763342" lon="-0.620958">
        <ele>1608.4</ele>
        <time>2015-06-04T06:33:14Z</time>
      </trkpt>
      <trkpt lat="42.763400" lon="-0.620842">
        <ele>1609.4</ele>
        <time>2015-06-04T06:33:24Z</time>
      </trkpt>
      <trkpt lat="42.763410" lon="-0.620824">
        <ele>1609.4</ele>
        <time>2015-06-04T06:33:25Z</time>
      </trkpt>
      <trkpt lat="42.763534" lon="-0.620677">
        <ele>1611.8</ele>
        <time>2015-06-04T06:33:37Z</time>
      </trkpt>
      <trkpt lat="42.763665" lon="-0.620545">
        <ele>1614.7</ele>
        <time>2015-06-04T06:33:53Z</time>
      </trkpt>
      <trkpt lat="42.763728" lon="-0.620454">
        <ele>1616.6</ele>
        <time>2015-06-04T06:34:01Z</time>
      </trkpt>
      <trkpt lat="42.763741" lon="-0.620444">
        <ele>1616.6</ele>
        <time>2015-06-04T06:34:03Z</time>
      </trkpt>
      <trkpt lat="42.763821" lon="-0.620307">
        <ele>1618.5</ele>
        <time>2015-06-04T06:34:13Z</time>
      </trkpt>
      <trkpt lat="42.763884" lon="-0.620244">
        <ele>1620.9</ele>
        <time>2015-06-04T06:34:26Z</time>
      </trkpt>
      <trkpt lat="42.763923" lon="-0.620166">
        <ele>1622.8</ele>
        <time>2015-06-04T06:34:37Z</time>
      </trkpt>
      <trkpt lat="42.763931" lon="-0.620136">
        <ele>1623.3</ele>
        <time>2015-06-04T06:34:41Z</time>
      </trkpt>
      <trkpt lat="42.763968" lon="-0.620076">
        <ele>1623.8</ele>
        <time>2015-06-04T06:34:46Z</time>
      </trkpt>
      <trkpt lat="42.764015" lon="-0.619911">
        <ele>1625.2</ele>
        <time>2015-06-04T06:34:59Z</time>
      </trkpt>
      <trkpt lat="42.764024" lon="-0.619647">
        <ele>1626.2</ele>
        <time>2015-06-04T06:35:15Z</time>
      </trkpt>
      <trkpt lat="42.764073" lon="-0.619451">
        <ele>1627.2</ele>
        <time>2015-06-04T06:35:28Z</time>
      </trkpt>
      <trkpt lat="42.764089" lon="-0.619385">
        <ele>1630.5</ele>
        <time>2015-06-04T06:35:32Z</time>
      </trkpt>
      <trkpt lat="42.764146" lon="-0.619288">
        <ele>1633.4</ele>
        <time>2015-06-04T06:35:39Z</time>
      </trkpt>
      <trkpt lat="42.764171" lon="-0.619120">
        <ele>1636.3</ele>
        <time>2015-06-04T06:35:50Z</time>
      </trkpt>
      <trkpt lat="42.764249" lon="-0.618905">
        <ele>1638.7</ele>
        <time>2015-06-04T06:36:05Z</time>
      </trkpt>
      <trkpt lat="42.764318" lon="-0.618784">
        <ele>1641.6</ele>
        <time>2015-06-04T06:36:19Z</time>
      </trkpt>
      <trkpt lat="42.764349" lon="-0.618741">
        <ele>1645.4</ele>
        <time>2015-06-04T06:36:25Z</time>
      </trkpt>
      <trkpt lat="42.764364" lon="-0.618680">
        <ele>1646.9</ele>
        <time>2015-06-04T06:36:30Z</time>
      </trkpt>
      <trkpt lat="42.764393" lon="-0.618630">
        <ele>1646.9</ele>
        <time>2015-06-04T06:36:35Z</time>
      </trkpt>
      <trkpt lat="42.764416" lon="-0.618551">
        <ele>1646.4</ele>
        <time>2015-06-04T06:36:40Z</time>
      </trkpt>
      <trkpt lat="42.764455" lon="-0.618457">
        <ele>1645.9</ele>
        <time>2015-06-04T06:36:49Z</time>
      </trkpt>
      <trkpt lat="42.764485" lon="-0.618383">
        <ele>1644.9</ele>
        <time>2015-06-04T06:36:54Z</time>
      </trkpt>
      <trkpt lat="42.764531" lon="-0.618195">
        <ele>1645.4</ele>
        <time>2015-06-04T06:37:07Z</time>
      </trkpt>
      <trkpt lat="42.764549" lon="-0.618112">
        <ele>1648.3</ele>
        <time>2015-06-04T06:37:11Z</time>
      </trkpt>
      <trkpt lat="42.764579" lon="-0.618022">
        <ele>1651.7</ele>
        <time>2015-06-04T06:37:16Z</time>
      </trkpt>
      <trkpt lat="42.764619" lon="-0.617866">
        <ele>1654.1</ele>
        <time>2015-06-04T06:37:28Z</time>
      </trkpt>
      <trkpt lat="42.764619" lon="-0.617866">
        <ele>1654.6</ele>
        <time>2015-06-04T06:37:30Z</time>
      </trkpt>
      <trkpt lat="42.764641" lon="-0.617795">
        <ele>1656.0</ele>
        <time>2015-06-04T06:37:41Z</time>
      </trkpt>
      <trkpt lat="42.764661" lon="-0.617688">
        <ele>1657.0</ele>
        <time>2015-06-04T06:37:53Z</time>
      </trkpt>
      <trkpt lat="42.764676" lon="-0.617635">
        <ele>1659.8</ele>
        <time>2015-06-04T06:37:57Z</time>
      </trkpt>
      <trkpt lat="42.764697" lon="-0.617569">
        <ele>1663.2</ele>
        <time>2015-06-04T06:38:04Z</time>
      </trkpt>
      <trkpt lat="42.764657" lon="-0.617492">
        <ele>1666.1</ele>
        <time>2015-06-04T06:38:17Z</time>
      </trkpt>
      <trkpt lat="42.764631" lon="-0.617420">
        <ele>1667.5</ele>
        <time>2015-06-04T06:38:24Z</time>
      </trkpt>
      <trkpt lat="42.764608" lon="-0.617324">
        <ele>1668.5</ele>
        <time>2015-06-04T06:38:32Z</time>
      </trkpt>
      <trkpt lat="42.764564" lon="-0.617238">
        <ele>1669.9</ele>
        <time>2015-06-04T06:38:42Z</time>
      </trkpt>
      <trkpt lat="42.764465" lon="-0.617088">
        <ele>1672.3</ele>
        <time>2015-06-04T06:38:57Z</time>
      </trkpt>
      <trkpt lat="42.764424" lon="-0.617042">
        <ele>1672.8</ele>
        <time>2015-06-04T06:39:02Z</time>
      </trkpt>
      <trkpt lat="42.764395" lon="-0.616916">
        <ele>1674.8</ele>
        <time>2015-06-04T06:39:11Z</time>
      </trkpt>
      <trkpt lat="42.764346" lon="-0.616724">
        <ele>1676.7</ele>
        <time>2015-06-04T06:39:23Z</time>
      </trkpt>
      <trkpt lat="42.764323" lon="-0.616665">
        <ele>1677.6</ele>
        <time>2015-06-04T06:39:28Z</time>
      </trkpt>
      <trkpt lat="42.764231" lon="-0.616478">
        <ele>1678.1</ele>
        <time>2015-06-04T06:39:40Z</time>
      </trkpt>
      <trkpt lat="42.764147" lon="-0.616309">
        <ele>1678.1</ele>
        <time>2015-06-04T06:39:54Z</time>
      </trkpt>
      <trkpt lat="42.764146" lon="-0.616270">
        <ele>1679.6</ele>
        <time>2015-06-04T06:39:56Z</time>
      </trkpt>
      <trkpt lat="42.764151" lon="-0.616258">
        <ele>1680.0</ele>
        <time>2015-06-04T06:39:57Z</time>
      </trkpt>
      <trkpt lat="42.764150" lon="-0.616229">
        <ele>1681.5</ele>
        <time>2015-06-04T06:39:59Z</time>
      </trkpt>
      <trkpt lat="42.764152" lon="-0.616218">
        <ele>1682.4</ele>
        <time>2015-06-04T06:40:00Z</time>
      </trkpt>
      <trkpt lat="42.764160" lon="-0.616152">
        <ele>1687.2</ele>
        <time>2015-06-04T06:40:05Z</time>
      </trkpt>
      <trkpt lat="42.764158" lon="-0.616135">
        <ele>1687.7</ele>
        <time>2015-06-04T06:40:07Z</time>
      </trkpt>
      <trkpt lat="42.764146" lon="-0.615937">
        <ele>1689.7</ele>
        <time>2015-06-04T06:40:21Z</time>
      </trkpt>
      <trkpt lat="42.764143" lon="-0.615899">
        <ele>1689.7</ele>
        <time>2015-06-04T06:40:25Z</time>
      </trkpt>
      <trkpt lat="42.764157" lon="-0.615830">
        <ele>1691.1</ele>
        <time>2015-06-04T06:40:35Z</time>
      </trkpt>
      <trkpt lat="42.764150" lon="-0.615780">
        <ele>1694.9</ele>
        <time>2015-06-04T06:40:40Z</time>
      </trkpt>
      <trkpt lat="42.764185" lon="-0.615658">
        <ele>1698.8</ele>
        <time>2015-06-04T06:40:53Z</time>
      </trkpt>
      <trkpt lat="42.764199" lon="-0.615586">
        <ele>1700.2</ele>
        <time>2015-06-04T06:40:58Z</time>
      </trkpt>
      <trkpt lat="42.764252" lon="-0.615468">
        <ele>1702.6</ele>
        <time>2015-06-04T06:41:09Z</time>
      </trkpt>
      <trkpt lat="42.764325" lon="-0.615421">
        <ele>1703.6</ele>
        <time>2015-06-04T06:41:16Z</time>
      </trkpt>
      <trkpt lat="42.764440" lon="-0.615340">
        <ele>1703.6</ele>
        <time>2015-06-04T06:41:29Z</time>
      </trkpt>
      <trkpt lat="42.764456" lon="-0.615317">
        <ele>1704.1</ele>
        <time>2015-06-04T06:41:31Z</time>
      </trkpt>
      <trkpt lat="42.764464" lon="-0.615282">
        <ele>1707.0</ele>
        <time>2015-06-04T06:41:36Z</time>
      </trkpt>
      <trkpt lat="42.764484" lon="-0.615269">
        <ele>1710.3</ele>
        <time>2015-06-04T06:41:40Z</time>
      </trkpt>
      <trkpt lat="42.764552" lon="-0.615296">
        <ele>1714.2</ele>
        <time>2015-06-04T06:41:49Z</time>
      </trkpt>
      <trkpt lat="42.764552" lon="-0.615296">
        <ele>1714.7</ele>
        <time>2015-06-04T06:41:51Z</time>
      </trkpt>
      <trkpt lat="42.764599" lon="-0.615234">
        <ele>1716.6</ele>
        <time>2015-06-04T06:42:02Z</time>
      </trkpt>
      <trkpt lat="42.764596" lon="-0.615233">
        <ele>1717.5</ele>
        <time>2015-06-04T06:42:17Z</time>
      </trkpt>
      <trkpt lat="42.764621" lon="-0.615159">
        <ele>1718.0</ele>
        <time>2015-06-04T06:42:29Z</time>
      </trkpt>
      <trkpt lat="42.764623" lon="-0.615148">
        <ele>1718.5</ele>
        <time>2015-06-04T06:42:31Z</time>
      </trkpt>
      <trkpt lat="42.764625" lon="-0.615133">
        <ele>1719.9</ele>
        <time>2015-06-04T06:42:35Z</time>
      </trkpt>
      <trkpt lat="42.764630" lon="-0.615087">
        <ele>1722.8</ele>
        <time>2015-06-04T06:42:41Z</time>
      </trkpt>
      <trkpt lat="42.764633" lon="-0.615079">
        <ele>1723.3</ele>
        <time>2015-06-04T06:42:44Z</time>
      </trkpt>
      <trkpt lat="42.764626" lon="-0.614985">
        <ele>1725.7</ele>
        <time>2015-06-04T06:42:56Z</time>
      </trkpt>
      <trkpt lat="42.764598" lon="-0.614897">
        <ele>1727.6</ele>
        <time>2015-06-04T06:43:08Z</time>
      </trkpt>
      <trkpt lat="42.764598" lon="-0.614816">
        <ele>1729.1</ele>
        <time>2015-06-04T06:43:15Z</time>
      </trkpt>
      <trkpt lat="42.764595" lon="-0.614732">
        <ele>1730.5</ele>
        <time>2015-06-04T06:43:23Z</time>
      </trkpt>
      <trkpt lat="42.764637" lon="-0.614745">
        <ele>1730.5</ele>
        <time>2015-06-04T06:43:32Z</time>
      </trkpt>
      <trkpt lat="42.764639" lon="-0.614705">
        <ele>1731.5</ele>
        <time>2015-06-04T06:43:39Z</time>
      </trkpt>
      <trkpt lat="42.764639" lon="-0.614705">
        <ele>1731.5</ele>
        <time>2015-06-04T06:43:41Z</time>
      </trkpt>
      <trkpt lat="42.764643" lon="-0.614685">
        <ele>1734.8</ele>
        <time>2015-06-04T06:43:46Z</time>
      </trkpt>
      <trkpt lat="42.764685" lon="-0.614661">
        <ele>1738.2</ele>
        <time>2015-06-04T06:43:56Z</time>
      </trkpt>
      <trkpt lat="42.764693" lon="-0.614639">
        <ele>1738.7</ele>
        <time>2015-06-04T06:43:59Z</time>
      </trkpt>
      <trkpt lat="42.764686" lon="-0.614426">
        <ele>1741.6</ele>
        <time>2015-06-04T06:44:14Z</time>
      </trkpt>
      <trkpt lat="42.764652" lon="-0.614333">
        <ele>1741.6</ele>
        <time>2015-06-04T06:44:22Z</time>
      </trkpt>
      <trkpt lat="42.764642" lon="-0.614268">
        <ele>1741.6</ele>
        <time>2015-06-04T06:44:27Z</time>
      </trkpt>
      <trkpt lat="42.764615" lon="-0.614240">
        <ele>1742.1</ele>
        <time>2015-06-04T06:44:31Z</time>
      </trkpt>
      <trkpt lat="42.764563" lon="-0.614222">
        <ele>1742.1</ele>
        <time>2015-06-04T06:44:39Z</time>
      </trkpt>
      <trkpt lat="42.764527" lon="-0.614194">
        <ele>1742.5</ele>
        <time>2015-06-04T06:44:46Z</time>
      </trkpt>
      <trkpt lat="42.764531" lon="-0.614186">
        <ele>1743.0</ele>
        <time>2015-06-04T06:45:03Z</time>
      </trkpt>
      <trkpt lat="42.764543" lon="-0.614150">
        <ele>1744.0</ele>
        <time>2015-06-04T06:45:18Z</time>
      </trkpt>
      <trkpt lat="42.764595" lon="-0.614102">
        <ele>1744.4</ele>
        <time>2015-06-04T06:45:29Z</time>
      </trkpt>
      <trkpt lat="42.764625" lon="-0.614082">
        <ele>1745.9</ele>
        <time>2015-06-04T06:45:36Z</time>
      </trkpt>
      <trkpt lat="42.764683" lon="-0.614045">
        <ele>1750.7</ele>
        <time>2015-06-04T06:45:43Z</time>
      </trkpt>
      <trkpt lat="42.764709" lon="-0.614026">
        <ele>1751.2</ele>
        <time>2015-06-04T06:45:46Z</time>
      </trkpt>
      <trkpt lat="42.764754" lon="-0.613978">
        <ele>1752.6</ele>
        <time>2015-06-04T06:45:52Z</time>
      </trkpt>
      <trkpt lat="42.764813" lon="-0.613955">
        <ele>1753.6</ele>
        <time>2015-06-04T06:45:58Z</time>
      </trkpt>
      <trkpt lat="42.764872" lon="-0.613858">
        <ele>1755.5</ele>
        <time>2015-06-04T06:46:08Z</time>
      </trkpt>
      <trkpt lat="42.764913" lon="-0.613853">
        <ele>1756.5</ele>
        <time>2015-06-04T06:46:14Z</time>
      </trkpt>
      <trkpt lat="42.764929" lon="-0.613864">
        <ele>1756.9</ele>
        <time>2015-06-04T06:46:16Z</time>
      </trkpt>
      <trkpt lat="42.764932" lon="-0.613834">
        <ele>1758.4</ele>
        <time>2015-06-04T06:46:27Z</time>
      </trkpt>
      <trkpt lat="42.764924" lon="-0.613712">
        <ele>1760.3</ele>
        <time>2015-06-04T06:46:41Z</time>
      </trkpt>
      <trkpt lat="42.764951" lon="-0.613620">
        <ele>1761.8</ele>
        <time>2015-06-04T06:46:51Z</time>
      </trkpt>
      <trkpt lat="42.765027" lon="-0.613565">
        <ele>1763.2</ele>
        <time>2015-06-04T06:47:01Z</time>
      </trkpt>
      <trkpt lat="42.765040" lon="-0.613546">
        <ele>1765.1</ele>
        <time>2015-06-04T06:47:03Z</time>
      </trkpt>
      <trkpt lat="42.765046" lon="-0.613525">
        <ele>1766.6</ele>
        <time>2015-06-04T06:47:05Z</time>
      </trkpt>
      <trkpt lat="42.765046" lon="-0.613443">
        <ele>1770.4</ele>
        <time>2015-06-04T06:47:15Z</time>
      </trkpt>
      <trkpt lat="42.765059" lon="-0.613323">
        <ele>1771.8</ele>
        <time>2015-06-04T06:47:25Z</time>
      </trkpt>
      <trkpt lat="42.765061" lon="-0.613309">
        <ele>1772.8</ele>
        <time>2015-06-04T06:47:26Z</time>
      </trkpt>
      <trkpt lat="42.765019" lon="-0.613153">
        <ele>1772.8</ele>
        <time>2015-06-04T06:47:38Z</time>
      </trkpt>
      <trkpt lat="42.764995" lon="-0.613002">
        <ele>1775.2</ele>
        <time>2015-06-04T06:47:50Z</time>
      </trkpt>
      <trkpt lat="42.764997" lon="-0.612968">
        <ele>1776.2</ele>
        <time>2015-06-04T06:47:52Z</time>
      </trkpt>
      <trkpt lat="42.765004" lon="-0.612897">
        <ele>1781.0</ele>
        <time>2015-06-04T06:47:57Z</time>
      </trkpt>
      <trkpt lat="42.765003" lon="-0.612790">
        <ele>1781.0</ele>
        <time>2015-06-04T06:48:07Z</time>
      </trkpt>
      <trkpt lat="42.764962" lon="-0.612706">
        <ele>1781.0</ele>
        <time>2015-06-04T06:48:15Z</time>
      </trkpt>
      <trkpt lat="42.764959" lon="-0.612629">
        <ele>1781.5</ele>
        <time>2015-06-04T06:48:21Z</time>
      </trkpt>
      <trkpt lat="42.764973" lon="-0.612526">
        <ele>1786.3</ele>
        <time>2015-06-04T06:48:26Z</time>
      </trkpt>
      <trkpt lat="42.764987" lon="-0.612448">
        <ele>1787.7</ele>
        <time>2015-06-04T06:48:31Z</time>
      </trkpt>
      <trkpt lat="42.764999" lon="-0.612423">
        <ele>1788.2</ele>
        <time>2015-06-04T06:48:34Z</time>
      </trkpt>
      <trkpt lat="42.765013" lon="-0.612376">
        <ele>1789.6</ele>
        <time>2015-06-04T06:48:38Z</time>
      </trkpt>
      <trkpt lat="42.764997" lon="-0.612275">
        <ele>1790.6</ele>
        <time>2015-06-04T06:48:47Z</time>
      </trkpt>
      <trkpt lat="42.764978" lon="-0.612231">
        <ele>1790.6</ele>
        <time>2015-06-04T06:48:52Z</time>
      </trkpt>
      <trkpt lat="42.764935" lon="-0.612143">
        <ele>1791.1</ele>
        <time>2015-06-04T06:48:57Z</time>
      </trkpt>
      <trkpt lat="42.764943" lon="-0.612135">
        <ele>1791.1</ele>
        <time>2015-06-04T06:48:59Z</time>
      </trkpt>
      <trkpt lat="42.764985" lon="-0.612083">
        <ele>1795.4</ele>
        <time>2015-06-04T06:49:05Z</time>
      </trkpt>
      <trkpt lat="42.765001" lon="-0.612068">
        <ele>1795.9</ele>
        <time>2015-06-04T06:49:07Z</time>
      </trkpt>
      <trkpt lat="42.765005" lon="-0.612047">
        <ele>1796.8</ele>
        <time>2015-06-04T06:49:10Z</time>
      </trkpt>
      <trkpt lat="42.764980" lon="-0.611885">
        <ele>1797.8</ele>
        <time>2015-06-04T06:49:22Z</time>
      </trkpt>
      <trkpt lat="42.765014" lon="-0.611771">
        <ele>1799.2</ele>
        <time>2015-06-04T06:49:30Z</time>
      </trkpt>
      <trkpt lat="42.765048" lon="-0.611720">
        <ele>1803.1</ele>
        <time>2015-06-04T06:49:35Z</time>
      </trkpt>
      <trkpt lat="42.765091" lon="-0.611679">
        <ele>1805.5</ele>
        <time>2015-06-04T06:49:39Z</time>
      </trkpt>
      <trkpt lat="42.765091" lon="-0.611648">
        <ele>1806.4</ele>
        <time>2015-06-04T06:49:41Z</time>
      </trkpt>
      <trkpt lat="42.765130" lon="-0.611571">
        <ele>1807.4</ele>
        <time>2015-06-04T06:49:48Z</time>
      </trkpt>
      <trkpt lat="42.765179" lon="-0.611417">
        <ele>1809.3</ele>
        <time>2015-06-04T06:49:59Z</time>
      </trkpt>
      <trkpt lat="42.765193" lon="-0.611376">
        <ele>1810.3</ele>
        <time>2015-06-04T06:50:03Z</time>
      </trkpt>
      <trkpt lat="42.765114" lon="-0.611340">
        <ele>1812.2</ele>
        <time>2015-06-04T06:50:14Z</time>
      </trkpt>
      <trkpt lat="42.765103" lon="-0.611330">
        <ele>1812.2</ele>
        <time>2015-06-04T06:50:16Z</time>
      </trkpt>
      <trkpt lat="42.764970" lon="-0.611226">
        <ele>1812.2</ele>
        <time>2015-06-04T06:50:29Z</time>
      </trkpt>
      <trkpt lat="42.764917" lon="-0.611218">
        <ele>1813.7</ele>
        <time>2015-06-04T06:50:35Z</time>
      </trkpt>
      <trkpt lat="42.764912" lon="-0.611215">
        <ele>1814.6</ele>
        <time>2015-06-04T06:50:36Z</time>
      </trkpt>
      <trkpt lat="42.764882" lon="-0.611196">
        <ele>1816.1</ele>
        <time>2015-06-04T06:50:39Z</time>
      </trkpt>
      <trkpt lat="42.764827" lon="-0.611046">
        <ele>1819.9</ele>
        <time>2015-06-04T06:50:50Z</time>
      </trkpt>
      <trkpt lat="42.764778" lon="-0.611028">
        <ele>1820.9</ele>
        <time>2015-06-04T06:51:00Z</time>
      </trkpt>
      <trkpt lat="42.764769" lon="-0.611032">
        <ele>1821.3</ele>
        <time>2015-06-04T06:51:01Z</time>
      </trkpt>
      <trkpt lat="42.764741" lon="-0.611009">
        <ele>1821.8</ele>
        <time>2015-06-04T06:51:09Z</time>
      </trkpt>
      <trkpt lat="42.764729" lon="-0.610982">
        <ele>1822.8</ele>
        <time>2015-06-04T06:51:12Z</time>
      </trkpt>
      <trkpt lat="42.764726" lon="-0.610941">
        <ele>1823.3</ele>
        <time>2015-06-04T06:51:18Z</time>
      </trkpt>
      <trkpt lat="42.764709" lon="-0.610803">
        <ele>1823.8</ele>
        <time>2015-06-04T06:51:30Z</time>
      </trkpt>
      <trkpt lat="42.764724" lon="-0.610758">
        <ele>1823.8</ele>
        <time>2015-06-04T06:51:33Z</time>
      </trkpt>
      <trkpt lat="42.764724" lon="-0.610712">
        <ele>1823.8</ele>
        <time>2015-06-04T06:51:38Z</time>
      </trkpt>
      <trkpt lat="42.764720" lon="-0.610724">
        <ele>1824.2</ele>
        <time>2015-06-04T06:51:43Z</time>
      </trkpt>
      <trkpt lat="42.764745" lon="-0.610687">
        <ele>1826.6</ele>
        <time>2015-06-04T06:51:48Z</time>
      </trkpt>
      <trkpt lat="42.764743" lon="-0.610676">
        <ele>1828.1</ele>
        <time>2015-06-04T06:51:50Z</time>
      </trkpt>
      <trkpt lat="42.764760" lon="-0.610642">
        <ele>1830.5</ele>
        <time>2015-06-04T06:51:57Z</time>
      </trkpt>
      <trkpt lat="42.764727" lon="-0.610632">
        <ele>1833.4</ele>
        <time>2015-06-04T06:52:06Z</time>
      </trkpt>
      <trkpt lat="42.764681" lon="-0.610526">
        <ele>1836.3</ele>
        <time>2015-06-04T06:52:19Z</time>
      </trkpt>
      <trkpt lat="42.764654" lon="-0.610346">
        <ele>1838.2</ele>
        <time>2015-06-04T06:52:32Z</time>
      </trkpt>
      <trkpt lat="42.764652" lon="-0.610321">
        <ele>1838.7</ele>
        <time>2015-06-04T06:52:34Z</time>
      </trkpt>
      <trkpt lat="42.764641" lon="-0.610260">
        <ele>1839.1</ele>
        <time>2015-06-04T06:52:39Z</time>
      </trkpt>
      <trkpt lat="42.764625" lon="-0.610142">
        <ele>1841.1</ele>
        <time>2015-06-04T06:52:51Z</time>
      </trkpt>
      <trkpt lat="42.764690" lon="-0.610017">
        <ele>1842.5</ele>
        <time>2015-06-04T06:53:03Z</time>
      </trkpt>
      <trkpt lat="42.764787" lon="-0.609929">
        <ele>1843.5</ele>
        <time>2015-06-04T06:53:17Z</time>
      </trkpt>
      <trkpt lat="42.764816" lon="-0.609279">
        <ele>1859.3</ele>
        <time>2015-06-04T06:57:15Z</time>
      </trkpt>
      <trkpt lat="42.764810" lon="-0.609186">
        <ele>1861.7</ele>
        <time>2015-06-04T06:57:21Z</time>
      </trkpt>
      <trkpt lat="42.764775" lon="-0.609091">
        <ele>1864.1</ele>
        <time>2015-06-04T06:57:34Z</time>
      </trkpt>
      <trkpt lat="42.764719" lon="-0.609053">
        <ele>1866.5</ele>
        <time>2015-06-04T06:57:46Z</time>
      </trkpt>
      <trkpt lat="42.764668" lon="-0.608958">
        <ele>1868.9</ele>
        <time>2015-06-04T06:57:58Z</time>
      </trkpt>
      <trkpt lat="42.764563" lon="-0.608982">
        <ele>1869.9</ele>
        <time>2015-06-04T06:58:08Z</time>
      </trkpt>
      <trkpt lat="42.764535" lon="-0.608809">
        <ele>1870.9</ele>
        <time>2015-06-04T06:58:19Z</time>
      </trkpt>
      <trkpt lat="42.764521" lon="-0.608764">
        <ele>1871.8</ele>
        <time>2015-06-04T06:58:22Z</time>
      </trkpt>
      <trkpt lat="42.764448" lon="-0.608597">
        <ele>1873.3</ele>
        <time>2015-06-04T06:58:35Z</time>
      </trkpt>
      <trkpt lat="42.764438" lon="-0.608577">
        <ele>1874.2</ele>
        <time>2015-06-04T06:58:37Z</time>
      </trkpt>
      <trkpt lat="42.764427" lon="-0.608542">
        <ele>1873.8</ele>
        <time>2015-06-04T06:58:40Z</time>
      </trkpt>
      <trkpt lat="42.764424" lon="-0.608481">
        <ele>1874.7</ele>
        <time>2015-06-04T06:58:44Z</time>
      </trkpt>
      <trkpt lat="42.764354" lon="-0.608235">
        <ele>1876.6</ele>
        <time>2015-06-04T06:58:59Z</time>
      </trkpt>
      <trkpt lat="42.764342" lon="-0.608174">
        <ele>1880.0</ele>
        <time>2015-06-04T06:59:03Z</time>
      </trkpt>
      <trkpt lat="42.764276" lon="-0.608095">
        <ele>1883.4</ele>
        <time>2015-06-04T06:59:12Z</time>
      </trkpt>
      <trkpt lat="42.764247" lon="-0.608090">
        <ele>1883.8</ele>
        <time>2015-06-04T06:59:15Z</time>
      </trkpt>
      <trkpt lat="42.764158" lon="-0.607904">
        <ele>1887.2</ele>
        <time>2015-06-04T06:59:29Z</time>
      </trkpt>
      <trkpt lat="42.764128" lon="-0.607848">
        <ele>1888.2</ele>
        <time>2015-06-04T06:59:33Z</time>
      </trkpt>
      <trkpt lat="42.764091" lon="-0.607675">
        <ele>1889.6</ele>
        <time>2015-06-04T06:59:44Z</time>
      </trkpt>
      <trkpt lat="42.764084" lon="-0.607511">
        <ele>1890.6</ele>
        <time>2015-06-04T06:59:57Z</time>
      </trkpt>
      <trkpt lat="42.764093" lon="-0.607472">
        <ele>1891.1</ele>
        <time>2015-06-04T07:00:01Z</time>
      </trkpt>
      <trkpt lat="42.764114" lon="-0.607401">
        <ele>1895.4</ele>
        <time>2015-06-04T07:00:07Z</time>
      </trkpt>
      <trkpt lat="42.764111" lon="-0.607343">
        <ele>1898.3</ele>
        <time>2015-06-04T07:00:11Z</time>
      </trkpt>
      <trkpt lat="42.764079" lon="-0.607171">
        <ele>1902.6</ele>
        <time>2015-06-04T07:00:25Z</time>
      </trkpt>
      <trkpt lat="42.764023" lon="-0.607053">
        <ele>1904.5</ele>
        <time>2015-06-04T07:00:37Z</time>
      </trkpt>
      <trkpt lat="42.764013" lon="-0.606981">
        <ele>1905.9</ele>
        <time>2015-06-04T07:00:43Z</time>
      </trkpt>
      <trkpt lat="42.764033" lon="-0.606810">
        <ele>1908.3</ele>
        <time>2015-06-04T07:00:57Z</time>
      </trkpt>
      <trkpt lat="42.764067" lon="-0.606725">
        <ele>1910.3</ele>
        <time>2015-06-04T07:01:05Z</time>
      </trkpt>
      <trkpt lat="42.764067" lon="-0.606714">
        <ele>1910.3</ele>
        <time>2015-06-04T07:01:06Z</time>
      </trkpt>
      <trkpt lat="42.763985" lon="-0.606648">
        <ele>1911.2</ele>
        <time>2015-06-04T07:01:20Z</time>
      </trkpt>
      <trkpt lat="42.763927" lon="-0.606686">
        <ele>1911.7</ele>
        <time>2015-06-04T07:01:26Z</time>
      </trkpt>
      <trkpt lat="42.763905" lon="-0.606703">
        <ele>1913.6</ele>
        <time>2015-06-04T07:01:29Z</time>
      </trkpt>
      <trkpt lat="42.763867" lon="-0.606723">
        <ele>1916.0</ele>
        <time>2015-06-04T07:01:32Z</time>
      </trkpt>
      <trkpt lat="42.763856" lon="-0.606689">
        <ele>1918.0</ele>
        <time>2015-06-04T07:01:35Z</time>
      </trkpt>
      <trkpt lat="42.763867" lon="-0.606580">
        <ele>1918.9</ele>
        <time>2015-06-04T07:01:43Z</time>
      </trkpt>
      <trkpt lat="42.763865" lon="-0.606553">
        <ele>1919.4</ele>
        <time>2015-06-04T07:01:46Z</time>
      </trkpt>
      <trkpt lat="42.763857" lon="-0.606475">
        <ele>1920.4</ele>
        <time>2015-06-04T07:01:55Z</time>
      </trkpt>
      <trkpt lat="42.763862" lon="-0.606426">
        <ele>1919.9</ele>
        <time>2015-06-04T07:01:59Z</time>
      </trkpt>
      <trkpt lat="42.763870" lon="-0.606357">
        <ele>1922.8</ele>
        <time>2015-06-04T07:02:05Z</time>
      </trkpt>
      <trkpt lat="42.763868" lon="-0.606317">
        <ele>1926.6</ele>
        <time>2015-06-04T07:02:09Z</time>
      </trkpt>
      <trkpt lat="42.763868" lon="-0.606204">
        <ele>1928.1</ele>
        <time>2015-06-04T07:02:20Z</time>
      </trkpt>
      <trkpt lat="42.763858" lon="-0.605997">
        <ele>1931.4</ele>
        <time>2015-06-04T07:02:35Z</time>
      </trkpt>
      <trkpt lat="42.763864" lon="-0.605961">
        <ele>1932.9</ele>
        <time>2015-06-04T07:02:38Z</time>
      </trkpt>
      <trkpt lat="42.763858" lon="-0.605828">
        <ele>1936.2</ele>
        <time>2015-06-04T07:02:51Z</time>
      </trkpt>
      <trkpt lat="42.763836" lon="-0.605771">
        <ele>1937.7</ele>
        <time>2015-06-04T07:02:57Z</time>
      </trkpt>
      <trkpt lat="42.763826" lon="-0.605657">
        <ele>1937.2</ele>
        <time>2015-06-04T07:03:06Z</time>
      </trkpt>
      <trkpt lat="42.763843" lon="-0.605596">
        <ele>1939.6</ele>
        <time>2015-06-04T07:03:11Z</time>
      </trkpt>
      <trkpt lat="42.763847" lon="-0.605567">
        <ele>1943.4</ele>
        <time>2015-06-04T07:03:17Z</time>
      </trkpt>
      <trkpt lat="42.763856" lon="-0.605456">
        <ele>1945.8</ele>
        <time>2015-06-04T07:03:29Z</time>
      </trkpt>
      <trkpt lat="42.763790" lon="-0.605402">
        <ele>1946.8</ele>
        <time>2015-06-04T07:03:40Z</time>
      </trkpt>
      <trkpt lat="42.763787" lon="-0.605401">
        <ele>1947.3</ele>
        <time>2015-06-04T07:03:41Z</time>
      </trkpt>
      <trkpt lat="42.763755" lon="-0.605410">
        <ele>1949.7</ele>
        <time>2015-06-04T07:03:45Z</time>
      </trkpt>
      <trkpt lat="42.763777" lon="-0.605369">
        <ele>1952.6</ele>
        <time>2015-06-04T07:03:51Z</time>
      </trkpt>
      <trkpt lat="42.763855" lon="-0.605262">
        <ele>1955.5</ele>
        <time>2015-06-04T07:04:03Z</time>
      </trkpt>
      <trkpt lat="42.763863" lon="-0.605221">
        <ele>1957.4</ele>
        <time>2015-06-04T07:04:12Z</time>
      </trkpt>
      <trkpt lat="42.763719" lon="-0.605200">
        <ele>1959.3</ele>
        <time>2015-06-04T07:04:25Z</time>
      </trkpt>
      <trkpt lat="42.763723" lon="-0.605145">
        <ele>1959.8</ele>
        <time>2015-06-04T07:04:29Z</time>
      </trkpt>
      <trkpt lat="42.763802" lon="-0.605085">
        <ele>1961.2</ele>
        <time>2015-06-04T07:04:39Z</time>
      </trkpt>
      <trkpt lat="42.763919" lon="-0.605006">
        <ele>1964.6</ele>
        <time>2015-06-04T07:04:52Z</time>
      </trkpt>
      <trkpt lat="42.763988" lon="-0.604959">
        <ele>1965.6</ele>
        <time>2015-06-04T07:05:03Z</time>
      </trkpt>
      <trkpt lat="42.764093" lon="-0.604887">
        <ele>1967.0</ele>
        <time>2015-06-04T07:05:17Z</time>
      </trkpt>
      <trkpt lat="42.764119" lon="-0.604876">
        <ele>1969.4</ele>
        <time>2015-06-04T07:05:20Z</time>
      </trkpt>
      <trkpt lat="42.764150" lon="-0.604859">
        <ele>1972.8</ele>
        <time>2015-06-04T07:05:25Z</time>
      </trkpt>
      <trkpt lat="42.764132" lon="-0.604817">
        <ele>1974.2</ele>
        <time>2015-06-04T07:05:35Z</time>
      </trkpt>
      <trkpt lat="42.764105" lon="-0.604748">
        <ele>1975.2</ele>
        <time>2015-06-04T07:05:42Z</time>
      </trkpt>
      <trkpt lat="42.764117" lon="-0.604736">
        <ele>1975.7</ele>
        <time>2015-06-04T07:05:45Z</time>
      </trkpt>
      <trkpt lat="42.764168" lon="-0.604636">
        <ele>1976.6</ele>
        <time>2015-06-04T07:06:01Z</time>
      </trkpt>
      <trkpt lat="42.764176" lon="-0.604618">
        <ele>1980.0</ele>
        <time>2015-06-04T07:06:05Z</time>
      </trkpt>
      <trkpt lat="42.764231" lon="-0.604531">
        <ele>1982.9</ele>
        <time>2015-06-04T07:06:18Z</time>
      </trkpt>
      <trkpt lat="42.764277" lon="-0.604482">
        <ele>1982.9</ele>
        <time>2015-06-04T07:06:24Z</time>
      </trkpt>
      <trkpt lat="42.764303" lon="-0.604418">
        <ele>1982.9</ele>
        <time>2015-06-04T07:06:29Z</time>
      </trkpt>
      <trkpt lat="42.764354" lon="-0.604377">
        <ele>1985.3</ele>
        <time>2015-06-04T07:06:35Z</time>
      </trkpt>
      <trkpt lat="42.764362" lon="-0.604373">
        <ele>1986.2</ele>
        <time>2015-06-04T07:06:36Z</time>
      </trkpt>
      <trkpt lat="42.764425" lon="-0.604271">
        <ele>1990.1</ele>
        <time>2015-06-04T07:06:50Z</time>
      </trkpt>
      <trkpt lat="42.764425" lon="-0.604274">
        <ele>1990.6</ele>
        <time>2015-06-04T07:06:58Z</time>
      </trkpt>
      <trkpt lat="42.764450" lon="-0.604246">
        <ele>1990.6</ele>
        <time>2015-06-04T07:07:10Z</time>
      </trkpt>
      <trkpt lat="42.764430" lon="-0.604204">
        <ele>1992.5</ele>
        <time>2015-06-04T07:20:33Z</time>
      </trkpt>
      <trkpt lat="42.764402" lon="-0.604159">
        <ele>1994.4</ele>
        <time>2015-06-04T07:20:45Z</time>
      </trkpt>
      <trkpt lat="42.764385" lon="-0.604143">
        <ele>1994.4</ele>
        <time>2015-06-04T07:20:47Z</time>
      </trkpt>
      <trkpt lat="42.764347" lon="-0.604067">
        <ele>1994.9</ele>
        <time>2015-06-04T07:20:53Z</time>
      </trkpt>
      <trkpt lat="42.764389" lon="-0.603979">
        <ele>1995.0</ele>
        <time>2017-08-15T06:52:24Z</time>
      </trkpt>
      <trkpt lat="42.764389" lon="-0.603979">
        <ele>1985.0</ele>
        <time>2017-08-15T06:52:35Z</time>
      </trkpt>
      <trkpt lat="42.764375" lon="-0.603922">
        <ele>1984.3</ele>
        <time>2017-08-15T06:52:42Z</time>
      </trkpt>
      <trkpt lat="42.764429" lon="-0.603843">
        <ele>1985.3</ele>
        <time>2017-08-15T06:55:28Z</time>
      </trkpt>
      <trkpt lat="42.764450" lon="-0.603591">
        <ele>1985.3</ele>
        <time>2017-08-15T06:55:41Z</time>
      </trkpt>
      <trkpt lat="42.764475" lon="-0.603484">
        <ele>1985.3</ele>
        <time>2017-08-15T06:55:55Z</time>
      </trkpt>
      <trkpt lat="42.764482" lon="-0.603438">
        <ele>1985.3</ele>
        <time>2017-08-15T06:56:09Z</time>
      </trkpt>
      <trkpt lat="42.764516" lon="-0.603323">
        <ele>1985.3</ele>
        <time>2017-08-15T06:56:17Z</time>
      </trkpt>
      <trkpt lat="42.764582" lon="-0.603199">
        <ele>1986.7</ele>
        <time>2017-08-15T06:56:29Z</time>
      </trkpt>
      <trkpt lat="42.764597" lon="-0.603171">
        <ele>1987.2</ele>
        <time>2017-08-15T06:56:32Z</time>
      </trkpt>
      <trkpt lat="42.764632" lon="-0.603026">
        <ele>1989.6</ele>
        <time>2017-08-15T06:56:43Z</time>
      </trkpt>
      <trkpt lat="42.764655" lon="-0.602902">
        <ele>1990.6</ele>
        <time>2017-08-15T06:56:52Z</time>
      </trkpt>
      <trkpt lat="42.764656" lon="-0.602873">
        <ele>1991.5</ele>
        <time>2017-08-15T06:56:54Z</time>
      </trkpt>
      <trkpt lat="42.764689" lon="-0.602745">
        <ele>1993.4</ele>
        <time>2017-08-15T06:57:06Z</time>
      </trkpt>
      <trkpt lat="42.764715" lon="-0.602682">
        <ele>1995.3</ele>
        <time>2017-08-15T06:57:17Z</time>
      </trkpt>
      <trkpt lat="42.764729" lon="-0.602657">
        <ele>1996.3</ele>
        <time>2017-08-15T06:57:28Z</time>
      </trkpt>
      <trkpt lat="42.764754" lon="-0.602633">
        <ele>1997.3</ele>
        <time>2017-08-15T06:57:31Z</time>
      </trkpt>
      <trkpt lat="42.764809" lon="-0.602566">
        <ele>1998.7</ele>
        <time>2017-08-15T06:57:42Z</time>
      </trkpt>
      <trkpt lat="42.764862" lon="-0.602555">
        <ele>2002.1</ele>
        <time>2017-08-15T06:57:49Z</time>
      </trkpt>
      <trkpt lat="42.764879" lon="-0.602541">
        <ele>2005.4</ele>
        <time>2017-08-15T06:57:54Z</time>
      </trkpt>
      <trkpt lat="42.764920" lon="-0.602534">
        <ele>2005.9</ele>
        <time>2017-08-15T06:58:04Z</time>
      </trkpt>
      <trkpt lat="42.764958" lon="-0.602547">
        <ele>2007.4</ele>
        <time>2017-08-15T06:58:15Z</time>
      </trkpt>
      <trkpt lat="42.764999" lon="-0.602525">
        <ele>2008.3</ele>
        <time>2017-08-15T06:58:21Z</time>
      </trkpt>
      <trkpt lat="42.765047" lon="-0.602460">
        <ele>2010.2</ele>
        <time>2017-08-15T06:58:32Z</time>
      </trkpt>
      <trkpt lat="42.765053" lon="-0.602447">
        <ele>2010.7</ele>
        <time>2017-08-15T06:58:34Z</time>
      </trkpt>
      <trkpt lat="42.765088" lon="-0.602511">
        <ele>2013.1</ele>
        <time>2017-08-15T06:58:46Z</time>
      </trkpt>
      <trkpt lat="42.765138" lon="-0.602474">
        <ele>2015.5</ele>
        <time>2017-08-15T06:58:57Z</time>
      </trkpt>
      <trkpt lat="42.765175" lon="-0.602435">
        <ele>2017.0</ele>
        <time>2017-08-15T06:59:07Z</time>
      </trkpt>
      <trkpt lat="42.765185" lon="-0.602420">
        <ele>2017.9</ele>
        <time>2017-08-15T06:59:09Z</time>
      </trkpt>
      <trkpt lat="42.765192" lon="-0.602386">
        <ele>2018.4</ele>
        <time>2017-08-15T06:59:12Z</time>
      </trkpt>
      <trkpt lat="42.765201" lon="-0.602287">
        <ele>2020.3</ele>
        <time>2017-08-15T06:59:23Z</time>
      </trkpt>
      <trkpt lat="42.765226" lon="-0.602229">
        <ele>2022.3</ele>
        <time>2017-08-15T06:59:32Z</time>
      </trkpt>
      <trkpt lat="42.765259" lon="-0.602123">
        <ele>2024.2</ele>
        <time>2017-08-15T06:59:43Z</time>
      </trkpt>
      <trkpt lat="42.765296" lon="-0.602065">
        <ele>2026.1</ele>
        <time>2017-08-15T06:59:53Z</time>
      </trkpt>
      <trkpt lat="42.765309" lon="-0.602034">
        <ele>2026.6</ele>
        <time>2017-08-15T06:59:57Z</time>
      </trkpt>
      <trkpt lat="42.765363" lon="-0.601928">
        <ele>2029.0</ele>
        <time>2017-08-15T07:00:09Z</time>
      </trkpt>
      <trkpt lat="42.765370" lon="-0.601821">
        <ele>2030.9</ele>
        <time>2017-08-15T07:00:19Z</time>
      </trkpt>
      <trkpt lat="42.765358" lon="-0.601747">
        <ele>2031.9</ele>
        <time>2017-08-15T07:00:24Z</time>
      </trkpt>
      <trkpt lat="42.765364" lon="-0.601660">
        <ele>2032.4</ele>
        <time>2017-08-15T07:00:31Z</time>
      </trkpt>
      <trkpt lat="42.765366" lon="-0.601621">
        <ele>2032.8</ele>
        <time>2017-08-15T07:00:34Z</time>
      </trkpt>
      <trkpt lat="42.765389" lon="-0.601497">
        <ele>2034.3</ele>
        <time>2017-08-15T07:00:43Z</time>
      </trkpt>
      <trkpt lat="42.765399" lon="-0.601395">
        <ele>2035.2</ele>
        <time>2017-08-15T07:00:50Z</time>
      </trkpt>
      <trkpt lat="42.765417" lon="-0.601332">
        <ele>2035.7</ele>
        <time>2017-08-15T07:00:55Z</time>
      </trkpt>
      <trkpt lat="42.765403" lon="-0.601134">
        <ele>2037.2</ele>
        <time>2017-08-15T07:01:08Z</time>
      </trkpt>
      <trkpt lat="42.765403" lon="-0.601070">
        <ele>2038.1</ele>
        <time>2017-08-15T07:01:13Z</time>
      </trkpt>
      <trkpt lat="42.765391" lon="-0.600959">
        <ele>2038.6</ele>
        <time>2017-08-15T07:01:20Z</time>
      </trkpt>
      <trkpt lat="42.765379" lon="-0.600792">
        <ele>2040.1</ele>
        <time>2017-08-15T07:01:32Z</time>
      </trkpt>
      <trkpt lat="42.765377" lon="-0.600737">
        <ele>2040.1</ele>
        <time>2017-08-15T07:01:36Z</time>
      </trkpt>
      <trkpt lat="42.765387" lon="-0.600711">
        <ele>2041.0</ele>
        <time>2017-08-15T07:01:40Z</time>
      </trkpt>
      <trkpt lat="42.765423" lon="-0.600652">
        <ele>2042.5</ele>
        <time>2017-08-15T07:01:47Z</time>
      </trkpt>
      <trkpt lat="42.765438" lon="-0.600600">
        <ele>2042.9</ele>
        <time>2017-08-15T07:01:51Z</time>
      </trkpt>
      <trkpt lat="42.765466" lon="-0.600412">
        <ele>2045.3</ele>
        <time>2017-08-15T07:02:04Z</time>
      </trkpt>
      <trkpt lat="42.765481" lon="-0.600221">
        <ele>2047.3</ele>
        <time>2017-08-15T07:02:16Z</time>
      </trkpt>
      <trkpt lat="42.765512" lon="-0.600033">
        <ele>2048.7</ele>
        <time>2017-08-15T07:02:28Z</time>
      </trkpt>
      <trkpt lat="42.765545" lon="-0.599715">
        <ele>2048.7</ele>
        <time>2017-08-15T07:02:42Z</time>
      </trkpt>
      <trkpt lat="42.765593" lon="-0.599447">
        <ele>2047.3</ele>
        <time>2017-08-15T07:02:55Z</time>
      </trkpt>
      <trkpt lat="42.765637" lon="-0.599382">
        <ele>2045.3</ele>
        <time>2017-08-15T07:03:09Z</time>
      </trkpt>
      <trkpt lat="42.765677" lon="-0.599215">
        <ele>2041.5</ele>
        <time>2017-08-15T07:03:20Z</time>
      </trkpt>
      <trkpt lat="42.765687" lon="-0.599161">
        <ele>2039.6</ele>
        <time>2017-08-15T07:03:22Z</time>
      </trkpt>
      <trkpt lat="42.765722" lon="-0.599082">
        <ele>2037.2</ele>
        <time>2017-08-15T07:03:26Z</time>
      </trkpt>
      <trkpt lat="42.765740" lon="-0.599060">
        <ele>2036.7</ele>
        <time>2017-08-15T07:03:28Z</time>
      </trkpt>
      <trkpt lat="42.765759" lon="-0.598976">
        <ele>2035.7</ele>
        <time>2017-08-15T07:03:32Z</time>
      </trkpt>
      <trkpt lat="42.765808" lon="-0.598722">
        <ele>2034.8</ele>
        <time>2017-08-15T07:03:44Z</time>
      </trkpt>
      <trkpt lat="42.765919" lon="-0.598512">
        <ele>2032.8</ele>
        <time>2017-08-15T07:03:58Z</time>
      </trkpt>
      <trkpt lat="42.765973" lon="-0.598333">
        <ele>2030.0</ele>
        <time>2017-08-15T07:04:11Z</time>
      </trkpt>
      <trkpt lat="42.765990" lon="-0.598255">
        <ele>2028.0</ele>
        <time>2017-08-15T07:04:23Z</time>
      </trkpt>
      <trkpt lat="42.766004" lon="-0.598033">
        <ele>2025.6</ele>
        <time>2017-08-15T07:04:38Z</time>
      </trkpt>
      <trkpt lat="42.766076" lon="-0.597838">
        <ele>2024.2</ele>
        <time>2017-08-15T07:04:49Z</time>
      </trkpt>
      <trkpt lat="42.766247" lon="-0.597697">
        <ele>2023.2</ele>
        <time>2017-08-15T07:05:01Z</time>
      </trkpt>
      <trkpt lat="42.766261" lon="-0.597686">
        <ele>2023.2</ele>
        <time>2017-08-15T07:05:02Z</time>
      </trkpt>
      <trkpt lat="42.766318" lon="-0.597650">
        <ele>2022.8</ele>
        <time>2017-08-15T07:05:07Z</time>
      </trkpt>
      <trkpt lat="42.766456" lon="-0.597494">
        <ele>2021.8</ele>
        <time>2017-08-15T07:05:20Z</time>
      </trkpt>
      <trkpt lat="42.766510" lon="-0.597420">
        <ele>2021.3</ele>
        <time>2017-08-15T07:05:25Z</time>
      </trkpt>
      <trkpt lat="42.766554" lon="-0.597386">
        <ele>2021.3</ele>
        <time>2017-08-15T07:05:30Z</time>
      </trkpt>
      <trkpt lat="42.766702" lon="-0.597229">
        <ele>2020.8</ele>
        <time>2017-08-15T07:05:44Z</time>
      </trkpt>
      <trkpt lat="42.766766" lon="-0.597198">
        <ele>2020.3</ele>
        <time>2017-08-15T07:05:49Z</time>
      </trkpt>
      <trkpt lat="42.766840" lon="-0.597120">
        <ele>2020.3</ele>
        <time>2017-08-15T07:05:56Z</time>
      </trkpt>
      <trkpt lat="42.766880" lon="-0.597044">
        <ele>2020.3</ele>
        <time>2017-08-15T07:06:03Z</time>
      </trkpt>
      <trkpt lat="42.767015" lon="-0.596987">
        <ele>2021.8</ele>
        <time>2017-08-15T07:06:15Z</time>
      </trkpt>
      <trkpt lat="42.767058" lon="-0.596948">
        <ele>2021.8</ele>
        <time>2017-08-15T07:06:19Z</time>
      </trkpt>
      <trkpt lat="42.767074" lon="-0.596934">
        <ele>2021.8</ele>
        <time>2017-08-15T07:06:21Z</time>
      </trkpt>
      <trkpt lat="42.767191" lon="-0.596872">
        <ele>2022.8</ele>
        <time>2017-08-15T07:06:31Z</time>
      </trkpt>
      <trkpt lat="42.767213" lon="-0.596849">
        <ele>2023.2</ele>
        <time>2017-08-15T07:06:34Z</time>
      </trkpt>
      <trkpt lat="42.767313" lon="-0.596709">
        <ele>2024.7</ele>
        <time>2017-08-15T07:06:46Z</time>
      </trkpt>
      <trkpt lat="42.767383" lon="-0.596664">
        <ele>2025.2</ele>
        <time>2017-08-15T07:06:51Z</time>
      </trkpt>
      <trkpt lat="42.767443" lon="-0.596615">
        <ele>2025.6</ele>
        <time>2017-08-15T07:06:57Z</time>
      </trkpt>
      <trkpt lat="42.767532" lon="-0.596570">
        <ele>2026.1</ele>
        <time>2017-08-15T07:07:05Z</time>
      </trkpt>
      <trkpt lat="42.767593" lon="-0.596534">
        <ele>2026.1</ele>
        <time>2017-08-15T07:07:11Z</time>
      </trkpt>
      <trkpt lat="42.767679" lon="-0.596425">
        <ele>2026.1</ele>
        <time>2017-08-15T07:07:21Z</time>
      </trkpt>
      <trkpt lat="42.767761" lon="-0.596392">
        <ele>2026.1</ele>
        <time>2017-08-15T07:07:27Z</time>
      </trkpt>
      <trkpt lat="42.767842" lon="-0.596374">
        <ele>2026.1</ele>
        <time>2017-08-15T07:07:36Z</time>
      </trkpt>
      <trkpt lat="42.767954" lon="-0.596340">
        <ele>2025.2</ele>
        <time>2017-08-15T07:07:47Z</time>
      </trkpt>
      <trkpt lat="42.768027" lon="-0.596265">
        <ele>2024.2</ele>
        <time>2017-08-15T07:07:53Z</time>
      </trkpt>
      <trkpt lat="42.768055" lon="-0.596247">
        <ele>2024.7</ele>
        <time>2017-08-15T07:07:55Z</time>
      </trkpt>
      <trkpt lat="42.768095" lon="-0.596154">
        <ele>2024.2</ele>
        <time>2017-08-15T07:08:01Z</time>
      </trkpt>
      <trkpt lat="42.768112" lon="-0.596062">
        <ele>2024.2</ele>
        <time>2017-08-15T07:08:07Z</time>
      </trkpt>
      <trkpt lat="42.768173" lon="-0.595924">
        <ele>2024.2</ele>
        <time>2017-08-15T07:08:16Z</time>
      </trkpt>
      <trkpt lat="42.768310" lon="-0.595840">
        <ele>2025.6</ele>
        <time>2017-08-15T07:08:28Z</time>
      </trkpt>
      <trkpt lat="42.768473" lon="-0.595760">
        <ele>2026.6</ele>
        <time>2017-08-15T07:08:40Z</time>
      </trkpt>
      <trkpt lat="42.768610" lon="-0.595671">
        <ele>2027.1</ele>
        <time>2017-08-15T07:08:52Z</time>
      </trkpt>
      <trkpt lat="42.768676" lon="-0.595630">
        <ele>2027.6</ele>
        <time>2017-08-15T07:08:58Z</time>
      </trkpt>
      <trkpt lat="42.768763" lon="-0.595583">
        <ele>2030.0</ele>
        <time>2017-08-15T07:09:07Z</time>
      </trkpt>
      <trkpt lat="42.768860" lon="-0.595501">
        <ele>2030.9</ele>
        <time>2017-08-15T07:09:17Z</time>
      </trkpt>
      <trkpt lat="42.768878" lon="-0.595486">
        <ele>2031.4</ele>
        <time>2017-08-15T07:09:19Z</time>
      </trkpt>
      <trkpt lat="42.768910" lon="-0.595443">
        <ele>2031.4</ele>
        <time>2017-08-15T07:09:23Z</time>
      </trkpt>
      <trkpt lat="42.769039" lon="-0.595255">
        <ele>2032.8</ele>
        <time>2017-08-15T07:09:38Z</time>
      </trkpt>
      <trkpt lat="42.769068" lon="-0.595216">
        <ele>2033.3</ele>
        <time>2017-08-15T07:09:42Z</time>
      </trkpt>
      <trkpt lat="42.769129" lon="-0.595158">
        <ele>2034.3</ele>
        <time>2017-08-15T07:09:49Z</time>
      </trkpt>
      <trkpt lat="42.769145" lon="-0.595147">
        <ele>2034.8</ele>
        <time>2017-08-15T07:09:51Z</time>
      </trkpt>
      <trkpt lat="42.769172" lon="-0.595119">
        <ele>2035.2</ele>
        <time>2017-08-15T07:09:55Z</time>
      </trkpt>
      <trkpt lat="42.769199" lon="-0.595105">
        <ele>2036.7</ele>
        <time>2017-08-15T07:10:02Z</time>
      </trkpt>
      <trkpt lat="42.769225" lon="-0.595059">
        <ele>2039.6</ele>
        <time>2017-08-15T07:10:09Z</time>
      </trkpt>
      <trkpt lat="42.769261" lon="-0.595023">
        <ele>2043.4</ele>
        <time>2017-08-15T07:10:14Z</time>
      </trkpt>
      <trkpt lat="42.769268" lon="-0.595019">
        <ele>2043.9</ele>
        <time>2017-08-15T07:10:15Z</time>
      </trkpt>
      <trkpt lat="42.769398" lon="-0.594908">
        <ele>2044.4</ele>
        <time>2017-08-15T07:10:28Z</time>
      </trkpt>
      <trkpt lat="42.769508" lon="-0.594832">
        <ele>2044.4</ele>
        <time>2017-08-15T07:10:39Z</time>
      </trkpt>
      <trkpt lat="42.769558" lon="-0.594851">
        <ele>2044.4</ele>
        <time>2017-08-15T07:10:43Z</time>
      </trkpt>
      <trkpt lat="42.769670" lon="-0.594839">
        <ele>2044.9</ele>
        <time>2017-08-15T07:10:55Z</time>
      </trkpt>
      <trkpt lat="42.769735" lon="-0.594820">
        <ele>2045.3</ele>
        <time>2017-08-15T07:11:04Z</time>
      </trkpt>
      <trkpt lat="42.769763" lon="-0.594801">
        <ele>2047.3</ele>
        <time>2017-08-15T07:11:20Z</time>
      </trkpt>
      <trkpt lat="42.769763" lon="-0.594801">
        <ele>2048.2</ele>
        <time>2017-08-15T07:11:41Z</time>
      </trkpt>
      <trkpt lat="42.769763" lon="-0.594771">
        <ele>2048.2</ele>
        <time>2017-08-15T07:11:56Z</time>
      </trkpt>
      <trkpt lat="42.769804" lon="-0.594749">
        <ele>2049.7</ele>
        <time>2017-08-15T07:12:05Z</time>
      </trkpt>
      <trkpt lat="42.769867" lon="-0.594702">
        <ele>2053.0</ele>
        <time>2017-08-15T07:12:12Z</time>
      </trkpt>
      <trkpt lat="42.769878" lon="-0.594678">
        <ele>2056.9</ele>
        <time>2017-08-15T07:12:17Z</time>
      </trkpt>
      <trkpt lat="42.769888" lon="-0.594675">
        <ele>2055.9</ele>
        <time>2017-08-15T07:12:30Z</time>
      </trkpt>
      <trkpt lat="42.769972" lon="-0.594685">
        <ele>2055.9</ele>
        <time>2017-08-15T07:12:39Z</time>
      </trkpt>
      <trkpt lat="42.770002" lon="-0.594705">
        <ele>2055.9</ele>
        <time>2017-08-15T07:12:54Z</time>
      </trkpt>
      <trkpt lat="42.770002" lon="-0.594705">
        <ele>2058.3</ele>
        <time>2017-08-15T07:12:57Z</time>
      </trkpt>
      <trkpt lat="42.770044" lon="-0.594683">
        <ele>2061.7</ele>
        <time>2017-08-15T07:13:03Z</time>
      </trkpt>
      <trkpt lat="42.770119" lon="-0.594664">
        <ele>2062.2</ele>
        <time>2017-08-15T07:13:18Z</time>
      </trkpt>
      <trkpt lat="42.770192" lon="-0.594587">
        <ele>2064.1</ele>
        <time>2017-08-15T07:13:30Z</time>
      </trkpt>
      <trkpt lat="42.770195" lon="-0.594578">
        <ele>2064.1</ele>
        <time>2017-08-15T07:13:31Z</time>
      </trkpt>
      <trkpt lat="42.770342" lon="-0.594507">
        <ele>2065.1</ele>
        <time>2017-08-15T07:13:43Z</time>
      </trkpt>
      <trkpt lat="42.770362" lon="-0.594468">
        <ele>2065.1</ele>
        <time>2017-08-15T07:13:46Z</time>
      </trkpt>
      <trkpt lat="42.770391" lon="-0.594428">
        <ele>2065.5</ele>
        <time>2017-08-15T07:13:49Z</time>
      </trkpt>
      <trkpt lat="42.770436" lon="-0.594398">
        <ele>2065.5</ele>
        <time>2017-08-15T07:13:53Z</time>
      </trkpt>
      <trkpt lat="42.770461" lon="-0.594357">
        <ele>2065.5</ele>
        <time>2017-08-15T07:13:57Z</time>
      </trkpt>
      <trkpt lat="42.770546" lon="-0.594294">
        <ele>2067.4</ele>
        <time>2017-08-15T07:14:07Z</time>
      </trkpt>
      <trkpt lat="42.770585" lon="-0.594225">
        <ele>2068.4</ele>
        <time>2017-08-15T07:14:13Z</time>
      </trkpt>
      <trkpt lat="42.770704" lon="-0.594113">
        <ele>2069.4</ele>
        <time>2017-08-15T07:14:24Z</time>
      </trkpt>
      <trkpt lat="42.770768" lon="-0.594052">
        <ele>2070.3</ele>
        <time>2017-08-15T07:14:32Z</time>
      </trkpt>
      <trkpt lat="42.770687" lon="-0.593931">
        <ele>2072.3</ele>
        <time>2017-08-15T07:14:44Z</time>
      </trkpt>
      <trkpt lat="42.770673" lon="-0.593911">
        <ele>2072.7</ele>
        <time>2017-08-15T07:14:46Z</time>
      </trkpt>
      <trkpt lat="42.770658" lon="-0.593884">
        <ele>2072.7</ele>
        <time>2017-08-15T07:14:48Z</time>
      </trkpt>
      <trkpt lat="42.770637" lon="-0.593816">
        <ele>2073.7</ele>
        <time>2017-08-15T07:14:53Z</time>
      </trkpt>
      <trkpt lat="42.770649" lon="-0.593763">
        <ele>2074.2</ele>
        <time>2017-08-15T07:14:58Z</time>
      </trkpt>
      <trkpt lat="42.770643" lon="-0.593694">
        <ele>2078.5</ele>
        <time>2017-08-15T07:15:08Z</time>
      </trkpt>
      <trkpt lat="42.770644" lon="-0.593696">
        <ele>2081.9</ele>
        <time>2017-08-15T07:15:13Z</time>
      </trkpt>
      <trkpt lat="42.770688" lon="-0.593674">
        <ele>2080.9</ele>
        <time>2017-08-15T07:15:24Z</time>
      </trkpt>
      <trkpt lat="42.770711" lon="-0.593628">
        <ele>2080.4</ele>
        <time>2017-08-15T07:15:39Z</time>
      </trkpt>
      <trkpt lat="42.770731" lon="-0.593596">
        <ele>2081.9</ele>
        <time>2017-08-15T07:15:42Z</time>
      </trkpt>
      <trkpt lat="42.770739" lon="-0.593532">
        <ele>2082.4</ele>
        <time>2017-08-15T07:15:47Z</time>
      </trkpt>
      <trkpt lat="42.770799" lon="-0.593464">
        <ele>2085.7</ele>
        <time>2017-08-15T07:15:56Z</time>
      </trkpt>
      <trkpt lat="42.770811" lon="-0.593443">
        <ele>2087.2</ele>
        <time>2017-08-15T07:15:58Z</time>
      </trkpt>
      <trkpt lat="42.770820" lon="-0.593410">
        <ele>2088.6</ele>
        <time>2017-08-15T07:16:01Z</time>
      </trkpt>
      <trkpt lat="42.770884" lon="-0.593393">
        <ele>2089.1</ele>
        <time>2017-08-15T07:16:07Z</time>
      </trkpt>
      <trkpt lat="42.770920" lon="-0.593305">
        <ele>2089.1</ele>
        <time>2017-08-15T07:16:13Z</time>
      </trkpt>
      <trkpt lat="42.770969" lon="-0.593084">
        <ele>2090.5</ele>
        <time>2017-08-15T07:16:30Z</time>
      </trkpt>
      <trkpt lat="42.771018" lon="-0.592922">
        <ele>2092.9</ele>
        <time>2017-08-15T07:16:44Z</time>
      </trkpt>
      <trkpt lat="42.771062" lon="-0.592948">
        <ele>2094.4</ele>
        <time>2017-08-15T07:16:54Z</time>
      </trkpt>
      <trkpt lat="42.771059" lon="-0.592904">
        <ele>2095.3</ele>
        <time>2017-08-15T07:17:06Z</time>
      </trkpt>
      <trkpt lat="42.771059" lon="-0.592904">
        <ele>2095.3</ele>
        <time>2017-08-15T07:17:25Z</time>
      </trkpt>
      <trkpt lat="42.771110" lon="-0.592935">
        <ele>2095.8</ele>
        <time>2017-08-15T07:17:32Z</time>
      </trkpt>
      <trkpt lat="42.771187" lon="-0.592811">
        <ele>2097.2</ele>
        <time>2017-08-15T07:17:43Z</time>
      </trkpt>
      <trkpt lat="42.771205" lon="-0.592763">
        <ele>2097.7</ele>
        <time>2017-08-15T07:17:46Z</time>
      </trkpt>
      <trkpt lat="42.771232" lon="-0.592582">
        <ele>2097.7</ele>
        <time>2017-08-15T07:17:54Z</time>
      </trkpt>
      <trkpt lat="42.771300" lon="-0.592494">
        <ele>2098.2</ele>
        <time>2017-08-15T07:18:05Z</time>
      </trkpt>
      <trkpt lat="42.771505" lon="-0.592461">
        <ele>2098.2</ele>
        <time>2017-08-15T07:18:20Z</time>
      </trkpt>
      <trkpt lat="42.771548" lon="-0.592467">
        <ele>2098.2</ele>
        <time>2017-08-15T07:18:43Z</time>
      </trkpt>
      <trkpt lat="42.771791" lon="-0.592463">
        <ele>2098.2</ele>
        <time>2017-08-15T07:18:57Z</time>
      </trkpt>
      <trkpt lat="42.771864" lon="-0.592430">
        <ele>2098.7</ele>
        <time>2017-08-15T07:19:04Z</time>
      </trkpt>
      <trkpt lat="42.771975" lon="-0.592326">
        <ele>2099.2</ele>
        <time>2017-08-15T07:19:12Z</time>
      </trkpt>
      <trkpt lat="42.772009" lon="-0.592247">
        <ele>2099.7</ele>
        <time>2017-08-15T07:19:18Z</time>
      </trkpt>
      <trkpt lat="42.772021" lon="-0.592172">
        <ele>2099.7</ele>
        <time>2017-08-15T07:19:22Z</time>
      </trkpt>
      <trkpt lat="42.772040" lon="-0.592117">
        <ele>2099.7</ele>
        <time>2017-08-15T07:19:26Z</time>
      </trkpt>
      <trkpt lat="42.772086" lon="-0.592076">
        <ele>2101.1</ele>
        <time>2017-08-15T07:19:34Z</time>
      </trkpt>
      <trkpt lat="42.772116" lon="-0.592064">
        <ele>2104.0</ele>
        <time>2017-08-15T07:19:38Z</time>
      </trkpt>
      <trkpt lat="42.772149" lon="-0.592032">
        <ele>2105.4</ele>
        <time>2017-08-15T07:19:41Z</time>
      </trkpt>
      <trkpt lat="42.772172" lon="-0.592030">
        <ele>2106.9</ele>
        <time>2017-08-15T07:19:44Z</time>
      </trkpt>
      <trkpt lat="42.772207" lon="-0.592031">
        <ele>2107.4</ele>
        <time>2017-08-15T07:19:47Z</time>
      </trkpt>
      <trkpt lat="42.772238" lon="-0.591993">
        <ele>2107.4</ele>
        <time>2017-08-15T07:19:53Z</time>
      </trkpt>
      <trkpt lat="42.772359" lon="-0.592016">
        <ele>2108.3</ele>
        <time>2017-08-15T07:20:04Z</time>
      </trkpt>
      <trkpt lat="42.772438" lon="-0.591964">
        <ele>2109.8</ele>
        <time>2017-08-15T07:20:13Z</time>
      </trkpt>
      <trkpt lat="42.772458" lon="-0.591951">
        <ele>2110.2</ele>
        <time>2017-08-15T07:20:16Z</time>
      </trkpt>
      <trkpt lat="42.772512" lon="-0.591938">
        <ele>2111.7</ele>
        <time>2017-08-15T07:20:23Z</time>
      </trkpt>
      <trkpt lat="42.772553" lon="-0.591934">
        <ele>2112.1</ele>
        <time>2017-08-15T07:20:27Z</time>
      </trkpt>
      <trkpt lat="42.772587" lon="-0.591890">
        <ele>2113.6</ele>
        <time>2017-08-15T07:20:32Z</time>
      </trkpt>
      <trkpt lat="42.772633" lon="-0.591788">
        <ele>2115.0</ele>
        <time>2017-08-15T07:20:41Z</time>
      </trkpt>
      <trkpt lat="42.772668" lon="-0.591719">
        <ele>2117.9</ele>
        <time>2017-08-15T07:20:52Z</time>
      </trkpt>
      <trkpt lat="42.772674" lon="-0.591705">
        <ele>2119.8</ele>
        <time>2017-08-15T07:20:54Z</time>
      </trkpt>
      <trkpt lat="42.772679" lon="-0.591672">
        <ele>2124.2</ele>
        <time>2017-08-15T07:20:59Z</time>
      </trkpt>
      <trkpt lat="42.772688" lon="-0.591658">
        <ele>2123.7</ele>
        <time>2017-08-15T07:21:01Z</time>
      </trkpt>
      <trkpt lat="42.772700" lon="-0.591611">
        <ele>2125.1</ele>
        <time>2017-08-15T07:21:05Z</time>
      </trkpt>
      <trkpt lat="42.772737" lon="-0.591598">
        <ele>2125.1</ele>
        <time>2017-08-15T07:21:08Z</time>
      </trkpt>
      <trkpt lat="42.772760" lon="-0.591564">
        <ele>2125.1</ele>
        <time>2017-08-15T07:21:11Z</time>
      </trkpt>
      <trkpt lat="42.772817" lon="-0.591468">
        <ele>2125.1</ele>
        <time>2017-08-15T07:21:19Z</time>
      </trkpt>
      <trkpt lat="42.772935" lon="-0.591354">
        <ele>2125.1</ele>
        <time>2017-08-15T07:21:31Z</time>
      </trkpt>
      <trkpt lat="42.773088" lon="-0.591337">
        <ele>2125.6</ele>
        <time>2017-08-15T07:21:43Z</time>
      </trkpt>
      <trkpt lat="42.773106" lon="-0.591333">
        <ele>2126.1</ele>
        <time>2017-08-15T07:21:45Z</time>
      </trkpt>
      <trkpt lat="42.773277" lon="-0.591312">
        <ele>2126.6</ele>
        <time>2017-08-15T07:21:58Z</time>
      </trkpt>
      <trkpt lat="42.773323" lon="-0.591294">
        <ele>2127.1</ele>
        <time>2017-08-15T07:22:04Z</time>
      </trkpt>
      <trkpt lat="42.773405" lon="-0.591283">
        <ele>2127.5</ele>
        <time>2017-08-15T07:22:11Z</time>
      </trkpt>
      <trkpt lat="42.773543" lon="-0.591265">
        <ele>2129.9</ele>
        <time>2017-08-15T07:22:23Z</time>
      </trkpt>
      <trkpt lat="42.773671" lon="-0.591228">
        <ele>2131.4</ele>
        <time>2017-08-15T07:22:34Z</time>
      </trkpt>
      <trkpt lat="42.773779" lon="-0.591188">
        <ele>2132.3</ele>
        <time>2017-08-15T07:22:44Z</time>
      </trkpt>
      <trkpt lat="42.773838" lon="-0.591165">
        <ele>2133.8</ele>
        <time>2017-08-15T07:22:50Z</time>
      </trkpt>
      <trkpt lat="42.773892" lon="-0.591171">
        <ele>2134.3</ele>
        <time>2017-08-15T07:22:56Z</time>
      </trkpt>
      <trkpt lat="42.773925" lon="-0.591100">
        <ele>2134.7</ele>
        <time>2017-08-15T07:23:02Z</time>
      </trkpt>
      <trkpt lat="42.774030" lon="-0.591045">
        <ele>2136.7</ele>
        <time>2017-08-15T07:23:12Z</time>
      </trkpt>
      <trkpt lat="42.774073" lon="-0.591047">
        <ele>2137.1</ele>
        <time>2017-08-15T07:23:16Z</time>
      </trkpt>
      <trkpt lat="42.774144" lon="-0.591010">
        <ele>2138.1</ele>
        <time>2017-08-15T07:23:23Z</time>
      </trkpt>
      <trkpt lat="42.774299" lon="-0.590966">
        <ele>2140.0</ele>
        <time>2017-08-15T07:23:35Z</time>
      </trkpt>
      <trkpt lat="42.774306" lon="-0.590965">
        <ele>2140.0</ele>
        <time>2017-08-15T07:23:36Z</time>
      </trkpt>
      <trkpt lat="42.774372" lon="-0.590962">
        <ele>2142.4</ele>
        <time>2017-08-15T07:23:48Z</time>
      </trkpt>
      <trkpt lat="42.774409" lon="-0.590974">
        <ele>2144.4</ele>
        <time>2017-08-15T07:24:01Z</time>
      </trkpt>
      <trkpt lat="42.774462" lon="-0.590997">
        <ele>2144.4</ele>
        <time>2017-08-15T07:24:21Z</time>
      </trkpt>
      <trkpt lat="42.774530" lon="-0.590989">
        <ele>2144.4</ele>
        <time>2017-08-15T07:24:26Z</time>
      </trkpt>
      <trkpt lat="42.774649" lon="-0.590972">
        <ele>2145.8</ele>
        <time>2017-08-15T07:24:37Z</time>
      </trkpt>
      <trkpt lat="42.774683" lon="-0.590969">
        <ele>2146.3</ele>
        <time>2017-08-15T07:24:41Z</time>
      </trkpt>
      <trkpt lat="42.774718" lon="-0.590978">
        <ele>2148.2</ele>
        <time>2017-08-15T07:24:48Z</time>
      </trkpt>
      <trkpt lat="42.774792" lon="-0.591009">
        <ele>2151.6</ele>
        <time>2017-08-15T07:24:58Z</time>
      </trkpt>
      <trkpt lat="42.774822" lon="-0.591031">
        <ele>2154.9</ele>
        <time>2017-08-15T07:25:02Z</time>
      </trkpt>
      <trkpt lat="42.774854" lon="-0.591056">
        <ele>2155.9</ele>
        <time>2017-08-15T07:25:11Z</time>
      </trkpt>
      <trkpt lat="42.774866" lon="-0.591063">
        <ele>2155.9</ele>
        <time>2017-08-15T07:25:13Z</time>
      </trkpt>
      <trkpt lat="42.774920" lon="-0.591082">
        <ele>2156.4</ele>
        <time>2017-08-15T07:25:19Z</time>
      </trkpt>
      <trkpt lat="42.774953" lon="-0.591069">
        <ele>2156.9</ele>
        <time>2017-08-15T07:25:23Z</time>
      </trkpt>
      <trkpt lat="42.775005" lon="-0.591069">
        <ele>2158.8</ele>
        <time>2017-08-15T07:25:33Z</time>
      </trkpt>
      <trkpt lat="42.775074" lon="-0.591059">
        <ele>2162.1</ele>
        <time>2017-08-15T07:25:43Z</time>
      </trkpt>
      <trkpt lat="42.775157" lon="-0.591046">
        <ele>2163.6</ele>
        <time>2017-08-15T07:25:54Z</time>
      </trkpt>
      <trkpt lat="42.775175" lon="-0.591043">
        <ele>2163.6</ele>
        <time>2017-08-15T07:25:56Z</time>
      </trkpt>
      <trkpt lat="42.775231" lon="-0.591040">
        <ele>2164.1</ele>
        <time>2017-08-15T07:26:02Z</time>
      </trkpt>
      <trkpt lat="42.775255" lon="-0.591040">
        <ele>2164.1</ele>
        <time>2017-08-15T07:26:05Z</time>
      </trkpt>
      <trkpt lat="42.775280" lon="-0.591038">
        <ele>2164.1</ele>
        <time>2017-08-15T07:26:14Z</time>
      </trkpt>
      <trkpt lat="42.775305" lon="-0.591042">
        <ele>2164.1</ele>
        <time>2017-08-15T07:26:17Z</time>
      </trkpt>
      <trkpt lat="42.775334" lon="-0.591044">
        <ele>2164.6</ele>
        <time>2017-08-15T07:26:21Z</time>
      </trkpt>
      <trkpt lat="42.775391" lon="-0.591050">
        <ele>2165.0</ele>
        <time>2017-08-15T07:26:26Z</time>
      </trkpt>
      <trkpt lat="42.775489" lon="-0.591084">
        <ele>2165.5</ele>
        <time>2017-08-15T07:26:35Z</time>
      </trkpt>
      <trkpt lat="42.775525" lon="-0.591112">
        <ele>2166.9</ele>
        <time>2017-08-15T07:26:40Z</time>
      </trkpt>
      <trkpt lat="42.775546" lon="-0.591111">
        <ele>2167.4</ele>
        <time>2017-08-15T07:26:43Z</time>
      </trkpt>
      <trkpt lat="42.775602" lon="-0.591107">
        <ele>2167.9</ele>
        <time>2017-08-15T07:26:50Z</time>
      </trkpt>
      <trkpt lat="42.775626" lon="-0.591103">
        <ele>2168.4</ele>
        <time>2017-08-15T07:26:53Z</time>
      </trkpt>
      <trkpt lat="42.775646" lon="-0.591111">
        <ele>2168.9</ele>
        <time>2017-08-15T07:26:56Z</time>
      </trkpt>
      <trkpt lat="42.775712" lon="-0.591110">
        <ele>2170.3</ele>
        <time>2017-08-15T07:27:04Z</time>
      </trkpt>
      <trkpt lat="42.775750" lon="-0.591122">
        <ele>2171.3</ele>
        <time>2017-08-15T07:27:08Z</time>
      </trkpt>
      <trkpt lat="42.775812" lon="-0.591108">
        <ele>2172.2</ele>
        <time>2017-08-15T07:27:14Z</time>
      </trkpt>
      <trkpt lat="42.775938" lon="-0.591016">
        <ele>2172.7</ele>
        <time>2017-08-15T07:27:26Z</time>
      </trkpt>
      <trkpt lat="42.775972" lon="-0.590987">
        <ele>2172.7</ele>
        <time>2017-08-15T07:27:29Z</time>
      </trkpt>
      <trkpt lat="42.776021" lon="-0.590973">
        <ele>2172.7</ele>
        <time>2017-08-15T07:27:33Z</time>
      </trkpt>
      <trkpt lat="42.776094" lon="-0.590960">
        <ele>2173.7</ele>
        <time>2017-08-15T07:27:39Z</time>
      </trkpt>
      <trkpt lat="42.776220" lon="-0.590849">
        <ele>2174.6</ele>
        <time>2017-08-15T07:27:51Z</time>
      </trkpt>
      <trkpt lat="42.776300" lon="-0.590774">
        <ele>2176.6</ele>
        <time>2017-08-15T07:28:01Z</time>
      </trkpt>
      <trkpt lat="42.776383" lon="-0.590672">
        <ele>2178.5</ele>
        <time>2017-08-15T07:28:12Z</time>
      </trkpt>
      <trkpt lat="42.776418" lon="-0.590625">
        <ele>2179.0</ele>
        <time>2017-08-15T07:28:17Z</time>
      </trkpt>
      <trkpt lat="42.776481" lon="-0.590603">
        <ele>2182.8</ele>
        <time>2017-08-15T07:28:23Z</time>
      </trkpt>
      <trkpt lat="42.776629" lon="-0.590534">
        <ele>2183.8</ele>
        <time>2017-08-15T07:28:35Z</time>
      </trkpt>
      <trkpt lat="42.776658" lon="-0.590518">
        <ele>2183.8</ele>
        <time>2017-08-15T07:28:37Z</time>
      </trkpt>
      <trkpt lat="42.776819" lon="-0.590467">
        <ele>2181.4</ele>
        <time>2017-08-15T07:28:51Z</time>
      </trkpt>
      <trkpt lat="42.776848" lon="-0.590460">
        <ele>2181.4</ele>
        <time>2017-08-15T07:28:53Z</time>
      </trkpt>
      <trkpt lat="42.776874" lon="-0.590437">
        <ele>2180.9</ele>
        <time>2017-08-15T07:28:55Z</time>
      </trkpt>
      <trkpt lat="42.776918" lon="-0.590417">
        <ele>2180.9</ele>
        <time>2017-08-15T07:28:59Z</time>
      </trkpt>
      <trkpt lat="42.777049" lon="-0.590354">
        <ele>2180.9</ele>
        <time>2017-08-15T07:29:10Z</time>
      </trkpt>
      <trkpt lat="42.777055" lon="-0.590322">
        <ele>2180.9</ele>
        <time>2017-08-15T07:29:12Z</time>
      </trkpt>
      <trkpt lat="42.777162" lon="-0.590059">
        <ele>2181.9</ele>
        <time>2017-08-15T07:29:28Z</time>
      </trkpt>
      <trkpt lat="42.777251" lon="-0.589858">
        <ele>2182.3</ele>
        <time>2017-08-15T07:29:41Z</time>
      </trkpt>
      <trkpt lat="42.777290" lon="-0.589683">
        <ele>2182.3</ele>
        <time>2017-08-15T07:29:51Z</time>
      </trkpt>
      <trkpt lat="42.777308" lon="-0.589523">
        <ele>2182.3</ele>
        <time>2017-08-15T07:30:00Z</time>
      </trkpt>
      <trkpt lat="42.777304" lon="-0.589289">
        <ele>2182.3</ele>
        <time>2017-08-15T07:30:13Z</time>
      </trkpt>
      <trkpt lat="42.777344" lon="-0.589035">
        <ele>2186.2</ele>
        <time>2017-08-15T07:31:00Z</time>
      </trkpt>
      <trkpt lat="42.777382" lon="-0.589007">
        <ele>2187.1</ele>
        <time>2017-08-15T07:31:06Z</time>
      </trkpt>
      <trkpt lat="42.777384" lon="-0.588939">
        <ele>2190.5</ele>
        <time>2017-08-15T07:31:14Z</time>
      </trkpt>
      <trkpt lat="42.777383" lon="-0.588935">
        <ele>2190.5</ele>
        <time>2017-08-15T07:31:15Z</time>
      </trkpt>
      <trkpt lat="42.777386" lon="-0.588857">
        <ele>2191.5</ele>
        <time>2017-08-15T07:31:30Z</time>
      </trkpt>
      <trkpt lat="42.777393" lon="-0.588861">
        <ele>2194.4</ele>
        <time>2017-08-15T07:31:41Z</time>
      </trkpt>
      <trkpt lat="42.777398" lon="-0.588844">
        <ele>2196.3</ele>
        <time>2017-08-15T07:31:44Z</time>
      </trkpt>
      <trkpt lat="42.777409" lon="-0.588821">
        <ele>2197.2</ele>
        <time>2017-08-15T07:31:47Z</time>
      </trkpt>
      <trkpt lat="42.777452" lon="-0.588780">
        <ele>2196.8</ele>
        <time>2017-08-15T07:31:57Z</time>
      </trkpt>
      <trkpt lat="42.777429" lon="-0.588711">
        <ele>2198.2</ele>
        <time>2017-08-15T07:32:08Z</time>
      </trkpt>
      <trkpt lat="42.777407" lon="-0.588610">
        <ele>2199.6</ele>
        <time>2017-08-15T07:32:20Z</time>
      </trkpt>
      <trkpt lat="42.777383" lon="-0.588547">
        <ele>2201.1</ele>
        <time>2017-08-15T07:32:28Z</time>
      </trkpt>
      <trkpt lat="42.777382" lon="-0.588484">
        <ele>2203.0</ele>
        <time>2017-08-15T07:32:37Z</time>
      </trkpt>
      <trkpt lat="42.777358" lon="-0.588435">
        <ele>2204.4</ele>
        <time>2017-08-15T07:32:42Z</time>
      </trkpt>
      <trkpt lat="42.777354" lon="-0.588400">
        <ele>2204.9</ele>
        <time>2017-08-15T07:32:45Z</time>
      </trkpt>
      <trkpt lat="42.777331" lon="-0.588263">
        <ele>2206.8</ele>
        <time>2017-08-15T07:32:56Z</time>
      </trkpt>
      <trkpt lat="42.777301" lon="-0.588176">
        <ele>2208.3</ele>
        <time>2017-08-15T07:33:02Z</time>
      </trkpt>
      <trkpt lat="42.777274" lon="-0.588082">
        <ele>2209.2</ele>
        <time>2017-08-15T07:33:08Z</time>
      </trkpt>
      <trkpt lat="42.777231" lon="-0.587886">
        <ele>2211.2</ele>
        <time>2017-08-15T07:33:21Z</time>
      </trkpt>
      <trkpt lat="42.777229" lon="-0.587828">
        <ele>2211.6</ele>
        <time>2017-08-15T07:33:26Z</time>
      </trkpt>
      <trkpt lat="42.777240" lon="-0.587660">
        <ele>2213.1</ele>
        <time>2017-08-15T07:33:36Z</time>
      </trkpt>
      <trkpt lat="42.777240" lon="-0.587555">
        <ele>2214.5</ele>
        <time>2017-08-15T07:33:43Z</time>
      </trkpt>
      <trkpt lat="42.777213" lon="-0.587479">
        <ele>2214.5</ele>
        <time>2017-08-15T07:33:47Z</time>
      </trkpt>
      <trkpt lat="42.777206" lon="-0.587407">
        <ele>2214.5</ele>
        <time>2017-08-15T07:33:51Z</time>
      </trkpt>
      <trkpt lat="42.777173" lon="-0.587203">
        <ele>2214.5</ele>
        <time>2017-08-15T07:34:03Z</time>
      </trkpt>
      <trkpt lat="42.777200" lon="-0.586998">
        <ele>2214.5</ele>
        <time>2017-08-15T07:34:17Z</time>
      </trkpt>
      <trkpt lat="42.777208" lon="-0.586942">
        <ele>2215.0</ele>
        <time>2017-08-15T07:34:21Z</time>
      </trkpt>
      <trkpt lat="42.777227" lon="-0.586891">
        <ele>2213.1</ele>
        <time>2017-08-15T07:34:25Z</time>
      </trkpt>
      <trkpt lat="42.777204" lon="-0.586817">
        <ele>2212.6</ele>
        <time>2017-08-15T07:34:30Z</time>
      </trkpt>
      <trkpt lat="42.777184" lon="-0.586668">
        <ele>2212.1</ele>
        <time>2017-08-15T07:34:40Z</time>
      </trkpt>
      <trkpt lat="42.777142" lon="-0.586485">
        <ele>2212.6</ele>
        <time>2017-08-15T07:34:51Z</time>
      </trkpt>
      <trkpt lat="42.777153" lon="-0.586397">
        <ele>2212.6</ele>
        <time>2017-08-15T07:34:55Z</time>
      </trkpt>
      <trkpt lat="42.777170" lon="-0.586354">
        <ele>2212.6</ele>
        <time>2017-08-15T07:34:58Z</time>
      </trkpt>
      <trkpt lat="42.777138" lon="-0.586332">
        <ele>2212.6</ele>
        <time>2017-08-15T07:35:10Z</time>
      </trkpt>
      <trkpt lat="42.777128" lon="-0.586283">
        <ele>2212.6</ele>
        <time>2017-08-15T07:35:25Z</time>
      </trkpt>
      <trkpt lat="42.777054" lon="-0.586159">
        <ele>2213.6</ele>
        <time>2017-08-15T07:35:36Z</time>
      </trkpt>
      <trkpt lat="42.776914" lon="-0.585981">
        <ele>2213.6</ele>
        <time>2017-08-15T07:35:49Z</time>
      </trkpt>
      <trkpt lat="42.776878" lon="-0.585879">
        <ele>2214.1</ele>
        <time>2017-08-15T07:35:56Z</time>
      </trkpt>
      <trkpt lat="42.776814" lon="-0.585651">
        <ele>2215.5</ele>
        <time>2017-08-15T07:36:09Z</time>
      </trkpt>
      <trkpt lat="42.776812" lon="-0.585585">
        <ele>2216.5</ele>
        <time>2017-08-15T07:36:14Z</time>
      </trkpt>
      <trkpt lat="42.776786" lon="-0.585518">
        <ele>2219.8</ele>
        <time>2017-08-15T07:36:18Z</time>
      </trkpt>
      <trkpt lat="42.776772" lon="-0.585465">
        <ele>2222.2</ele>
        <time>2017-08-15T07:36:22Z</time>
      </trkpt>
      <trkpt lat="42.776734" lon="-0.585360">
        <ele>2223.2</ele>
        <time>2017-08-15T07:36:30Z</time>
      </trkpt>
      <trkpt lat="42.776731" lon="-0.585318">
        <ele>2223.7</ele>
        <time>2017-08-15T07:36:32Z</time>
      </trkpt>
      <trkpt lat="42.776704" lon="-0.585215">
        <ele>2223.7</ele>
        <time>2017-08-15T07:36:37Z</time>
      </trkpt>
      <trkpt lat="42.776653" lon="-0.585011">
        <ele>2223.7</ele>
        <time>2017-08-15T07:36:47Z</time>
      </trkpt>
      <trkpt lat="42.776624" lon="-0.584939">
        <ele>2222.2</ele>
        <time>2017-08-15T07:36:51Z</time>
      </trkpt>
      <trkpt lat="42.776557" lon="-0.584836">
        <ele>2222.2</ele>
        <time>2017-08-15T07:36:58Z</time>
      </trkpt>
      <trkpt lat="42.776497" lon="-0.584823">
        <ele>2221.3</ele>
        <time>2017-08-15T07:37:02Z</time>
      </trkpt>
      <trkpt lat="42.776443" lon="-0.584830">
        <ele>2221.3</ele>
        <time>2017-08-15T07:37:06Z</time>
      </trkpt>
      <trkpt lat="42.776419" lon="-0.584816">
        <ele>2220.3</ele>
        <time>2017-08-15T07:37:08Z</time>
      </trkpt>
      <trkpt lat="42.776318" lon="-0.584807">
        <ele>2219.8</ele>
        <time>2017-08-15T07:37:15Z</time>
      </trkpt>
      <trkpt lat="42.776238" lon="-0.584787">
        <ele>2219.3</ele>
        <time>2017-08-15T07:37:21Z</time>
      </trkpt>
      <trkpt lat="42.776091" lon="-0.584835">
        <ele>2219.8</ele>
        <time>2017-08-15T07:37:35Z</time>
      </trkpt>
      <trkpt lat="42.776075" lon="-0.584835">
        <ele>2219.8</ele>
        <time>2017-08-15T07:37:37Z</time>
      </trkpt>
      <trkpt lat="42.776004" lon="-0.584827">
        <ele>2220.8</ele>
        <time>2017-08-15T07:37:43Z</time>
      </trkpt>
      <trkpt lat="42.775932" lon="-0.584828">
        <ele>2221.3</ele>
        <time>2017-08-15T07:37:49Z</time>
      </trkpt>
      <trkpt lat="42.775903" lon="-0.584838">
        <ele>2221.3</ele>
        <time>2017-08-15T07:37:53Z</time>
      </trkpt>
      <trkpt lat="42.775860" lon="-0.584834">
        <ele>2221.7</ele>
        <time>2017-08-15T07:37:58Z</time>
      </trkpt>
      <trkpt lat="42.775829" lon="-0.584819">
        <ele>2222.2</ele>
        <time>2017-08-15T07:38:02Z</time>
      </trkpt>
      <trkpt lat="42.775746" lon="-0.584698">
        <ele>2224.6</ele>
        <time>2017-08-15T07:38:13Z</time>
      </trkpt>
      <trkpt lat="42.775727" lon="-0.584653">
        <ele>2224.6</ele>
        <time>2017-08-15T07:38:18Z</time>
      </trkpt>
      <trkpt lat="42.775717" lon="-0.584466">
        <ele>2225.1</ele>
        <time>2017-08-15T07:38:30Z</time>
      </trkpt>
      <trkpt lat="42.775670" lon="-0.584401">
        <ele>2226.6</ele>
        <time>2017-08-15T07:38:39Z</time>
      </trkpt>
      <trkpt lat="42.775657" lon="-0.584377">
        <ele>2227.5</ele>
        <time>2017-08-15T07:38:43Z</time>
      </trkpt>
      <trkpt lat="42.775628" lon="-0.584398">
        <ele>2229.9</ele>
        <time>2017-08-15T07:38:47Z</time>
      </trkpt>
      <trkpt lat="42.775598" lon="-0.584330">
        <ele>2233.8</ele>
        <time>2017-08-15T07:38:54Z</time>
      </trkpt>
      <trkpt lat="42.775566" lon="-0.584234">
        <ele>2233.8</ele>
        <time>2017-08-15T07:39:06Z</time>
      </trkpt>
      <trkpt lat="42.775531" lon="-0.584047">
        <ele>2236.2</ele>
        <time>2017-08-15T07:39:22Z</time>
      </trkpt>
      <trkpt lat="42.775508" lon="-0.583970">
        <ele>2237.1</ele>
        <time>2017-08-15T07:39:29Z</time>
      </trkpt>
      <trkpt lat="42.775413" lon="-0.583813">
        <ele>2238.1</ele>
        <time>2017-08-15T07:39:43Z</time>
      </trkpt>
      <trkpt lat="42.775246" lon="-0.583656">
        <ele>2238.6</ele>
        <time>2017-08-15T07:39:57Z</time>
      </trkpt>
      <trkpt lat="42.775213" lon="-0.583603">
        <ele>2239.5</ele>
        <time>2017-08-15T07:40:01Z</time>
      </trkpt>
      <trkpt lat="42.775217" lon="-0.583536">
        <ele>2239.5</ele>
        <time>2017-08-15T07:40:05Z</time>
      </trkpt>
      <trkpt lat="42.775191" lon="-0.583398">
        <ele>2241.0</ele>
        <time>2017-08-15T07:40:14Z</time>
      </trkpt>
      <trkpt lat="42.775144" lon="-0.583221">
        <ele>2243.4</ele>
        <time>2017-08-15T07:40:27Z</time>
      </trkpt>
      <trkpt lat="42.775132" lon="-0.583205">
        <ele>2243.9</ele>
        <time>2017-08-15T07:40:29Z</time>
      </trkpt>
      <trkpt lat="42.775100" lon="-0.583173">
        <ele>2244.8</ele>
        <time>2017-08-15T07:40:33Z</time>
      </trkpt>
      <trkpt lat="42.775080" lon="-0.583081">
        <ele>2246.3</ele>
        <time>2017-08-15T07:40:39Z</time>
      </trkpt>
      <trkpt lat="42.775061" lon="-0.583003">
        <ele>2250.1</ele>
        <time>2017-08-15T07:40:45Z</time>
      </trkpt>
      <trkpt lat="42.775040" lon="-0.582977">
        <ele>2250.1</ele>
        <time>2017-08-15T07:40:49Z</time>
      </trkpt>
      <trkpt lat="42.774970" lon="-0.582943">
        <ele>2250.1</ele>
        <time>2017-08-15T07:40:58Z</time>
      </trkpt>
      <trkpt lat="42.774911" lon="-0.582896">
        <ele>2250.1</ele>
        <time>2017-08-15T07:41:04Z</time>
      </trkpt>
      <trkpt lat="42.774812" lon="-0.582802">
        <ele>2250.1</ele>
        <time>2017-08-15T07:41:18Z</time>
      </trkpt>
      <trkpt lat="42.774741" lon="-0.582719">
        <ele>2252.0</ele>
        <time>2017-08-15T07:41:32Z</time>
      </trkpt>
      <trkpt lat="42.774690" lon="-0.582674">
        <ele>2253.0</ele>
        <time>2017-08-15T07:41:39Z</time>
      </trkpt>
      <trkpt lat="42.774668" lon="-0.582660">
        <ele>2253.9</ele>
        <time>2017-08-15T07:41:45Z</time>
      </trkpt>
      <trkpt lat="42.774645" lon="-0.582664">
        <ele>2255.4</ele>
        <time>2017-08-15T07:41:51Z</time>
      </trkpt>
      <trkpt lat="42.774607" lon="-0.582635">
        <ele>2256.4</ele>
        <time>2017-08-15T07:41:57Z</time>
      </trkpt>
      <trkpt lat="42.774563" lon="-0.582565">
        <ele>2258.3</ele>
        <time>2017-08-15T07:42:07Z</time>
      </trkpt>
      <trkpt lat="42.774556" lon="-0.582541">
        <ele>2258.8</ele>
        <time>2017-08-15T07:42:10Z</time>
      </trkpt>
      <trkpt lat="42.774527" lon="-0.582529">
        <ele>2260.2</ele>
        <time>2017-08-15T07:42:15Z</time>
      </trkpt>
      <trkpt lat="42.774477" lon="-0.582562">
        <ele>2261.6</ele>
        <time>2017-08-15T07:42:28Z</time>
      </trkpt>
      <trkpt lat="42.774477" lon="-0.582562">
        <ele>2262.1</ele>
        <time>2017-08-15T07:42:52Z</time>
      </trkpt>
      <trkpt lat="42.774369" lon="-0.582458">
        <ele>2261.6</ele>
        <time>2017-08-15T07:47:10Z</time>
      </trkpt>
      <trkpt lat="42.774339" lon="-0.582340">
        <ele>2260.7</ele>
        <time>2017-08-15T07:47:17Z</time>
      </trkpt>
      <trkpt lat="42.774314" lon="-0.582294">
        <ele>2260.7</ele>
        <time>2017-08-15T07:47:28Z</time>
      </trkpt>
      <trkpt lat="42.774295" lon="-0.582375">
        <ele>2259.7</ele>
        <time>2017-08-15T07:50:42Z</time>
      </trkpt>
      <trkpt lat="42.774252" lon="-0.582447">
        <ele>2259.2</ele>
        <time>2017-08-15T07:50:46Z</time>
      </trkpt>
      <trkpt lat="42.774195" lon="-0.582478">
        <ele>2259.2</ele>
        <time>2017-08-15T07:50:50Z</time>
      </trkpt>
      <trkpt lat="42.774147" lon="-0.582520">
        <ele>2258.3</ele>
        <time>2017-08-15T07:50:55Z</time>
      </trkpt>
      <trkpt lat="42.774153" lon="-0.582383">
        <ele>2255.9</ele>
        <time>2017-08-15T07:51:04Z</time>
      </trkpt>
      <trkpt lat="42.774165" lon="-0.582318">
        <ele>2251.5</ele>
        <time>2017-08-15T07:51:08Z</time>
      </trkpt>
      <trkpt lat="42.774171" lon="-0.582264">
        <ele>2248.7</ele>
        <time>2017-08-15T07:51:11Z</time>
      </trkpt>
      <trkpt lat="42.774201" lon="-0.582072">
        <ele>2246.7</ele>
        <time>2017-08-15T07:51:22Z</time>
      </trkpt>
      <trkpt lat="42.774214" lon="-0.582035">
        <ele>2246.7</ele>
        <time>2017-08-15T07:51:24Z</time>
      </trkpt>
      <trkpt lat="42.774246" lon="-0.581950">
        <ele>2246.3</ele>
        <time>2017-08-15T07:51:28Z</time>
      </trkpt>
      <trkpt lat="42.774294" lon="-0.581837">
        <ele>2241.4</ele>
        <time>2017-08-15T07:51:35Z</time>
      </trkpt>
      <trkpt lat="42.774308" lon="-0.581792">
        <ele>2239.5</ele>
        <time>2017-08-15T07:51:37Z</time>
      </trkpt>
      <trkpt lat="42.774284" lon="-0.581692">
        <ele>2235.7</ele>
        <time>2017-08-15T07:51:47Z</time>
      </trkpt>
      <trkpt lat="42.774344" lon="-0.581618">
        <ele>2235.2</ele>
        <time>2017-08-15T07:51:55Z</time>
      </trkpt>
      <trkpt lat="42.774391" lon="-0.581546">
        <ele>2231.8</ele>
        <time>2017-08-15T07:52:02Z</time>
      </trkpt>
      <trkpt lat="42.774440" lon="-0.581497">
        <ele>2227.5</ele>
        <time>2017-08-15T07:52:06Z</time>
      </trkpt>
      <trkpt lat="42.774413" lon="-0.581494">
        <ele>2226.1</ele>
        <time>2017-08-15T07:52:09Z</time>
      </trkpt>
      <trkpt lat="42.774392" lon="-0.581492">
        <ele>2225.6</ele>
        <time>2017-08-15T07:52:11Z</time>
      </trkpt>
      <trkpt lat="42.774413" lon="-0.581436">
        <ele>2225.1</ele>
        <time>2017-08-15T07:52:16Z</time>
      </trkpt>
      <trkpt lat="42.774417" lon="-0.581410">
        <ele>2225.1</ele>
        <time>2017-08-15T07:52:18Z</time>
      </trkpt>
      <trkpt lat="42.774432" lon="-0.581356">
        <ele>2224.1</ele>
        <time>2017-08-15T07:52:23Z</time>
      </trkpt>
      <trkpt lat="42.774419" lon="-0.581314">
        <ele>2223.7</ele>
        <time>2017-08-15T07:52:26Z</time>
      </trkpt>
      <trkpt lat="42.774399" lon="-0.581303">
        <ele>2221.7</ele>
        <time>2017-08-15T07:52:28Z</time>
      </trkpt>
      <trkpt lat="42.774391" lon="-0.581233">
        <ele>2216.9</ele>
        <time>2017-08-15T07:52:33Z</time>
      </trkpt>
      <trkpt lat="42.774394" lon="-0.581203">
        <ele>2216.5</ele>
        <time>2017-08-15T07:52:35Z</time>
      </trkpt>
      <trkpt lat="42.774398" lon="-0.581165">
        <ele>2216.0</ele>
        <time>2017-08-15T07:52:37Z</time>
      </trkpt>
      <trkpt lat="42.774418" lon="-0.581090">
        <ele>2214.1</ele>
        <time>2017-08-15T07:52:42Z</time>
      </trkpt>
      <trkpt lat="42.774457" lon="-0.580936">
        <ele>2210.2</ele>
        <time>2017-08-15T07:52:51Z</time>
      </trkpt>
      <trkpt lat="42.774498" lon="-0.580897">
        <ele>2209.2</ele>
        <time>2017-08-15T07:52:54Z</time>
      </trkpt>
      <trkpt lat="42.774589" lon="-0.580845">
        <ele>2206.4</ele>
        <time>2017-08-15T07:53:00Z</time>
      </trkpt>
      <trkpt lat="42.774696" lon="-0.580754">
        <ele>2203.0</ele>
        <time>2017-08-15T07:53:11Z</time>
      </trkpt>
      <trkpt lat="42.774726" lon="-0.580726">
        <ele>2199.6</ele>
        <time>2017-08-15T07:53:20Z</time>
      </trkpt>
      <trkpt lat="42.774756" lon="-0.580709">
        <ele>2197.2</ele>
        <time>2017-08-15T07:53:30Z</time>
      </trkpt>
      <trkpt lat="42.774790" lon="-0.580683">
        <ele>2196.3</ele>
        <time>2017-08-15T07:53:34Z</time>
      </trkpt>
      <trkpt lat="42.774821" lon="-0.580546">
        <ele>2192.9</ele>
        <time>2017-08-15T07:53:42Z</time>
      </trkpt>
      <trkpt lat="42.774863" lon="-0.580524">
        <ele>2189.5</ele>
        <time>2017-08-15T07:53:47Z</time>
      </trkpt>
      <trkpt lat="42.774899" lon="-0.580526">
        <ele>2188.1</ele>
        <time>2017-08-15T07:53:50Z</time>
      </trkpt>
      <trkpt lat="42.774934" lon="-0.580495">
        <ele>2187.1</ele>
        <time>2017-08-15T07:53:54Z</time>
      </trkpt>
      <trkpt lat="42.775055" lon="-0.580368">
        <ele>2186.7</ele>
        <time>2017-08-15T07:54:07Z</time>
      </trkpt>
      <trkpt lat="42.775077" lon="-0.580351">
        <ele>2186.7</ele>
        <time>2017-08-15T07:54:09Z</time>
      </trkpt>
      <trkpt lat="42.775108" lon="-0.580349">
        <ele>2186.2</ele>
        <time>2017-08-15T07:54:12Z</time>
      </trkpt>
      <trkpt lat="42.775238" lon="-0.580298">
        <ele>2185.2</ele>
        <time>2017-08-15T07:54:22Z</time>
      </trkpt>
      <trkpt lat="42.775353" lon="-0.580344">
        <ele>2183.8</ele>
        <time>2017-08-15T07:54:31Z</time>
      </trkpt>
      <trkpt lat="42.775420" lon="-0.580288">
        <ele>2180.4</ele>
        <time>2017-08-15T07:54:38Z</time>
      </trkpt>
      <trkpt lat="42.775468" lon="-0.580233">
        <ele>2177.0</ele>
        <time>2017-08-15T07:54:42Z</time>
      </trkpt>
      <trkpt lat="42.775474" lon="-0.580221">
        <ele>2176.1</ele>
        <time>2017-08-15T07:54:43Z</time>
      </trkpt>
      <trkpt lat="42.775500" lon="-0.580211">
        <ele>2175.6</ele>
        <time>2017-08-15T07:54:46Z</time>
      </trkpt>
      <trkpt lat="42.775495" lon="-0.580150">
        <ele>2176.1</ele>
        <time>2017-08-15T07:54:50Z</time>
      </trkpt>
      <trkpt lat="42.775502" lon="-0.580121">
        <ele>2176.1</ele>
        <time>2017-08-15T07:54:52Z</time>
      </trkpt>
      <trkpt lat="42.775510" lon="-0.580081">
        <ele>2175.6</ele>
        <time>2017-08-15T07:54:55Z</time>
      </trkpt>
      <trkpt lat="42.775489" lon="-0.579989">
        <ele>2172.7</ele>
        <time>2017-08-15T07:55:03Z</time>
      </trkpt>
      <trkpt lat="42.775503" lon="-0.579935">
        <ele>2168.4</ele>
        <time>2017-08-15T07:55:08Z</time>
      </trkpt>
      <trkpt lat="42.775433" lon="-0.579902">
        <ele>2166.9</ele>
        <time>2017-08-15T07:55:13Z</time>
      </trkpt>
      <trkpt lat="42.775403" lon="-0.579864">
        <ele>2166.9</ele>
        <time>2017-08-15T07:55:16Z</time>
      </trkpt>
      <trkpt lat="42.775405" lon="-0.579793">
        <ele>2166.9</ele>
        <time>2017-08-15T07:55:21Z</time>
      </trkpt>
      <trkpt lat="42.775351" lon="-0.579728">
        <ele>2166.0</ele>
        <time>2017-08-15T07:55:26Z</time>
      </trkpt>
      <trkpt lat="42.775317" lon="-0.579725">
        <ele>2165.5</ele>
        <time>2017-08-15T07:55:28Z</time>
      </trkpt>
      <trkpt lat="42.775278" lon="-0.579673">
        <ele>2164.6</ele>
        <time>2017-08-15T07:55:41Z</time>
      </trkpt>
      <trkpt lat="42.775194" lon="-0.579606">
        <ele>2165.0</ele>
        <time>2017-08-15T07:59:03Z</time>
      </trkpt>
      <trkpt lat="42.775152" lon="-0.579585">
        <ele>2165.0</ele>
        <time>2017-08-15T07:59:07Z</time>
      </trkpt>
      <trkpt lat="42.775148" lon="-0.579526">
        <ele>2163.6</ele>
        <time>2017-08-15T07:59:11Z</time>
      </trkpt>
      <trkpt lat="42.775164" lon="-0.579487">
        <ele>2163.6</ele>
        <time>2017-08-15T07:59:14Z</time>
      </trkpt>
      <trkpt lat="42.775206" lon="-0.579393">
        <ele>2162.1</ele>
        <time>2017-08-15T07:59:21Z</time>
      </trkpt>
      <trkpt lat="42.775240" lon="-0.579315">
        <ele>2158.3</ele>
        <time>2017-08-15T07:59:28Z</time>
      </trkpt>
      <trkpt lat="42.775247" lon="-0.579305">
        <ele>2157.3</ele>
        <time>2017-08-15T07:59:29Z</time>
      </trkpt>
      <trkpt lat="42.775247" lon="-0.579225">
        <ele>2153.0</ele>
        <time>2017-08-15T07:59:34Z</time>
      </trkpt>
      <trkpt lat="42.775258" lon="-0.579160">
        <ele>2153.0</ele>
        <time>2017-08-15T07:59:38Z</time>
      </trkpt>
      <trkpt lat="42.775270" lon="-0.579141">
        <ele>2153.0</ele>
        <time>2017-08-15T07:59:40Z</time>
      </trkpt>
      <trkpt lat="42.775273" lon="-0.579101">
        <ele>2153.0</ele>
        <time>2017-08-15T07:59:44Z</time>
      </trkpt>
      <trkpt lat="42.775287" lon="-0.579063">
        <ele>2152.5</ele>
        <time>2017-08-15T07:59:47Z</time>
      </trkpt>
      <trkpt lat="42.775339" lon="-0.578977">
        <ele>2149.2</ele>
        <time>2017-08-15T07:59:56Z</time>
      </trkpt>
      <trkpt lat="42.775341" lon="-0.578955">
        <ele>2147.2</ele>
        <time>2017-08-15T07:59:58Z</time>
      </trkpt>
      <trkpt lat="42.775338" lon="-0.578930">
        <ele>2145.3</ele>
        <time>2017-08-15T08:00:00Z</time>
      </trkpt>
      <trkpt lat="42.775315" lon="-0.578914">
        <ele>2143.9</ele>
        <time>2017-08-15T08:00:15Z</time>
      </trkpt>
      <trkpt lat="42.775289" lon="-0.578875">
        <ele>2143.9</ele>
        <time>2017-08-15T08:00:26Z</time>
      </trkpt>
      <trkpt lat="42.775260" lon="-0.578821">
        <ele>2143.9</ele>
        <time>2017-08-15T08:00:30Z</time>
      </trkpt>
      <trkpt lat="42.775205" lon="-0.578783">
        <ele>2140.5</ele>
        <time>2017-08-15T08:00:36Z</time>
      </trkpt>
      <trkpt lat="42.775196" lon="-0.578776">
        <ele>2139.6</ele>
        <time>2017-08-15T08:00:37Z</time>
      </trkpt>
      <trkpt lat="42.775181" lon="-0.578751">
        <ele>2136.2</ele>
        <time>2017-08-15T08:00:41Z</time>
      </trkpt>
      <trkpt lat="42.775161" lon="-0.578670">
        <ele>2135.2</ele>
        <time>2017-08-15T08:00:52Z</time>
      </trkpt>
      <trkpt lat="42.775117" lon="-0.578619">
        <ele>2133.3</ele>
        <time>2017-08-15T08:01:00Z</time>
      </trkpt>
      <trkpt lat="42.775062" lon="-0.578577">
        <ele>2129.9</ele>
        <time>2017-08-15T08:01:05Z</time>
      </trkpt>
      <trkpt lat="42.775012" lon="-0.578499">
        <ele>2126.1</ele>
        <time>2017-08-15T08:01:10Z</time>
      </trkpt>
      <trkpt lat="42.774978" lon="-0.578442">
        <ele>2125.1</ele>
        <time>2017-08-15T08:01:14Z</time>
      </trkpt>
      <trkpt lat="42.774944" lon="-0.578182">
        <ele>2123.7</ele>
        <time>2017-08-15T08:01:27Z</time>
      </trkpt>
      <trkpt lat="42.774901" lon="-0.578118">
        <ele>2122.2</ele>
        <time>2017-08-15T08:01:32Z</time>
      </trkpt>
      <trkpt lat="42.774836" lon="-0.578101">
        <ele>2121.8</ele>
        <time>2017-08-15T08:01:37Z</time>
      </trkpt>
      <trkpt lat="42.774700" lon="-0.577977">
        <ele>2120.8</ele>
        <time>2017-08-15T08:01:45Z</time>
      </trkpt>
      <trkpt lat="42.774593" lon="-0.577798">
        <ele>2119.8</ele>
        <time>2017-08-15T08:01:56Z</time>
      </trkpt>
      <trkpt lat="42.774589" lon="-0.577796">
        <ele>2119.4</ele>
        <time>2017-08-15T08:02:05Z</time>
      </trkpt>
      <trkpt lat="42.774527" lon="-0.577831">
        <ele>2118.9</ele>
        <time>2017-08-15T08:02:10Z</time>
      </trkpt>
      <trkpt lat="42.774474" lon="-0.577857">
        <ele>2117.4</ele>
        <time>2017-08-15T08:02:15Z</time>
      </trkpt>
      <trkpt lat="42.774444" lon="-0.577853">
        <ele>2117.0</ele>
        <time>2017-08-15T08:02:18Z</time>
      </trkpt>
      <trkpt lat="42.774428" lon="-0.577855">
        <ele>2117.0</ele>
        <time>2017-08-15T08:02:20Z</time>
      </trkpt>
      <trkpt lat="42.774395" lon="-0.577845">
        <ele>2116.0</ele>
        <time>2017-08-15T08:02:23Z</time>
      </trkpt>
      <trkpt lat="42.774338" lon="-0.577862">
        <ele>2114.1</ele>
        <time>2017-08-15T08:02:28Z</time>
      </trkpt>
      <trkpt lat="42.774294" lon="-0.577886">
        <ele>2112.1</ele>
        <time>2017-08-15T08:02:34Z</time>
      </trkpt>
      <trkpt lat="42.774266" lon="-0.577924">
        <ele>2111.7</ele>
        <time>2017-08-15T08:02:38Z</time>
      </trkpt>
      <trkpt lat="42.774244" lon="-0.577928">
        <ele>2111.7</ele>
        <time>2017-08-15T08:02:40Z</time>
      </trkpt>
      <trkpt lat="42.774181" lon="-0.577878">
        <ele>2109.8</ele>
        <time>2017-08-15T08:02:49Z</time>
      </trkpt>
      <trkpt lat="42.774134" lon="-0.577865">
        <ele>2104.9</ele>
        <time>2017-08-15T08:02:54Z</time>
      </trkpt>
      <trkpt lat="42.774108" lon="-0.577873">
        <ele>2101.6</ele>
        <time>2017-08-15T08:02:57Z</time>
      </trkpt>
      <trkpt lat="42.774036" lon="-0.577883">
        <ele>2099.7</ele>
        <time>2017-08-15T08:03:02Z</time>
      </trkpt>
      <trkpt lat="42.774015" lon="-0.577892">
        <ele>2100.1</ele>
        <time>2017-08-15T08:03:04Z</time>
      </trkpt>
      <trkpt lat="42.773963" lon="-0.577869">
        <ele>2100.1</ele>
        <time>2017-08-15T08:03:09Z</time>
      </trkpt>
      <trkpt lat="42.773890" lon="-0.577835">
        <ele>2097.7</ele>
        <time>2017-08-15T08:03:16Z</time>
      </trkpt>
      <trkpt lat="42.773838" lon="-0.577792">
        <ele>2092.9</ele>
        <time>2017-08-15T08:03:20Z</time>
      </trkpt>
      <trkpt lat="42.773807" lon="-0.577774">
        <ele>2091.0</ele>
        <time>2017-08-15T08:03:22Z</time>
      </trkpt>
      <trkpt lat="42.773754" lon="-0.577781">
        <ele>2090.0</ele>
        <time>2017-08-15T08:03:26Z</time>
      </trkpt>
      <trkpt lat="42.773740" lon="-0.577768">
        <ele>2089.6</ele>
        <time>2017-08-15T08:03:28Z</time>
      </trkpt>
      <trkpt lat="42.773669" lon="-0.577787">
        <ele>2089.6</ele>
        <time>2017-08-15T08:03:39Z</time>
      </trkpt>
      <trkpt lat="42.773685" lon="-0.577751">
        <ele>2089.1</ele>
        <time>2017-08-15T08:03:42Z</time>
      </trkpt>
      <trkpt lat="42.773705" lon="-0.577608">
        <ele>2088.6</ele>
        <time>2017-08-15T08:03:53Z</time>
      </trkpt>
      <trkpt lat="42.773705" lon="-0.577608">
        <ele>2087.6</ele>
        <time>2017-08-15T08:03:54Z</time>
      </trkpt>
      <trkpt lat="42.773682" lon="-0.577628">
        <ele>2087.2</ele>
        <time>2017-08-15T08:03:56Z</time>
      </trkpt>
      <trkpt lat="42.773641" lon="-0.577664">
        <ele>2085.2</ele>
        <time>2017-08-15T08:04:00Z</time>
      </trkpt>
      <trkpt lat="42.773586" lon="-0.577666">
        <ele>2080.4</ele>
        <time>2017-08-15T08:04:05Z</time>
      </trkpt>
      <trkpt lat="42.773587" lon="-0.577661">
        <ele>2079.9</ele>
        <time>2017-08-15T08:04:06Z</time>
      </trkpt>
      <trkpt lat="42.773589" lon="-0.577566">
        <ele>2078.5</ele>
        <time>2017-08-15T08:04:16Z</time>
      </trkpt>
      <trkpt lat="42.773579" lon="-0.577567">
        <ele>2078.5</ele>
        <time>2017-08-15T08:04:17Z</time>
      </trkpt>
      <trkpt lat="42.773538" lon="-0.577546">
        <ele>2077.6</ele>
        <time>2017-08-15T08:04:21Z</time>
      </trkpt>
      <trkpt lat="42.773515" lon="-0.577554">
        <ele>2078.0</ele>
        <time>2017-08-15T08:04:23Z</time>
      </trkpt>
      <trkpt lat="42.773443" lon="-0.577510">
        <ele>2076.1</ele>
        <time>2017-08-15T08:04:29Z</time>
      </trkpt>
      <trkpt lat="42.773393" lon="-0.577457">
        <ele>2075.6</ele>
        <time>2017-08-15T08:04:34Z</time>
      </trkpt>
      <trkpt lat="42.773381" lon="-0.577413">
        <ele>2071.3</ele>
        <time>2017-08-15T08:04:40Z</time>
      </trkpt>
      <trkpt lat="42.773378" lon="-0.577365">
        <ele>2067.9</ele>
        <time>2017-08-15T08:04:44Z</time>
      </trkpt>
      <trkpt lat="42.773372" lon="-0.577353">
        <ele>2066.5</ele>
        <time>2017-08-15T08:04:46Z</time>
      </trkpt>
      <trkpt lat="42.773348" lon="-0.577324">
        <ele>2066.0</ele>
        <time>2017-08-15T08:04:50Z</time>
      </trkpt>
      <trkpt lat="42.773196" lon="-0.577300">
        <ele>2066.0</ele>
        <time>2017-08-15T08:05:02Z</time>
      </trkpt>
      <trkpt lat="42.773196" lon="-0.577300">
        <ele>2066.0</ele>
        <time>2017-08-15T08:05:03Z</time>
      </trkpt>
      <trkpt lat="42.773093" lon="-0.577266">
        <ele>2062.2</ele>
        <time>2017-08-15T08:05:12Z</time>
      </trkpt>
      <trkpt lat="42.773068" lon="-0.577257">
        <ele>2058.3</ele>
        <time>2017-08-15T08:05:16Z</time>
      </trkpt>
      <trkpt lat="42.773073" lon="-0.577256">
        <ele>2058.3</ele>
        <time>2017-08-15T08:05:17Z</time>
      </trkpt>
      <trkpt lat="42.773079" lon="-0.577225">
        <ele>2056.9</ele>
        <time>2017-08-15T08:05:19Z</time>
      </trkpt>
      <trkpt lat="42.773064" lon="-0.577200">
        <ele>2056.4</ele>
        <time>2017-08-15T08:05:33Z</time>
      </trkpt>
      <trkpt lat="42.773064" lon="-0.577200">
        <ele>2058.3</ele>
        <time>2017-08-15T08:05:52Z</time>
      </trkpt>
      <trkpt lat="42.773003" lon="-0.577215">
        <ele>2058.8</ele>
        <time>2017-08-15T08:06:16Z</time>
      </trkpt>
      <trkpt lat="42.772977" lon="-0.577224">
        <ele>2057.4</ele>
        <time>2017-08-15T08:06:18Z</time>
      </trkpt>
      <trkpt lat="42.772933" lon="-0.577256">
        <ele>2054.0</ele>
        <time>2017-08-15T08:06:22Z</time>
      </trkpt>
      <trkpt lat="42.772893" lon="-0.577268">
        <ele>2050.6</ele>
        <time>2017-08-15T08:06:26Z</time>
      </trkpt>
      <trkpt lat="42.772888" lon="-0.577273">
        <ele>2049.7</ele>
        <time>2017-08-15T08:06:28Z</time>
      </trkpt>
      <trkpt lat="42.772865" lon="-0.577288">
        <ele>2049.7</ele>
        <time>2017-08-15T08:06:37Z</time>
      </trkpt>
      <trkpt lat="42.772803" lon="-0.577265">
        <ele>2049.2</ele>
        <time>2017-08-15T08:06:44Z</time>
      </trkpt>
      <trkpt lat="42.772765" lon="-0.577283">
        <ele>2048.7</ele>
        <time>2017-08-15T08:06:48Z</time>
      </trkpt>
      <trkpt lat="42.772734" lon="-0.577284">
        <ele>2048.2</ele>
        <time>2017-08-15T08:06:50Z</time>
      </trkpt>
      <trkpt lat="42.772702" lon="-0.577278">
        <ele>2046.8</ele>
        <time>2017-08-15T08:06:54Z</time>
      </trkpt>
      <trkpt lat="42.772670" lon="-0.577282">
        <ele>2046.8</ele>
        <time>2017-08-15T08:06:57Z</time>
      </trkpt>
      <trkpt lat="42.772615" lon="-0.577338">
        <ele>2042.9</ele>
        <time>2017-08-15T08:07:01Z</time>
      </trkpt>
      <trkpt lat="42.772557" lon="-0.577372">
        <ele>2040.5</ele>
        <time>2017-08-15T08:07:06Z</time>
      </trkpt>
      <trkpt lat="42.772505" lon="-0.577431">
        <ele>2039.6</ele>
        <time>2017-08-15T08:07:12Z</time>
      </trkpt>
      <trkpt lat="42.772490" lon="-0.577420">
        <ele>2039.6</ele>
        <time>2017-08-15T08:07:15Z</time>
      </trkpt>
      <trkpt lat="42.772472" lon="-0.577472">
        <ele>2039.6</ele>
        <time>2017-08-15T08:07:18Z</time>
      </trkpt>
      <trkpt lat="42.772432" lon="-0.577473">
        <ele>2038.6</ele>
        <time>2017-08-15T08:07:22Z</time>
      </trkpt>
      <trkpt lat="42.772374" lon="-0.577516">
        <ele>2035.7</ele>
        <time>2017-08-15T08:07:27Z</time>
      </trkpt>
      <trkpt lat="42.772380" lon="-0.577449">
        <ele>2030.4</ele>
        <time>2017-08-15T08:07:43Z</time>
      </trkpt>
      <trkpt lat="42.772381" lon="-0.577418">
        <ele>2030.4</ele>
        <time>2017-08-15T08:07:45Z</time>
      </trkpt>
      <trkpt lat="42.772334" lon="-0.577512">
        <ele>2029.5</ele>
        <time>2017-08-15T08:07:54Z</time>
      </trkpt>
      <trkpt lat="42.772273" lon="-0.577494">
        <ele>2028.0</ele>
        <time>2017-08-15T08:08:01Z</time>
      </trkpt>
      <trkpt lat="42.772243" lon="-0.577485">
        <ele>2026.6</ele>
        <time>2017-08-15T08:08:10Z</time>
      </trkpt>
      <trkpt lat="42.772251" lon="-0.577465">
        <ele>2023.2</ele>
        <time>2017-08-15T08:08:15Z</time>
      </trkpt>
      <trkpt lat="42.772261" lon="-0.577417">
        <ele>2019.4</ele>
        <time>2017-08-15T08:08:19Z</time>
      </trkpt>
      <trkpt lat="42.772273" lon="-0.577341">
        <ele>2017.9</ele>
        <time>2017-08-15T08:08:28Z</time>
      </trkpt>
      <trkpt lat="42.772261" lon="-0.577321">
        <ele>2017.9</ele>
        <time>2017-08-15T08:08:32Z</time>
      </trkpt>
      <trkpt lat="42.772172" lon="-0.577311">
        <ele>2016.5</ele>
        <time>2017-08-15T08:08:38Z</time>
      </trkpt>
      <trkpt lat="42.772146" lon="-0.577285">
        <ele>2012.7</ele>
        <time>2017-08-15T08:08:45Z</time>
      </trkpt>
      <trkpt lat="42.772122" lon="-0.577272">
        <ele>2011.2</ele>
        <time>2017-08-15T08:08:47Z</time>
      </trkpt>
      <trkpt lat="42.772071" lon="-0.577237">
        <ele>2006.9</ele>
        <time>2017-08-15T08:08:54Z</time>
      </trkpt>
      <trkpt lat="42.772040" lon="-0.577201">
        <ele>2006.4</ele>
        <time>2017-08-15T08:08:59Z</time>
      </trkpt>
      <trkpt lat="42.772016" lon="-0.577118">
        <ele>2006.4</ele>
        <time>2017-08-15T08:09:05Z</time>
      </trkpt>
      <trkpt lat="42.771907" lon="-0.577092">
        <ele>2005.4</ele>
        <time>2017-08-15T08:09:13Z</time>
      </trkpt>
      <trkpt lat="42.771874" lon="-0.577072">
        <ele>2005.0</ele>
        <time>2017-08-15T08:09:16Z</time>
      </trkpt>
      <trkpt lat="42.771823" lon="-0.577058">
        <ele>2003.5</ele>
        <time>2017-08-15T08:09:20Z</time>
      </trkpt>
      <trkpt lat="42.771792" lon="-0.577056">
        <ele>2003.5</ele>
        <time>2017-08-15T08:09:22Z</time>
      </trkpt>
      <trkpt lat="42.771734" lon="-0.577046">
        <ele>2002.1</ele>
        <time>2017-08-15T08:09:27Z</time>
      </trkpt>
      <trkpt lat="42.771664" lon="-0.577016">
        <ele>2001.6</ele>
        <time>2017-08-15T08:09:34Z</time>
      </trkpt>
      <trkpt lat="42.771634" lon="-0.576996">
        <ele>2001.6</ele>
        <time>2017-08-15T08:09:37Z</time>
      </trkpt>
      <trkpt lat="42.771578" lon="-0.576899">
        <ele>2001.6</ele>
        <time>2017-08-15T08:09:45Z</time>
      </trkpt>
      <trkpt lat="42.771529" lon="-0.576830">
        <ele>2000.6</ele>
        <time>2017-08-15T08:09:51Z</time>
      </trkpt>
      <trkpt lat="42.771434" lon="-0.576707">
        <ele>1998.7</ele>
        <time>2017-08-15T08:10:01Z</time>
      </trkpt>
      <trkpt lat="42.771302" lon="-0.576548">
        <ele>1997.3</ele>
        <time>2017-08-15T08:10:13Z</time>
      </trkpt>
      <trkpt lat="42.771225" lon="-0.576411">
        <ele>1996.8</ele>
        <time>2017-08-15T08:10:21Z</time>
      </trkpt>
      <trkpt lat="42.771162" lon="-0.576308">
        <ele>1995.3</ele>
        <time>2017-08-15T08:10:30Z</time>
      </trkpt>
      <trkpt lat="42.771138" lon="-0.576281">
        <ele>1995.3</ele>
        <time>2017-08-15T08:10:33Z</time>
      </trkpt>
      <trkpt lat="42.771088" lon="-0.576225">
        <ele>1994.9</ele>
        <time>2017-08-15T08:10:40Z</time>
      </trkpt>
      <trkpt lat="42.771052" lon="-0.576208">
        <ele>1994.9</ele>
        <time>2017-08-15T08:10:43Z</time>
      </trkpt>
      <trkpt lat="42.771014" lon="-0.576074">
        <ele>1993.9</ele>
        <time>2017-08-15T08:10:50Z</time>
      </trkpt>
      <trkpt lat="42.770988" lon="-0.576041">
        <ele>1992.5</ele>
        <time>2017-08-15T08:10:54Z</time>
      </trkpt>
      <trkpt lat="42.770921" lon="-0.575961">
        <ele>1991.5</ele>
        <time>2017-08-15T08:11:02Z</time>
      </trkpt>
      <trkpt lat="42.770860" lon="-0.575844">
        <ele>1991.0</ele>
        <time>2017-08-15T08:11:12Z</time>
      </trkpt>
      <trkpt lat="42.770879" lon="-0.575774">
        <ele>1989.1</ele>
        <time>2017-08-15T08:11:24Z</time>
      </trkpt>
      <trkpt lat="42.770873" lon="-0.575717">
        <ele>1986.2</ele>
        <time>2017-08-15T08:11:29Z</time>
      </trkpt>
      <trkpt lat="42.770870" lon="-0.575673">
        <ele>1982.9</ele>
        <time>2017-08-15T08:11:34Z</time>
      </trkpt>
      <trkpt lat="42.770877" lon="-0.575656">
        <ele>1983.3</ele>
        <time>2017-08-15T08:11:35Z</time>
      </trkpt>
      <trkpt lat="42.770868" lon="-0.575595">
        <ele>1982.9</ele>
        <time>2017-08-15T08:11:39Z</time>
      </trkpt>
      <trkpt lat="42.770843" lon="-0.575553">
        <ele>1982.4</ele>
        <time>2017-08-15T08:11:49Z</time>
      </trkpt>
      <trkpt lat="42.770839" lon="-0.575553">
        <ele>1982.4</ele>
        <time>2017-08-15T08:11:50Z</time>
      </trkpt>
      <trkpt lat="42.770857" lon="-0.575405">
        <ele>1983.8</ele>
        <time>2017-08-15T08:12:01Z</time>
      </trkpt>
      <trkpt lat="42.770923" lon="-0.575155">
        <ele>1984.8</ele>
        <time>2017-08-15T08:12:12Z</time>
      </trkpt>
      <trkpt lat="42.770898" lon="-0.575033">
        <ele>1985.3</ele>
        <time>2017-08-15T08:12:23Z</time>
      </trkpt>
      <trkpt lat="42.770905" lon="-0.574963">
        <ele>1986.2</ele>
        <time>2017-08-15T08:12:29Z</time>
      </trkpt>
      <trkpt lat="42.770923" lon="-0.574895">
        <ele>1986.2</ele>
        <time>2017-08-15T08:12:33Z</time>
      </trkpt>
      <trkpt lat="42.770914" lon="-0.574827">
        <ele>1986.7</ele>
        <time>2017-08-15T08:12:38Z</time>
      </trkpt>
      <trkpt lat="42.770994" lon="-0.574615">
        <ele>1987.7</ele>
        <time>2017-08-15T08:12:50Z</time>
      </trkpt>
      <trkpt lat="42.770895" lon="-0.574542">
        <ele>1988.6</ele>
        <time>2017-08-15T08:13:00Z</time>
      </trkpt>
      <trkpt lat="42.770821" lon="-0.574489">
        <ele>1992.5</ele>
        <time>2017-08-15T08:13:07Z</time>
      </trkpt>
      <trkpt lat="42.770805" lon="-0.574476">
        <ele>1993.4</ele>
        <time>2017-08-15T08:13:09Z</time>
      </trkpt>
      <trkpt lat="42.770799" lon="-0.574463">
        <ele>1994.4</ele>
        <time>2017-08-15T08:13:10Z</time>
      </trkpt>
      <trkpt lat="42.770753" lon="-0.574352">
        <ele>1995.3</ele>
        <time>2017-08-15T08:13:18Z</time>
      </trkpt>
      <trkpt lat="42.770767" lon="-0.574252">
        <ele>1993.9</ele>
        <time>2017-08-15T08:13:24Z</time>
      </trkpt>
      <trkpt lat="42.770775" lon="-0.574242">
        <ele>1993.9</ele>
        <time>2017-08-15T08:13:25Z</time>
      </trkpt>
      <trkpt lat="42.770845" lon="-0.574201">
        <ele>1990.6</ele>
        <time>2017-08-15T08:13:31Z</time>
      </trkpt>
      <trkpt lat="42.770854" lon="-0.574199">
        <ele>1989.6</ele>
        <time>2017-08-15T08:13:32Z</time>
      </trkpt>
      <trkpt lat="42.770876" lon="-0.574176">
        <ele>1988.1</ele>
        <time>2017-08-15T08:13:34Z</time>
      </trkpt>
      <trkpt lat="42.770902" lon="-0.574157">
        <ele>1986.7</ele>
        <time>2017-08-15T08:13:36Z</time>
      </trkpt>
      <trkpt lat="42.771020" lon="-0.574033">
        <ele>1984.8</ele>
        <time>2017-08-15T08:13:48Z</time>
      </trkpt>
      <trkpt lat="42.771031" lon="-0.574015">
        <ele>1984.8</ele>
        <time>2017-08-15T08:13:49Z</time>
      </trkpt>
      <trkpt lat="42.770999" lon="-0.573905">
        <ele>1984.8</ele>
        <time>2017-08-15T08:13:56Z</time>
      </trkpt>
      <trkpt lat="42.770970" lon="-0.573734">
        <ele>1986.2</ele>
        <time>2017-08-15T08:14:08Z</time>
      </trkpt>
      <trkpt lat="42.770999" lon="-0.573509">
        <ele>1987.7</ele>
        <time>2017-08-15T08:14:22Z</time>
      </trkpt>
      <trkpt lat="42.771007" lon="-0.573478">
        <ele>1988.1</ele>
        <time>2017-08-15T08:14:24Z</time>
      </trkpt>
      <trkpt lat="42.771047" lon="-0.573410">
        <ele>1988.1</ele>
        <time>2017-08-15T08:14:28Z</time>
      </trkpt>
      <trkpt lat="42.771196" lon="-0.573272">
        <ele>1989.1</ele>
        <time>2017-08-15T08:14:39Z</time>
      </trkpt>
      <trkpt lat="42.771248" lon="-0.572942">
        <ele>1990.6</ele>
        <time>2017-08-15T08:14:55Z</time>
      </trkpt>
      <trkpt lat="42.771244" lon="-0.572826">
        <ele>1991.0</ele>
        <time>2017-08-15T08:15:03Z</time>
      </trkpt>
      <trkpt lat="42.771260" lon="-0.572705">
        <ele>1991.0</ele>
        <time>2017-08-15T08:15:09Z</time>
      </trkpt>
      <trkpt lat="42.771268" lon="-0.572637">
        <ele>1991.5</ele>
        <time>2017-08-15T08:15:12Z</time>
      </trkpt>
      <trkpt lat="42.771259" lon="-0.572542">
        <ele>1992.0</ele>
        <time>2017-08-15T08:15:16Z</time>
      </trkpt>
      <trkpt lat="42.771269" lon="-0.572444">
        <ele>1992.5</ele>
        <time>2017-08-15T08:15:22Z</time>
      </trkpt>
      <trkpt lat="42.771391" lon="-0.572147">
        <ele>1993.4</ele>
        <time>2017-08-15T08:15:39Z</time>
      </trkpt>
      <trkpt lat="42.771385" lon="-0.571978">
        <ele>1993.9</ele>
        <time>2017-08-15T08:15:48Z</time>
      </trkpt>
      <trkpt lat="42.771457" lon="-0.571841">
        <ele>1994.4</ele>
        <time>2017-08-15T08:15:58Z</time>
      </trkpt>
      <trkpt lat="42.771491" lon="-0.571664">
        <ele>1994.9</ele>
        <time>2017-08-15T08:16:09Z</time>
      </trkpt>
      <trkpt lat="42.771504" lon="-0.571614">
        <ele>1998.2</ele>
        <time>2017-08-15T08:16:15Z</time>
      </trkpt>
      <trkpt lat="42.771510" lon="-0.571613">
        <ele>1998.7</ele>
        <time>2017-08-15T08:16:16Z</time>
      </trkpt>
      <trkpt lat="42.771566" lon="-0.571533">
        <ele>1997.8</ele>
        <time>2017-08-15T08:16:31Z</time>
      </trkpt>
      <trkpt lat="42.771612" lon="-0.571457">
        <ele>1997.8</ele>
        <time>2017-08-15T08:16:46Z</time>
      </trkpt>
      <trkpt lat="42.771666" lon="-0.571271">
        <ele>1997.8</ele>
        <time>2017-08-15T08:17:01Z</time>
      </trkpt>
      <trkpt lat="42.771704" lon="-0.571138">
        <ele>1997.8</ele>
        <time>2017-08-15T08:17:09Z</time>
      </trkpt>
      <trkpt lat="42.771790" lon="-0.570994">
        <ele>1997.8</ele>
        <time>2017-08-15T08:17:21Z</time>
      </trkpt>
      <trkpt lat="42.771810" lon="-0.570931">
        <ele>1997.8</ele>
        <time>2017-08-15T08:17:24Z</time>
      </trkpt>
      <trkpt lat="42.771825" lon="-0.570892">
        <ele>1997.8</ele>
        <time>2017-08-15T08:17:27Z</time>
      </trkpt>
      <trkpt lat="42.771842" lon="-0.570829">
        <ele>1997.8</ele>
        <time>2017-08-15T08:17:31Z</time>
      </trkpt>
      <trkpt lat="42.771886" lon="-0.570742">
        <ele>1997.8</ele>
        <time>2017-08-15T08:17:38Z</time>
      </trkpt>
      <trkpt lat="42.771914" lon="-0.570670">
        <ele>1997.8</ele>
        <time>2017-08-15T08:17:42Z</time>
      </trkpt>
      <trkpt lat="42.771940" lon="-0.570628">
        <ele>1997.8</ele>
        <time>2017-08-15T08:17:45Z</time>
      </trkpt>
      <trkpt lat="42.772022" lon="-0.570482">
        <ele>2001.1</ele>
        <time>2017-08-15T08:17:58Z</time>
      </trkpt>
      <trkpt lat="42.772057" lon="-0.570395">
        <ele>2002.1</ele>
        <time>2017-08-15T08:18:04Z</time>
      </trkpt>
      <trkpt lat="42.772112" lon="-0.570309">
        <ele>2002.6</ele>
        <time>2017-08-15T08:18:10Z</time>
      </trkpt>
      <trkpt lat="42.772190" lon="-0.570182">
        <ele>2003.5</ele>
        <time>2017-08-15T08:18:22Z</time>
      </trkpt>
      <trkpt lat="42.772254" lon="-0.570108">
        <ele>2005.4</ele>
        <time>2017-08-15T08:18:32Z</time>
      </trkpt>
      <trkpt lat="42.772283" lon="-0.570051">
        <ele>2007.4</ele>
        <time>2017-08-15T08:18:43Z</time>
      </trkpt>
      <trkpt lat="42.772293" lon="-0.570047">
        <ele>2008.3</ele>
        <time>2017-08-15T08:18:57Z</time>
      </trkpt>
      <trkpt lat="42.772368" lon="-0.569984">
        <ele>2008.3</ele>
        <time>2017-08-15T08:19:10Z</time>
      </trkpt>
      <trkpt lat="42.772409" lon="-0.569892">
        <ele>2009.3</ele>
        <time>2017-08-15T08:19:22Z</time>
      </trkpt>
      <trkpt lat="42.772455" lon="-0.569813">
        <ele>2009.8</ele>
        <time>2017-08-15T08:19:32Z</time>
      </trkpt>
      <trkpt lat="42.772474" lon="-0.569750">
        <ele>2010.2</ele>
        <time>2017-08-15T08:19:39Z</time>
      </trkpt>
      <trkpt lat="42.772519" lon="-0.569701">
        <ele>2010.7</ele>
        <time>2017-08-15T08:19:44Z</time>
      </trkpt>
      <trkpt lat="42.772547" lon="-0.569643">
        <ele>2010.7</ele>
        <time>2017-08-15T08:19:48Z</time>
      </trkpt>
      <trkpt lat="42.772608" lon="-0.569594">
        <ele>2010.7</ele>
        <time>2017-08-15T08:19:53Z</time>
      </trkpt>
      <trkpt lat="42.772697" lon="-0.569476">
        <ele>2010.7</ele>
        <time>2017-08-15T08:20:05Z</time>
      </trkpt>
      <trkpt lat="42.772720" lon="-0.569420">
        <ele>2012.2</ele>
        <time>2017-08-15T08:20:12Z</time>
      </trkpt>
      <trkpt lat="42.772719" lon="-0.569387">
        <ele>2012.7</ele>
        <time>2017-08-15T08:20:15Z</time>
      </trkpt>
      <trkpt lat="42.772742" lon="-0.569341">
        <ele>2013.1</ele>
        <time>2017-08-15T08:20:19Z</time>
      </trkpt>
      <trkpt lat="42.772733" lon="-0.569301">
        <ele>2014.6</ele>
        <time>2017-08-15T08:20:24Z</time>
      </trkpt>
      <trkpt lat="42.772729" lon="-0.569223">
        <ele>2015.5</ele>
        <time>2017-08-15T08:20:31Z</time>
      </trkpt>
      <trkpt lat="42.772741" lon="-0.569181">
        <ele>2016.5</ele>
        <time>2017-08-15T08:20:35Z</time>
      </trkpt>
      <trkpt lat="42.772786" lon="-0.569075">
        <ele>2017.9</ele>
        <time>2017-08-15T08:20:46Z</time>
      </trkpt>
      <trkpt lat="42.772805" lon="-0.569021">
        <ele>2019.4</ele>
        <time>2017-08-15T08:20:51Z</time>
      </trkpt>
      <trkpt lat="42.772897" lon="-0.568952">
        <ele>2020.3</ele>
        <time>2017-08-15T08:21:01Z</time>
      </trkpt>
      <trkpt lat="42.772984" lon="-0.568863">
        <ele>2020.3</ele>
        <time>2017-08-15T08:21:12Z</time>
      </trkpt>
      <trkpt lat="42.773006" lon="-0.568762">
        <ele>2022.3</ele>
        <time>2017-08-15T08:21:22Z</time>
      </trkpt>
      <trkpt lat="42.773037" lon="-0.568738">
        <ele>2022.3</ele>
        <time>2017-08-15T08:21:28Z</time>
      </trkpt>
      <trkpt lat="42.773130" lon="-0.568669">
        <ele>2024.7</ele>
        <time>2017-08-15T08:21:40Z</time>
      </trkpt>
      <trkpt lat="42.773130" lon="-0.568669">
        <ele>2026.1</ele>
        <time>2017-08-15T08:22:08Z</time>
      </trkpt>
      <trkpt lat="42.773135" lon="-0.568631">
        <ele>2026.6</ele>
        <time>2017-08-15T08:22:23Z</time>
      </trkpt>
      <trkpt lat="42.773153" lon="-0.568594">
        <ele>2028.0</ele>
        <time>2017-08-15T08:22:33Z</time>
      </trkpt>
      <trkpt lat="42.773169" lon="-0.568534">
        <ele>2030.9</ele>
        <time>2017-08-15T08:22:45Z</time>
      </trkpt>
      <trkpt lat="42.773220" lon="-0.568457">
        <ele>2032.4</ele>
        <time>2017-08-15T08:22:54Z</time>
      </trkpt>
      <trkpt lat="42.773223" lon="-0.568421">
        <ele>2032.8</ele>
        <time>2017-08-15T08:22:58Z</time>
      </trkpt>
      <trkpt lat="42.773248" lon="-0.568389">
        <ele>2033.8</ele>
        <time>2017-08-15T08:23:02Z</time>
      </trkpt>
      <trkpt lat="42.773309" lon="-0.568332">
        <ele>2035.2</ele>
        <time>2017-08-15T08:23:10Z</time>
      </trkpt>
      <trkpt lat="42.773336" lon="-0.568263">
        <ele>2037.7</ele>
        <time>2017-08-15T08:23:21Z</time>
      </trkpt>
      <trkpt lat="42.773342" lon="-0.568252">
        <ele>2038.1</ele>
        <time>2017-08-15T08:23:23Z</time>
      </trkpt>
      <trkpt lat="42.773358" lon="-0.568228">
        <ele>2040.5</ele>
        <time>2017-08-15T08:23:26Z</time>
      </trkpt>
      <trkpt lat="42.773373" lon="-0.568199">
        <ele>2042.9</ele>
        <time>2017-08-15T08:23:29Z</time>
      </trkpt>
      <trkpt lat="42.773455" lon="-0.568135">
        <ele>2043.9</ele>
        <time>2017-08-15T08:23:41Z</time>
      </trkpt>
      <trkpt lat="42.773508" lon="-0.568091">
        <ele>2044.9</ele>
        <time>2017-08-15T08:23:51Z</time>
      </trkpt>
      <trkpt lat="42.773577" lon="-0.568041">
        <ele>2047.3</ele>
        <time>2017-08-15T08:24:02Z</time>
      </trkpt>
      <trkpt lat="42.773577" lon="-0.568041">
        <ele>2047.3</ele>
        <time>2017-08-15T08:24:03Z</time>
      </trkpt>
      <trkpt lat="42.773619" lon="-0.567998">
        <ele>2049.7</ele>
        <time>2017-08-15T08:24:14Z</time>
      </trkpt>
      <trkpt lat="42.773636" lon="-0.567995">
        <ele>2049.7</ele>
        <time>2017-08-15T08:24:16Z</time>
      </trkpt>
      <trkpt lat="42.773690" lon="-0.567932">
        <ele>2051.6</ele>
        <time>2017-08-15T08:24:27Z</time>
      </trkpt>
      <trkpt lat="42.773762" lon="-0.567880">
        <ele>2054.0</ele>
        <time>2017-08-15T08:24:38Z</time>
      </trkpt>
      <trkpt lat="42.773798" lon="-0.567862">
        <ele>2055.0</ele>
        <time>2017-08-15T08:24:43Z</time>
      </trkpt>
      <trkpt lat="42.773837" lon="-0.567784">
        <ele>2056.9</ele>
        <time>2017-08-15T08:24:54Z</time>
      </trkpt>
      <trkpt lat="42.773858" lon="-0.567774">
        <ele>2057.8</ele>
        <time>2017-08-15T08:25:00Z</time>
      </trkpt>
      <trkpt lat="42.773915" lon="-0.567749">
        <ele>2059.3</ele>
        <time>2017-08-15T08:25:06Z</time>
      </trkpt>
      <trkpt lat="42.773917" lon="-0.567723">
        <ele>2060.2</ele>
        <time>2017-08-15T08:25:10Z</time>
      </trkpt>
      <trkpt lat="42.773990" lon="-0.567676">
        <ele>2062.2</ele>
        <time>2017-08-15T08:25:22Z</time>
      </trkpt>
      <trkpt lat="42.774048" lon="-0.567659">
        <ele>2064.6</ele>
        <time>2017-08-15T08:25:34Z</time>
      </trkpt>
      <trkpt lat="42.774131" lon="-0.567667">
        <ele>2066.0</ele>
        <time>2017-08-15T08:25:43Z</time>
      </trkpt>
      <trkpt lat="42.774179" lon="-0.567684">
        <ele>2066.5</ele>
        <time>2017-08-15T08:25:48Z</time>
      </trkpt>
      <trkpt lat="42.774209" lon="-0.567668">
        <ele>2067.4</ele>
        <time>2017-08-15T08:25:55Z</time>
      </trkpt>
      <trkpt lat="42.774286" lon="-0.567645">
        <ele>2069.9</ele>
        <time>2017-08-15T08:26:07Z</time>
      </trkpt>
      <trkpt lat="42.774303" lon="-0.567636">
        <ele>2070.8</ele>
        <time>2017-08-15T08:26:11Z</time>
      </trkpt>
      <trkpt lat="42.774317" lon="-0.567610">
        <ele>2072.3</ele>
        <time>2017-08-15T08:26:18Z</time>
      </trkpt>
      <trkpt lat="42.774358" lon="-0.567606">
        <ele>2073.7</ele>
        <time>2017-08-15T08:26:25Z</time>
      </trkpt>
      <trkpt lat="42.774381" lon="-0.567556">
        <ele>2074.7</ele>
        <time>2017-08-15T08:26:32Z</time>
      </trkpt>
      <trkpt lat="42.774466" lon="-0.567520">
        <ele>2077.1</ele>
        <time>2017-08-15T08:26:42Z</time>
      </trkpt>
      <trkpt lat="42.774506" lon="-0.567505">
        <ele>2077.6</ele>
        <time>2017-08-15T08:26:46Z</time>
      </trkpt>
      <trkpt lat="42.774570" lon="-0.567503">
        <ele>2078.5</ele>
        <time>2017-08-15T08:26:52Z</time>
      </trkpt>
      <trkpt lat="42.774603" lon="-0.567488">
        <ele>2079.5</ele>
        <time>2017-08-15T08:26:55Z</time>
      </trkpt>
      <trkpt lat="42.774654" lon="-0.567434">
        <ele>2079.9</ele>
        <time>2017-08-15T08:27:00Z</time>
      </trkpt>
      <trkpt lat="42.774708" lon="-0.567427">
        <ele>2079.9</ele>
        <time>2017-08-15T08:27:06Z</time>
      </trkpt>
      <trkpt lat="42.774791" lon="-0.567344">
        <ele>2079.9</ele>
        <time>2017-08-15T08:27:15Z</time>
      </trkpt>
      <trkpt lat="42.774814" lon="-0.567334">
        <ele>2079.9</ele>
        <time>2017-08-15T08:27:17Z</time>
      </trkpt>
      <trkpt lat="42.774867" lon="-0.567268">
        <ele>2079.9</ele>
        <time>2017-08-15T08:27:23Z</time>
      </trkpt>
      <trkpt lat="42.774951" lon="-0.567131">
        <ele>2079.9</ele>
        <time>2017-08-15T08:27:35Z</time>
      </trkpt>
      <trkpt lat="42.775046" lon="-0.566992">
        <ele>2079.9</ele>
        <time>2017-08-15T08:27:46Z</time>
      </trkpt>
      <trkpt lat="42.775061" lon="-0.566975">
        <ele>2079.9</ele>
        <time>2017-08-15T08:27:48Z</time>
      </trkpt>
      <trkpt lat="42.775116" lon="-0.566825">
        <ele>2080.9</ele>
        <time>2017-08-15T08:28:00Z</time>
      </trkpt>
      <trkpt lat="42.775179" lon="-0.566658">
        <ele>2081.4</ele>
        <time>2017-08-15T08:28:11Z</time>
      </trkpt>
      <trkpt lat="42.775182" lon="-0.566643">
        <ele>2081.4</ele>
        <time>2017-08-15T08:28:12Z</time>
      </trkpt>
      <trkpt lat="42.775193" lon="-0.566592">
        <ele>2082.4</ele>
        <time>2017-08-15T08:28:16Z</time>
      </trkpt>
      <trkpt lat="42.775202" lon="-0.566454">
        <ele>2083.8</ele>
        <time>2017-08-15T08:28:26Z</time>
      </trkpt>
      <trkpt lat="42.775236" lon="-0.566290">
        <ele>2085.7</ele>
        <time>2017-08-15T08:28:39Z</time>
      </trkpt>
      <trkpt lat="42.775277" lon="-0.566123">
        <ele>2086.2</ele>
        <time>2017-08-15T08:28:50Z</time>
      </trkpt>
      <trkpt lat="42.775263" lon="-0.566051">
        <ele>2087.2</ele>
        <time>2017-08-15T08:29:01Z</time>
      </trkpt>
      <trkpt lat="42.775264" lon="-0.566006">
        <ele>2087.6</ele>
        <time>2017-08-15T08:29:06Z</time>
      </trkpt>
      <trkpt lat="42.775252" lon="-0.565929">
        <ele>2089.6</ele>
        <time>2017-08-15T08:29:15Z</time>
      </trkpt>
      <trkpt lat="42.775250" lon="-0.565898">
        <ele>2090.0</ele>
        <time>2017-08-15T08:29:18Z</time>
      </trkpt>
      <trkpt lat="42.775253" lon="-0.565810">
        <ele>2090.5</ele>
        <time>2017-08-15T08:29:24Z</time>
      </trkpt>
      <trkpt lat="42.775224" lon="-0.565713">
        <ele>2092.4</ele>
        <time>2017-08-15T08:29:33Z</time>
      </trkpt>
      <trkpt lat="42.775206" lon="-0.565630">
        <ele>2092.9</ele>
        <time>2017-08-15T08:29:39Z</time>
      </trkpt>
      <trkpt lat="42.775133" lon="-0.565465">
        <ele>2094.4</ele>
        <time>2017-08-15T08:29:50Z</time>
      </trkpt>
      <trkpt lat="42.775097" lon="-0.565374">
        <ele>2094.9</ele>
        <time>2017-08-15T08:29:58Z</time>
      </trkpt>
      <trkpt lat="42.775069" lon="-0.565321">
        <ele>2095.8</ele>
        <time>2017-08-15T08:30:03Z</time>
      </trkpt>
      <trkpt lat="42.775051" lon="-0.565247">
        <ele>2096.8</ele>
        <time>2017-08-15T08:30:10Z</time>
      </trkpt>
      <trkpt lat="42.775005" lon="-0.565123">
        <ele>2098.2</ele>
        <time>2017-08-15T08:30:23Z</time>
      </trkpt>
      <trkpt lat="42.775000" lon="-0.565049">
        <ele>2100.1</ele>
        <time>2017-08-15T08:30:32Z</time>
      </trkpt>
      <trkpt lat="42.774980" lon="-0.564997">
        <ele>2101.1</ele>
        <time>2017-08-15T08:30:38Z</time>
      </trkpt>
      <trkpt lat="42.774963" lon="-0.564923">
        <ele>2103.5</ele>
        <time>2017-08-15T08:30:49Z</time>
      </trkpt>
      <trkpt lat="42.774918" lon="-0.564839">
        <ele>2106.4</ele>
        <time>2017-08-15T08:31:01Z</time>
      </trkpt>
      <trkpt lat="42.774918" lon="-0.564775">
        <ele>2107.8</ele>
        <time>2017-08-15T08:31:08Z</time>
      </trkpt>
      <trkpt lat="42.774925" lon="-0.564687">
        <ele>2110.2</ele>
        <time>2017-08-15T08:31:20Z</time>
      </trkpt>
      <trkpt lat="42.774911" lon="-0.564609">
        <ele>2111.7</ele>
        <time>2017-08-15T08:31:29Z</time>
      </trkpt>
      <trkpt lat="42.774904" lon="-0.564538">
        <ele>2113.1</ele>
        <time>2017-08-15T08:31:35Z</time>
      </trkpt>
      <trkpt lat="42.774882" lon="-0.564449">
        <ele>2114.1</ele>
        <time>2017-08-15T08:31:45Z</time>
      </trkpt>
      <trkpt lat="42.774852" lon="-0.564328">
        <ele>2115.5</ele>
        <time>2017-08-15T08:31:58Z</time>
      </trkpt>
      <trkpt lat="42.774837" lon="-0.564294">
        <ele>2116.5</ele>
        <time>2017-08-15T08:32:01Z</time>
      </trkpt>
      <trkpt lat="42.774830" lon="-0.564261">
        <ele>2117.0</ele>
        <time>2017-08-15T08:32:04Z</time>
      </trkpt>
      <trkpt lat="42.774790" lon="-0.564196">
        <ele>2119.4</ele>
        <time>2017-08-15T08:32:15Z</time>
      </trkpt>
      <trkpt lat="42.774785" lon="-0.564172">
        <ele>2119.4</ele>
        <time>2017-08-15T08:32:18Z</time>
      </trkpt>
      <trkpt lat="42.774746" lon="-0.564116">
        <ele>2121.3</ele>
        <time>2017-08-15T08:32:28Z</time>
      </trkpt>
      <trkpt lat="42.774707" lon="-0.564033">
        <ele>2122.7</ele>
        <time>2017-08-15T08:32:39Z</time>
      </trkpt>
      <trkpt lat="42.774679" lon="-0.563966">
        <ele>2124.2</ele>
        <time>2017-08-15T08:32:49Z</time>
      </trkpt>
      <trkpt lat="42.774644" lon="-0.563877">
        <ele>2126.1</ele>
        <time>2017-08-15T08:32:58Z</time>
      </trkpt>
      <trkpt lat="42.774607" lon="-0.563779">
        <ele>2127.1</ele>
        <time>2017-08-15T08:33:09Z</time>
      </trkpt>
      <trkpt lat="42.774606" lon="-0.563772">
        <ele>2127.5</ele>
        <time>2017-08-15T08:33:10Z</time>
      </trkpt>
      <trkpt lat="42.774570" lon="-0.563739">
        <ele>2129.5</ele>
        <time>2017-08-15T08:33:20Z</time>
      </trkpt>
      <trkpt lat="42.774564" lon="-0.563722">
        <ele>2129.5</ele>
        <time>2017-08-15T08:33:22Z</time>
      </trkpt>
      <trkpt lat="42.774561" lon="-0.563691">
        <ele>2129.9</ele>
        <time>2017-08-15T08:33:25Z</time>
      </trkpt>
      <trkpt lat="42.774537" lon="-0.563646">
        <ele>2131.4</ele>
        <time>2017-08-15T08:33:30Z</time>
      </trkpt>
      <trkpt lat="42.774512" lon="-0.563573">
        <ele>2132.8</ele>
        <time>2017-08-15T08:33:42Z</time>
      </trkpt>
      <trkpt lat="42.774512" lon="-0.563573">
        <ele>2133.8</ele>
        <time>2017-08-15T08:34:01Z</time>
      </trkpt>
      <trkpt lat="42.774469" lon="-0.563498">
        <ele>2134.3</ele>
        <time>2017-08-15T08:34:09Z</time>
      </trkpt>
      <trkpt lat="42.774446" lon="-0.563447">
        <ele>2135.2</ele>
        <time>2017-08-15T08:34:14Z</time>
      </trkpt>
      <trkpt lat="42.774445" lon="-0.563402">
        <ele>2136.7</ele>
        <time>2017-08-15T08:34:26Z</time>
      </trkpt>
      <trkpt lat="42.774428" lon="-0.563353">
        <ele>2137.1</ele>
        <time>2017-08-15T08:34:30Z</time>
      </trkpt>
      <trkpt lat="42.774406" lon="-0.563311">
        <ele>2137.6</ele>
        <time>2017-08-15T08:34:34Z</time>
      </trkpt>
      <trkpt lat="42.774383" lon="-0.563247">
        <ele>2138.1</ele>
        <time>2017-08-15T08:34:39Z</time>
      </trkpt>
      <trkpt lat="42.774335" lon="-0.563138">
        <ele>2138.6</ele>
        <time>2017-08-15T08:34:46Z</time>
      </trkpt>
      <trkpt lat="42.774290" lon="-0.563059">
        <ele>2139.1</ele>
        <time>2017-08-15T08:34:53Z</time>
      </trkpt>
      <trkpt lat="42.774261" lon="-0.563012">
        <ele>2139.6</ele>
        <time>2017-08-15T08:34:58Z</time>
      </trkpt>
      <trkpt lat="42.774235" lon="-0.562827">
        <ele>2140.0</ele>
        <time>2017-08-15T08:35:10Z</time>
      </trkpt>
      <trkpt lat="42.774230" lon="-0.562804">
        <ele>2140.0</ele>
        <time>2017-08-15T08:35:12Z</time>
      </trkpt>
      <trkpt lat="42.774173" lon="-0.562708">
        <ele>2140.0</ele>
        <time>2017-08-15T08:35:19Z</time>
      </trkpt>
      <trkpt lat="42.774158" lon="-0.562634">
        <ele>2140.0</ele>
        <time>2017-08-15T08:35:25Z</time>
      </trkpt>
      <trkpt lat="42.774072" lon="-0.562458">
        <ele>2140.5</ele>
        <time>2017-08-15T08:35:37Z</time>
      </trkpt>
      <trkpt lat="42.774055" lon="-0.562356">
        <ele>2140.5</ele>
        <time>2017-08-15T08:35:43Z</time>
      </trkpt>
      <trkpt lat="42.774053" lon="-0.562184">
        <ele>2141.5</ele>
        <time>2017-08-15T08:35:55Z</time>
      </trkpt>
      <trkpt lat="42.774037" lon="-0.562068">
        <ele>2142.9</ele>
        <time>2017-08-15T08:36:05Z</time>
      </trkpt>
      <trkpt lat="42.774030" lon="-0.562027">
        <ele>2143.9</ele>
        <time>2017-08-15T08:36:08Z</time>
      </trkpt>
      <trkpt lat="42.774007" lon="-0.561961">
        <ele>2145.3</ele>
        <time>2017-08-15T08:36:14Z</time>
      </trkpt>
      <trkpt lat="42.773965" lon="-0.561877">
        <ele>2146.3</ele>
        <time>2017-08-15T08:36:22Z</time>
      </trkpt>
      <trkpt lat="42.773941" lon="-0.561859">
        <ele>2147.2</ele>
        <time>2017-08-15T08:36:25Z</time>
      </trkpt>
      <trkpt lat="42.773888" lon="-0.561706">
        <ele>2149.2</ele>
        <time>2017-08-15T08:36:37Z</time>
      </trkpt>
      <trkpt lat="42.773827" lon="-0.561624">
        <ele>2151.1</ele>
        <time>2017-08-15T08:36:48Z</time>
      </trkpt>
      <trkpt lat="42.773799" lon="-0.561539">
        <ele>2153.0</ele>
        <time>2017-08-15T08:36:56Z</time>
      </trkpt>
      <trkpt lat="42.773788" lon="-0.561500">
        <ele>2153.5</ele>
        <time>2017-08-15T08:37:00Z</time>
      </trkpt>
      <trkpt lat="42.773769" lon="-0.561465">
        <ele>2154.0</ele>
        <time>2017-08-15T08:37:04Z</time>
      </trkpt>
      <trkpt lat="42.773736" lon="-0.561413">
        <ele>2155.4</ele>
        <time>2017-08-15T08:37:11Z</time>
      </trkpt>
      <trkpt lat="42.773696" lon="-0.561378">
        <ele>2157.8</ele>
        <time>2017-08-15T08:37:20Z</time>
      </trkpt>
      <trkpt lat="42.773680" lon="-0.561345">
        <ele>2158.8</ele>
        <time>2017-08-15T08:37:24Z</time>
      </trkpt>
      <trkpt lat="42.773661" lon="-0.561334">
        <ele>2159.3</ele>
        <time>2017-08-15T08:37:27Z</time>
      </trkpt>
      <trkpt lat="42.773644" lon="-0.561315">
        <ele>2160.2</ele>
        <time>2017-08-15T08:37:31Z</time>
      </trkpt>
      <trkpt lat="42.773632" lon="-0.561280">
        <ele>2160.7</ele>
        <time>2017-08-15T08:37:34Z</time>
      </trkpt>
      <trkpt lat="42.773602" lon="-0.561182">
        <ele>2162.6</ele>
        <time>2017-08-15T08:37:42Z</time>
      </trkpt>
      <trkpt lat="42.773567" lon="-0.561175">
        <ele>2164.1</ele>
        <time>2017-08-15T08:37:47Z</time>
      </trkpt>
      <trkpt lat="42.773506" lon="-0.561163">
        <ele>2168.4</ele>
        <time>2017-08-15T08:37:54Z</time>
      </trkpt>
      <trkpt lat="42.773500" lon="-0.561161">
        <ele>2168.4</ele>
        <time>2017-08-15T08:37:55Z</time>
      </trkpt>
      <trkpt lat="42.773476" lon="-0.561151">
        <ele>2166.9</ele>
        <time>2017-08-15T08:37:59Z</time>
      </trkpt>
      <trkpt lat="42.773411" lon="-0.561122">
        <ele>2168.4</ele>
        <time>2017-08-15T08:38:15Z</time>
      </trkpt>
      <trkpt lat="42.773407" lon="-0.561121">
        <ele>2168.9</ele>
        <time>2017-08-15T08:38:16Z</time>
      </trkpt>
      <trkpt lat="42.773314" lon="-0.561151">
        <ele>2170.8</ele>
        <time>2017-08-15T08:38:32Z</time>
      </trkpt>
      <trkpt lat="42.773264" lon="-0.561128">
        <ele>2174.2</ele>
        <time>2017-08-15T08:38:42Z</time>
      </trkpt>
      <trkpt lat="42.773236" lon="-0.561093">
        <ele>2176.6</ele>
        <time>2017-08-15T08:38:54Z</time>
      </trkpt>
      <trkpt lat="42.773203" lon="-0.561064">
        <ele>2176.6</ele>
        <time>2017-08-15T08:39:14Z</time>
      </trkpt>
      <trkpt lat="42.773186" lon="-0.561048">
        <ele>2176.6</ele>
        <time>2017-08-15T08:39:16Z</time>
      </trkpt>
      <trkpt lat="42.773087" lon="-0.560862">
        <ele>2176.6</ele>
        <time>2017-08-15T08:39:28Z</time>
      </trkpt>
      <trkpt lat="42.773071" lon="-0.560828">
        <ele>2176.6</ele>
        <time>2017-08-15T08:39:30Z</time>
      </trkpt>
      <trkpt lat="42.773038" lon="-0.560796">
        <ele>2176.6</ele>
        <time>2017-08-15T08:39:34Z</time>
      </trkpt>
      <trkpt lat="42.772950" lon="-0.560641">
        <ele>2176.6</ele>
        <time>2017-08-15T08:39:47Z</time>
      </trkpt>
      <trkpt lat="42.772879" lon="-0.560520">
        <ele>2178.0</ele>
        <time>2017-08-15T08:39:58Z</time>
      </trkpt>
      <trkpt lat="42.772822" lon="-0.560401">
        <ele>2181.4</ele>
        <time>2017-08-15T08:40:08Z</time>
      </trkpt>
      <trkpt lat="42.772811" lon="-0.560381">
        <ele>2183.3</ele>
        <time>2017-08-15T08:40:10Z</time>
      </trkpt>
      <trkpt lat="42.772792" lon="-0.560364">
        <ele>2183.8</ele>
        <time>2017-08-15T08:40:12Z</time>
      </trkpt>
      <trkpt lat="42.772779" lon="-0.560356">
        <ele>2184.2</ele>
        <time>2017-08-15T08:40:14Z</time>
      </trkpt>
      <trkpt lat="42.772755" lon="-0.560357">
        <ele>2184.2</ele>
        <time>2017-08-15T08:40:18Z</time>
      </trkpt>
      <trkpt lat="42.772716" lon="-0.560379">
        <ele>2184.2</ele>
        <time>2017-08-15T08:40:25Z</time>
      </trkpt>
      <trkpt lat="42.772635" lon="-0.560400">
        <ele>2186.2</ele>
        <time>2017-08-15T08:40:35Z</time>
      </trkpt>
      <trkpt lat="42.772628" lon="-0.560402">
        <ele>2186.2</ele>
        <time>2017-08-15T08:40:36Z</time>
      </trkpt>
      <trkpt lat="42.772606" lon="-0.560420">
        <ele>2186.7</ele>
        <time>2017-08-15T08:40:39Z</time>
      </trkpt>
      <trkpt lat="42.772586" lon="-0.560411">
        <ele>2187.1</ele>
        <time>2017-08-15T08:40:42Z</time>
      </trkpt>
      <trkpt lat="42.772520" lon="-0.560333">
        <ele>2189.5</ele>
        <time>2017-08-15T08:40:54Z</time>
      </trkpt>
      <trkpt lat="42.772460" lon="-0.560250">
        <ele>2191.9</ele>
        <time>2017-08-15T08:41:03Z</time>
      </trkpt>
      <trkpt lat="42.772439" lon="-0.560228">
        <ele>2192.4</ele>
        <time>2017-08-15T08:41:06Z</time>
      </trkpt>
      <trkpt lat="42.772415" lon="-0.560185">
        <ele>2196.8</ele>
        <time>2017-08-15T08:41:10Z</time>
      </trkpt>
      <trkpt lat="42.772411" lon="-0.560177">
        <ele>2193.9</ele>
        <time>2017-08-15T08:41:11Z</time>
      </trkpt>
      <trkpt lat="42.772369" lon="-0.560116">
        <ele>2195.3</ele>
        <time>2017-08-15T08:41:18Z</time>
      </trkpt>
      <trkpt lat="42.772340" lon="-0.560080">
        <ele>2195.3</ele>
        <time>2017-08-15T08:41:23Z</time>
      </trkpt>
      <trkpt lat="42.772319" lon="-0.560060">
        <ele>2195.3</ele>
        <time>2017-08-15T08:41:26Z</time>
      </trkpt>
      <trkpt lat="42.772264" lon="-0.560034">
        <ele>2196.3</ele>
        <time>2017-08-15T08:41:33Z</time>
      </trkpt>
      <trkpt lat="42.772242" lon="-0.560051">
        <ele>2196.8</ele>
        <time>2017-08-15T08:41:36Z</time>
      </trkpt>
      <trkpt lat="42.772237" lon="-0.560079">
        <ele>2197.2</ele>
        <time>2017-08-15T08:41:39Z</time>
      </trkpt>
      <trkpt lat="42.772225" lon="-0.560176">
        <ele>2199.1</ele>
        <time>2017-08-15T08:41:49Z</time>
      </trkpt>
      <trkpt lat="42.772191" lon="-0.560192">
        <ele>2200.6</ele>
        <time>2017-08-15T08:41:57Z</time>
      </trkpt>
      <trkpt lat="42.772164" lon="-0.560166">
        <ele>2201.1</ele>
        <time>2017-08-15T08:42:01Z</time>
      </trkpt>
      <trkpt lat="42.772139" lon="-0.560164">
        <ele>2202.0</ele>
        <time>2017-08-15T08:42:04Z</time>
      </trkpt>
      <trkpt lat="42.772119" lon="-0.560174">
        <ele>2202.5</ele>
        <time>2017-08-15T08:42:07Z</time>
      </trkpt>
      <trkpt lat="42.772047" lon="-0.560186">
        <ele>2204.9</ele>
        <time>2017-08-15T08:42:17Z</time>
      </trkpt>
      <trkpt lat="42.772015" lon="-0.560184">
        <ele>2205.4</ele>
        <time>2017-08-15T08:42:20Z</time>
      </trkpt>
      <trkpt lat="42.771969" lon="-0.560161">
        <ele>2205.9</ele>
        <time>2017-08-15T08:42:25Z</time>
      </trkpt>
      <trkpt lat="42.771877" lon="-0.560073">
        <ele>2206.8</ele>
        <time>2017-08-15T08:42:36Z</time>
      </trkpt>
      <trkpt lat="42.771863" lon="-0.560072">
        <ele>2206.8</ele>
        <time>2017-08-15T08:42:38Z</time>
      </trkpt>
      <trkpt lat="42.771813" lon="-0.560072">
        <ele>2206.8</ele>
        <time>2017-08-15T08:42:45Z</time>
      </trkpt>
      <trkpt lat="42.771791" lon="-0.560059">
        <ele>2206.8</ele>
        <time>2017-08-15T08:42:49Z</time>
      </trkpt>
      <trkpt lat="42.771693" lon="-0.560018">
        <ele>2208.8</ele>
        <time>2017-08-15T08:43:00Z</time>
      </trkpt>
      <trkpt lat="42.771674" lon="-0.559991">
        <ele>2209.2</ele>
        <time>2017-08-15T08:43:04Z</time>
      </trkpt>
      <trkpt lat="42.771667" lon="-0.559956">
        <ele>2209.7</ele>
        <time>2017-08-15T08:43:07Z</time>
      </trkpt>
      <trkpt lat="42.771640" lon="-0.559935">
        <ele>2211.2</ele>
        <time>2017-08-15T08:43:14Z</time>
      </trkpt>
      <trkpt lat="42.771635" lon="-0.559916">
        <ele>2213.6</ele>
        <time>2017-08-15T08:43:17Z</time>
      </trkpt>
      <trkpt lat="42.771611" lon="-0.559867">
        <ele>2217.4</ele>
        <time>2017-08-15T08:43:24Z</time>
      </trkpt>
      <trkpt lat="42.771593" lon="-0.559858">
        <ele>2218.9</ele>
        <time>2017-08-15T08:43:27Z</time>
      </trkpt>
      <trkpt lat="42.771565" lon="-0.559857">
        <ele>2220.3</ele>
        <time>2017-08-15T08:43:33Z</time>
      </trkpt>
      <trkpt lat="42.771523" lon="-0.559890">
        <ele>2218.9</ele>
        <time>2017-08-15T08:43:38Z</time>
      </trkpt>
      <trkpt lat="42.771488" lon="-0.559900">
        <ele>2218.9</ele>
        <time>2017-08-15T08:43:41Z</time>
      </trkpt>
      <trkpt lat="42.771431" lon="-0.559862">
        <ele>2214.5</ele>
        <time>2017-08-15T08:43:46Z</time>
      </trkpt>
      <trkpt lat="42.771408" lon="-0.559849">
        <ele>2213.1</ele>
        <time>2017-08-15T08:43:48Z</time>
      </trkpt>
      <trkpt lat="42.771385" lon="-0.559815">
        <ele>2212.1</ele>
        <time>2017-08-15T08:43:51Z</time>
      </trkpt>
      <trkpt lat="42.771320" lon="-0.559691">
        <ele>2215.5</ele>
        <time>2017-08-15T08:43:58Z</time>
      </trkpt>
      <trkpt lat="42.771306" lon="-0.559566">
        <ele>2216.0</ele>
        <time>2017-08-15T08:44:07Z</time>
      </trkpt>
      <trkpt lat="42.771295" lon="-0.559451">
        <ele>2215.0</ele>
        <time>2017-08-15T08:44:17Z</time>
      </trkpt>
      <trkpt lat="42.771260" lon="-0.559431">
        <ele>2213.6</ele>
        <time>2017-08-15T08:44:23Z</time>
      </trkpt>
      <trkpt lat="42.771201" lon="-0.559391">
        <ele>2212.6</ele>
        <time>2017-08-15T08:44:34Z</time>
      </trkpt>
      <trkpt lat="42.771160" lon="-0.559374">
        <ele>2212.6</ele>
        <time>2017-08-15T08:44:40Z</time>
      </trkpt>
      <trkpt lat="42.771109" lon="-0.559379">
        <ele>2212.6</ele>
        <time>2017-08-15T08:44:45Z</time>
      </trkpt>
      <trkpt lat="42.771053" lon="-0.559234">
        <ele>2213.6</ele>
        <time>2017-08-15T08:44:58Z</time>
      </trkpt>
      <trkpt lat="42.771041" lon="-0.559217">
        <ele>2213.6</ele>
        <time>2017-08-15T08:45:00Z</time>
      </trkpt>
      <trkpt lat="42.771000" lon="-0.559184">
        <ele>2213.6</ele>
        <time>2017-08-15T08:45:04Z</time>
      </trkpt>
      <trkpt lat="42.770991" lon="-0.559095">
        <ele>2213.6</ele>
        <time>2017-08-15T08:45:09Z</time>
      </trkpt>
      <trkpt lat="42.770967" lon="-0.558987">
        <ele>2213.6</ele>
        <time>2017-08-15T08:45:17Z</time>
      </trkpt>
      <trkpt lat="42.770967" lon="-0.558941">
        <ele>2213.6</ele>
        <time>2017-08-15T08:45:20Z</time>
      </trkpt>
      <trkpt lat="42.770949" lon="-0.558897">
        <ele>2214.1</ele>
        <time>2017-08-15T08:45:24Z</time>
      </trkpt>
      <trkpt lat="42.770966" lon="-0.558764">
        <ele>2214.5</ele>
        <time>2017-08-15T08:45:31Z</time>
      </trkpt>
      <trkpt lat="42.770925" lon="-0.558577">
        <ele>2215.0</ele>
        <time>2017-08-15T08:45:44Z</time>
      </trkpt>
      <trkpt lat="42.770939" lon="-0.558488">
        <ele>2215.5</ele>
        <time>2017-08-15T08:45:50Z</time>
      </trkpt>
      <trkpt lat="42.770988" lon="-0.558312">
        <ele>2217.9</ele>
        <time>2017-08-15T08:46:02Z</time>
      </trkpt>
      <trkpt lat="42.771007" lon="-0.558250">
        <ele>2218.4</ele>
        <time>2017-08-15T08:46:06Z</time>
      </trkpt>
      <trkpt lat="42.771020" lon="-0.558226">
        <ele>2218.4</ele>
        <time>2017-08-15T08:46:08Z</time>
      </trkpt>
      <trkpt lat="42.771039" lon="-0.558145">
        <ele>2219.8</ele>
        <time>2017-08-15T08:46:14Z</time>
      </trkpt>
      <trkpt lat="42.771076" lon="-0.558059">
        <ele>2221.3</ele>
        <time>2017-08-15T08:46:20Z</time>
      </trkpt>
      <trkpt lat="42.771114" lon="-0.557972">
        <ele>2221.3</ele>
        <time>2017-08-15T08:46:27Z</time>
      </trkpt>
      <trkpt lat="42.771197" lon="-0.557812">
        <ele>2221.7</ele>
        <time>2017-08-15T08:46:38Z</time>
      </trkpt>
      <trkpt lat="42.771309" lon="-0.557664">
        <ele>2222.2</ele>
        <time>2017-08-15T08:46:50Z</time>
      </trkpt>
      <trkpt lat="42.771324" lon="-0.557646">
        <ele>2222.7</ele>
        <time>2017-08-15T08:46:52Z</time>
      </trkpt>
      <trkpt lat="42.771401" lon="-0.557444">
        <ele>2222.7</ele>
        <time>2017-08-15T08:47:05Z</time>
      </trkpt>
      <trkpt lat="42.771412" lon="-0.557408">
        <ele>2223.2</ele>
        <time>2017-08-15T08:47:17Z</time>
      </trkpt>
      <trkpt lat="42.771443" lon="-0.557202">
        <ele>2223.7</ele>
        <time>2017-08-15T08:47:29Z</time>
      </trkpt>
      <trkpt lat="42.771463" lon="-0.556993">
        <ele>2224.6</ele>
        <time>2017-08-15T08:47:42Z</time>
      </trkpt>
      <trkpt lat="42.771497" lon="-0.556726">
        <ele>2225.6</ele>
        <time>2017-08-15T08:47:56Z</time>
      </trkpt>
      <trkpt lat="42.771481" lon="-0.556538">
        <ele>2227.0</ele>
        <time>2017-08-15T08:48:48Z</time>
      </trkpt>
      <trkpt lat="42.771438" lon="-0.556395">
        <ele>2227.5</ele>
        <time>2017-08-15T08:49:02Z</time>
      </trkpt>
      <trkpt lat="42.771353" lon="-0.556377">
        <ele>2225.1</ele>
        <time>2017-08-15T08:51:10Z</time>
      </trkpt>
      <trkpt lat="42.771154" lon="-0.556320">
        <ele>2223.2</ele>
        <time>2017-08-15T08:51:27Z</time>
      </trkpt>
      <trkpt lat="42.771080" lon="-0.556268">
        <ele>2222.2</ele>
        <time>2017-08-15T08:51:33Z</time>
      </trkpt>
      <trkpt lat="42.771033" lon="-0.556176">
        <ele>2216.0</ele>
        <time>2017-08-15T08:51:38Z</time>
      </trkpt>
      <trkpt lat="42.771014" lon="-0.556135">
        <ele>2215.5</ele>
        <time>2017-08-15T08:51:40Z</time>
      </trkpt>
      <trkpt lat="42.770908" lon="-0.555953">
        <ele>2215.0</ele>
        <time>2017-08-15T08:51:53Z</time>
      </trkpt>
      <trkpt lat="42.770873" lon="-0.555938">
        <ele>2214.1</ele>
        <time>2017-08-15T08:51:56Z</time>
      </trkpt>
      <trkpt lat="42.770800" lon="-0.555944">
        <ele>2210.7</ele>
        <time>2017-08-15T08:52:01Z</time>
      </trkpt>
      <trkpt lat="42.770763" lon="-0.555925">
        <ele>2206.4</ele>
        <time>2017-08-15T08:52:05Z</time>
      </trkpt>
      <trkpt lat="42.770723" lon="-0.555836">
        <ele>2205.4</ele>
        <time>2017-08-15T08:52:12Z</time>
      </trkpt>
      <trkpt lat="42.770904" lon="-0.555703">
        <ele>2204.4</ele>
        <time>2017-08-15T08:52:26Z</time>
      </trkpt>
      <trkpt lat="42.771047" lon="-0.555497">
        <ele>2202.5</ele>
        <time>2017-08-15T08:52:39Z</time>
      </trkpt>
      <trkpt lat="42.771094" lon="-0.555471">
        <ele>2199.1</ele>
        <time>2017-08-15T08:52:45Z</time>
      </trkpt>
      <trkpt lat="42.771139" lon="-0.555405">
        <ele>2194.4</ele>
        <time>2017-08-15T08:52:50Z</time>
      </trkpt>
      <trkpt lat="42.771176" lon="-0.555371">
        <ele>2192.9</ele>
        <time>2017-08-15T08:52:53Z</time>
      </trkpt>
      <trkpt lat="42.771305" lon="-0.555238">
        <ele>2192.4</ele>
        <time>2017-08-15T08:53:06Z</time>
      </trkpt>
      <trkpt lat="42.771417" lon="-0.555166">
        <ele>2189.5</ele>
        <time>2017-08-15T08:53:14Z</time>
      </trkpt>
      <trkpt lat="42.771468" lon="-0.555119">
        <ele>2185.7</ele>
        <time>2017-08-15T08:53:18Z</time>
      </trkpt>
      <trkpt lat="42.771480" lon="-0.555112">
        <ele>2185.2</ele>
        <time>2017-08-15T08:53:19Z</time>
      </trkpt>
      <trkpt lat="42.771497" lon="-0.555089">
        <ele>2184.2</ele>
        <time>2017-08-15T08:53:21Z</time>
      </trkpt>
      <trkpt lat="42.771443" lon="-0.555018">
        <ele>2183.8</ele>
        <time>2017-08-15T08:53:30Z</time>
      </trkpt>
      <trkpt lat="42.771288" lon="-0.554931">
        <ele>2182.3</ele>
        <time>2017-08-15T08:53:41Z</time>
      </trkpt>
      <trkpt lat="42.771230" lon="-0.554883">
        <ele>2179.0</ele>
        <time>2017-08-15T08:53:45Z</time>
      </trkpt>
      <trkpt lat="42.771193" lon="-0.554841">
        <ele>2177.5</ele>
        <time>2017-08-15T08:53:48Z</time>
      </trkpt>
      <trkpt lat="42.771161" lon="-0.554790">
        <ele>2177.5</ele>
        <time>2017-08-15T08:53:51Z</time>
      </trkpt>
      <trkpt lat="42.771109" lon="-0.554752">
        <ele>2177.5</ele>
        <time>2017-08-15T08:53:55Z</time>
      </trkpt>
      <trkpt lat="42.771025" lon="-0.554594">
        <ele>2176.6</ele>
        <time>2017-08-15T08:54:05Z</time>
      </trkpt>
      <trkpt lat="42.771016" lon="-0.554576">
        <ele>2176.6</ele>
        <time>2017-08-15T08:54:06Z</time>
      </trkpt>
      <trkpt lat="42.770976" lon="-0.554519">
        <ele>2173.7</ele>
        <time>2017-08-15T08:54:10Z</time>
      </trkpt>
      <trkpt lat="42.770913" lon="-0.554462">
        <ele>2168.9</ele>
        <time>2017-08-15T08:54:15Z</time>
      </trkpt>
      <trkpt lat="42.770893" lon="-0.554425">
        <ele>2166.9</ele>
        <time>2017-08-15T08:54:18Z</time>
      </trkpt>
      <trkpt lat="42.770880" lon="-0.554329">
        <ele>2166.9</ele>
        <time>2017-08-15T08:54:22Z</time>
      </trkpt>
      <trkpt lat="42.771017" lon="-0.554213">
        <ele>2166.5</ele>
        <time>2017-08-15T08:54:35Z</time>
      </trkpt>
      <trkpt lat="42.771181" lon="-0.554159">
        <ele>2164.1</ele>
        <time>2017-08-15T08:54:46Z</time>
      </trkpt>
      <trkpt lat="42.771223" lon="-0.554114">
        <ele>2163.6</ele>
        <time>2017-08-15T08:54:49Z</time>
      </trkpt>
      <trkpt lat="42.771312" lon="-0.554057">
        <ele>2159.7</ele>
        <time>2017-08-15T08:54:57Z</time>
      </trkpt>
      <trkpt lat="42.771342" lon="-0.554045">
        <ele>2156.9</ele>
        <time>2017-08-15T08:55:00Z</time>
      </trkpt>
      <trkpt lat="42.771363" lon="-0.554024">
        <ele>2155.4</ele>
        <time>2017-08-15T08:55:02Z</time>
      </trkpt>
      <trkpt lat="42.771391" lon="-0.554001">
        <ele>2154.4</ele>
        <time>2017-08-15T08:55:04Z</time>
      </trkpt>
      <trkpt lat="42.771464" lon="-0.553981">
        <ele>2153.5</ele>
        <time>2017-08-15T08:55:10Z</time>
      </trkpt>
      <trkpt lat="42.771588" lon="-0.553859">
        <ele>2152.5</ele>
        <time>2017-08-15T08:55:22Z</time>
      </trkpt>
      <trkpt lat="42.771680" lon="-0.553823">
        <ele>2148.2</ele>
        <time>2017-08-15T08:55:29Z</time>
      </trkpt>
      <trkpt lat="42.771727" lon="-0.553781">
        <ele>2144.8</ele>
        <time>2017-08-15T08:55:33Z</time>
      </trkpt>
      <trkpt lat="42.771778" lon="-0.553742">
        <ele>2143.4</ele>
        <time>2017-08-15T08:55:37Z</time>
      </trkpt>
      <trkpt lat="42.771951" lon="-0.553604">
        <ele>2143.4</ele>
        <time>2017-08-15T08:55:50Z</time>
      </trkpt>
      <trkpt lat="42.772069" lon="-0.553410">
        <ele>2139.1</ele>
        <time>2017-08-15T08:56:01Z</time>
      </trkpt>
      <trkpt lat="42.772094" lon="-0.553368">
        <ele>2135.7</ele>
        <time>2017-08-15T08:56:04Z</time>
      </trkpt>
      <trkpt lat="42.772118" lon="-0.553282">
        <ele>2133.8</ele>
        <time>2017-08-15T08:56:10Z</time>
      </trkpt>
      <trkpt lat="42.772123" lon="-0.553181">
        <ele>2133.8</ele>
        <time>2017-08-15T08:56:14Z</time>
      </trkpt>
      <trkpt lat="42.772135" lon="-0.553024">
        <ele>2133.8</ele>
        <time>2017-08-15T08:56:22Z</time>
      </trkpt>
      <trkpt lat="42.772127" lon="-0.552951">
        <ele>2133.8</ele>
        <time>2017-08-15T08:56:26Z</time>
      </trkpt>
      <trkpt lat="42.772101" lon="-0.552674">
        <ele>2132.8</ele>
        <time>2017-08-15T08:56:38Z</time>
      </trkpt>
      <trkpt lat="42.772100" lon="-0.552635">
        <ele>2129.0</ele>
        <time>2017-08-15T08:56:45Z</time>
      </trkpt>
      <trkpt lat="42.772090" lon="-0.552537">
        <ele>2126.1</ele>
        <time>2017-08-15T08:56:51Z</time>
      </trkpt>
      <trkpt lat="42.772059" lon="-0.552372">
        <ele>2125.6</ele>
        <time>2017-08-15T08:56:59Z</time>
      </trkpt>
      <trkpt lat="42.772055" lon="-0.552299">
        <ele>2125.6</ele>
        <time>2017-08-15T08:57:03Z</time>
      </trkpt>
      <trkpt lat="42.772033" lon="-0.552178">
        <ele>2121.8</ele>
        <time>2017-08-15T08:57:10Z</time>
      </trkpt>
      <trkpt lat="42.772024" lon="-0.552147">
        <ele>2119.4</ele>
        <time>2017-08-15T08:57:12Z</time>
      </trkpt>
      <trkpt lat="42.772015" lon="-0.552117">
        <ele>2117.0</ele>
        <time>2017-08-15T08:57:14Z</time>
      </trkpt>
      <trkpt lat="42.771995" lon="-0.552055">
        <ele>2113.6</ele>
        <time>2017-08-15T08:57:18Z</time>
      </trkpt>
      <trkpt lat="42.771977" lon="-0.551950">
        <ele>2113.6</ele>
        <time>2017-08-15T08:57:26Z</time>
      </trkpt>
      <trkpt lat="42.771953" lon="-0.551847">
        <ele>2113.6</ele>
        <time>2017-08-15T08:57:34Z</time>
      </trkpt>
      <trkpt lat="42.771916" lon="-0.551681">
        <ele>2109.3</ele>
        <time>2017-08-15T08:57:45Z</time>
      </trkpt>
      <trkpt lat="42.771842" lon="-0.551465">
        <ele>2107.4</ele>
        <time>2017-08-15T08:57:58Z</time>
      </trkpt>
      <trkpt lat="42.771819" lon="-0.551433">
        <ele>2106.4</ele>
        <time>2017-08-15T08:58:00Z</time>
      </trkpt>
      <trkpt lat="42.771792" lon="-0.551388">
        <ele>2105.9</ele>
        <time>2017-08-15T08:58:03Z</time>
      </trkpt>
      <trkpt lat="42.771717" lon="-0.551316">
        <ele>2101.1</ele>
        <time>2017-08-15T08:58:08Z</time>
      </trkpt>
      <trkpt lat="42.771561" lon="-0.551194">
        <ele>2098.7</ele>
        <time>2017-08-15T08:58:20Z</time>
      </trkpt>
      <trkpt lat="42.771311" lon="-0.551122">
        <ele>2098.7</ele>
        <time>2017-08-15T08:58:39Z</time>
      </trkpt>
      <trkpt lat="42.771133" lon="-0.551024">
        <ele>2097.7</ele>
        <time>2017-08-15T08:58:53Z</time>
      </trkpt>
      <trkpt lat="42.770949" lon="-0.550919">
        <ele>2096.3</ele>
        <time>2017-08-15T08:59:05Z</time>
      </trkpt>
      <trkpt lat="42.770849" lon="-0.550859">
        <ele>2093.9</ele>
        <time>2017-08-15T08:59:14Z</time>
      </trkpt>
      <trkpt lat="42.770803" lon="-0.550811">
        <ele>2091.0</ele>
        <time>2017-08-15T08:59:19Z</time>
      </trkpt>
      <trkpt lat="42.770754" lon="-0.550787">
        <ele>2087.2</ele>
        <time>2017-08-15T08:59:24Z</time>
      </trkpt>
      <trkpt lat="42.770698" lon="-0.550730">
        <ele>2086.7</ele>
        <time>2017-08-15T08:59:29Z</time>
      </trkpt>
      <trkpt lat="42.770650" lon="-0.550697">
        <ele>2085.7</ele>
        <time>2017-08-15T08:59:34Z</time>
      </trkpt>
      <trkpt lat="42.770540" lon="-0.550558">
        <ele>2083.8</ele>
        <time>2017-08-15T08:59:46Z</time>
      </trkpt>
      <trkpt lat="42.770516" lon="-0.550528">
        <ele>2082.8</ele>
        <time>2017-08-15T08:59:48Z</time>
      </trkpt>
      <trkpt lat="42.770446" lon="-0.550478">
        <ele>2079.0</ele>
        <time>2017-08-15T09:00:22Z</time>
      </trkpt>
      <trkpt lat="42.770390" lon="-0.550407">
        <ele>2077.6</ele>
        <time>2017-08-15T09:00:28Z</time>
      </trkpt>
      <trkpt lat="42.770372" lon="-0.550395">
        <ele>2077.6</ele>
        <time>2017-08-15T09:00:30Z</time>
      </trkpt>
      <trkpt lat="42.770321" lon="-0.550301">
        <ele>2074.2</ele>
        <time>2017-08-15T09:00:36Z</time>
      </trkpt>
      <trkpt lat="42.770281" lon="-0.550302">
        <ele>2071.3</ele>
        <time>2017-08-15T09:00:39Z</time>
      </trkpt>
      <trkpt lat="42.770237" lon="-0.550288">
        <ele>2068.9</ele>
        <time>2017-08-15T09:00:44Z</time>
      </trkpt>
      <trkpt lat="42.770178" lon="-0.550233">
        <ele>2068.4</ele>
        <time>2017-08-15T09:00:49Z</time>
      </trkpt>
      <trkpt lat="42.770095" lon="-0.550113">
        <ele>2067.0</ele>
        <time>2017-08-15T09:00:59Z</time>
      </trkpt>
      <trkpt lat="42.770040" lon="-0.550061">
        <ele>2062.2</ele>
        <time>2017-08-15T09:01:04Z</time>
      </trkpt>
      <trkpt lat="42.770001" lon="-0.550022">
        <ele>2058.3</ele>
        <time>2017-08-15T09:01:08Z</time>
      </trkpt>
      <trkpt lat="42.769930" lon="-0.549991">
        <ele>2056.9</ele>
        <time>2017-08-15T09:01:14Z</time>
      </trkpt>
      <trkpt lat="42.769794" lon="-0.549871">
        <ele>2055.9</ele>
        <time>2017-08-15T09:01:26Z</time>
      </trkpt>
      <trkpt lat="42.769760" lon="-0.549831">
        <ele>2053.5</ele>
        <time>2017-08-15T09:01:31Z</time>
      </trkpt>
      <trkpt lat="42.769704" lon="-0.549770">
        <ele>2049.2</ele>
        <time>2017-08-15T09:01:36Z</time>
      </trkpt>
      <trkpt lat="42.769590" lon="-0.549607">
        <ele>2046.8</ele>
        <time>2017-08-15T09:01:49Z</time>
      </trkpt>
      <trkpt lat="42.769584" lon="-0.549590">
        <ele>2046.8</ele>
        <time>2017-08-15T09:01:50Z</time>
      </trkpt>
      <trkpt lat="42.769569" lon="-0.549574">
        <ele>2045.8</ele>
        <time>2017-08-15T09:01:52Z</time>
      </trkpt>
      <trkpt lat="42.769541" lon="-0.549537">
        <ele>2045.3</ele>
        <time>2017-08-15T09:01:55Z</time>
      </trkpt>
      <trkpt lat="42.769458" lon="-0.549484">
        <ele>2041.0</ele>
        <time>2017-08-15T09:02:01Z</time>
      </trkpt>
      <trkpt lat="42.769400" lon="-0.549474">
        <ele>2037.7</ele>
        <time>2017-08-15T09:02:05Z</time>
      </trkpt>
      <trkpt lat="42.769355" lon="-0.549486">
        <ele>2039.1</ele>
        <time>2017-08-15T09:02:41Z</time>
      </trkpt>
      <trkpt lat="42.769389" lon="-0.549322">
        <ele>2039.1</ele>
        <time>2017-08-15T09:02:54Z</time>
      </trkpt>
      <trkpt lat="42.769382" lon="-0.549286">
        <ele>2039.1</ele>
        <time>2017-08-15T09:03:08Z</time>
      </trkpt>
      <trkpt lat="42.769428" lon="-0.549249">
        <ele>2037.7</ele>
        <time>2017-08-15T09:03:21Z</time>
      </trkpt>
      <trkpt lat="42.769586" lon="-0.549088">
        <ele>2036.2</ele>
        <time>2017-08-15T09:03:36Z</time>
      </trkpt>
      <trkpt lat="42.769654" lon="-0.549040">
        <ele>2034.8</ele>
        <time>2017-08-15T09:03:42Z</time>
      </trkpt>
      <trkpt lat="42.769747" lon="-0.549000">
        <ele>2032.8</ele>
        <time>2017-08-15T09:03:50Z</time>
      </trkpt>
      <trkpt lat="42.769791" lon="-0.548998">
        <ele>2030.0</ele>
        <time>2017-08-15T09:03:54Z</time>
      </trkpt>
      <trkpt lat="42.769837" lon="-0.548992">
        <ele>2027.1</ele>
        <time>2017-08-15T09:03:58Z</time>
      </trkpt>
      <trkpt lat="42.769892" lon="-0.548953">
        <ele>2027.1</ele>
        <time>2017-08-15T09:04:03Z</time>
      </trkpt>
      <trkpt lat="42.770111" lon="-0.548871">
        <ele>2026.1</ele>
        <time>2017-08-15T09:04:19Z</time>
      </trkpt>
      <trkpt lat="42.770317" lon="-0.548900">
        <ele>2023.7</ele>
        <time>2017-08-15T09:04:35Z</time>
      </trkpt>
      <trkpt lat="42.770407" lon="-0.548928">
        <ele>2020.3</ele>
        <time>2017-08-15T09:04:41Z</time>
      </trkpt>
      <trkpt lat="42.770454" lon="-0.548961">
        <ele>2016.5</ele>
        <time>2017-08-15T09:04:45Z</time>
      </trkpt>
      <trkpt lat="42.770653" lon="-0.548983">
        <ele>2014.1</ele>
        <time>2017-08-15T09:04:59Z</time>
      </trkpt>
      <trkpt lat="42.770832" lon="-0.549035">
        <ele>2010.7</ele>
        <time>2017-08-15T09:05:12Z</time>
      </trkpt>
      <trkpt lat="42.770932" lon="-0.549034">
        <ele>2008.3</ele>
        <time>2017-08-15T09:05:26Z</time>
      </trkpt>
      <trkpt lat="42.770932" lon="-0.549034">
        <ele>2008.3</ele>
        <time>2017-08-15T09:05:28Z</time>
      </trkpt>
      <trkpt lat="42.771092" lon="-0.549007">
        <ele>2005.4</ele>
        <time>2017-08-15T09:05:40Z</time>
      </trkpt>
      <trkpt lat="42.771138" lon="-0.549000">
        <ele>2005.0</ele>
        <time>2017-08-15T09:05:44Z</time>
      </trkpt>
      <trkpt lat="42.771218" lon="-0.548982">
        <ele>2002.6</ele>
        <time>2017-08-15T09:05:49Z</time>
      </trkpt>
      <trkpt lat="42.771295" lon="-0.548996">
        <ele>1999.7</ele>
        <time>2017-08-15T09:05:53Z</time>
      </trkpt>
      <trkpt lat="42.771341" lon="-0.548991">
        <ele>1997.8</ele>
        <time>2017-08-15T09:05:56Z</time>
      </trkpt>
      <trkpt lat="42.771386" lon="-0.548997">
        <ele>1997.3</ele>
        <time>2017-08-15T09:05:59Z</time>
      </trkpt>
      <trkpt lat="42.771611" lon="-0.548957">
        <ele>1996.3</ele>
        <time>2017-08-15T09:06:13Z</time>
      </trkpt>
      <trkpt lat="42.771797" lon="-0.548857">
        <ele>1992.9</ele>
        <time>2017-08-15T09:06:26Z</time>
      </trkpt>
      <trkpt lat="42.771823" lon="-0.548829">
        <ele>1992.9</ele>
        <time>2017-08-15T09:06:28Z</time>
      </trkpt>
      <trkpt lat="42.771893" lon="-0.548770">
        <ele>1988.1</ele>
        <time>2017-08-15T09:06:34Z</time>
      </trkpt>
      <trkpt lat="42.772042" lon="-0.548619">
        <ele>1985.7</ele>
        <time>2017-08-15T09:06:46Z</time>
      </trkpt>
      <trkpt lat="42.772199" lon="-0.548616">
        <ele>1984.3</ele>
        <time>2017-08-15T09:06:58Z</time>
      </trkpt>
      <trkpt lat="42.772255" lon="-0.548642">
        <ele>1982.9</ele>
        <time>2017-08-15T09:07:13Z</time>
      </trkpt>
      <trkpt lat="42.772425" lon="-0.548452">
        <ele>1982.9</ele>
        <time>2017-08-15T09:08:12Z</time>
      </trkpt>
      <trkpt lat="42.772588" lon="-0.548177">
        <ele>1981.4</ele>
        <time>2017-08-15T09:08:28Z</time>
      </trkpt>
      <trkpt lat="42.772665" lon="-0.547991">
        <ele>1979.0</ele>
        <time>2017-08-15T09:08:40Z</time>
      </trkpt>
      <trkpt lat="42.772702" lon="-0.547763">
        <ele>1978.1</ele>
        <time>2017-08-15T09:08:52Z</time>
      </trkpt>
      <trkpt lat="42.772728" lon="-0.547389">
        <ele>1976.6</ele>
        <time>2017-08-15T09:09:10Z</time>
      </trkpt>
      <trkpt lat="42.772736" lon="-0.547048">
        <ele>1976.6</ele>
        <time>2017-08-15T09:09:29Z</time>
      </trkpt>
      <trkpt lat="42.772761" lon="-0.546803">
        <ele>1975.7</ele>
        <time>2017-08-15T09:11:47Z</time>
      </trkpt>
      <trkpt lat="42.772761" lon="-0.546802">
        <ele>1976.1</ele>
        <time>2017-08-15T09:12:04Z</time>
      </trkpt>
      <trkpt lat="42.772712" lon="-0.546664">
        <ele>1976.1</ele>
        <time>2017-08-15T09:12:15Z</time>
      </trkpt>
      <trkpt lat="42.772639" lon="-0.546551">
        <ele>1978.1</ele>
        <time>2017-08-15T09:12:26Z</time>
      </trkpt>
      <trkpt lat="42.772599" lon="-0.546527">
        <ele>1979.5</ele>
        <time>2017-08-15T09:12:39Z</time>
      </trkpt>
      <trkpt lat="42.772599" lon="-0.546527">
        <ele>1980.0</ele>
        <time>2017-08-15T09:12:47Z</time>
      </trkpt>
      <trkpt lat="42.772511" lon="-0.546397">
        <ele>1981.4</ele>
        <time>2017-08-15T09:12:59Z</time>
      </trkpt>
      <trkpt lat="42.772494" lon="-0.546308">
        <ele>1981.9</ele>
        <time>2017-08-15T09:13:05Z</time>
      </trkpt>
      <trkpt lat="42.772499" lon="-0.546274">
        <ele>1981.9</ele>
        <time>2017-08-15T09:13:07Z</time>
      </trkpt>
      <trkpt lat="42.772508" lon="-0.546164">
        <ele>1982.9</ele>
        <time>2017-08-15T09:13:14Z</time>
      </trkpt>
      <trkpt lat="42.772502" lon="-0.546036">
        <ele>1984.3</ele>
        <time>2017-08-15T09:13:22Z</time>
      </trkpt>
      <trkpt lat="42.772531" lon="-0.545900">
        <ele>1986.7</ele>
        <time>2017-08-15T09:13:32Z</time>
      </trkpt>
      <trkpt lat="42.772558" lon="-0.545817">
        <ele>1987.7</ele>
        <time>2017-08-15T09:13:38Z</time>
      </trkpt>
      <trkpt lat="42.772565" lon="-0.545787">
        <ele>1988.1</ele>
        <time>2017-08-15T09:13:40Z</time>
      </trkpt>
      <trkpt lat="42.772593" lon="-0.545714">
        <ele>1992.0</ele>
        <time>2017-08-15T09:13:45Z</time>
      </trkpt>
      <trkpt lat="42.772653" lon="-0.545549">
        <ele>1994.4</ele>
        <time>2017-08-15T09:13:57Z</time>
      </trkpt>
      <trkpt lat="42.772711" lon="-0.545394">
        <ele>1994.4</ele>
        <time>2017-08-15T09:14:08Z</time>
      </trkpt>
      <trkpt lat="42.772772" lon="-0.545179">
        <ele>1996.3</ele>
        <time>2017-08-15T09:14:21Z</time>
      </trkpt>
      <trkpt lat="42.772770" lon="-0.545139">
        <ele>1996.8</ele>
        <time>2017-08-15T09:14:23Z</time>
      </trkpt>
      <trkpt lat="42.772790" lon="-0.545076">
        <ele>1998.2</ele>
        <time>2017-08-15T09:14:28Z</time>
      </trkpt>
      <trkpt lat="42.772981" lon="-0.544848">
        <ele>1996.8</ele>
        <time>2017-08-15T09:14:44Z</time>
      </trkpt>
      <trkpt lat="42.772997" lon="-0.544846">
        <ele>1996.8</ele>
        <time>2017-08-15T09:14:45Z</time>
      </trkpt>
      <trkpt lat="42.773081" lon="-0.544767">
        <ele>1994.9</ele>
        <time>2017-08-15T09:14:52Z</time>
      </trkpt>
      <trkpt lat="42.773167" lon="-0.544584">
        <ele>1994.9</ele>
        <time>2017-08-15T09:15:02Z</time>
      </trkpt>
      <trkpt lat="42.773141" lon="-0.544474">
        <ele>1997.8</ele>
        <time>2017-08-15T09:15:08Z</time>
      </trkpt>
      <trkpt lat="42.773126" lon="-0.544423">
        <ele>1978.5</ele>
        <time>2017-08-15T09:15:11Z</time>
      </trkpt>
      <trkpt lat="42.773120" lon="-0.544405">
        <ele>1987.7</ele>
        <time>2017-08-15T09:15:12Z</time>
      </trkpt>
      <trkpt lat="42.773113" lon="-0.544388">
        <ele>1992.9</ele>
        <time>2017-08-15T09:15:13Z</time>
      </trkpt>
      <trkpt lat="42.773093" lon="-0.544355">
        <ele>1993.4</ele>
        <time>2017-08-15T09:15:15Z</time>
      </trkpt>
      <trkpt lat="42.773083" lon="-0.544327">
        <ele>1990.6</ele>
        <time>2017-08-15T09:15:17Z</time>
      </trkpt>
      <trkpt lat="42.773038" lon="-0.544192">
        <ele>1987.7</ele>
        <time>2017-08-15T09:15:29Z</time>
      </trkpt>
      <trkpt lat="42.773055" lon="-0.543935">
        <ele>1983.3</ele>
        <time>2017-08-15T09:16:20Z</time>
      </trkpt>
      <trkpt lat="42.773172" lon="-0.543650">
        <ele>1983.3</ele>
        <time>2017-08-15T09:16:39Z</time>
      </trkpt>
      <trkpt lat="42.773264" lon="-0.543406">
        <ele>1982.4</ele>
        <time>2017-08-15T09:16:53Z</time>
      </trkpt>
      <trkpt lat="42.773317" lon="-0.543131">
        <ele>1980.9</ele>
        <time>2017-08-15T09:17:08Z</time>
      </trkpt>
      <trkpt lat="42.773327" lon="-0.543050">
        <ele>1980.9</ele>
        <time>2017-08-15T09:17:19Z</time>
      </trkpt>
      <trkpt lat="42.773325" lon="-0.542974">
        <ele>1980.0</ele>
        <time>2017-08-15T09:17:23Z</time>
      </trkpt>
      <trkpt lat="42.773298" lon="-0.542856">
        <ele>1980.0</ele>
        <time>2017-08-15T09:17:29Z</time>
      </trkpt>
      <trkpt lat="42.773220" lon="-0.542596">
        <ele>1978.1</ele>
        <time>2017-08-15T09:17:44Z</time>
      </trkpt>
      <trkpt lat="42.773180" lon="-0.542355">
        <ele>1974.7</ele>
        <time>2017-08-15T09:17:58Z</time>
      </trkpt>
      <trkpt lat="42.773112" lon="-0.542107">
        <ele>1970.8</ele>
        <time>2017-08-15T09:18:11Z</time>
      </trkpt>
      <trkpt lat="42.773086" lon="-0.542037">
        <ele>1967.5</ele>
        <time>2017-08-15T09:18:15Z</time>
      </trkpt>
      <trkpt lat="42.772995" lon="-0.541731">
        <ele>1966.0</ele>
        <time>2017-08-15T09:18:29Z</time>
      </trkpt>
      <trkpt lat="42.772904" lon="-0.541418">
        <ele>1964.1</ele>
        <time>2017-08-15T09:18:43Z</time>
      </trkpt>
      <trkpt lat="42.772866" lon="-0.541189">
        <ele>1960.3</ele>
        <time>2017-08-15T09:18:54Z</time>
      </trkpt>
      <trkpt lat="42.772826" lon="-0.540954">
        <ele>1958.8</ele>
        <time>2017-08-15T09:19:06Z</time>
      </trkpt>
      <trkpt lat="42.772850" lon="-0.540618">
        <ele>1959.8</ele>
        <time>2017-08-15T09:19:21Z</time>
      </trkpt>
      <trkpt lat="42.772857" lon="-0.540247">
        <ele>1956.4</ele>
        <time>2017-08-15T09:20:03Z</time>
      </trkpt>
      <trkpt lat="42.772879" lon="-0.540139">
        <ele>1956.4</ele>
        <time>2017-08-15T09:20:14Z</time>
      </trkpt>
      <trkpt lat="42.772934" lon="-0.539690">
        <ele>1956.4</ele>
        <time>2017-08-15T09:20:36Z</time>
      </trkpt>
      <trkpt lat="42.772982" lon="-0.539393">
        <ele>1956.4</ele>
        <time>2017-08-15T09:20:53Z</time>
      </trkpt>
      <trkpt lat="42.773006" lon="-0.539048">
        <ele>1957.4</ele>
        <time>2017-08-15T09:21:09Z</time>
      </trkpt>
      <trkpt lat="42.773056" lon="-0.538717">
        <ele>1957.4</ele>
        <time>2017-08-15T09:21:26Z</time>
      </trkpt>
      <trkpt lat="42.773104" lon="-0.538340">
        <ele>1957.9</ele>
        <time>2017-08-15T09:21:45Z</time>
      </trkpt>
      <trkpt lat="42.773123" lon="-0.538146">
        <ele>1961.7</ele>
        <time>2017-08-15T09:21:57Z</time>
      </trkpt>
      <trkpt lat="42.773125" lon="-0.538089">
        <ele>1965.1</ele>
        <time>2017-08-15T09:22:01Z</time>
      </trkpt>
      <trkpt lat="42.773145" lon="-0.537899">
        <ele>1966.0</ele>
        <time>2017-08-15T09:22:14Z</time>
      </trkpt>
      <trkpt lat="42.773147" lon="-0.537880">
        <ele>1966.0</ele>
        <time>2017-08-15T09:22:15Z</time>
      </trkpt>
      <trkpt lat="42.773208" lon="-0.537681">
        <ele>1966.5</ele>
        <time>2017-08-15T09:22:28Z</time>
      </trkpt>
      <trkpt lat="42.773275" lon="-0.537507">
        <ele>1970.4</ele>
        <time>2017-08-15T09:22:40Z</time>
      </trkpt>
      <trkpt lat="42.773304" lon="-0.537423">
        <ele>1973.7</ele>
        <time>2017-08-15T09:22:45Z</time>
      </trkpt>
      <trkpt lat="42.773397" lon="-0.537199">
        <ele>1975.7</ele>
        <time>2017-08-15T09:22:58Z</time>
      </trkpt>
      <trkpt lat="42.773545" lon="-0.536993">
        <ele>1974.2</ele>
        <time>2017-08-15T09:23:11Z</time>
      </trkpt>
      <trkpt lat="42.773554" lon="-0.536985">
        <ele>1974.2</ele>
        <time>2017-08-15T09:23:12Z</time>
      </trkpt>
      <trkpt lat="42.773615" lon="-0.536910">
        <ele>1970.8</ele>
        <time>2017-08-15T09:23:17Z</time>
      </trkpt>
      <trkpt lat="42.773755" lon="-0.536710">
        <ele>1969.4</ele>
        <time>2017-08-15T09:23:33Z</time>
      </trkpt>
      <trkpt lat="42.773806" lon="-0.536633">
        <ele>1966.5</ele>
        <time>2017-08-15T09:23:38Z</time>
      </trkpt>
      <trkpt lat="42.773869" lon="-0.536539">
        <ele>1966.0</ele>
        <time>2017-08-15T09:23:46Z</time>
      </trkpt>
      <trkpt lat="42.773908" lon="-0.536454">
        <ele>1970.4</ele>
        <time>2017-08-15T09:23:51Z</time>
      </trkpt>
      <trkpt lat="42.773973" lon="-0.536294">
        <ele>1970.8</ele>
        <time>2017-08-15T09:25:44Z</time>
      </trkpt>
      <trkpt lat="42.774084" lon="-0.536091">
        <ele>1972.3</ele>
        <time>2017-08-15T09:25:58Z</time>
      </trkpt>
      <trkpt lat="42.774115" lon="-0.536031">
        <ele>1973.7</ele>
        <time>2017-08-15T09:26:11Z</time>
      </trkpt>
      <trkpt lat="42.774157" lon="-0.535958">
        <ele>1974.7</ele>
        <time>2017-08-15T09:26:21Z</time>
      </trkpt>
      <trkpt lat="42.774207" lon="-0.535874">
        <ele>1975.2</ele>
        <time>2017-08-15T09:26:26Z</time>
      </trkpt>
      <trkpt lat="42.774274" lon="-0.535810">
        <ele>1976.1</ele>
        <time>2017-08-15T09:26:33Z</time>
      </trkpt>
      <trkpt lat="42.774296" lon="-0.535796">
        <ele>1976.6</ele>
        <time>2017-08-15T09:26:35Z</time>
      </trkpt>
      <trkpt lat="42.774431" lon="-0.535619">
        <ele>1980.0</ele>
        <time>2017-08-15T09:26:47Z</time>
      </trkpt>
      <trkpt lat="42.774461" lon="-0.535573">
        <ele>1981.4</ele>
        <time>2017-08-15T09:26:50Z</time>
      </trkpt>
      <trkpt lat="42.774561" lon="-0.535436">
        <ele>1978.1</ele>
        <time>2017-08-15T09:26:59Z</time>
      </trkpt>
      <trkpt lat="42.774724" lon="-0.535213">
        <ele>1978.1</ele>
        <time>2017-08-15T09:27:14Z</time>
      </trkpt>
      <trkpt lat="42.774755" lon="-0.535173">
        <ele>1978.1</ele>
        <time>2017-08-15T09:27:21Z</time>
      </trkpt>
      <trkpt lat="42.774798" lon="-0.535148">
        <ele>1978.5</ele>
        <time>2017-08-15T09:27:36Z</time>
      </trkpt>
      <trkpt lat="42.774869" lon="-0.535052">
        <ele>1978.5</ele>
        <time>2017-08-15T09:27:44Z</time>
      </trkpt>
      <trkpt lat="42.774990" lon="-0.534890">
        <ele>1978.5</ele>
        <time>2017-08-15T09:27:55Z</time>
      </trkpt>
      <trkpt lat="42.775185" lon="-0.534637">
        <ele>1979.5</ele>
        <time>2017-08-15T09:28:13Z</time>
      </trkpt>
      <trkpt lat="42.775343" lon="-0.534457">
        <ele>1979.5</ele>
        <time>2017-08-15T09:28:28Z</time>
      </trkpt>
      <trkpt lat="42.775471" lon="-0.534253">
        <ele>1979.5</ele>
        <time>2017-08-15T09:28:42Z</time>
      </trkpt>
      <trkpt lat="42.775601" lon="-0.534140">
        <ele>1976.6</ele>
        <time>2017-08-15T09:28:54Z</time>
      </trkpt>
      <trkpt lat="42.775602" lon="-0.534140">
        <ele>1976.6</ele>
        <time>2017-08-15T09:28:55Z</time>
      </trkpt>
      <trkpt lat="42.775624" lon="-0.534067">
        <ele>1975.2</ele>
        <time>2017-08-15T09:29:01Z</time>
      </trkpt>
      <trkpt lat="42.775569" lon="-0.533916">
        <ele>1971.8</ele>
        <time>2017-08-15T09:29:10Z</time>
      </trkpt>
      <trkpt lat="42.775545" lon="-0.533905">
        <ele>1967.5</ele>
        <time>2017-08-15T09:29:12Z</time>
      </trkpt>
      <trkpt lat="42.775519" lon="-0.533892">
        <ele>1963.6</ele>
        <time>2017-08-15T09:29:14Z</time>
      </trkpt>
      <trkpt lat="42.775391" lon="-0.533669">
        <ele>1967.5</ele>
        <time>2017-08-15T09:29:30Z</time>
      </trkpt>
      <trkpt lat="42.775382" lon="-0.533471">
        <ele>1964.1</ele>
        <time>2017-08-15T09:29:40Z</time>
      </trkpt>
      <trkpt lat="42.775227" lon="-0.533195">
        <ele>1963.2</ele>
        <time>2017-08-15T09:29:55Z</time>
      </trkpt>
      <trkpt lat="42.775146" lon="-0.532911">
        <ele>1960.8</ele>
        <time>2017-08-15T09:30:09Z</time>
      </trkpt>
      <trkpt lat="42.775070" lon="-0.532577">
        <ele>1960.3</ele>
        <time>2017-08-15T09:30:26Z</time>
      </trkpt>
      <trkpt lat="42.774967" lon="-0.532327">
        <ele>1960.3</ele>
        <time>2017-08-15T09:30:41Z</time>
      </trkpt>
      <trkpt lat="42.774938" lon="-0.532260">
        <ele>1959.8</ele>
        <time>2017-08-15T09:30:54Z</time>
      </trkpt>
      <trkpt lat="42.774938" lon="-0.532260">
        <ele>1959.8</ele>
        <time>2017-08-15T09:30:57Z</time>
      </trkpt>
      <trkpt lat="42.774916" lon="-0.532002">
        <ele>1959.3</ele>
        <time>2017-08-15T09:31:11Z</time>
      </trkpt>
      <trkpt lat="42.774980" lon="-0.531669">
        <ele>1959.3</ele>
        <time>2017-08-15T09:31:27Z</time>
      </trkpt>
      <trkpt lat="42.775068" lon="-0.531345">
        <ele>1960.8</ele>
        <time>2017-08-15T09:31:43Z</time>
      </trkpt>
      <trkpt lat="42.775122" lon="-0.531110">
        <ele>1960.8</ele>
        <time>2017-08-15T09:31:57Z</time>
      </trkpt>
      <trkpt lat="42.775148" lon="-0.530970">
        <ele>1963.6</ele>
        <time>2017-08-15T09:32:04Z</time>
      </trkpt>
      <trkpt lat="42.775164" lon="-0.530892">
        <ele>1968.0</ele>
        <time>2017-08-15T09:32:08Z</time>
      </trkpt>
      <trkpt lat="42.775178" lon="-0.530790">
        <ele>1969.4</ele>
        <time>2017-08-15T09:32:15Z</time>
      </trkpt>
      <trkpt lat="42.775227" lon="-0.530504">
        <ele>1972.8</ele>
        <time>2017-08-15T09:32:31Z</time>
      </trkpt>
      <trkpt lat="42.775284" lon="-0.530278">
        <ele>1969.4</ele>
        <time>2017-08-15T09:32:43Z</time>
      </trkpt>
      <trkpt lat="42.775435" lon="-0.530043">
        <ele>1967.5</ele>
        <time>2017-08-15T09:32:58Z</time>
      </trkpt>
      <trkpt lat="42.775502" lon="-0.529971">
        <ele>1966.0</ele>
        <time>2017-08-15T09:33:03Z</time>
      </trkpt>
      <trkpt lat="42.775551" lon="-0.529903">
        <ele>1961.7</ele>
        <time>2017-08-15T09:33:09Z</time>
      </trkpt>
      <trkpt lat="42.775747" lon="-0.529669">
        <ele>1960.8</ele>
        <time>2017-08-15T09:33:24Z</time>
      </trkpt>
      <trkpt lat="42.775976" lon="-0.529422">
        <ele>1960.3</ele>
        <time>2017-08-15T09:35:13Z</time>
      </trkpt>
      <trkpt lat="42.776080" lon="-0.529305">
        <ele>1958.8</ele>
        <time>2017-08-15T09:35:23Z</time>
      </trkpt>
      <trkpt lat="42.776086" lon="-0.528976">
        <ele>1955.9</ele>
        <time>2017-08-15T09:35:38Z</time>
      </trkpt>
      <trkpt lat="42.776023" lon="-0.528765">
        <ele>1954.5</ele>
        <time>2017-08-15T09:35:52Z</time>
      </trkpt>
      <trkpt lat="42.776023" lon="-0.528765">
        <ele>1954.0</ele>
        <time>2017-08-15T09:36:11Z</time>
      </trkpt>
      <trkpt lat="42.776000" lon="-0.528738">
        <ele>1954.0</ele>
        <time>2017-08-15T09:36:20Z</time>
      </trkpt>
      <trkpt lat="42.775779" lon="-0.528558">
        <ele>1952.6</ele>
        <time>2017-08-15T09:36:37Z</time>
      </trkpt>
      <trkpt lat="42.775681" lon="-0.528485">
        <ele>1949.2</ele>
        <time>2017-08-15T09:36:43Z</time>
      </trkpt>
      <trkpt lat="42.775674" lon="-0.528472">
        <ele>1947.8</ele>
        <time>2017-08-15T09:36:44Z</time>
      </trkpt>
      <trkpt lat="42.775645" lon="-0.528364">
        <ele>1947.3</ele>
        <time>2017-08-15T09:36:51Z</time>
      </trkpt>
      <trkpt lat="42.775689" lon="-0.527949">
        <ele>1946.3</ele>
        <time>2017-08-15T09:37:08Z</time>
      </trkpt>
      <trkpt lat="42.775637" lon="-0.527679">
        <ele>1944.4</ele>
        <time>2017-08-15T09:37:23Z</time>
      </trkpt>
      <trkpt lat="42.775520" lon="-0.527423">
        <ele>1940.6</ele>
        <time>2017-08-15T09:37:37Z</time>
      </trkpt>
      <trkpt lat="42.775519" lon="-0.527409">
        <ele>1939.6</ele>
        <time>2017-08-15T09:37:38Z</time>
      </trkpt>
      <trkpt lat="42.775545" lon="-0.527301">
        <ele>1935.3</ele>
        <time>2017-08-15T09:37:43Z</time>
      </trkpt>
      <trkpt lat="42.775568" lon="-0.527274">
        <ele>1934.3</ele>
        <time>2017-08-15T09:37:45Z</time>
      </trkpt>
      <trkpt lat="42.775784" lon="-0.527339">
        <ele>1934.3</ele>
        <time>2017-08-15T09:37:58Z</time>
      </trkpt>
      <trkpt lat="42.775912" lon="-0.527424">
        <ele>1932.9</ele>
        <time>2017-08-15T09:38:12Z</time>
      </trkpt>
      <trkpt lat="42.775974" lon="-0.527608">
        <ele>1930.9</ele>
        <time>2017-08-15T09:38:23Z</time>
      </trkpt>
      <trkpt lat="42.776061" lon="-0.527708">
        <ele>1927.6</ele>
        <time>2017-08-15T09:38:31Z</time>
      </trkpt>
      <trkpt lat="42.776070" lon="-0.527700">
        <ele>1927.1</ele>
        <time>2017-08-15T09:38:32Z</time>
      </trkpt>
      <trkpt lat="42.776113" lon="-0.527630">
        <ele>1923.2</ele>
        <time>2017-08-15T09:38:36Z</time>
      </trkpt>
      <trkpt lat="42.776128" lon="-0.527592">
        <ele>1922.3</ele>
        <time>2017-08-15T09:38:38Z</time>
      </trkpt>
      <trkpt lat="42.776156" lon="-0.527522">
        <ele>1923.7</ele>
        <time>2017-08-15T09:38:52Z</time>
      </trkpt>
      <trkpt lat="42.776156" lon="-0.527522">
        <ele>1923.7</ele>
        <time>2017-08-15T09:38:54Z</time>
      </trkpt>
      <trkpt lat="42.776145" lon="-0.527420">
        <ele>1923.7</ele>
        <time>2017-08-15T09:39:00Z</time>
      </trkpt>
      <trkpt lat="42.776116" lon="-0.527315">
        <ele>1922.3</ele>
        <time>2017-08-15T09:39:05Z</time>
      </trkpt>
      <trkpt lat="42.776095" lon="-0.527276">
        <ele>1921.3</ele>
        <time>2017-08-15T09:39:07Z</time>
      </trkpt>
      <trkpt lat="42.776036" lon="-0.527171">
        <ele>1917.0</ele>
        <time>2017-08-15T09:39:13Z</time>
      </trkpt>
      <trkpt lat="42.776015" lon="-0.527041">
        <ele>1914.1</ele>
        <time>2017-08-15T09:39:18Z</time>
      </trkpt>
      <trkpt lat="42.776017" lon="-0.527016">
        <ele>1914.6</ele>
        <time>2017-08-15T09:39:19Z</time>
      </trkpt>
      <trkpt lat="42.776087" lon="-0.526979">
        <ele>1914.1</ele>
        <time>2017-08-15T09:39:25Z</time>
      </trkpt>
      <trkpt lat="42.776270" lon="-0.527150">
        <ele>1913.6</ele>
        <time>2017-08-15T09:39:37Z</time>
      </trkpt>
      <trkpt lat="42.776367" lon="-0.527280">
        <ele>1909.8</ele>
        <time>2017-08-15T09:39:45Z</time>
      </trkpt>
      <trkpt lat="42.776401" lon="-0.527342">
        <ele>1906.4</ele>
        <time>2017-08-15T09:39:49Z</time>
      </trkpt>
      <trkpt lat="42.776467" lon="-0.527554">
        <ele>1904.5</ele>
        <time>2017-08-15T09:39:59Z</time>
      </trkpt>
      <trkpt lat="42.776565" lon="-0.527528">
        <ele>1903.6</ele>
        <time>2017-08-15T09:40:08Z</time>
      </trkpt>
      <trkpt lat="42.776569" lon="-0.527492">
        <ele>1903.1</ele>
        <time>2017-08-15T09:40:10Z</time>
      </trkpt>
      <trkpt lat="42.776537" lon="-0.527195">
        <ele>1900.7</ele>
        <time>2017-08-15T09:40:24Z</time>
      </trkpt>
      <trkpt lat="42.776527" lon="-0.527052">
        <ele>1897.3</ele>
        <time>2017-08-15T09:40:30Z</time>
      </trkpt>
      <trkpt lat="42.776518" lon="-0.526963">
        <ele>1893.9</ele>
        <time>2017-08-15T09:40:34Z</time>
      </trkpt>
      <trkpt lat="42.776436" lon="-0.526723">
        <ele>1892.5</ele>
        <time>2017-08-15T09:40:45Z</time>
      </trkpt>
      <trkpt lat="42.776279" lon="-0.526509">
        <ele>1892.5</ele>
        <time>2017-08-15T09:40:58Z</time>
      </trkpt>
      <trkpt lat="42.776341" lon="-0.526261">
        <ele>1892.5</ele>
        <time>2017-08-15T09:41:10Z</time>
      </trkpt>
      <trkpt lat="42.776354" lon="-0.526241">
        <ele>1892.5</ele>
        <time>2017-08-15T09:41:11Z</time>
      </trkpt>
      <trkpt lat="42.776472" lon="-0.526049">
        <ele>1888.7</ele>
        <time>2017-08-15T09:41:21Z</time>
      </trkpt>
      <trkpt lat="42.776500" lon="-0.525941">
        <ele>1885.3</ele>
        <time>2017-08-15T09:41:26Z</time>
      </trkpt>
      <trkpt lat="42.776378" lon="-0.525722">
        <ele>1884.8</ele>
        <time>2017-08-15T09:41:39Z</time>
      </trkpt>
      <trkpt lat="42.776321" lon="-0.525484">
        <ele>1884.3</ele>
        <time>2017-08-15T09:41:50Z</time>
      </trkpt>
      <trkpt lat="42.776389" lon="-0.525405">
        <ele>1880.5</ele>
        <time>2017-08-15T09:41:55Z</time>
      </trkpt>
      <trkpt lat="42.776460" lon="-0.525420">
        <ele>1878.1</ele>
        <time>2017-08-15T09:41:59Z</time>
      </trkpt>
      <trkpt lat="42.776525" lon="-0.525462">
        <ele>1876.2</ele>
        <time>2017-08-15T09:42:03Z</time>
      </trkpt>
      <trkpt lat="42.776634" lon="-0.525519">
        <ele>1873.3</ele>
        <time>2017-08-15T09:42:09Z</time>
      </trkpt>
      <trkpt lat="42.776771" lon="-0.525608">
        <ele>1870.9</ele>
        <time>2017-08-15T09:42:18Z</time>
      </trkpt>
      <trkpt lat="42.776935" lon="-0.525703">
        <ele>1869.4</ele>
        <time>2017-08-15T09:42:28Z</time>
      </trkpt>
      <trkpt lat="42.777110" lon="-0.525876">
        <ele>1866.5</ele>
        <time>2017-08-15T09:42:40Z</time>
      </trkpt>
      <trkpt lat="42.777181" lon="-0.526003">
        <ele>1865.6</ele>
        <time>2017-08-15T09:42:47Z</time>
      </trkpt>
      <trkpt lat="42.777243" lon="-0.525960">
        <ele>1865.1</ele>
        <time>2017-08-15T09:42:52Z</time>
      </trkpt>
      <trkpt lat="42.777200" lon="-0.525678">
        <ele>1862.7</ele>
        <time>2017-08-15T09:43:05Z</time>
      </trkpt>
      <trkpt lat="42.777145" lon="-0.525464">
        <ele>1860.3</ele>
        <time>2017-08-15T09:43:15Z</time>
      </trkpt>
      <trkpt lat="42.777187" lon="-0.525420">
        <ele>1855.0</ele>
        <time>2017-08-15T09:43:19Z</time>
      </trkpt>
      <trkpt lat="42.777196" lon="-0.525429">
        <ele>1854.0</ele>
        <time>2017-08-15T09:43:20Z</time>
      </trkpt>
      <trkpt lat="42.777256" lon="-0.525494">
        <ele>1851.2</ele>
        <time>2017-08-15T09:43:24Z</time>
      </trkpt>
      <trkpt lat="42.777271" lon="-0.525510">
        <ele>1852.1</ele>
        <time>2017-08-15T09:43:25Z</time>
      </trkpt>
      <trkpt lat="42.777408" lon="-0.525674">
        <ele>1851.6</ele>
        <time>2017-08-15T09:43:40Z</time>
      </trkpt>
      <trkpt lat="42.777557" lon="-0.525838">
        <ele>1849.7</ele>
        <time>2017-08-15T09:43:56Z</time>
      </trkpt>
      <trkpt lat="42.777617" lon="-0.525783">
        <ele>1847.8</ele>
        <time>2017-08-15T09:44:02Z</time>
      </trkpt>
      <trkpt lat="42.777537" lon="-0.525492">
        <ele>1844.9</ele>
        <time>2017-08-15T09:44:18Z</time>
      </trkpt>
      <trkpt lat="42.777543" lon="-0.525159">
        <ele>1843.0</ele>
        <time>2017-08-15T09:44:36Z</time>
      </trkpt>
      <trkpt lat="42.777479" lon="-0.524878">
        <ele>1841.1</ele>
        <time>2017-08-15T09:44:50Z</time>
      </trkpt>
      <trkpt lat="42.777437" lon="-0.524663">
        <ele>1839.1</ele>
        <time>2017-08-15T09:45:05Z</time>
      </trkpt>
      <trkpt lat="42.777428" lon="-0.524621">
        <ele>1838.7</ele>
        <time>2017-08-15T09:45:08Z</time>
      </trkpt>
      <trkpt lat="42.777426" lon="-0.524555">
        <ele>1838.2</ele>
        <time>2017-08-15T09:45:12Z</time>
      </trkpt>
      <trkpt lat="42.777525" lon="-0.524518">
        <ele>1836.3</ele>
        <time>2017-08-15T09:45:23Z</time>
      </trkpt>
      <trkpt lat="42.777682" lon="-0.524844">
        <ele>1832.4</ele>
        <time>2017-08-15T09:45:45Z</time>
      </trkpt>
      <trkpt lat="42.777877" lon="-0.525113">
        <ele>1829.5</ele>
        <time>2017-08-15T09:46:04Z</time>
      </trkpt>
      <trkpt lat="42.778059" lon="-0.525443">
        <ele>1828.1</ele>
        <time>2017-08-15T09:46:22Z</time>
      </trkpt>
      <trkpt lat="42.778247" lon="-0.525690">
        <ele>1826.6</ele>
        <time>2017-08-15T09:46:39Z</time>
      </trkpt>
      <trkpt lat="42.778441" lon="-0.525993">
        <ele>1825.2</ele>
        <time>2017-08-15T09:46:58Z</time>
      </trkpt>
      <trkpt lat="42.778499" lon="-0.526310">
        <ele>1824.7</ele>
        <time>2017-08-15T09:47:13Z</time>
      </trkpt>
      <trkpt lat="42.778398" lon="-0.526512">
        <ele>1824.2</ele>
        <time>2017-08-15T09:47:27Z</time>
      </trkpt>
      <trkpt lat="42.778300" lon="-0.526714">
        <ele>1823.8</ele>
        <time>2017-08-15T09:47:40Z</time>
      </trkpt>
      <trkpt lat="42.778372" lon="-0.526831">
        <ele>1823.8</ele>
        <time>2017-08-15T09:47:47Z</time>
      </trkpt>
      <trkpt lat="42.778437" lon="-0.526901">
        <ele>1823.3</ele>
        <time>2017-08-15T09:47:52Z</time>
      </trkpt>
      <trkpt lat="42.778592" lon="-0.527110">
        <ele>1820.9</ele>
        <time>2017-08-15T09:48:08Z</time>
      </trkpt>
      <trkpt lat="42.778611" lon="-0.527136">
        <ele>1820.4</ele>
        <time>2017-08-15T09:48:10Z</time>
      </trkpt>
      <trkpt lat="42.778771" lon="-0.527303">
        <ele>1818.0</ele>
        <time>2017-08-15T09:48:22Z</time>
      </trkpt>
      <trkpt lat="42.778961" lon="-0.527460">
        <ele>1815.1</ele>
        <time>2017-08-15T09:48:36Z</time>
      </trkpt>
      <trkpt lat="42.779187" lon="-0.527720">
        <ele>1812.2</ele>
        <time>2017-08-15T09:48:54Z</time>
      </trkpt>
      <trkpt lat="42.779317" lon="-0.527856">
        <ele>1809.3</ele>
        <time>2017-08-15T09:49:05Z</time>
      </trkpt>
      <trkpt lat="42.779412" lon="-0.527913">
        <ele>1806.0</ele>
        <time>2017-08-15T09:49:14Z</time>
      </trkpt>
      <trkpt lat="42.779486" lon="-0.527932">
        <ele>1802.6</ele>
        <time>2017-08-15T09:49:18Z</time>
      </trkpt>
      <trkpt lat="42.779672" lon="-0.528059">
        <ele>1799.7</ele>
        <time>2017-08-15T09:49:32Z</time>
      </trkpt>
      <trkpt lat="42.779820" lon="-0.528327">
        <ele>1798.8</ele>
        <time>2017-08-15T09:49:46Z</time>
      </trkpt>
      <trkpt lat="42.779959" lon="-0.528473">
        <ele>1796.4</ele>
        <time>2017-08-15T09:50:02Z</time>
      </trkpt>
      <trkpt lat="42.779984" lon="-0.528469">
        <ele>1795.4</ele>
        <time>2017-08-15T09:50:10Z</time>
      </trkpt>
      <trkpt lat="42.779986" lon="-0.528252">
        <ele>1794.9</ele>
        <time>2017-08-15T09:50:21Z</time>
      </trkpt>
      <trkpt lat="42.779879" lon="-0.527993">
        <ele>1792.5</ele>
        <time>2017-08-15T09:50:33Z</time>
      </trkpt>
      <trkpt lat="42.779883" lon="-0.527963">
        <ele>1792.5</ele>
        <time>2017-08-15T09:50:34Z</time>
      </trkpt>
      <trkpt lat="42.779993" lon="-0.527881">
        <ele>1791.6</ele>
        <time>2017-08-15T09:50:41Z</time>
      </trkpt>
      <trkpt lat="42.780133" lon="-0.528010">
        <ele>1787.7</ele>
        <time>2017-08-15T09:50:50Z</time>
      </trkpt>
      <trkpt lat="42.780187" lon="-0.528056">
        <ele>1784.3</ele>
        <time>2017-08-15T09:50:53Z</time>
      </trkpt>
      <trkpt lat="42.780204" lon="-0.528072">
        <ele>1784.3</ele>
        <time>2017-08-15T09:50:54Z</time>
      </trkpt>
      <trkpt lat="42.780301" lon="-0.528178">
        <ele>1780.5</ele>
        <time>2017-08-15T09:51:00Z</time>
      </trkpt>
      <trkpt lat="42.780473" lon="-0.528384">
        <ele>1781.0</ele>
        <time>2017-08-15T09:51:12Z</time>
      </trkpt>
      <trkpt lat="42.780622" lon="-0.528573">
        <ele>1779.1</ele>
        <time>2017-08-15T09:51:22Z</time>
      </trkpt>
      <trkpt lat="42.780693" lon="-0.528668">
        <ele>1775.2</ele>
        <time>2017-08-15T09:51:27Z</time>
      </trkpt>
      <trkpt lat="42.780788" lon="-0.528780">
        <ele>1771.4</ele>
        <time>2017-08-15T09:51:33Z</time>
      </trkpt>
      <trkpt lat="42.780829" lon="-0.528890">
        <ele>1771.4</ele>
        <time>2017-08-15T09:51:38Z</time>
      </trkpt>
      <trkpt lat="42.780797" lon="-0.528988">
        <ele>1771.4</ele>
        <time>2017-08-15T09:51:42Z</time>
      </trkpt>
      <trkpt lat="42.780715" lon="-0.529066">
        <ele>1771.4</ele>
        <time>2017-08-15T09:51:47Z</time>
      </trkpt>
      <trkpt lat="42.780651" lon="-0.529222">
        <ele>1770.9</ele>
        <time>2017-08-15T09:51:54Z</time>
      </trkpt>
      <trkpt lat="42.780795" lon="-0.529422">
        <ele>1768.5</ele>
        <time>2017-08-15T09:52:05Z</time>
      </trkpt>
      <trkpt lat="42.780862" lon="-0.529689">
        <ele>1767.0</ele>
        <time>2017-08-15T09:52:16Z</time>
      </trkpt>
      <trkpt lat="42.780912" lon="-0.529968">
        <ele>1765.1</ele>
        <time>2017-08-15T09:52:27Z</time>
      </trkpt>
      <trkpt lat="42.780953" lon="-0.530232">
        <ele>1762.2</ele>
        <time>2017-08-15T09:52:38Z</time>
      </trkpt>
      <trkpt lat="42.780993" lon="-0.530332">
        <ele>1758.4</ele>
        <time>2017-08-15T09:52:43Z</time>
      </trkpt>
      <trkpt lat="42.781031" lon="-0.530386">
        <ele>1755.0</ele>
        <time>2017-08-15T09:52:46Z</time>
      </trkpt>
      <trkpt lat="42.781067" lon="-0.530472">
        <ele>1751.7</ele>
        <time>2017-08-15T09:52:50Z</time>
      </trkpt>
      <trkpt lat="42.781153" lon="-0.530708">
        <ele>1747.8</ele>
        <time>2017-08-15T09:52:59Z</time>
      </trkpt>
      <trkpt lat="42.781199" lon="-0.530972">
        <ele>1745.4</ele>
        <time>2017-08-15T09:53:10Z</time>
      </trkpt>
      <trkpt lat="42.781285" lon="-0.531275">
        <ele>1745.4</ele>
        <time>2017-08-15T09:53:24Z</time>
      </trkpt>
      <trkpt lat="42.781400" lon="-0.531528">
        <ele>1746.4</ele>
        <time>2017-08-15T09:53:38Z</time>
      </trkpt>
      <trkpt lat="42.781361" lon="-0.531824">
        <ele>1745.9</ele>
        <time>2017-08-15T09:53:53Z</time>
      </trkpt>
      <trkpt lat="42.781183" lon="-0.532011">
        <ele>1745.9</ele>
        <time>2017-08-15T09:54:09Z</time>
      </trkpt>
      <trkpt lat="42.781193" lon="-0.532170">
        <ele>1744.4</ele>
        <time>2017-08-15T09:54:19Z</time>
      </trkpt>
      <trkpt lat="42.781342" lon="-0.532415">
        <ele>1741.1</ele>
        <time>2017-08-15T09:54:34Z</time>
      </trkpt>
      <trkpt lat="42.781462" lon="-0.532677">
        <ele>1738.2</ele>
        <time>2017-08-15T09:54:49Z</time>
      </trkpt>
      <trkpt lat="42.781548" lon="-0.532920">
        <ele>1734.8</ele>
        <time>2017-08-15T09:55:01Z</time>
      </trkpt>
      <trkpt lat="42.781606" lon="-0.533186">
        <ele>1733.4</ele>
        <time>2017-08-15T09:55:15Z</time>
      </trkpt>
      <trkpt lat="42.781745" lon="-0.533337">
        <ele>1731.9</ele>
        <time>2017-08-15T09:55:29Z</time>
      </trkpt>
      <trkpt lat="42.781841" lon="-0.533370">
        <ele>1730.5</ele>
        <time>2017-08-15T09:55:36Z</time>
      </trkpt>
      <trkpt lat="42.781930" lon="-0.533352">
        <ele>1729.6</ele>
        <time>2017-08-15T09:55:43Z</time>
      </trkpt>
      <trkpt lat="42.782052" lon="-0.533037">
        <ele>1726.7</ele>
        <time>2017-08-15T09:56:02Z</time>
      </trkpt>
      <trkpt lat="42.782169" lon="-0.532878">
        <ele>1725.2</ele>
        <time>2017-08-15T09:56:13Z</time>
      </trkpt>
      <trkpt lat="42.782272" lon="-0.533026">
        <ele>1721.9</ele>
        <time>2017-08-15T09:56:27Z</time>
      </trkpt>
      <trkpt lat="42.782321" lon="-0.533189">
        <ele>1718.5</ele>
        <time>2017-08-15T09:56:36Z</time>
      </trkpt>
      <trkpt lat="42.782347" lon="-0.533262">
        <ele>1714.7</ele>
        <time>2017-08-15T09:56:40Z</time>
      </trkpt>
      <trkpt lat="42.782475" lon="-0.533440">
        <ele>1712.2</ele>
        <time>2017-08-15T09:56:54Z</time>
      </trkpt>
      <trkpt lat="42.782589" lon="-0.533582">
        <ele>1709.4</ele>
        <time>2017-08-15T09:57:06Z</time>
      </trkpt>
      <trkpt lat="42.782625" lon="-0.533618">
        <ele>1706.0</ele>
        <time>2017-08-15T09:57:09Z</time>
      </trkpt>
      <trkpt lat="42.782671" lon="-0.533659">
        <ele>1702.6</ele>
        <time>2017-08-15T09:57:13Z</time>
      </trkpt>
      <trkpt lat="42.782813" lon="-0.533793">
        <ele>1701.7</ele>
        <time>2017-08-15T09:57:27Z</time>
      </trkpt>
      <trkpt lat="42.782893" lon="-0.533883">
        <ele>1698.3</ele>
        <time>2017-08-15T09:57:36Z</time>
      </trkpt>
      <trkpt lat="42.782924" lon="-0.533922">
        <ele>1694.5</ele>
        <time>2017-08-15T09:57:40Z</time>
      </trkpt>
      <trkpt lat="42.782971" lon="-0.533985">
        <ele>1691.6</ele>
        <time>2017-08-15T09:57:45Z</time>
      </trkpt>
      <trkpt lat="42.783111" lon="-0.534188">
        <ele>1690.6</ele>
        <time>2017-08-15T09:58:02Z</time>
      </trkpt>
      <trkpt lat="42.783233" lon="-0.534350">
        <ele>1688.2</ele>
        <time>2017-08-15T09:58:14Z</time>
      </trkpt>
      <trkpt lat="42.783290" lon="-0.534421">
        <ele>1686.8</ele>
        <time>2017-08-15T09:58:19Z</time>
      </trkpt>
      <trkpt lat="42.783403" lon="-0.534629">
        <ele>1683.9</ele>
        <time>2017-08-15T09:58:33Z</time>
      </trkpt>
      <trkpt lat="42.783467" lon="-0.534884">
        <ele>1681.5</ele>
        <time>2017-08-15T09:58:50Z</time>
      </trkpt>
      <trkpt lat="42.783531" lon="-0.535129">
        <ele>1679.6</ele>
        <time>2017-08-15T09:59:06Z</time>
      </trkpt>
      <trkpt lat="42.783541" lon="-0.535129">
        <ele>1678.6</ele>
        <time>2017-08-15T09:59:12Z</time>
      </trkpt>
      <trkpt lat="42.783649" lon="-0.535185">
        <ele>1677.6</ele>
        <time>2017-08-15T09:59:20Z</time>
      </trkpt>
      <trkpt lat="42.783725" lon="-0.535295">
        <ele>1673.8</ele>
        <time>2017-08-15T09:59:26Z</time>
      </trkpt>
      <trkpt lat="42.783762" lon="-0.535336">
        <ele>1669.9</ele>
        <time>2017-08-15T09:59:30Z</time>
      </trkpt>
      <trkpt lat="42.783770" lon="-0.535347">
        <ele>1669.9</ele>
        <time>2017-08-15T09:59:31Z</time>
      </trkpt>
      <trkpt lat="42.783841" lon="-0.535640">
        <ele>1668.5</ele>
        <time>2017-08-15T09:59:48Z</time>
      </trkpt>
      <trkpt lat="42.783873" lon="-0.535772">
        <ele>1665.1</ele>
        <time>2017-08-15T09:59:55Z</time>
      </trkpt>
      <trkpt lat="42.783897" lon="-0.535861">
        <ele>1662.3</ele>
        <time>2017-08-15T09:59:59Z</time>
      </trkpt>
      <trkpt lat="42.783938" lon="-0.535986">
        <ele>1658.4</ele>
        <time>2017-08-15T10:00:05Z</time>
      </trkpt>
      <trkpt lat="42.784035" lon="-0.536249">
        <ele>1657.4</ele>
        <time>2017-08-15T10:00:19Z</time>
      </trkpt>
      <trkpt lat="42.784080" lon="-0.536399">
        <ele>1654.6</ele>
        <time>2017-08-15T10:00:26Z</time>
      </trkpt>
      <trkpt lat="42.784114" lon="-0.536474">
        <ele>1650.2</ele>
        <time>2017-08-15T10:00:30Z</time>
      </trkpt>
      <trkpt lat="42.784127" lon="-0.536535">
        <ele>1646.9</ele>
        <time>2017-08-15T10:00:34Z</time>
      </trkpt>
      <trkpt lat="42.784169" lon="-0.536619">
        <ele>1646.4</ele>
        <time>2017-08-15T10:00:44Z</time>
      </trkpt>
      <trkpt lat="42.784215" lon="-0.536704">
        <ele>1646.4</ele>
        <time>2017-08-15T10:00:51Z</time>
      </trkpt>
      <trkpt lat="42.784232" lon="-0.536806">
        <ele>1644.9</ele>
        <time>2017-08-15T10:00:57Z</time>
      </trkpt>
      <trkpt lat="42.784250" lon="-0.536877">
        <ele>1644.5</ele>
        <time>2017-08-15T10:01:01Z</time>
      </trkpt>
      <trkpt lat="42.784329" lon="-0.537016">
        <ele>1642.1</ele>
        <time>2017-08-15T10:01:12Z</time>
      </trkpt>
      <trkpt lat="42.784382" lon="-0.537107">
        <ele>1640.6</ele>
        <time>2017-08-15T10:01:18Z</time>
      </trkpt>
      <trkpt lat="42.784414" lon="-0.537194">
        <ele>1636.3</ele>
        <time>2017-08-15T10:01:24Z</time>
      </trkpt>
      <trkpt lat="42.784423" lon="-0.537237">
        <ele>1633.4</ele>
        <time>2017-08-15T10:01:28Z</time>
      </trkpt>
      <trkpt lat="42.784434" lon="-0.537324">
        <ele>1632.9</ele>
        <time>2017-08-15T10:01:39Z</time>
      </trkpt>
      <trkpt lat="42.784518" lon="-0.537295">
        <ele>1633.4</ele>
        <time>2017-08-15T10:02:11Z</time>
      </trkpt>
      <trkpt lat="42.784563" lon="-0.537296">
        <ele>1632.0</ele>
        <time>2017-08-15T10:02:15Z</time>
      </trkpt>
      <trkpt lat="42.784601" lon="-0.537293">
        <ele>1628.6</ele>
        <time>2017-08-15T10:02:19Z</time>
      </trkpt>
      <trkpt lat="42.784625" lon="-0.537293">
        <ele>1625.2</ele>
        <time>2017-08-15T10:02:22Z</time>
      </trkpt>
      <trkpt lat="42.784706" lon="-0.537306">
        <ele>1622.8</ele>
        <time>2017-08-15T10:02:29Z</time>
      </trkpt>
      <trkpt lat="42.784858" lon="-0.537325">
        <ele>1620.0</ele>
        <time>2017-08-15T10:02:41Z</time>
      </trkpt>
      <trkpt lat="42.784913" lon="-0.537327">
        <ele>1616.1</ele>
        <time>2017-08-15T10:02:45Z</time>
      </trkpt>
      <trkpt lat="42.784960" lon="-0.537342">
        <ele>1612.8</ele>
        <time>2017-08-15T10:02:48Z</time>
      </trkpt>
      <trkpt lat="42.785120" lon="-0.537372">
        <ele>1610.3</ele>
        <time>2017-08-15T10:02:58Z</time>
      </trkpt>
      <trkpt lat="42.785301" lon="-0.537400">
        <ele>1609.4</ele>
        <time>2017-08-15T10:03:11Z</time>
      </trkpt>
      <trkpt lat="42.785493" lon="-0.537380">
        <ele>1606.5</ele>
        <time>2017-08-15T10:03:22Z</time>
      </trkpt>
      <trkpt lat="42.785565" lon="-0.537368">
        <ele>1603.6</ele>
        <time>2017-08-15T10:03:28Z</time>
      </trkpt>
      <trkpt lat="42.785776" lon="-0.537261">
        <ele>1600.7</ele>
        <time>2017-08-15T10:03:44Z</time>
      </trkpt>
      <trkpt lat="42.785925" lon="-0.537175">
        <ele>1599.3</ele>
        <time>2017-08-15T10:03:53Z</time>
      </trkpt>
      <trkpt lat="42.785978" lon="-0.537074">
        <ele>1597.8</ele>
        <time>2017-08-15T10:17:21Z</time>
      </trkpt>
      <trkpt lat="42.786071" lon="-0.537009">
        <ele>1595.9</ele>
        <time>2017-08-15T10:17:28Z</time>
      </trkpt>
      <trkpt lat="42.786276" lon="-0.536906">
        <ele>1593.5</ele>
        <time>2017-08-15T10:17:44Z</time>
      </trkpt>
      <trkpt lat="42.786434" lon="-0.536728">
        <ele>1591.1</ele>
        <time>2017-08-15T10:17:56Z</time>
      </trkpt>
      <trkpt lat="42.786492" lon="-0.536694">
        <ele>1590.6</ele>
        <time>2017-08-15T10:18:01Z</time>
      </trkpt>
      <trkpt lat="42.786491" lon="-0.536406">
        <ele>1589.7</ele>
        <time>2017-08-15T10:18:15Z</time>
      </trkpt>
      <trkpt lat="42.786559" lon="-0.536060">
        <ele>1587.8</ele>
        <time>2017-08-15T10:18:35Z</time>
      </trkpt>
      <trkpt lat="42.786828" lon="-0.535848">
        <ele>1580.0</ele>
        <time>2017-08-15T10:18:49Z</time>
      </trkpt>
      <trkpt lat="42.786845" lon="-0.535785">
        <ele>1578.1</ele>
        <time>2017-08-15T10:52:55Z</time>
      </trkpt>
      <trkpt lat="42.786845" lon="-0.535785">
        <ele>1579.0</ele>
        <time>2017-08-15T10:52:58Z</time>
      </trkpt>
      <trkpt lat="42.786857" lon="-0.535643">
        <ele>1576.7</ele>
        <time>2017-08-15T10:53:02Z</time>
      </trkpt>
      <trkpt lat="42.786947" lon="-0.535213">
        <ele>1575.3</ele>
        <time>2017-08-15T10:53:24Z</time>
      </trkpt>
      <trkpt lat="42.787045" lon="-0.534861">
        <ele>1573.8</ele>
        <time>2017-08-15T10:53:45Z</time>
      </trkpt>
      <trkpt lat="42.787150" lon="-0.534353">
        <ele>1571.4</ele>
        <time>2017-08-15T10:54:13Z</time>
      </trkpt>
      <trkpt lat="42.787204" lon="-0.533861">
        <ele>1569.5</ele>
        <time>2017-08-15T10:54:39Z</time>
      </trkpt>
      <trkpt lat="42.787249" lon="-0.533398">
        <ele>1568.1</ele>
        <time>2017-08-15T10:55:02Z</time>
      </trkpt>
      <trkpt lat="42.787320" lon="-0.532978">
        <ele>1565.6</ele>
        <time>2017-08-15T10:55:24Z</time>
      </trkpt>
      <trkpt lat="42.787434" lon="-0.532612">
        <ele>1564.7</ele>
        <time>2017-08-15T10:55:42Z</time>
      </trkpt>
      <trkpt lat="42.787563" lon="-0.532343">
        <ele>1564.7</ele>
        <time>2017-08-15T10:56:00Z</time>
      </trkpt>
      <trkpt lat="42.787755" lon="-0.531946">
        <ele>1564.7</ele>
        <time>2017-08-15T10:56:20Z</time>
      </trkpt>
      <trkpt lat="42.787907" lon="-0.531686">
        <ele>1564.7</ele>
        <time>2017-08-15T10:56:37Z</time>
      </trkpt>
      <trkpt lat="42.788136" lon="-0.531324">
        <ele>1564.7</ele>
        <time>2017-08-15T10:56:58Z</time>
      </trkpt>
      <trkpt lat="42.788322" lon="-0.531116">
        <ele>1563.2</ele>
        <time>2017-08-15T10:57:16Z</time>
      </trkpt>
      <trkpt lat="42.788431" lon="-0.530869">
        <ele>1561.8</ele>
        <time>2017-08-15T10:57:30Z</time>
      </trkpt>
      <trkpt lat="42.788406" lon="-0.530805">
        <ele>1561.8</ele>
        <time>2017-08-15T10:57:34Z</time>
      </trkpt>
      <trkpt lat="42.788291" lon="-0.530578">
        <ele>1560.0</ele>
        <time>2017-08-15T10:57:34Z</time>
      </trkpt>
      <trkpt lat="42.788279" lon="-0.530329">
        <ele>1558.0</ele>
        <time>2017-08-15T10:57:34Z</time>
      </trkpt>
      <trkpt lat="42.788363" lon="-0.530079">
        <ele>1557.0</ele>
        <time>2017-08-15T10:57:34Z</time>
      </trkpt>
      <trkpt lat="42.788431" lon="-0.529813">
        <ele>1555.0</ele>
        <time>2017-08-15T10:57:34Z</time>
      </trkpt>
      <trkpt lat="42.788440" lon="-0.529524">
        <ele>1554.0</ele>
        <time>2017-08-15T10:57:34Z</time>
      </trkpt>
      <trkpt lat="42.788400" lon="-0.529208">
        <ele>1552.0</ele>
        <time>2017-08-15T10:57:34Z</time>
      </trkpt>
      <trkpt lat="42.788349" lon="-0.528868">
        <ele>1550.0</ele>
        <time>2017-08-15T10:57:34Z</time>
      </trkpt>
      <trkpt lat="42.788318" lon="-0.528513">
        <ele>1548.0</ele>
        <time>2017-08-15T10:57:34Z</time>
      </trkpt>
      <trkpt lat="42.788261" lon="-0.528220">
        <ele>1547.0</ele>
        <time>2017-08-15T10:57:34Z</time>
      </trkpt>
      <trkpt lat="42.788234" lon="-0.528080">
        <ele>1546.0</ele>
        <time>2017-08-15T10:57:34Z</time>
      </trkpt>
    </trkseg>
  </trk>
</gpx>
